<?xml version="1.0" encoding="UTF-8"?>
<gpx version="1.1" creator=" " xmlns="http://www.topografix.com/GPX/1/1" xmlns:xsi="http://www.w3.org/2001/XMLSchema-instance" xsi:schemaLocation="http://www.topografix.com/GPX/1/1 http://www.topografix.com/GPX/1/1/gpx.xsd">
<metadata>
<name>Trainingslager Horgau-Riederau</name>
<desc></desc>
<link href="">
<text>  </text>
</link>
<time>2022-05-25T09:28:04Z</time>
</metadata>
<trk>
<trkseg>
<trkpt lat="48.39539" lon="10.689061">
<ele>503.614</ele>
</trkpt>
<trkpt lat="48.39539" lon="10.689061">
<ele>503.614</ele>
<time>2022-05-25T09:28:04Z</time>
</trkpt>
<trkpt lat="48.395351" lon="10.689052">
<ele>502.558</ele>
<time>2022-05-25T09:31:11Z</time>
</trkpt>
<trkpt lat="48.395348" lon="10.689052">
<ele>502.439</ele>
<time>2022-05-25T09:31:12Z</time>
</trkpt>
<trkpt lat="48.395351" lon="10.689056">
<ele>502.394</ele>
<time>2022-05-25T09:31:13Z</time>
</trkpt>
<trkpt lat="48.395344" lon="10.689072">
<ele>502.37</ele>
<time>2022-05-25T09:31:14Z</time>
</trkpt>
<trkpt lat="48.395332" lon="10.689098">
<ele>502.354</ele>
<time>2022-05-25T09:31:15Z</time>
</trkpt>
<trkpt lat="48.395321" lon="10.689137">
<ele>502.343</ele>
<time>2022-05-25T09:31:16Z</time>
</trkpt>
<trkpt lat="48.395321" lon="10.689184">
<ele>502.335</ele>
<time>2022-05-25T09:31:17Z</time>
</trkpt>
<trkpt lat="48.395313" lon="10.689226">
<ele>502.33</ele>
<time>2022-05-25T09:31:18Z</time>
</trkpt>
<trkpt lat="48.395313" lon="10.689281">
<ele>502.314</ele>
<time>2022-05-25T09:31:19Z</time>
</trkpt>
<trkpt lat="48.395317" lon="10.68934">
<ele>502.314</ele>
<time>2022-05-25T09:31:20Z</time>
</trkpt>
<trkpt lat="48.395309" lon="10.689404">
<ele>502.314</ele>
<time>2022-05-25T09:31:21Z</time>
</trkpt>
<trkpt lat="48.395302" lon="10.689473">
<ele>502.314</ele>
<time>2022-05-25T09:31:22Z</time>
</trkpt>
<trkpt lat="48.39529" lon="10.689543">
<ele>502.314</ele>
<time>2022-05-25T09:31:23Z</time>
</trkpt>
<trkpt lat="48.395298" lon="10.689603">
<ele>502.314</ele>
<time>2022-05-25T09:31:24Z</time>
</trkpt>
<trkpt lat="48.395302" lon="10.689665">
<ele>502.314</ele>
<time>2022-05-25T09:31:25Z</time>
</trkpt>
<trkpt lat="48.395306" lon="10.689732">
<ele>502.314</ele>
<time>2022-05-25T09:31:26Z</time>
</trkpt>
<trkpt lat="48.395306" lon="10.68979">
<ele>502.314</ele>
<time>2022-05-25T09:31:27Z</time>
</trkpt>
<trkpt lat="48.395306" lon="10.689845">
<ele>502.314</ele>
<time>2022-05-25T09:31:28Z</time>
</trkpt>
<trkpt lat="48.395302" lon="10.689903">
<ele>502.314</ele>
<time>2022-05-25T09:31:29Z</time>
</trkpt>
<trkpt lat="48.395298" lon="10.689965">
<ele>502.314</ele>
<time>2022-05-25T09:31:30Z</time>
</trkpt>
<trkpt lat="48.39529" lon="10.690028">
<ele>502.314</ele>
<time>2022-05-25T09:31:31Z</time>
</trkpt>
<trkpt lat="48.395287" lon="10.690091">
<ele>502.314</ele>
<time>2022-05-25T09:31:32Z</time>
</trkpt>
<trkpt lat="48.395283" lon="10.690157">
<ele>502.314</ele>
<time>2022-05-25T09:31:33Z</time>
</trkpt>
<trkpt lat="48.395279" lon="10.69022">
<ele>502.314</ele>
<time>2022-05-25T09:31:34Z</time>
</trkpt>
<trkpt lat="48.395279" lon="10.690275">
<ele>502.314</ele>
<time>2022-05-25T09:31:35Z</time>
</trkpt>
<trkpt lat="48.395279" lon="10.690322">
<ele>502.314</ele>
<time>2022-05-25T09:31:36Z</time>
</trkpt>
<trkpt lat="48.395264" lon="10.690362">
<ele>502.314</ele>
<time>2022-05-25T09:31:37Z</time>
</trkpt>
<trkpt lat="48.395252" lon="10.69039">
<ele>502.314</ele>
<time>2022-05-25T09:31:38Z</time>
</trkpt>
<trkpt lat="48.395229" lon="10.690413">
<ele>502.314</ele>
<time>2022-05-25T09:31:39Z</time>
</trkpt>
<trkpt lat="48.39521" lon="10.690431">
<ele>502.314</ele>
<time>2022-05-25T09:31:40Z</time>
</trkpt>
<trkpt lat="48.395187" lon="10.690437">
<ele>502.314</ele>
<time>2022-05-25T09:31:41Z</time>
</trkpt>
<trkpt lat="48.395157" lon="10.690435">
<ele>502.314</ele>
<time>2022-05-25T09:31:42Z</time>
</trkpt>
<trkpt lat="48.395123" lon="10.690431">
<ele>502.314</ele>
<time>2022-05-25T09:31:43Z</time>
</trkpt>
<trkpt lat="48.395084" lon="10.690422">
<ele>502.314</ele>
<time>2022-05-25T09:31:44Z</time>
</trkpt>
<trkpt lat="48.395046" lon="10.690414">
<ele>502.314</ele>
<time>2022-05-25T09:31:45Z</time>
</trkpt>
<trkpt lat="48.395004" lon="10.690412">
<ele>502.314</ele>
<time>2022-05-25T09:31:46Z</time>
</trkpt>
<trkpt lat="48.394958" lon="10.690408">
<ele>502.314</ele>
<time>2022-05-25T09:31:47Z</time>
</trkpt>
<trkpt lat="48.394909" lon="10.690405">
<ele>502.314</ele>
<time>2022-05-25T09:31:48Z</time>
</trkpt>
<trkpt lat="48.394863" lon="10.690403">
<ele>502.314</ele>
<time>2022-05-25T09:31:49Z</time>
</trkpt>
<trkpt lat="48.394817" lon="10.690398">
<ele>502.314</ele>
<time>2022-05-25T09:31:50Z</time>
</trkpt>
<trkpt lat="48.394775" lon="10.69039">
<ele>502.314</ele>
<time>2022-05-25T09:31:51Z</time>
</trkpt>
<trkpt lat="48.394737" lon="10.690382">
<ele>502.314</ele>
<time>2022-05-25T09:31:52Z</time>
</trkpt>
<trkpt lat="48.394699" lon="10.690372">
<ele>502.314</ele>
<time>2022-05-25T09:31:53Z</time>
</trkpt>
<trkpt lat="48.394665" lon="10.690362">
<ele>502.055</ele>
<time>2022-05-25T09:31:54Z</time>
</trkpt>
<trkpt lat="48.394627" lon="10.690357">
<ele>501.856</ele>
<time>2022-05-25T09:31:55Z</time>
</trkpt>
<trkpt lat="48.394588" lon="10.690353">
<ele>501.696</ele>
<time>2022-05-25T09:31:56Z</time>
</trkpt>
<trkpt lat="48.394543" lon="10.690351">
<ele>501.573</ele>
<time>2022-05-25T09:31:57Z</time>
</trkpt>
<trkpt lat="48.394501" lon="10.690353">
<ele>501.49</ele>
<time>2022-05-25T09:31:58Z</time>
</trkpt>
<trkpt lat="48.394455" lon="10.690357">
<ele>501.43</ele>
<time>2022-05-25T09:31:59Z</time>
</trkpt>
<trkpt lat="48.394405" lon="10.69036">
<ele>501.387</ele>
<time>2022-05-25T09:32:00Z</time>
</trkpt>
<trkpt lat="48.394356" lon="10.690364">
<ele>501.36</ele>
<time>2022-05-25T09:32:01Z</time>
</trkpt>
<trkpt lat="48.39431" lon="10.690366">
<ele>501.36</ele>
<time>2022-05-25T09:32:02Z</time>
</trkpt>
<trkpt lat="48.394257" lon="10.690364">
<ele>501.36</ele>
<time>2022-05-25T09:32:03Z</time>
</trkpt>
<trkpt lat="48.394207" lon="10.690364">
<ele>501.36</ele>
<time>2022-05-25T09:32:04Z</time>
</trkpt>
<trkpt lat="48.394154" lon="10.69036">
<ele>501.36</ele>
<time>2022-05-25T09:32:05Z</time>
</trkpt>
<trkpt lat="48.394104" lon="10.690357">
<ele>501.104</ele>
<time>2022-05-25T09:32:06Z</time>
</trkpt>
<trkpt lat="48.394047" lon="10.690353">
<ele>500.906</ele>
<time>2022-05-25T09:32:07Z</time>
</trkpt>
<trkpt lat="48.393997" lon="10.69035">
<ele>500.755</ele>
<time>2022-05-25T09:32:08Z</time>
</trkpt>
<trkpt lat="48.393944" lon="10.690343">
<ele>500.64</ele>
<time>2022-05-25T09:32:09Z</time>
</trkpt>
<trkpt lat="48.393887" lon="10.690338">
<ele>500.563</ele>
<time>2022-05-25T09:32:10Z</time>
</trkpt>
<trkpt lat="48.393826" lon="10.690333">
<ele>500.485</ele>
<time>2022-05-25T09:32:11Z</time>
</trkpt>
<trkpt lat="48.393761" lon="10.690331">
<ele>500.191</ele>
<time>2022-05-25T09:32:12Z</time>
</trkpt>
<trkpt lat="48.3937" lon="10.690325">
<ele>499.966</ele>
<time>2022-05-25T09:32:13Z</time>
</trkpt>
<trkpt lat="48.393631" lon="10.690325">
<ele>499.719</ele>
<time>2022-05-25T09:32:14Z</time>
</trkpt>
<trkpt lat="48.393566" lon="10.690324">
<ele>499.627</ele>
<time>2022-05-25T09:32:15Z</time>
</trkpt>
<trkpt lat="48.393505" lon="10.69032">
<ele>499.298</ele>
<time>2022-05-25T09:32:16Z</time>
</trkpt>
<trkpt lat="48.393448" lon="10.690315">
<ele>499.066</ele>
<time>2022-05-25T09:32:17Z</time>
</trkpt>
<trkpt lat="48.393391" lon="10.69031">
<ele>498.907</ele>
<time>2022-05-25T09:32:18Z</time>
</trkpt>
<trkpt lat="48.393333" lon="10.690307">
<ele>498.803</ele>
<time>2022-05-25T09:32:19Z</time>
</trkpt>
<trkpt lat="48.393284" lon="10.690303">
<ele>498.732</ele>
<time>2022-05-25T09:32:20Z</time>
</trkpt>
<trkpt lat="48.393234" lon="10.690301">
<ele>498.66</ele>
<time>2022-05-25T09:32:21Z</time>
</trkpt>
<trkpt lat="48.3932" lon="10.690299">
<ele>498.612</ele>
<time>2022-05-25T09:32:22Z</time>
</trkpt>
<trkpt lat="48.393158" lon="10.690297">
<ele>498.587</ele>
<time>2022-05-25T09:32:23Z</time>
</trkpt>
<trkpt lat="48.393124" lon="10.690293">
<ele>498.587</ele>
<time>2022-05-25T09:32:24Z</time>
</trkpt>
<trkpt lat="48.393089" lon="10.690295">
<ele>498.587</ele>
<time>2022-05-25T09:32:25Z</time>
</trkpt>
<trkpt lat="48.393063" lon="10.690295">
<ele>498.587</ele>
<time>2022-05-25T09:32:26Z</time>
</trkpt>
<trkpt lat="48.393032" lon="10.690292">
<ele>498.587</ele>
<time>2022-05-25T09:32:27Z</time>
</trkpt>
<trkpt lat="48.392994" lon="10.69029">
<ele>498.349</ele>
<time>2022-05-25T09:32:28Z</time>
</trkpt>
<trkpt lat="48.392956" lon="10.690289">
<ele>498.145</ele>
<time>2022-05-25T09:32:29Z</time>
</trkpt>
<trkpt lat="48.392918" lon="10.690289">
<ele>497.996</ele>
<time>2022-05-25T09:32:30Z</time>
</trkpt>
<trkpt lat="48.392879" lon="10.690287">
<ele>497.835</ele>
<time>2022-05-25T09:32:31Z</time>
</trkpt>
<trkpt lat="48.392841" lon="10.690282">
<ele>497.71</ele>
<time>2022-05-25T09:32:32Z</time>
</trkpt>
<trkpt lat="48.392815" lon="10.690276">
<ele>497.62</ele>
<time>2022-05-25T09:32:33Z</time>
</trkpt>
<trkpt lat="48.392807" lon="10.690275">
<ele>497.569</ele>
<time>2022-05-25T09:32:34Z</time>
</trkpt>
<trkpt lat="48.392807" lon="10.690273">
<ele>497.547</ele>
<time>2022-05-25T09:32:35Z</time>
</trkpt>
<trkpt lat="48.392776" lon="10.690285">
<ele>497.547</ele>
<time>2022-05-25T09:32:53Z</time>
</trkpt>
<trkpt lat="48.392754" lon="10.690287">
<ele>497.547</ele>
<time>2022-05-25T09:32:54Z</time>
</trkpt>
<trkpt lat="48.392731" lon="10.690287">
<ele>497.547</ele>
<time>2022-05-25T09:32:55Z</time>
</trkpt>
<trkpt lat="48.392704" lon="10.690289">
<ele>497.547</ele>
<time>2022-05-25T09:32:56Z</time>
</trkpt>
<trkpt lat="48.39267" lon="10.690293">
<ele>497.547</ele>
<time>2022-05-25T09:32:57Z</time>
</trkpt>
<trkpt lat="48.392643" lon="10.690295">
<ele>497.547</ele>
<time>2022-05-25T09:32:58Z</time>
</trkpt>
<trkpt lat="48.392612" lon="10.690293">
<ele>497.547</ele>
<time>2022-05-25T09:32:59Z</time>
</trkpt>
<trkpt lat="48.392578" lon="10.69029">
<ele>497.547</ele>
<time>2022-05-25T09:33:00Z</time>
</trkpt>
<trkpt lat="48.392544" lon="10.690289">
<ele>497.547</ele>
<time>2022-05-25T09:33:01Z</time>
</trkpt>
<trkpt lat="48.392506" lon="10.69029">
<ele>497.547</ele>
<time>2022-05-25T09:33:02Z</time>
</trkpt>
<trkpt lat="48.39246" lon="10.690295">
<ele>497.547</ele>
<time>2022-05-25T09:33:03Z</time>
</trkpt>
<trkpt lat="48.392418" lon="10.690301">
<ele>497.547</ele>
<time>2022-05-25T09:33:04Z</time>
</trkpt>
<trkpt lat="48.392372" lon="10.690309">
<ele>497.547</ele>
<time>2022-05-25T09:33:05Z</time>
</trkpt>
<trkpt lat="48.392326" lon="10.690311">
<ele>497.547</ele>
<time>2022-05-25T09:33:06Z</time>
</trkpt>
<trkpt lat="48.392284" lon="10.690313">
<ele>497.547</ele>
<time>2022-05-25T09:33:07Z</time>
</trkpt>
<trkpt lat="48.392242" lon="10.690313">
<ele>497.547</ele>
<time>2022-05-25T09:33:08Z</time>
</trkpt>
<trkpt lat="48.3922" lon="10.690311">
<ele>497.547</ele>
<time>2022-05-25T09:33:09Z</time>
</trkpt>
<trkpt lat="48.392159" lon="10.690311">
<ele>497.851</ele>
<time>2022-05-25T09:33:10Z</time>
</trkpt>
<trkpt lat="48.39212" lon="10.69031">
<ele>498.079</ele>
<time>2022-05-25T09:33:11Z</time>
</trkpt>
<trkpt lat="48.392075" lon="10.690305">
<ele>498.254</ele>
<time>2022-05-25T09:33:12Z</time>
</trkpt>
<trkpt lat="48.392029" lon="10.690299">
<ele>498.379</ele>
<time>2022-05-25T09:33:13Z</time>
</trkpt>
<trkpt lat="48.391987" lon="10.69029">
<ele>498.472</ele>
<time>2022-05-25T09:33:14Z</time>
</trkpt>
<trkpt lat="48.391945" lon="10.690284">
<ele>498.53</ele>
<time>2022-05-25T09:33:15Z</time>
</trkpt>
<trkpt lat="48.391899" lon="10.69028">
<ele>498.563</ele>
<time>2022-05-25T09:33:16Z</time>
</trkpt>
<trkpt lat="48.391857" lon="10.690276">
<ele>498.587</ele>
<time>2022-05-25T09:33:17Z</time>
</trkpt>
<trkpt lat="48.391815" lon="10.690275">
<ele>498.587</ele>
<time>2022-05-25T09:33:18Z</time>
</trkpt>
<trkpt lat="48.391773" lon="10.690273">
<ele>498.587</ele>
<time>2022-05-25T09:33:19Z</time>
</trkpt>
<trkpt lat="48.391735" lon="10.690268">
<ele>498.587</ele>
<time>2022-05-25T09:33:20Z</time>
</trkpt>
<trkpt lat="48.391701" lon="10.690262">
<ele>498.587</ele>
<time>2022-05-25T09:33:21Z</time>
</trkpt>
<trkpt lat="48.391666" lon="10.690253">
<ele>498.587</ele>
<time>2022-05-25T09:33:22Z</time>
</trkpt>
<trkpt lat="48.391632" lon="10.690245">
<ele>498.587</ele>
<time>2022-05-25T09:33:23Z</time>
</trkpt>
<trkpt lat="48.391598" lon="10.690245">
<ele>498.587</ele>
<time>2022-05-25T09:33:24Z</time>
</trkpt>
<trkpt lat="48.391563" lon="10.690248">
<ele>498.587</ele>
<time>2022-05-25T09:33:25Z</time>
</trkpt>
<trkpt lat="48.391529" lon="10.690247">
<ele>498.587</ele>
<time>2022-05-25T09:33:26Z</time>
</trkpt>
<trkpt lat="48.391495" lon="10.690244">
<ele>498.587</ele>
<time>2022-05-25T09:33:27Z</time>
</trkpt>
<trkpt lat="48.391457" lon="10.69024">
<ele>498.587</ele>
<time>2022-05-25T09:33:28Z</time>
</trkpt>
<trkpt lat="48.391418" lon="10.690238">
<ele>498.587</ele>
<time>2022-05-25T09:33:29Z</time>
</trkpt>
<trkpt lat="48.39138" lon="10.690238">
<ele>498.587</ele>
<time>2022-05-25T09:33:30Z</time>
</trkpt>
<trkpt lat="48.391342" lon="10.690236">
<ele>498.587</ele>
<time>2022-05-25T09:33:31Z</time>
</trkpt>
<trkpt lat="48.391308" lon="10.690233">
<ele>498.587</ele>
<time>2022-05-25T09:33:32Z</time>
</trkpt>
<trkpt lat="48.39127" lon="10.690229">
<ele>498.587</ele>
<time>2022-05-25T09:33:33Z</time>
</trkpt>
<trkpt lat="48.391235" lon="10.690229">
<ele>498.587</ele>
<time>2022-05-25T09:33:34Z</time>
</trkpt>
<trkpt lat="48.391197" lon="10.690229">
<ele>498.587</ele>
<time>2022-05-25T09:33:35Z</time>
</trkpt>
<trkpt lat="48.391159" lon="10.690229">
<ele>498.587</ele>
<time>2022-05-25T09:33:36Z</time>
</trkpt>
<trkpt lat="48.391121" lon="10.690228">
<ele>498.587</ele>
<time>2022-05-25T09:33:37Z</time>
</trkpt>
<trkpt lat="48.391087" lon="10.690226">
<ele>498.797</ele>
<time>2022-05-25T09:33:38Z</time>
</trkpt>
<trkpt lat="48.391048" lon="10.690224">
<ele>498.975</ele>
<time>2022-05-25T09:33:39Z</time>
</trkpt>
<trkpt lat="48.39101" lon="10.69022">
<ele>499.121</ele>
<time>2022-05-25T09:33:40Z</time>
</trkpt>
<trkpt lat="48.390976" lon="10.690217">
<ele>499.238</ele>
<time>2022-05-25T09:33:41Z</time>
</trkpt>
<trkpt lat="48.390938" lon="10.690213">
<ele>499.328</ele>
<time>2022-05-25T09:33:42Z</time>
</trkpt>
<trkpt lat="48.3909" lon="10.690211">
<ele>499.392</ele>
<time>2022-05-25T09:33:43Z</time>
</trkpt>
<trkpt lat="48.390862" lon="10.690208">
<ele>499.434</ele>
<time>2022-05-25T09:33:44Z</time>
</trkpt>
<trkpt lat="48.390823" lon="10.690207">
<ele>499.454</ele>
<time>2022-05-25T09:33:45Z</time>
</trkpt>
<trkpt lat="48.390789" lon="10.690207">
<ele>499.454</ele>
<time>2022-05-25T09:33:46Z</time>
</trkpt>
<trkpt lat="48.390751" lon="10.690205">
<ele>499.454</ele>
<time>2022-05-25T09:33:47Z</time>
</trkpt>
<trkpt lat="48.390709" lon="10.690202">
<ele>499.454</ele>
<time>2022-05-25T09:33:48Z</time>
</trkpt>
<trkpt lat="48.390667" lon="10.6902">
<ele>499.454</ele>
<time>2022-05-25T09:33:49Z</time>
</trkpt>
<trkpt lat="48.390625" lon="10.690198">
<ele>499.454</ele>
<time>2022-05-25T09:33:50Z</time>
</trkpt>
<trkpt lat="48.390587" lon="10.690198">
<ele>499.454</ele>
<time>2022-05-25T09:33:51Z</time>
</trkpt>
<trkpt lat="48.390545" lon="10.690194">
<ele>499.454</ele>
<time>2022-05-25T09:33:52Z</time>
</trkpt>
<trkpt lat="48.390503" lon="10.690194">
<ele>499.454</ele>
<time>2022-05-25T09:33:53Z</time>
</trkpt>
<trkpt lat="48.390461" lon="10.690194">
<ele>499.454</ele>
<time>2022-05-25T09:33:54Z</time>
</trkpt>
<trkpt lat="48.390423" lon="10.690192">
<ele>499.454</ele>
<time>2022-05-25T09:33:55Z</time>
</trkpt>
<trkpt lat="48.390381" lon="10.690188">
<ele>499.454</ele>
<time>2022-05-25T09:33:56Z</time>
</trkpt>
<trkpt lat="48.390343" lon="10.690184">
<ele>499.454</ele>
<time>2022-05-25T09:33:57Z</time>
</trkpt>
<trkpt lat="48.390301" lon="10.69018">
<ele>499.454</ele>
<time>2022-05-25T09:33:58Z</time>
</trkpt>
<trkpt lat="48.390259" lon="10.690178">
<ele>499.454</ele>
<time>2022-05-25T09:33:59Z</time>
</trkpt>
<trkpt lat="48.390217" lon="10.69018">
<ele>499.454</ele>
<time>2022-05-25T09:34:00Z</time>
</trkpt>
<trkpt lat="48.390175" lon="10.69018">
<ele>499.454</ele>
<time>2022-05-25T09:34:01Z</time>
</trkpt>
<trkpt lat="48.390137" lon="10.690178">
<ele>499.454</ele>
<time>2022-05-25T09:34:02Z</time>
</trkpt>
<trkpt lat="48.390102" lon="10.690177">
<ele>499.454</ele>
<time>2022-05-25T09:34:03Z</time>
</trkpt>
<trkpt lat="48.390064" lon="10.690175">
<ele>499.454</ele>
<time>2022-05-25T09:34:04Z</time>
</trkpt>
<trkpt lat="48.390022" lon="10.69017">
<ele>499.454</ele>
<time>2022-05-25T09:34:05Z</time>
</trkpt>
<trkpt lat="48.389988" lon="10.690162">
<ele>499.702</ele>
<time>2022-05-25T09:34:06Z</time>
</trkpt>
<trkpt lat="48.38995" lon="10.690157">
<ele>499.88</ele>
<time>2022-05-25T09:34:07Z</time>
</trkpt>
<trkpt lat="48.389915" lon="10.690152">
<ele>500.065</ele>
<time>2022-05-25T09:34:08Z</time>
</trkpt>
<trkpt lat="48.389874" lon="10.690146">
<ele>500.213</ele>
<time>2022-05-25T09:34:09Z</time>
</trkpt>
<trkpt lat="48.389843" lon="10.69014">
<ele>500.332</ele>
<time>2022-05-25T09:34:10Z</time>
</trkpt>
<trkpt lat="48.389805" lon="10.690131">
<ele>500.405</ele>
<time>2022-05-25T09:34:11Z</time>
</trkpt>
<trkpt lat="48.389767" lon="10.690125">
<ele>500.697</ele>
<time>2022-05-25T09:34:12Z</time>
</trkpt>
<trkpt lat="48.389729" lon="10.690117">
<ele>500.921</ele>
<time>2022-05-25T09:34:13Z</time>
</trkpt>
<trkpt lat="48.38969" lon="10.690108">
<ele>501.115</ele>
<time>2022-05-25T09:34:14Z</time>
</trkpt>
<trkpt lat="48.389648" lon="10.690098">
<ele>501.23</ele>
<time>2022-05-25T09:34:15Z</time>
</trkpt>
<trkpt lat="48.389614" lon="10.690089">
<ele>501.308</ele>
<time>2022-05-25T09:34:16Z</time>
</trkpt>
<trkpt lat="48.38958" lon="10.690081">
<ele>501.367</ele>
<time>2022-05-25T09:34:17Z</time>
</trkpt>
<trkpt lat="48.389545" lon="10.690073">
<ele>501.421</ele>
<time>2022-05-25T09:34:18Z</time>
</trkpt>
<trkpt lat="48.389511" lon="10.690066">
<ele>501.676</ele>
<time>2022-05-25T09:34:19Z</time>
</trkpt>
<trkpt lat="48.389477" lon="10.690068">
<ele>501.946</ele>
<time>2022-05-25T09:34:20Z</time>
</trkpt>
<trkpt lat="48.389442" lon="10.690082">
<ele>502.112</ele>
<time>2022-05-25T09:34:21Z</time>
</trkpt>
<trkpt lat="48.38942" lon="10.69011">
<ele>502.228</ele>
<time>2022-05-25T09:34:22Z</time>
</trkpt>
<trkpt lat="48.389397" lon="10.69015">
<ele>502.32</ele>
<time>2022-05-25T09:34:23Z</time>
</trkpt>
<trkpt lat="48.389385" lon="10.690198">
<ele>502.375</ele>
<time>2022-05-25T09:34:24Z</time>
</trkpt>
<trkpt lat="48.389381" lon="10.69025">
<ele>502.4</ele>
<time>2022-05-25T09:34:25Z</time>
</trkpt>
<trkpt lat="48.389374" lon="10.690303">
<ele>502.4</ele>
<time>2022-05-25T09:34:26Z</time>
</trkpt>
<trkpt lat="48.389366" lon="10.690358">
<ele>502.4</ele>
<time>2022-05-25T09:34:27Z</time>
</trkpt>
<trkpt lat="48.389359" lon="10.690413">
<ele>502.4</ele>
<time>2022-05-25T09:34:28Z</time>
</trkpt>
<trkpt lat="48.389351" lon="10.690471">
<ele>502.4</ele>
<time>2022-05-25T09:34:29Z</time>
</trkpt>
<trkpt lat="48.389343" lon="10.690525">
<ele>502.4</ele>
<time>2022-05-25T09:34:30Z</time>
</trkpt>
<trkpt lat="48.389336" lon="10.690581">
<ele>502.4</ele>
<time>2022-05-25T09:34:31Z</time>
</trkpt>
<trkpt lat="48.389324" lon="10.69064">
<ele>502.4</ele>
<time>2022-05-25T09:34:32Z</time>
</trkpt>
<trkpt lat="48.38932" lon="10.690699">
<ele>502.4</ele>
<time>2022-05-25T09:34:33Z</time>
</trkpt>
<trkpt lat="48.389313" lon="10.690757">
<ele>502.4</ele>
<time>2022-05-25T09:34:34Z</time>
</trkpt>
<trkpt lat="48.389301" lon="10.690815">
<ele>502.4</ele>
<time>2022-05-25T09:34:35Z</time>
</trkpt>
<trkpt lat="48.389294" lon="10.690873">
<ele>502.4</ele>
<time>2022-05-25T09:34:36Z</time>
</trkpt>
<trkpt lat="48.389286" lon="10.690933">
<ele>502.4</ele>
<time>2022-05-25T09:34:37Z</time>
</trkpt>
<trkpt lat="48.389278" lon="10.690993">
<ele>502.4</ele>
<time>2022-05-25T09:34:38Z</time>
</trkpt>
<trkpt lat="48.389271" lon="10.691055">
<ele>502.4</ele>
<time>2022-05-25T09:34:39Z</time>
</trkpt>
<trkpt lat="48.389259" lon="10.691115">
<ele>502.4</ele>
<time>2022-05-25T09:34:40Z</time>
</trkpt>
<trkpt lat="48.389252" lon="10.691172">
<ele>502.4</ele>
<time>2022-05-25T09:34:41Z</time>
</trkpt>
<trkpt lat="48.38924" lon="10.691232">
<ele>502.4</ele>
<time>2022-05-25T09:34:42Z</time>
</trkpt>
<trkpt lat="48.389233" lon="10.691294">
<ele>502.4</ele>
<time>2022-05-25T09:34:43Z</time>
</trkpt>
<trkpt lat="48.389221" lon="10.691359">
<ele>502.4</ele>
<time>2022-05-25T09:34:44Z</time>
</trkpt>
<trkpt lat="48.389214" lon="10.691425">
<ele>502.4</ele>
<time>2022-05-25T09:34:45Z</time>
</trkpt>
<trkpt lat="48.389202" lon="10.691493">
<ele>502.4</ele>
<time>2022-05-25T09:34:46Z</time>
</trkpt>
<trkpt lat="48.389191" lon="10.691562">
<ele>502.4</ele>
<time>2022-05-25T09:34:47Z</time>
</trkpt>
<trkpt lat="48.389183" lon="10.691631">
<ele>502.4</ele>
<time>2022-05-25T09:34:48Z</time>
</trkpt>
<trkpt lat="48.389172" lon="10.6917">
<ele>502.4</ele>
<time>2022-05-25T09:34:49Z</time>
</trkpt>
<trkpt lat="48.38916" lon="10.69177">
<ele>502.4</ele>
<time>2022-05-25T09:34:50Z</time>
</trkpt>
<trkpt lat="48.389153" lon="10.69184">
<ele>502.4</ele>
<time>2022-05-25T09:34:51Z</time>
</trkpt>
<trkpt lat="48.389141" lon="10.691912">
<ele>502.4</ele>
<time>2022-05-25T09:34:52Z</time>
</trkpt>
<trkpt lat="48.38913" lon="10.691983">
<ele>502.4</ele>
<time>2022-05-25T09:34:53Z</time>
</trkpt>
<trkpt lat="48.389126" lon="10.692055">
<ele>502.4</ele>
<time>2022-05-25T09:34:54Z</time>
</trkpt>
<trkpt lat="48.389111" lon="10.692126">
<ele>502.4</ele>
<time>2022-05-25T09:34:55Z</time>
</trkpt>
<trkpt lat="48.389099" lon="10.692197">
<ele>502.4</ele>
<time>2022-05-25T09:34:56Z</time>
</trkpt>
<trkpt lat="48.389091" lon="10.692268">
<ele>502.4</ele>
<time>2022-05-25T09:34:57Z</time>
</trkpt>
<trkpt lat="48.389084" lon="10.692337">
<ele>502.4</ele>
<time>2022-05-25T09:34:58Z</time>
</trkpt>
<trkpt lat="48.389069" lon="10.692409">
<ele>502.089</ele>
<time>2022-05-25T09:34:59Z</time>
</trkpt>
<trkpt lat="48.389061" lon="10.69248">
<ele>501.849</ele>
<time>2022-05-25T09:35:00Z</time>
</trkpt>
<trkpt lat="48.389053" lon="10.692554">
<ele>501.667</ele>
<time>2022-05-25T09:35:01Z</time>
</trkpt>
<trkpt lat="48.389042" lon="10.692629">
<ele>501.538</ele>
<time>2022-05-25T09:35:02Z</time>
</trkpt>
<trkpt lat="48.38903" lon="10.692701">
<ele>501.442</ele>
<time>2022-05-25T09:35:03Z</time>
</trkpt>
<trkpt lat="48.389027" lon="10.692775">
<ele>501.386</ele>
<time>2022-05-25T09:35:04Z</time>
</trkpt>
<trkpt lat="48.389015" lon="10.692846">
<ele>501.365</ele>
<time>2022-05-25T09:35:05Z</time>
</trkpt>
<trkpt lat="48.389004" lon="10.69292">
<ele>501.36</ele>
<time>2022-05-25T09:35:06Z</time>
</trkpt>
<trkpt lat="48.388996" lon="10.692993">
<ele>501.36</ele>
<time>2022-05-25T09:35:07Z</time>
</trkpt>
<trkpt lat="48.388988" lon="10.693069">
<ele>501.36</ele>
<time>2022-05-25T09:35:08Z</time>
</trkpt>
<trkpt lat="48.388977" lon="10.693144">
<ele>501.36</ele>
<time>2022-05-25T09:35:09Z</time>
</trkpt>
<trkpt lat="48.388969" lon="10.69322">
<ele>501.36</ele>
<time>2022-05-25T09:35:10Z</time>
</trkpt>
<trkpt lat="48.388962" lon="10.693293">
<ele>501.36</ele>
<time>2022-05-25T09:35:11Z</time>
</trkpt>
<trkpt lat="48.388954" lon="10.693368">
<ele>501.36</ele>
<time>2022-05-25T09:35:12Z</time>
</trkpt>
<trkpt lat="48.388943" lon="10.693439">
<ele>501.36</ele>
<time>2022-05-25T09:35:13Z</time>
</trkpt>
<trkpt lat="48.388935" lon="10.693512">
<ele>501.36</ele>
<time>2022-05-25T09:35:14Z</time>
</trkpt>
<trkpt lat="48.388927" lon="10.693583">
<ele>501.36</ele>
<time>2022-05-25T09:35:15Z</time>
</trkpt>
<trkpt lat="48.388916" lon="10.693655">
<ele>501.36</ele>
<time>2022-05-25T09:35:16Z</time>
</trkpt>
<trkpt lat="48.388905" lon="10.693727">
<ele>501.36</ele>
<time>2022-05-25T09:35:17Z</time>
</trkpt>
<trkpt lat="48.388897" lon="10.693798">
<ele>501.36</ele>
<time>2022-05-25T09:35:18Z</time>
</trkpt>
<trkpt lat="48.388889" lon="10.693871">
<ele>501.36</ele>
<time>2022-05-25T09:35:19Z</time>
</trkpt>
<trkpt lat="48.388878" lon="10.693942">
<ele>501.36</ele>
<time>2022-05-25T09:35:20Z</time>
</trkpt>
<trkpt lat="48.38887" lon="10.694014">
<ele>501.36</ele>
<time>2022-05-25T09:35:21Z</time>
</trkpt>
<trkpt lat="48.388863" lon="10.694085">
<ele>501.36</ele>
<time>2022-05-25T09:35:22Z</time>
</trkpt>
<trkpt lat="48.388855" lon="10.694157">
<ele>501.36</ele>
<time>2022-05-25T09:35:23Z</time>
</trkpt>
<trkpt lat="48.388844" lon="10.694227">
<ele>501.36</ele>
<time>2022-05-25T09:35:24Z</time>
</trkpt>
<trkpt lat="48.388836" lon="10.694297">
<ele>501.36</ele>
<time>2022-05-25T09:35:25Z</time>
</trkpt>
<trkpt lat="48.388828" lon="10.694366">
<ele>501.36</ele>
<time>2022-05-25T09:35:26Z</time>
</trkpt>
<trkpt lat="48.388821" lon="10.694435">
<ele>501.36</ele>
<time>2022-05-25T09:35:27Z</time>
</trkpt>
<trkpt lat="48.388813" lon="10.694504">
<ele>501.36</ele>
<time>2022-05-25T09:35:28Z</time>
</trkpt>
<trkpt lat="48.388802" lon="10.694571">
<ele>501.36</ele>
<time>2022-05-25T09:35:29Z</time>
</trkpt>
<trkpt lat="48.388794" lon="10.69464">
<ele>501.36</ele>
<time>2022-05-25T09:35:30Z</time>
</trkpt>
<trkpt lat="48.388786" lon="10.694709">
<ele>501.36</ele>
<time>2022-05-25T09:35:31Z</time>
</trkpt>
<trkpt lat="48.388775" lon="10.694777">
<ele>501.36</ele>
<time>2022-05-25T09:35:32Z</time>
</trkpt>
<trkpt lat="48.388767" lon="10.694848">
<ele>501.36</ele>
<time>2022-05-25T09:35:33Z</time>
</trkpt>
<trkpt lat="48.38876" lon="10.694921">
<ele>501.36</ele>
<time>2022-05-25T09:35:34Z</time>
</trkpt>
<trkpt lat="48.388752" lon="10.694992">
<ele>501.36</ele>
<time>2022-05-25T09:35:35Z</time>
</trkpt>
<trkpt lat="48.388744" lon="10.695062">
<ele>501.36</ele>
<time>2022-05-25T09:35:36Z</time>
</trkpt>
<trkpt lat="48.388733" lon="10.69513">
<ele>501.36</ele>
<time>2022-05-25T09:35:37Z</time>
</trkpt>
<trkpt lat="48.388729" lon="10.695199">
<ele>501.36</ele>
<time>2022-05-25T09:35:38Z</time>
</trkpt>
<trkpt lat="48.388718" lon="10.695267">
<ele>501.36</ele>
<time>2022-05-25T09:35:39Z</time>
</trkpt>
<trkpt lat="48.38871" lon="10.695335">
<ele>501.36</ele>
<time>2022-05-25T09:35:40Z</time>
</trkpt>
<trkpt lat="48.388702" lon="10.695403">
<ele>501.36</ele>
<time>2022-05-25T09:35:41Z</time>
</trkpt>
<trkpt lat="48.388695" lon="10.695472">
<ele>501.36</ele>
<time>2022-05-25T09:35:42Z</time>
</trkpt>
<trkpt lat="48.388683" lon="10.69554">
<ele>501.36</ele>
<time>2022-05-25T09:35:43Z</time>
</trkpt>
<trkpt lat="48.388676" lon="10.69561">
<ele>501.36</ele>
<time>2022-05-25T09:35:44Z</time>
</trkpt>
<trkpt lat="48.388668" lon="10.695679">
<ele>501.36</ele>
<time>2022-05-25T09:35:45Z</time>
</trkpt>
<trkpt lat="48.38866" lon="10.695745">
<ele>501.36</ele>
<time>2022-05-25T09:35:46Z</time>
</trkpt>
<trkpt lat="48.388649" lon="10.695813">
<ele>501.36</ele>
<time>2022-05-25T09:35:47Z</time>
</trkpt>
<trkpt lat="48.388641" lon="10.695884">
<ele>501.36</ele>
<time>2022-05-25T09:35:48Z</time>
</trkpt>
<trkpt lat="48.388634" lon="10.695951">
<ele>501.36</ele>
<time>2022-05-25T09:35:49Z</time>
</trkpt>
<trkpt lat="48.388626" lon="10.69602">
<ele>501.36</ele>
<time>2022-05-25T09:35:50Z</time>
</trkpt>
<trkpt lat="48.388615" lon="10.696085">
<ele>501.36</ele>
<time>2022-05-25T09:35:51Z</time>
</trkpt>
<trkpt lat="48.388607" lon="10.696152">
<ele>501.36</ele>
<time>2022-05-25T09:35:52Z</time>
</trkpt>
<trkpt lat="48.388603" lon="10.696219">
<ele>501.36</ele>
<time>2022-05-25T09:35:53Z</time>
</trkpt>
<trkpt lat="48.388592" lon="10.696288">
<ele>501.36</ele>
<time>2022-05-25T09:35:54Z</time>
</trkpt>
<trkpt lat="48.388584" lon="10.696358">
<ele>501.36</ele>
<time>2022-05-25T09:35:55Z</time>
</trkpt>
<trkpt lat="48.388573" lon="10.696426">
<ele>501.36</ele>
<time>2022-05-25T09:35:56Z</time>
</trkpt>
<trkpt lat="48.388569" lon="10.696496">
<ele>501.36</ele>
<time>2022-05-25T09:35:57Z</time>
</trkpt>
<trkpt lat="48.388561" lon="10.696565">
<ele>501.36</ele>
<time>2022-05-25T09:35:58Z</time>
</trkpt>
<trkpt lat="48.38855" lon="10.696634">
<ele>501.36</ele>
<time>2022-05-25T09:35:59Z</time>
</trkpt>
<trkpt lat="48.388542" lon="10.696705">
<ele>501.36</ele>
<time>2022-05-25T09:36:00Z</time>
</trkpt>
<trkpt lat="48.388538" lon="10.696774">
<ele>501.36</ele>
<time>2022-05-25T09:36:01Z</time>
</trkpt>
<trkpt lat="48.388527" lon="10.696845">
<ele>501.36</ele>
<time>2022-05-25T09:36:02Z</time>
</trkpt>
<trkpt lat="48.388515" lon="10.696917">
<ele>501.36</ele>
<time>2022-05-25T09:36:03Z</time>
</trkpt>
<trkpt lat="48.388508" lon="10.696988">
<ele>501.36</ele>
<time>2022-05-25T09:36:04Z</time>
</trkpt>
<trkpt lat="48.3885" lon="10.697058">
<ele>501.36</ele>
<time>2022-05-25T09:36:05Z</time>
</trkpt>
<trkpt lat="48.388489" lon="10.697128">
<ele>501.36</ele>
<time>2022-05-25T09:36:06Z</time>
</trkpt>
<trkpt lat="48.388481" lon="10.697198">
<ele>501.36</ele>
<time>2022-05-25T09:36:07Z</time>
</trkpt>
<trkpt lat="48.388474" lon="10.697268">
<ele>501.36</ele>
<time>2022-05-25T09:36:08Z</time>
</trkpt>
<trkpt lat="48.38847" lon="10.697338">
<ele>501.36</ele>
<time>2022-05-25T09:36:09Z</time>
</trkpt>
<trkpt lat="48.388458" lon="10.69741">
<ele>501.36</ele>
<time>2022-05-25T09:36:10Z</time>
</trkpt>
<trkpt lat="48.388451" lon="10.69748">
<ele>501.36</ele>
<time>2022-05-25T09:36:11Z</time>
</trkpt>
<trkpt lat="48.388439" lon="10.69755">
<ele>501.36</ele>
<time>2022-05-25T09:36:12Z</time>
</trkpt>
<trkpt lat="48.388432" lon="10.697619">
<ele>501.36</ele>
<time>2022-05-25T09:36:13Z</time>
</trkpt>
<trkpt lat="48.38842" lon="10.697688">
<ele>501.36</ele>
<time>2022-05-25T09:36:14Z</time>
</trkpt>
<trkpt lat="48.388412" lon="10.697757">
<ele>501.36</ele>
<time>2022-05-25T09:36:15Z</time>
</trkpt>
<trkpt lat="48.388405" lon="10.697824">
<ele>501.36</ele>
<time>2022-05-25T09:36:16Z</time>
</trkpt>
<trkpt lat="48.388397" lon="10.697893">
<ele>501.36</ele>
<time>2022-05-25T09:36:17Z</time>
</trkpt>
<trkpt lat="48.38839" lon="10.697963">
<ele>501.36</ele>
<time>2022-05-25T09:36:18Z</time>
</trkpt>
<trkpt lat="48.388382" lon="10.698033">
<ele>501.36</ele>
<time>2022-05-25T09:36:19Z</time>
</trkpt>
<trkpt lat="48.388374" lon="10.698103">
<ele>501.36</ele>
<time>2022-05-25T09:36:20Z</time>
</trkpt>
<trkpt lat="48.388363" lon="10.698174">
<ele>501.36</ele>
<time>2022-05-25T09:36:21Z</time>
</trkpt>
<trkpt lat="48.388351" lon="10.698243">
<ele>501.36</ele>
<time>2022-05-25T09:36:22Z</time>
</trkpt>
<trkpt lat="48.38834" lon="10.698313">
<ele>501.36</ele>
<time>2022-05-25T09:36:23Z</time>
</trkpt>
<trkpt lat="48.388329" lon="10.698383">
<ele>501.36</ele>
<time>2022-05-25T09:36:24Z</time>
</trkpt>
<trkpt lat="48.388313" lon="10.698453">
<ele>501.36</ele>
<time>2022-05-25T09:36:25Z</time>
</trkpt>
<trkpt lat="48.388302" lon="10.698524">
<ele>501.36</ele>
<time>2022-05-25T09:36:26Z</time>
</trkpt>
<trkpt lat="48.388287" lon="10.698595">
<ele>501.36</ele>
<time>2022-05-25T09:36:27Z</time>
</trkpt>
<trkpt lat="48.388279" lon="10.698667">
<ele>501.36</ele>
<time>2022-05-25T09:36:28Z</time>
</trkpt>
<trkpt lat="48.388264" lon="10.698738">
<ele>501.36</ele>
<time>2022-05-25T09:36:29Z</time>
</trkpt>
<trkpt lat="48.388248" lon="10.698812">
<ele>501.36</ele>
<time>2022-05-25T09:36:30Z</time>
</trkpt>
<trkpt lat="48.388233" lon="10.698887">
<ele>501.36</ele>
<time>2022-05-25T09:36:31Z</time>
</trkpt>
<trkpt lat="48.388218" lon="10.698964">
<ele>501.36</ele>
<time>2022-05-25T09:36:32Z</time>
</trkpt>
<trkpt lat="48.388206" lon="10.699039">
<ele>501.36</ele>
<time>2022-05-25T09:36:33Z</time>
</trkpt>
<trkpt lat="48.388187" lon="10.699117">
<ele>501.36</ele>
<time>2022-05-25T09:36:34Z</time>
</trkpt>
<trkpt lat="48.388176" lon="10.699195">
<ele>501.36</ele>
<time>2022-05-25T09:36:35Z</time>
</trkpt>
<trkpt lat="48.388161" lon="10.69927">
<ele>501.103</ele>
<time>2022-05-25T09:36:36Z</time>
</trkpt>
<trkpt lat="48.388145" lon="10.699347">
<ele>500.922</ele>
<time>2022-05-25T09:36:37Z</time>
</trkpt>
<trkpt lat="48.38813" lon="10.69942">
<ele>500.739</ele>
<time>2022-05-25T09:36:38Z</time>
</trkpt>
<trkpt lat="48.388115" lon="10.699494">
<ele>500.593</ele>
<time>2022-05-25T09:36:39Z</time>
</trkpt>
<trkpt lat="48.388103" lon="10.69957">
<ele>500.481</ele>
<time>2022-05-25T09:36:40Z</time>
</trkpt>
<trkpt lat="48.388088" lon="10.699645">
<ele>500.399</ele>
<time>2022-05-25T09:36:41Z</time>
</trkpt>
<trkpt lat="48.388077" lon="10.699722">
<ele>500.346</ele>
<time>2022-05-25T09:36:42Z</time>
</trkpt>
<trkpt lat="48.388058" lon="10.699799">
<ele>500.32</ele>
<time>2022-05-25T09:36:43Z</time>
</trkpt>
<trkpt lat="48.38805" lon="10.699873">
<ele>500.32</ele>
<time>2022-05-25T09:36:44Z</time>
</trkpt>
<trkpt lat="48.388031" lon="10.69995">
<ele>500.32</ele>
<time>2022-05-25T09:36:45Z</time>
</trkpt>
<trkpt lat="48.388016" lon="10.700025">
<ele>500.32</ele>
<time>2022-05-25T09:36:46Z</time>
</trkpt>
<trkpt lat="48.388004" lon="10.7001">
<ele>500.32</ele>
<time>2022-05-25T09:36:47Z</time>
</trkpt>
<trkpt lat="48.387989" lon="10.700175">
<ele>500.32</ele>
<time>2022-05-25T09:36:48Z</time>
</trkpt>
<trkpt lat="48.387981" lon="10.700251">
<ele>500.32</ele>
<time>2022-05-25T09:36:49Z</time>
</trkpt>
<trkpt lat="48.387966" lon="10.700325">
<ele>500.32</ele>
<time>2022-05-25T09:36:50Z</time>
</trkpt>
<trkpt lat="48.387951" lon="10.700398">
<ele>500.32</ele>
<time>2022-05-25T09:36:51Z</time>
</trkpt>
<trkpt lat="48.387939" lon="10.70047">
<ele>500.32</ele>
<time>2022-05-25T09:36:52Z</time>
</trkpt>
<trkpt lat="48.38792" lon="10.700543">
<ele>500.32</ele>
<time>2022-05-25T09:36:53Z</time>
</trkpt>
<trkpt lat="48.387913" lon="10.700617">
<ele>500.32</ele>
<time>2022-05-25T09:36:54Z</time>
</trkpt>
<trkpt lat="48.387894" lon="10.700688">
<ele>500.32</ele>
<time>2022-05-25T09:36:55Z</time>
</trkpt>
<trkpt lat="48.387882" lon="10.700758">
<ele>500.32</ele>
<time>2022-05-25T09:36:56Z</time>
</trkpt>
<trkpt lat="48.387867" lon="10.700829">
<ele>500.32</ele>
<time>2022-05-25T09:36:57Z</time>
</trkpt>
<trkpt lat="48.387856" lon="10.700898">
<ele>500.32</ele>
<time>2022-05-25T09:36:58Z</time>
</trkpt>
<trkpt lat="48.387844" lon="10.700965">
<ele>500.32</ele>
<time>2022-05-25T09:36:59Z</time>
</trkpt>
<trkpt lat="48.387833" lon="10.701025">
<ele>500.32</ele>
<time>2022-05-25T09:37:00Z</time>
</trkpt>
<trkpt lat="48.387817" lon="10.701078">
<ele>500.32</ele>
<time>2022-05-25T09:37:01Z</time>
</trkpt>
<trkpt lat="48.387791" lon="10.701118">
<ele>500.32</ele>
<time>2022-05-25T09:37:02Z</time>
</trkpt>
<trkpt lat="48.38776" lon="10.701145">
<ele>500.32</ele>
<time>2022-05-25T09:37:03Z</time>
</trkpt>
<trkpt lat="48.38773" lon="10.701159">
<ele>500.32</ele>
<time>2022-05-25T09:37:04Z</time>
</trkpt>
<trkpt lat="48.387699" lon="10.701157">
<ele>500.32</ele>
<time>2022-05-25T09:37:05Z</time>
</trkpt>
<trkpt lat="48.387665" lon="10.70115">
<ele>500.32</ele>
<time>2022-05-25T09:37:06Z</time>
</trkpt>
<trkpt lat="48.38763" lon="10.701141">
<ele>500.32</ele>
<time>2022-05-25T09:37:07Z</time>
</trkpt>
<trkpt lat="48.3876" lon="10.701133">
<ele>500.32</ele>
<time>2022-05-25T09:37:08Z</time>
</trkpt>
<trkpt lat="48.387569" lon="10.701124">
<ele>500.32</ele>
<time>2022-05-25T09:37:09Z</time>
</trkpt>
<trkpt lat="48.387535" lon="10.701116">
<ele>500.32</ele>
<time>2022-05-25T09:37:10Z</time>
</trkpt>
<trkpt lat="48.387501" lon="10.70111">
<ele>500.32</ele>
<time>2022-05-25T09:37:11Z</time>
</trkpt>
<trkpt lat="48.38747" lon="10.701101">
<ele>500.32</ele>
<time>2022-05-25T09:37:12Z</time>
</trkpt>
<trkpt lat="48.387432" lon="10.701092">
<ele>500.32</ele>
<time>2022-05-25T09:37:13Z</time>
</trkpt>
<trkpt lat="48.38739" lon="10.701083">
<ele>500.32</ele>
<time>2022-05-25T09:37:14Z</time>
</trkpt>
<trkpt lat="48.387341" lon="10.701072">
<ele>500.32</ele>
<time>2022-05-25T09:37:15Z</time>
</trkpt>
<trkpt lat="48.387291" lon="10.701059">
<ele>500.32</ele>
<time>2022-05-25T09:37:16Z</time>
</trkpt>
<trkpt lat="48.387238" lon="10.701051">
<ele>500.553</ele>
<time>2022-05-25T09:37:17Z</time>
</trkpt>
<trkpt lat="48.387188" lon="10.70104">
<ele>500.768</ele>
<time>2022-05-25T09:37:18Z</time>
</trkpt>
<trkpt lat="48.387138" lon="10.701032">
<ele>500.935</ele>
<time>2022-05-25T09:37:19Z</time>
</trkpt>
<trkpt lat="48.387089" lon="10.701021">
<ele>501.059</ele>
<time>2022-05-25T09:37:20Z</time>
</trkpt>
<trkpt lat="48.387039" lon="10.70101">
<ele>501.146</ele>
<time>2022-05-25T09:37:21Z</time>
</trkpt>
<trkpt lat="48.38699" lon="10.701002">
<ele>501.199</ele>
<time>2022-05-25T09:37:22Z</time>
</trkpt>
<trkpt lat="48.38694" lon="10.70099">
<ele>501.458</ele>
<time>2022-05-25T09:37:23Z</time>
</trkpt>
<trkpt lat="48.386887" lon="10.700978">
<ele>501.66</ele>
<time>2022-05-25T09:37:24Z</time>
</trkpt>
<trkpt lat="48.386841" lon="10.70097">
<ele>501.817</ele>
<time>2022-05-25T09:37:25Z</time>
</trkpt>
<trkpt lat="48.386787" lon="10.700961">
<ele>501.924</ele>
<time>2022-05-25T09:37:26Z</time>
</trkpt>
<trkpt lat="48.386738" lon="10.700953">
<ele>501.998</ele>
<time>2022-05-25T09:37:27Z</time>
</trkpt>
<trkpt lat="48.386684" lon="10.700942">
<ele>502.07</ele>
<time>2022-05-25T09:37:28Z</time>
</trkpt>
<trkpt lat="48.386639" lon="10.700933">
<ele>502.118</ele>
<time>2022-05-25T09:37:29Z</time>
</trkpt>
<trkpt lat="48.386585" lon="10.700921">
<ele>502.141</ele>
<time>2022-05-25T09:37:30Z</time>
</trkpt>
<trkpt lat="48.386536" lon="10.700913">
<ele>502.141</ele>
<time>2022-05-25T09:37:31Z</time>
</trkpt>
<trkpt lat="48.386486" lon="10.700909">
<ele>502.399</ele>
<time>2022-05-25T09:37:32Z</time>
</trkpt>
<trkpt lat="48.38644" lon="10.700909">
<ele>502.599</ele>
<time>2022-05-25T09:37:33Z</time>
</trkpt>
<trkpt lat="48.386395" lon="10.700905">
<ele>502.752</ele>
<time>2022-05-25T09:37:34Z</time>
</trkpt>
<trkpt lat="48.38636" lon="10.700911">
<ele>502.869</ele>
<time>2022-05-25T09:37:35Z</time>
</trkpt>
<trkpt lat="48.386333" lon="10.700925">
<ele>502.948</ele>
<time>2022-05-25T09:37:36Z</time>
</trkpt>
<trkpt lat="48.386318" lon="10.70094">
<ele>503.01</ele>
<time>2022-05-25T09:37:37Z</time>
</trkpt>
<trkpt lat="48.386307" lon="10.700953">
<ele>503.064</ele>
<time>2022-05-25T09:37:38Z</time>
</trkpt>
<trkpt lat="48.386295" lon="10.700967">
<ele>503.094</ele>
<time>2022-05-25T09:37:39Z</time>
</trkpt>
<trkpt lat="48.386288" lon="10.70098">
<ele>503.094</ele>
<time>2022-05-25T09:37:40Z</time>
</trkpt>
<trkpt lat="48.386276" lon="10.70099">
<ele>503.094</ele>
<time>2022-05-25T09:37:41Z</time>
</trkpt>
<trkpt lat="48.386257" lon="10.700996">
<ele>503.094</ele>
<time>2022-05-25T09:37:42Z</time>
</trkpt>
<trkpt lat="48.386242" lon="10.700994">
<ele>503.094</ele>
<time>2022-05-25T09:37:43Z</time>
</trkpt>
<trkpt lat="48.386223" lon="10.700986">
<ele>503.094</ele>
<time>2022-05-25T09:37:44Z</time>
</trkpt>
<trkpt lat="48.386204" lon="10.700974">
<ele>503.094</ele>
<time>2022-05-25T09:37:45Z</time>
</trkpt>
<trkpt lat="48.386177" lon="10.700967">
<ele>503.094</ele>
<time>2022-05-25T09:37:46Z</time>
</trkpt>
<trkpt lat="48.38615" lon="10.700965">
<ele>503.094</ele>
<time>2022-05-25T09:37:47Z</time>
</trkpt>
<trkpt lat="48.38612" lon="10.700961">
<ele>503.094</ele>
<time>2022-05-25T09:37:48Z</time>
</trkpt>
<trkpt lat="48.386089" lon="10.700954">
<ele>503.094</ele>
<time>2022-05-25T09:37:49Z</time>
</trkpt>
<trkpt lat="48.386055" lon="10.700949">
<ele>503.094</ele>
<time>2022-05-25T09:37:50Z</time>
</trkpt>
<trkpt lat="48.386024" lon="10.700944">
<ele>503.094</ele>
<time>2022-05-25T09:37:51Z</time>
</trkpt>
<trkpt lat="48.385994" lon="10.700938">
<ele>503.094</ele>
<time>2022-05-25T09:37:52Z</time>
</trkpt>
<trkpt lat="48.385963" lon="10.700932">
<ele>503.094</ele>
<time>2022-05-25T09:37:53Z</time>
</trkpt>
<trkpt lat="48.385929" lon="10.700929">
<ele>503.094</ele>
<time>2022-05-25T09:37:54Z</time>
</trkpt>
<trkpt lat="48.385899" lon="10.700923">
<ele>503.094</ele>
<time>2022-05-25T09:37:55Z</time>
</trkpt>
<trkpt lat="48.385864" lon="10.700914">
<ele>503.094</ele>
<time>2022-05-25T09:37:56Z</time>
</trkpt>
<trkpt lat="48.38583" lon="10.700907">
<ele>503.094</ele>
<time>2022-05-25T09:37:57Z</time>
</trkpt>
<trkpt lat="48.385799" lon="10.7009">
<ele>503.094</ele>
<time>2022-05-25T09:37:58Z</time>
</trkpt>
<trkpt lat="48.385765" lon="10.700896">
<ele>503.094</ele>
<time>2022-05-25T09:37:59Z</time>
</trkpt>
<trkpt lat="48.385735" lon="10.70089">
<ele>503.399</ele>
<time>2022-05-25T09:38:00Z</time>
</trkpt>
<trkpt lat="48.3857" lon="10.700883">
<ele>503.63</ele>
<time>2022-05-25T09:38:01Z</time>
</trkpt>
<trkpt lat="48.38567" lon="10.700879">
<ele>503.805</ele>
<time>2022-05-25T09:38:02Z</time>
</trkpt>
<trkpt lat="48.385635" lon="10.700873">
<ele>503.932</ele>
<time>2022-05-25T09:38:03Z</time>
</trkpt>
<trkpt lat="48.385605" lon="10.700867">
<ele>504.025</ele>
<time>2022-05-25T09:38:04Z</time>
</trkpt>
<trkpt lat="48.385571" lon="10.700862">
<ele>504.075</ele>
<time>2022-05-25T09:38:05Z</time>
</trkpt>
<trkpt lat="48.38554" lon="10.700855">
<ele>504.11</ele>
<time>2022-05-25T09:38:06Z</time>
</trkpt>
<trkpt lat="48.385502" lon="10.700847">
<ele>504.134</ele>
<time>2022-05-25T09:38:07Z</time>
</trkpt>
<trkpt lat="48.385468" lon="10.70084">
<ele>504.134</ele>
<time>2022-05-25T09:38:08Z</time>
</trkpt>
<trkpt lat="48.385433" lon="10.700835">
<ele>504.134</ele>
<time>2022-05-25T09:38:09Z</time>
</trkpt>
<trkpt lat="48.385395" lon="10.70083">
<ele>504.134</ele>
<time>2022-05-25T09:38:10Z</time>
</trkpt>
<trkpt lat="48.385357" lon="10.700818">
<ele>504.134</ele>
<time>2022-05-25T09:38:11Z</time>
</trkpt>
<trkpt lat="48.385319" lon="10.700809">
<ele>504.134</ele>
<time>2022-05-25T09:38:12Z</time>
</trkpt>
<trkpt lat="48.385281" lon="10.700802">
<ele>504.134</ele>
<time>2022-05-25T09:38:13Z</time>
</trkpt>
<trkpt lat="48.385246" lon="10.700798">
<ele>504.134</ele>
<time>2022-05-25T09:38:14Z</time>
</trkpt>
<trkpt lat="48.385208" lon="10.700789">
<ele>504.134</ele>
<time>2022-05-25T09:38:15Z</time>
</trkpt>
<trkpt lat="48.385174" lon="10.700783">
<ele>504.134</ele>
<time>2022-05-25T09:38:16Z</time>
</trkpt>
<trkpt lat="48.385136" lon="10.700778">
<ele>504.134</ele>
<time>2022-05-25T09:38:17Z</time>
</trkpt>
<trkpt lat="48.385105" lon="10.70077">
<ele>504.134</ele>
<time>2022-05-25T09:38:18Z</time>
</trkpt>
<trkpt lat="48.385067" lon="10.700762">
<ele>504.134</ele>
<time>2022-05-25T09:38:19Z</time>
</trkpt>
<trkpt lat="48.385033" lon="10.700751">
<ele>504.134</ele>
<time>2022-05-25T09:38:20Z</time>
</trkpt>
<trkpt lat="48.384998" lon="10.700745">
<ele>504.134</ele>
<time>2022-05-25T09:38:21Z</time>
</trkpt>
<trkpt lat="48.38496" lon="10.700739">
<ele>504.134</ele>
<time>2022-05-25T09:38:22Z</time>
</trkpt>
<trkpt lat="48.384926" lon="10.700732">
<ele>504.134</ele>
<time>2022-05-25T09:38:23Z</time>
</trkpt>
<trkpt lat="48.384892" lon="10.700722">
<ele>504.134</ele>
<time>2022-05-25T09:38:24Z</time>
</trkpt>
<trkpt lat="48.384853" lon="10.700713">
<ele>504.134</ele>
<time>2022-05-25T09:38:25Z</time>
</trkpt>
<trkpt lat="48.384819" lon="10.700706">
<ele>504.134</ele>
<time>2022-05-25T09:38:26Z</time>
</trkpt>
<trkpt lat="48.384777" lon="10.7007">
<ele>504.134</ele>
<time>2022-05-25T09:38:27Z</time>
</trkpt>
<trkpt lat="48.384739" lon="10.700693">
<ele>504.134</ele>
<time>2022-05-25T09:38:28Z</time>
</trkpt>
<trkpt lat="48.384701" lon="10.700686">
<ele>504.134</ele>
<time>2022-05-25T09:38:29Z</time>
</trkpt>
<trkpt lat="48.384659" lon="10.700678">
<ele>504.134</ele>
<time>2022-05-25T09:38:30Z</time>
</trkpt>
<trkpt lat="48.384621" lon="10.70067">
<ele>504.134</ele>
<time>2022-05-25T09:38:31Z</time>
</trkpt>
<trkpt lat="48.384579" lon="10.700662">
<ele>504.134</ele>
<time>2022-05-25T09:38:32Z</time>
</trkpt>
<trkpt lat="48.384537" lon="10.700655">
<ele>504.135</ele>
<time>2022-05-25T09:38:33Z</time>
</trkpt>
<trkpt lat="48.384495" lon="10.700648">
<ele>504.134</ele>
<time>2022-05-25T09:38:34Z</time>
</trkpt>
<trkpt lat="48.384457" lon="10.70064">
<ele>504.134</ele>
<time>2022-05-25T09:38:35Z</time>
</trkpt>
<trkpt lat="48.384415" lon="10.70063">
<ele>504.134</ele>
<time>2022-05-25T09:38:36Z</time>
</trkpt>
<trkpt lat="48.384373" lon="10.700624">
<ele>504.134</ele>
<time>2022-05-25T09:38:37Z</time>
</trkpt>
<trkpt lat="48.384335" lon="10.700622">
<ele>504.134</ele>
<time>2022-05-25T09:38:38Z</time>
</trkpt>
<trkpt lat="48.384296" lon="10.700619">
<ele>504.134</ele>
<time>2022-05-25T09:38:39Z</time>
</trkpt>
<trkpt lat="48.384254" lon="10.700611">
<ele>504.134</ele>
<time>2022-05-25T09:38:40Z</time>
</trkpt>
<trkpt lat="48.384216" lon="10.700603">
<ele>504.134</ele>
<time>2022-05-25T09:38:41Z</time>
</trkpt>
<trkpt lat="48.384174" lon="10.700594">
<ele>504.134</ele>
<time>2022-05-25T09:38:42Z</time>
</trkpt>
<trkpt lat="48.384136" lon="10.700585">
<ele>504.134</ele>
<time>2022-05-25T09:38:43Z</time>
</trkpt>
<trkpt lat="48.384098" lon="10.700578">
<ele>504.134</ele>
<time>2022-05-25T09:38:44Z</time>
</trkpt>
<trkpt lat="48.38406" lon="10.700573">
<ele>504.134</ele>
<time>2022-05-25T09:38:45Z</time>
</trkpt>
<trkpt lat="48.384018" lon="10.700568">
<ele>504.134</ele>
<time>2022-05-25T09:38:46Z</time>
</trkpt>
<trkpt lat="48.38398" lon="10.700562">
<ele>504.158</ele>
<time>2022-05-25T09:38:47Z</time>
</trkpt>
<trkpt lat="48.383942" lon="10.70055">
<ele>503.927</ele>
<time>2022-05-25T09:38:48Z</time>
</trkpt>
<trkpt lat="48.3839" lon="10.700537">
<ele>503.75</ele>
<time>2022-05-25T09:38:49Z</time>
</trkpt>
<trkpt lat="48.383862" lon="10.700523">
<ele>503.613</ele>
<time>2022-05-25T09:38:50Z</time>
</trkpt>
<trkpt lat="48.38382" lon="10.70051">
<ele>503.511</ele>
<time>2022-05-25T09:38:51Z</time>
</trkpt>
<trkpt lat="48.383781" lon="10.700497">
<ele>503.444</ele>
<time>2022-05-25T09:38:52Z</time>
</trkpt>
<trkpt lat="48.383743" lon="10.700483">
<ele>503.395</ele>
<time>2022-05-25T09:38:53Z</time>
</trkpt>
<trkpt lat="48.383701" lon="10.700472">
<ele>503.374</ele>
<time>2022-05-25T09:38:54Z</time>
</trkpt>
<trkpt lat="48.383659" lon="10.700459">
<ele>503.354</ele>
<time>2022-05-25T09:38:55Z</time>
</trkpt>
<trkpt lat="48.383617" lon="10.700445">
<ele>503.354</ele>
<time>2022-05-25T09:38:56Z</time>
</trkpt>
<trkpt lat="48.383575" lon="10.70043">
<ele>503.119</ele>
<time>2022-05-25T09:38:57Z</time>
</trkpt>
<trkpt lat="48.38353" lon="10.700408">
<ele>502.897</ele>
<time>2022-05-25T09:38:58Z</time>
</trkpt>
<trkpt lat="48.383488" lon="10.700385">
<ele>502.718</ele>
<time>2022-05-25T09:38:59Z</time>
</trkpt>
<trkpt lat="48.38345" lon="10.700363">
<ele>502.574</ele>
<time>2022-05-25T09:39:00Z</time>
</trkpt>
<trkpt lat="48.383408" lon="10.700341">
<ele>502.466</ele>
<time>2022-05-25T09:39:01Z</time>
</trkpt>
<trkpt lat="48.383366" lon="10.700322">
<ele>502.388</ele>
<time>2022-05-25T09:39:02Z</time>
</trkpt>
<trkpt lat="48.383324" lon="10.7003">
<ele>502.338</ele>
<time>2022-05-25T09:39:03Z</time>
</trkpt>
<trkpt lat="48.383282" lon="10.700275">
<ele>502.314</ele>
<time>2022-05-25T09:39:04Z</time>
</trkpt>
<trkpt lat="48.383244" lon="10.700249">
<ele>502.314</ele>
<time>2022-05-25T09:39:05Z</time>
</trkpt>
<trkpt lat="48.383198" lon="10.700223">
<ele>502.314</ele>
<time>2022-05-25T09:39:06Z</time>
</trkpt>
<trkpt lat="48.383156" lon="10.7002">
<ele>502.314</ele>
<time>2022-05-25T09:39:07Z</time>
</trkpt>
<trkpt lat="48.383106" lon="10.700178">
<ele>502.056</ele>
<time>2022-05-25T09:39:08Z</time>
</trkpt>
<trkpt lat="48.383064" lon="10.700154">
<ele>501.841</ele>
<time>2022-05-25T09:39:09Z</time>
</trkpt>
<trkpt lat="48.383022" lon="10.70013">
<ele>501.668</ele>
<time>2022-05-25T09:39:10Z</time>
</trkpt>
<trkpt lat="48.38298" lon="10.700106">
<ele>501.53</ele>
<time>2022-05-25T09:39:11Z</time>
</trkpt>
<trkpt lat="48.382935" lon="10.700083">
<ele>501.422</ele>
<time>2022-05-25T09:39:12Z</time>
</trkpt>
<trkpt lat="48.382896" lon="10.700065">
<ele>501.346</ele>
<time>2022-05-25T09:39:13Z</time>
</trkpt>
<trkpt lat="48.382854" lon="10.700045">
<ele>501.298</ele>
<time>2022-05-25T09:39:14Z</time>
</trkpt>
<trkpt lat="48.382816" lon="10.700024">
<ele>501.273</ele>
<time>2022-05-25T09:39:15Z</time>
</trkpt>
<trkpt lat="48.382778" lon="10.700007">
<ele>501.273</ele>
<time>2022-05-25T09:39:16Z</time>
</trkpt>
<trkpt lat="48.38274" lon="10.699991">
<ele>501.273</ele>
<time>2022-05-25T09:39:17Z</time>
</trkpt>
<trkpt lat="48.382702" lon="10.69998">
<ele>501.273</ele>
<time>2022-05-25T09:39:18Z</time>
</trkpt>
<trkpt lat="48.382668" lon="10.69997">
<ele>501.273</ele>
<time>2022-05-25T09:39:19Z</time>
</trkpt>
<trkpt lat="48.382629" lon="10.699959">
<ele>501.273</ele>
<time>2022-05-25T09:39:20Z</time>
</trkpt>
<trkpt lat="48.382587" lon="10.699946">
<ele>501.273</ele>
<time>2022-05-25T09:39:21Z</time>
</trkpt>
<trkpt lat="48.382549" lon="10.699935">
<ele>501.273</ele>
<time>2022-05-25T09:39:22Z</time>
</trkpt>
<trkpt lat="48.382507" lon="10.699926">
<ele>501.273</ele>
<time>2022-05-25T09:39:23Z</time>
</trkpt>
<trkpt lat="48.382473" lon="10.69992">
<ele>501.273</ele>
<time>2022-05-25T09:39:24Z</time>
</trkpt>
<trkpt lat="48.382435" lon="10.699911">
<ele>501.273</ele>
<time>2022-05-25T09:39:25Z</time>
</trkpt>
<trkpt lat="48.382397" lon="10.699903">
<ele>501.273</ele>
<time>2022-05-25T09:39:26Z</time>
</trkpt>
<trkpt lat="48.382355" lon="10.699902">
<ele>501.273</ele>
<time>2022-05-25T09:39:27Z</time>
</trkpt>
<trkpt lat="48.382313" lon="10.699902">
<ele>501.274</ele>
<time>2022-05-25T09:39:28Z</time>
</trkpt>
<trkpt lat="48.382275" lon="10.699903">
<ele>501.273</ele>
<time>2022-05-25T09:39:29Z</time>
</trkpt>
<trkpt lat="48.382236" lon="10.699903">
<ele>501.273</ele>
<time>2022-05-25T09:39:30Z</time>
</trkpt>
<trkpt lat="48.382198" lon="10.699903">
<ele>501.273</ele>
<time>2022-05-25T09:39:31Z</time>
</trkpt>
<trkpt lat="48.382156" lon="10.699905">
<ele>501.274</ele>
<time>2022-05-25T09:39:32Z</time>
</trkpt>
<trkpt lat="48.382114" lon="10.699908">
<ele>501.273</ele>
<time>2022-05-25T09:39:33Z</time>
</trkpt>
<trkpt lat="48.382076" lon="10.699913">
<ele>501.273</ele>
<time>2022-05-25T09:39:34Z</time>
</trkpt>
<trkpt lat="48.382034" lon="10.699925">
<ele>501.273</ele>
<time>2022-05-25T09:39:35Z</time>
</trkpt>
<trkpt lat="48.381992" lon="10.699937">
<ele>501.273</ele>
<time>2022-05-25T09:39:36Z</time>
</trkpt>
<trkpt lat="48.38195" lon="10.699948">
<ele>501.273</ele>
<time>2022-05-25T09:39:37Z</time>
</trkpt>
<trkpt lat="48.381905" lon="10.699964">
<ele>501.273</ele>
<time>2022-05-25T09:39:38Z</time>
</trkpt>
<trkpt lat="48.381859" lon="10.699978">
<ele>501.273</ele>
<time>2022-05-25T09:39:39Z</time>
</trkpt>
<trkpt lat="48.381821" lon="10.699993">
<ele>501.273</ele>
<time>2022-05-25T09:39:40Z</time>
</trkpt>
<trkpt lat="48.381779" lon="10.700006">
<ele>501.273</ele>
<time>2022-05-25T09:39:41Z</time>
</trkpt>
<trkpt lat="48.381733" lon="10.700022">
<ele>501.273</ele>
<time>2022-05-25T09:39:42Z</time>
</trkpt>
<trkpt lat="48.381691" lon="10.700039">
<ele>501.273</ele>
<time>2022-05-25T09:39:43Z</time>
</trkpt>
<trkpt lat="48.381645" lon="10.700056">
<ele>501.273</ele>
<time>2022-05-25T09:39:44Z</time>
</trkpt>
<trkpt lat="48.381603" lon="10.70008">
<ele>501.491</ele>
<time>2022-05-25T09:39:45Z</time>
</trkpt>
<trkpt lat="48.381561" lon="10.700098">
<ele>501.663</ele>
<time>2022-05-25T09:39:46Z</time>
</trkpt>
<trkpt lat="48.381516" lon="10.700118">
<ele>501.783</ele>
<time>2022-05-25T09:39:47Z</time>
</trkpt>
<trkpt lat="48.381474" lon="10.70014">
<ele>501.911</ele>
<time>2022-05-25T09:39:48Z</time>
</trkpt>
<trkpt lat="48.381432" lon="10.700165">
<ele>502.007</ele>
<time>2022-05-25T09:39:49Z</time>
</trkpt>
<trkpt lat="48.381386" lon="10.700187">
<ele>502.075</ele>
<time>2022-05-25T09:39:50Z</time>
</trkpt>
<trkpt lat="48.381336" lon="10.700207">
<ele>502.12</ele>
<time>2022-05-25T09:39:51Z</time>
</trkpt>
<trkpt lat="48.381294" lon="10.700223">
<ele>502.141</ele>
<time>2022-05-25T09:39:52Z</time>
</trkpt>
<trkpt lat="48.381241" lon="10.700238">
<ele>502.141</ele>
<time>2022-05-25T09:39:53Z</time>
</trkpt>
<trkpt lat="48.381199" lon="10.700252">
<ele>502.141</ele>
<time>2022-05-25T09:39:54Z</time>
</trkpt>
<trkpt lat="48.381153" lon="10.700267">
<ele>502.141</ele>
<time>2022-05-25T09:39:55Z</time>
</trkpt>
<trkpt lat="48.381107" lon="10.700278">
<ele>502.141</ele>
<time>2022-05-25T09:39:56Z</time>
</trkpt>
<trkpt lat="48.381065" lon="10.700292">
<ele>502.141</ele>
<time>2022-05-25T09:39:57Z</time>
</trkpt>
<trkpt lat="48.38102" lon="10.700301">
<ele>502.141</ele>
<time>2022-05-25T09:39:58Z</time>
</trkpt>
<trkpt lat="48.380974" lon="10.700312">
<ele>502.141</ele>
<time>2022-05-25T09:39:59Z</time>
</trkpt>
<trkpt lat="48.380928" lon="10.700325">
<ele>502.141</ele>
<time>2022-05-25T09:40:00Z</time>
</trkpt>
<trkpt lat="48.380878" lon="10.700336">
<ele>502.407</ele>
<time>2022-05-25T09:40:01Z</time>
</trkpt>
<trkpt lat="48.380833" lon="10.700347">
<ele>502.619</ele>
<time>2022-05-25T09:40:02Z</time>
</trkpt>
<trkpt lat="48.380783" lon="10.700354">
<ele>502.775</ele>
<time>2022-05-25T09:40:03Z</time>
</trkpt>
<trkpt lat="48.380741" lon="10.700358">
<ele>502.892</ele>
<time>2022-05-25T09:40:04Z</time>
</trkpt>
<trkpt lat="48.380692" lon="10.700363">
<ele>502.973</ele>
<time>2022-05-25T09:40:05Z</time>
</trkpt>
<trkpt lat="48.38065" lon="10.700366">
<ele>503.028</ele>
<time>2022-05-25T09:40:06Z</time>
</trkpt>
<trkpt lat="48.380604" lon="10.700368">
<ele>503.068</ele>
<time>2022-05-25T09:40:07Z</time>
</trkpt>
<trkpt lat="48.380558" lon="10.70037">
<ele>503.094</ele>
<time>2022-05-25T09:40:08Z</time>
</trkpt>
<trkpt lat="48.38052" lon="10.700374">
<ele>503.094</ele>
<time>2022-05-25T09:40:09Z</time>
</trkpt>
<trkpt lat="48.38047" lon="10.700377">
<ele>503.094</ele>
<time>2022-05-25T09:40:10Z</time>
</trkpt>
<trkpt lat="48.380428" lon="10.70038">
<ele>503.094</ele>
<time>2022-05-25T09:40:11Z</time>
</trkpt>
<trkpt lat="48.380386" lon="10.700383">
<ele>503.094</ele>
<time>2022-05-25T09:40:12Z</time>
</trkpt>
<trkpt lat="48.380337" lon="10.700385">
<ele>503.094</ele>
<time>2022-05-25T09:40:13Z</time>
</trkpt>
<trkpt lat="48.380291" lon="10.700389">
<ele>503.094</ele>
<time>2022-05-25T09:40:14Z</time>
</trkpt>
<trkpt lat="48.380249" lon="10.700392">
<ele>503.094</ele>
<time>2022-05-25T09:40:15Z</time>
</trkpt>
<trkpt lat="48.380199" lon="10.700393">
<ele>503.094</ele>
<time>2022-05-25T09:40:16Z</time>
</trkpt>
<trkpt lat="48.380157" lon="10.700397">
<ele>503.094</ele>
<time>2022-05-25T09:40:17Z</time>
</trkpt>
<trkpt lat="48.380112" lon="10.700397">
<ele>503.094</ele>
<time>2022-05-25T09:40:18Z</time>
</trkpt>
<trkpt lat="48.380062" lon="10.700399">
<ele>503.094</ele>
<time>2022-05-25T09:40:19Z</time>
</trkpt>
<trkpt lat="48.380016" lon="10.700403">
<ele>503.094</ele>
<time>2022-05-25T09:40:20Z</time>
</trkpt>
<trkpt lat="48.379967" lon="10.700408">
<ele>503.094</ele>
<time>2022-05-25T09:40:21Z</time>
</trkpt>
<trkpt lat="48.379925" lon="10.70041">
<ele>503.094</ele>
<time>2022-05-25T09:40:22Z</time>
</trkpt>
<trkpt lat="48.379879" lon="10.700412">
<ele>503.094</ele>
<time>2022-05-25T09:40:23Z</time>
</trkpt>
<trkpt lat="48.379833" lon="10.700415">
<ele>503.094</ele>
<time>2022-05-25T09:40:24Z</time>
</trkpt>
<trkpt lat="48.379787" lon="10.700417">
<ele>503.094</ele>
<time>2022-05-25T09:40:25Z</time>
</trkpt>
<trkpt lat="48.379742" lon="10.700418">
<ele>503.094</ele>
<time>2022-05-25T09:40:26Z</time>
</trkpt>
<trkpt lat="48.3797" lon="10.700422">
<ele>503.304</ele>
<time>2022-05-25T09:40:27Z</time>
</trkpt>
<trkpt lat="48.37965" lon="10.700425">
<ele>503.503</ele>
<time>2022-05-25T09:40:28Z</time>
</trkpt>
<trkpt lat="48.379608" lon="10.700428">
<ele>503.667</ele>
<time>2022-05-25T09:40:29Z</time>
</trkpt>
<trkpt lat="48.379566" lon="10.70043">
<ele>503.802</ele>
<time>2022-05-25T09:40:30Z</time>
</trkpt>
<trkpt lat="48.37952" lon="10.700433">
<ele>503.904</ele>
<time>2022-05-25T09:40:31Z</time>
</trkpt>
<trkpt lat="48.379475" lon="10.700437">
<ele>503.977</ele>
<time>2022-05-25T09:40:32Z</time>
</trkpt>
<trkpt lat="48.379429" lon="10.700439">
<ele>504.026</ele>
<time>2022-05-25T09:40:33Z</time>
</trkpt>
<trkpt lat="48.379383" lon="10.700445">
<ele>504.048</ele>
<time>2022-05-25T09:40:34Z</time>
</trkpt>
<trkpt lat="48.379341" lon="10.70045">
<ele>504.048</ele>
<time>2022-05-25T09:40:35Z</time>
</trkpt>
<trkpt lat="48.379292" lon="10.700454">
<ele>504.048</ele>
<time>2022-05-25T09:40:36Z</time>
</trkpt>
<trkpt lat="48.379246" lon="10.700456">
<ele>504.048</ele>
<time>2022-05-25T09:40:37Z</time>
</trkpt>
<trkpt lat="48.379208" lon="10.700456">
<ele>504.048</ele>
<time>2022-05-25T09:40:38Z</time>
</trkpt>
<trkpt lat="48.379162" lon="10.700457">
<ele>504.048</ele>
<time>2022-05-25T09:40:39Z</time>
</trkpt>
<trkpt lat="48.379116" lon="10.700459">
<ele>504.048</ele>
<time>2022-05-25T09:40:40Z</time>
</trkpt>
<trkpt lat="48.37907" lon="10.700462">
<ele>504.048</ele>
<time>2022-05-25T09:40:41Z</time>
</trkpt>
<trkpt lat="48.379025" lon="10.700464">
<ele>504.048</ele>
<time>2022-05-25T09:40:42Z</time>
</trkpt>
<trkpt lat="48.378983" lon="10.700466">
<ele>504.048</ele>
<time>2022-05-25T09:40:43Z</time>
</trkpt>
<trkpt lat="48.378937" lon="10.700466">
<ele>504.048</ele>
<time>2022-05-25T09:40:44Z</time>
</trkpt>
<trkpt lat="48.378891" lon="10.700463">
<ele>504.048</ele>
<time>2022-05-25T09:40:45Z</time>
</trkpt>
<trkpt lat="48.378853" lon="10.700462">
<ele>504.048</ele>
<time>2022-05-25T09:40:46Z</time>
</trkpt>
<trkpt lat="48.378807" lon="10.70046">
<ele>504.048</ele>
<time>2022-05-25T09:40:47Z</time>
</trkpt>
<trkpt lat="48.378765" lon="10.70046">
<ele>504.048</ele>
<time>2022-05-25T09:40:48Z</time>
</trkpt>
<trkpt lat="48.378727" lon="10.700459">
<ele>504.048</ele>
<time>2022-05-25T09:40:49Z</time>
</trkpt>
<trkpt lat="48.378693" lon="10.700456">
<ele>504.048</ele>
<time>2022-05-25T09:40:50Z</time>
</trkpt>
<trkpt lat="48.378666" lon="10.700456">
<ele>504.048</ele>
<time>2022-05-25T09:40:51Z</time>
</trkpt>
<trkpt lat="48.378639" lon="10.700456">
<ele>504.048</ele>
<time>2022-05-25T09:40:52Z</time>
</trkpt>
<trkpt lat="48.378609" lon="10.700452">
<ele>504.048</ele>
<time>2022-05-25T09:40:53Z</time>
</trkpt>
<trkpt lat="48.378582" lon="10.70045">
<ele>504.048</ele>
<time>2022-05-25T09:40:54Z</time>
</trkpt>
<trkpt lat="48.378559" lon="10.70045">
<ele>504.048</ele>
<time>2022-05-25T09:40:55Z</time>
</trkpt>
<trkpt lat="48.378532" lon="10.700448">
<ele>504.048</ele>
<time>2022-05-25T09:40:56Z</time>
</trkpt>
<trkpt lat="48.378513" lon="10.700447">
<ele>504.048</ele>
<time>2022-05-25T09:40:57Z</time>
</trkpt>
<trkpt lat="48.378498" lon="10.700441">
<ele>504.048</ele>
<time>2022-05-25T09:40:58Z</time>
</trkpt>
<trkpt lat="48.378487" lon="10.700439">
<ele>504.048</ele>
<time>2022-05-25T09:40:59Z</time>
</trkpt>
<trkpt lat="48.378471" lon="10.700441">
<ele>504.048</ele>
<time>2022-05-25T09:41:00Z</time>
</trkpt>
<trkpt lat="48.378464" lon="10.700441">
<ele>504.048</ele>
<time>2022-05-25T09:41:01Z</time>
</trkpt>
<trkpt lat="48.378464" lon="10.700443">
<ele>504.048</ele>
<time>2022-05-25T09:41:03Z</time>
</trkpt>
<trkpt lat="48.378464" lon="10.700447">
<ele>504.048</ele>
<time>2022-05-25T09:41:04Z</time>
</trkpt>
<trkpt lat="48.378464" lon="10.700443">
<ele>504.048</ele>
<time>2022-05-25T09:41:16Z</time>
</trkpt>
<trkpt lat="48.378452" lon="10.700441">
<ele>504.048</ele>
<time>2022-05-25T09:41:17Z</time>
</trkpt>
<trkpt lat="48.378437" lon="10.700441">
<ele>504.048</ele>
<time>2022-05-25T09:41:18Z</time>
</trkpt>
<trkpt lat="48.378422" lon="10.700438">
<ele>504.048</ele>
<time>2022-05-25T09:41:19Z</time>
</trkpt>
<trkpt lat="48.378399" lon="10.700435">
<ele>504.048</ele>
<time>2022-05-25T09:41:20Z</time>
</trkpt>
<trkpt lat="48.378368" lon="10.70043">
<ele>504.048</ele>
<time>2022-05-25T09:41:21Z</time>
</trkpt>
<trkpt lat="48.378342" lon="10.700425">
<ele>504.048</ele>
<time>2022-05-25T09:41:22Z</time>
</trkpt>
<trkpt lat="48.378311" lon="10.700418">
<ele>504.048</ele>
<time>2022-05-25T09:41:23Z</time>
</trkpt>
<trkpt lat="48.378277" lon="10.700414">
<ele>504.048</ele>
<time>2022-05-25T09:41:24Z</time>
</trkpt>
<trkpt lat="48.378242" lon="10.700407">
<ele>504.048</ele>
<time>2022-05-25T09:41:25Z</time>
</trkpt>
<trkpt lat="48.378204" lon="10.700398">
<ele>504.048</ele>
<time>2022-05-25T09:41:26Z</time>
</trkpt>
<trkpt lat="48.37817" lon="10.700392">
<ele>504.048</ele>
<time>2022-05-25T09:41:27Z</time>
</trkpt>
<trkpt lat="48.378136" lon="10.700383">
<ele>504.048</ele>
<time>2022-05-25T09:41:28Z</time>
</trkpt>
<trkpt lat="48.378098" lon="10.700375">
<ele>504.048</ele>
<time>2022-05-25T09:41:29Z</time>
</trkpt>
<trkpt lat="48.378059" lon="10.700365">
<ele>504.048</ele>
<time>2022-05-25T09:41:30Z</time>
</trkpt>
<trkpt lat="48.378017" lon="10.700356">
<ele>504.048</ele>
<time>2022-05-25T09:41:31Z</time>
</trkpt>
<trkpt lat="48.377975" lon="10.700347">
<ele>504.048</ele>
<time>2022-05-25T09:41:32Z</time>
</trkpt>
<trkpt lat="48.377934" lon="10.700338">
<ele>504.048</ele>
<time>2022-05-25T09:41:33Z</time>
</trkpt>
<trkpt lat="48.377888" lon="10.700325">
<ele>504.048</ele>
<time>2022-05-25T09:41:34Z</time>
</trkpt>
<trkpt lat="48.377846" lon="10.700309">
<ele>504.048</ele>
<time>2022-05-25T09:41:35Z</time>
</trkpt>
<trkpt lat="48.377808" lon="10.700294">
<ele>504.048</ele>
<time>2022-05-25T09:41:36Z</time>
</trkpt>
<trkpt lat="48.377758" lon="10.700282">
<ele>504.048</ele>
<time>2022-05-25T09:41:37Z</time>
</trkpt>
<trkpt lat="48.377716" lon="10.700267">
<ele>504.048</ele>
<time>2022-05-25T09:41:38Z</time>
</trkpt>
<trkpt lat="48.37767" lon="10.700247">
<ele>504.048</ele>
<time>2022-05-25T09:41:39Z</time>
</trkpt>
<trkpt lat="48.377617" lon="10.700225">
<ele>504.048</ele>
<time>2022-05-25T09:41:40Z</time>
</trkpt>
<trkpt lat="48.377571" lon="10.700202">
<ele>504.048</ele>
<time>2022-05-25T09:41:41Z</time>
</trkpt>
<trkpt lat="48.377522" lon="10.700178">
<ele>504.048</ele>
<time>2022-05-25T09:41:42Z</time>
</trkpt>
<trkpt lat="48.377476" lon="10.700153">
<ele>504.048</ele>
<time>2022-05-25T09:41:43Z</time>
</trkpt>
<trkpt lat="48.377426" lon="10.700127">
<ele>504.048</ele>
<time>2022-05-25T09:41:44Z</time>
</trkpt>
<trkpt lat="48.37738" lon="10.7001">
<ele>504.048</ele>
<time>2022-05-25T09:41:45Z</time>
</trkpt>
<trkpt lat="48.377335" lon="10.700072">
<ele>504.048</ele>
<time>2022-05-25T09:41:46Z</time>
</trkpt>
<trkpt lat="48.377293" lon="10.700042">
<ele>504.048</ele>
<time>2022-05-25T09:41:47Z</time>
</trkpt>
<trkpt lat="48.377247" lon="10.700011">
<ele>504.048</ele>
<time>2022-05-25T09:41:48Z</time>
</trkpt>
<trkpt lat="48.377205" lon="10.69998">
<ele>504.048</ele>
<time>2022-05-25T09:41:49Z</time>
</trkpt>
<trkpt lat="48.377159" lon="10.69995">
<ele>504.048</ele>
<time>2022-05-25T09:41:50Z</time>
</trkpt>
<trkpt lat="48.377121" lon="10.699918">
<ele>504.048</ele>
<time>2022-05-25T09:41:51Z</time>
</trkpt>
<trkpt lat="48.377079" lon="10.69989">
<ele>504.048</ele>
<time>2022-05-25T09:41:52Z</time>
</trkpt>
<trkpt lat="48.377041" lon="10.699865">
<ele>504.048</ele>
<time>2022-05-25T09:41:53Z</time>
</trkpt>
<trkpt lat="48.376999" lon="10.699844">
<ele>504.048</ele>
<time>2022-05-25T09:41:54Z</time>
</trkpt>
<trkpt lat="48.376965" lon="10.699828">
<ele>504.048</ele>
<time>2022-05-25T09:41:55Z</time>
</trkpt>
<trkpt lat="48.37693" lon="10.69981">
<ele>504.048</ele>
<time>2022-05-25T09:41:56Z</time>
</trkpt>
<trkpt lat="48.3769" lon="10.699788">
<ele>504.048</ele>
<time>2022-05-25T09:41:57Z</time>
</trkpt>
<trkpt lat="48.376869" lon="10.699763">
<ele>504.048</ele>
<time>2022-05-25T09:41:58Z</time>
</trkpt>
<trkpt lat="48.376839" lon="10.699737">
<ele>504.048</ele>
<time>2022-05-25T09:41:59Z</time>
</trkpt>
<trkpt lat="48.376812" lon="10.69971">
<ele>504.048</ele>
<time>2022-05-25T09:42:00Z</time>
</trkpt>
<trkpt lat="48.376785" lon="10.699689">
<ele>504.048</ele>
<time>2022-05-25T09:42:01Z</time>
</trkpt>
<trkpt lat="48.376759" lon="10.699677">
<ele>504.048</ele>
<time>2022-05-25T09:42:02Z</time>
</trkpt>
<trkpt lat="48.376736" lon="10.699685">
<ele>504.048</ele>
<time>2022-05-25T09:42:03Z</time>
</trkpt>
<trkpt lat="48.376713" lon="10.699712">
<ele>504.048</ele>
<time>2022-05-25T09:42:04Z</time>
</trkpt>
<trkpt lat="48.376705" lon="10.69975">
<ele>504.048</ele>
<time>2022-05-25T09:42:05Z</time>
</trkpt>
<trkpt lat="48.376698" lon="10.699799">
<ele>504.048</ele>
<time>2022-05-25T09:42:06Z</time>
</trkpt>
<trkpt lat="48.376686" lon="10.699846">
<ele>504.048</ele>
<time>2022-05-25T09:42:07Z</time>
</trkpt>
<trkpt lat="48.376671" lon="10.699897">
<ele>504.048</ele>
<time>2022-05-25T09:42:08Z</time>
</trkpt>
<trkpt lat="48.376659" lon="10.699948">
<ele>504.048</ele>
<time>2022-05-25T09:42:09Z</time>
</trkpt>
<trkpt lat="48.376652" lon="10.699997">
<ele>504.048</ele>
<time>2022-05-25T09:42:10Z</time>
</trkpt>
<trkpt lat="48.37664" lon="10.700047">
<ele>504.048</ele>
<time>2022-05-25T09:42:11Z</time>
</trkpt>
<trkpt lat="48.376633" lon="10.700098">
<ele>504.048</ele>
<time>2022-05-25T09:42:12Z</time>
</trkpt>
<trkpt lat="48.376617" lon="10.700149">
<ele>504.048</ele>
<time>2022-05-25T09:42:13Z</time>
</trkpt>
<trkpt lat="48.376606" lon="10.700195">
<ele>504.048</ele>
<time>2022-05-25T09:42:14Z</time>
</trkpt>
<trkpt lat="48.376591" lon="10.700245">
<ele>504.048</ele>
<time>2022-05-25T09:42:15Z</time>
</trkpt>
<trkpt lat="48.376579" lon="10.700296">
<ele>504.048</ele>
<time>2022-05-25T09:42:16Z</time>
</trkpt>
<trkpt lat="48.376568" lon="10.700352">
<ele>504.048</ele>
<time>2022-05-25T09:42:17Z</time>
</trkpt>
<trkpt lat="48.376549" lon="10.700405">
<ele>504.048</ele>
<time>2022-05-25T09:42:18Z</time>
</trkpt>
<trkpt lat="48.376534" lon="10.700457">
<ele>504.048</ele>
<time>2022-05-25T09:42:19Z</time>
</trkpt>
<trkpt lat="48.376518" lon="10.700512">
<ele>504.048</ele>
<time>2022-05-25T09:42:20Z</time>
</trkpt>
<trkpt lat="48.376507" lon="10.700567">
<ele>504.048</ele>
<time>2022-05-25T09:42:21Z</time>
</trkpt>
<trkpt lat="48.376492" lon="10.700624">
<ele>504.048</ele>
<time>2022-05-25T09:42:22Z</time>
</trkpt>
<trkpt lat="48.376469" lon="10.700682">
<ele>504.324</ele>
<time>2022-05-25T09:42:23Z</time>
</trkpt>
<trkpt lat="48.37645" lon="10.700739">
<ele>504.531</ele>
<time>2022-05-25T09:42:24Z</time>
</trkpt>
<trkpt lat="48.376434" lon="10.700795">
<ele>504.685</ele>
<time>2022-05-25T09:42:25Z</time>
</trkpt>
<trkpt lat="48.376411" lon="10.700855">
<ele>504.802</ele>
<time>2022-05-25T09:42:26Z</time>
</trkpt>
<trkpt lat="48.376389" lon="10.700916">
<ele>504.883</ele>
<time>2022-05-25T09:42:27Z</time>
</trkpt>
<trkpt lat="48.376373" lon="10.700977">
<ele>504.926</ele>
<time>2022-05-25T09:42:28Z</time>
</trkpt>
<trkpt lat="48.376358" lon="10.701036">
<ele>505.173</ele>
<time>2022-05-25T09:42:29Z</time>
</trkpt>
<trkpt lat="48.376347" lon="10.701092">
<ele>505.379</ele>
<time>2022-05-25T09:42:30Z</time>
</trkpt>
<trkpt lat="48.376331" lon="10.701145">
<ele>505.525</ele>
<time>2022-05-25T09:42:31Z</time>
</trkpt>
<trkpt lat="48.37632" lon="10.701198">
<ele>505.645</ele>
<time>2022-05-25T09:42:32Z</time>
</trkpt>
<trkpt lat="48.376312" lon="10.701255">
<ele>505.736</ele>
<time>2022-05-25T09:42:33Z</time>
</trkpt>
<trkpt lat="48.376305" lon="10.70131">
<ele>505.799</ele>
<time>2022-05-25T09:42:34Z</time>
</trkpt>
<trkpt lat="48.376289" lon="10.701357">
<ele>505.845</ele>
<time>2022-05-25T09:42:35Z</time>
</trkpt>
<trkpt lat="48.376289" lon="10.701405">
<ele>505.869</ele>
<time>2022-05-25T09:42:36Z</time>
</trkpt>
<trkpt lat="48.376282" lon="10.701451">
<ele>505.869</ele>
<time>2022-05-25T09:42:37Z</time>
</trkpt>
<trkpt lat="48.376274" lon="10.701504">
<ele>505.869</ele>
<time>2022-05-25T09:42:38Z</time>
</trkpt>
<trkpt lat="48.376259" lon="10.701553">
<ele>505.869</ele>
<time>2022-05-25T09:42:39Z</time>
</trkpt>
<trkpt lat="48.376247" lon="10.701605">
<ele>505.869</ele>
<time>2022-05-25T09:42:40Z</time>
</trkpt>
<trkpt lat="48.376232" lon="10.701654">
<ele>505.869</ele>
<time>2022-05-25T09:42:41Z</time>
</trkpt>
<trkpt lat="48.376217" lon="10.701712">
<ele>505.869</ele>
<time>2022-05-25T09:42:42Z</time>
</trkpt>
<trkpt lat="48.376202" lon="10.701776">
<ele>505.869</ele>
<time>2022-05-25T09:42:43Z</time>
</trkpt>
<trkpt lat="48.376183" lon="10.701837">
<ele>505.869</ele>
<time>2022-05-25T09:42:44Z</time>
</trkpt>
<trkpt lat="48.376167" lon="10.701895">
<ele>505.869</ele>
<time>2022-05-25T09:42:45Z</time>
</trkpt>
<trkpt lat="48.376148" lon="10.701962">
<ele>506.128</ele>
<time>2022-05-25T09:42:46Z</time>
</trkpt>
<trkpt lat="48.376133" lon="10.702029">
<ele>506.325</ele>
<time>2022-05-25T09:42:47Z</time>
</trkpt>
<trkpt lat="48.376118" lon="10.702099">
<ele>506.477</ele>
<time>2022-05-25T09:42:48Z</time>
</trkpt>
<trkpt lat="48.376099" lon="10.702168">
<ele>506.573</ele>
<time>2022-05-25T09:42:49Z</time>
</trkpt>
<trkpt lat="48.376083" lon="10.70223">
<ele>506.675</ele>
<time>2022-05-25T09:42:50Z</time>
</trkpt>
<trkpt lat="48.376064" lon="10.702297">
<ele>506.749</ele>
<time>2022-05-25T09:42:51Z</time>
</trkpt>
<trkpt lat="48.376049" lon="10.702362">
<ele>506.799</ele>
<time>2022-05-25T09:42:52Z</time>
</trkpt>
<trkpt lat="48.37603" lon="10.702428">
<ele>506.823</ele>
<time>2022-05-25T09:42:53Z</time>
</trkpt>
<trkpt lat="48.376015" lon="10.702495">
<ele>506.822</ele>
<time>2022-05-25T09:42:54Z</time>
</trkpt>
<trkpt lat="48.375996" lon="10.702559">
<ele>506.823</ele>
<time>2022-05-25T09:42:55Z</time>
</trkpt>
<trkpt lat="48.37598" lon="10.702624">
<ele>506.822</ele>
<time>2022-05-25T09:42:56Z</time>
</trkpt>
<trkpt lat="48.375961" lon="10.70269">
<ele>506.823</ele>
<time>2022-05-25T09:42:57Z</time>
</trkpt>
<trkpt lat="48.375946" lon="10.702755">
<ele>506.822</ele>
<time>2022-05-25T09:42:58Z</time>
</trkpt>
<trkpt lat="48.375927" lon="10.702817">
<ele>506.822</ele>
<time>2022-05-25T09:42:59Z</time>
</trkpt>
<trkpt lat="48.375916" lon="10.702878">
<ele>506.822</ele>
<time>2022-05-25T09:43:00Z</time>
</trkpt>
<trkpt lat="48.375896" lon="10.70294">
<ele>506.823</ele>
<time>2022-05-25T09:43:01Z</time>
</trkpt>
<trkpt lat="48.375881" lon="10.703004">
<ele>506.823</ele>
<time>2022-05-25T09:43:02Z</time>
</trkpt>
<trkpt lat="48.375866" lon="10.703069">
<ele>506.822</ele>
<time>2022-05-25T09:43:03Z</time>
</trkpt>
<trkpt lat="48.375854" lon="10.703134">
<ele>506.822</ele>
<time>2022-05-25T09:43:04Z</time>
</trkpt>
<trkpt lat="48.375835" lon="10.703195">
<ele>506.822</ele>
<time>2022-05-25T09:43:05Z</time>
</trkpt>
<trkpt lat="48.375824" lon="10.703259">
<ele>506.822</ele>
<time>2022-05-25T09:43:06Z</time>
</trkpt>
<trkpt lat="48.375805" lon="10.703321">
<ele>506.822</ele>
<time>2022-05-25T09:43:07Z</time>
</trkpt>
<trkpt lat="48.37579" lon="10.703383">
<ele>506.822</ele>
<time>2022-05-25T09:43:08Z</time>
</trkpt>
<trkpt lat="48.375771" lon="10.703445">
<ele>506.823</ele>
<time>2022-05-25T09:43:09Z</time>
</trkpt>
<trkpt lat="48.375759" lon="10.703506">
<ele>507.053</ele>
<time>2022-05-25T09:43:10Z</time>
</trkpt>
<trkpt lat="48.37574" lon="10.703569">
<ele>507.247</ele>
<time>2022-05-25T09:43:11Z</time>
</trkpt>
<trkpt lat="48.375725" lon="10.703633">
<ele>507.408</ele>
<time>2022-05-25T09:43:12Z</time>
</trkpt>
<trkpt lat="48.37571" lon="10.703697">
<ele>507.538</ele>
<time>2022-05-25T09:43:13Z</time>
</trkpt>
<trkpt lat="48.375694" lon="10.703758">
<ele>507.636</ele>
<time>2022-05-25T09:43:14Z</time>
</trkpt>
<trkpt lat="48.375675" lon="10.703823">
<ele>507.709</ele>
<time>2022-05-25T09:43:15Z</time>
</trkpt>
<trkpt lat="48.37566" lon="10.703885">
<ele>507.754</ele>
<time>2022-05-25T09:43:16Z</time>
</trkpt>
<trkpt lat="48.375645" lon="10.703948">
<ele>507.776</ele>
<time>2022-05-25T09:43:17Z</time>
</trkpt>
<trkpt lat="48.375629" lon="10.70401">
<ele>507.776</ele>
<time>2022-05-25T09:43:18Z</time>
</trkpt>
<trkpt lat="48.37561" lon="10.70407">
<ele>507.776</ele>
<time>2022-05-25T09:43:19Z</time>
</trkpt>
<trkpt lat="48.375595" lon="10.70413">
<ele>507.776</ele>
<time>2022-05-25T09:43:20Z</time>
</trkpt>
<trkpt lat="48.37558" lon="10.704191">
<ele>507.776</ele>
<time>2022-05-25T09:43:21Z</time>
</trkpt>
<trkpt lat="48.375565" lon="10.704255">
<ele>507.776</ele>
<time>2022-05-25T09:43:22Z</time>
</trkpt>
<trkpt lat="48.375546" lon="10.704317">
<ele>507.776</ele>
<time>2022-05-25T09:43:23Z</time>
</trkpt>
<trkpt lat="48.37553" lon="10.704378">
<ele>507.776</ele>
<time>2022-05-25T09:43:24Z</time>
</trkpt>
<trkpt lat="48.375515" lon="10.70444">
<ele>507.776</ele>
<time>2022-05-25T09:43:25Z</time>
</trkpt>
<trkpt lat="48.375496" lon="10.704498">
<ele>507.776</ele>
<time>2022-05-25T09:43:26Z</time>
</trkpt>
<trkpt lat="48.375477" lon="10.704558">
<ele>507.776</ele>
<time>2022-05-25T09:43:27Z</time>
</trkpt>
<trkpt lat="48.375458" lon="10.704617">
<ele>507.776</ele>
<time>2022-05-25T09:43:28Z</time>
</trkpt>
<trkpt lat="48.375443" lon="10.704678">
<ele>507.776</ele>
<time>2022-05-25T09:43:29Z</time>
</trkpt>
<trkpt lat="48.375423" lon="10.704739">
<ele>507.776</ele>
<time>2022-05-25T09:43:30Z</time>
</trkpt>
<trkpt lat="48.375401" lon="10.7048">
<ele>508.035</ele>
<time>2022-05-25T09:43:31Z</time>
</trkpt>
<trkpt lat="48.375381" lon="10.70486">
<ele>508.235</ele>
<time>2022-05-25T09:43:32Z</time>
</trkpt>
<trkpt lat="48.375366" lon="10.704922">
<ele>508.391</ele>
<time>2022-05-25T09:43:33Z</time>
</trkpt>
<trkpt lat="48.375343" lon="10.70498">
<ele>508.498</ele>
<time>2022-05-25T09:43:34Z</time>
</trkpt>
<trkpt lat="48.375324" lon="10.705042">
<ele>508.572</ele>
<time>2022-05-25T09:43:35Z</time>
</trkpt>
<trkpt lat="48.375301" lon="10.7051">
<ele>508.623</ele>
<time>2022-05-25T09:43:36Z</time>
</trkpt>
<trkpt lat="48.375278" lon="10.70516">
<ele>508.64</ele>
<time>2022-05-25T09:43:37Z</time>
</trkpt>
<trkpt lat="48.375256" lon="10.705218">
<ele>508.644</ele>
<time>2022-05-25T09:43:38Z</time>
</trkpt>
<trkpt lat="48.375237" lon="10.705276">
<ele>508.644</ele>
<time>2022-05-25T09:43:39Z</time>
</trkpt>
<trkpt lat="48.37521" lon="10.705332">
<ele>508.644</ele>
<time>2022-05-25T09:43:40Z</time>
</trkpt>
<trkpt lat="48.375187" lon="10.70539">
<ele>508.644</ele>
<time>2022-05-25T09:43:41Z</time>
</trkpt>
<trkpt lat="48.375168" lon="10.705448">
<ele>508.644</ele>
<time>2022-05-25T09:43:42Z</time>
</trkpt>
<trkpt lat="48.375141" lon="10.705507">
<ele>508.644</ele>
<time>2022-05-25T09:43:43Z</time>
</trkpt>
<trkpt lat="48.375118" lon="10.705565">
<ele>508.644</ele>
<time>2022-05-25T09:43:44Z</time>
</trkpt>
<trkpt lat="48.375095" lon="10.705622">
<ele>508.644</ele>
<time>2022-05-25T09:43:45Z</time>
</trkpt>
<trkpt lat="48.375069" lon="10.705679">
<ele>508.644</ele>
<time>2022-05-25T09:43:46Z</time>
</trkpt>
<trkpt lat="48.375042" lon="10.705733">
<ele>508.644</ele>
<time>2022-05-25T09:43:47Z</time>
</trkpt>
<trkpt lat="48.375015" lon="10.705787">
<ele>508.644</ele>
<time>2022-05-25T09:43:48Z</time>
</trkpt>
<trkpt lat="48.374992" lon="10.70584">
<ele>508.644</ele>
<time>2022-05-25T09:43:49Z</time>
</trkpt>
<trkpt lat="48.374966" lon="10.705892">
<ele>508.644</ele>
<time>2022-05-25T09:43:50Z</time>
</trkpt>
<trkpt lat="48.374943" lon="10.705945">
<ele>508.644</ele>
<time>2022-05-25T09:43:51Z</time>
</trkpt>
<trkpt lat="48.374912" lon="10.705997">
<ele>508.644</ele>
<time>2022-05-25T09:43:52Z</time>
</trkpt>
<trkpt lat="48.374889" lon="10.70605">
<ele>508.644</ele>
<time>2022-05-25T09:43:53Z</time>
</trkpt>
<trkpt lat="48.374863" lon="10.706103">
<ele>508.644</ele>
<time>2022-05-25T09:43:54Z</time>
</trkpt>
<trkpt lat="48.374832" lon="10.706157">
<ele>508.644</ele>
<time>2022-05-25T09:43:55Z</time>
</trkpt>
<trkpt lat="48.374802" lon="10.706208">
<ele>508.644</ele>
<time>2022-05-25T09:43:56Z</time>
</trkpt>
<trkpt lat="48.374771" lon="10.70626">
<ele>508.644</ele>
<time>2022-05-25T09:43:57Z</time>
</trkpt>
<trkpt lat="48.374741" lon="10.706311">
<ele>508.644</ele>
<time>2022-05-25T09:43:58Z</time>
</trkpt>
<trkpt lat="48.37471" lon="10.706364">
<ele>508.644</ele>
<time>2022-05-25T09:43:59Z</time>
</trkpt>
<trkpt lat="48.37468" lon="10.706412">
<ele>508.9</ele>
<time>2022-05-25T09:44:00Z</time>
</trkpt>
<trkpt lat="48.374645" lon="10.706462">
<ele>508.884</ele>
<time>2022-05-25T09:44:01Z</time>
</trkpt>
<trkpt lat="48.374611" lon="10.706511">
<ele>508.868</ele>
<time>2022-05-25T09:44:02Z</time>
</trkpt>
<trkpt lat="48.374577" lon="10.706561">
<ele>508.851</ele>
<time>2022-05-25T09:44:03Z</time>
</trkpt>
<trkpt lat="48.374542" lon="10.706612">
<ele>508.862</ele>
<time>2022-05-25T09:44:04Z</time>
</trkpt>
<trkpt lat="48.374508" lon="10.706659">
<ele>508.811</ele>
<time>2022-05-25T09:44:05Z</time>
</trkpt>
<trkpt lat="48.374474" lon="10.70671">
<ele>508.764</ele>
<time>2022-05-25T09:44:06Z</time>
</trkpt>
<trkpt lat="48.374439" lon="10.70676">
<ele>508.724</ele>
<time>2022-05-25T09:44:07Z</time>
</trkpt>
<trkpt lat="48.374405" lon="10.706812">
<ele>508.688</ele>
<time>2022-05-25T09:44:08Z</time>
</trkpt>
<trkpt lat="48.374371" lon="10.706861">
<ele>508.658</ele>
<time>2022-05-25T09:44:09Z</time>
</trkpt>
<trkpt lat="48.374336" lon="10.70691">
<ele>508.651</ele>
<time>2022-05-25T09:44:10Z</time>
</trkpt>
<trkpt lat="48.374302" lon="10.706957">
<ele>508.646</ele>
<time>2022-05-25T09:44:11Z</time>
</trkpt>
<trkpt lat="48.374268" lon="10.707006">
<ele>508.644</ele>
<time>2022-05-25T09:44:12Z</time>
</trkpt>
<trkpt lat="48.374233" lon="10.707055">
<ele>508.644</ele>
<time>2022-05-25T09:44:13Z</time>
</trkpt>
<trkpt lat="48.374195" lon="10.707104">
<ele>508.644</ele>
<time>2022-05-25T09:44:14Z</time>
</trkpt>
<trkpt lat="48.374161" lon="10.707153">
<ele>508.644</ele>
<time>2022-05-25T09:44:15Z</time>
</trkpt>
<trkpt lat="48.37413" lon="10.707204">
<ele>508.644</ele>
<time>2022-05-25T09:44:16Z</time>
</trkpt>
<trkpt lat="48.374096" lon="10.707254">
<ele>508.644</ele>
<time>2022-05-25T09:44:17Z</time>
</trkpt>
<trkpt lat="48.374062" lon="10.707305">
<ele>508.644</ele>
<time>2022-05-25T09:44:18Z</time>
</trkpt>
<trkpt lat="48.374031" lon="10.707355">
<ele>508.644</ele>
<time>2022-05-25T09:44:19Z</time>
</trkpt>
<trkpt lat="48.373993" lon="10.707407">
<ele>508.644</ele>
<time>2022-05-25T09:44:20Z</time>
</trkpt>
<trkpt lat="48.373955" lon="10.707457">
<ele>508.644</ele>
<time>2022-05-25T09:44:21Z</time>
</trkpt>
<trkpt lat="48.37392" lon="10.707505">
<ele>508.644</ele>
<time>2022-05-25T09:44:22Z</time>
</trkpt>
<trkpt lat="48.373886" lon="10.707552">
<ele>508.644</ele>
<time>2022-05-25T09:44:23Z</time>
</trkpt>
<trkpt lat="48.373848" lon="10.707598">
<ele>508.644</ele>
<time>2022-05-25T09:44:24Z</time>
</trkpt>
<trkpt lat="48.37381" lon="10.707644">
<ele>508.644</ele>
<time>2022-05-25T09:44:25Z</time>
</trkpt>
<trkpt lat="48.373775" lon="10.70769">
<ele>508.644</ele>
<time>2022-05-25T09:44:26Z</time>
</trkpt>
<trkpt lat="48.373737" lon="10.707737">
<ele>508.644</ele>
<time>2022-05-25T09:44:27Z</time>
</trkpt>
<trkpt lat="48.373707" lon="10.707783">
<ele>508.644</ele>
<time>2022-05-25T09:44:28Z</time>
</trkpt>
<trkpt lat="48.373676" lon="10.707827">
<ele>508.644</ele>
<time>2022-05-25T09:44:29Z</time>
</trkpt>
<trkpt lat="48.373646" lon="10.707869">
<ele>508.644</ele>
<time>2022-05-25T09:44:30Z</time>
</trkpt>
<trkpt lat="48.373615" lon="10.707913">
<ele>508.644</ele>
<time>2022-05-25T09:44:31Z</time>
</trkpt>
<trkpt lat="48.373581" lon="10.707958">
<ele>508.644</ele>
<time>2022-05-25T09:44:32Z</time>
</trkpt>
<trkpt lat="48.373554" lon="10.708003">
<ele>508.644</ele>
<time>2022-05-25T09:44:33Z</time>
</trkpt>
<trkpt lat="48.37352" lon="10.708047">
<ele>508.644</ele>
<time>2022-05-25T09:44:34Z</time>
</trkpt>
<trkpt lat="48.373489" lon="10.70809">
<ele>508.644</ele>
<time>2022-05-25T09:44:35Z</time>
</trkpt>
<trkpt lat="48.373459" lon="10.708134">
<ele>508.644</ele>
<time>2022-05-25T09:44:36Z</time>
</trkpt>
<trkpt lat="48.373428" lon="10.708182">
<ele>508.644</ele>
<time>2022-05-25T09:44:37Z</time>
</trkpt>
<trkpt lat="48.373398" lon="10.708226">
<ele>508.644</ele>
<time>2022-05-25T09:44:38Z</time>
</trkpt>
<trkpt lat="48.373367" lon="10.708272">
<ele>508.913</ele>
<time>2022-05-25T09:44:39Z</time>
</trkpt>
<trkpt lat="48.373333" lon="10.708317">
<ele>509.17</ele>
<time>2022-05-25T09:44:40Z</time>
</trkpt>
<trkpt lat="48.373302" lon="10.708362">
<ele>509.381</ele>
<time>2022-05-25T09:44:41Z</time>
</trkpt>
<trkpt lat="48.373268" lon="10.708406">
<ele>509.549</ele>
<time>2022-05-25T09:44:42Z</time>
</trkpt>
<trkpt lat="48.373234" lon="10.708448">
<ele>509.678</ele>
<time>2022-05-25T09:44:43Z</time>
</trkpt>
<trkpt lat="48.373207" lon="10.708492">
<ele>509.77</ele>
<time>2022-05-25T09:44:44Z</time>
</trkpt>
<trkpt lat="48.373173" lon="10.708533">
<ele>509.829</ele>
<time>2022-05-25T09:44:45Z</time>
</trkpt>
<trkpt lat="48.373146" lon="10.708576">
<ele>509.858</ele>
<time>2022-05-25T09:44:46Z</time>
</trkpt>
<trkpt lat="48.373112" lon="10.70862">
<ele>509.858</ele>
<time>2022-05-25T09:44:47Z</time>
</trkpt>
<trkpt lat="48.373085" lon="10.70866">
<ele>510.087</ele>
<time>2022-05-25T09:44:48Z</time>
</trkpt>
<trkpt lat="48.373055" lon="10.7087">
<ele>510.252</ele>
<time>2022-05-25T09:44:49Z</time>
</trkpt>
<trkpt lat="48.37302" lon="10.708742">
<ele>510.421</ele>
<time>2022-05-25T09:44:50Z</time>
</trkpt>
<trkpt lat="48.37299" lon="10.708783">
<ele>510.559</ele>
<time>2022-05-25T09:44:51Z</time>
</trkpt>
<trkpt lat="48.372959" lon="10.708826">
<ele>510.665</ele>
<time>2022-05-25T09:44:52Z</time>
</trkpt>
<trkpt lat="48.372932" lon="10.70887">
<ele>510.74</ele>
<time>2022-05-25T09:44:53Z</time>
</trkpt>
<trkpt lat="48.372902" lon="10.708912">
<ele>510.786</ele>
<time>2022-05-25T09:44:54Z</time>
</trkpt>
<trkpt lat="48.372875" lon="10.708952">
<ele>511.043</ele>
<time>2022-05-25T09:44:55Z</time>
</trkpt>
<trkpt lat="48.372849" lon="10.708993">
<ele>511.262</ele>
<time>2022-05-25T09:44:56Z</time>
</trkpt>
<trkpt lat="48.372822" lon="10.709037">
<ele>511.413</ele>
<time>2022-05-25T09:44:57Z</time>
</trkpt>
<trkpt lat="48.372791" lon="10.709082">
<ele>511.525</ele>
<time>2022-05-25T09:44:58Z</time>
</trkpt>
<trkpt lat="48.372761" lon="10.709127">
<ele>511.605</ele>
<time>2022-05-25T09:44:59Z</time>
</trkpt>
<trkpt lat="48.37273" lon="10.709169">
<ele>511.689</ele>
<time>2022-05-25T09:45:00Z</time>
</trkpt>
<trkpt lat="48.372704" lon="10.709213">
<ele>511.742</ele>
<time>2022-05-25T09:45:01Z</time>
</trkpt>
<trkpt lat="48.372681" lon="10.709253">
<ele>511.767</ele>
<time>2022-05-25T09:45:02Z</time>
</trkpt>
<trkpt lat="48.372662" lon="10.709297">
<ele>511.767</ele>
<time>2022-05-25T09:45:03Z</time>
</trkpt>
<trkpt lat="48.372639" lon="10.709341">
<ele>511.767</ele>
<time>2022-05-25T09:45:04Z</time>
</trkpt>
<trkpt lat="48.37262" lon="10.709392">
<ele>512.059</ele>
<time>2022-05-25T09:45:05Z</time>
</trkpt>
<trkpt lat="48.372597" lon="10.709438">
<ele>512.289</ele>
<time>2022-05-25T09:45:06Z</time>
</trkpt>
<trkpt lat="48.372574" lon="10.709478">
<ele>512.468</ele>
<time>2022-05-25T09:45:07Z</time>
</trkpt>
<trkpt lat="48.372543" lon="10.709517">
<ele>512.606</ele>
<time>2022-05-25T09:45:08Z</time>
</trkpt>
<trkpt lat="48.372517" lon="10.709553">
<ele>512.705</ele>
<time>2022-05-25T09:45:09Z</time>
</trkpt>
<trkpt lat="48.37249" lon="10.70959">
<ele>512.808</ele>
<time>2022-05-25T09:45:10Z</time>
</trkpt>
<trkpt lat="48.372459" lon="10.709621">
<ele>512.866</ele>
<time>2022-05-25T09:45:11Z</time>
</trkpt>
<trkpt lat="48.372433" lon="10.709658">
<ele>512.895</ele>
<time>2022-05-25T09:45:12Z</time>
</trkpt>
<trkpt lat="48.372402" lon="10.709698">
<ele>512.895</ele>
<time>2022-05-25T09:45:13Z</time>
</trkpt>
<trkpt lat="48.372375" lon="10.70974">
<ele>513.157</ele>
<time>2022-05-25T09:45:14Z</time>
</trkpt>
<trkpt lat="48.372349" lon="10.709775">
<ele>513.359</ele>
<time>2022-05-25T09:45:15Z</time>
</trkpt>
<trkpt lat="48.372326" lon="10.709812">
<ele>513.513</ele>
<time>2022-05-25T09:45:16Z</time>
</trkpt>
<trkpt lat="48.372303" lon="10.709846">
<ele>513.624</ele>
<time>2022-05-25T09:45:17Z</time>
</trkpt>
<trkpt lat="48.372276" lon="10.709884">
<ele>513.709</ele>
<time>2022-05-25T09:45:18Z</time>
</trkpt>
<trkpt lat="48.372246" lon="10.709917">
<ele>513.77</ele>
<time>2022-05-25T09:45:19Z</time>
</trkpt>
<trkpt lat="48.372219" lon="10.709953">
<ele>514.075</ele>
<time>2022-05-25T09:45:20Z</time>
</trkpt>
<trkpt lat="48.372189" lon="10.709991">
<ele>514.313</ele>
<time>2022-05-25T09:45:21Z</time>
</trkpt>
<trkpt lat="48.372158" lon="10.710033">
<ele>514.492</ele>
<time>2022-05-25T09:45:22Z</time>
</trkpt>
<trkpt lat="48.372116" lon="10.710076">
<ele>514.642</ele>
<time>2022-05-25T09:45:23Z</time>
</trkpt>
<trkpt lat="48.372086" lon="10.710118">
<ele>514.75</ele>
<time>2022-05-25T09:45:24Z</time>
</trkpt>
<trkpt lat="48.372059" lon="10.710158">
<ele>514.824</ele>
<time>2022-05-25T09:45:25Z</time>
</trkpt>
<trkpt lat="48.372032" lon="10.710202">
<ele>514.87</ele>
<time>2022-05-25T09:45:26Z</time>
</trkpt>
<trkpt lat="48.372002" lon="10.710246">
<ele>514.891</ele>
<time>2022-05-25T09:45:27Z</time>
</trkpt>
<trkpt lat="48.371979" lon="10.710293">
<ele>514.891</ele>
<time>2022-05-25T09:45:28Z</time>
</trkpt>
<trkpt lat="48.371952" lon="10.71034">
<ele>514.891</ele>
<time>2022-05-25T09:45:29Z</time>
</trkpt>
<trkpt lat="48.371922" lon="10.710388">
<ele>514.891</ele>
<time>2022-05-25T09:45:30Z</time>
</trkpt>
<trkpt lat="48.371895" lon="10.710435">
<ele>514.891</ele>
<time>2022-05-25T09:45:31Z</time>
</trkpt>
<trkpt lat="48.371868" lon="10.710479">
<ele>515.166</ele>
<time>2022-05-25T09:45:32Z</time>
</trkpt>
<trkpt lat="48.371845" lon="10.710522">
<ele>515.383</ele>
<time>2022-05-25T09:45:33Z</time>
</trkpt>
<trkpt lat="48.371819" lon="10.710567">
<ele>515.541</ele>
<time>2022-05-25T09:45:34Z</time>
</trkpt>
<trkpt lat="48.371792" lon="10.710617">
<ele>515.664</ele>
<time>2022-05-25T09:45:35Z</time>
</trkpt>
<trkpt lat="48.371761" lon="10.710668">
<ele>515.743</ele>
<time>2022-05-25T09:45:36Z</time>
</trkpt>
<trkpt lat="48.371738" lon="10.710722">
<ele>515.793</ele>
<time>2022-05-25T09:45:37Z</time>
</trkpt>
<trkpt lat="48.371716" lon="10.710772">
<ele>515.823</ele>
<time>2022-05-25T09:45:38Z</time>
</trkpt>
<trkpt lat="48.371689" lon="10.710825">
<ele>515.846</ele>
<time>2022-05-25T09:45:39Z</time>
</trkpt>
<trkpt lat="48.371662" lon="10.71088">
<ele>515.846</ele>
<time>2022-05-25T09:45:40Z</time>
</trkpt>
<trkpt lat="48.371635" lon="10.710939">
<ele>515.846</ele>
<time>2022-05-25T09:45:41Z</time>
</trkpt>
<trkpt lat="48.371624" lon="10.710994">
<ele>515.846</ele>
<time>2022-05-25T09:45:42Z</time>
</trkpt>
<trkpt lat="48.371605" lon="10.711051">
<ele>515.846</ele>
<time>2022-05-25T09:45:43Z</time>
</trkpt>
<trkpt lat="48.371571" lon="10.711114">
<ele>515.846</ele>
<time>2022-05-25T09:45:44Z</time>
</trkpt>
<trkpt lat="48.371544" lon="10.711172">
<ele>515.846</ele>
<time>2022-05-25T09:45:45Z</time>
</trkpt>
<trkpt lat="48.371517" lon="10.711233">
<ele>515.846</ele>
<time>2022-05-25T09:45:46Z</time>
</trkpt>
<trkpt lat="48.37149" lon="10.711296">
<ele>515.846</ele>
<time>2022-05-25T09:45:47Z</time>
</trkpt>
<trkpt lat="48.371471" lon="10.71136">
<ele>515.846</ele>
<time>2022-05-25T09:45:48Z</time>
</trkpt>
<trkpt lat="48.371456" lon="10.71142">
<ele>515.846</ele>
<time>2022-05-25T09:45:49Z</time>
</trkpt>
<trkpt lat="48.371441" lon="10.71148">
<ele>515.846</ele>
<time>2022-05-25T09:45:50Z</time>
</trkpt>
<trkpt lat="48.371418" lon="10.711538">
<ele>515.846</ele>
<time>2022-05-25T09:45:51Z</time>
</trkpt>
<trkpt lat="48.371399" lon="10.711594">
<ele>515.846</ele>
<time>2022-05-25T09:45:52Z</time>
</trkpt>
<trkpt lat="48.371391" lon="10.711654">
<ele>515.846</ele>
<time>2022-05-25T09:45:53Z</time>
</trkpt>
<trkpt lat="48.371368" lon="10.711717">
<ele>515.846</ele>
<time>2022-05-25T09:45:54Z</time>
</trkpt>
<trkpt lat="48.371357" lon="10.71178">
<ele>515.846</ele>
<time>2022-05-25T09:45:55Z</time>
</trkpt>
<trkpt lat="48.371342" lon="10.711843">
<ele>515.846</ele>
<time>2022-05-25T09:45:56Z</time>
</trkpt>
<trkpt lat="48.37133" lon="10.711905">
<ele>515.846</ele>
<time>2022-05-25T09:45:57Z</time>
</trkpt>
<trkpt lat="48.371319" lon="10.711964">
<ele>515.846</ele>
<time>2022-05-25T09:45:58Z</time>
</trkpt>
<trkpt lat="48.371304" lon="10.71202">
<ele>515.846</ele>
<time>2022-05-25T09:45:59Z</time>
</trkpt>
<trkpt lat="48.371288" lon="10.71207">
<ele>515.846</ele>
<time>2022-05-25T09:46:00Z</time>
</trkpt>
<trkpt lat="48.371277" lon="10.712111">
<ele>515.846</ele>
<time>2022-05-25T09:46:01Z</time>
</trkpt>
<trkpt lat="48.371262" lon="10.712151">
<ele>515.846</ele>
<time>2022-05-25T09:46:02Z</time>
</trkpt>
<trkpt lat="48.37125" lon="10.712184">
<ele>515.846</ele>
<time>2022-05-25T09:46:03Z</time>
</trkpt>
<trkpt lat="48.371235" lon="10.712218">
<ele>515.846</ele>
<time>2022-05-25T09:46:04Z</time>
</trkpt>
<trkpt lat="48.371227" lon="10.712254">
<ele>515.846</ele>
<time>2022-05-25T09:46:05Z</time>
</trkpt>
<trkpt lat="48.371216" lon="10.712294">
<ele>515.846</ele>
<time>2022-05-25T09:46:06Z</time>
</trkpt>
<trkpt lat="48.371201" lon="10.712333">
<ele>515.846</ele>
<time>2022-05-25T09:46:07Z</time>
</trkpt>
<trkpt lat="48.371189" lon="10.712373">
<ele>515.846</ele>
<time>2022-05-25T09:46:08Z</time>
</trkpt>
<trkpt lat="48.371166" lon="10.712412">
<ele>515.846</ele>
<time>2022-05-25T09:46:09Z</time>
</trkpt>
<trkpt lat="48.371151" lon="10.712445">
<ele>515.846</ele>
<time>2022-05-25T09:46:10Z</time>
</trkpt>
<trkpt lat="48.371128" lon="10.712471">
<ele>515.846</ele>
<time>2022-05-25T09:46:11Z</time>
</trkpt>
<trkpt lat="48.371098" lon="10.712502">
<ele>515.846</ele>
<time>2022-05-25T09:46:12Z</time>
</trkpt>
<trkpt lat="48.371063" lon="10.712526">
<ele>515.846</ele>
<time>2022-05-25T09:46:13Z</time>
</trkpt>
<trkpt lat="48.371029" lon="10.71255">
<ele>515.846</ele>
<time>2022-05-25T09:46:14Z</time>
</trkpt>
<trkpt lat="48.370995" lon="10.712572">
<ele>515.846</ele>
<time>2022-05-25T09:46:15Z</time>
</trkpt>
<trkpt lat="48.370956" lon="10.71259">
<ele>515.846</ele>
<time>2022-05-25T09:46:16Z</time>
</trkpt>
<trkpt lat="48.370922" lon="10.712607">
<ele>515.846</ele>
<time>2022-05-25T09:46:17Z</time>
</trkpt>
<trkpt lat="48.370884" lon="10.712624">
<ele>515.846</ele>
<time>2022-05-25T09:46:18Z</time>
</trkpt>
<trkpt lat="48.37085" lon="10.712637">
<ele>515.846</ele>
<time>2022-05-25T09:46:19Z</time>
</trkpt>
<trkpt lat="48.370815" lon="10.712646">
<ele>515.846</ele>
<time>2022-05-25T09:46:20Z</time>
</trkpt>
<trkpt lat="48.370789" lon="10.712664">
<ele>515.846</ele>
<time>2022-05-25T09:46:21Z</time>
</trkpt>
<trkpt lat="48.370758" lon="10.712679">
<ele>515.846</ele>
<time>2022-05-25T09:46:22Z</time>
</trkpt>
<trkpt lat="48.370724" lon="10.712691">
<ele>515.846</ele>
<time>2022-05-25T09:46:23Z</time>
</trkpt>
<trkpt lat="48.370686" lon="10.712708">
<ele>516.101</ele>
<time>2022-05-25T09:46:24Z</time>
</trkpt>
<trkpt lat="48.370644" lon="10.712723">
<ele>516.308</ele>
<time>2022-05-25T09:46:25Z</time>
</trkpt>
<trkpt lat="48.370609" lon="10.712731">
<ele>516.466</ele>
<time>2022-05-25T09:46:26Z</time>
</trkpt>
<trkpt lat="48.370579" lon="10.712742">
<ele>516.582</ele>
<time>2022-05-25T09:46:27Z</time>
</trkpt>
<trkpt lat="48.370544" lon="10.712749">
<ele>516.669</ele>
<time>2022-05-25T09:46:28Z</time>
</trkpt>
<trkpt lat="48.37051" lon="10.712762">
<ele>516.729</ele>
<time>2022-05-25T09:46:29Z</time>
</trkpt>
<trkpt lat="48.370468" lon="10.712773">
<ele>516.777</ele>
<time>2022-05-25T09:46:30Z</time>
</trkpt>
<trkpt lat="48.370426" lon="10.712782">
<ele>516.801</ele>
<time>2022-05-25T09:46:31Z</time>
</trkpt>
<trkpt lat="48.37038" lon="10.712793">
<ele>516.801</ele>
<time>2022-05-25T09:46:32Z</time>
</trkpt>
<trkpt lat="48.370346" lon="10.712798">
<ele>516.801</ele>
<time>2022-05-25T09:46:33Z</time>
</trkpt>
<trkpt lat="48.370308" lon="10.712795">
<ele>516.801</ele>
<time>2022-05-25T09:46:34Z</time>
</trkpt>
<trkpt lat="48.370262" lon="10.712795">
<ele>516.801</ele>
<time>2022-05-25T09:46:35Z</time>
</trkpt>
<trkpt lat="48.370224" lon="10.712793">
<ele>516.801</ele>
<time>2022-05-25T09:46:36Z</time>
</trkpt>
<trkpt lat="48.370186" lon="10.712791">
<ele>516.801</ele>
<time>2022-05-25T09:46:37Z</time>
</trkpt>
<trkpt lat="48.370152" lon="10.712788">
<ele>516.801</ele>
<time>2022-05-25T09:46:38Z</time>
</trkpt>
<trkpt lat="48.370113" lon="10.712787">
<ele>516.801</ele>
<time>2022-05-25T09:46:39Z</time>
</trkpt>
<trkpt lat="48.370075" lon="10.712785">
<ele>516.801</ele>
<time>2022-05-25T09:46:40Z</time>
</trkpt>
<trkpt lat="48.370033" lon="10.712787">
<ele>516.801</ele>
<time>2022-05-25T09:46:41Z</time>
</trkpt>
<trkpt lat="48.369991" lon="10.712785">
<ele>516.801</ele>
<time>2022-05-25T09:46:42Z</time>
</trkpt>
<trkpt lat="48.369953" lon="10.712785">
<ele>516.801</ele>
<time>2022-05-25T09:46:43Z</time>
</trkpt>
<trkpt lat="48.369907" lon="10.712784">
<ele>516.801</ele>
<time>2022-05-25T09:46:44Z</time>
</trkpt>
<trkpt lat="48.369862" lon="10.712782">
<ele>516.801</ele>
<time>2022-05-25T09:46:45Z</time>
</trkpt>
<trkpt lat="48.369823" lon="10.712782">
<ele>517.053</ele>
<time>2022-05-25T09:46:46Z</time>
</trkpt>
<trkpt lat="48.369793" lon="10.712777">
<ele>517.245</ele>
<time>2022-05-25T09:46:47Z</time>
</trkpt>
<trkpt lat="48.369755" lon="10.712771">
<ele>517.392</ele>
<time>2022-05-25T09:46:48Z</time>
</trkpt>
<trkpt lat="48.369717" lon="10.712769">
<ele>517.491</ele>
<time>2022-05-25T09:46:49Z</time>
</trkpt>
<trkpt lat="48.369671" lon="10.712767">
<ele>517.598</ele>
<time>2022-05-25T09:46:50Z</time>
</trkpt>
<trkpt lat="48.369625" lon="10.71277">
<ele>517.679</ele>
<time>2022-05-25T09:46:51Z</time>
</trkpt>
<trkpt lat="48.369583" lon="10.712777">
<ele>517.728</ele>
<time>2022-05-25T09:46:52Z</time>
</trkpt>
<trkpt lat="48.369534" lon="10.712782">
<ele>517.756</ele>
<time>2022-05-25T09:46:53Z</time>
</trkpt>
<trkpt lat="48.369492" lon="10.712784">
<ele>517.756</ele>
<time>2022-05-25T09:46:54Z</time>
</trkpt>
<trkpt lat="48.369446" lon="10.712782">
<ele>517.756</ele>
<time>2022-05-25T09:46:55Z</time>
</trkpt>
<trkpt lat="48.3694" lon="10.71278">
<ele>517.756</ele>
<time>2022-05-25T09:46:56Z</time>
</trkpt>
<trkpt lat="48.369358" lon="10.712779">
<ele>517.756</ele>
<time>2022-05-25T09:46:57Z</time>
</trkpt>
<trkpt lat="48.369312" lon="10.712775">
<ele>517.756</ele>
<time>2022-05-25T09:46:58Z</time>
</trkpt>
<trkpt lat="48.36927" lon="10.712775">
<ele>517.756</ele>
<time>2022-05-25T09:46:59Z</time>
</trkpt>
<trkpt lat="48.369236" lon="10.712773">
<ele>517.756</ele>
<time>2022-05-25T09:47:00Z</time>
</trkpt>
<trkpt lat="48.36919" lon="10.712773">
<ele>517.756</ele>
<time>2022-05-25T09:47:01Z</time>
</trkpt>
<trkpt lat="48.369156" lon="10.712777">
<ele>517.756</ele>
<time>2022-05-25T09:47:02Z</time>
</trkpt>
<trkpt lat="48.369118" lon="10.712779">
<ele>517.756</ele>
<time>2022-05-25T09:47:03Z</time>
</trkpt>
<trkpt lat="48.36908" lon="10.71278">
<ele>517.756</ele>
<time>2022-05-25T09:47:04Z</time>
</trkpt>
<trkpt lat="48.369045" lon="10.712779">
<ele>517.756</ele>
<time>2022-05-25T09:47:05Z</time>
</trkpt>
<trkpt lat="48.369007" lon="10.712775">
<ele>517.756</ele>
<time>2022-05-25T09:47:06Z</time>
</trkpt>
<trkpt lat="48.368969" lon="10.712769">
<ele>517.991</ele>
<time>2022-05-25T09:47:07Z</time>
</trkpt>
<trkpt lat="48.368931" lon="10.712767">
<ele>518.18</ele>
<time>2022-05-25T09:47:08Z</time>
</trkpt>
<trkpt lat="48.368896" lon="10.712762">
<ele>518.309</ele>
<time>2022-05-25T09:47:09Z</time>
</trkpt>
<trkpt lat="48.368858" lon="10.71276">
<ele>518.457</ele>
<time>2022-05-25T09:47:10Z</time>
</trkpt>
<trkpt lat="48.368816" lon="10.712756">
<ele>518.562</ele>
<time>2022-05-25T09:47:11Z</time>
</trkpt>
<trkpt lat="48.368771" lon="10.712754">
<ele>518.639</ele>
<time>2022-05-25T09:47:12Z</time>
</trkpt>
<trkpt lat="48.368725" lon="10.712753">
<ele>518.688</ele>
<time>2022-05-25T09:47:13Z</time>
</trkpt>
<trkpt lat="48.368683" lon="10.712746">
<ele>518.711</ele>
<time>2022-05-25T09:47:14Z</time>
</trkpt>
<trkpt lat="48.368633" lon="10.712735">
<ele>518.711</ele>
<time>2022-05-25T09:47:15Z</time>
</trkpt>
<trkpt lat="48.368587" lon="10.712725">
<ele>518.711</ele>
<time>2022-05-25T09:47:16Z</time>
</trkpt>
<trkpt lat="48.368538" lon="10.712712">
<ele>518.986</ele>
<time>2022-05-25T09:47:17Z</time>
</trkpt>
<trkpt lat="48.368492" lon="10.712698">
<ele>519.192</ele>
<time>2022-05-25T09:47:18Z</time>
</trkpt>
<trkpt lat="48.36845" lon="10.712685">
<ele>519.325</ele>
<time>2022-05-25T09:47:19Z</time>
</trkpt>
<trkpt lat="48.368412" lon="10.71267">
<ele>519.477</ele>
<time>2022-05-25T09:47:20Z</time>
</trkpt>
<trkpt lat="48.368374" lon="10.712657">
<ele>519.59</ele>
<time>2022-05-25T09:47:21Z</time>
</trkpt>
<trkpt lat="48.36834" lon="10.712644">
<ele>519.672</ele>
<time>2022-05-25T09:47:22Z</time>
</trkpt>
<trkpt lat="48.368301" lon="10.712625">
<ele>519.721</ele>
<time>2022-05-25T09:47:23Z</time>
</trkpt>
<trkpt lat="48.368263" lon="10.712604">
<ele>519.973</ele>
<time>2022-05-25T09:47:24Z</time>
</trkpt>
<trkpt lat="48.368225" lon="10.71258">
<ele>520.2</ele>
<time>2022-05-25T09:47:25Z</time>
</trkpt>
<trkpt lat="48.368191" lon="10.712559">
<ele>520.364</ele>
<time>2022-05-25T09:47:26Z</time>
</trkpt>
<trkpt lat="48.368153" lon="10.712537">
<ele>520.478</ele>
<time>2022-05-25T09:47:27Z</time>
</trkpt>
<trkpt lat="48.368122" lon="10.712517">
<ele>520.568</ele>
<time>2022-05-25T09:47:28Z</time>
</trkpt>
<trkpt lat="48.368092" lon="10.712499">
<ele>520.632</ele>
<time>2022-05-25T09:47:29Z</time>
</trkpt>
<trkpt lat="48.368065" lon="10.71248">
<ele>520.887</ele>
<time>2022-05-25T09:47:30Z</time>
</trkpt>
<trkpt lat="48.368034" lon="10.712461">
<ele>521.081</ele>
<time>2022-05-25T09:47:31Z</time>
</trkpt>
<trkpt lat="48.368011" lon="10.712436">
<ele>521.22</ele>
<time>2022-05-25T09:47:32Z</time>
</trkpt>
<trkpt lat="48.367985" lon="10.712406">
<ele>521.316</ele>
<time>2022-05-25T09:47:33Z</time>
</trkpt>
<trkpt lat="48.367958" lon="10.712379">
<ele>521.646</ele>
<time>2022-05-25T09:47:34Z</time>
</trkpt>
<trkpt lat="48.367931" lon="10.712348">
<ele>521.921</ele>
<time>2022-05-25T09:47:35Z</time>
</trkpt>
<trkpt lat="48.367897" lon="10.712323">
<ele>522.141</ele>
<time>2022-05-25T09:47:36Z</time>
</trkpt>
<trkpt lat="48.36787" lon="10.712298">
<ele>522.298</ele>
<time>2022-05-25T09:47:37Z</time>
</trkpt>
<trkpt lat="48.367836" lon="10.71227">
<ele>522.379</ele>
<time>2022-05-25T09:47:38Z</time>
</trkpt>
<trkpt lat="48.367805" lon="10.712245">
<ele>522.7</ele>
<time>2022-05-25T09:47:39Z</time>
</trkpt>
<trkpt lat="48.367779" lon="10.712218">
<ele>522.967</ele>
<time>2022-05-25T09:47:40Z</time>
</trkpt>
<trkpt lat="48.367744" lon="10.712193">
<ele>523.166</ele>
<time>2022-05-25T09:47:41Z</time>
</trkpt>
<trkpt lat="48.367718" lon="10.71217">
<ele>523.31</ele>
<time>2022-05-25T09:47:42Z</time>
</trkpt>
<trkpt lat="48.367687" lon="10.71214">
<ele>523.418</ele>
<time>2022-05-25T09:47:43Z</time>
</trkpt>
<trkpt lat="48.367657" lon="10.712111">
<ele>523.487</ele>
<time>2022-05-25T09:47:44Z</time>
</trkpt>
<trkpt lat="48.367626" lon="10.712086">
<ele>523.782</ele>
<time>2022-05-25T09:47:45Z</time>
</trkpt>
<trkpt lat="48.367596" lon="10.712062">
<ele>524.003</ele>
<time>2022-05-25T09:47:46Z</time>
</trkpt>
<trkpt lat="48.367565" lon="10.712038">
<ele>524.177</ele>
<time>2022-05-25T09:47:47Z</time>
</trkpt>
<trkpt lat="48.367527" lon="10.712007">
<ele>524.266</ele>
<time>2022-05-25T09:47:48Z</time>
</trkpt>
<trkpt lat="48.367496" lon="10.711984">
<ele>524.569</ele>
<time>2022-05-25T09:47:49Z</time>
</trkpt>
<trkpt lat="48.367466" lon="10.711956">
<ele>524.837</ele>
<time>2022-05-25T09:47:50Z</time>
</trkpt>
<trkpt lat="48.367435" lon="10.71192">
<ele>525.037</ele>
<time>2022-05-25T09:47:51Z</time>
</trkpt>
<trkpt lat="48.367397" lon="10.71189">
<ele>525.161</ele>
<time>2022-05-25T09:47:52Z</time>
</trkpt>
<trkpt lat="48.367363" lon="10.711864">
<ele>525.52</ele>
<time>2022-05-25T09:47:53Z</time>
</trkpt>
<trkpt lat="48.367329" lon="10.711842">
<ele>525.809</ele>
<time>2022-05-25T09:47:54Z</time>
</trkpt>
<trkpt lat="48.367298" lon="10.711825">
<ele>526.022</ele>
<time>2022-05-25T09:47:55Z</time>
</trkpt>
<trkpt lat="48.367268" lon="10.711802">
<ele>526.178</ele>
<time>2022-05-25T09:47:56Z</time>
</trkpt>
<trkpt lat="48.367237" lon="10.71178">
<ele>526.308</ele>
<time>2022-05-25T09:47:57Z</time>
</trkpt>
<trkpt lat="48.367199" lon="10.711759">
<ele>526.368</ele>
<time>2022-05-25T09:47:58Z</time>
</trkpt>
<trkpt lat="48.367165" lon="10.711741">
<ele>526.411</ele>
<time>2022-05-25T09:47:59Z</time>
</trkpt>
<trkpt lat="48.36713" lon="10.711728">
<ele>526.712</ele>
<time>2022-05-25T09:48:00Z</time>
</trkpt>
<trkpt lat="48.367096" lon="10.711721">
<ele>526.944</ele>
<time>2022-05-25T09:48:01Z</time>
</trkpt>
<trkpt lat="48.367062" lon="10.711711">
<ele>527.139</ele>
<time>2022-05-25T09:48:02Z</time>
</trkpt>
<trkpt lat="48.367023" lon="10.711703">
<ele>527.294</ele>
<time>2022-05-25T09:48:03Z</time>
</trkpt>
<trkpt lat="48.366989" lon="10.711695">
<ele>527.408</ele>
<time>2022-05-25T09:48:04Z</time>
</trkpt>
<trkpt lat="48.366955" lon="10.711687">
<ele>527.476</ele>
<time>2022-05-25T09:48:05Z</time>
</trkpt>
<trkpt lat="48.36692" lon="10.711679">
<ele>527.769</ele>
<time>2022-05-25T09:48:06Z</time>
</trkpt>
<trkpt lat="48.366879" lon="10.711671">
<ele>528.002</ele>
<time>2022-05-25T09:48:07Z</time>
</trkpt>
<trkpt lat="48.36684" lon="10.711669">
<ele>528.165</ele>
<time>2022-05-25T09:48:08Z</time>
</trkpt>
<trkpt lat="48.366806" lon="10.711673">
<ele>528.265</ele>
<time>2022-05-25T09:48:09Z</time>
</trkpt>
<trkpt lat="48.366764" lon="10.711679">
<ele>528.372</ele>
<time>2022-05-25T09:48:10Z</time>
</trkpt>
<trkpt lat="48.36673" lon="10.711685">
<ele>528.445</ele>
<time>2022-05-25T09:48:11Z</time>
</trkpt>
<trkpt lat="48.366688" lon="10.711694">
<ele>528.759</ele>
<time>2022-05-25T09:48:12Z</time>
</trkpt>
<trkpt lat="48.36665" lon="10.711705">
<ele>529.002</ele>
<time>2022-05-25T09:48:13Z</time>
</trkpt>
<trkpt lat="48.366608" lon="10.711719">
<ele>529.245</ele>
<time>2022-05-25T09:48:14Z</time>
</trkpt>
<trkpt lat="48.366573" lon="10.711734">
<ele>529.373</ele>
<time>2022-05-25T09:48:15Z</time>
</trkpt>
<trkpt lat="48.366535" lon="10.711752">
<ele>529.466</ele>
<time>2022-05-25T09:48:16Z</time>
</trkpt>
<trkpt lat="48.366501" lon="10.711775">
<ele>529.52</ele>
<time>2022-05-25T09:48:17Z</time>
</trkpt>
<trkpt lat="48.366467" lon="10.711802">
<ele>529.546</ele>
<time>2022-05-25T09:48:18Z</time>
</trkpt>
<trkpt lat="48.366432" lon="10.711834">
<ele>529.57</ele>
<time>2022-05-25T09:48:19Z</time>
</trkpt>
<trkpt lat="48.366402" lon="10.711866">
<ele>529.823</ele>
<time>2022-05-25T09:48:20Z</time>
</trkpt>
<trkpt lat="48.366371" lon="10.711904">
<ele>530.034</ele>
<time>2022-05-25T09:48:21Z</time>
</trkpt>
<trkpt lat="48.366337" lon="10.711939">
<ele>530.211</ele>
<time>2022-05-25T09:48:22Z</time>
</trkpt>
<trkpt lat="48.36631" lon="10.711975">
<ele>530.352</ele>
<time>2022-05-25T09:48:23Z</time>
</trkpt>
<trkpt lat="48.366283" lon="10.712013">
<ele>530.458</ele>
<time>2022-05-25T09:48:24Z</time>
</trkpt>
<trkpt lat="48.366253" lon="10.712053">
<ele>530.538</ele>
<time>2022-05-25T09:48:25Z</time>
</trkpt>
<trkpt lat="48.366226" lon="10.712094">
<ele>530.588</ele>
<time>2022-05-25T09:48:26Z</time>
</trkpt>
<trkpt lat="48.366199" lon="10.712136">
<ele>530.613</ele>
<time>2022-05-25T09:48:27Z</time>
</trkpt>
<trkpt lat="48.366173" lon="10.712176">
<ele>530.613</ele>
<time>2022-05-25T09:48:28Z</time>
</trkpt>
<trkpt lat="48.366142" lon="10.712216">
<ele>530.613</ele>
<time>2022-05-25T09:48:29Z</time>
</trkpt>
<trkpt lat="48.366112" lon="10.712255">
<ele>530.846</ele>
<time>2022-05-25T09:48:30Z</time>
</trkpt>
<trkpt lat="48.366081" lon="10.712294">
<ele>531.041</ele>
<time>2022-05-25T09:48:31Z</time>
</trkpt>
<trkpt lat="48.366051" lon="10.712329">
<ele>531.2</ele>
<time>2022-05-25T09:48:32Z</time>
</trkpt>
<trkpt lat="48.366016" lon="10.71236">
<ele>531.328</ele>
<time>2022-05-25T09:48:33Z</time>
</trkpt>
<trkpt lat="48.365982" lon="10.71239">
<ele>531.428</ele>
<time>2022-05-25T09:48:34Z</time>
</trkpt>
<trkpt lat="48.365944" lon="10.712417">
<ele>531.501</ele>
<time>2022-05-25T09:48:35Z</time>
</trkpt>
<trkpt lat="48.365913" lon="10.712445">
<ele>531.547</ele>
<time>2022-05-25T09:48:36Z</time>
</trkpt>
<trkpt lat="48.365875" lon="10.712469">
<ele>531.569</ele>
<time>2022-05-25T09:48:37Z</time>
</trkpt>
<trkpt lat="48.365841" lon="10.712492">
<ele>531.781</ele>
<time>2022-05-25T09:48:38Z</time>
</trkpt>
<trkpt lat="48.365803" lon="10.712513">
<ele>531.931</ele>
<time>2022-05-25T09:48:39Z</time>
</trkpt>
<trkpt lat="48.365768" lon="10.712534">
<ele>532.085</ele>
<time>2022-05-25T09:48:40Z</time>
</trkpt>
<trkpt lat="48.365734" lon="10.712555">
<ele>532.195</ele>
<time>2022-05-25T09:48:41Z</time>
</trkpt>
<trkpt lat="48.3657" lon="10.712575">
<ele>532.565</ele>
<time>2022-05-25T09:48:42Z</time>
</trkpt>
<trkpt lat="48.365662" lon="10.712599">
<ele>532.867</ele>
<time>2022-05-25T09:48:43Z</time>
</trkpt>
<trkpt lat="48.365627" lon="10.712616">
<ele>533.106</ele>
<time>2022-05-25T09:48:44Z</time>
</trkpt>
<trkpt lat="48.365593" lon="10.712635">
<ele>533.281</ele>
<time>2022-05-25T09:48:45Z</time>
</trkpt>
<trkpt lat="48.365559" lon="10.712651">
<ele>533.428</ele>
<time>2022-05-25T09:48:46Z</time>
</trkpt>
<trkpt lat="48.365524" lon="10.712668">
<ele>533.741</ele>
<time>2022-05-25T09:48:47Z</time>
</trkpt>
<trkpt lat="48.36549" lon="10.712687">
<ele>533.964</ele>
<time>2022-05-25T09:48:48Z</time>
</trkpt>
<trkpt lat="48.365452" lon="10.712702">
<ele>534.124</ele>
<time>2022-05-25T09:48:49Z</time>
</trkpt>
<trkpt lat="48.365414" lon="10.712716">
<ele>534.265</ele>
<time>2022-05-25T09:48:50Z</time>
</trkpt>
<trkpt lat="48.365379" lon="10.712731">
<ele>534.365</ele>
<time>2022-05-25T09:48:51Z</time>
</trkpt>
<trkpt lat="48.365345" lon="10.712749">
<ele>534.682</ele>
<time>2022-05-25T09:48:52Z</time>
</trkpt>
<trkpt lat="48.365314" lon="10.712767">
<ele>534.901</ele>
<time>2022-05-25T09:48:53Z</time>
</trkpt>
<trkpt lat="48.365284" lon="10.712784">
<ele>535.299</ele>
<time>2022-05-25T09:48:54Z</time>
</trkpt>
<trkpt lat="48.365261" lon="10.712798">
<ele>535.689</ele>
<time>2022-05-25T09:48:55Z</time>
</trkpt>
<trkpt lat="48.365231" lon="10.712815">
<ele>535.911</ele>
<time>2022-05-25T09:48:56Z</time>
</trkpt>
<trkpt lat="48.365208" lon="10.712828">
<ele>536.068</ele>
<time>2022-05-25T09:48:57Z</time>
</trkpt>
<trkpt lat="48.365181" lon="10.712831">
<ele>536.163</ele>
<time>2022-05-25T09:48:58Z</time>
</trkpt>
<trkpt lat="48.365158" lon="10.712831">
<ele>536.471</ele>
<time>2022-05-25T09:48:59Z</time>
</trkpt>
<trkpt lat="48.365131" lon="10.71283">
<ele>536.716</ele>
<time>2022-05-25T09:49:00Z</time>
</trkpt>
<trkpt lat="48.365108" lon="10.712827">
<ele>536.908</ele>
<time>2022-05-25T09:49:01Z</time>
</trkpt>
<trkpt lat="48.365086" lon="10.712821">
<ele>537.046</ele>
<time>2022-05-25T09:49:02Z</time>
</trkpt>
<trkpt lat="48.365063" lon="10.712819">
<ele>537.141</ele>
<time>2022-05-25T09:49:03Z</time>
</trkpt>
<trkpt lat="48.365036" lon="10.712817">
<ele>537.45</ele>
<time>2022-05-25T09:49:04Z</time>
</trkpt>
<trkpt lat="48.365013" lon="10.712817">
<ele>537.704</ele>
<time>2022-05-25T09:49:05Z</time>
</trkpt>
<trkpt lat="48.36499" lon="10.712819">
<ele>537.893</ele>
<time>2022-05-25T09:49:06Z</time>
</trkpt>
<trkpt lat="48.364967" lon="10.712819">
<ele>538.01</ele>
<time>2022-05-25T09:49:07Z</time>
</trkpt>
<trkpt lat="48.364941" lon="10.71282">
<ele>538.341</ele>
<time>2022-05-25T09:49:08Z</time>
</trkpt>
<trkpt lat="48.364922" lon="10.712815">
<ele>538.588</ele>
<time>2022-05-25T09:49:09Z</time>
</trkpt>
<trkpt lat="48.364895" lon="10.712819">
<ele>538.811</ele>
<time>2022-05-25T09:49:10Z</time>
</trkpt>
<trkpt lat="48.364868" lon="10.71282">
<ele>538.951</ele>
<time>2022-05-25T09:49:11Z</time>
</trkpt>
<trkpt lat="48.364845" lon="10.71282">
<ele>539.278</ele>
<time>2022-05-25T09:49:12Z</time>
</trkpt>
<trkpt lat="48.364826" lon="10.712819">
<ele>539.538</ele>
<time>2022-05-25T09:49:13Z</time>
</trkpt>
<trkpt lat="48.364807" lon="10.712817">
<ele>539.707</ele>
<time>2022-05-25T09:49:14Z</time>
</trkpt>
<trkpt lat="48.364788" lon="10.712813">
<ele>540.081</ele>
<time>2022-05-25T09:49:15Z</time>
</trkpt>
<trkpt lat="48.364765" lon="10.712817">
<ele>540.421</ele>
<time>2022-05-25T09:49:16Z</time>
</trkpt>
<trkpt lat="48.364742" lon="10.712813">
<ele>540.63</ele>
<time>2022-05-25T09:49:17Z</time>
</trkpt>
<trkpt lat="48.364719" lon="10.712811">
<ele>540.764</ele>
<time>2022-05-25T09:49:18Z</time>
</trkpt>
<trkpt lat="48.364689" lon="10.712809">
<ele>540.875</ele>
<time>2022-05-25T09:49:19Z</time>
</trkpt>
<trkpt lat="48.364662" lon="10.712811">
<ele>541.242</ele>
<time>2022-05-25T09:49:20Z</time>
</trkpt>
<trkpt lat="48.364635" lon="10.712817">
<ele>541.53</ele>
<time>2022-05-25T09:49:21Z</time>
</trkpt>
<trkpt lat="48.364609" lon="10.712821">
<ele>541.688</ele>
<time>2022-05-25T09:49:22Z</time>
</trkpt>
<trkpt lat="48.364582" lon="10.712825">
<ele>542.079</ele>
<time>2022-05-25T09:49:23Z</time>
</trkpt>
<trkpt lat="48.364552" lon="10.71283">
<ele>542.351</ele>
<time>2022-05-25T09:49:24Z</time>
</trkpt>
<trkpt lat="48.364529" lon="10.712835">
<ele>542.816</ele>
<time>2022-05-25T09:49:25Z</time>
</trkpt>
<trkpt lat="48.364506" lon="10.71284">
<ele>543.164</ele>
<time>2022-05-25T09:49:26Z</time>
</trkpt>
<trkpt lat="48.364479" lon="10.712844">
<ele>543.393</ele>
<time>2022-05-25T09:49:27Z</time>
</trkpt>
<trkpt lat="48.364449" lon="10.712849">
<ele>543.835</ele>
<time>2022-05-25T09:49:28Z</time>
</trkpt>
<trkpt lat="48.364422" lon="10.712853">
<ele>544.137</ele>
<time>2022-05-25T09:49:29Z</time>
</trkpt>
<trkpt lat="48.364391" lon="10.712863">
<ele>544.401</ele>
<time>2022-05-25T09:49:30Z</time>
</trkpt>
<trkpt lat="48.364365" lon="10.712867">
<ele>544.84</ele>
<time>2022-05-25T09:49:31Z</time>
</trkpt>
<trkpt lat="48.364334" lon="10.712875">
<ele>545.166</ele>
<time>2022-05-25T09:49:32Z</time>
</trkpt>
<trkpt lat="48.364307" lon="10.712889">
<ele>545.415</ele>
<time>2022-05-25T09:49:33Z</time>
</trkpt>
<trkpt lat="48.364277" lon="10.712896">
<ele>545.589</ele>
<time>2022-05-25T09:49:34Z</time>
</trkpt>
<trkpt lat="48.364246" lon="10.712905">
<ele>545.686</ele>
<time>2022-05-25T09:49:35Z</time>
</trkpt>
<trkpt lat="48.36422" lon="10.712914">
<ele>546.066</ele>
<time>2022-05-25T09:49:36Z</time>
</trkpt>
<trkpt lat="48.364197" lon="10.71292">
<ele>546.27</ele>
<time>2022-05-25T09:49:37Z</time>
</trkpt>
<trkpt lat="48.364166" lon="10.712928">
<ele>546.677</ele>
<time>2022-05-25T09:49:38Z</time>
</trkpt>
<trkpt lat="48.36414" lon="10.712938">
<ele>546.98</ele>
<time>2022-05-25T09:49:39Z</time>
</trkpt>
<trkpt lat="48.364109" lon="10.712949">
<ele>547.269</ele>
<time>2022-05-25T09:49:40Z</time>
</trkpt>
<trkpt lat="48.364082" lon="10.712959">
<ele>547.47</ele>
<time>2022-05-25T09:49:41Z</time>
</trkpt>
<trkpt lat="48.364052" lon="10.712972">
<ele>547.865</ele>
<time>2022-05-25T09:49:42Z</time>
</trkpt>
<trkpt lat="48.364029" lon="10.712983">
<ele>548.159</ele>
<time>2022-05-25T09:49:43Z</time>
</trkpt>
<trkpt lat="48.363998" lon="10.712993">
<ele>548.36</ele>
<time>2022-05-25T09:49:44Z</time>
</trkpt>
<trkpt lat="48.363972" lon="10.713005">
<ele>548.472</ele>
<time>2022-05-25T09:49:45Z</time>
</trkpt>
<trkpt lat="48.363949" lon="10.713017">
<ele>548.861</ele>
<time>2022-05-25T09:49:46Z</time>
</trkpt>
<trkpt lat="48.363926" lon="10.713032">
<ele>549.121</ele>
<time>2022-05-25T09:49:47Z</time>
</trkpt>
<trkpt lat="48.363895" lon="10.713041">
<ele>549.314</ele>
<time>2022-05-25T09:49:48Z</time>
</trkpt>
<trkpt lat="48.363869" lon="10.713052">
<ele>549.458</ele>
<time>2022-05-25T09:49:49Z</time>
</trkpt>
<trkpt lat="48.363846" lon="10.713063">
<ele>549.811</ele>
<time>2022-05-25T09:49:50Z</time>
</trkpt>
<trkpt lat="48.363827" lon="10.713068">
<ele>550.1</ele>
<time>2022-05-25T09:49:51Z</time>
</trkpt>
<trkpt lat="48.3638" lon="10.713078">
<ele>550.301</ele>
<time>2022-05-25T09:49:52Z</time>
</trkpt>
<trkpt lat="48.363773" lon="10.71309">
<ele>550.437</ele>
<time>2022-05-25T09:49:53Z</time>
</trkpt>
<trkpt lat="48.363747" lon="10.713105">
<ele>550.792</ele>
<time>2022-05-25T09:49:54Z</time>
</trkpt>
<trkpt lat="48.363724" lon="10.713115">
<ele>551.068</ele>
<time>2022-05-25T09:49:55Z</time>
</trkpt>
<trkpt lat="48.363697" lon="10.713125">
<ele>551.245</ele>
<time>2022-05-25T09:49:56Z</time>
</trkpt>
<trkpt lat="48.36367" lon="10.713135">
<ele>551.635</ele>
<time>2022-05-25T09:49:57Z</time>
</trkpt>
<trkpt lat="48.36364" lon="10.713148">
<ele>551.934</ele>
<time>2022-05-25T09:49:58Z</time>
</trkpt>
<trkpt lat="48.363609" lon="10.713165">
<ele>552.122</ele>
<time>2022-05-25T09:49:59Z</time>
</trkpt>
<trkpt lat="48.363583" lon="10.713177">
<ele>552.272</ele>
<time>2022-05-25T09:50:00Z</time>
</trkpt>
<trkpt lat="48.36356" lon="10.713186">
<ele>552.632</ele>
<time>2022-05-25T09:50:01Z</time>
</trkpt>
<trkpt lat="48.363533" lon="10.713197">
<ele>552.9</ele>
<time>2022-05-25T09:50:02Z</time>
</trkpt>
<trkpt lat="48.363503" lon="10.713211">
<ele>553.122</ele>
<time>2022-05-25T09:50:03Z</time>
</trkpt>
<trkpt lat="48.363472" lon="10.713227">
<ele>553.261</ele>
<time>2022-05-25T09:50:04Z</time>
</trkpt>
<trkpt lat="48.363438" lon="10.713243">
<ele>553.404</ele>
<time>2022-05-25T09:50:05Z</time>
</trkpt>
<trkpt lat="48.363403" lon="10.713259">
<ele>553.729</ele>
<time>2022-05-25T09:50:06Z</time>
</trkpt>
<trkpt lat="48.363377" lon="10.71327">
<ele>553.943</ele>
<time>2022-05-25T09:50:07Z</time>
</trkpt>
<trkpt lat="48.36335" lon="10.713282">
<ele>554.111</ele>
<time>2022-05-25T09:50:08Z</time>
</trkpt>
<trkpt lat="48.363323" lon="10.713293">
<ele>554.213</ele>
<time>2022-05-25T09:50:09Z</time>
</trkpt>
<trkpt lat="48.3633" lon="10.713302">
<ele>554.518</ele>
<time>2022-05-25T09:50:10Z</time>
</trkpt>
<trkpt lat="48.36327" lon="10.713309">
<ele>554.76</ele>
<time>2022-05-25T09:50:11Z</time>
</trkpt>
<trkpt lat="48.363239" lon="10.713318">
<ele>554.95</ele>
<time>2022-05-25T09:50:12Z</time>
</trkpt>
<trkpt lat="48.363213" lon="10.713326">
<ele>555.094</ele>
<time>2022-05-25T09:50:13Z</time>
</trkpt>
<trkpt lat="48.363186" lon="10.71333">
<ele>555.19</ele>
<time>2022-05-25T09:50:14Z</time>
</trkpt>
<trkpt lat="48.363159" lon="10.713335">
<ele>555.256</ele>
<time>2022-05-25T09:50:15Z</time>
</trkpt>
<trkpt lat="48.363129" lon="10.713341">
<ele>555.542</ele>
<time>2022-05-25T09:50:16Z</time>
</trkpt>
<trkpt lat="48.363106" lon="10.713343">
<ele>555.756</ele>
<time>2022-05-25T09:50:17Z</time>
</trkpt>
<trkpt lat="48.363075" lon="10.713348">
<ele>555.919</ele>
<time>2022-05-25T09:50:18Z</time>
</trkpt>
<trkpt lat="48.363049" lon="10.713353">
<ele>556.016</ele>
<time>2022-05-25T09:50:19Z</time>
</trkpt>
<trkpt lat="48.363018" lon="10.713364">
<ele>556.128</ele>
<time>2022-05-25T09:50:20Z</time>
</trkpt>
<trkpt lat="48.362984" lon="10.713376">
<ele>556.209</ele>
<time>2022-05-25T09:50:21Z</time>
</trkpt>
<trkpt lat="48.362949" lon="10.713388">
<ele>556.509</ele>
<time>2022-05-25T09:50:22Z</time>
</trkpt>
<trkpt lat="48.362919" lon="10.713404">
<ele>556.735</ele>
<time>2022-05-25T09:50:23Z</time>
</trkpt>
<trkpt lat="48.362896" lon="10.713428">
<ele>556.96</ele>
<time>2022-05-25T09:50:24Z</time>
</trkpt>
<trkpt lat="48.362869" lon="10.713458">
<ele>557.075</ele>
<time>2022-05-25T09:50:25Z</time>
</trkpt>
<trkpt lat="48.362843" lon="10.713498">
<ele>557.15</ele>
<time>2022-05-25T09:50:26Z</time>
</trkpt>
<trkpt lat="48.362808" lon="10.71354">
<ele>557.16</ele>
<time>2022-05-25T09:50:27Z</time>
</trkpt>
<trkpt lat="48.362782" lon="10.71358">
<ele>556.912</ele>
<time>2022-05-25T09:50:28Z</time>
</trkpt>
<trkpt lat="48.362751" lon="10.713632">
<ele>556.747</ele>
<time>2022-05-25T09:50:29Z</time>
</trkpt>
<trkpt lat="48.362713" lon="10.713692">
<ele>556.281</ele>
<time>2022-05-25T09:50:30Z</time>
</trkpt>
<trkpt lat="48.362671" lon="10.71375">
<ele>555.899</ele>
<time>2022-05-25T09:50:31Z</time>
</trkpt>
<trkpt lat="48.362617" lon="10.713799">
<ele>555.622</ele>
<time>2022-05-25T09:50:32Z</time>
</trkpt>
<trkpt lat="48.362556" lon="10.713843">
<ele>555.425</ele>
<time>2022-05-25T09:50:33Z</time>
</trkpt>
<trkpt lat="48.362499" lon="10.713879">
<ele>555.296</ele>
<time>2022-05-25T09:50:34Z</time>
</trkpt>
<trkpt lat="48.362446" lon="10.713906">
<ele>555.21</ele>
<time>2022-05-25T09:50:35Z</time>
</trkpt>
<trkpt lat="48.362396" lon="10.713933">
<ele>555.17</ele>
<time>2022-05-25T09:50:36Z</time>
</trkpt>
<trkpt lat="48.36235" lon="10.713957">
<ele>555.155</ele>
<time>2022-05-25T09:50:37Z</time>
</trkpt>
<trkpt lat="48.362301" lon="10.71398">
<ele>555.155</ele>
<time>2022-05-25T09:50:38Z</time>
</trkpt>
<trkpt lat="48.362263" lon="10.714005">
<ele>555.155</ele>
<time>2022-05-25T09:50:39Z</time>
</trkpt>
<trkpt lat="48.362221" lon="10.714025">
<ele>555.155</ele>
<time>2022-05-25T09:50:40Z</time>
</trkpt>
<trkpt lat="48.362179" lon="10.714043">
<ele>555.416</ele>
<time>2022-05-25T09:50:41Z</time>
</trkpt>
<trkpt lat="48.362144" lon="10.714062">
<ele>555.629</ele>
<time>2022-05-25T09:50:42Z</time>
</trkpt>
<trkpt lat="48.362114" lon="10.714082">
<ele>555.777</ele>
<time>2022-05-25T09:50:43Z</time>
</trkpt>
<trkpt lat="48.36208" lon="10.714102">
<ele>556.138</ele>
<time>2022-05-25T09:50:44Z</time>
</trkpt>
<trkpt lat="48.362041" lon="10.714125">
<ele>556.385</ele>
<time>2022-05-25T09:50:45Z</time>
</trkpt>
<trkpt lat="48.362003" lon="10.714142">
<ele>556.849</ele>
<time>2022-05-25T09:50:46Z</time>
</trkpt>
<trkpt lat="48.361969" lon="10.714165">
<ele>557.193</ele>
<time>2022-05-25T09:50:47Z</time>
</trkpt>
<trkpt lat="48.361938" lon="10.714173">
<ele>557.386</ele>
<time>2022-05-25T09:50:48Z</time>
</trkpt>
<trkpt lat="48.361904" lon="10.714185">
<ele>557.807</ele>
<time>2022-05-25T09:50:49Z</time>
</trkpt>
<trkpt lat="48.361874" lon="10.71419">
<ele>558.176</ele>
<time>2022-05-25T09:50:50Z</time>
</trkpt>
<trkpt lat="48.361843" lon="10.714206">
<ele>558.421</ele>
<time>2022-05-25T09:50:51Z</time>
</trkpt>
<trkpt lat="48.361816" lon="10.714229">
<ele>558.843</ele>
<time>2022-05-25T09:50:52Z</time>
</trkpt>
<trkpt lat="48.36179" lon="10.714252">
<ele>559.15</ele>
<time>2022-05-25T09:50:53Z</time>
</trkpt>
<trkpt lat="48.361767" lon="10.714277">
<ele>559.624</ele>
<time>2022-05-25T09:50:54Z</time>
</trkpt>
<trkpt lat="48.36174" lon="10.714311">
<ele>560.013</ele>
<time>2022-05-25T09:50:55Z</time>
</trkpt>
<trkpt lat="48.361713" lon="10.714347">
<ele>560.277</ele>
<time>2022-05-25T09:50:56Z</time>
</trkpt>
<trkpt lat="48.361691" lon="10.71439">
<ele>560.771</ele>
<time>2022-05-25T09:50:57Z</time>
</trkpt>
<trkpt lat="48.361668" lon="10.714434">
<ele>561.106</ele>
<time>2022-05-25T09:50:58Z</time>
</trkpt>
<trkpt lat="48.361641" lon="10.714478">
<ele>561.316</ele>
<time>2022-05-25T09:50:59Z</time>
</trkpt>
<trkpt lat="48.36161" lon="10.714524">
<ele>561.513</ele>
<time>2022-05-25T09:51:00Z</time>
</trkpt>
<trkpt lat="48.361595" lon="10.714568">
<ele>561.64</ele>
<time>2022-05-25T09:51:01Z</time>
</trkpt>
<trkpt lat="48.361576" lon="10.714613">
<ele>561.713</ele>
<time>2022-05-25T09:51:02Z</time>
</trkpt>
<trkpt lat="48.361553" lon="10.714662">
<ele>561.756</ele>
<time>2022-05-25T09:51:03Z</time>
</trkpt>
<trkpt lat="48.36153" lon="10.714708">
<ele>561.779</ele>
<time>2022-05-25T09:51:04Z</time>
</trkpt>
<trkpt lat="48.361511" lon="10.71475">
<ele>561.779</ele>
<time>2022-05-25T09:51:05Z</time>
</trkpt>
<trkpt lat="48.361485" lon="10.71479">
<ele>561.779</ele>
<time>2022-05-25T09:51:06Z</time>
</trkpt>
<trkpt lat="48.361462" lon="10.71483">
<ele>561.779</ele>
<time>2022-05-25T09:51:07Z</time>
</trkpt>
<trkpt lat="48.361443" lon="10.714869">
<ele>562.009</ele>
<time>2022-05-25T09:51:08Z</time>
</trkpt>
<trkpt lat="48.361416" lon="10.714904">
<ele>562.177</ele>
<time>2022-05-25T09:51:09Z</time>
</trkpt>
<trkpt lat="48.361389" lon="10.714937">
<ele>562.343</ele>
<time>2022-05-25T09:51:10Z</time>
</trkpt>
<trkpt lat="48.361366" lon="10.714969">
<ele>562.477</ele>
<time>2022-05-25T09:51:11Z</time>
</trkpt>
<trkpt lat="48.36134" lon="10.715">
<ele>562.585</ele>
<time>2022-05-25T09:51:12Z</time>
</trkpt>
<trkpt lat="48.361317" lon="10.715032">
<ele>562.664</ele>
<time>2022-05-25T09:51:13Z</time>
</trkpt>
<trkpt lat="48.361286" lon="10.715063">
<ele>562.715</ele>
<time>2022-05-25T09:51:14Z</time>
</trkpt>
<trkpt lat="48.361259" lon="10.715092">
<ele>562.738</ele>
<time>2022-05-25T09:51:15Z</time>
</trkpt>
<trkpt lat="48.361229" lon="10.715117">
<ele>562.738</ele>
<time>2022-05-25T09:51:16Z</time>
</trkpt>
<trkpt lat="48.361202" lon="10.715143">
<ele>562.738</ele>
<time>2022-05-25T09:51:17Z</time>
</trkpt>
<trkpt lat="48.361172" lon="10.715174">
<ele>562.738</ele>
<time>2022-05-25T09:51:18Z</time>
</trkpt>
<trkpt lat="48.361141" lon="10.715207">
<ele>562.738</ele>
<time>2022-05-25T09:51:19Z</time>
</trkpt>
<trkpt lat="48.361111" lon="10.715239">
<ele>562.738</ele>
<time>2022-05-25T09:51:20Z</time>
</trkpt>
<trkpt lat="48.361076" lon="10.715273">
<ele>562.738</ele>
<time>2022-05-25T09:51:21Z</time>
</trkpt>
<trkpt lat="48.361038" lon="10.715306">
<ele>562.738</ele>
<time>2022-05-25T09:51:22Z</time>
</trkpt>
<trkpt lat="48.361004" lon="10.715342">
<ele>562.738</ele>
<time>2022-05-25T09:51:23Z</time>
</trkpt>
<trkpt lat="48.360966" lon="10.715379">
<ele>562.738</ele>
<time>2022-05-25T09:51:24Z</time>
</trkpt>
<trkpt lat="48.360924" lon="10.715413">
<ele>562.738</ele>
<time>2022-05-25T09:51:25Z</time>
</trkpt>
<trkpt lat="48.360886" lon="10.715453">
<ele>562.738</ele>
<time>2022-05-25T09:51:26Z</time>
</trkpt>
<trkpt lat="48.36084" lon="10.715493">
<ele>562.738</ele>
<time>2022-05-25T09:51:27Z</time>
</trkpt>
<trkpt lat="48.360798" lon="10.715534">
<ele>562.493</ele>
<time>2022-05-25T09:51:28Z</time>
</trkpt>
<trkpt lat="48.36076" lon="10.715578">
<ele>562.325</ele>
<time>2022-05-25T09:51:29Z</time>
</trkpt>
<trkpt lat="48.360714" lon="10.715624">
<ele>562.153</ele>
<time>2022-05-25T09:51:30Z</time>
</trkpt>
<trkpt lat="48.360668" lon="10.715667">
<ele>562.02</ele>
<time>2022-05-25T09:51:31Z</time>
</trkpt>
<trkpt lat="48.360622" lon="10.71571">
<ele>561.919</ele>
<time>2022-05-25T09:51:32Z</time>
</trkpt>
<trkpt lat="48.360577" lon="10.715755">
<ele>561.855</ele>
<time>2022-05-25T09:51:33Z</time>
</trkpt>
<trkpt lat="48.360531" lon="10.715796">
<ele>561.587</ele>
<time>2022-05-25T09:51:34Z</time>
</trkpt>
<trkpt lat="48.360481" lon="10.715842">
<ele>561.382</ele>
<time>2022-05-25T09:51:35Z</time>
</trkpt>
<trkpt lat="48.360435" lon="10.715884">
<ele>561.21</ele>
<time>2022-05-25T09:51:36Z</time>
</trkpt>
<trkpt lat="48.36039" lon="10.715928">
<ele>561.104</ele>
<time>2022-05-25T09:51:37Z</time>
</trkpt>
<trkpt lat="48.36034" lon="10.715974">
<ele>561.032</ele>
<time>2022-05-25T09:51:38Z</time>
</trkpt>
<trkpt lat="48.360294" lon="10.716017">
<ele>560.978</ele>
<time>2022-05-25T09:51:39Z</time>
</trkpt>
<trkpt lat="48.360245" lon="10.71606">
<ele>560.695</ele>
<time>2022-05-25T09:51:40Z</time>
</trkpt>
<trkpt lat="48.360199" lon="10.716106">
<ele>560.477</ele>
<time>2022-05-25T09:51:41Z</time>
</trkpt>
<trkpt lat="48.360149" lon="10.716153">
<ele>560.315</ele>
<time>2022-05-25T09:51:42Z</time>
</trkpt>
<trkpt lat="48.3601" lon="10.716198">
<ele>560.187</ele>
<time>2022-05-25T09:51:43Z</time>
</trkpt>
<trkpt lat="48.36005" lon="10.716245">
<ele>560.087</ele>
<time>2022-05-25T09:51:44Z</time>
</trkpt>
<trkpt lat="48.360001" lon="10.71629">
<ele>560.016</ele>
<time>2022-05-25T09:51:45Z</time>
</trkpt>
<trkpt lat="48.359951" lon="10.716334">
<ele>559.971</ele>
<time>2022-05-25T09:51:46Z</time>
</trkpt>
<trkpt lat="48.359905" lon="10.716381">
<ele>559.948</ele>
<time>2022-05-25T09:51:47Z</time>
</trkpt>
<trkpt lat="48.359856" lon="10.716427">
<ele>559.948</ele>
<time>2022-05-25T09:51:48Z</time>
</trkpt>
<trkpt lat="48.35981" lon="10.716472">
<ele>559.948</ele>
<time>2022-05-25T09:51:49Z</time>
</trkpt>
<trkpt lat="48.35976" lon="10.716515">
<ele>559.716</ele>
<time>2022-05-25T09:51:50Z</time>
</trkpt>
<trkpt lat="48.359715" lon="10.71656">
<ele>559.522</ele>
<time>2022-05-25T09:51:51Z</time>
</trkpt>
<trkpt lat="48.359669" lon="10.716603">
<ele>559.361</ele>
<time>2022-05-25T09:51:52Z</time>
</trkpt>
<trkpt lat="48.359619" lon="10.716647">
<ele>559.232</ele>
<time>2022-05-25T09:51:53Z</time>
</trkpt>
<trkpt lat="48.359577" lon="10.71669">
<ele>559.131</ele>
<time>2022-05-25T09:51:54Z</time>
</trkpt>
<trkpt lat="48.359528" lon="10.716733">
<ele>559.059</ele>
<time>2022-05-25T09:51:55Z</time>
</trkpt>
<trkpt lat="48.359486" lon="10.716775">
<ele>559.012</ele>
<time>2022-05-25T09:51:56Z</time>
</trkpt>
<trkpt lat="48.35944" lon="10.716819">
<ele>558.989</ele>
<time>2022-05-25T09:51:57Z</time>
</trkpt>
<trkpt lat="48.359394" lon="10.716862">
<ele>558.989</ele>
<time>2022-05-25T09:51:58Z</time>
</trkpt>
<trkpt lat="48.359352" lon="10.716903">
<ele>558.989</ele>
<time>2022-05-25T09:51:59Z</time>
</trkpt>
<trkpt lat="48.359306" lon="10.716947">
<ele>558.989</ele>
<time>2022-05-25T09:52:00Z</time>
</trkpt>
<trkpt lat="48.359261" lon="10.716992">
<ele>558.989</ele>
<time>2022-05-25T09:52:01Z</time>
</trkpt>
<trkpt lat="48.359222" lon="10.717034">
<ele>558.989</ele>
<time>2022-05-25T09:52:02Z</time>
</trkpt>
<trkpt lat="48.359177" lon="10.717078">
<ele>558.989</ele>
<time>2022-05-25T09:52:03Z</time>
</trkpt>
<trkpt lat="48.359138" lon="10.717125">
<ele>558.989</ele>
<time>2022-05-25T09:52:04Z</time>
</trkpt>
<trkpt lat="48.359097" lon="10.717171">
<ele>558.989</ele>
<time>2022-05-25T09:52:05Z</time>
</trkpt>
<trkpt lat="48.359055" lon="10.717216">
<ele>558.989</ele>
<time>2022-05-25T09:52:06Z</time>
</trkpt>
<trkpt lat="48.359009" lon="10.717261">
<ele>558.989</ele>
<time>2022-05-25T09:52:07Z</time>
</trkpt>
<trkpt lat="48.358971" lon="10.717309">
<ele>558.989</ele>
<time>2022-05-25T09:52:08Z</time>
</trkpt>
<trkpt lat="48.358929" lon="10.717355">
<ele>558.989</ele>
<time>2022-05-25T09:52:09Z</time>
</trkpt>
<trkpt lat="48.358887" lon="10.717403">
<ele>558.989</ele>
<time>2022-05-25T09:52:10Z</time>
</trkpt>
<trkpt lat="48.358845" lon="10.717449">
<ele>558.989</ele>
<time>2022-05-25T09:52:11Z</time>
</trkpt>
<trkpt lat="48.358807" lon="10.717495">
<ele>558.989</ele>
<time>2022-05-25T09:52:12Z</time>
</trkpt>
<trkpt lat="48.358772" lon="10.71754">
<ele>558.989</ele>
<time>2022-05-25T09:52:13Z</time>
</trkpt>
<trkpt lat="48.358738" lon="10.717584">
<ele>558.989</ele>
<time>2022-05-25T09:52:14Z</time>
</trkpt>
<trkpt lat="48.3587" lon="10.717627">
<ele>558.989</ele>
<time>2022-05-25T09:52:15Z</time>
</trkpt>
<trkpt lat="48.358665" lon="10.717673">
<ele>558.989</ele>
<time>2022-05-25T09:52:16Z</time>
</trkpt>
<trkpt lat="48.358631" lon="10.717718">
<ele>559.223</ele>
<time>2022-05-25T09:52:17Z</time>
</trkpt>
<trkpt lat="48.358593" lon="10.717765">
<ele>559.411</ele>
<time>2022-05-25T09:52:18Z</time>
</trkpt>
<trkpt lat="48.358555" lon="10.717812">
<ele>559.544</ele>
<time>2022-05-25T09:52:19Z</time>
</trkpt>
<trkpt lat="48.358517" lon="10.717858">
<ele>559.687</ele>
<time>2022-05-25T09:52:20Z</time>
</trkpt>
<trkpt lat="48.358479" lon="10.717906">
<ele>559.797</ele>
<time>2022-05-25T09:52:21Z</time>
</trkpt>
<trkpt lat="48.358448" lon="10.717958">
<ele>559.876</ele>
<time>2022-05-25T09:52:22Z</time>
</trkpt>
<trkpt lat="48.358414" lon="10.71801">
<ele>559.925</ele>
<time>2022-05-25T09:52:23Z</time>
</trkpt>
<trkpt lat="48.358383" lon="10.718063">
<ele>559.948</ele>
<time>2022-05-25T09:52:24Z</time>
</trkpt>
<trkpt lat="48.358349" lon="10.718117">
<ele>559.948</ele>
<time>2022-05-25T09:52:25Z</time>
</trkpt>
<trkpt lat="48.358318" lon="10.718168">
<ele>560.191</ele>
<time>2022-05-25T09:52:26Z</time>
</trkpt>
<trkpt lat="48.358288" lon="10.718224">
<ele>560.384</ele>
<time>2022-05-25T09:52:27Z</time>
</trkpt>
<trkpt lat="48.358257" lon="10.718277">
<ele>560.535</ele>
<time>2022-05-25T09:52:28Z</time>
</trkpt>
<trkpt lat="48.358231" lon="10.718333">
<ele>560.637</ele>
<time>2022-05-25T09:52:29Z</time>
</trkpt>
<trkpt lat="48.3582" lon="10.71839">
<ele>560.749</ele>
<time>2022-05-25T09:52:30Z</time>
</trkpt>
<trkpt lat="48.358173" lon="10.718449">
<ele>560.83</ele>
<time>2022-05-25T09:52:31Z</time>
</trkpt>
<trkpt lat="48.358139" lon="10.718507">
<ele>560.882</ele>
<time>2022-05-25T09:52:32Z</time>
</trkpt>
<trkpt lat="48.358112" lon="10.718565">
<ele>560.907</ele>
<time>2022-05-25T09:52:33Z</time>
</trkpt>
<trkpt lat="48.358082" lon="10.718623">
<ele>560.907</ele>
<time>2022-05-25T09:52:34Z</time>
</trkpt>
<trkpt lat="48.358051" lon="10.718683">
<ele>560.907</ele>
<time>2022-05-25T09:52:35Z</time>
</trkpt>
<trkpt lat="48.358025" lon="10.718743">
<ele>560.907</ele>
<time>2022-05-25T09:52:36Z</time>
</trkpt>
<trkpt lat="48.35799" lon="10.718805">
<ele>560.907</ele>
<time>2022-05-25T09:52:37Z</time>
</trkpt>
<trkpt lat="48.357964" lon="10.718868">
<ele>560.907</ele>
<time>2022-05-25T09:52:38Z</time>
</trkpt>
<trkpt lat="48.357937" lon="10.71893">
<ele>560.907</ele>
<time>2022-05-25T09:52:39Z</time>
</trkpt>
<trkpt lat="48.357906" lon="10.718991">
<ele>560.907</ele>
<time>2022-05-25T09:52:40Z</time>
</trkpt>
<trkpt lat="48.357883" lon="10.719055">
<ele>560.907</ele>
<time>2022-05-25T09:52:41Z</time>
</trkpt>
<trkpt lat="48.357857" lon="10.71912">
<ele>560.907</ele>
<time>2022-05-25T09:52:42Z</time>
</trkpt>
<trkpt lat="48.35783" lon="10.719185">
<ele>560.907</ele>
<time>2022-05-25T09:52:43Z</time>
</trkpt>
<trkpt lat="48.357803" lon="10.719252">
<ele>560.907</ele>
<time>2022-05-25T09:52:44Z</time>
</trkpt>
<trkpt lat="48.357777" lon="10.719316">
<ele>560.907</ele>
<time>2022-05-25T09:52:45Z</time>
</trkpt>
<trkpt lat="48.357754" lon="10.719381">
<ele>560.907</ele>
<time>2022-05-25T09:52:46Z</time>
</trkpt>
<trkpt lat="48.357723" lon="10.719446">
<ele>560.907</ele>
<time>2022-05-25T09:52:47Z</time>
</trkpt>
<trkpt lat="48.357697" lon="10.719513">
<ele>560.907</ele>
<time>2022-05-25T09:52:48Z</time>
</trkpt>
<trkpt lat="48.357666" lon="10.719582">
<ele>560.907</ele>
<time>2022-05-25T09:52:49Z</time>
</trkpt>
<trkpt lat="48.357635" lon="10.719651">
<ele>560.907</ele>
<time>2022-05-25T09:52:50Z</time>
</trkpt>
<trkpt lat="48.357609" lon="10.719723">
<ele>560.613</ele>
<time>2022-05-25T09:52:51Z</time>
</trkpt>
<trkpt lat="48.357574" lon="10.719796">
<ele>560.389</ele>
<time>2022-05-25T09:52:52Z</time>
</trkpt>
<trkpt lat="48.357544" lon="10.719869">
<ele>560.221</ele>
<time>2022-05-25T09:52:53Z</time>
</trkpt>
<trkpt lat="48.357506" lon="10.71994">
<ele>560.122</ele>
<time>2022-05-25T09:52:54Z</time>
</trkpt>
<trkpt lat="48.357468" lon="10.720007">
<ele>559.769</ele>
<time>2022-05-25T09:52:55Z</time>
</trkpt>
<trkpt lat="48.35743" lon="10.72007">
<ele>559.514</ele>
<time>2022-05-25T09:52:56Z</time>
</trkpt>
<trkpt lat="48.357388" lon="10.720133">
<ele>559.342</ele>
<time>2022-05-25T09:52:57Z</time>
</trkpt>
<trkpt lat="48.357349" lon="10.7202">
<ele>559.25</ele>
<time>2022-05-25T09:52:58Z</time>
</trkpt>
<trkpt lat="48.357311" lon="10.720263">
<ele>558.931</ele>
<time>2022-05-25T09:52:59Z</time>
</trkpt>
<trkpt lat="48.357273" lon="10.720324">
<ele>558.669</ele>
<time>2022-05-25T09:53:00Z</time>
</trkpt>
<trkpt lat="48.357235" lon="10.72037">
<ele>558.218</ele>
<time>2022-05-25T09:53:01Z</time>
</trkpt>
<trkpt lat="48.357193" lon="10.720407">
<ele>557.867</ele>
<time>2022-05-25T09:53:02Z</time>
</trkpt>
<trkpt lat="48.357151" lon="10.720451">
<ele>557.642</ele>
<time>2022-05-25T09:53:03Z</time>
</trkpt>
<trkpt lat="48.357128" lon="10.720509">
<ele>557.2</ele>
<time>2022-05-25T09:53:04Z</time>
</trkpt>
<trkpt lat="48.357109" lon="10.720575">
<ele>556.85</ele>
<time>2022-05-25T09:53:05Z</time>
</trkpt>
<trkpt lat="48.357101" lon="10.720644">
<ele>556.581</ele>
<time>2022-05-25T09:53:06Z</time>
</trkpt>
<trkpt lat="48.35709" lon="10.72071">
<ele>556.354</ele>
<time>2022-05-25T09:53:07Z</time>
</trkpt>
<trkpt lat="48.357082" lon="10.720777">
<ele>556.262</ele>
<time>2022-05-25T09:53:08Z</time>
</trkpt>
<trkpt lat="48.357075" lon="10.720841">
<ele>556.197</ele>
<time>2022-05-25T09:53:09Z</time>
</trkpt>
<trkpt lat="48.357071" lon="10.720906">
<ele>556.14</ele>
<time>2022-05-25T09:53:10Z</time>
</trkpt>
<trkpt lat="48.357063" lon="10.72097">
<ele>556.113</ele>
<time>2022-05-25T09:53:11Z</time>
</trkpt>
<trkpt lat="48.357059" lon="10.721034">
<ele>556.113</ele>
<time>2022-05-25T09:53:12Z</time>
</trkpt>
<trkpt lat="48.357056" lon="10.721093">
<ele>556.113</ele>
<time>2022-05-25T09:53:13Z</time>
</trkpt>
<trkpt lat="48.357048" lon="10.721153">
<ele>556.113</ele>
<time>2022-05-25T09:53:14Z</time>
</trkpt>
<trkpt lat="48.357044" lon="10.721216">
<ele>556.113</ele>
<time>2022-05-25T09:53:15Z</time>
</trkpt>
<trkpt lat="48.357033" lon="10.72128">
<ele>556.113</ele>
<time>2022-05-25T09:53:16Z</time>
</trkpt>
<trkpt lat="48.357025" lon="10.721345">
<ele>556.113</ele>
<time>2022-05-25T09:53:17Z</time>
</trkpt>
<trkpt lat="48.357018" lon="10.721412">
<ele>556.113</ele>
<time>2022-05-25T09:53:18Z</time>
</trkpt>
<trkpt lat="48.357014" lon="10.721482">
<ele>556.113</ele>
<time>2022-05-25T09:53:19Z</time>
</trkpt>
<trkpt lat="48.357002" lon="10.72155">
<ele>556.113</ele>
<time>2022-05-25T09:53:20Z</time>
</trkpt>
<trkpt lat="48.356998" lon="10.721622">
<ele>556.113</ele>
<time>2022-05-25T09:53:21Z</time>
</trkpt>
<trkpt lat="48.356987" lon="10.721696">
<ele>556.113</ele>
<time>2022-05-25T09:53:22Z</time>
</trkpt>
<trkpt lat="48.356979" lon="10.721769">
<ele>556.113</ele>
<time>2022-05-25T09:53:23Z</time>
</trkpt>
<trkpt lat="48.356972" lon="10.72185">
<ele>556.113</ele>
<time>2022-05-25T09:53:24Z</time>
</trkpt>
<trkpt lat="48.356964" lon="10.721933">
<ele>555.849</ele>
<time>2022-05-25T09:53:25Z</time>
</trkpt>
<trkpt lat="48.356953" lon="10.722016">
<ele>555.646</ele>
<time>2022-05-25T09:53:26Z</time>
</trkpt>
<trkpt lat="48.356945" lon="10.722103">
<ele>555.496</ele>
<time>2022-05-25T09:53:27Z</time>
</trkpt>
<trkpt lat="48.356937" lon="10.722193">
<ele>555.379</ele>
<time>2022-05-25T09:53:28Z</time>
</trkpt>
<trkpt lat="48.35693" lon="10.722282">
<ele>555.305</ele>
<time>2022-05-25T09:53:29Z</time>
</trkpt>
<trkpt lat="48.356918" lon="10.722372">
<ele>555.229</ele>
<time>2022-05-25T09:53:30Z</time>
</trkpt>
<trkpt lat="48.356911" lon="10.722462">
<ele>554.937</ele>
<time>2022-05-25T09:53:31Z</time>
</trkpt>
<trkpt lat="48.356899" lon="10.72256">
<ele>554.717</ele>
<time>2022-05-25T09:53:32Z</time>
</trkpt>
<trkpt lat="48.356888" lon="10.72266">
<ele>554.501</ele>
<time>2022-05-25T09:53:33Z</time>
</trkpt>
<trkpt lat="48.35688" lon="10.722763">
<ele>554.098</ele>
<time>2022-05-25T09:53:34Z</time>
</trkpt>
<trkpt lat="48.356865" lon="10.722867">
<ele>553.803</ele>
<time>2022-05-25T09:53:35Z</time>
</trkpt>
<trkpt lat="48.356857" lon="10.722968">
<ele>553.628</ele>
<time>2022-05-25T09:53:36Z</time>
</trkpt>
<trkpt lat="48.356846" lon="10.723075">
<ele>553.181</ele>
<time>2022-05-25T09:53:37Z</time>
</trkpt>
<trkpt lat="48.356834" lon="10.723184">
<ele>552.907</ele>
<time>2022-05-25T09:53:38Z</time>
</trkpt>
<trkpt lat="48.356823" lon="10.723295">
<ele>552.444</ele>
<time>2022-05-25T09:53:39Z</time>
</trkpt>
<trkpt lat="48.356812" lon="10.72341">
<ele>552.046</ele>
<time>2022-05-25T09:53:40Z</time>
</trkpt>
<trkpt lat="48.356796" lon="10.723527">
<ele>551.776</ele>
<time>2022-05-25T09:53:41Z</time>
</trkpt>
<trkpt lat="48.356785" lon="10.723646">
<ele>551.246</ele>
<time>2022-05-25T09:53:42Z</time>
</trkpt>
<trkpt lat="48.356773" lon="10.72377">
<ele>550.834</ele>
<time>2022-05-25T09:53:43Z</time>
</trkpt>
<trkpt lat="48.356762" lon="10.723898">
<ele>550.578</ele>
<time>2022-05-25T09:53:44Z</time>
</trkpt>
<trkpt lat="48.356754" lon="10.724026">
<ele>550.091</ele>
<time>2022-05-25T09:53:45Z</time>
</trkpt>
<trkpt lat="48.35675" lon="10.724156">
<ele>549.764</ele>
<time>2022-05-25T09:53:46Z</time>
</trkpt>
<trkpt lat="48.356747" lon="10.72429">
<ele>549.168</ele>
<time>2022-05-25T09:53:47Z</time>
</trkpt>
<trkpt lat="48.35675" lon="10.724425">
<ele>548.788</ele>
<time>2022-05-25T09:53:48Z</time>
</trkpt>
<trkpt lat="48.35675" lon="10.724562">
<ele>548.52</ele>
<time>2022-05-25T09:53:49Z</time>
</trkpt>
<trkpt lat="48.356762" lon="10.724702">
<ele>548.042</ele>
<time>2022-05-25T09:53:50Z</time>
</trkpt>
<trkpt lat="48.356777" lon="10.724843">
<ele>547.675</ele>
<time>2022-05-25T09:53:51Z</time>
</trkpt>
<trkpt lat="48.356789" lon="10.724985">
<ele>547.445</ele>
<time>2022-05-25T09:53:52Z</time>
</trkpt>
<trkpt lat="48.356804" lon="10.725126">
<ele>547.008</ele>
<time>2022-05-25T09:53:53Z</time>
</trkpt>
<trkpt lat="48.356823" lon="10.725272">
<ele>546.719</ele>
<time>2022-05-25T09:53:54Z</time>
</trkpt>
<trkpt lat="48.35685" lon="10.725415">
<ele>546.229</ele>
<time>2022-05-25T09:53:55Z</time>
</trkpt>
<trkpt lat="48.356873" lon="10.725558">
<ele>545.893</ele>
<time>2022-05-25T09:53:56Z</time>
</trkpt>
<trkpt lat="48.356899" lon="10.725703">
<ele>545.351</ele>
<time>2022-05-25T09:53:57Z</time>
</trkpt>
<trkpt lat="48.356922" lon="10.725852">
<ele>544.991</ele>
<time>2022-05-25T09:53:58Z</time>
</trkpt>
<trkpt lat="48.356949" lon="10.725999">
<ele>544.38</ele>
<time>2022-05-25T09:53:59Z</time>
</trkpt>
<trkpt lat="48.356976" lon="10.726151">
<ele>543.64</ele>
<time>2022-05-25T09:54:00Z</time>
</trkpt>
<trkpt lat="48.357002" lon="10.726301">
<ele>543.077</ele>
<time>2022-05-25T09:54:01Z</time>
</trkpt>
<trkpt lat="48.357025" lon="10.726456">
<ele>542.716</ele>
<time>2022-05-25T09:54:02Z</time>
</trkpt>
<trkpt lat="48.357048" lon="10.72661">
<ele>542.143</ele>
<time>2022-05-25T09:54:03Z</time>
</trkpt>
<trkpt lat="48.357075" lon="10.726768">
<ele>541.407</ele>
<time>2022-05-25T09:54:04Z</time>
</trkpt>
<trkpt lat="48.357105" lon="10.72693">
<ele>540.921</ele>
<time>2022-05-25T09:54:05Z</time>
</trkpt>
<trkpt lat="48.357132" lon="10.727093">
<ele>540.205</ele>
<time>2022-05-25T09:54:06Z</time>
</trkpt>
<trkpt lat="48.357159" lon="10.727261">
<ele>539.673</ele>
<time>2022-05-25T09:54:07Z</time>
</trkpt>
<trkpt lat="48.357185" lon="10.727427">
<ele>539.34</ele>
<time>2022-05-25T09:54:08Z</time>
</trkpt>
<trkpt lat="48.357212" lon="10.727595">
<ele>538.779</ele>
<time>2022-05-25T09:54:09Z</time>
</trkpt>
<trkpt lat="48.357243" lon="10.727765">
<ele>538.018</ele>
<time>2022-05-25T09:54:10Z</time>
</trkpt>
<trkpt lat="48.357273" lon="10.727937">
<ele>537.523</ele>
<time>2022-05-25T09:54:11Z</time>
</trkpt>
<trkpt lat="48.357307" lon="10.728109">
<ele>536.845</ele>
<time>2022-05-25T09:54:12Z</time>
</trkpt>
<trkpt lat="48.357338" lon="10.728285">
<ele>536.381</ele>
<time>2022-05-25T09:54:13Z</time>
</trkpt>
<trkpt lat="48.357365" lon="10.728461">
<ele>535.739</ele>
<time>2022-05-25T09:54:14Z</time>
</trkpt>
<trkpt lat="48.357391" lon="10.72864">
<ele>535.299</ele>
<time>2022-05-25T09:54:15Z</time>
</trkpt>
<trkpt lat="48.357418" lon="10.728817">
<ele>534.72</ele>
<time>2022-05-25T09:54:16Z</time>
</trkpt>
<trkpt lat="48.357445" lon="10.728992">
<ele>534.031</ele>
<time>2022-05-25T09:54:17Z</time>
</trkpt>
<trkpt lat="48.357471" lon="10.729167">
<ele>533.514</ele>
<time>2022-05-25T09:54:18Z</time>
</trkpt>
<trkpt lat="48.357502" lon="10.729333">
<ele>533.179</ele>
<time>2022-05-25T09:54:19Z</time>
</trkpt>
<trkpt lat="48.357529" lon="10.729493">
<ele>532.659</ele>
<time>2022-05-25T09:54:20Z</time>
</trkpt>
<trkpt lat="48.357559" lon="10.72965">
<ele>532.02</ele>
<time>2022-05-25T09:54:21Z</time>
</trkpt>
<trkpt lat="48.357582" lon="10.729805">
<ele>531.535</ele>
<time>2022-05-25T09:54:22Z</time>
</trkpt>
<trkpt lat="48.357609" lon="10.729959">
<ele>531.219</ele>
<time>2022-05-25T09:54:23Z</time>
</trkpt>
<trkpt lat="48.357632" lon="10.730119">
<ele>530.676</ele>
<time>2022-05-25T09:54:24Z</time>
</trkpt>
<trkpt lat="48.357658" lon="10.730277">
<ele>530.306</ele>
<time>2022-05-25T09:54:25Z</time>
</trkpt>
<trkpt lat="48.357681" lon="10.730433">
<ele>529.739</ele>
<time>2022-05-25T09:54:26Z</time>
</trkpt>
<trkpt lat="48.357704" lon="10.730592">
<ele>529.358</ele>
<time>2022-05-25T09:54:27Z</time>
</trkpt>
<trkpt lat="48.357727" lon="10.730751">
<ele>529.086</ele>
<time>2022-05-25T09:54:28Z</time>
</trkpt>
<trkpt lat="48.357742" lon="10.73091">
<ele>528.676</ele>
<time>2022-05-25T09:54:29Z</time>
</trkpt>
<trkpt lat="48.357761" lon="10.731069">
<ele>528.347</ele>
<time>2022-05-25T09:54:30Z</time>
</trkpt>
<trkpt lat="48.357765" lon="10.731225">
<ele>527.813</ele>
<time>2022-05-25T09:54:31Z</time>
</trkpt>
<trkpt lat="48.357773" lon="10.731381">
<ele>527.462</ele>
<time>2022-05-25T09:54:32Z</time>
</trkpt>
<trkpt lat="48.357777" lon="10.731537">
<ele>526.927</ele>
<time>2022-05-25T09:54:33Z</time>
</trkpt>
<trkpt lat="48.357777" lon="10.731689">
<ele>526.401</ele>
<time>2022-05-25T09:54:34Z</time>
</trkpt>
<trkpt lat="48.357777" lon="10.731843">
<ele>526.139</ele>
<time>2022-05-25T09:54:35Z</time>
</trkpt>
<trkpt lat="48.357769" lon="10.731994">
<ele>525.967</ele>
<time>2022-05-25T09:54:36Z</time>
</trkpt>
<trkpt lat="48.357765" lon="10.732141">
<ele>525.774</ele>
<time>2022-05-25T09:54:37Z</time>
</trkpt>
<trkpt lat="48.357761" lon="10.732288">
<ele>525.722</ele>
<time>2022-05-25T09:54:38Z</time>
</trkpt>
<trkpt lat="48.357758" lon="10.73243">
<ele>525.684</ele>
<time>2022-05-25T09:54:39Z</time>
</trkpt>
<trkpt lat="48.35775" lon="10.732572">
<ele>525.659</ele>
<time>2022-05-25T09:54:40Z</time>
</trkpt>
<trkpt lat="48.357746" lon="10.732708">
<ele>525.659</ele>
<time>2022-05-25T09:54:41Z</time>
</trkpt>
<trkpt lat="48.357738" lon="10.732835">
<ele>525.659</ele>
<time>2022-05-25T09:54:42Z</time>
</trkpt>
<trkpt lat="48.357731" lon="10.732957">
<ele>525.659</ele>
<time>2022-05-25T09:54:43Z</time>
</trkpt>
<trkpt lat="48.357731" lon="10.733075">
<ele>525.659</ele>
<time>2022-05-25T09:54:44Z</time>
</trkpt>
<trkpt lat="48.357727" lon="10.73319">
<ele>525.418</ele>
<time>2022-05-25T09:54:45Z</time>
</trkpt>
<trkpt lat="48.357719" lon="10.733307">
<ele>525.225</ele>
<time>2022-05-25T09:54:46Z</time>
</trkpt>
<trkpt lat="48.357712" lon="10.73342">
<ele>525.074</ele>
<time>2022-05-25T09:54:47Z</time>
</trkpt>
<trkpt lat="48.357708" lon="10.733531">
<ele>524.958</ele>
<time>2022-05-25T09:54:48Z</time>
</trkpt>
<trkpt lat="48.357704" lon="10.733642">
<ele>524.872</ele>
<time>2022-05-25T09:54:49Z</time>
</trkpt>
<trkpt lat="48.3577" lon="10.733751">
<ele>524.785</ele>
<time>2022-05-25T09:54:50Z</time>
</trkpt>
<trkpt lat="48.357697" lon="10.733862">
<ele>524.73</ele>
<time>2022-05-25T09:54:51Z</time>
</trkpt>
<trkpt lat="48.357697" lon="10.733969">
<ele>524.703</ele>
<time>2022-05-25T09:54:52Z</time>
</trkpt>
<trkpt lat="48.357693" lon="10.734076">
<ele>524.44</ele>
<time>2022-05-25T09:54:53Z</time>
</trkpt>
<trkpt lat="48.357689" lon="10.734179">
<ele>524.234</ele>
<time>2022-05-25T09:54:54Z</time>
</trkpt>
<trkpt lat="48.357681" lon="10.73428">
<ele>524.072</ele>
<time>2022-05-25T09:54:55Z</time>
</trkpt>
<trkpt lat="48.357674" lon="10.73438">
<ele>523.953</ele>
<time>2022-05-25T09:54:56Z</time>
</trkpt>
<trkpt lat="48.357666" lon="10.734482">
<ele>523.873</ele>
<time>2022-05-25T09:54:57Z</time>
</trkpt>
<trkpt lat="48.357666" lon="10.734583">
<ele>523.819</ele>
<time>2022-05-25T09:54:58Z</time>
</trkpt>
<trkpt lat="48.357658" lon="10.734683">
<ele>523.776</ele>
<time>2022-05-25T09:54:59Z</time>
</trkpt>
<trkpt lat="48.357655" lon="10.734783">
<ele>523.748</ele>
<time>2022-05-25T09:55:00Z</time>
</trkpt>
<trkpt lat="48.357651" lon="10.734883">
<ele>523.748</ele>
<time>2022-05-25T09:55:01Z</time>
</trkpt>
<trkpt lat="48.357647" lon="10.734983">
<ele>523.498</ele>
<time>2022-05-25T09:55:02Z</time>
</trkpt>
<trkpt lat="48.357643" lon="10.735085">
<ele>523.303</ele>
<time>2022-05-25T09:55:03Z</time>
</trkpt>
<trkpt lat="48.357639" lon="10.735187">
<ele>523.155</ele>
<time>2022-05-25T09:55:04Z</time>
</trkpt>
<trkpt lat="48.357635" lon="10.735289">
<ele>523.047</ele>
<time>2022-05-25T09:55:05Z</time>
</trkpt>
<trkpt lat="48.357632" lon="10.735388">
<ele>522.971</ele>
<time>2022-05-25T09:55:06Z</time>
</trkpt>
<trkpt lat="48.357628" lon="10.73549">
<ele>522.921</ele>
<time>2022-05-25T09:55:07Z</time>
</trkpt>
<trkpt lat="48.35762" lon="10.735593">
<ele>522.899</ele>
<time>2022-05-25T09:55:08Z</time>
</trkpt>
<trkpt lat="48.357616" lon="10.735697">
<ele>522.879</ele>
<time>2022-05-25T09:55:09Z</time>
</trkpt>
<trkpt lat="48.357613" lon="10.735798">
<ele>522.879</ele>
<time>2022-05-25T09:55:10Z</time>
</trkpt>
<trkpt lat="48.357609" lon="10.7359">
<ele>522.879</ele>
<time>2022-05-25T09:55:11Z</time>
</trkpt>
<trkpt lat="48.357605" lon="10.736001">
<ele>522.879</ele>
<time>2022-05-25T09:55:12Z</time>
</trkpt>
<trkpt lat="48.357601" lon="10.736105">
<ele>522.879</ele>
<time>2022-05-25T09:55:13Z</time>
</trkpt>
<trkpt lat="48.357597" lon="10.736209">
<ele>522.879</ele>
<time>2022-05-25T09:55:14Z</time>
</trkpt>
<trkpt lat="48.357594" lon="10.736312">
<ele>522.879</ele>
<time>2022-05-25T09:55:15Z</time>
</trkpt>
<trkpt lat="48.35759" lon="10.736417">
<ele>522.61</ele>
<time>2022-05-25T09:55:16Z</time>
</trkpt>
<trkpt lat="48.357586" lon="10.736522">
<ele>522.4</ele>
<time>2022-05-25T09:55:17Z</time>
</trkpt>
<trkpt lat="48.357582" lon="10.736626">
<ele>522.235</ele>
<time>2022-05-25T09:55:18Z</time>
</trkpt>
<trkpt lat="48.357578" lon="10.736731">
<ele>522.124</ele>
<time>2022-05-25T09:55:19Z</time>
</trkpt>
<trkpt lat="48.357574" lon="10.736836">
<ele>521.771</ele>
<time>2022-05-25T09:55:20Z</time>
</trkpt>
<trkpt lat="48.357571" lon="10.736941">
<ele>521.49</ele>
<time>2022-05-25T09:55:21Z</time>
</trkpt>
<trkpt lat="48.357567" lon="10.737051">
<ele>521.273</ele>
<time>2022-05-25T09:55:22Z</time>
</trkpt>
<trkpt lat="48.357563" lon="10.737158">
<ele>521.119</ele>
<time>2022-05-25T09:55:23Z</time>
</trkpt>
<trkpt lat="48.357559" lon="10.737267">
<ele>521.02</ele>
<time>2022-05-25T09:55:24Z</time>
</trkpt>
<trkpt lat="48.357555" lon="10.737375">
<ele>520.949</ele>
<time>2022-05-25T09:55:25Z</time>
</trkpt>
<trkpt lat="48.357552" lon="10.737482">
<ele>520.907</ele>
<time>2022-05-25T09:55:26Z</time>
</trkpt>
<trkpt lat="48.357548" lon="10.737589">
<ele>520.648</ele>
<time>2022-05-25T09:55:27Z</time>
</trkpt>
<trkpt lat="48.357544" lon="10.737695">
<ele>520.454</ele>
<time>2022-05-25T09:55:28Z</time>
</trkpt>
<trkpt lat="48.35754" lon="10.737801">
<ele>520.324</ele>
<time>2022-05-25T09:55:29Z</time>
</trkpt>
<trkpt lat="48.357536" lon="10.737906">
<ele>520.186</ele>
<time>2022-05-25T09:55:30Z</time>
</trkpt>
<trkpt lat="48.357533" lon="10.738013">
<ele>520.078</ele>
<time>2022-05-25T09:55:31Z</time>
</trkpt>
<trkpt lat="48.357533" lon="10.738122">
<ele>520.007</ele>
<time>2022-05-25T09:55:32Z</time>
</trkpt>
<trkpt lat="48.357525" lon="10.738229">
<ele>519.741</ele>
<time>2022-05-25T09:55:33Z</time>
</trkpt>
<trkpt lat="48.357517" lon="10.738337">
<ele>519.537</ele>
<time>2022-05-25T09:55:34Z</time>
</trkpt>
<trkpt lat="48.35751" lon="10.738444">
<ele>519.348</ele>
<time>2022-05-25T09:55:35Z</time>
</trkpt>
<trkpt lat="48.357502" lon="10.738553">
<ele>519.24</ele>
<time>2022-05-25T09:55:36Z</time>
</trkpt>
<trkpt lat="48.357498" lon="10.73866">
<ele>519.181</ele>
<time>2022-05-25T09:55:37Z</time>
</trkpt>
<trkpt lat="48.357491" lon="10.738769">
<ele>518.895</ele>
<time>2022-05-25T09:55:38Z</time>
</trkpt>
<trkpt lat="48.357483" lon="10.738876">
<ele>518.683</ele>
<time>2022-05-25T09:55:39Z</time>
</trkpt>
<trkpt lat="48.357479" lon="10.738985">
<ele>518.49</ele>
<time>2022-05-25T09:55:40Z</time>
</trkpt>
<trkpt lat="48.357471" lon="10.739092">
<ele>518.354</ele>
<time>2022-05-25T09:55:41Z</time>
</trkpt>
<trkpt lat="48.357468" lon="10.739199">
<ele>518.25</ele>
<time>2022-05-25T09:55:42Z</time>
</trkpt>
<trkpt lat="48.35746" lon="10.739305">
<ele>518.175</ele>
<time>2022-05-25T09:55:43Z</time>
</trkpt>
<trkpt lat="48.357452" lon="10.73941">
<ele>518.126</ele>
<time>2022-05-25T09:55:44Z</time>
</trkpt>
<trkpt lat="48.357441" lon="10.739515">
<ele>518.103</ele>
<time>2022-05-25T09:55:45Z</time>
</trkpt>
<trkpt lat="48.357433" lon="10.739617">
<ele>518.103</ele>
<time>2022-05-25T09:55:46Z</time>
</trkpt>
<trkpt lat="48.357418" lon="10.739718">
<ele>518.103</ele>
<time>2022-05-25T09:55:47Z</time>
</trkpt>
<trkpt lat="48.357407" lon="10.73982">
<ele>517.873</ele>
<time>2022-05-25T09:55:48Z</time>
</trkpt>
<trkpt lat="48.357399" lon="10.739922">
<ele>517.707</ele>
<time>2022-05-25T09:55:49Z</time>
</trkpt>
<trkpt lat="48.357391" lon="10.74002">
<ele>517.539</ele>
<time>2022-05-25T09:55:50Z</time>
</trkpt>
<trkpt lat="48.35738" lon="10.740116">
<ele>517.403</ele>
<time>2022-05-25T09:55:51Z</time>
</trkpt>
<trkpt lat="48.357372" lon="10.740212">
<ele>517.298</ele>
<time>2022-05-25T09:55:52Z</time>
</trkpt>
<trkpt lat="48.357361" lon="10.740307">
<ele>517.221</ele>
<time>2022-05-25T09:55:53Z</time>
</trkpt>
<trkpt lat="48.357349" lon="10.7404">
<ele>517.172</ele>
<time>2022-05-25T09:55:54Z</time>
</trkpt>
<trkpt lat="48.357338" lon="10.740493">
<ele>517.148</ele>
<time>2022-05-25T09:55:55Z</time>
</trkpt>
<trkpt lat="48.357334" lon="10.740583">
<ele>517.148</ele>
<time>2022-05-25T09:55:56Z</time>
</trkpt>
<trkpt lat="48.357327" lon="10.740673">
<ele>517.148</ele>
<time>2022-05-25T09:55:57Z</time>
</trkpt>
<trkpt lat="48.357319" lon="10.740762">
<ele>517.148</ele>
<time>2022-05-25T09:55:58Z</time>
</trkpt>
<trkpt lat="48.357307" lon="10.740849">
<ele>517.148</ele>
<time>2022-05-25T09:55:59Z</time>
</trkpt>
<trkpt lat="48.357296" lon="10.740938">
<ele>517.148</ele>
<time>2022-05-25T09:56:00Z</time>
</trkpt>
<trkpt lat="48.357285" lon="10.741025">
<ele>517.148</ele>
<time>2022-05-25T09:56:01Z</time>
</trkpt>
<trkpt lat="48.357273" lon="10.74111">
<ele>517.148</ele>
<time>2022-05-25T09:56:02Z</time>
</trkpt>
<trkpt lat="48.357265" lon="10.74119">
<ele>517.148</ele>
<time>2022-05-25T09:56:03Z</time>
</trkpt>
<trkpt lat="48.357254" lon="10.741268">
<ele>517.148</ele>
<time>2022-05-25T09:56:04Z</time>
</trkpt>
<trkpt lat="48.357243" lon="10.741346">
<ele>517.148</ele>
<time>2022-05-25T09:56:05Z</time>
</trkpt>
<trkpt lat="48.357231" lon="10.74142">
<ele>517.148</ele>
<time>2022-05-25T09:56:06Z</time>
</trkpt>
<trkpt lat="48.357216" lon="10.741492">
<ele>517.148</ele>
<time>2022-05-25T09:56:07Z</time>
</trkpt>
<trkpt lat="48.357208" lon="10.741558">
<ele>517.148</ele>
<time>2022-05-25T09:56:08Z</time>
</trkpt>
<trkpt lat="48.357193" lon="10.741629">
<ele>517.148</ele>
<time>2022-05-25T09:56:09Z</time>
</trkpt>
<trkpt lat="48.357182" lon="10.741698">
<ele>517.148</ele>
<time>2022-05-25T09:56:10Z</time>
</trkpt>
<trkpt lat="48.35717" lon="10.741772">
<ele>517.148</ele>
<time>2022-05-25T09:56:11Z</time>
</trkpt>
<trkpt lat="48.357155" lon="10.741845">
<ele>517.148</ele>
<time>2022-05-25T09:56:12Z</time>
</trkpt>
<trkpt lat="48.357143" lon="10.741918">
<ele>517.148</ele>
<time>2022-05-25T09:56:13Z</time>
</trkpt>
<trkpt lat="48.357132" lon="10.741993">
<ele>517.148</ele>
<time>2022-05-25T09:56:14Z</time>
</trkpt>
<trkpt lat="48.357117" lon="10.74207">
<ele>517.148</ele>
<time>2022-05-25T09:56:15Z</time>
</trkpt>
<trkpt lat="48.357101" lon="10.74215">
<ele>517.148</ele>
<time>2022-05-25T09:56:16Z</time>
</trkpt>
<trkpt lat="48.357086" lon="10.742226">
<ele>517.148</ele>
<time>2022-05-25T09:56:17Z</time>
</trkpt>
<trkpt lat="48.357075" lon="10.742301">
<ele>517.148</ele>
<time>2022-05-25T09:56:18Z</time>
</trkpt>
<trkpt lat="48.357059" lon="10.742378">
<ele>516.934</ele>
<time>2022-05-25T09:56:19Z</time>
</trkpt>
<trkpt lat="48.357044" lon="10.742456">
<ele>516.731</ele>
<time>2022-05-25T09:56:20Z</time>
</trkpt>
<trkpt lat="48.357021" lon="10.742534">
<ele>516.567</ele>
<time>2022-05-25T09:56:21Z</time>
</trkpt>
<trkpt lat="48.357006" lon="10.74261">
<ele>516.436</ele>
<time>2022-05-25T09:56:22Z</time>
</trkpt>
<trkpt lat="48.356987" lon="10.742691">
<ele>516.336</ele>
<time>2022-05-25T09:56:23Z</time>
</trkpt>
<trkpt lat="48.356972" lon="10.742772">
<ele>516.263</ele>
<time>2022-05-25T09:56:24Z</time>
</trkpt>
<trkpt lat="48.356949" lon="10.742846">
<ele>516.215</ele>
<time>2022-05-25T09:56:25Z</time>
</trkpt>
<trkpt lat="48.35693" lon="10.742922">
<ele>516.193</ele>
<time>2022-05-25T09:56:26Z</time>
</trkpt>
<trkpt lat="48.356915" lon="10.742997">
<ele>516.193</ele>
<time>2022-05-25T09:56:27Z</time>
</trkpt>
<trkpt lat="48.356892" lon="10.743076">
<ele>516.193</ele>
<time>2022-05-25T09:56:28Z</time>
</trkpt>
<trkpt lat="48.356869" lon="10.743162">
<ele>516</ele>
<time>2022-05-25T09:56:29Z</time>
</trkpt>
<trkpt lat="48.35685" lon="10.743245">
<ele>515.815</ele>
<time>2022-05-25T09:56:30Z</time>
</trkpt>
<trkpt lat="48.356823" lon="10.743325">
<ele>515.665</ele>
<time>2022-05-25T09:56:31Z</time>
</trkpt>
<trkpt lat="48.3568" lon="10.743408">
<ele>515.542</ele>
<time>2022-05-25T09:56:32Z</time>
</trkpt>
<trkpt lat="48.356777" lon="10.743484">
<ele>515.45</ele>
<time>2022-05-25T09:56:33Z</time>
</trkpt>
<trkpt lat="48.35675" lon="10.743555">
<ele>515.385</ele>
<time>2022-05-25T09:56:34Z</time>
</trkpt>
<trkpt lat="48.356728" lon="10.743615">
<ele>515.344</ele>
<time>2022-05-25T09:56:35Z</time>
</trkpt>
<trkpt lat="48.356709" lon="10.743669">
<ele>515.325</ele>
<time>2022-05-25T09:56:36Z</time>
</trkpt>
<trkpt lat="48.356682" lon="10.74372">
<ele>515.325</ele>
<time>2022-05-25T09:56:37Z</time>
</trkpt>
<trkpt lat="48.356655" lon="10.743773">
<ele>515.325</ele>
<time>2022-05-25T09:56:38Z</time>
</trkpt>
<trkpt lat="48.356621" lon="10.743822">
<ele>515.325</ele>
<time>2022-05-25T09:56:39Z</time>
</trkpt>
<trkpt lat="48.356594" lon="10.743864">
<ele>515.522</ele>
<time>2022-05-25T09:56:40Z</time>
</trkpt>
<trkpt lat="48.356567" lon="10.743905">
<ele>515.696</ele>
<time>2022-05-25T09:56:41Z</time>
</trkpt>
<trkpt lat="48.356544" lon="10.743937">
<ele>515.844</ele>
<time>2022-05-25T09:56:42Z</time>
</trkpt>
<trkpt lat="48.356525" lon="10.743963">
<ele>515.967</ele>
<time>2022-05-25T09:56:43Z</time>
</trkpt>
<trkpt lat="48.35651" lon="10.743994">
<ele>516.058</ele>
<time>2022-05-25T09:56:44Z</time>
</trkpt>
<trkpt lat="48.356491" lon="10.744023">
<ele>516.124</ele>
<time>2022-05-25T09:56:45Z</time>
</trkpt>
<trkpt lat="48.356464" lon="10.744053">
<ele>516.169</ele>
<time>2022-05-25T09:56:46Z</time>
</trkpt>
<trkpt lat="48.356445" lon="10.744081">
<ele>516.193</ele>
<time>2022-05-25T09:56:47Z</time>
</trkpt>
<trkpt lat="48.35643" lon="10.744105">
<ele>516.193</ele>
<time>2022-05-25T09:56:48Z</time>
</trkpt>
<trkpt lat="48.356422" lon="10.744132">
<ele>516.432</ele>
<time>2022-05-25T09:56:49Z</time>
</trkpt>
<trkpt lat="48.356422" lon="10.744188">
<ele>516.676</ele>
<time>2022-05-25T09:56:50Z</time>
</trkpt>
<trkpt lat="48.356419" lon="10.744246">
<ele>516.886</ele>
<time>2022-05-25T09:56:51Z</time>
</trkpt>
<trkpt lat="48.356403" lon="10.744291">
<ele>517.036</ele>
<time>2022-05-25T09:56:52Z</time>
</trkpt>
<trkpt lat="48.356384" lon="10.744337">
<ele>517.155</ele>
<time>2022-05-25T09:56:53Z</time>
</trkpt>
<trkpt lat="48.356369" lon="10.744384">
<ele>517.238</ele>
<time>2022-05-25T09:56:54Z</time>
</trkpt>
<trkpt lat="48.356354" lon="10.744442">
<ele>517.297</ele>
<time>2022-05-25T09:56:55Z</time>
</trkpt>
<trkpt lat="48.356335" lon="10.744515">
<ele>517.322</ele>
<time>2022-05-25T09:56:56Z</time>
</trkpt>
<trkpt lat="48.356327" lon="10.744592">
<ele>517.322</ele>
<time>2022-05-25T09:56:57Z</time>
</trkpt>
<trkpt lat="48.356312" lon="10.744671">
<ele>517.322</ele>
<time>2022-05-25T09:56:58Z</time>
</trkpt>
<trkpt lat="48.3563" lon="10.744753">
<ele>517.322</ele>
<time>2022-05-25T09:56:59Z</time>
</trkpt>
<trkpt lat="48.356297" lon="10.744835">
<ele>517.322</ele>
<time>2022-05-25T09:57:00Z</time>
</trkpt>
<trkpt lat="48.356297" lon="10.744916">
<ele>517.322</ele>
<time>2022-05-25T09:57:01Z</time>
</trkpt>
<trkpt lat="48.356316" lon="10.745004">
<ele>517.05</ele>
<time>2022-05-25T09:57:02Z</time>
</trkpt>
<trkpt lat="48.356323" lon="10.745091">
<ele>516.86</ele>
<time>2022-05-25T09:57:03Z</time>
</trkpt>
<trkpt lat="48.356342" lon="10.745189">
<ele>516.717</ele>
<time>2022-05-25T09:57:04Z</time>
</trkpt>
<trkpt lat="48.356358" lon="10.745282">
<ele>516.614</ele>
<time>2022-05-25T09:57:05Z</time>
</trkpt>
<trkpt lat="48.356365" lon="10.745368">
<ele>516.539</ele>
<time>2022-05-25T09:57:06Z</time>
</trkpt>
<trkpt lat="48.35638" lon="10.745454">
<ele>516.496</ele>
<time>2022-05-25T09:57:07Z</time>
</trkpt>
<trkpt lat="48.356392" lon="10.745538">
<ele>516.472</ele>
<time>2022-05-25T09:57:08Z</time>
</trkpt>
<trkpt lat="48.356411" lon="10.745625">
<ele>516.453</ele>
<time>2022-05-25T09:57:09Z</time>
</trkpt>
<trkpt lat="48.356422" lon="10.74571">
<ele>516.453</ele>
<time>2022-05-25T09:57:10Z</time>
</trkpt>
<trkpt lat="48.356434" lon="10.745798">
<ele>516.122</ele>
<time>2022-05-25T09:57:11Z</time>
</trkpt>
<trkpt lat="48.356445" lon="10.745886">
<ele>515.867</ele>
<time>2022-05-25T09:57:12Z</time>
</trkpt>
<trkpt lat="48.356457" lon="10.745972">
<ele>515.665</ele>
<time>2022-05-25T09:57:13Z</time>
</trkpt>
<trkpt lat="48.356468" lon="10.746057">
<ele>515.516</ele>
<time>2022-05-25T09:57:14Z</time>
</trkpt>
<trkpt lat="48.356476" lon="10.746143">
<ele>515.413</ele>
<time>2022-05-25T09:57:15Z</time>
</trkpt>
<trkpt lat="48.356491" lon="10.746232">
<ele>515.357</ele>
<time>2022-05-25T09:57:16Z</time>
</trkpt>
<trkpt lat="48.356499" lon="10.746318">
<ele>515.329</ele>
<time>2022-05-25T09:57:17Z</time>
</trkpt>
<trkpt lat="48.356506" lon="10.746404">
<ele>515.325</ele>
<time>2022-05-25T09:57:18Z</time>
</trkpt>
<trkpt lat="48.356518" lon="10.746489">
<ele>515.325</ele>
<time>2022-05-25T09:57:19Z</time>
</trkpt>
<trkpt lat="48.356529" lon="10.746575">
<ele>515.325</ele>
<time>2022-05-25T09:57:20Z</time>
</trkpt>
<trkpt lat="48.356544" lon="10.74666">
<ele>514.987</ele>
<time>2022-05-25T09:57:21Z</time>
</trkpt>
<trkpt lat="48.356552" lon="10.74675">
<ele>514.725</ele>
<time>2022-05-25T09:57:22Z</time>
</trkpt>
<trkpt lat="48.356556" lon="10.746843">
<ele>514.528</ele>
<time>2022-05-25T09:57:23Z</time>
</trkpt>
<trkpt lat="48.35656" lon="10.746937">
<ele>514.385</ele>
<time>2022-05-25T09:57:24Z</time>
</trkpt>
<trkpt lat="48.356579" lon="10.747034">
<ele>514.284</ele>
<time>2022-05-25T09:57:25Z</time>
</trkpt>
<trkpt lat="48.35659" lon="10.747128">
<ele>514.224</ele>
<time>2022-05-25T09:57:26Z</time>
</trkpt>
<trkpt lat="48.356609" lon="10.747225">
<ele>514.197</ele>
<time>2022-05-25T09:57:27Z</time>
</trkpt>
<trkpt lat="48.356625" lon="10.74732">
<ele>514.197</ele>
<time>2022-05-25T09:57:28Z</time>
</trkpt>
<trkpt lat="48.35664" lon="10.747409">
<ele>514.197</ele>
<time>2022-05-25T09:57:29Z</time>
</trkpt>
<trkpt lat="48.356655" lon="10.747495">
<ele>514.197</ele>
<time>2022-05-25T09:57:30Z</time>
</trkpt>
<trkpt lat="48.356663" lon="10.747585">
<ele>513.914</ele>
<time>2022-05-25T09:57:31Z</time>
</trkpt>
<trkpt lat="48.356674" lon="10.747677">
<ele>513.697</ele>
<time>2022-05-25T09:57:32Z</time>
</trkpt>
<trkpt lat="48.356686" lon="10.747769">
<ele>513.533</ele>
<time>2022-05-25T09:57:33Z</time>
</trkpt>
<trkpt lat="48.356689" lon="10.747862">
<ele>513.41</ele>
<time>2022-05-25T09:57:34Z</time>
</trkpt>
<trkpt lat="48.356701" lon="10.747948">
<ele>513.325</ele>
<time>2022-05-25T09:57:35Z</time>
</trkpt>
<trkpt lat="48.356709" lon="10.74803">
<ele>513.272</ele>
<time>2022-05-25T09:57:36Z</time>
</trkpt>
<trkpt lat="48.356716" lon="10.748111">
<ele>513.008</ele>
<time>2022-05-25T09:57:37Z</time>
</trkpt>
<trkpt lat="48.35672" lon="10.74819">
<ele>512.823</ele>
<time>2022-05-25T09:57:38Z</time>
</trkpt>
<trkpt lat="48.356724" lon="10.748272">
<ele>512.694</ele>
<time>2022-05-25T09:57:39Z</time>
</trkpt>
<trkpt lat="48.356728" lon="10.748352">
<ele>512.557</ele>
<time>2022-05-25T09:57:40Z</time>
</trkpt>
<trkpt lat="48.356731" lon="10.748429">
<ele>512.448</ele>
<time>2022-05-25T09:57:41Z</time>
</trkpt>
<trkpt lat="48.356739" lon="10.748508">
<ele>512.367</ele>
<time>2022-05-25T09:57:42Z</time>
</trkpt>
<trkpt lat="48.356743" lon="10.748585">
<ele>512.313</ele>
<time>2022-05-25T09:57:43Z</time>
</trkpt>
<trkpt lat="48.356743" lon="10.748662">
<ele>512.288</ele>
<time>2022-05-25T09:57:44Z</time>
</trkpt>
<trkpt lat="48.356743" lon="10.748737">
<ele>512.288</ele>
<time>2022-05-25T09:57:45Z</time>
</trkpt>
<trkpt lat="48.356747" lon="10.748816">
<ele>512.067</ele>
<time>2022-05-25T09:57:46Z</time>
</trkpt>
<trkpt lat="48.35675" lon="10.748897">
<ele>511.892</ele>
<time>2022-05-25T09:57:47Z</time>
</trkpt>
<trkpt lat="48.35675" lon="10.748977">
<ele>511.755</ele>
<time>2022-05-25T09:57:48Z</time>
</trkpt>
<trkpt lat="48.35675" lon="10.749058">
<ele>511.661</ele>
<time>2022-05-25T09:57:49Z</time>
</trkpt>
<trkpt lat="48.356754" lon="10.749137">
<ele>511.56</ele>
<time>2022-05-25T09:57:50Z</time>
</trkpt>
<trkpt lat="48.356758" lon="10.749215">
<ele>511.487</ele>
<time>2022-05-25T09:57:51Z</time>
</trkpt>
<trkpt lat="48.356762" lon="10.749293">
<ele>511.441</ele>
<time>2022-05-25T09:57:52Z</time>
</trkpt>
<trkpt lat="48.35677" lon="10.749373">
<ele>511.42</ele>
<time>2022-05-25T09:57:53Z</time>
</trkpt>
<trkpt lat="48.35677" lon="10.749452">
<ele>511.42</ele>
<time>2022-05-25T09:57:54Z</time>
</trkpt>
<trkpt lat="48.356773" lon="10.749532">
<ele>511.42</ele>
<time>2022-05-25T09:57:55Z</time>
</trkpt>
<trkpt lat="48.356777" lon="10.74961">
<ele>511.42</ele>
<time>2022-05-25T09:57:56Z</time>
</trkpt>
<trkpt lat="48.356777" lon="10.749686">
<ele>511.42</ele>
<time>2022-05-25T09:57:57Z</time>
</trkpt>
<trkpt lat="48.356777" lon="10.749762">
<ele>511.42</ele>
<time>2022-05-25T09:57:58Z</time>
</trkpt>
<trkpt lat="48.356777" lon="10.749837">
<ele>511.42</ele>
<time>2022-05-25T09:57:59Z</time>
</trkpt>
<trkpt lat="48.356781" lon="10.74991">
<ele>511.191</ele>
<time>2022-05-25T09:58:00Z</time>
</trkpt>
<trkpt lat="48.356785" lon="10.749984">
<ele>510.999</ele>
<time>2022-05-25T09:58:01Z</time>
</trkpt>
<trkpt lat="48.356789" lon="10.750058">
<ele>510.838</ele>
<time>2022-05-25T09:58:02Z</time>
</trkpt>
<trkpt lat="48.356792" lon="10.750132">
<ele>510.71</ele>
<time>2022-05-25T09:58:03Z</time>
</trkpt>
<trkpt lat="48.3568" lon="10.750203">
<ele>510.608</ele>
<time>2022-05-25T09:58:04Z</time>
</trkpt>
<trkpt lat="48.356808" lon="10.750278">
<ele>510.535</ele>
<time>2022-05-25T09:58:05Z</time>
</trkpt>
<trkpt lat="48.356819" lon="10.750352">
<ele>510.488</ele>
<time>2022-05-25T09:58:06Z</time>
</trkpt>
<trkpt lat="48.356823" lon="10.750422">
<ele>510.466</ele>
<time>2022-05-25T09:58:07Z</time>
</trkpt>
<trkpt lat="48.356834" lon="10.750493">
<ele>510.465</ele>
<time>2022-05-25T09:58:08Z</time>
</trkpt>
<trkpt lat="48.35685" lon="10.750566">
<ele>510.465</ele>
<time>2022-05-25T09:58:09Z</time>
</trkpt>
<trkpt lat="48.356861" lon="10.75064">
<ele>510.465</ele>
<time>2022-05-25T09:58:10Z</time>
</trkpt>
<trkpt lat="48.356873" lon="10.750713">
<ele>510.465</ele>
<time>2022-05-25T09:58:11Z</time>
</trkpt>
<trkpt lat="48.356884" lon="10.750787">
<ele>510.466</ele>
<time>2022-05-25T09:58:12Z</time>
</trkpt>
<trkpt lat="48.356899" lon="10.750862">
<ele>510.466</ele>
<time>2022-05-25T09:58:13Z</time>
</trkpt>
<trkpt lat="48.356915" lon="10.750935">
<ele>510.465</ele>
<time>2022-05-25T09:58:14Z</time>
</trkpt>
<trkpt lat="48.356922" lon="10.751012">
<ele>510.466</ele>
<time>2022-05-25T09:58:15Z</time>
</trkpt>
<trkpt lat="48.356934" lon="10.751088">
<ele>510.466</ele>
<time>2022-05-25T09:58:16Z</time>
</trkpt>
<trkpt lat="48.356949" lon="10.751165">
<ele>510.465</ele>
<time>2022-05-25T09:58:17Z</time>
</trkpt>
<trkpt lat="48.356956" lon="10.751239">
<ele>510.466</ele>
<time>2022-05-25T09:58:18Z</time>
</trkpt>
<trkpt lat="48.356972" lon="10.751314">
<ele>510.465</ele>
<time>2022-05-25T09:58:19Z</time>
</trkpt>
<trkpt lat="48.356983" lon="10.751387">
<ele>510.466</ele>
<time>2022-05-25T09:58:20Z</time>
</trkpt>
<trkpt lat="48.356998" lon="10.75146">
<ele>510.078</ele>
<time>2022-05-25T09:58:21Z</time>
</trkpt>
<trkpt lat="48.357014" lon="10.751534">
<ele>509.779</ele>
<time>2022-05-25T09:58:22Z</time>
</trkpt>
<trkpt lat="48.357029" lon="10.751608">
<ele>509.555</ele>
<time>2022-05-25T09:58:23Z</time>
</trkpt>
<trkpt lat="48.357044" lon="10.751683">
<ele>509.389</ele>
<time>2022-05-25T09:58:24Z</time>
</trkpt>
<trkpt lat="48.357052" lon="10.751757">
<ele>509.274</ele>
<time>2022-05-25T09:58:25Z</time>
</trkpt>
<trkpt lat="48.357067" lon="10.751832">
<ele>509.202</ele>
<time>2022-05-25T09:58:26Z</time>
</trkpt>
<trkpt lat="48.357079" lon="10.751907">
<ele>509.17</ele>
<time>2022-05-25T09:58:27Z</time>
</trkpt>
<trkpt lat="48.357094" lon="10.751982">
<ele>509.165</ele>
<time>2022-05-25T09:58:28Z</time>
</trkpt>
<trkpt lat="48.357109" lon="10.752058">
<ele>509.165</ele>
<time>2022-05-25T09:58:29Z</time>
</trkpt>
<trkpt lat="48.357121" lon="10.752133">
<ele>509.165</ele>
<time>2022-05-25T09:58:30Z</time>
</trkpt>
<trkpt lat="48.35714" lon="10.752207">
<ele>509.165</ele>
<time>2022-05-25T09:58:31Z</time>
</trkpt>
<trkpt lat="48.357147" lon="10.75228">
<ele>509.165</ele>
<time>2022-05-25T09:58:32Z</time>
</trkpt>
<trkpt lat="48.357162" lon="10.752356">
<ele>509.165</ele>
<time>2022-05-25T09:58:33Z</time>
</trkpt>
<trkpt lat="48.357178" lon="10.75243">
<ele>509.164</ele>
<time>2022-05-25T09:58:34Z</time>
</trkpt>
<trkpt lat="48.357197" lon="10.752504">
<ele>509.165</ele>
<time>2022-05-25T09:58:35Z</time>
</trkpt>
<trkpt lat="48.357208" lon="10.752584">
<ele>509.165</ele>
<time>2022-05-25T09:58:36Z</time>
</trkpt>
<trkpt lat="48.35722" lon="10.752664">
<ele>509.165</ele>
<time>2022-05-25T09:58:37Z</time>
</trkpt>
<trkpt lat="48.357239" lon="10.752744">
<ele>509.165</ele>
<time>2022-05-25T09:58:38Z</time>
</trkpt>
<trkpt lat="48.357246" lon="10.752823">
<ele>508.969</ele>
<time>2022-05-25T09:58:39Z</time>
</trkpt>
<trkpt lat="48.357262" lon="10.752905">
<ele>508.784</ele>
<time>2022-05-25T09:58:40Z</time>
</trkpt>
<trkpt lat="48.357273" lon="10.752985">
<ele>508.635</ele>
<time>2022-05-25T09:58:41Z</time>
</trkpt>
<trkpt lat="48.357281" lon="10.753068">
<ele>508.516</ele>
<time>2022-05-25T09:58:42Z</time>
</trkpt>
<trkpt lat="48.357288" lon="10.753152">
<ele>508.425</ele>
<time>2022-05-25T09:58:43Z</time>
</trkpt>
<trkpt lat="48.357296" lon="10.753233">
<ele>508.359</ele>
<time>2022-05-25T09:58:44Z</time>
</trkpt>
<trkpt lat="48.357296" lon="10.753313">
<ele>508.317</ele>
<time>2022-05-25T09:58:45Z</time>
</trkpt>
<trkpt lat="48.3573" lon="10.753393">
<ele>508.297</ele>
<time>2022-05-25T09:58:46Z</time>
</trkpt>
<trkpt lat="48.3573" lon="10.753472">
<ele>508.297</ele>
<time>2022-05-25T09:58:47Z</time>
</trkpt>
<trkpt lat="48.3573" lon="10.75355">
<ele>508.297</ele>
<time>2022-05-25T09:58:48Z</time>
</trkpt>
<trkpt lat="48.357296" lon="10.753629">
<ele>508.297</ele>
<time>2022-05-25T09:58:49Z</time>
</trkpt>
<trkpt lat="48.357285" lon="10.753709">
<ele>508.297</ele>
<time>2022-05-25T09:58:50Z</time>
</trkpt>
<trkpt lat="48.357281" lon="10.753788">
<ele>508.297</ele>
<time>2022-05-25T09:58:51Z</time>
</trkpt>
<trkpt lat="48.357273" lon="10.753866">
<ele>508.022</ele>
<time>2022-05-25T09:58:52Z</time>
</trkpt>
<trkpt lat="48.357262" lon="10.753942">
<ele>507.808</ele>
<time>2022-05-25T09:58:53Z</time>
</trkpt>
<trkpt lat="48.357246" lon="10.754019">
<ele>507.646</ele>
<time>2022-05-25T09:58:54Z</time>
</trkpt>
<trkpt lat="48.357235" lon="10.754095">
<ele>507.526</ele>
<time>2022-05-25T09:58:55Z</time>
</trkpt>
<trkpt lat="48.357216" lon="10.75417">
<ele>507.444</ele>
<time>2022-05-25T09:58:56Z</time>
</trkpt>
<trkpt lat="48.357201" lon="10.754241">
<ele>507.393</ele>
<time>2022-05-25T09:58:57Z</time>
</trkpt>
<trkpt lat="48.357182" lon="10.754316">
<ele>507.365</ele>
<time>2022-05-25T09:58:58Z</time>
</trkpt>
<trkpt lat="48.35717" lon="10.754394">
<ele>507.343</ele>
<time>2022-05-25T09:58:59Z</time>
</trkpt>
<trkpt lat="48.357151" lon="10.754465">
<ele>507.343</ele>
<time>2022-05-25T09:59:00Z</time>
</trkpt>
<trkpt lat="48.35714" lon="10.75453">
<ele>507.343</ele>
<time>2022-05-25T09:59:01Z</time>
</trkpt>
<trkpt lat="48.357128" lon="10.7546">
<ele>507.343</ele>
<time>2022-05-25T09:59:02Z</time>
</trkpt>
<trkpt lat="48.357113" lon="10.754677">
<ele>507.343</ele>
<time>2022-05-25T09:59:03Z</time>
</trkpt>
<trkpt lat="48.357101" lon="10.754753">
<ele>507.343</ele>
<time>2022-05-25T09:59:04Z</time>
</trkpt>
<trkpt lat="48.35709" lon="10.754828">
<ele>507.09</ele>
<time>2022-05-25T09:59:05Z</time>
</trkpt>
<trkpt lat="48.357079" lon="10.754905">
<ele>506.892</ele>
<time>2022-05-25T09:59:06Z</time>
</trkpt>
<trkpt lat="48.357067" lon="10.75498">
<ele>506.737</ele>
<time>2022-05-25T09:59:07Z</time>
</trkpt>
<trkpt lat="48.357052" lon="10.755058">
<ele>506.621</ele>
<time>2022-05-25T09:59:08Z</time>
</trkpt>
<trkpt lat="48.35704" lon="10.755136">
<ele>506.54</ele>
<time>2022-05-25T09:59:09Z</time>
</trkpt>
<trkpt lat="48.357025" lon="10.755212">
<ele>506.463</ele>
<time>2022-05-25T09:59:10Z</time>
</trkpt>
<trkpt lat="48.357014" lon="10.755284">
<ele>506.414</ele>
<time>2022-05-25T09:59:11Z</time>
</trkpt>
<trkpt lat="48.357002" lon="10.755356">
<ele>506.389</ele>
<time>2022-05-25T09:59:12Z</time>
</trkpt>
<trkpt lat="48.356983" lon="10.755428">
<ele>506.389</ele>
<time>2022-05-25T09:59:13Z</time>
</trkpt>
<trkpt lat="48.356972" lon="10.755502">
<ele>506.389</ele>
<time>2022-05-25T09:59:14Z</time>
</trkpt>
<trkpt lat="48.356956" lon="10.755573">
<ele>506.162</ele>
<time>2022-05-25T09:59:15Z</time>
</trkpt>
<trkpt lat="48.356945" lon="10.755645">
<ele>505.986</ele>
<time>2022-05-25T09:59:16Z</time>
</trkpt>
<trkpt lat="48.356934" lon="10.755718">
<ele>505.847</ele>
<time>2022-05-25T09:59:17Z</time>
</trkpt>
<trkpt lat="48.356915" lon="10.755792">
<ele>505.741</ele>
<time>2022-05-25T09:59:18Z</time>
</trkpt>
<trkpt lat="48.356907" lon="10.755857">
<ele>505.666</ele>
<time>2022-05-25T09:59:19Z</time>
</trkpt>
<trkpt lat="48.356903" lon="10.755921">
<ele>505.592</ele>
<time>2022-05-25T09:59:20Z</time>
</trkpt>
<trkpt lat="48.356895" lon="10.755995">
<ele>505.545</ele>
<time>2022-05-25T09:59:21Z</time>
</trkpt>
<trkpt lat="48.356888" lon="10.756074">
<ele>505.521</ele>
<time>2022-05-25T09:59:22Z</time>
</trkpt>
<trkpt lat="48.356873" lon="10.756152">
<ele>505.522</ele>
<time>2022-05-25T09:59:23Z</time>
</trkpt>
<trkpt lat="48.356857" lon="10.756224">
<ele>505.521</ele>
<time>2022-05-25T09:59:24Z</time>
</trkpt>
<trkpt lat="48.356842" lon="10.756292">
<ele>505.522</ele>
<time>2022-05-25T09:59:25Z</time>
</trkpt>
<trkpt lat="48.356827" lon="10.75636">
<ele>505.522</ele>
<time>2022-05-25T09:59:26Z</time>
</trkpt>
<trkpt lat="48.356819" lon="10.756429">
<ele>505.522</ele>
<time>2022-05-25T09:59:27Z</time>
</trkpt>
<trkpt lat="48.356804" lon="10.756495">
<ele>505.522</ele>
<time>2022-05-25T09:59:28Z</time>
</trkpt>
<trkpt lat="48.356792" lon="10.756569">
<ele>505.522</ele>
<time>2022-05-25T09:59:29Z</time>
</trkpt>
<trkpt lat="48.356785" lon="10.75664">
<ele>505.522</ele>
<time>2022-05-25T09:59:30Z</time>
</trkpt>
<trkpt lat="48.356773" lon="10.756721">
<ele>505.521</ele>
<time>2022-05-25T09:59:31Z</time>
</trkpt>
<trkpt lat="48.356762" lon="10.756804">
<ele>505.522</ele>
<time>2022-05-25T09:59:32Z</time>
</trkpt>
<trkpt lat="48.35675" lon="10.756882">
<ele>505.521</ele>
<time>2022-05-25T09:59:33Z</time>
</trkpt>
<trkpt lat="48.356743" lon="10.75696">
<ele>505.522</ele>
<time>2022-05-25T09:59:34Z</time>
</trkpt>
<trkpt lat="48.356731" lon="10.757036">
<ele>505.522</ele>
<time>2022-05-25T09:59:35Z</time>
</trkpt>
<trkpt lat="48.356728" lon="10.757112">
<ele>505.521</ele>
<time>2022-05-25T09:59:36Z</time>
</trkpt>
<trkpt lat="48.35672" lon="10.75719">
<ele>505.522</ele>
<time>2022-05-25T09:59:37Z</time>
</trkpt>
<trkpt lat="48.356693" lon="10.757267">
<ele>505.522</ele>
<time>2022-05-25T09:59:38Z</time>
</trkpt>
<trkpt lat="48.356678" lon="10.757343">
<ele>505.522</ele>
<time>2022-05-25T09:59:39Z</time>
</trkpt>
<trkpt lat="48.356655" lon="10.757419">
<ele>505.289</ele>
<time>2022-05-25T09:59:40Z</time>
</trkpt>
<trkpt lat="48.356644" lon="10.757492">
<ele>505.093</ele>
<time>2022-05-25T09:59:41Z</time>
</trkpt>
<trkpt lat="48.356636" lon="10.757566">
<ele>504.932</ele>
<time>2022-05-25T09:59:42Z</time>
</trkpt>
<trkpt lat="48.356628" lon="10.757642">
<ele>504.804</ele>
<time>2022-05-25T09:59:43Z</time>
</trkpt>
<trkpt lat="48.356621" lon="10.757717">
<ele>504.706</ele>
<time>2022-05-25T09:59:44Z</time>
</trkpt>
<trkpt lat="48.356613" lon="10.757791">
<ele>504.637</ele>
<time>2022-05-25T09:59:45Z</time>
</trkpt>
<trkpt lat="48.356606" lon="10.757865">
<ele>504.592</ele>
<time>2022-05-25T09:59:46Z</time>
</trkpt>
<trkpt lat="48.35659" lon="10.757938">
<ele>504.568</ele>
<time>2022-05-25T09:59:47Z</time>
</trkpt>
<trkpt lat="48.356586" lon="10.758015">
<ele>504.568</ele>
<time>2022-05-25T09:59:48Z</time>
</trkpt>
<trkpt lat="48.356583" lon="10.75809">
<ele>504.568</ele>
<time>2022-05-25T09:59:49Z</time>
</trkpt>
<trkpt lat="48.356579" lon="10.758165">
<ele>504.568</ele>
<time>2022-05-25T09:59:50Z</time>
</trkpt>
<trkpt lat="48.356575" lon="10.758243">
<ele>504.568</ele>
<time>2022-05-25T09:59:51Z</time>
</trkpt>
<trkpt lat="48.356571" lon="10.758322">
<ele>504.568</ele>
<time>2022-05-25T09:59:52Z</time>
</trkpt>
<trkpt lat="48.356564" lon="10.758402">
<ele>504.568</ele>
<time>2022-05-25T09:59:53Z</time>
</trkpt>
<trkpt lat="48.356556" lon="10.758477">
<ele>504.568</ele>
<time>2022-05-25T09:59:54Z</time>
</trkpt>
<trkpt lat="48.356556" lon="10.758554">
<ele>504.568</ele>
<time>2022-05-25T09:59:55Z</time>
</trkpt>
<trkpt lat="48.356548" lon="10.758626">
<ele>504.568</ele>
<time>2022-05-25T09:59:56Z</time>
</trkpt>
<trkpt lat="48.356537" lon="10.758696">
<ele>504.568</ele>
<time>2022-05-25T09:59:57Z</time>
</trkpt>
<trkpt lat="48.356529" lon="10.758754">
<ele>504.568</ele>
<time>2022-05-25T09:59:58Z</time>
</trkpt>
<trkpt lat="48.356529" lon="10.758804">
<ele>504.568</ele>
<time>2022-05-25T09:59:59Z</time>
</trkpt>
<trkpt lat="48.356544" lon="10.758862">
<ele>504.568</ele>
<time>2022-05-25T10:00:00Z</time>
</trkpt>
<trkpt lat="48.356556" lon="10.758915">
<ele>504.306</ele>
<time>2022-05-25T10:00:01Z</time>
</trkpt>
<trkpt lat="48.356575" lon="10.758959">
<ele>504.093</ele>
<time>2022-05-25T10:00:02Z</time>
</trkpt>
<trkpt lat="48.35659" lon="10.758988">
<ele>503.95</ele>
<time>2022-05-25T10:00:03Z</time>
</trkpt>
<trkpt lat="48.356625" lon="10.759011">
<ele>503.591</ele>
<time>2022-05-25T10:00:04Z</time>
</trkpt>
<trkpt lat="48.356655" lon="10.759044">
<ele>503.314</ele>
<time>2022-05-25T10:00:05Z</time>
</trkpt>
<trkpt lat="48.356667" lon="10.759087">
<ele>503.103</ele>
<time>2022-05-25T10:00:06Z</time>
</trkpt>
<trkpt lat="48.356674" lon="10.759131">
<ele>502.968</ele>
<time>2022-05-25T10:00:07Z</time>
</trkpt>
<trkpt lat="48.356674" lon="10.759179">
<ele>502.886</ele>
<time>2022-05-25T10:00:08Z</time>
</trkpt>
<trkpt lat="48.356678" lon="10.759228">
<ele>502.825</ele>
<time>2022-05-25T10:00:09Z</time>
</trkpt>
<trkpt lat="48.356682" lon="10.75928">
<ele>502.77</ele>
<time>2022-05-25T10:00:10Z</time>
</trkpt>
<trkpt lat="48.356678" lon="10.759334">
<ele>502.747</ele>
<time>2022-05-25T10:00:11Z</time>
</trkpt>
<trkpt lat="48.356678" lon="10.759391">
<ele>502.747</ele>
<time>2022-05-25T10:00:12Z</time>
</trkpt>
<trkpt lat="48.356689" lon="10.759448">
<ele>502.747</ele>
<time>2022-05-25T10:00:13Z</time>
</trkpt>
<trkpt lat="48.356693" lon="10.759512">
<ele>502.747</ele>
<time>2022-05-25T10:00:14Z</time>
</trkpt>
<trkpt lat="48.356689" lon="10.75958">
<ele>502.747</ele>
<time>2022-05-25T10:00:15Z</time>
</trkpt>
<trkpt lat="48.356686" lon="10.759648">
<ele>502.747</ele>
<time>2022-05-25T10:00:16Z</time>
</trkpt>
<trkpt lat="48.356682" lon="10.759718">
<ele>502.747</ele>
<time>2022-05-25T10:00:17Z</time>
</trkpt>
<trkpt lat="48.356682" lon="10.75979">
<ele>502.747</ele>
<time>2022-05-25T10:00:18Z</time>
</trkpt>
<trkpt lat="48.356678" lon="10.759864">
<ele>502.747</ele>
<time>2022-05-25T10:00:19Z</time>
</trkpt>
<trkpt lat="48.356678" lon="10.759935">
<ele>502.747</ele>
<time>2022-05-25T10:00:20Z</time>
</trkpt>
<trkpt lat="48.356674" lon="10.760009">
<ele>502.747</ele>
<time>2022-05-25T10:00:21Z</time>
</trkpt>
<trkpt lat="48.356674" lon="10.760083">
<ele>502.747</ele>
<time>2022-05-25T10:00:22Z</time>
</trkpt>
<trkpt lat="48.35667" lon="10.760157">
<ele>502.747</ele>
<time>2022-05-25T10:00:23Z</time>
</trkpt>
<trkpt lat="48.35667" lon="10.760228">
<ele>502.747</ele>
<time>2022-05-25T10:00:24Z</time>
</trkpt>
<trkpt lat="48.35667" lon="10.7603">
<ele>502.747</ele>
<time>2022-05-25T10:00:25Z</time>
</trkpt>
<trkpt lat="48.356667" lon="10.760371">
<ele>502.747</ele>
<time>2022-05-25T10:00:26Z</time>
</trkpt>
<trkpt lat="48.356663" lon="10.760443">
<ele>502.747</ele>
<time>2022-05-25T10:00:27Z</time>
</trkpt>
<trkpt lat="48.356659" lon="10.760515">
<ele>502.747</ele>
<time>2022-05-25T10:00:28Z</time>
</trkpt>
<trkpt lat="48.356655" lon="10.760589">
<ele>502.536</ele>
<time>2022-05-25T10:00:29Z</time>
</trkpt>
<trkpt lat="48.356655" lon="10.760662">
<ele>502.336</ele>
<time>2022-05-25T10:00:30Z</time>
</trkpt>
<trkpt lat="48.356655" lon="10.760736">
<ele>502.17</ele>
<time>2022-05-25T10:00:31Z</time>
</trkpt>
<trkpt lat="48.356647" lon="10.760805">
<ele>502.037</ele>
<time>2022-05-25T10:00:32Z</time>
</trkpt>
<trkpt lat="48.35664" lon="10.760877">
<ele>501.936</ele>
<time>2022-05-25T10:00:33Z</time>
</trkpt>
<trkpt lat="48.356625" lon="10.760947">
<ele>501.863</ele>
<time>2022-05-25T10:00:34Z</time>
</trkpt>
<trkpt lat="48.356613" lon="10.761019">
<ele>501.816</ele>
<time>2022-05-25T10:00:35Z</time>
</trkpt>
<trkpt lat="48.356621" lon="10.761086">
<ele>501.794</ele>
<time>2022-05-25T10:00:36Z</time>
</trkpt>
<trkpt lat="48.356609" lon="10.761157">
<ele>501.794</ele>
<time>2022-05-25T10:00:37Z</time>
</trkpt>
<trkpt lat="48.356602" lon="10.761227">
<ele>501.794</ele>
<time>2022-05-25T10:00:38Z</time>
</trkpt>
<trkpt lat="48.356602" lon="10.761297">
<ele>501.794</ele>
<time>2022-05-25T10:00:39Z</time>
</trkpt>
<trkpt lat="48.356598" lon="10.761372">
<ele>501.794</ele>
<time>2022-05-25T10:00:40Z</time>
</trkpt>
<trkpt lat="48.356594" lon="10.761445">
<ele>501.794</ele>
<time>2022-05-25T10:00:41Z</time>
</trkpt>
<trkpt lat="48.35659" lon="10.761521">
<ele>501.794</ele>
<time>2022-05-25T10:00:42Z</time>
</trkpt>
<trkpt lat="48.35659" lon="10.761599">
<ele>501.794</ele>
<time>2022-05-25T10:00:43Z</time>
</trkpt>
<trkpt lat="48.35659" lon="10.761675">
<ele>501.794</ele>
<time>2022-05-25T10:00:44Z</time>
</trkpt>
<trkpt lat="48.35659" lon="10.761752">
<ele>501.794</ele>
<time>2022-05-25T10:00:45Z</time>
</trkpt>
<trkpt lat="48.356586" lon="10.761826">
<ele>501.794</ele>
<time>2022-05-25T10:00:46Z</time>
</trkpt>
<trkpt lat="48.356579" lon="10.761898">
<ele>501.794</ele>
<time>2022-05-25T10:00:47Z</time>
</trkpt>
<trkpt lat="48.356571" lon="10.76197">
<ele>501.794</ele>
<time>2022-05-25T10:00:48Z</time>
</trkpt>
<trkpt lat="48.356567" lon="10.762043">
<ele>501.794</ele>
<time>2022-05-25T10:00:49Z</time>
</trkpt>
<trkpt lat="48.356564" lon="10.762118">
<ele>501.793</ele>
<time>2022-05-25T10:00:50Z</time>
</trkpt>
<trkpt lat="48.356556" lon="10.762194">
<ele>501.794</ele>
<time>2022-05-25T10:00:51Z</time>
</trkpt>
<trkpt lat="48.356556" lon="10.76227">
<ele>501.794</ele>
<time>2022-05-25T10:00:52Z</time>
</trkpt>
<trkpt lat="48.356552" lon="10.762347">
<ele>501.524</ele>
<time>2022-05-25T10:00:53Z</time>
</trkpt>
<trkpt lat="48.356544" lon="10.762422">
<ele>501.314</ele>
<time>2022-05-25T10:00:54Z</time>
</trkpt>
<trkpt lat="48.356537" lon="10.762493">
<ele>501.159</ele>
<time>2022-05-25T10:00:55Z</time>
</trkpt>
<trkpt lat="48.356541" lon="10.762559">
<ele>501.043</ele>
<time>2022-05-25T10:00:56Z</time>
</trkpt>
<trkpt lat="48.356537" lon="10.762618">
<ele>500.964</ele>
<time>2022-05-25T10:00:57Z</time>
</trkpt>
<trkpt lat="48.356533" lon="10.762678">
<ele>500.91</ele>
<time>2022-05-25T10:00:58Z</time>
</trkpt>
<trkpt lat="48.356525" lon="10.762734">
<ele>500.868</ele>
<time>2022-05-25T10:00:59Z</time>
</trkpt>
<trkpt lat="48.356525" lon="10.76279">
<ele>500.84</ele>
<time>2022-05-25T10:01:00Z</time>
</trkpt>
<trkpt lat="48.356514" lon="10.762845">
<ele>500.84</ele>
<time>2022-05-25T10:01:01Z</time>
</trkpt>
<trkpt lat="48.35651" lon="10.762898">
<ele>500.84</ele>
<time>2022-05-25T10:01:02Z</time>
</trkpt>
<trkpt lat="48.356503" lon="10.762946">
<ele>500.84</ele>
<time>2022-05-25T10:01:03Z</time>
</trkpt>
<trkpt lat="48.356495" lon="10.762995">
<ele>500.84</ele>
<time>2022-05-25T10:01:04Z</time>
</trkpt>
<trkpt lat="48.356491" lon="10.763039">
<ele>500.84</ele>
<time>2022-05-25T10:01:05Z</time>
</trkpt>
<trkpt lat="48.356483" lon="10.763083">
<ele>500.84</ele>
<time>2022-05-25T10:01:06Z</time>
</trkpt>
<trkpt lat="48.356476" lon="10.763126">
<ele>500.84</ele>
<time>2022-05-25T10:01:07Z</time>
</trkpt>
<trkpt lat="48.356472" lon="10.763166">
<ele>500.84</ele>
<time>2022-05-25T10:01:08Z</time>
</trkpt>
<trkpt lat="48.356472" lon="10.763195">
<ele>500.84</ele>
<time>2022-05-25T10:01:09Z</time>
</trkpt>
<trkpt lat="48.356472" lon="10.763205">
<ele>500.84</ele>
<time>2022-05-25T10:01:10Z</time>
</trkpt>
<trkpt lat="48.356468" lon="10.763204">
<ele>500.84</ele>
<time>2022-05-25T10:01:11Z</time>
</trkpt>
<trkpt lat="48.356468" lon="10.763202">
<ele>500.84</ele>
<time>2022-05-25T10:01:12Z</time>
</trkpt>
<trkpt lat="48.356472" lon="10.763175">
<ele>500.84</ele>
<time>2022-05-25T10:01:43Z</time>
</trkpt>
<trkpt lat="48.356476" lon="10.763155">
<ele>500.859</ele>
<time>2022-05-25T10:01:44Z</time>
</trkpt>
<trkpt lat="48.35648" lon="10.763137">
<ele>500.877</ele>
<time>2022-05-25T10:01:45Z</time>
</trkpt>
<trkpt lat="48.356487" lon="10.763116">
<ele>500.893</ele>
<time>2022-05-25T10:01:46Z</time>
</trkpt>
<trkpt lat="48.356491" lon="10.763093">
<ele>500.908</ele>
<time>2022-05-25T10:01:47Z</time>
</trkpt>
<trkpt lat="48.356491" lon="10.763074">
<ele>500.921</ele>
<time>2022-05-25T10:01:48Z</time>
</trkpt>
<trkpt lat="48.356499" lon="10.763057">
<ele>500.925</ele>
<time>2022-05-25T10:01:49Z</time>
</trkpt>
<trkpt lat="48.356499" lon="10.763039">
<ele>500.927</ele>
<time>2022-05-25T10:01:50Z</time>
</trkpt>
<trkpt lat="48.356503" lon="10.76302">
<ele>500.927</ele>
<time>2022-05-25T10:01:51Z</time>
</trkpt>
<trkpt lat="48.356506" lon="10.76301">
<ele>500.927</ele>
<time>2022-05-25T10:01:52Z</time>
</trkpt>
<trkpt lat="48.356506" lon="10.763011">
<ele>500.927</ele>
<time>2022-05-25T10:01:53Z</time>
</trkpt>
<trkpt lat="48.356506" lon="10.76301">
<ele>500.927</ele>
<time>2022-05-25T10:01:55Z</time>
</trkpt>
<trkpt lat="48.356503" lon="10.76299">
<ele>500.927</ele>
<time>2022-05-25T10:03:25Z</time>
</trkpt>
<trkpt lat="48.356506" lon="10.762985">
<ele>500.927</ele>
<time>2022-05-25T10:03:26Z</time>
</trkpt>
<trkpt lat="48.35651" lon="10.762981">
<ele>500.927</ele>
<time>2022-05-25T10:03:27Z</time>
</trkpt>
<trkpt lat="48.35651" lon="10.762983">
<ele>500.927</ele>
<time>2022-05-25T10:03:28Z</time>
</trkpt>
<trkpt lat="48.356506" lon="10.762983">
<ele>500.927</ele>
<time>2022-05-25T10:03:30Z</time>
</trkpt>
<trkpt lat="48.356514" lon="10.762952">
<ele>500.927</ele>
<time>2022-05-25T10:03:44Z</time>
</trkpt>
<trkpt lat="48.356514" lon="10.762942">
<ele>500.927</ele>
<time>2022-05-25T10:03:45Z</time>
</trkpt>
<trkpt lat="48.356514" lon="10.76293">
<ele>500.927</ele>
<time>2022-05-25T10:03:46Z</time>
</trkpt>
<trkpt lat="48.356514" lon="10.762908">
<ele>500.927</ele>
<time>2022-05-25T10:03:47Z</time>
</trkpt>
<trkpt lat="48.356514" lon="10.762881">
<ele>500.927</ele>
<time>2022-05-25T10:03:48Z</time>
</trkpt>
<trkpt lat="48.356522" lon="10.762852">
<ele>500.927</ele>
<time>2022-05-25T10:03:49Z</time>
</trkpt>
<trkpt lat="48.356525" lon="10.762812">
<ele>500.927</ele>
<time>2022-05-25T10:03:50Z</time>
</trkpt>
<trkpt lat="48.356525" lon="10.762768">
<ele>500.927</ele>
<time>2022-05-25T10:03:51Z</time>
</trkpt>
<trkpt lat="48.356533" lon="10.762722">
<ele>500.927</ele>
<time>2022-05-25T10:03:52Z</time>
</trkpt>
<trkpt lat="48.356541" lon="10.762673">
<ele>500.927</ele>
<time>2022-05-25T10:03:53Z</time>
</trkpt>
<trkpt lat="48.356544" lon="10.762618">
<ele>500.927</ele>
<time>2022-05-25T10:03:54Z</time>
</trkpt>
<trkpt lat="48.356552" lon="10.76256">
<ele>500.927</ele>
<time>2022-05-25T10:03:55Z</time>
</trkpt>
<trkpt lat="48.356556" lon="10.762502">
<ele>500.927</ele>
<time>2022-05-25T10:03:56Z</time>
</trkpt>
<trkpt lat="48.356556" lon="10.762437">
<ele>500.927</ele>
<time>2022-05-25T10:03:57Z</time>
</trkpt>
<trkpt lat="48.35656" lon="10.762372">
<ele>500.927</ele>
<time>2022-05-25T10:03:58Z</time>
</trkpt>
<trkpt lat="48.356571" lon="10.762293">
<ele>500.927</ele>
<time>2022-05-25T10:03:59Z</time>
</trkpt>
<trkpt lat="48.356575" lon="10.762218">
<ele>500.927</ele>
<time>2022-05-25T10:04:00Z</time>
</trkpt>
<trkpt lat="48.356579" lon="10.762152">
<ele>500.927</ele>
<time>2022-05-25T10:04:01Z</time>
</trkpt>
<trkpt lat="48.356575" lon="10.762076">
<ele>500.927</ele>
<time>2022-05-25T10:04:02Z</time>
</trkpt>
<trkpt lat="48.356579" lon="10.762007">
<ele>500.927</ele>
<time>2022-05-25T10:04:03Z</time>
</trkpt>
<trkpt lat="48.356579" lon="10.76194">
<ele>500.927</ele>
<time>2022-05-25T10:04:04Z</time>
</trkpt>
<trkpt lat="48.356579" lon="10.761873">
<ele>500.927</ele>
<time>2022-05-25T10:04:05Z</time>
</trkpt>
<trkpt lat="48.356579" lon="10.761808">
<ele>500.927</ele>
<time>2022-05-25T10:04:06Z</time>
</trkpt>
<trkpt lat="48.356583" lon="10.761752">
<ele>500.927</ele>
<time>2022-05-25T10:04:07Z</time>
</trkpt>
<trkpt lat="48.35659" lon="10.761685">
<ele>500.927</ele>
<time>2022-05-25T10:04:08Z</time>
</trkpt>
<trkpt lat="48.356594" lon="10.761621">
<ele>500.927</ele>
<time>2022-05-25T10:04:09Z</time>
</trkpt>
<trkpt lat="48.356598" lon="10.761561">
<ele>500.927</ele>
<time>2022-05-25T10:04:10Z</time>
</trkpt>
<trkpt lat="48.356602" lon="10.761505">
<ele>500.927</ele>
<time>2022-05-25T10:04:11Z</time>
</trkpt>
<trkpt lat="48.356606" lon="10.761448">
<ele>500.927</ele>
<time>2022-05-25T10:04:12Z</time>
</trkpt>
<trkpt lat="48.356609" lon="10.761388">
<ele>500.927</ele>
<time>2022-05-25T10:04:13Z</time>
</trkpt>
<trkpt lat="48.356613" lon="10.761331">
<ele>500.927</ele>
<time>2022-05-25T10:04:14Z</time>
</trkpt>
<trkpt lat="48.356613" lon="10.761273">
<ele>500.927</ele>
<time>2022-05-25T10:04:15Z</time>
</trkpt>
<trkpt lat="48.356613" lon="10.76122">
<ele>500.927</ele>
<time>2022-05-25T10:04:16Z</time>
</trkpt>
<trkpt lat="48.356613" lon="10.761169">
<ele>500.927</ele>
<time>2022-05-25T10:04:17Z</time>
</trkpt>
<trkpt lat="48.356609" lon="10.76112">
<ele>500.927</ele>
<time>2022-05-25T10:04:18Z</time>
</trkpt>
<trkpt lat="48.356609" lon="10.761069">
<ele>500.927</ele>
<time>2022-05-25T10:04:19Z</time>
</trkpt>
<trkpt lat="48.356606" lon="10.761024">
<ele>500.927</ele>
<time>2022-05-25T10:04:20Z</time>
</trkpt>
<trkpt lat="48.356598" lon="10.760977">
<ele>500.927</ele>
<time>2022-05-25T10:04:21Z</time>
</trkpt>
<trkpt lat="48.356598" lon="10.760931">
<ele>500.927</ele>
<time>2022-05-25T10:04:22Z</time>
</trkpt>
<trkpt lat="48.356602" lon="10.760882">
<ele>500.927</ele>
<time>2022-05-25T10:04:23Z</time>
</trkpt>
<trkpt lat="48.356598" lon="10.76083">
<ele>500.927</ele>
<time>2022-05-25T10:04:24Z</time>
</trkpt>
<trkpt lat="48.356602" lon="10.760776">
<ele>500.927</ele>
<time>2022-05-25T10:04:25Z</time>
</trkpt>
<trkpt lat="48.356606" lon="10.760719">
<ele>500.927</ele>
<time>2022-05-25T10:04:26Z</time>
</trkpt>
<trkpt lat="48.356609" lon="10.760663">
<ele>500.927</ele>
<time>2022-05-25T10:04:27Z</time>
</trkpt>
<trkpt lat="48.356609" lon="10.760607">
<ele>501.19</ele>
<time>2022-05-25T10:04:28Z</time>
</trkpt>
<trkpt lat="48.356617" lon="10.76055">
<ele>501.389</ele>
<time>2022-05-25T10:04:29Z</time>
</trkpt>
<trkpt lat="48.356617" lon="10.760489">
<ele>501.54</ele>
<time>2022-05-25T10:04:30Z</time>
</trkpt>
<trkpt lat="48.356621" lon="10.760427">
<ele>501.653</ele>
<time>2022-05-25T10:04:31Z</time>
</trkpt>
<trkpt lat="48.356617" lon="10.760364">
<ele>501.727</ele>
<time>2022-05-25T10:04:32Z</time>
</trkpt>
<trkpt lat="48.356613" lon="10.7603">
<ele>501.806</ele>
<time>2022-05-25T10:04:33Z</time>
</trkpt>
<trkpt lat="48.356617" lon="10.760235">
<ele>501.857</ele>
<time>2022-05-25T10:04:34Z</time>
</trkpt>
<trkpt lat="48.356613" lon="10.760175">
<ele>501.88</ele>
<time>2022-05-25T10:04:35Z</time>
</trkpt>
<trkpt lat="48.356609" lon="10.760117">
<ele>501.88</ele>
<time>2022-05-25T10:04:36Z</time>
</trkpt>
<trkpt lat="48.356609" lon="10.760058">
<ele>501.88</ele>
<time>2022-05-25T10:04:37Z</time>
</trkpt>
<trkpt lat="48.356606" lon="10.760005">
<ele>501.88</ele>
<time>2022-05-25T10:04:38Z</time>
</trkpt>
<trkpt lat="48.356602" lon="10.759949">
<ele>501.88</ele>
<time>2022-05-25T10:04:39Z</time>
</trkpt>
<trkpt lat="48.35659" lon="10.759895">
<ele>501.88</ele>
<time>2022-05-25T10:04:40Z</time>
</trkpt>
<trkpt lat="48.356583" lon="10.759855">
<ele>501.88</ele>
<time>2022-05-25T10:04:41Z</time>
</trkpt>
<trkpt lat="48.356556" lon="10.759818">
<ele>501.88</ele>
<time>2022-05-25T10:04:42Z</time>
</trkpt>
<trkpt lat="48.356525" lon="10.759793">
<ele>501.88</ele>
<time>2022-05-25T10:04:43Z</time>
</trkpt>
<trkpt lat="48.356487" lon="10.759783">
<ele>501.88</ele>
<time>2022-05-25T10:04:44Z</time>
</trkpt>
<trkpt lat="48.356441" lon="10.759783">
<ele>501.88</ele>
<time>2022-05-25T10:04:45Z</time>
</trkpt>
<trkpt lat="48.3564" lon="10.75979">
<ele>501.88</ele>
<time>2022-05-25T10:04:46Z</time>
</trkpt>
<trkpt lat="48.356361" lon="10.759802">
<ele>501.88</ele>
<time>2022-05-25T10:04:47Z</time>
</trkpt>
<trkpt lat="48.356319" lon="10.759807">
<ele>501.88</ele>
<time>2022-05-25T10:04:48Z</time>
</trkpt>
<trkpt lat="48.356274" lon="10.759811">
<ele>501.88</ele>
<time>2022-05-25T10:04:49Z</time>
</trkpt>
<trkpt lat="48.356228" lon="10.759818">
<ele>501.88</ele>
<time>2022-05-25T10:04:50Z</time>
</trkpt>
<trkpt lat="48.356182" lon="10.759823">
<ele>501.88</ele>
<time>2022-05-25T10:04:51Z</time>
</trkpt>
<trkpt lat="48.35614" lon="10.759831">
<ele>501.88</ele>
<time>2022-05-25T10:04:52Z</time>
</trkpt>
<trkpt lat="48.356098" lon="10.759835">
<ele>501.88</ele>
<time>2022-05-25T10:04:53Z</time>
</trkpt>
<trkpt lat="48.356056" lon="10.759837">
<ele>501.88</ele>
<time>2022-05-25T10:04:54Z</time>
</trkpt>
<trkpt lat="48.35601" lon="10.759839">
<ele>502.182</ele>
<time>2022-05-25T10:04:55Z</time>
</trkpt>
<trkpt lat="48.355968" lon="10.759837">
<ele>502.41</ele>
<time>2022-05-25T10:04:56Z</time>
</trkpt>
<trkpt lat="48.355923" lon="10.759833">
<ele>502.589</ele>
<time>2022-05-25T10:04:57Z</time>
</trkpt>
<trkpt lat="48.355881" lon="10.75983">
<ele>502.716</ele>
<time>2022-05-25T10:04:58Z</time>
</trkpt>
<trkpt lat="48.355839" lon="10.759825">
<ele>502.809</ele>
<time>2022-05-25T10:04:59Z</time>
</trkpt>
<trkpt lat="48.355793" lon="10.759816">
<ele>502.871</ele>
<time>2022-05-25T10:05:00Z</time>
</trkpt>
<trkpt lat="48.355751" lon="10.759807">
<ele>502.897</ele>
<time>2022-05-25T10:05:01Z</time>
</trkpt>
<trkpt lat="48.355709" lon="10.75979">
<ele>502.921</ele>
<time>2022-05-25T10:05:02Z</time>
</trkpt>
<trkpt lat="48.355667" lon="10.75977">
<ele>502.92</ele>
<time>2022-05-25T10:05:03Z</time>
</trkpt>
<trkpt lat="48.355625" lon="10.759748">
<ele>502.921</ele>
<time>2022-05-25T10:05:04Z</time>
</trkpt>
<trkpt lat="48.355583" lon="10.759724">
<ele>502.921</ele>
<time>2022-05-25T10:05:05Z</time>
</trkpt>
<trkpt lat="48.355541" lon="10.759695">
<ele>503.216</ele>
<time>2022-05-25T10:05:06Z</time>
</trkpt>
<trkpt lat="48.355499" lon="10.759664">
<ele>503.445</ele>
<time>2022-05-25T10:05:07Z</time>
</trkpt>
<trkpt lat="48.355461" lon="10.75963">
<ele>503.619</ele>
<time>2022-05-25T10:05:08Z</time>
</trkpt>
<trkpt lat="48.355419" lon="10.759599">
<ele>503.746</ele>
<time>2022-05-25T10:05:09Z</time>
</trkpt>
<trkpt lat="48.355381" lon="10.759563">
<ele>503.833</ele>
<time>2022-05-25T10:05:10Z</time>
</trkpt>
<trkpt lat="48.355339" lon="10.759529">
<ele>503.889</ele>
<time>2022-05-25T10:05:11Z</time>
</trkpt>
<trkpt lat="48.355301" lon="10.759494">
<ele>503.933</ele>
<time>2022-05-25T10:05:12Z</time>
</trkpt>
<trkpt lat="48.355259" lon="10.759459">
<ele>503.961</ele>
<time>2022-05-25T10:05:13Z</time>
</trkpt>
<trkpt lat="48.355221" lon="10.759423">
<ele>503.961</ele>
<time>2022-05-25T10:05:14Z</time>
</trkpt>
<trkpt lat="48.355183" lon="10.759387">
<ele>503.961</ele>
<time>2022-05-25T10:05:15Z</time>
</trkpt>
<trkpt lat="48.355141" lon="10.75935">
<ele>503.961</ele>
<time>2022-05-25T10:05:16Z</time>
</trkpt>
<trkpt lat="48.355103" lon="10.759315">
<ele>503.961</ele>
<time>2022-05-25T10:05:17Z</time>
</trkpt>
<trkpt lat="48.355064" lon="10.759278">
<ele>503.961</ele>
<time>2022-05-25T10:05:18Z</time>
</trkpt>
<trkpt lat="48.355022" lon="10.759242">
<ele>503.961</ele>
<time>2022-05-25T10:05:19Z</time>
</trkpt>
<trkpt lat="48.354988" lon="10.759207">
<ele>503.961</ele>
<time>2022-05-25T10:05:20Z</time>
</trkpt>
<trkpt lat="48.35495" lon="10.759171">
<ele>503.961</ele>
<time>2022-05-25T10:05:21Z</time>
</trkpt>
<trkpt lat="48.354912" lon="10.759135">
<ele>503.961</ele>
<time>2022-05-25T10:05:22Z</time>
</trkpt>
<trkpt lat="48.354874" lon="10.759102">
<ele>503.961</ele>
<time>2022-05-25T10:05:23Z</time>
</trkpt>
<trkpt lat="48.354836" lon="10.759068">
<ele>503.961</ele>
<time>2022-05-25T10:05:24Z</time>
</trkpt>
<trkpt lat="48.354797" lon="10.759035">
<ele>503.961</ele>
<time>2022-05-25T10:05:25Z</time>
</trkpt>
<trkpt lat="48.354759" lon="10.759">
<ele>503.961</ele>
<time>2022-05-25T10:05:26Z</time>
</trkpt>
<trkpt lat="48.354721" lon="10.758965">
<ele>503.961</ele>
<time>2022-05-25T10:05:27Z</time>
</trkpt>
<trkpt lat="48.354683" lon="10.758932">
<ele>503.961</ele>
<time>2022-05-25T10:05:28Z</time>
</trkpt>
<trkpt lat="48.354637" lon="10.758899">
<ele>503.961</ele>
<time>2022-05-25T10:05:29Z</time>
</trkpt>
<trkpt lat="48.354599" lon="10.758865">
<ele>503.961</ele>
<time>2022-05-25T10:05:30Z</time>
</trkpt>
<trkpt lat="48.354561" lon="10.758832">
<ele>503.961</ele>
<time>2022-05-25T10:05:31Z</time>
</trkpt>
<trkpt lat="48.354515" lon="10.7588">
<ele>503.961</ele>
<time>2022-05-25T10:05:32Z</time>
</trkpt>
<trkpt lat="48.354473" lon="10.758765">
<ele>503.961</ele>
<time>2022-05-25T10:05:33Z</time>
</trkpt>
<trkpt lat="48.354431" lon="10.758731">
<ele>503.961</ele>
<time>2022-05-25T10:05:34Z</time>
</trkpt>
<trkpt lat="48.354389" lon="10.758698">
<ele>503.961</ele>
<time>2022-05-25T10:05:35Z</time>
</trkpt>
<trkpt lat="48.354347" lon="10.758666">
<ele>503.961</ele>
<time>2022-05-25T10:05:36Z</time>
</trkpt>
<trkpt lat="48.354305" lon="10.758633">
<ele>503.961</ele>
<time>2022-05-25T10:05:37Z</time>
</trkpt>
<trkpt lat="48.354267" lon="10.7586">
<ele>503.961</ele>
<time>2022-05-25T10:05:38Z</time>
</trkpt>
<trkpt lat="48.354225" lon="10.75857">
<ele>503.961</ele>
<time>2022-05-25T10:05:39Z</time>
</trkpt>
<trkpt lat="48.354183" lon="10.758538">
<ele>503.961</ele>
<time>2022-05-25T10:05:40Z</time>
</trkpt>
<trkpt lat="48.354145" lon="10.758505">
<ele>503.961</ele>
<time>2022-05-25T10:05:41Z</time>
</trkpt>
<trkpt lat="48.354099" lon="10.758473">
<ele>503.961</ele>
<time>2022-05-25T10:05:42Z</time>
</trkpt>
<trkpt lat="48.354057" lon="10.758445">
<ele>503.961</ele>
<time>2022-05-25T10:05:43Z</time>
</trkpt>
<trkpt lat="48.354012" lon="10.758415">
<ele>503.961</ele>
<time>2022-05-25T10:05:44Z</time>
</trkpt>
<trkpt lat="48.35397" lon="10.758387">
<ele>503.961</ele>
<time>2022-05-25T10:05:45Z</time>
</trkpt>
<trkpt lat="48.35392" lon="10.758356">
<ele>503.961</ele>
<time>2022-05-25T10:05:46Z</time>
</trkpt>
<trkpt lat="48.353878" lon="10.758325">
<ele>503.961</ele>
<time>2022-05-25T10:05:47Z</time>
</trkpt>
<trkpt lat="48.353832" lon="10.758295">
<ele>503.961</ele>
<time>2022-05-25T10:05:48Z</time>
</trkpt>
<trkpt lat="48.35379" lon="10.758268">
<ele>503.961</ele>
<time>2022-05-25T10:05:49Z</time>
</trkpt>
<trkpt lat="48.353748" lon="10.758242">
<ele>503.961</ele>
<time>2022-05-25T10:05:50Z</time>
</trkpt>
<trkpt lat="48.353706" lon="10.758213">
<ele>503.961</ele>
<time>2022-05-25T10:05:51Z</time>
</trkpt>
<trkpt lat="48.353664" lon="10.758182">
<ele>503.961</ele>
<time>2022-05-25T10:05:52Z</time>
</trkpt>
<trkpt lat="48.353622" lon="10.758152">
<ele>503.961</ele>
<time>2022-05-25T10:05:53Z</time>
</trkpt>
<trkpt lat="48.353584" lon="10.758127">
<ele>503.961</ele>
<time>2022-05-25T10:05:54Z</time>
</trkpt>
<trkpt lat="48.353539" lon="10.758104">
<ele>503.961</ele>
<time>2022-05-25T10:05:55Z</time>
</trkpt>
<trkpt lat="48.353493" lon="10.758085">
<ele>503.961</ele>
<time>2022-05-25T10:05:56Z</time>
</trkpt>
<trkpt lat="48.353451" lon="10.758065">
<ele>503.961</ele>
<time>2022-05-25T10:05:57Z</time>
</trkpt>
<trkpt lat="48.353401" lon="10.758046">
<ele>503.961</ele>
<time>2022-05-25T10:05:58Z</time>
</trkpt>
<trkpt lat="48.353355" lon="10.758025">
<ele>503.713</ele>
<time>2022-05-25T10:05:59Z</time>
</trkpt>
<trkpt lat="48.353302" lon="10.758008">
<ele>503.515</ele>
<time>2022-05-25T10:06:00Z</time>
</trkpt>
<trkpt lat="48.353252" lon="10.757996">
<ele>503.366</ele>
<time>2022-05-25T10:06:01Z</time>
</trkpt>
<trkpt lat="48.353199" lon="10.757983">
<ele>503.266</ele>
<time>2022-05-25T10:06:02Z</time>
</trkpt>
<trkpt lat="48.353149" lon="10.757972">
<ele>503.156</ele>
<time>2022-05-25T10:06:03Z</time>
</trkpt>
<trkpt lat="48.3531" lon="10.75796">
<ele>503.079</ele>
<time>2022-05-25T10:06:04Z</time>
</trkpt>
<trkpt lat="48.353039" lon="10.757948">
<ele>503.03</ele>
<time>2022-05-25T10:06:05Z</time>
</trkpt>
<trkpt lat="48.352989" lon="10.757936">
<ele>503.007</ele>
<time>2022-05-25T10:06:06Z</time>
</trkpt>
<trkpt lat="48.352936" lon="10.757929">
<ele>502.743</ele>
<time>2022-05-25T10:06:07Z</time>
</trkpt>
<trkpt lat="48.352879" lon="10.757922">
<ele>502.539</ele>
<time>2022-05-25T10:06:08Z</time>
</trkpt>
<trkpt lat="48.352825" lon="10.757918">
<ele>502.385</ele>
<time>2022-05-25T10:06:09Z</time>
</trkpt>
<trkpt lat="48.352772" lon="10.757915">
<ele>502.272</ele>
<time>2022-05-25T10:06:10Z</time>
</trkpt>
<trkpt lat="48.352718" lon="10.757915">
<ele>502.191</ele>
<time>2022-05-25T10:06:11Z</time>
</trkpt>
<trkpt lat="48.352669" lon="10.757914">
<ele>502.132</ele>
<time>2022-05-25T10:06:12Z</time>
</trkpt>
<trkpt lat="48.352615" lon="10.757908">
<ele>502.08</ele>
<time>2022-05-25T10:06:13Z</time>
</trkpt>
<trkpt lat="48.352562" lon="10.757903">
<ele>502.054</ele>
<time>2022-05-25T10:06:14Z</time>
</trkpt>
<trkpt lat="48.352512" lon="10.757898">
<ele>502.054</ele>
<time>2022-05-25T10:06:15Z</time>
</trkpt>
<trkpt lat="48.352463" lon="10.757898">
<ele>502.054</ele>
<time>2022-05-25T10:06:16Z</time>
</trkpt>
<trkpt lat="48.352409" lon="10.757894">
<ele>502.054</ele>
<time>2022-05-25T10:06:17Z</time>
</trkpt>
<trkpt lat="48.35236" lon="10.757883">
<ele>502.054</ele>
<time>2022-05-25T10:06:18Z</time>
</trkpt>
<trkpt lat="48.35231" lon="10.757867">
<ele>502.054</ele>
<time>2022-05-25T10:06:19Z</time>
</trkpt>
<trkpt lat="48.352261" lon="10.757849">
<ele>502.054</ele>
<time>2022-05-25T10:06:20Z</time>
</trkpt>
<trkpt lat="48.352215" lon="10.757824">
<ele>502.054</ele>
<time>2022-05-25T10:06:21Z</time>
</trkpt>
<trkpt lat="48.352169" lon="10.757794">
<ele>502.054</ele>
<time>2022-05-25T10:06:22Z</time>
</trkpt>
<trkpt lat="48.352123" lon="10.757763">
<ele>502.054</ele>
<time>2022-05-25T10:06:23Z</time>
</trkpt>
<trkpt lat="48.352089" lon="10.757725">
<ele>501.775</ele>
<time>2022-05-25T10:06:24Z</time>
</trkpt>
<trkpt lat="48.352055" lon="10.757679">
<ele>501.557</ele>
<time>2022-05-25T10:06:25Z</time>
</trkpt>
<trkpt lat="48.352024" lon="10.757627">
<ele>501.391</ele>
<time>2022-05-25T10:06:26Z</time>
</trkpt>
<trkpt lat="48.351994" lon="10.757573">
<ele>501.266</ele>
<time>2022-05-25T10:06:27Z</time>
</trkpt>
<trkpt lat="48.351971" lon="10.757515">
<ele>501.18</ele>
<time>2022-05-25T10:06:28Z</time>
</trkpt>
<trkpt lat="48.351948" lon="10.757453">
<ele>501.129</ele>
<time>2022-05-25T10:06:29Z</time>
</trkpt>
<trkpt lat="48.351925" lon="10.75739">
<ele>501.1</ele>
<time>2022-05-25T10:06:30Z</time>
</trkpt>
<trkpt lat="48.351902" lon="10.757327">
<ele>501.1</ele>
<time>2022-05-25T10:06:31Z</time>
</trkpt>
<trkpt lat="48.351879" lon="10.75726">
<ele>501.1</ele>
<time>2022-05-25T10:06:32Z</time>
</trkpt>
<trkpt lat="48.35186" lon="10.757192">
<ele>501.1</ele>
<time>2022-05-25T10:06:33Z</time>
</trkpt>
<trkpt lat="48.351841" lon="10.757127">
<ele>501.392</ele>
<time>2022-05-25T10:06:34Z</time>
</trkpt>
<trkpt lat="48.351826" lon="10.757063">
<ele>501.612</ele>
<time>2022-05-25T10:06:35Z</time>
</trkpt>
<trkpt lat="48.351807" lon="10.757">
<ele>501.771</ele>
<time>2022-05-25T10:06:36Z</time>
</trkpt>
<trkpt lat="48.351791" lon="10.756937">
<ele>501.894</ele>
<time>2022-05-25T10:06:37Z</time>
</trkpt>
<trkpt lat="48.351772" lon="10.756875">
<ele>501.978</ele>
<time>2022-05-25T10:06:38Z</time>
</trkpt>
<trkpt lat="48.351757" lon="10.756814">
<ele>502.03</ele>
<time>2022-05-25T10:06:39Z</time>
</trkpt>
<trkpt lat="48.351738" lon="10.756753">
<ele>502.054</ele>
<time>2022-05-25T10:06:40Z</time>
</trkpt>
<trkpt lat="48.351719" lon="10.756695">
<ele>502.054</ele>
<time>2022-05-25T10:06:41Z</time>
</trkpt>
<trkpt lat="48.3517" lon="10.75664">
<ele>502.054</ele>
<time>2022-05-25T10:06:42Z</time>
</trkpt>
<trkpt lat="48.351677" lon="10.756581">
<ele>502.054</ele>
<time>2022-05-25T10:06:43Z</time>
</trkpt>
<trkpt lat="48.351654" lon="10.756527">
<ele>502.361</ele>
<time>2022-05-25T10:06:44Z</time>
</trkpt>
<trkpt lat="48.351635" lon="10.75647">
<ele>502.601</ele>
<time>2022-05-25T10:06:45Z</time>
</trkpt>
<trkpt lat="48.351604" lon="10.756424">
<ele>502.78</ele>
<time>2022-05-25T10:06:46Z</time>
</trkpt>
<trkpt lat="48.351574" lon="10.756383">
<ele>502.918</ele>
<time>2022-05-25T10:06:47Z</time>
</trkpt>
<trkpt lat="48.351543" lon="10.756357">
<ele>503.01</ele>
<time>2022-05-25T10:06:48Z</time>
</trkpt>
<trkpt lat="48.351501" lon="10.756343">
<ele>503.062</ele>
<time>2022-05-25T10:06:49Z</time>
</trkpt>
<trkpt lat="48.351463" lon="10.756343">
<ele>503.089</ele>
<time>2022-05-25T10:06:50Z</time>
</trkpt>
<trkpt lat="48.351425" lon="10.756359">
<ele>503.094</ele>
<time>2022-05-25T10:06:51Z</time>
</trkpt>
<trkpt lat="48.351376" lon="10.756383">
<ele>503.094</ele>
<time>2022-05-25T10:06:52Z</time>
</trkpt>
<trkpt lat="48.351334" lon="10.756408">
<ele>503.094</ele>
<time>2022-05-25T10:06:53Z</time>
</trkpt>
<trkpt lat="48.351292" lon="10.756429">
<ele>503.094</ele>
<time>2022-05-25T10:06:54Z</time>
</trkpt>
<trkpt lat="48.351246" lon="10.756436">
<ele>503.094</ele>
<time>2022-05-25T10:06:55Z</time>
</trkpt>
<trkpt lat="48.351208" lon="10.756431">
<ele>503.094</ele>
<time>2022-05-25T10:06:56Z</time>
</trkpt>
<trkpt lat="48.351162" lon="10.756415">
<ele>503.094</ele>
<time>2022-05-25T10:06:57Z</time>
</trkpt>
<trkpt lat="48.351124" lon="10.75638">
<ele>503.094</ele>
<time>2022-05-25T10:06:58Z</time>
</trkpt>
<trkpt lat="48.351097" lon="10.756331">
<ele>503.094</ele>
<time>2022-05-25T10:06:59Z</time>
</trkpt>
<trkpt lat="48.351082" lon="10.756273">
<ele>503.094</ele>
<time>2022-05-25T10:07:00Z</time>
</trkpt>
<trkpt lat="48.351067" lon="10.756212">
<ele>503.094</ele>
<time>2022-05-25T10:07:01Z</time>
</trkpt>
<trkpt lat="48.351048" lon="10.756144">
<ele>503.094</ele>
<time>2022-05-25T10:07:02Z</time>
</trkpt>
<trkpt lat="48.351048" lon="10.756075">
<ele>503.094</ele>
<time>2022-05-25T10:07:03Z</time>
</trkpt>
<trkpt lat="48.351036" lon="10.756008">
<ele>503.094</ele>
<time>2022-05-25T10:07:04Z</time>
</trkpt>
<trkpt lat="48.351028" lon="10.75594">
<ele>503.094</ele>
<time>2022-05-25T10:07:05Z</time>
</trkpt>
<trkpt lat="48.351017" lon="10.755872">
<ele>503.094</ele>
<time>2022-05-25T10:07:06Z</time>
</trkpt>
<trkpt lat="48.351013" lon="10.755808">
<ele>503.094</ele>
<time>2022-05-25T10:07:07Z</time>
</trkpt>
<trkpt lat="48.351006" lon="10.755752">
<ele>503.094</ele>
<time>2022-05-25T10:07:08Z</time>
</trkpt>
<trkpt lat="48.351006" lon="10.755695">
<ele>503.094</ele>
<time>2022-05-25T10:07:09Z</time>
</trkpt>
<trkpt lat="48.351009" lon="10.755642">
<ele>503.094</ele>
<time>2022-05-25T10:07:10Z</time>
</trkpt>
<trkpt lat="48.351013" lon="10.755592">
<ele>503.094</ele>
<time>2022-05-25T10:07:11Z</time>
</trkpt>
<trkpt lat="48.351009" lon="10.755544">
<ele>503.094</ele>
<time>2022-05-25T10:07:12Z</time>
</trkpt>
<trkpt lat="48.351006" lon="10.7555">
<ele>503.094</ele>
<time>2022-05-25T10:07:13Z</time>
</trkpt>
<trkpt lat="48.351006" lon="10.75546">
<ele>503.094</ele>
<time>2022-05-25T10:07:14Z</time>
</trkpt>
<trkpt lat="48.351006" lon="10.755426">
<ele>503.366</ele>
<time>2022-05-25T10:07:15Z</time>
</trkpt>
<trkpt lat="48.351013" lon="10.755415">
<ele>503.585</ele>
<time>2022-05-25T10:07:16Z</time>
</trkpt>
<trkpt lat="48.351013" lon="10.755406">
<ele>503.754</ele>
<time>2022-05-25T10:07:17Z</time>
</trkpt>
<trkpt lat="48.351002" lon="10.755402">
<ele>503.888</ele>
<time>2022-05-25T10:07:18Z</time>
</trkpt>
<trkpt lat="48.350986" lon="10.755398">
<ele>503.988</ele>
<time>2022-05-25T10:07:19Z</time>
</trkpt>
<trkpt lat="48.350979" lon="10.755398">
<ele>504.054</ele>
<time>2022-05-25T10:07:20Z</time>
</trkpt>
<trkpt lat="48.350983" lon="10.755397">
<ele>504.097</ele>
<time>2022-05-25T10:07:21Z</time>
</trkpt>
<trkpt lat="48.350979" lon="10.755397">
<ele>504.134</ele>
<time>2022-05-25T10:07:22Z</time>
</trkpt>
<trkpt lat="48.350979" lon="10.755398">
<ele>504.134</ele>
<time>2022-05-25T10:07:23Z</time>
</trkpt>
<trkpt lat="48.35096" lon="10.755408">
<ele>504.134</ele>
<time>2022-05-25T10:07:30Z</time>
</trkpt>
<trkpt lat="48.350956" lon="10.755429">
<ele>504.134</ele>
<time>2022-05-25T10:07:31Z</time>
</trkpt>
<trkpt lat="48.350948" lon="10.755462">
<ele>504.134</ele>
<time>2022-05-25T10:07:32Z</time>
</trkpt>
<trkpt lat="48.350941" lon="10.755503">
<ele>504.134</ele>
<time>2022-05-25T10:07:33Z</time>
</trkpt>
<trkpt lat="48.350933" lon="10.75556">
<ele>504.134</ele>
<time>2022-05-25T10:07:34Z</time>
</trkpt>
<trkpt lat="48.350933" lon="10.75562">
<ele>504.134</ele>
<time>2022-05-25T10:07:35Z</time>
</trkpt>
<trkpt lat="48.350933" lon="10.755682">
<ele>504.134</ele>
<time>2022-05-25T10:07:36Z</time>
</trkpt>
<trkpt lat="48.350941" lon="10.755741">
<ele>503.841</ele>
<time>2022-05-25T10:07:37Z</time>
</trkpt>
<trkpt lat="48.350948" lon="10.755804">
<ele>503.712</ele>
<time>2022-05-25T10:07:38Z</time>
</trkpt>
<trkpt lat="48.350952" lon="10.755867">
<ele>503.561</ele>
<time>2022-05-25T10:07:39Z</time>
</trkpt>
<trkpt lat="48.35096" lon="10.755925">
<ele>503.463</ele>
<time>2022-05-25T10:07:40Z</time>
</trkpt>
<trkpt lat="48.350956" lon="10.755979">
<ele>503.387</ele>
<time>2022-05-25T10:07:41Z</time>
</trkpt>
<trkpt lat="48.350956" lon="10.756026">
<ele>503.33</ele>
<time>2022-05-25T10:07:42Z</time>
</trkpt>
<trkpt lat="48.350952" lon="10.756074">
<ele>503.288</ele>
<time>2022-05-25T10:07:44Z</time>
</trkpt>
<trkpt lat="48.350948" lon="10.756144">
<ele>503.047</ele>
<time>2022-05-25T10:07:45Z</time>
</trkpt>
<trkpt lat="48.350937" lon="10.756165">
<ele>502.873</ele>
<time>2022-05-25T10:07:46Z</time>
</trkpt>
<trkpt lat="48.350922" lon="10.756189">
<ele>502.73</ele>
<time>2022-05-25T10:07:47Z</time>
</trkpt>
<trkpt lat="48.350906" lon="10.75622">
<ele>502.615</ele>
<time>2022-05-25T10:07:48Z</time>
</trkpt>
<trkpt lat="48.350883" lon="10.756259">
<ele>502.494</ele>
<time>2022-05-25T10:07:49Z</time>
</trkpt>
<trkpt lat="48.350864" lon="10.756307">
<ele>502.402</ele>
<time>2022-05-25T10:07:50Z</time>
</trkpt>
<trkpt lat="48.350834" lon="10.756357">
<ele>502.343</ele>
<time>2022-05-25T10:07:51Z</time>
</trkpt>
<trkpt lat="48.350807" lon="10.756405">
<ele>502.314</ele>
<time>2022-05-25T10:07:52Z</time>
</trkpt>
<trkpt lat="48.35078" lon="10.756455">
<ele>502.314</ele>
<time>2022-05-25T10:07:53Z</time>
</trkpt>
<trkpt lat="48.35075" lon="10.7565">
<ele>502.314</ele>
<time>2022-05-25T10:07:54Z</time>
</trkpt>
<trkpt lat="48.350719" lon="10.756543">
<ele>502.314</ele>
<time>2022-05-25T10:07:55Z</time>
</trkpt>
<trkpt lat="48.350693" lon="10.756585">
<ele>502.314</ele>
<time>2022-05-25T10:07:56Z</time>
</trkpt>
<trkpt lat="48.350666" lon="10.756625">
<ele>502.314</ele>
<time>2022-05-25T10:07:57Z</time>
</trkpt>
<trkpt lat="48.350636" lon="10.75667">
<ele>502.314</ele>
<time>2022-05-25T10:07:58Z</time>
</trkpt>
<trkpt lat="48.350605" lon="10.756717">
<ele>502.314</ele>
<time>2022-05-25T10:07:59Z</time>
</trkpt>
<trkpt lat="48.350582" lon="10.756758">
<ele>502.314</ele>
<time>2022-05-25T10:08:00Z</time>
</trkpt>
<trkpt lat="48.350559" lon="10.75679">
<ele>502.314</ele>
<time>2022-05-25T10:08:01Z</time>
</trkpt>
<trkpt lat="48.350548" lon="10.756818">
<ele>502.314</ele>
<time>2022-05-25T10:08:02Z</time>
</trkpt>
<trkpt lat="48.350533" lon="10.756848">
<ele>502.314</ele>
<time>2022-05-25T10:08:03Z</time>
</trkpt>
<trkpt lat="48.350521" lon="10.756879">
<ele>502.314</ele>
<time>2022-05-25T10:08:04Z</time>
</trkpt>
<trkpt lat="48.350502" lon="10.756912">
<ele>502.314</ele>
<time>2022-05-25T10:08:05Z</time>
</trkpt>
<trkpt lat="48.350479" lon="10.756952">
<ele>502.314</ele>
<time>2022-05-25T10:08:06Z</time>
</trkpt>
<trkpt lat="48.35046" lon="10.756996">
<ele>502.314</ele>
<time>2022-05-25T10:08:07Z</time>
</trkpt>
<trkpt lat="48.350437" lon="10.757049">
<ele>502.314</ele>
<time>2022-05-25T10:08:08Z</time>
</trkpt>
<trkpt lat="48.350403" lon="10.757103">
<ele>502.048</ele>
<time>2022-05-25T10:08:09Z</time>
</trkpt>
<trkpt lat="48.350365" lon="10.75717">
<ele>501.822</ele>
<time>2022-05-25T10:08:10Z</time>
</trkpt>
<trkpt lat="48.35033" lon="10.757236">
<ele>501.662</ele>
<time>2022-05-25T10:08:11Z</time>
</trkpt>
<trkpt lat="48.350296" lon="10.757297">
<ele>501.545</ele>
<time>2022-05-25T10:08:12Z</time>
</trkpt>
<trkpt lat="48.350266" lon="10.757359">
<ele>501.466</ele>
<time>2022-05-25T10:08:13Z</time>
</trkpt>
<trkpt lat="48.350235" lon="10.757417">
<ele>501.413</ele>
<time>2022-05-25T10:08:14Z</time>
</trkpt>
<trkpt lat="48.350208" lon="10.757477">
<ele>501.377</ele>
<time>2022-05-25T10:08:15Z</time>
</trkpt>
<trkpt lat="48.350178" lon="10.757533">
<ele>501.36</ele>
<time>2022-05-25T10:08:16Z</time>
</trkpt>
<trkpt lat="48.350155" lon="10.757588">
<ele>501.36</ele>
<time>2022-05-25T10:08:17Z</time>
</trkpt>
<trkpt lat="48.350128" lon="10.75764">
<ele>501.36</ele>
<time>2022-05-25T10:08:18Z</time>
</trkpt>
<trkpt lat="48.350101" lon="10.757688">
<ele>501.36</ele>
<time>2022-05-25T10:08:19Z</time>
</trkpt>
<trkpt lat="48.350075" lon="10.757736">
<ele>501.36</ele>
<time>2022-05-25T10:08:20Z</time>
</trkpt>
<trkpt lat="48.350052" lon="10.757787">
<ele>501.36</ele>
<time>2022-05-25T10:08:21Z</time>
</trkpt>
<trkpt lat="48.350029" lon="10.757842">
<ele>501.36</ele>
<time>2022-05-25T10:08:22Z</time>
</trkpt>
<trkpt lat="48.350006" lon="10.757895">
<ele>501.36</ele>
<time>2022-05-25T10:08:23Z</time>
</trkpt>
<trkpt lat="48.349987" lon="10.757956">
<ele>501.36</ele>
<time>2022-05-25T10:08:24Z</time>
</trkpt>
<trkpt lat="48.349964" lon="10.758015">
<ele>501.36</ele>
<time>2022-05-25T10:08:25Z</time>
</trkpt>
<trkpt lat="48.349937" lon="10.758075">
<ele>501.36</ele>
<time>2022-05-25T10:08:26Z</time>
</trkpt>
<trkpt lat="48.349907" lon="10.758132">
<ele>501.36</ele>
<time>2022-05-25T10:08:27Z</time>
</trkpt>
<trkpt lat="48.34988" lon="10.758184">
<ele>501.36</ele>
<time>2022-05-25T10:08:28Z</time>
</trkpt>
<trkpt lat="48.349854" lon="10.758241">
<ele>501.36</ele>
<time>2022-05-25T10:08:29Z</time>
</trkpt>
<trkpt lat="48.349831" lon="10.758297">
<ele>501.36</ele>
<time>2022-05-25T10:08:30Z</time>
</trkpt>
<trkpt lat="48.349808" lon="10.758355">
<ele>501.36</ele>
<time>2022-05-25T10:08:31Z</time>
</trkpt>
<trkpt lat="48.349777" lon="10.758415">
<ele>501.36</ele>
<time>2022-05-25T10:08:32Z</time>
</trkpt>
<trkpt lat="48.349758" lon="10.758475">
<ele>501.36</ele>
<time>2022-05-25T10:08:33Z</time>
</trkpt>
<trkpt lat="48.349731" lon="10.758534">
<ele>501.36</ele>
<time>2022-05-25T10:08:34Z</time>
</trkpt>
<trkpt lat="48.349709" lon="10.758595">
<ele>501.36</ele>
<time>2022-05-25T10:08:35Z</time>
</trkpt>
<trkpt lat="48.349678" lon="10.758656">
<ele>501.36</ele>
<time>2022-05-25T10:08:36Z</time>
</trkpt>
<trkpt lat="48.349644" lon="10.758715">
<ele>501.123</ele>
<time>2022-05-25T10:08:37Z</time>
</trkpt>
<trkpt lat="48.349613" lon="10.758775">
<ele>500.957</ele>
<time>2022-05-25T10:08:38Z</time>
</trkpt>
<trkpt lat="48.349586" lon="10.758835">
<ele>500.787</ele>
<time>2022-05-25T10:08:39Z</time>
</trkpt>
<trkpt lat="48.34956" lon="10.758894">
<ele>500.653</ele>
<time>2022-05-25T10:08:40Z</time>
</trkpt>
<trkpt lat="48.349537" lon="10.758953">
<ele>500.55</ele>
<time>2022-05-25T10:08:41Z</time>
</trkpt>
<trkpt lat="48.34951" lon="10.759009">
<ele>500.477</ele>
<time>2022-05-25T10:08:42Z</time>
</trkpt>
<trkpt lat="48.349483" lon="10.759073">
<ele>500.429</ele>
<time>2022-05-25T10:08:43Z</time>
</trkpt>
<trkpt lat="48.349457" lon="10.759135">
<ele>500.407</ele>
<time>2022-05-25T10:08:44Z</time>
</trkpt>
<trkpt lat="48.34943" lon="10.759195">
<ele>500.407</ele>
<time>2022-05-25T10:08:45Z</time>
</trkpt>
<trkpt lat="48.349403" lon="10.759253">
<ele>500.407</ele>
<time>2022-05-25T10:08:46Z</time>
</trkpt>
<trkpt lat="48.349377" lon="10.759307">
<ele>500.407</ele>
<time>2022-05-25T10:08:47Z</time>
</trkpt>
<trkpt lat="48.34935" lon="10.759361">
<ele>500.407</ele>
<time>2022-05-25T10:08:48Z</time>
</trkpt>
<trkpt lat="48.349323" lon="10.759418">
<ele>500.407</ele>
<time>2022-05-25T10:08:49Z</time>
</trkpt>
<trkpt lat="48.349297" lon="10.759475">
<ele>500.407</ele>
<time>2022-05-25T10:08:50Z</time>
</trkpt>
<trkpt lat="48.34927" lon="10.759533">
<ele>500.407</ele>
<time>2022-05-25T10:08:51Z</time>
</trkpt>
<trkpt lat="48.349243" lon="10.759588">
<ele>500.407</ele>
<time>2022-05-25T10:08:52Z</time>
</trkpt>
<trkpt lat="48.349216" lon="10.759645">
<ele>500.665</ele>
<time>2022-05-25T10:08:53Z</time>
</trkpt>
<trkpt lat="48.34919" lon="10.759704">
<ele>500.87</ele>
<time>2022-05-25T10:08:54Z</time>
</trkpt>
<trkpt lat="48.349167" lon="10.759762">
<ele>501.026</ele>
<time>2022-05-25T10:08:55Z</time>
</trkpt>
<trkpt lat="48.34914" lon="10.75982">
<ele>501.137</ele>
<time>2022-05-25T10:08:56Z</time>
</trkpt>
<trkpt lat="48.349117" lon="10.759877">
<ele>501.22</ele>
<time>2022-05-25T10:08:57Z</time>
</trkpt>
<trkpt lat="48.349091" lon="10.759935">
<ele>501.28</ele>
<time>2022-05-25T10:08:58Z</time>
</trkpt>
<trkpt lat="48.349064" lon="10.759988">
<ele>501.334</ele>
<time>2022-05-25T10:08:59Z</time>
</trkpt>
<trkpt lat="48.349037" lon="10.760045">
<ele>501.36</ele>
<time>2022-05-25T10:09:00Z</time>
</trkpt>
<trkpt lat="48.34901" lon="10.760101">
<ele>501.36</ele>
<time>2022-05-25T10:09:01Z</time>
</trkpt>
<trkpt lat="48.348984" lon="10.760159">
<ele>501.36</ele>
<time>2022-05-25T10:09:02Z</time>
</trkpt>
<trkpt lat="48.348957" lon="10.760217">
<ele>501.36</ele>
<time>2022-05-25T10:09:03Z</time>
</trkpt>
<trkpt lat="48.348927" lon="10.760273">
<ele>501.36</ele>
<time>2022-05-25T10:09:04Z</time>
</trkpt>
<trkpt lat="48.348904" lon="10.760333">
<ele>501.36</ele>
<time>2022-05-25T10:09:05Z</time>
</trkpt>
<trkpt lat="48.348877" lon="10.76039">
<ele>501.36</ele>
<time>2022-05-25T10:09:06Z</time>
</trkpt>
<trkpt lat="48.34885" lon="10.760447">
<ele>501.36</ele>
<time>2022-05-25T10:09:07Z</time>
</trkpt>
<trkpt lat="48.348824" lon="10.760504">
<ele>501.36</ele>
<time>2022-05-25T10:09:08Z</time>
</trkpt>
<trkpt lat="48.348793" lon="10.76056">
<ele>501.36</ele>
<time>2022-05-25T10:09:09Z</time>
</trkpt>
<trkpt lat="48.348766" lon="10.760616">
<ele>501.36</ele>
<time>2022-05-25T10:09:10Z</time>
</trkpt>
<trkpt lat="48.348736" lon="10.760674">
<ele>501.36</ele>
<time>2022-05-25T10:09:11Z</time>
</trkpt>
<trkpt lat="48.348709" lon="10.76073">
<ele>501.36</ele>
<time>2022-05-25T10:09:12Z</time>
</trkpt>
<trkpt lat="48.348682" lon="10.760788">
<ele>501.36</ele>
<time>2022-05-25T10:09:13Z</time>
</trkpt>
<trkpt lat="48.348656" lon="10.760847">
<ele>501.36</ele>
<time>2022-05-25T10:09:14Z</time>
</trkpt>
<trkpt lat="48.348633" lon="10.760908">
<ele>501.36</ele>
<time>2022-05-25T10:09:15Z</time>
</trkpt>
<trkpt lat="48.348602" lon="10.760968">
<ele>501.36</ele>
<time>2022-05-25T10:09:16Z</time>
</trkpt>
<trkpt lat="48.348576" lon="10.761027">
<ele>501.36</ele>
<time>2022-05-25T10:09:17Z</time>
</trkpt>
<trkpt lat="48.348549" lon="10.761086">
<ele>501.36</ele>
<time>2022-05-25T10:09:18Z</time>
</trkpt>
<trkpt lat="48.348518" lon="10.761147">
<ele>501.36</ele>
<time>2022-05-25T10:09:19Z</time>
</trkpt>
<trkpt lat="48.348495" lon="10.761209">
<ele>501.36</ele>
<time>2022-05-25T10:09:20Z</time>
</trkpt>
<trkpt lat="48.348473" lon="10.761271">
<ele>501.36</ele>
<time>2022-05-25T10:09:21Z</time>
</trkpt>
<trkpt lat="48.348442" lon="10.761333">
<ele>501.36</ele>
<time>2022-05-25T10:09:22Z</time>
</trkpt>
<trkpt lat="48.348415" lon="10.761394">
<ele>501.36</ele>
<time>2022-05-25T10:09:23Z</time>
</trkpt>
<trkpt lat="48.348389" lon="10.761452">
<ele>501.36</ele>
<time>2022-05-25T10:09:24Z</time>
</trkpt>
<trkpt lat="48.348362" lon="10.761512">
<ele>501.36</ele>
<time>2022-05-25T10:09:25Z</time>
</trkpt>
<trkpt lat="48.348335" lon="10.76157">
<ele>501.36</ele>
<time>2022-05-25T10:09:26Z</time>
</trkpt>
<trkpt lat="48.348309" lon="10.761632">
<ele>501.36</ele>
<time>2022-05-25T10:09:27Z</time>
</trkpt>
<trkpt lat="48.348278" lon="10.761693">
<ele>501.36</ele>
<time>2022-05-25T10:09:28Z</time>
</trkpt>
<trkpt lat="48.348255" lon="10.761754">
<ele>501.36</ele>
<time>2022-05-25T10:09:29Z</time>
</trkpt>
<trkpt lat="48.348228" lon="10.761813">
<ele>501.36</ele>
<time>2022-05-25T10:09:30Z</time>
</trkpt>
<trkpt lat="48.348202" lon="10.761873">
<ele>501.36</ele>
<time>2022-05-25T10:09:31Z</time>
</trkpt>
<trkpt lat="48.348175" lon="10.761932">
<ele>501.36</ele>
<time>2022-05-25T10:09:32Z</time>
</trkpt>
<trkpt lat="48.348145" lon="10.761991">
<ele>501.36</ele>
<time>2022-05-25T10:09:33Z</time>
</trkpt>
<trkpt lat="48.348122" lon="10.76205">
<ele>501.36</ele>
<time>2022-05-25T10:09:34Z</time>
</trkpt>
<trkpt lat="48.348095" lon="10.76211">
<ele>501.36</ele>
<time>2022-05-25T10:09:35Z</time>
</trkpt>
<trkpt lat="48.348072" lon="10.762169">
<ele>501.36</ele>
<time>2022-05-25T10:09:36Z</time>
</trkpt>
<trkpt lat="48.348045" lon="10.762228">
<ele>501.36</ele>
<time>2022-05-25T10:09:37Z</time>
</trkpt>
<trkpt lat="48.348019" lon="10.762286">
<ele>501.36</ele>
<time>2022-05-25T10:09:38Z</time>
</trkpt>
<trkpt lat="48.347996" lon="10.762343">
<ele>501.36</ele>
<time>2022-05-25T10:09:39Z</time>
</trkpt>
<trkpt lat="48.347973" lon="10.7624">
<ele>501.36</ele>
<time>2022-05-25T10:09:40Z</time>
</trkpt>
<trkpt lat="48.34795" lon="10.762454">
<ele>501.36</ele>
<time>2022-05-25T10:09:41Z</time>
</trkpt>
<trkpt lat="48.347919" lon="10.762506">
<ele>501.36</ele>
<time>2022-05-25T10:09:42Z</time>
</trkpt>
<trkpt lat="48.347897" lon="10.76256">
<ele>501.614</ele>
<time>2022-05-25T10:09:43Z</time>
</trkpt>
<trkpt lat="48.347878" lon="10.762611">
<ele>501.817</ele>
<time>2022-05-25T10:09:44Z</time>
</trkpt>
<trkpt lat="48.347851" lon="10.76266">
<ele>501.967</ele>
<time>2022-05-25T10:09:45Z</time>
</trkpt>
<trkpt lat="48.347828" lon="10.76271">
<ele>502.084</ele>
<time>2022-05-25T10:09:46Z</time>
</trkpt>
<trkpt lat="48.347809" lon="10.762756">
<ele>502.169</ele>
<time>2022-05-25T10:09:47Z</time>
</trkpt>
<trkpt lat="48.347786" lon="10.762806">
<ele>502.231</ele>
<time>2022-05-25T10:09:48Z</time>
</trkpt>
<trkpt lat="48.347759" lon="10.762858">
<ele>502.287</ele>
<time>2022-05-25T10:09:49Z</time>
</trkpt>
<trkpt lat="48.347744" lon="10.762912">
<ele>502.314</ele>
<time>2022-05-25T10:09:50Z</time>
</trkpt>
<trkpt lat="48.347721" lon="10.762965">
<ele>502.314</ele>
<time>2022-05-25T10:09:51Z</time>
</trkpt>
<trkpt lat="48.347694" lon="10.763015">
<ele>502.314</ele>
<time>2022-05-25T10:09:52Z</time>
</trkpt>
<trkpt lat="48.347675" lon="10.763063">
<ele>502.314</ele>
<time>2022-05-25T10:09:53Z</time>
</trkpt>
<trkpt lat="48.347656" lon="10.76311">
<ele>502.314</ele>
<time>2022-05-25T10:09:54Z</time>
</trkpt>
<trkpt lat="48.34763" lon="10.763158">
<ele>502.314</ele>
<time>2022-05-25T10:09:55Z</time>
</trkpt>
<trkpt lat="48.34761" lon="10.763208">
<ele>502.314</ele>
<time>2022-05-25T10:09:56Z</time>
</trkpt>
<trkpt lat="48.347591" lon="10.763258">
<ele>502.314</ele>
<time>2022-05-25T10:09:57Z</time>
</trkpt>
<trkpt lat="48.347565" lon="10.763307">
<ele>502.314</ele>
<time>2022-05-25T10:09:58Z</time>
</trkpt>
<trkpt lat="48.347542" lon="10.763355">
<ele>502.314</ele>
<time>2022-05-25T10:09:59Z</time>
</trkpt>
<trkpt lat="48.347523" lon="10.763405">
<ele>502.314</ele>
<time>2022-05-25T10:10:00Z</time>
</trkpt>
<trkpt lat="48.347496" lon="10.763458">
<ele>502.567</ele>
<time>2022-05-25T10:10:01Z</time>
</trkpt>
<trkpt lat="48.347473" lon="10.763514">
<ele>502.766</ele>
<time>2022-05-25T10:10:02Z</time>
</trkpt>
<trkpt lat="48.347454" lon="10.763572">
<ele>502.913</ele>
<time>2022-05-25T10:10:03Z</time>
</trkpt>
<trkpt lat="48.347431" lon="10.763625">
<ele>503.016</ele>
<time>2022-05-25T10:10:04Z</time>
</trkpt>
<trkpt lat="48.347408" lon="10.763678">
<ele>503.09</ele>
<time>2022-05-25T10:10:05Z</time>
</trkpt>
<trkpt lat="48.347389" lon="10.76373">
<ele>503.141</ele>
<time>2022-05-25T10:10:06Z</time>
</trkpt>
<trkpt lat="48.347363" lon="10.763782">
<ele>503.162</ele>
<time>2022-05-25T10:10:07Z</time>
</trkpt>
<trkpt lat="48.34734" lon="10.763824">
<ele>503.181</ele>
<time>2022-05-25T10:10:08Z</time>
</trkpt>
<trkpt lat="48.347328" lon="10.763864">
<ele>503.181</ele>
<time>2022-05-25T10:10:09Z</time>
</trkpt>
<trkpt lat="48.347313" lon="10.763893">
<ele>503.181</ele>
<time>2022-05-25T10:10:10Z</time>
</trkpt>
<trkpt lat="48.347301" lon="10.763915">
<ele>503.181</ele>
<time>2022-05-25T10:10:11Z</time>
</trkpt>
<trkpt lat="48.347298" lon="10.763928">
<ele>503.409</ele>
<time>2022-05-25T10:10:12Z</time>
</trkpt>
<trkpt lat="48.347298" lon="10.76393">
<ele>503.584</ele>
<time>2022-05-25T10:10:13Z</time>
</trkpt>
<trkpt lat="48.347286" lon="10.763935">
<ele>503.842</ele>
<time>2022-05-25T10:10:15Z</time>
</trkpt>
<trkpt lat="48.347267" lon="10.76394">
<ele>503.939</ele>
<time>2022-05-25T10:10:16Z</time>
</trkpt>
<trkpt lat="48.347252" lon="10.763942">
<ele>504.015</ele>
<time>2022-05-25T10:10:17Z</time>
</trkpt>
<trkpt lat="48.347229" lon="10.763946">
<ele>504.085</ele>
<time>2022-05-25T10:10:18Z</time>
</trkpt>
<trkpt lat="48.347198" lon="10.76395">
<ele>504.134</ele>
<time>2022-05-25T10:10:19Z</time>
</trkpt>
<trkpt lat="48.347168" lon="10.763953">
<ele>504.134</ele>
<time>2022-05-25T10:10:20Z</time>
</trkpt>
<trkpt lat="48.347137" lon="10.763953">
<ele>504.134</ele>
<time>2022-05-25T10:10:21Z</time>
</trkpt>
<trkpt lat="48.347103" lon="10.763946">
<ele>504.134</ele>
<time>2022-05-25T10:10:22Z</time>
</trkpt>
<trkpt lat="48.347069" lon="10.763928">
<ele>504.134</ele>
<time>2022-05-25T10:10:23Z</time>
</trkpt>
<trkpt lat="48.347034" lon="10.763897">
<ele>504.134</ele>
<time>2022-05-25T10:10:24Z</time>
</trkpt>
<trkpt lat="48.346996" lon="10.763862">
<ele>504.134</ele>
<time>2022-05-25T10:10:25Z</time>
</trkpt>
<trkpt lat="48.346966" lon="10.763824">
<ele>504.134</ele>
<time>2022-05-25T10:10:26Z</time>
</trkpt>
<trkpt lat="48.346931" lon="10.763782">
<ele>504.134</ele>
<time>2022-05-25T10:10:27Z</time>
</trkpt>
<trkpt lat="48.346901" lon="10.763737">
<ele>504.134</ele>
<time>2022-05-25T10:10:28Z</time>
</trkpt>
<trkpt lat="48.34687" lon="10.76369">
<ele>504.134</ele>
<time>2022-05-25T10:10:29Z</time>
</trkpt>
<trkpt lat="48.34684" lon="10.763643">
<ele>504.134</ele>
<time>2022-05-25T10:10:30Z</time>
</trkpt>
<trkpt lat="48.346806" lon="10.763596">
<ele>504.134</ele>
<time>2022-05-25T10:10:31Z</time>
</trkpt>
<trkpt lat="48.346771" lon="10.763547">
<ele>504.134</ele>
<time>2022-05-25T10:10:32Z</time>
</trkpt>
<trkpt lat="48.346741" lon="10.763495">
<ele>504.134</ele>
<time>2022-05-25T10:10:33Z</time>
</trkpt>
<trkpt lat="48.34671" lon="10.76344">
<ele>504.134</ele>
<time>2022-05-25T10:10:34Z</time>
</trkpt>
<trkpt lat="48.34668" lon="10.763385">
<ele>504.134</ele>
<time>2022-05-25T10:10:35Z</time>
</trkpt>
<trkpt lat="48.346645" lon="10.763331">
<ele>504.134</ele>
<time>2022-05-25T10:10:36Z</time>
</trkpt>
<trkpt lat="48.346615" lon="10.76328">
<ele>504.134</ele>
<time>2022-05-25T10:10:37Z</time>
</trkpt>
<trkpt lat="48.346581" lon="10.763228">
<ele>504.134</ele>
<time>2022-05-25T10:10:38Z</time>
</trkpt>
<trkpt lat="48.346546" lon="10.763179">
<ele>504.134</ele>
<time>2022-05-25T10:10:39Z</time>
</trkpt>
<trkpt lat="48.346516" lon="10.763128">
<ele>504.134</ele>
<time>2022-05-25T10:10:40Z</time>
</trkpt>
<trkpt lat="48.346481" lon="10.763081">
<ele>504.134</ele>
<time>2022-05-25T10:10:41Z</time>
</trkpt>
<trkpt lat="48.346443" lon="10.76303">
<ele>504.134</ele>
<time>2022-05-25T10:10:42Z</time>
</trkpt>
<trkpt lat="48.346409" lon="10.762981">
<ele>504.134</ele>
<time>2022-05-25T10:10:43Z</time>
</trkpt>
<trkpt lat="48.346371" lon="10.762934">
<ele>504.134</ele>
<time>2022-05-25T10:10:44Z</time>
</trkpt>
<trkpt lat="48.346333" lon="10.762883">
<ele>504.134</ele>
<time>2022-05-25T10:10:45Z</time>
</trkpt>
<trkpt lat="48.346294" lon="10.762832">
<ele>504.134</ele>
<time>2022-05-25T10:10:46Z</time>
</trkpt>
<trkpt lat="48.346256" lon="10.762778">
<ele>504.134</ele>
<time>2022-05-25T10:10:47Z</time>
</trkpt>
<trkpt lat="48.346222" lon="10.762727">
<ele>504.134</ele>
<time>2022-05-25T10:10:48Z</time>
</trkpt>
<trkpt lat="48.346188" lon="10.762675">
<ele>504.134</ele>
<time>2022-05-25T10:10:49Z</time>
</trkpt>
<trkpt lat="48.346149" lon="10.762626">
<ele>504.134</ele>
<time>2022-05-25T10:10:50Z</time>
</trkpt>
<trkpt lat="48.346111" lon="10.762577">
<ele>504.134</ele>
<time>2022-05-25T10:10:51Z</time>
</trkpt>
<trkpt lat="48.346073" lon="10.762525">
<ele>504.134</ele>
<time>2022-05-25T10:10:52Z</time>
</trkpt>
<trkpt lat="48.346039" lon="10.762473">
<ele>504.134</ele>
<time>2022-05-25T10:10:53Z</time>
</trkpt>
<trkpt lat="48.346001" lon="10.76242">
<ele>504.134</ele>
<time>2022-05-25T10:10:54Z</time>
</trkpt>
<trkpt lat="48.345966" lon="10.762368">
<ele>504.134</ele>
<time>2022-05-25T10:10:55Z</time>
</trkpt>
<trkpt lat="48.345932" lon="10.762318">
<ele>504.134</ele>
<time>2022-05-25T10:10:56Z</time>
</trkpt>
<trkpt lat="48.345898" lon="10.762268">
<ele>504.134</ele>
<time>2022-05-25T10:10:57Z</time>
</trkpt>
<trkpt lat="48.345863" lon="10.762218">
<ele>504.134</ele>
<time>2022-05-25T10:10:58Z</time>
</trkpt>
<trkpt lat="48.345829" lon="10.76217">
<ele>504.134</ele>
<time>2022-05-25T10:10:59Z</time>
</trkpt>
<trkpt lat="48.345798" lon="10.762118">
<ele>504.134</ele>
<time>2022-05-25T10:11:00Z</time>
</trkpt>
<trkpt lat="48.345764" lon="10.762071">
<ele>504.134</ele>
<time>2022-05-25T10:11:01Z</time>
</trkpt>
<trkpt lat="48.345734" lon="10.76202">
<ele>504.134</ele>
<time>2022-05-25T10:11:02Z</time>
</trkpt>
<trkpt lat="48.345699" lon="10.761971">
<ele>504.134</ele>
<time>2022-05-25T10:11:03Z</time>
</trkpt>
<trkpt lat="48.345669" lon="10.761926">
<ele>504.134</ele>
<time>2022-05-25T10:11:04Z</time>
</trkpt>
<trkpt lat="48.345638" lon="10.761876">
<ele>504.134</ele>
<time>2022-05-25T10:11:05Z</time>
</trkpt>
<trkpt lat="48.345608" lon="10.761827">
<ele>504.134</ele>
<time>2022-05-25T10:11:06Z</time>
</trkpt>
<trkpt lat="48.345577" lon="10.76178">
<ele>504.134</ele>
<time>2022-05-25T10:11:07Z</time>
</trkpt>
<trkpt lat="48.345543" lon="10.761731">
<ele>504.134</ele>
<time>2022-05-25T10:11:08Z</time>
</trkpt>
<trkpt lat="48.345512" lon="10.761689">
<ele>504.134</ele>
<time>2022-05-25T10:11:09Z</time>
</trkpt>
<trkpt lat="48.345478" lon="10.761648">
<ele>504.134</ele>
<time>2022-05-25T10:11:10Z</time>
</trkpt>
<trkpt lat="48.345444" lon="10.761608">
<ele>504.134</ele>
<time>2022-05-25T10:11:11Z</time>
</trkpt>
<trkpt lat="48.345417" lon="10.761567">
<ele>504.134</ele>
<time>2022-05-25T10:11:12Z</time>
</trkpt>
<trkpt lat="48.345383" lon="10.761521">
<ele>504.134</ele>
<time>2022-05-25T10:11:13Z</time>
</trkpt>
<trkpt lat="48.345356" lon="10.761477">
<ele>504.134</ele>
<time>2022-05-25T10:11:14Z</time>
</trkpt>
<trkpt lat="48.345325" lon="10.761432">
<ele>504.134</ele>
<time>2022-05-25T10:11:15Z</time>
</trkpt>
<trkpt lat="48.345299" lon="10.761387">
<ele>504.134</ele>
<time>2022-05-25T10:11:16Z</time>
</trkpt>
<trkpt lat="48.345268" lon="10.76134">
<ele>504.134</ele>
<time>2022-05-25T10:11:17Z</time>
</trkpt>
<trkpt lat="48.345238" lon="10.761295">
<ele>504.134</ele>
<time>2022-05-25T10:11:18Z</time>
</trkpt>
<trkpt lat="48.345203" lon="10.76125">
<ele>504.369</ele>
<time>2022-05-25T10:11:19Z</time>
</trkpt>
<trkpt lat="48.345173" lon="10.761205">
<ele>504.564</ele>
<time>2022-05-25T10:11:20Z</time>
</trkpt>
<trkpt lat="48.345142" lon="10.76116">
<ele>504.723</ele>
<time>2022-05-25T10:11:21Z</time>
</trkpt>
<trkpt lat="48.345112" lon="10.761115">
<ele>504.853</ele>
<time>2022-05-25T10:11:22Z</time>
</trkpt>
<trkpt lat="48.345081" lon="10.761071">
<ele>504.95</ele>
<time>2022-05-25T10:11:23Z</time>
</trkpt>
<trkpt lat="48.345055" lon="10.761027">
<ele>505.02</ele>
<time>2022-05-25T10:11:24Z</time>
</trkpt>
<trkpt lat="48.345028" lon="10.760982">
<ele>505.066</ele>
<time>2022-05-25T10:11:25Z</time>
</trkpt>
<trkpt lat="48.344997" lon="10.760939">
<ele>505.088</ele>
<time>2022-05-25T10:11:26Z</time>
</trkpt>
<trkpt lat="48.344963" lon="10.760891">
<ele>505.088</ele>
<time>2022-05-25T10:11:27Z</time>
</trkpt>
<trkpt lat="48.344936" lon="10.760847">
<ele>505.088</ele>
<time>2022-05-25T10:11:28Z</time>
</trkpt>
<trkpt lat="48.344906" lon="10.760805">
<ele>505.088</ele>
<time>2022-05-25T10:11:29Z</time>
</trkpt>
<trkpt lat="48.344875" lon="10.760761">
<ele>505.088</ele>
<time>2022-05-25T10:11:30Z</time>
</trkpt>
<trkpt lat="48.344849" lon="10.760716">
<ele>505.339</ele>
<time>2022-05-25T10:11:31Z</time>
</trkpt>
<trkpt lat="48.344818" lon="10.760671">
<ele>505.532</ele>
<time>2022-05-25T10:11:32Z</time>
</trkpt>
<trkpt lat="48.344791" lon="10.760625">
<ele>505.682</ele>
<time>2022-05-25T10:11:33Z</time>
</trkpt>
<trkpt lat="48.344765" lon="10.76058">
<ele>505.785</ele>
<time>2022-05-25T10:11:34Z</time>
</trkpt>
<trkpt lat="48.344738" lon="10.760537">
<ele>505.86</ele>
<time>2022-05-25T10:11:35Z</time>
</trkpt>
<trkpt lat="48.344711" lon="10.76049">
<ele>505.908</ele>
<time>2022-05-25T10:11:36Z</time>
</trkpt>
<trkpt lat="48.344685" lon="10.760445">
<ele>505.935</ele>
<time>2022-05-25T10:11:37Z</time>
</trkpt>
<trkpt lat="48.344658" lon="10.760399">
<ele>505.956</ele>
<time>2022-05-25T10:11:38Z</time>
</trkpt>
<trkpt lat="48.344627" lon="10.760355">
<ele>505.955</ele>
<time>2022-05-25T10:11:39Z</time>
</trkpt>
<trkpt lat="48.344597" lon="10.760306">
<ele>505.956</ele>
<time>2022-05-25T10:11:40Z</time>
</trkpt>
<trkpt lat="48.34457" lon="10.760259">
<ele>505.956</ele>
<time>2022-05-25T10:11:41Z</time>
</trkpt>
<trkpt lat="48.344543" lon="10.760208">
<ele>505.955</ele>
<time>2022-05-25T10:11:42Z</time>
</trkpt>
<trkpt lat="48.344517" lon="10.760158">
<ele>505.955</ele>
<time>2022-05-25T10:11:43Z</time>
</trkpt>
<trkpt lat="48.344486" lon="10.76011">
<ele>505.955</ele>
<time>2022-05-25T10:11:44Z</time>
</trkpt>
<trkpt lat="48.34446" lon="10.760061">
<ele>505.955</ele>
<time>2022-05-25T10:11:45Z</time>
</trkpt>
<trkpt lat="48.344429" lon="10.760014">
<ele>505.955</ele>
<time>2022-05-25T10:11:46Z</time>
</trkpt>
<trkpt lat="48.344395" lon="10.759963">
<ele>505.956</ele>
<time>2022-05-25T10:11:47Z</time>
</trkpt>
<trkpt lat="48.344368" lon="10.759912">
<ele>505.956</ele>
<time>2022-05-25T10:11:48Z</time>
</trkpt>
<trkpt lat="48.344337" lon="10.759862">
<ele>505.956</ele>
<time>2022-05-25T10:11:49Z</time>
</trkpt>
<trkpt lat="48.344311" lon="10.759809">
<ele>505.955</ele>
<time>2022-05-25T10:11:50Z</time>
</trkpt>
<trkpt lat="48.34428" lon="10.759758">
<ele>505.956</ele>
<time>2022-05-25T10:11:51Z</time>
</trkpt>
<trkpt lat="48.34425" lon="10.759706">
<ele>505.955</ele>
<time>2022-05-25T10:11:52Z</time>
</trkpt>
<trkpt lat="48.344215" lon="10.759655">
<ele>505.955</ele>
<time>2022-05-25T10:11:53Z</time>
</trkpt>
<trkpt lat="48.344185" lon="10.759602">
<ele>505.955</ele>
<time>2022-05-25T10:11:54Z</time>
</trkpt>
<trkpt lat="48.344154" lon="10.759548">
<ele>505.955</ele>
<time>2022-05-25T10:11:55Z</time>
</trkpt>
<trkpt lat="48.344124" lon="10.759496">
<ele>505.955</ele>
<time>2022-05-25T10:11:56Z</time>
</trkpt>
<trkpt lat="48.34409" lon="10.759443">
<ele>505.955</ele>
<time>2022-05-25T10:11:57Z</time>
</trkpt>
<trkpt lat="48.344059" lon="10.759393">
<ele>505.955</ele>
<time>2022-05-25T10:11:58Z</time>
</trkpt>
<trkpt lat="48.344028" lon="10.759342">
<ele>505.955</ele>
<time>2022-05-25T10:11:59Z</time>
</trkpt>
<trkpt lat="48.343994" lon="10.759288">
<ele>505.955</ele>
<time>2022-05-25T10:12:00Z</time>
</trkpt>
<trkpt lat="48.343964" lon="10.759235">
<ele>505.956</ele>
<time>2022-05-25T10:12:01Z</time>
</trkpt>
<trkpt lat="48.343933" lon="10.75918">
<ele>505.956</ele>
<time>2022-05-25T10:12:02Z</time>
</trkpt>
<trkpt lat="48.343903" lon="10.759125">
<ele>505.956</ele>
<time>2022-05-25T10:12:03Z</time>
</trkpt>
<trkpt lat="48.343868" lon="10.75907">
<ele>505.956</ele>
<time>2022-05-25T10:12:04Z</time>
</trkpt>
<trkpt lat="48.343834" lon="10.759015">
<ele>505.955</ele>
<time>2022-05-25T10:12:05Z</time>
</trkpt>
<trkpt lat="48.343803" lon="10.75896">
<ele>505.955</ele>
<time>2022-05-25T10:12:06Z</time>
</trkpt>
<trkpt lat="48.343773" lon="10.758904">
<ele>505.956</ele>
<time>2022-05-25T10:12:07Z</time>
</trkpt>
<trkpt lat="48.343742" lon="10.758846">
<ele>505.956</ele>
<time>2022-05-25T10:12:08Z</time>
</trkpt>
<trkpt lat="48.343716" lon="10.758788">
<ele>505.955</ele>
<time>2022-05-25T10:12:09Z</time>
</trkpt>
<trkpt lat="48.343693" lon="10.758731">
<ele>505.955</ele>
<time>2022-05-25T10:12:10Z</time>
</trkpt>
<trkpt lat="48.343666" lon="10.758677">
<ele>505.955</ele>
<time>2022-05-25T10:12:11Z</time>
</trkpt>
<trkpt lat="48.343636" lon="10.758624">
<ele>505.956</ele>
<time>2022-05-25T10:12:12Z</time>
</trkpt>
<trkpt lat="48.343609" lon="10.758574">
<ele>505.955</ele>
<time>2022-05-25T10:12:13Z</time>
</trkpt>
<trkpt lat="48.343582" lon="10.758523">
<ele>505.956</ele>
<time>2022-05-25T10:12:14Z</time>
</trkpt>
<trkpt lat="48.343552" lon="10.758471">
<ele>505.956</ele>
<time>2022-05-25T10:12:15Z</time>
</trkpt>
<trkpt lat="48.343525" lon="10.758421">
<ele>505.956</ele>
<time>2022-05-25T10:12:16Z</time>
</trkpt>
<trkpt lat="48.343494" lon="10.75837">
<ele>505.956</ele>
<time>2022-05-25T10:12:17Z</time>
</trkpt>
<trkpt lat="48.343464" lon="10.758316">
<ele>505.956</ele>
<time>2022-05-25T10:12:18Z</time>
</trkpt>
<trkpt lat="48.343437" lon="10.758264">
<ele>505.955</ele>
<time>2022-05-25T10:12:19Z</time>
</trkpt>
<trkpt lat="48.343407" lon="10.758211">
<ele>505.955</ele>
<time>2022-05-25T10:12:20Z</time>
</trkpt>
<trkpt lat="48.343376" lon="10.758157">
<ele>505.955</ele>
<time>2022-05-25T10:12:21Z</time>
</trkpt>
<trkpt lat="48.343349" lon="10.758101">
<ele>505.956</ele>
<time>2022-05-25T10:12:22Z</time>
</trkpt>
<trkpt lat="48.343323" lon="10.758041">
<ele>505.955</ele>
<time>2022-05-25T10:12:23Z</time>
</trkpt>
<trkpt lat="48.3433" lon="10.757981">
<ele>505.956</ele>
<time>2022-05-25T10:12:24Z</time>
</trkpt>
<trkpt lat="48.343285" lon="10.757916">
<ele>505.955</ele>
<time>2022-05-25T10:12:25Z</time>
</trkpt>
<trkpt lat="48.343266" lon="10.757852">
<ele>505.955</ele>
<time>2022-05-25T10:12:26Z</time>
</trkpt>
<trkpt lat="48.34325" lon="10.757787">
<ele>505.956</ele>
<time>2022-05-25T10:12:27Z</time>
</trkpt>
<trkpt lat="48.343235" lon="10.757721">
<ele>505.955</ele>
<time>2022-05-25T10:12:28Z</time>
</trkpt>
<trkpt lat="48.34322" lon="10.757658">
<ele>505.955</ele>
<time>2022-05-25T10:12:29Z</time>
</trkpt>
<trkpt lat="48.343197" lon="10.757595">
<ele>505.955</ele>
<time>2022-05-25T10:12:30Z</time>
</trkpt>
<trkpt lat="48.34317" lon="10.757539">
<ele>505.703</ele>
<time>2022-05-25T10:12:31Z</time>
</trkpt>
<trkpt lat="48.343136" lon="10.75749">
<ele>505.511</ele>
<time>2022-05-25T10:12:32Z</time>
</trkpt>
<trkpt lat="48.343102" lon="10.757457">
<ele>505.365</ele>
<time>2022-05-25T10:12:33Z</time>
</trkpt>
<trkpt lat="48.343067" lon="10.757442">
<ele>505.258</ele>
<time>2022-05-25T10:12:34Z</time>
</trkpt>
<trkpt lat="48.343029" lon="10.75745">
<ele>505.195</ele>
<time>2022-05-25T10:12:35Z</time>
</trkpt>
<trkpt lat="48.342999" lon="10.757475">
<ele>504.916</ele>
<time>2022-05-25T10:12:36Z</time>
</trkpt>
<trkpt lat="48.34296" lon="10.757516">
<ele>504.731</ele>
<time>2022-05-25T10:12:37Z</time>
</trkpt>
<trkpt lat="48.342926" lon="10.757566">
<ele>504.323</ele>
<time>2022-05-25T10:12:38Z</time>
</trkpt>
<trkpt lat="48.342888" lon="10.757612">
<ele>503.952</ele>
<time>2022-05-25T10:12:39Z</time>
</trkpt>
<trkpt lat="48.34285" lon="10.75766">
<ele>503.648</ele>
<time>2022-05-25T10:12:40Z</time>
</trkpt>
<trkpt lat="48.342808" lon="10.757711">
<ele>503.408</ele>
<time>2022-05-25T10:12:41Z</time>
</trkpt>
<trkpt lat="48.342766" lon="10.757756">
<ele>503.248</ele>
<time>2022-05-25T10:12:42Z</time>
</trkpt>
<trkpt lat="48.342728" lon="10.757805">
<ele>503.157</ele>
<time>2022-05-25T10:12:43Z</time>
</trkpt>
<trkpt lat="48.342693" lon="10.757851">
<ele>503.114</ele>
<time>2022-05-25T10:12:44Z</time>
</trkpt>
<trkpt lat="48.342659" lon="10.757894">
<ele>503.293</ele>
<time>2022-05-25T10:12:45Z</time>
</trkpt>
<trkpt lat="48.342625" lon="10.757936">
<ele>503.328</ele>
<time>2022-05-25T10:12:46Z</time>
</trkpt>
<trkpt lat="48.34259" lon="10.757975">
<ele>503.512</ele>
<time>2022-05-25T10:12:47Z</time>
</trkpt>
<trkpt lat="48.34256" lon="10.758018">
<ele>503.639</ele>
<time>2022-05-25T10:12:48Z</time>
</trkpt>
<trkpt lat="48.342529" lon="10.758065">
<ele>503.769</ele>
<time>2022-05-25T10:12:49Z</time>
</trkpt>
<trkpt lat="48.342491" lon="10.758113">
<ele>504.109</ele>
<time>2022-05-25T10:12:50Z</time>
</trkpt>
<trkpt lat="48.342457" lon="10.758159">
<ele>504.388</ele>
<time>2022-05-25T10:12:51Z</time>
</trkpt>
<trkpt lat="48.342426" lon="10.758199">
<ele>504.576</ele>
<time>2022-05-25T10:12:52Z</time>
</trkpt>
<trkpt lat="48.342392" lon="10.758237">
<ele>504.956</ele>
<time>2022-05-25T10:12:53Z</time>
</trkpt>
<trkpt lat="48.342358" lon="10.758278">
<ele>505.311</ele>
<time>2022-05-25T10:12:54Z</time>
</trkpt>
<trkpt lat="48.342327" lon="10.758316">
<ele>505.765</ele>
<time>2022-05-25T10:12:55Z</time>
</trkpt>
<trkpt lat="48.3423" lon="10.758355">
<ele>506.085</ele>
<time>2022-05-25T10:12:56Z</time>
</trkpt>
<trkpt lat="48.34227" lon="10.758393">
<ele>506.305</ele>
<time>2022-05-25T10:12:57Z</time>
</trkpt>
<trkpt lat="48.342243" lon="10.75843">
<ele>506.469</ele>
<time>2022-05-25T10:12:58Z</time>
</trkpt>
<trkpt lat="48.342216" lon="10.758467">
<ele>506.637</ele>
<time>2022-05-25T10:12:59Z</time>
</trkpt>
<trkpt lat="48.342186" lon="10.758502">
<ele>506.74</ele>
<time>2022-05-25T10:13:00Z</time>
</trkpt>
<trkpt lat="48.342159" lon="10.758534">
<ele>507.04</ele>
<time>2022-05-25T10:13:01Z</time>
</trkpt>
<trkpt lat="48.342129" lon="10.75857">
<ele>507.277</ele>
<time>2022-05-25T10:13:02Z</time>
</trkpt>
<trkpt lat="48.342102" lon="10.758607">
<ele>507.532</ele>
<time>2022-05-25T10:13:03Z</time>
</trkpt>
<trkpt lat="48.342075" lon="10.758645">
<ele>507.665</ele>
<time>2022-05-25T10:13:04Z</time>
</trkpt>
<trkpt lat="48.342049" lon="10.758681">
<ele>507.75</ele>
<time>2022-05-25T10:13:05Z</time>
</trkpt>
<trkpt lat="48.342018" lon="10.758718">
<ele>507.807</ele>
<time>2022-05-25T10:13:06Z</time>
</trkpt>
<trkpt lat="48.341984" lon="10.758755">
<ele>507.84</ele>
<time>2022-05-25T10:13:07Z</time>
</trkpt>
<trkpt lat="48.341957" lon="10.75879">
<ele>507.863</ele>
<time>2022-05-25T10:13:08Z</time>
</trkpt>
<trkpt lat="48.341927" lon="10.758821">
<ele>507.863</ele>
<time>2022-05-25T10:13:09Z</time>
</trkpt>
<trkpt lat="48.3419" lon="10.758857">
<ele>507.863</ele>
<time>2022-05-25T10:13:10Z</time>
</trkpt>
<trkpt lat="48.341877" lon="10.758892">
<ele>507.863</ele>
<time>2022-05-25T10:13:11Z</time>
</trkpt>
<trkpt lat="48.34185" lon="10.758924">
<ele>508.126</ele>
<time>2022-05-25T10:13:12Z</time>
</trkpt>
<trkpt lat="48.341824" lon="10.758953">
<ele>508.333</ele>
<time>2022-05-25T10:13:13Z</time>
</trkpt>
<trkpt lat="48.341805" lon="10.758985">
<ele>508.484</ele>
<time>2022-05-25T10:13:14Z</time>
</trkpt>
<trkpt lat="48.341782" lon="10.759015">
<ele>508.604</ele>
<time>2022-05-25T10:13:15Z</time>
</trkpt>
<trkpt lat="48.341759" lon="10.75904">
<ele>508.69</ele>
<time>2022-05-25T10:13:16Z</time>
</trkpt>
<trkpt lat="48.341743" lon="10.759058">
<ele>508.743</ele>
<time>2022-05-25T10:13:17Z</time>
</trkpt>
<trkpt lat="48.341728" lon="10.759073">
<ele>508.787</ele>
<time>2022-05-25T10:13:18Z</time>
</trkpt>
<trkpt lat="48.341724" lon="10.759081">
<ele>508.817</ele>
<time>2022-05-25T10:13:19Z</time>
</trkpt>
<trkpt lat="48.341724" lon="10.759085">
<ele>508.817</ele>
<time>2022-05-25T10:13:20Z</time>
</trkpt>
<trkpt lat="48.341724" lon="10.759083">
<ele>509.004</ele>
<time>2022-05-25T10:13:21Z</time>
</trkpt>
<trkpt lat="48.341724" lon="10.759081">
<ele>509.159</ele>
<time>2022-05-25T10:13:22Z</time>
</trkpt>
<trkpt lat="48.34169" lon="10.759097">
<ele>509.307</ele>
<time>2022-05-25T10:13:50Z</time>
</trkpt>
<trkpt lat="48.341675" lon="10.75912">
<ele>509.442</ele>
<time>2022-05-25T10:13:51Z</time>
</trkpt>
<trkpt lat="48.341652" lon="10.759153">
<ele>509.553</ele>
<time>2022-05-25T10:13:52Z</time>
</trkpt>
<trkpt lat="48.341625" lon="10.759198">
<ele>509.628</ele>
<time>2022-05-25T10:13:53Z</time>
</trkpt>
<trkpt lat="48.341591" lon="10.759253">
<ele>509.672</ele>
<time>2022-05-25T10:13:54Z</time>
</trkpt>
<trkpt lat="48.341549" lon="10.759309">
<ele>509.685</ele>
<time>2022-05-25T10:13:55Z</time>
</trkpt>
<trkpt lat="48.341499" lon="10.759365">
<ele>509.685</ele>
<time>2022-05-25T10:13:56Z</time>
</trkpt>
<trkpt lat="48.341457" lon="10.759418">
<ele>509.685</ele>
<time>2022-05-25T10:13:57Z</time>
</trkpt>
<trkpt lat="48.341415" lon="10.759472">
<ele>509.685</ele>
<time>2022-05-25T10:13:58Z</time>
</trkpt>
<trkpt lat="48.341381" lon="10.759527">
<ele>509.685</ele>
<time>2022-05-25T10:13:59Z</time>
</trkpt>
<trkpt lat="48.341347" lon="10.759582">
<ele>509.685</ele>
<time>2022-05-25T10:14:00Z</time>
</trkpt>
<trkpt lat="48.341316" lon="10.759636">
<ele>509.685</ele>
<time>2022-05-25T10:14:01Z</time>
</trkpt>
<trkpt lat="48.34129" lon="10.759692">
<ele>509.685</ele>
<time>2022-05-25T10:14:02Z</time>
</trkpt>
<trkpt lat="48.341267" lon="10.759745">
<ele>509.685</ele>
<time>2022-05-25T10:14:03Z</time>
</trkpt>
<trkpt lat="48.341236" lon="10.759798">
<ele>509.904</ele>
<time>2022-05-25T10:14:04Z</time>
</trkpt>
<trkpt lat="48.341213" lon="10.75985">
<ele>510.068</ele>
<time>2022-05-25T10:14:05Z</time>
</trkpt>
<trkpt lat="48.341194" lon="10.759902">
<ele>510.237</ele>
<time>2022-05-25T10:14:06Z</time>
</trkpt>
<trkpt lat="48.341167" lon="10.759952">
<ele>510.374</ele>
<time>2022-05-25T10:14:07Z</time>
</trkpt>
<trkpt lat="48.341145" lon="10.760002">
<ele>510.483</ele>
<time>2022-05-25T10:14:08Z</time>
</trkpt>
<trkpt lat="48.341125" lon="10.760053">
<ele>510.555</ele>
<time>2022-05-25T10:14:09Z</time>
</trkpt>
<trkpt lat="48.341103" lon="10.760108">
<ele>510.84</ele>
<time>2022-05-25T10:14:10Z</time>
</trkpt>
<trkpt lat="48.34108" lon="10.760161">
<ele>511.061</ele>
<time>2022-05-25T10:14:11Z</time>
</trkpt>
<trkpt lat="48.341061" lon="10.760217">
<ele>511.226</ele>
<time>2022-05-25T10:14:12Z</time>
</trkpt>
<trkpt lat="48.341038" lon="10.760273">
<ele>511.574</ele>
<time>2022-05-25T10:14:13Z</time>
</trkpt>
<trkpt lat="48.341015" lon="10.760328">
<ele>511.836</ele>
<time>2022-05-25T10:14:14Z</time>
</trkpt>
<trkpt lat="48.340996" lon="10.76038">
<ele>512.026</ele>
<time>2022-05-25T10:14:15Z</time>
</trkpt>
<trkpt lat="48.340977" lon="10.760427">
<ele>512.205</ele>
<time>2022-05-25T10:14:16Z</time>
</trkpt>
<trkpt lat="48.340958" lon="10.760471">
<ele>512.318</ele>
<time>2022-05-25T10:14:17Z</time>
</trkpt>
<trkpt lat="48.340939" lon="10.760516">
<ele>512.614</ele>
<time>2022-05-25T10:14:18Z</time>
</trkpt>
<trkpt lat="48.340916" lon="10.760562">
<ele>512.852</ele>
<time>2022-05-25T10:14:19Z</time>
</trkpt>
<trkpt lat="48.340897" lon="10.760609">
<ele>513.033</ele>
<time>2022-05-25T10:14:20Z</time>
</trkpt>
<trkpt lat="48.340874" lon="10.760656">
<ele>513.224</ele>
<time>2022-05-25T10:14:21Z</time>
</trkpt>
<trkpt lat="48.340855" lon="10.760705">
<ele>513.297</ele>
<time>2022-05-25T10:14:22Z</time>
</trkpt>
<trkpt lat="48.340836" lon="10.760753">
<ele>513.601</ele>
<time>2022-05-25T10:14:23Z</time>
</trkpt>
<trkpt lat="48.340813" lon="10.760798">
<ele>513.821</ele>
<time>2022-05-25T10:14:24Z</time>
</trkpt>
<trkpt lat="48.34079" lon="10.760843">
<ele>513.977</ele>
<time>2022-05-25T10:14:25Z</time>
</trkpt>
<trkpt lat="48.340771" lon="10.760887">
<ele>514.117</ele>
<time>2022-05-25T10:14:26Z</time>
</trkpt>
<trkpt lat="48.340744" lon="10.76093">
<ele>514.214</ele>
<time>2022-05-25T10:14:27Z</time>
</trkpt>
<trkpt lat="48.340714" lon="10.760966">
<ele>514.526</ele>
<time>2022-05-25T10:14:28Z</time>
</trkpt>
<trkpt lat="48.340683" lon="10.761003">
<ele>514.771</ele>
<time>2022-05-25T10:14:29Z</time>
</trkpt>
<trkpt lat="48.340656" lon="10.761037">
<ele>514.957</ele>
<time>2022-05-25T10:14:30Z</time>
</trkpt>
<trkpt lat="48.340626" lon="10.761065">
<ele>515.117</ele>
<time>2022-05-25T10:14:31Z</time>
</trkpt>
<trkpt lat="48.340591" lon="10.761095">
<ele>515.441</ele>
<time>2022-05-25T10:14:32Z</time>
</trkpt>
<trkpt lat="48.340561" lon="10.76112">
<ele>515.664</ele>
<time>2022-05-25T10:14:33Z</time>
</trkpt>
<trkpt lat="48.340523" lon="10.761142">
<ele>515.834</ele>
<time>2022-05-25T10:14:34Z</time>
</trkpt>
<trkpt lat="48.340488" lon="10.76116">
<ele>515.95</ele>
<time>2022-05-25T10:14:35Z</time>
</trkpt>
<trkpt lat="48.34045" lon="10.761176">
<ele>516.052</ele>
<time>2022-05-25T10:14:36Z</time>
</trkpt>
<trkpt lat="48.340416" lon="10.761193">
<ele>516.124</ele>
<time>2022-05-25T10:14:37Z</time>
</trkpt>
<trkpt lat="48.340378" lon="10.761213">
<ele>516.172</ele>
<time>2022-05-25T10:14:38Z</time>
</trkpt>
<trkpt lat="48.34034" lon="10.76123">
<ele>516.193</ele>
<time>2022-05-25T10:14:39Z</time>
</trkpt>
<trkpt lat="48.340298" lon="10.761249">
<ele>516.457</ele>
<time>2022-05-25T10:14:40Z</time>
</trkpt>
<trkpt lat="48.340263" lon="10.761264">
<ele>516.663</ele>
<time>2022-05-25T10:14:41Z</time>
</trkpt>
<trkpt lat="48.340225" lon="10.76128">
<ele>516.815</ele>
<time>2022-05-25T10:14:42Z</time>
</trkpt>
<trkpt lat="48.340191" lon="10.761297">
<ele>516.925</ele>
<time>2022-05-25T10:14:43Z</time>
</trkpt>
<trkpt lat="48.340153" lon="10.761312">
<ele>517.009</ele>
<time>2022-05-25T10:14:44Z</time>
</trkpt>
<trkpt lat="48.340115" lon="10.761331">
<ele>517.068</ele>
<time>2022-05-25T10:14:45Z</time>
</trkpt>
<trkpt lat="48.340076" lon="10.761347">
<ele>517.122</ele>
<time>2022-05-25T10:14:46Z</time>
</trkpt>
<trkpt lat="48.340042" lon="10.761365">
<ele>517.148</ele>
<time>2022-05-25T10:14:47Z</time>
</trkpt>
<trkpt lat="48.340004" lon="10.761381">
<ele>517.148</ele>
<time>2022-05-25T10:14:48Z</time>
</trkpt>
<trkpt lat="48.339966" lon="10.761396">
<ele>517.148</ele>
<time>2022-05-25T10:14:49Z</time>
</trkpt>
<trkpt lat="48.339931" lon="10.761412">
<ele>517.406</ele>
<time>2022-05-25T10:14:50Z</time>
</trkpt>
<trkpt lat="48.339893" lon="10.761425">
<ele>517.607</ele>
<time>2022-05-25T10:14:51Z</time>
</trkpt>
<trkpt lat="48.339859" lon="10.761442">
<ele>517.762</ele>
<time>2022-05-25T10:14:52Z</time>
</trkpt>
<trkpt lat="48.339821" lon="10.761458">
<ele>517.878</ele>
<time>2022-05-25T10:14:53Z</time>
</trkpt>
<trkpt lat="48.339783" lon="10.761476">
<ele>517.964</ele>
<time>2022-05-25T10:14:54Z</time>
</trkpt>
<trkpt lat="48.339745" lon="10.761488">
<ele>518.024</ele>
<time>2022-05-25T10:14:55Z</time>
</trkpt>
<trkpt lat="48.33971" lon="10.761503">
<ele>518.076</ele>
<time>2022-05-25T10:14:56Z</time>
</trkpt>
<trkpt lat="48.339676" lon="10.761521">
<ele>518.312</ele>
<time>2022-05-25T10:14:57Z</time>
</trkpt>
<trkpt lat="48.339642" lon="10.761539">
<ele>518.556</ele>
<time>2022-05-25T10:14:58Z</time>
</trkpt>
<trkpt lat="48.339607" lon="10.761553">
<ele>518.713</ele>
<time>2022-05-25T10:14:59Z</time>
</trkpt>
<trkpt lat="48.339577" lon="10.761568">
<ele>518.819</ele>
<time>2022-05-25T10:15:00Z</time>
</trkpt>
<trkpt lat="48.339546" lon="10.761586">
<ele>518.898</ele>
<time>2022-05-25T10:15:01Z</time>
</trkpt>
<trkpt lat="48.339523" lon="10.761608">
<ele>518.948</ele>
<time>2022-05-25T10:15:02Z</time>
</trkpt>
<trkpt lat="48.3395" lon="10.761642">
<ele>518.966</ele>
<time>2022-05-25T10:15:03Z</time>
</trkpt>
<trkpt lat="48.339478" lon="10.761687">
<ele>518.971</ele>
<time>2022-05-25T10:15:04Z</time>
</trkpt>
<trkpt lat="48.339474" lon="10.76174">
<ele>518.972</ele>
<time>2022-05-25T10:15:05Z</time>
</trkpt>
<trkpt lat="48.33947" lon="10.761796">
<ele>518.971</ele>
<time>2022-05-25T10:15:06Z</time>
</trkpt>
<trkpt lat="48.339474" lon="10.761855">
<ele>518.971</ele>
<time>2022-05-25T10:15:07Z</time>
</trkpt>
<trkpt lat="48.339478" lon="10.761911">
<ele>519.258</ele>
<time>2022-05-25T10:15:08Z</time>
</trkpt>
<trkpt lat="48.339489" lon="10.761967">
<ele>519.477</ele>
<time>2022-05-25T10:15:09Z</time>
</trkpt>
<trkpt lat="48.3395" lon="10.762023">
<ele>519.639</ele>
<time>2022-05-25T10:15:10Z</time>
</trkpt>
<trkpt lat="48.339504" lon="10.762081">
<ele>519.75</ele>
<time>2022-05-25T10:15:11Z</time>
</trkpt>
<trkpt lat="48.339512" lon="10.76214">
<ele>519.827</ele>
<time>2022-05-25T10:15:12Z</time>
</trkpt>
<trkpt lat="48.33952" lon="10.7622">
<ele>519.876</ele>
<time>2022-05-25T10:15:13Z</time>
</trkpt>
<trkpt lat="48.339523" lon="10.762259">
<ele>519.905</ele>
<time>2022-05-25T10:15:14Z</time>
</trkpt>
<trkpt lat="48.339527" lon="10.76232">
<ele>519.926</ele>
<time>2022-05-25T10:15:15Z</time>
</trkpt>
<trkpt lat="48.339531" lon="10.762381">
<ele>520.162</ele>
<time>2022-05-25T10:15:16Z</time>
</trkpt>
<trkpt lat="48.339539" lon="10.762439">
<ele>520.358</ele>
<time>2022-05-25T10:15:17Z</time>
</trkpt>
<trkpt lat="48.339542" lon="10.762496">
<ele>520.516</ele>
<time>2022-05-25T10:15:18Z</time>
</trkpt>
<trkpt lat="48.33955" lon="10.762557">
<ele>520.644</ele>
<time>2022-05-25T10:15:19Z</time>
</trkpt>
<trkpt lat="48.339554" lon="10.762615">
<ele>520.742</ele>
<time>2022-05-25T10:15:20Z</time>
</trkpt>
<trkpt lat="48.339561" lon="10.762675">
<ele>520.813</ele>
<time>2022-05-25T10:15:21Z</time>
</trkpt>
<trkpt lat="48.339573" lon="10.762736">
<ele>520.859</ele>
<time>2022-05-25T10:15:22Z</time>
</trkpt>
<trkpt lat="48.339573" lon="10.762797">
<ele>520.882</ele>
<time>2022-05-25T10:15:23Z</time>
</trkpt>
<trkpt lat="48.339581" lon="10.762858">
<ele>520.882</ele>
<time>2022-05-25T10:15:24Z</time>
</trkpt>
<trkpt lat="48.339588" lon="10.762919">
<ele>520.882</ele>
<time>2022-05-25T10:15:25Z</time>
</trkpt>
<trkpt lat="48.339596" lon="10.762983">
<ele>520.881</ele>
<time>2022-05-25T10:15:26Z</time>
</trkpt>
<trkpt lat="48.3396" lon="10.763045">
<ele>520.882</ele>
<time>2022-05-25T10:15:27Z</time>
</trkpt>
<trkpt lat="48.339603" lon="10.763108">
<ele>520.882</ele>
<time>2022-05-25T10:15:28Z</time>
</trkpt>
<trkpt lat="48.339615" lon="10.763173">
<ele>520.881</ele>
<time>2022-05-25T10:15:29Z</time>
</trkpt>
<trkpt lat="48.339622" lon="10.763238">
<ele>520.882</ele>
<time>2022-05-25T10:15:30Z</time>
</trkpt>
<trkpt lat="48.33963" lon="10.763303">
<ele>520.882</ele>
<time>2022-05-25T10:15:31Z</time>
</trkpt>
<trkpt lat="48.339638" lon="10.763368">
<ele>520.882</ele>
<time>2022-05-25T10:15:32Z</time>
</trkpt>
<trkpt lat="48.339642" lon="10.763434">
<ele>520.882</ele>
<time>2022-05-25T10:15:33Z</time>
</trkpt>
<trkpt lat="48.339653" lon="10.763503">
<ele>521.118</ele>
<time>2022-05-25T10:15:34Z</time>
</trkpt>
<trkpt lat="48.339664" lon="10.763572">
<ele>521.284</ele>
<time>2022-05-25T10:15:35Z</time>
</trkpt>
<trkpt lat="48.339668" lon="10.763641">
<ele>521.454</ele>
<time>2022-05-25T10:15:36Z</time>
</trkpt>
<trkpt lat="48.33968" lon="10.763713">
<ele>521.59</ele>
<time>2022-05-25T10:15:37Z</time>
</trkpt>
<trkpt lat="48.339687" lon="10.763784">
<ele>521.694</ele>
<time>2022-05-25T10:15:38Z</time>
</trkpt>
<trkpt lat="48.339699" lon="10.763858">
<ele>521.768</ele>
<time>2022-05-25T10:15:39Z</time>
</trkpt>
<trkpt lat="48.339706" lon="10.763931">
<ele>521.815</ele>
<time>2022-05-25T10:15:40Z</time>
</trkpt>
<trkpt lat="48.339722" lon="10.764005">
<ele>521.837</ele>
<time>2022-05-25T10:15:41Z</time>
</trkpt>
<trkpt lat="48.339733" lon="10.76408">
<ele>521.837</ele>
<time>2022-05-25T10:15:42Z</time>
</trkpt>
<trkpt lat="48.339752" lon="10.764153">
<ele>521.837</ele>
<time>2022-05-25T10:15:43Z</time>
</trkpt>
<trkpt lat="48.339767" lon="10.764227">
<ele>521.837</ele>
<time>2022-05-25T10:15:44Z</time>
</trkpt>
<trkpt lat="48.339787" lon="10.764299">
<ele>521.837</ele>
<time>2022-05-25T10:15:45Z</time>
</trkpt>
<trkpt lat="48.339798" lon="10.764373">
<ele>521.837</ele>
<time>2022-05-25T10:15:46Z</time>
</trkpt>
<trkpt lat="48.339809" lon="10.764443">
<ele>521.837</ele>
<time>2022-05-25T10:15:47Z</time>
</trkpt>
<trkpt lat="48.339825" lon="10.764513">
<ele>521.837</ele>
<time>2022-05-25T10:15:48Z</time>
</trkpt>
<trkpt lat="48.339836" lon="10.76458">
<ele>521.837</ele>
<time>2022-05-25T10:15:49Z</time>
</trkpt>
<trkpt lat="48.339851" lon="10.764647">
<ele>521.837</ele>
<time>2022-05-25T10:15:50Z</time>
</trkpt>
<trkpt lat="48.339863" lon="10.764712">
<ele>522.06</ele>
<time>2022-05-25T10:15:51Z</time>
</trkpt>
<trkpt lat="48.339874" lon="10.76478">
<ele>522.239</ele>
<time>2022-05-25T10:15:52Z</time>
</trkpt>
<trkpt lat="48.33989" lon="10.764847">
<ele>522.375</ele>
<time>2022-05-25T10:15:53Z</time>
</trkpt>
<trkpt lat="48.339901" lon="10.764915">
<ele>522.483</ele>
<time>2022-05-25T10:15:54Z</time>
</trkpt>
<trkpt lat="48.339916" lon="10.764982">
<ele>522.558</ele>
<time>2022-05-25T10:15:55Z</time>
</trkpt>
<trkpt lat="48.339931" lon="10.765048">
<ele>522.634</ele>
<time>2022-05-25T10:15:56Z</time>
</trkpt>
<trkpt lat="48.339947" lon="10.765115">
<ele>522.683</ele>
<time>2022-05-25T10:15:57Z</time>
</trkpt>
<trkpt lat="48.339962" lon="10.765178">
<ele>522.706</ele>
<time>2022-05-25T10:15:58Z</time>
</trkpt>
<trkpt lat="48.339977" lon="10.765244">
<ele>522.706</ele>
<time>2022-05-25T10:15:59Z</time>
</trkpt>
<trkpt lat="48.339993" lon="10.765309">
<ele>522.989</ele>
<time>2022-05-25T10:16:00Z</time>
</trkpt>
<trkpt lat="48.340004" lon="10.765375">
<ele>523.21</ele>
<time>2022-05-25T10:16:01Z</time>
</trkpt>
<trkpt lat="48.340015" lon="10.76544">
<ele>523.375</ele>
<time>2022-05-25T10:16:02Z</time>
</trkpt>
<trkpt lat="48.340027" lon="10.765505">
<ele>523.505</ele>
<time>2022-05-25T10:16:03Z</time>
</trkpt>
<trkpt lat="48.340038" lon="10.765572">
<ele>523.593</ele>
<time>2022-05-25T10:16:04Z</time>
</trkpt>
<trkpt lat="48.340054" lon="10.765635">
<ele>523.66</ele>
<time>2022-05-25T10:16:05Z</time>
</trkpt>
<trkpt lat="48.340065" lon="10.765699">
<ele>523.72</ele>
<time>2022-05-25T10:16:06Z</time>
</trkpt>
<trkpt lat="48.340076" lon="10.765763">
<ele>523.748</ele>
<time>2022-05-25T10:16:07Z</time>
</trkpt>
<trkpt lat="48.340092" lon="10.76583">
<ele>523.748</ele>
<time>2022-05-25T10:16:08Z</time>
</trkpt>
<trkpt lat="48.340103" lon="10.765895">
<ele>523.748</ele>
<time>2022-05-25T10:16:09Z</time>
</trkpt>
<trkpt lat="48.340118" lon="10.76596">
<ele>524.009</ele>
<time>2022-05-25T10:16:10Z</time>
</trkpt>
<trkpt lat="48.34013" lon="10.766026">
<ele>524.213</ele>
<time>2022-05-25T10:16:11Z</time>
</trkpt>
<trkpt lat="48.340141" lon="10.766093">
<ele>524.365</ele>
<time>2022-05-25T10:16:12Z</time>
</trkpt>
<trkpt lat="48.340157" lon="10.76616">
<ele>524.482</ele>
<time>2022-05-25T10:16:13Z</time>
</trkpt>
<trkpt lat="48.34016" lon="10.766227">
<ele>524.565</ele>
<time>2022-05-25T10:16:14Z</time>
</trkpt>
<trkpt lat="48.340168" lon="10.766294">
<ele>524.625</ele>
<time>2022-05-25T10:16:15Z</time>
</trkpt>
<trkpt lat="48.340176" lon="10.766361">
<ele>524.677</ele>
<time>2022-05-25T10:16:16Z</time>
</trkpt>
<trkpt lat="48.340183" lon="10.766428">
<ele>524.703</ele>
<time>2022-05-25T10:16:17Z</time>
</trkpt>
<trkpt lat="48.340187" lon="10.766495">
<ele>524.703</ele>
<time>2022-05-25T10:16:18Z</time>
</trkpt>
<trkpt lat="48.340191" lon="10.766562">
<ele>524.969</ele>
<time>2022-05-25T10:16:19Z</time>
</trkpt>
<trkpt lat="48.340191" lon="10.766627">
<ele>525.179</ele>
<time>2022-05-25T10:16:20Z</time>
</trkpt>
<trkpt lat="48.340191" lon="10.766693">
<ele>525.338</ele>
<time>2022-05-25T10:16:21Z</time>
</trkpt>
<trkpt lat="48.340191" lon="10.766757">
<ele>525.456</ele>
<time>2022-05-25T10:16:22Z</time>
</trkpt>
<trkpt lat="48.340191" lon="10.766824">
<ele>525.537</ele>
<time>2022-05-25T10:16:23Z</time>
</trkpt>
<trkpt lat="48.340195" lon="10.766889">
<ele>525.589</ele>
<time>2022-05-25T10:16:24Z</time>
</trkpt>
<trkpt lat="48.340199" lon="10.766954">
<ele>525.632</ele>
<time>2022-05-25T10:16:25Z</time>
</trkpt>
<trkpt lat="48.340199" lon="10.767023">
<ele>525.892</ele>
<time>2022-05-25T10:16:26Z</time>
</trkpt>
<trkpt lat="48.340202" lon="10.76709">
<ele>526.088</ele>
<time>2022-05-25T10:16:27Z</time>
</trkpt>
<trkpt lat="48.340202" lon="10.767158">
<ele>526.25</ele>
<time>2022-05-25T10:16:28Z</time>
</trkpt>
<trkpt lat="48.340199" lon="10.767226">
<ele>526.378</ele>
<time>2022-05-25T10:16:29Z</time>
</trkpt>
<trkpt lat="48.340195" lon="10.767295">
<ele>526.478</ele>
<time>2022-05-25T10:16:30Z</time>
</trkpt>
<trkpt lat="48.340195" lon="10.767362">
<ele>526.547</ele>
<time>2022-05-25T10:16:31Z</time>
</trkpt>
<trkpt lat="48.340195" lon="10.767426">
<ele>526.593</ele>
<time>2022-05-25T10:16:32Z</time>
</trkpt>
<trkpt lat="48.340191" lon="10.767487">
<ele>526.615</ele>
<time>2022-05-25T10:16:33Z</time>
</trkpt>
<trkpt lat="48.340191" lon="10.767549">
<ele>526.615</ele>
<time>2022-05-25T10:16:34Z</time>
</trkpt>
<trkpt lat="48.340187" lon="10.767614">
<ele>526.615</ele>
<time>2022-05-25T10:16:35Z</time>
</trkpt>
<trkpt lat="48.340183" lon="10.767679">
<ele>526.823</ele>
<time>2022-05-25T10:16:36Z</time>
</trkpt>
<trkpt lat="48.340176" lon="10.767742">
<ele>526.999</ele>
<time>2022-05-25T10:16:37Z</time>
</trkpt>
<trkpt lat="48.340168" lon="10.767805">
<ele>527.146</ele>
<time>2022-05-25T10:16:38Z</time>
</trkpt>
<trkpt lat="48.34016" lon="10.767865">
<ele>527.266</ele>
<time>2022-05-25T10:16:39Z</time>
</trkpt>
<trkpt lat="48.340157" lon="10.767921">
<ele>527.358</ele>
<time>2022-05-25T10:16:40Z</time>
</trkpt>
<trkpt lat="48.340153" lon="10.767981">
<ele>527.413</ele>
<time>2022-05-25T10:16:41Z</time>
</trkpt>
<trkpt lat="48.340149" lon="10.768042">
<ele>527.689</ele>
<time>2022-05-25T10:16:42Z</time>
</trkpt>
<trkpt lat="48.340141" lon="10.768102">
<ele>527.904</ele>
<time>2022-05-25T10:16:43Z</time>
</trkpt>
<trkpt lat="48.34013" lon="10.768161">
<ele>528.066</ele>
<time>2022-05-25T10:16:44Z</time>
</trkpt>
<trkpt lat="48.340122" lon="10.768217">
<ele>528.17</ele>
<time>2022-05-25T10:16:45Z</time>
</trkpt>
<trkpt lat="48.340111" lon="10.768274">
<ele>528.277</ele>
<time>2022-05-25T10:16:46Z</time>
</trkpt>
<trkpt lat="48.340099" lon="10.768333">
<ele>528.595</ele>
<time>2022-05-25T10:16:47Z</time>
</trkpt>
<trkpt lat="48.340088" lon="10.768394">
<ele>528.846</ele>
<time>2022-05-25T10:16:48Z</time>
</trkpt>
<trkpt lat="48.340073" lon="10.768452">
<ele>528.998</ele>
<time>2022-05-25T10:16:49Z</time>
</trkpt>
<trkpt lat="48.340061" lon="10.768509">
<ele>529.45</ele>
<time>2022-05-25T10:16:50Z</time>
</trkpt>
<trkpt lat="48.340054" lon="10.768561">
<ele>529.727</ele>
<time>2022-05-25T10:16:51Z</time>
</trkpt>
<trkpt lat="48.340038" lon="10.768617">
<ele>529.925</ele>
<time>2022-05-25T10:16:52Z</time>
</trkpt>
<trkpt lat="48.340023" lon="10.768677">
<ele>530.055</ele>
<time>2022-05-25T10:16:53Z</time>
</trkpt>
<trkpt lat="48.340008" lon="10.76874">
<ele>530.137</ele>
<time>2022-05-25T10:16:54Z</time>
</trkpt>
<trkpt lat="48.339996" lon="10.768798">
<ele>530.192</ele>
<time>2022-05-25T10:16:55Z</time>
</trkpt>
<trkpt lat="48.339981" lon="10.768855">
<ele>530.241</ele>
<time>2022-05-25T10:16:56Z</time>
</trkpt>
<trkpt lat="48.339962" lon="10.76891">
<ele>530.265</ele>
<time>2022-05-25T10:16:57Z</time>
</trkpt>
<trkpt lat="48.339947" lon="10.768973">
<ele>530.265</ele>
<time>2022-05-25T10:16:58Z</time>
</trkpt>
<trkpt lat="48.339931" lon="10.769033">
<ele>530.538</ele>
<time>2022-05-25T10:16:59Z</time>
</trkpt>
<trkpt lat="48.33992" lon="10.769087">
<ele>530.746</ele>
<time>2022-05-25T10:17:00Z</time>
</trkpt>
<trkpt lat="48.339905" lon="10.769148">
<ele>530.898</ele>
<time>2022-05-25T10:17:01Z</time>
</trkpt>
<trkpt lat="48.339886" lon="10.769207">
<ele>531.016</ele>
<time>2022-05-25T10:17:02Z</time>
</trkpt>
<trkpt lat="48.33987" lon="10.769263">
<ele>531.1</ele>
<time>2022-05-25T10:17:03Z</time>
</trkpt>
<trkpt lat="48.339859" lon="10.769323">
<ele>531.156</ele>
<time>2022-05-25T10:17:04Z</time>
</trkpt>
<trkpt lat="48.339848" lon="10.769384">
<ele>531.196</ele>
<time>2022-05-25T10:17:05Z</time>
</trkpt>
<trkpt lat="48.339832" lon="10.76945">
<ele>531.221</ele>
<time>2022-05-25T10:17:06Z</time>
</trkpt>
<trkpt lat="48.339817" lon="10.769519">
<ele>531.221</ele>
<time>2022-05-25T10:17:07Z</time>
</trkpt>
<trkpt lat="48.339802" lon="10.769587">
<ele>531.221</ele>
<time>2022-05-25T10:17:08Z</time>
</trkpt>
<trkpt lat="48.33979" lon="10.769659">
<ele>530.946</ele>
<time>2022-05-25T10:17:09Z</time>
</trkpt>
<trkpt lat="48.339779" lon="10.769733">
<ele>530.73</ele>
<time>2022-05-25T10:17:10Z</time>
</trkpt>
<trkpt lat="48.339767" lon="10.769814">
<ele>530.604</ele>
<time>2022-05-25T10:17:11Z</time>
</trkpt>
<trkpt lat="48.339764" lon="10.769888">
<ele>530.239</ele>
<time>2022-05-25T10:17:12Z</time>
</trkpt>
<trkpt lat="48.33976" lon="10.769965">
<ele>529.976</ele>
<time>2022-05-25T10:17:13Z</time>
</trkpt>
<trkpt lat="48.339764" lon="10.770048">
<ele>529.79</ele>
<time>2022-05-25T10:17:14Z</time>
</trkpt>
<trkpt lat="48.339767" lon="10.770133">
<ele>529.656</ele>
<time>2022-05-25T10:17:15Z</time>
</trkpt>
<trkpt lat="48.339767" lon="10.770223">
<ele>529.269</ele>
<time>2022-05-25T10:17:16Z</time>
</trkpt>
<trkpt lat="48.339775" lon="10.770317">
<ele>528.981</ele>
<time>2022-05-25T10:17:17Z</time>
</trkpt>
<trkpt lat="48.339783" lon="10.770407">
<ele>528.8</ele>
<time>2022-05-25T10:17:18Z</time>
</trkpt>
<trkpt lat="48.33979" lon="10.770498">
<ele>528.382</ele>
<time>2022-05-25T10:17:19Z</time>
</trkpt>
<trkpt lat="48.339798" lon="10.770589">
<ele>528.061</ele>
<time>2022-05-25T10:17:20Z</time>
</trkpt>
<trkpt lat="48.339813" lon="10.770673">
<ele>527.826</ele>
<time>2022-05-25T10:17:21Z</time>
</trkpt>
<trkpt lat="48.339828" lon="10.770761">
<ele>527.683</ele>
<time>2022-05-25T10:17:22Z</time>
</trkpt>
<trkpt lat="48.339848" lon="10.770844">
<ele>527.317</ele>
<time>2022-05-25T10:17:23Z</time>
</trkpt>
<trkpt lat="48.339867" lon="10.770925">
<ele>527.048</ele>
<time>2022-05-25T10:17:24Z</time>
</trkpt>
<trkpt lat="48.339893" lon="10.771004">
<ele>526.871</ele>
<time>2022-05-25T10:17:25Z</time>
</trkpt>
<trkpt lat="48.33992" lon="10.771084">
<ele>526.702</ele>
<time>2022-05-25T10:17:26Z</time>
</trkpt>
<trkpt lat="48.339947" lon="10.77116">
<ele>526.603</ele>
<time>2022-05-25T10:17:27Z</time>
</trkpt>
<trkpt lat="48.339966" lon="10.771235">
<ele>526.29</ele>
<time>2022-05-25T10:17:28Z</time>
</trkpt>
<trkpt lat="48.339996" lon="10.771315">
<ele>526.041</ele>
<time>2022-05-25T10:17:29Z</time>
</trkpt>
<trkpt lat="48.340019" lon="10.77139">
<ele>525.856</ele>
<time>2022-05-25T10:17:30Z</time>
</trkpt>
<trkpt lat="48.34005" lon="10.771461">
<ele>525.694</ele>
<time>2022-05-25T10:17:31Z</time>
</trkpt>
<trkpt lat="48.340076" lon="10.771526">
<ele>525.382</ele>
<time>2022-05-25T10:17:32Z</time>
</trkpt>
<trkpt lat="48.340092" lon="10.771588">
<ele>525.153</ele>
<time>2022-05-25T10:17:33Z</time>
</trkpt>
<trkpt lat="48.340111" lon="10.771649">
<ele>524.987</ele>
<time>2022-05-25T10:17:34Z</time>
</trkpt>
<trkpt lat="48.34013" lon="10.771714">
<ele>524.864</ele>
<time>2022-05-25T10:17:35Z</time>
</trkpt>
<trkpt lat="48.340153" lon="10.771773">
<ele>524.765</ele>
<time>2022-05-25T10:17:36Z</time>
</trkpt>
<trkpt lat="48.340164" lon="10.771833">
<ele>524.692</ele>
<time>2022-05-25T10:17:37Z</time>
</trkpt>
<trkpt lat="48.340187" lon="10.771887">
<ele>524.641</ele>
<time>2022-05-25T10:17:38Z</time>
</trkpt>
<trkpt lat="48.340206" lon="10.771935">
<ele>524.616</ele>
<time>2022-05-25T10:17:39Z</time>
</trkpt>
<trkpt lat="48.340221" lon="10.77198">
<ele>524.616</ele>
<time>2022-05-25T10:17:40Z</time>
</trkpt>
<trkpt lat="48.34024" lon="10.772018">
<ele>524.377</ele>
<time>2022-05-25T10:17:41Z</time>
</trkpt>
<trkpt lat="48.34026" lon="10.772056">
<ele>524.189</ele>
<time>2022-05-25T10:17:42Z</time>
</trkpt>
<trkpt lat="48.34029" lon="10.772094">
<ele>524.042</ele>
<time>2022-05-25T10:17:43Z</time>
</trkpt>
<trkpt lat="48.340305" lon="10.77213">
<ele>523.923</ele>
<time>2022-05-25T10:17:44Z</time>
</trkpt>
<trkpt lat="48.340321" lon="10.772159">
<ele>523.836</ele>
<time>2022-05-25T10:17:45Z</time>
</trkpt>
<trkpt lat="48.340343" lon="10.772183">
<ele>523.748</ele>
<time>2022-05-25T10:17:46Z</time>
</trkpt>
<trkpt lat="48.340359" lon="10.772201">
<ele>523.689</ele>
<time>2022-05-25T10:17:47Z</time>
</trkpt>
<trkpt lat="48.340382" lon="10.772217">
<ele>523.661</ele>
<time>2022-05-25T10:17:48Z</time>
</trkpt>
<trkpt lat="48.340389" lon="10.772238">
<ele>523.661</ele>
<time>2022-05-25T10:17:49Z</time>
</trkpt>
<trkpt lat="48.340397" lon="10.77225">
<ele>523.661</ele>
<time>2022-05-25T10:17:50Z</time>
</trkpt>
<trkpt lat="48.340397" lon="10.772252">
<ele>523.661</ele>
<time>2022-05-25T10:17:51Z</time>
</trkpt>
<trkpt lat="48.340401" lon="10.772252">
<ele>523.661</ele>
<time>2022-05-25T10:17:52Z</time>
</trkpt>
<trkpt lat="48.340401" lon="10.772255">
<ele>523.661</ele>
<time>2022-05-25T10:17:53Z</time>
</trkpt>
<trkpt lat="48.340412" lon="10.772278">
<ele>523.661</ele>
<time>2022-05-25T10:17:57Z</time>
</trkpt>
<trkpt lat="48.340424" lon="10.772304">
<ele>523.661</ele>
<time>2022-05-25T10:17:58Z</time>
</trkpt>
<trkpt lat="48.340443" lon="10.772335">
<ele>523.661</ele>
<time>2022-05-25T10:17:59Z</time>
</trkpt>
<trkpt lat="48.340469" lon="10.772374">
<ele>523.661</ele>
<time>2022-05-25T10:18:00Z</time>
</trkpt>
<trkpt lat="48.340504" lon="10.772415">
<ele>523.661</ele>
<time>2022-05-25T10:18:01Z</time>
</trkpt>
<trkpt lat="48.340542" lon="10.77246">
<ele>523.661</ele>
<time>2022-05-25T10:18:02Z</time>
</trkpt>
<trkpt lat="48.34058" lon="10.772511">
<ele>523.309</ele>
<time>2022-05-25T10:18:03Z</time>
</trkpt>
<trkpt lat="48.340618" lon="10.772565">
<ele>523.13</ele>
<time>2022-05-25T10:18:04Z</time>
</trkpt>
<trkpt lat="48.340656" lon="10.772619">
<ele>523.028</ele>
<time>2022-05-25T10:18:05Z</time>
</trkpt>
<trkpt lat="48.340694" lon="10.772676">
<ele>522.949</ele>
<time>2022-05-25T10:18:06Z</time>
</trkpt>
<trkpt lat="48.340733" lon="10.772733">
<ele>522.907</ele>
<time>2022-05-25T10:18:07Z</time>
</trkpt>
<trkpt lat="48.340775" lon="10.772798">
<ele>522.608</ele>
<time>2022-05-25T10:18:08Z</time>
</trkpt>
<trkpt lat="48.340809" lon="10.772864">
<ele>522.349</ele>
<time>2022-05-25T10:18:09Z</time>
</trkpt>
<trkpt lat="48.340843" lon="10.772932">
<ele>522.151</ele>
<time>2022-05-25T10:18:10Z</time>
</trkpt>
<trkpt lat="48.340885" lon="10.773002">
<ele>522.033</ele>
<time>2022-05-25T10:18:11Z</time>
</trkpt>
<trkpt lat="48.340931" lon="10.773071">
<ele>521.672</ele>
<time>2022-05-25T10:18:12Z</time>
</trkpt>
<trkpt lat="48.340977" lon="10.77314">
<ele>521.425</ele>
<time>2022-05-25T10:18:13Z</time>
</trkpt>
<trkpt lat="48.341026" lon="10.773211">
<ele>520.949</ele>
<time>2022-05-25T10:18:14Z</time>
</trkpt>
<trkpt lat="48.341072" lon="10.773283">
<ele>520.591</ele>
<time>2022-05-25T10:18:15Z</time>
</trkpt>
<trkpt lat="48.341118" lon="10.773358">
<ele>520.296</ele>
<time>2022-05-25T10:18:16Z</time>
</trkpt>
<trkpt lat="48.34116" lon="10.773428">
<ele>520.131</ele>
<time>2022-05-25T10:18:17Z</time>
</trkpt>
<trkpt lat="48.341202" lon="10.773495">
<ele>520.015</ele>
<time>2022-05-25T10:18:18Z</time>
</trkpt>
<trkpt lat="48.341232" lon="10.773573">
<ele>519.915</ele>
<time>2022-05-25T10:18:19Z</time>
</trkpt>
<trkpt lat="48.341267" lon="10.773659">
<ele>519.864</ele>
<time>2022-05-25T10:18:20Z</time>
</trkpt>
<trkpt lat="48.341293" lon="10.773745">
<ele>519.84</ele>
<time>2022-05-25T10:18:21Z</time>
</trkpt>
<trkpt lat="48.341305" lon="10.773825">
<ele>519.577</ele>
<time>2022-05-25T10:18:22Z</time>
</trkpt>
<trkpt lat="48.341339" lon="10.773902">
<ele>519.372</ele>
<time>2022-05-25T10:18:23Z</time>
</trkpt>
<trkpt lat="48.341362" lon="10.773978">
<ele>519.212</ele>
<time>2022-05-25T10:18:24Z</time>
</trkpt>
<trkpt lat="48.34137" lon="10.774052">
<ele>519.09</ele>
<time>2022-05-25T10:18:25Z</time>
</trkpt>
<trkpt lat="48.341377" lon="10.774126">
<ele>519.011</ele>
<time>2022-05-25T10:18:26Z</time>
</trkpt>
<trkpt lat="48.341377" lon="10.774208">
<ele>518.956</ele>
<time>2022-05-25T10:18:27Z</time>
</trkpt>
<trkpt lat="48.34137" lon="10.774293">
<ele>518.913</ele>
<time>2022-05-25T10:18:28Z</time>
</trkpt>
<trkpt lat="48.341358" lon="10.774371">
<ele>518.617</ele>
<time>2022-05-25T10:18:29Z</time>
</trkpt>
<trkpt lat="48.341339" lon="10.77445">
<ele>518.383</ele>
<time>2022-05-25T10:18:30Z</time>
</trkpt>
<trkpt lat="48.341324" lon="10.774532">
<ele>518.23</ele>
<time>2022-05-25T10:18:31Z</time>
</trkpt>
<trkpt lat="48.341305" lon="10.774608">
<ele>517.842</ele>
<time>2022-05-25T10:18:32Z</time>
</trkpt>
<trkpt lat="48.341301" lon="10.774683">
<ele>517.568</ele>
<time>2022-05-25T10:18:33Z</time>
</trkpt>
<trkpt lat="48.341297" lon="10.774765">
<ele>517.092</ele>
<time>2022-05-25T10:18:34Z</time>
</trkpt>
<trkpt lat="48.341293" lon="10.77485">
<ele>516.721</ele>
<time>2022-05-25T10:18:35Z</time>
</trkpt>
<trkpt lat="48.34129" lon="10.774939">
<ele>516.48</ele>
<time>2022-05-25T10:18:36Z</time>
</trkpt>
<trkpt lat="48.341286" lon="10.775021">
<ele>516.027</ele>
<time>2022-05-25T10:18:37Z</time>
</trkpt>
<trkpt lat="48.341274" lon="10.775096">
<ele>515.718</ele>
<time>2022-05-25T10:18:38Z</time>
</trkpt>
<trkpt lat="48.341255" lon="10.775169">
<ele>515.456</ele>
<time>2022-05-25T10:18:39Z</time>
</trkpt>
<trkpt lat="48.341225" lon="10.775245">
<ele>515.043</ele>
<time>2022-05-25T10:18:40Z</time>
</trkpt>
<trkpt lat="48.341187" lon="10.775301">
<ele>514.734</ele>
<time>2022-05-25T10:18:41Z</time>
</trkpt>
<trkpt lat="48.341137" lon="10.775347">
<ele>514.519</ele>
<time>2022-05-25T10:18:42Z</time>
</trkpt>
<trkpt lat="48.341095" lon="10.775387">
<ele>514.381</ele>
<time>2022-05-25T10:18:43Z</time>
</trkpt>
<trkpt lat="48.341053" lon="10.775423">
<ele>513.985</ele>
<time>2022-05-25T10:18:44Z</time>
</trkpt>
<trkpt lat="48.341011" lon="10.775465">
<ele>513.607</ele>
<time>2022-05-25T10:18:45Z</time>
</trkpt>
<trkpt lat="48.340977" lon="10.775521">
<ele>513.437</ele>
<time>2022-05-25T10:18:46Z</time>
</trkpt>
<trkpt lat="48.340946" lon="10.775594">
<ele>513.085</ele>
<time>2022-05-25T10:18:47Z</time>
</trkpt>
<trkpt lat="48.340912" lon="10.775679">
<ele>512.822</ele>
<time>2022-05-25T10:18:48Z</time>
</trkpt>
<trkpt lat="48.340881" lon="10.775762">
<ele>512.558</ele>
<time>2022-05-25T10:18:49Z</time>
</trkpt>
<trkpt lat="48.340862" lon="10.775831">
<ele>512.382</ele>
<time>2022-05-25T10:18:50Z</time>
</trkpt>
<trkpt lat="48.340851" lon="10.775893">
<ele>512.014</ele>
<time>2022-05-25T10:18:51Z</time>
</trkpt>
<trkpt lat="48.34082" lon="10.775936">
<ele>511.75</ele>
<time>2022-05-25T10:18:52Z</time>
</trkpt>
<trkpt lat="48.340778" lon="10.77595">
<ele>511.555</ele>
<time>2022-05-25T10:18:53Z</time>
</trkpt>
<trkpt lat="48.340729" lon="10.775938">
<ele>511.435</ele>
<time>2022-05-25T10:18:54Z</time>
</trkpt>
<trkpt lat="48.340691" lon="10.775911">
<ele>511.053</ele>
<time>2022-05-25T10:18:55Z</time>
</trkpt>
<trkpt lat="48.340652" lon="10.775886">
<ele>510.812</ele>
<time>2022-05-25T10:18:56Z</time>
</trkpt>
<trkpt lat="48.340614" lon="10.775863">
<ele>510.627</ele>
<time>2022-05-25T10:18:57Z</time>
</trkpt>
<trkpt lat="48.340572" lon="10.775846">
<ele>510.476</ele>
<time>2022-05-25T10:18:58Z</time>
</trkpt>
<trkpt lat="48.340527" lon="10.775831">
<ele>510.358</ele>
<time>2022-05-25T10:18:59Z</time>
</trkpt>
<trkpt lat="48.340485" lon="10.775822">
<ele>510.28</ele>
<time>2022-05-25T10:19:00Z</time>
</trkpt>
<trkpt lat="48.34045" lon="10.775813">
<ele>510.231</ele>
<time>2022-05-25T10:19:01Z</time>
</trkpt>
<trkpt lat="48.340412" lon="10.775802">
<ele>510.205</ele>
<time>2022-05-25T10:19:02Z</time>
</trkpt>
<trkpt lat="48.340374" lon="10.775791">
<ele>510.205</ele>
<time>2022-05-25T10:19:03Z</time>
</trkpt>
<trkpt lat="48.340347" lon="10.775786">
<ele>510.205</ele>
<time>2022-05-25T10:19:04Z</time>
</trkpt>
<trkpt lat="48.340313" lon="10.775795">
<ele>510.205</ele>
<time>2022-05-25T10:19:05Z</time>
</trkpt>
<trkpt lat="48.34029" lon="10.775817">
<ele>510.205</ele>
<time>2022-05-25T10:19:06Z</time>
</trkpt>
<trkpt lat="48.340271" lon="10.775846">
<ele>510.205</ele>
<time>2022-05-25T10:19:07Z</time>
</trkpt>
<trkpt lat="48.340256" lon="10.775882">
<ele>510.205</ele>
<time>2022-05-25T10:19:08Z</time>
</trkpt>
<trkpt lat="48.340252" lon="10.775915">
<ele>510.205</ele>
<time>2022-05-25T10:19:09Z</time>
</trkpt>
<trkpt lat="48.340244" lon="10.77595">
<ele>510.205</ele>
<time>2022-05-25T10:19:10Z</time>
</trkpt>
<trkpt lat="48.340237" lon="10.775987">
<ele>510.205</ele>
<time>2022-05-25T10:19:11Z</time>
</trkpt>
<trkpt lat="48.340229" lon="10.776026">
<ele>510.205</ele>
<time>2022-05-25T10:19:12Z</time>
</trkpt>
<trkpt lat="48.340225" lon="10.776066">
<ele>510.205</ele>
<time>2022-05-25T10:19:13Z</time>
</trkpt>
<trkpt lat="48.340221" lon="10.776114">
<ele>510.206</ele>
<time>2022-05-25T10:19:14Z</time>
</trkpt>
<trkpt lat="48.340218" lon="10.776164">
<ele>510.205</ele>
<time>2022-05-25T10:19:15Z</time>
</trkpt>
<trkpt lat="48.340221" lon="10.776205">
<ele>510.205</ele>
<time>2022-05-25T10:19:16Z</time>
</trkpt>
<trkpt lat="48.340218" lon="10.776254">
<ele>510.206</ele>
<time>2022-05-25T10:19:17Z</time>
</trkpt>
<trkpt lat="48.340202" lon="10.776313">
<ele>510.205</ele>
<time>2022-05-25T10:19:18Z</time>
</trkpt>
<trkpt lat="48.340191" lon="10.776372">
<ele>509.973</ele>
<time>2022-05-25T10:19:19Z</time>
</trkpt>
<trkpt lat="48.340179" lon="10.776426">
<ele>509.79</ele>
<time>2022-05-25T10:19:20Z</time>
</trkpt>
<trkpt lat="48.34016" lon="10.776484">
<ele>509.646</ele>
<time>2022-05-25T10:19:21Z</time>
</trkpt>
<trkpt lat="48.340157" lon="10.77654">
<ele>509.535</ele>
<time>2022-05-25T10:19:22Z</time>
</trkpt>
<trkpt lat="48.340153" lon="10.776593">
<ele>509.451</ele>
<time>2022-05-25T10:19:23Z</time>
</trkpt>
<trkpt lat="48.340145" lon="10.776647">
<ele>509.388</ele>
<time>2022-05-25T10:19:24Z</time>
</trkpt>
<trkpt lat="48.34013" lon="10.7767">
<ele>509.355</ele>
<time>2022-05-25T10:19:25Z</time>
</trkpt>
<trkpt lat="48.340122" lon="10.776753">
<ele>509.338</ele>
<time>2022-05-25T10:19:26Z</time>
</trkpt>
<trkpt lat="48.340107" lon="10.776812">
<ele>509.338</ele>
<time>2022-05-25T10:19:27Z</time>
</trkpt>
<trkpt lat="48.340088" lon="10.77688">
<ele>509.338</ele>
<time>2022-05-25T10:19:28Z</time>
</trkpt>
<trkpt lat="48.340069" lon="10.776948">
<ele>509.338</ele>
<time>2022-05-25T10:19:29Z</time>
</trkpt>
<trkpt lat="48.340054" lon="10.777008">
<ele>509.338</ele>
<time>2022-05-25T10:19:30Z</time>
</trkpt>
<trkpt lat="48.340034" lon="10.77707">
<ele>509.338</ele>
<time>2022-05-25T10:19:31Z</time>
</trkpt>
<trkpt lat="48.340019" lon="10.777128">
<ele>509.338</ele>
<time>2022-05-25T10:19:32Z</time>
</trkpt>
<trkpt lat="48.34" lon="10.77719">
<ele>509.338</ele>
<time>2022-05-25T10:19:33Z</time>
</trkpt>
<trkpt lat="48.339981" lon="10.777253">
<ele>509.338</ele>
<time>2022-05-25T10:19:34Z</time>
</trkpt>
<trkpt lat="48.339962" lon="10.777312">
<ele>509.338</ele>
<time>2022-05-25T10:19:35Z</time>
</trkpt>
<trkpt lat="48.339947" lon="10.777373">
<ele>509.338</ele>
<time>2022-05-25T10:19:36Z</time>
</trkpt>
<trkpt lat="48.339931" lon="10.777435">
<ele>509.338</ele>
<time>2022-05-25T10:19:37Z</time>
</trkpt>
<trkpt lat="48.339912" lon="10.777498">
<ele>509.338</ele>
<time>2022-05-25T10:19:38Z</time>
</trkpt>
<trkpt lat="48.339897" lon="10.77756">
<ele>509.338</ele>
<time>2022-05-25T10:19:39Z</time>
</trkpt>
<trkpt lat="48.339878" lon="10.777622">
<ele>509.338</ele>
<time>2022-05-25T10:19:40Z</time>
</trkpt>
<trkpt lat="48.339867" lon="10.777678">
<ele>509.338</ele>
<time>2022-05-25T10:19:41Z</time>
</trkpt>
<trkpt lat="48.339859" lon="10.777736">
<ele>509.338</ele>
<time>2022-05-25T10:19:42Z</time>
</trkpt>
<trkpt lat="48.339848" lon="10.777788">
<ele>509.338</ele>
<time>2022-05-25T10:19:43Z</time>
</trkpt>
<trkpt lat="48.33984" lon="10.777842">
<ele>509.338</ele>
<time>2022-05-25T10:19:44Z</time>
</trkpt>
<trkpt lat="48.339832" lon="10.77789">
<ele>509.338</ele>
<time>2022-05-25T10:19:45Z</time>
</trkpt>
<trkpt lat="48.339817" lon="10.777932">
<ele>509.338</ele>
<time>2022-05-25T10:19:46Z</time>
</trkpt>
<trkpt lat="48.339798" lon="10.777979">
<ele>509.338</ele>
<time>2022-05-25T10:19:47Z</time>
</trkpt>
<trkpt lat="48.339775" lon="10.778012">
<ele>509.338</ele>
<time>2022-05-25T10:19:48Z</time>
</trkpt>
<trkpt lat="48.339748" lon="10.778035">
<ele>509.338</ele>
<time>2022-05-25T10:19:49Z</time>
</trkpt>
<trkpt lat="48.339725" lon="10.778058">
<ele>509.338</ele>
<time>2022-05-25T10:19:50Z</time>
</trkpt>
<trkpt lat="48.339684" lon="10.778091">
<ele>509.338</ele>
<time>2022-05-25T10:19:51Z</time>
</trkpt>
<trkpt lat="48.339649" lon="10.77812">
<ele>509.338</ele>
<time>2022-05-25T10:19:52Z</time>
</trkpt>
<trkpt lat="48.339603" lon="10.778138">
<ele>509.338</ele>
<time>2022-05-25T10:19:53Z</time>
</trkpt>
<trkpt lat="48.339561" lon="10.778151">
<ele>509.338</ele>
<time>2022-05-25T10:19:54Z</time>
</trkpt>
<trkpt lat="48.33952" lon="10.778163">
<ele>509.338</ele>
<time>2022-05-25T10:19:55Z</time>
</trkpt>
<trkpt lat="48.339474" lon="10.778175">
<ele>509.572</ele>
<time>2022-05-25T10:19:56Z</time>
</trkpt>
<trkpt lat="48.339428" lon="10.778182">
<ele>509.748</ele>
<time>2022-05-25T10:19:57Z</time>
</trkpt>
<trkpt lat="48.33939" lon="10.778187">
<ele>509.858</ele>
<time>2022-05-25T10:19:58Z</time>
</trkpt>
<trkpt lat="48.339352" lon="10.778188">
<ele>509.971</ele>
<time>2022-05-25T10:19:59Z</time>
</trkpt>
<trkpt lat="48.339314" lon="10.778185">
<ele>510.069</ele>
<time>2022-05-25T10:20:00Z</time>
</trkpt>
<trkpt lat="48.339279" lon="10.778172">
<ele>510.136</ele>
<time>2022-05-25T10:20:01Z</time>
</trkpt>
<trkpt lat="48.339233" lon="10.778152">
<ele>510.182</ele>
<time>2022-05-25T10:20:02Z</time>
</trkpt>
<trkpt lat="48.339195" lon="10.77812">
<ele>510.205</ele>
<time>2022-05-25T10:20:03Z</time>
</trkpt>
<trkpt lat="48.339172" lon="10.77809">
<ele>510.205</ele>
<time>2022-05-25T10:20:04Z</time>
</trkpt>
<trkpt lat="48.339142" lon="10.778053">
<ele>510.205</ele>
<time>2022-05-25T10:20:05Z</time>
</trkpt>
<trkpt lat="48.339115" lon="10.77801">
<ele>510.205</ele>
<time>2022-05-25T10:20:06Z</time>
</trkpt>
<trkpt lat="48.339096" lon="10.777966">
<ele>510.206</ele>
<time>2022-05-25T10:20:07Z</time>
</trkpt>
<trkpt lat="48.339073" lon="10.777915">
<ele>510.205</ele>
<time>2022-05-25T10:20:08Z</time>
</trkpt>
<trkpt lat="48.33905" lon="10.777859">
<ele>510.205</ele>
<time>2022-05-25T10:20:09Z</time>
</trkpt>
<trkpt lat="48.339016" lon="10.777801">
<ele>510.205</ele>
<time>2022-05-25T10:20:10Z</time>
</trkpt>
<trkpt lat="48.338985" lon="10.777746">
<ele>510.205</ele>
<time>2022-05-25T10:20:11Z</time>
</trkpt>
<trkpt lat="48.338955" lon="10.777708">
<ele>510.205</ele>
<time>2022-05-25T10:20:12Z</time>
</trkpt>
<trkpt lat="48.338921" lon="10.777673">
<ele>510.205</ele>
<time>2022-05-25T10:20:13Z</time>
</trkpt>
<trkpt lat="48.338882" lon="10.777635">
<ele>510.205</ele>
<time>2022-05-25T10:20:14Z</time>
</trkpt>
<trkpt lat="48.33884" lon="10.777601">
<ele>510.205</ele>
<time>2022-05-25T10:20:15Z</time>
</trkpt>
<trkpt lat="48.338802" lon="10.77757">
<ele>510.205</ele>
<time>2022-05-25T10:20:16Z</time>
</trkpt>
<trkpt lat="48.338768" lon="10.77754">
<ele>510.205</ele>
<time>2022-05-25T10:20:17Z</time>
</trkpt>
<trkpt lat="48.33873" lon="10.77751">
<ele>510.205</ele>
<time>2022-05-25T10:20:18Z</time>
</trkpt>
<trkpt lat="48.338692" lon="10.777476">
<ele>510.205</ele>
<time>2022-05-25T10:20:19Z</time>
</trkpt>
<trkpt lat="48.338665" lon="10.777445">
<ele>510.205</ele>
<time>2022-05-25T10:20:20Z</time>
</trkpt>
<trkpt lat="48.338634" lon="10.777419">
<ele>510.205</ele>
<time>2022-05-25T10:20:21Z</time>
</trkpt>
<trkpt lat="48.3386" lon="10.777387">
<ele>510.206</ele>
<time>2022-05-25T10:20:22Z</time>
</trkpt>
<trkpt lat="48.338566" lon="10.777352">
<ele>510.205</ele>
<time>2022-05-25T10:20:23Z</time>
</trkpt>
<trkpt lat="48.338528" lon="10.777315">
<ele>510.205</ele>
<time>2022-05-25T10:20:24Z</time>
</trkpt>
<trkpt lat="48.338497" lon="10.777282">
<ele>510.206</ele>
<time>2022-05-25T10:20:25Z</time>
</trkpt>
<trkpt lat="48.338459" lon="10.777253">
<ele>510.206</ele>
<time>2022-05-25T10:20:26Z</time>
</trkpt>
<trkpt lat="48.338425" lon="10.777218">
<ele>510.205</ele>
<time>2022-05-25T10:20:27Z</time>
</trkpt>
<trkpt lat="48.338379" lon="10.777184">
<ele>510.205</ele>
<time>2022-05-25T10:20:28Z</time>
</trkpt>
<trkpt lat="48.338333" lon="10.777153">
<ele>510.449</ele>
<time>2022-05-25T10:20:29Z</time>
</trkpt>
<trkpt lat="48.338295" lon="10.777125">
<ele>510.643</ele>
<time>2022-05-25T10:20:30Z</time>
</trkpt>
<trkpt lat="48.338257" lon="10.777093">
<ele>510.803</ele>
<time>2022-05-25T10:20:31Z</time>
</trkpt>
<trkpt lat="48.338215" lon="10.777061">
<ele>510.93</ele>
<time>2022-05-25T10:20:32Z</time>
</trkpt>
<trkpt lat="48.338177" lon="10.777027">
<ele>511.029</ele>
<time>2022-05-25T10:20:33Z</time>
</trkpt>
<trkpt lat="48.338139" lon="10.776996">
<ele>511.097</ele>
<time>2022-05-25T10:20:34Z</time>
</trkpt>
<trkpt lat="48.338104" lon="10.776962">
<ele>511.139</ele>
<time>2022-05-25T10:20:35Z</time>
</trkpt>
<trkpt lat="48.338066" lon="10.776932">
<ele>511.16</ele>
<time>2022-05-25T10:20:36Z</time>
</trkpt>
<trkpt lat="48.338032" lon="10.776903">
<ele>511.16</ele>
<time>2022-05-25T10:20:37Z</time>
</trkpt>
<trkpt lat="48.33799" lon="10.776876">
<ele>511.16</ele>
<time>2022-05-25T10:20:38Z</time>
</trkpt>
<trkpt lat="48.337955" lon="10.77685">
<ele>511.16</ele>
<time>2022-05-25T10:20:39Z</time>
</trkpt>
<trkpt lat="48.337917" lon="10.776816">
<ele>511.16</ele>
<time>2022-05-25T10:20:40Z</time>
</trkpt>
<trkpt lat="48.337887" lon="10.776778">
<ele>511.16</ele>
<time>2022-05-25T10:20:41Z</time>
</trkpt>
<trkpt lat="48.337852" lon="10.776745">
<ele>511.16</ele>
<time>2022-05-25T10:20:42Z</time>
</trkpt>
<trkpt lat="48.337818" lon="10.776711">
<ele>511.16</ele>
<time>2022-05-25T10:20:43Z</time>
</trkpt>
<trkpt lat="48.33778" lon="10.776686">
<ele>511.16</ele>
<time>2022-05-25T10:20:44Z</time>
</trkpt>
<trkpt lat="48.337746" lon="10.776655">
<ele>511.404</ele>
<time>2022-05-25T10:20:45Z</time>
</trkpt>
<trkpt lat="48.337704" lon="10.776621">
<ele>511.597</ele>
<time>2022-05-25T10:20:46Z</time>
</trkpt>
<trkpt lat="48.337662" lon="10.776589">
<ele>511.754</ele>
<time>2022-05-25T10:20:47Z</time>
</trkpt>
<trkpt lat="48.337624" lon="10.776558">
<ele>511.851</ele>
<time>2022-05-25T10:20:48Z</time>
</trkpt>
<trkpt lat="48.337585" lon="10.776528">
<ele>511.909</ele>
<time>2022-05-25T10:20:49Z</time>
</trkpt>
<trkpt lat="48.337551" lon="10.776498">
<ele>511.996</ele>
<time>2022-05-25T10:20:50Z</time>
</trkpt>
<trkpt lat="48.337517" lon="10.77647">
<ele>512.039</ele>
<time>2022-05-25T10:20:51Z</time>
</trkpt>
<trkpt lat="48.337479" lon="10.776442">
<ele>511.619</ele>
<time>2022-05-25T10:20:52Z</time>
</trkpt>
<trkpt lat="48.33744" lon="10.776418">
<ele>511.635</ele>
<time>2022-05-25T10:20:53Z</time>
</trkpt>
<trkpt lat="48.337399" lon="10.776395">
<ele>511.863</ele>
<time>2022-05-25T10:20:54Z</time>
</trkpt>
<trkpt lat="48.337364" lon="10.776368">
<ele>512.047</ele>
<time>2022-05-25T10:20:55Z</time>
</trkpt>
<trkpt lat="48.33733" lon="10.776339">
<ele>512.199</ele>
<time>2022-05-25T10:20:56Z</time>
</trkpt>
<trkpt lat="48.337296" lon="10.776307">
<ele>512.323</ele>
<time>2022-05-25T10:20:57Z</time>
</trkpt>
<trkpt lat="48.337269" lon="10.776278">
<ele>512.423</ele>
<time>2022-05-25T10:20:58Z</time>
</trkpt>
<trkpt lat="48.337234" lon="10.776254">
<ele>512.616</ele>
<time>2022-05-25T10:20:59Z</time>
</trkpt>
<trkpt lat="48.337204" lon="10.77623">
<ele>512.631</ele>
<time>2022-05-25T10:21:00Z</time>
</trkpt>
<trkpt lat="48.337173" lon="10.776213">
<ele>512.635</ele>
<time>2022-05-25T10:21:01Z</time>
</trkpt>
<trkpt lat="48.337139" lon="10.776196">
<ele>512.635</ele>
<time>2022-05-25T10:21:02Z</time>
</trkpt>
<trkpt lat="48.337105" lon="10.776173">
<ele>512.635</ele>
<time>2022-05-25T10:21:03Z</time>
</trkpt>
<trkpt lat="48.33707" lon="10.776152">
<ele>512.635</ele>
<time>2022-05-25T10:21:04Z</time>
</trkpt>
<trkpt lat="48.337036" lon="10.776134">
<ele>512.635</ele>
<time>2022-05-25T10:21:05Z</time>
</trkpt>
<trkpt lat="48.337002" lon="10.776112">
<ele>512.635</ele>
<time>2022-05-25T10:21:06Z</time>
</trkpt>
<trkpt lat="48.336971" lon="10.776092">
<ele>512.635</ele>
<time>2022-05-25T10:21:07Z</time>
</trkpt>
<trkpt lat="48.336937" lon="10.77607">
<ele>512.635</ele>
<time>2022-05-25T10:21:08Z</time>
</trkpt>
<trkpt lat="48.336903" lon="10.776052">
<ele>512.635</ele>
<time>2022-05-25T10:21:09Z</time>
</trkpt>
<trkpt lat="48.336872" lon="10.776033">
<ele>512.917</ele>
<time>2022-05-25T10:21:10Z</time>
</trkpt>
<trkpt lat="48.336838" lon="10.776013">
<ele>513.135</ele>
<time>2022-05-25T10:21:11Z</time>
</trkpt>
<trkpt lat="48.336803" lon="10.776">
<ele>513.304</ele>
<time>2022-05-25T10:21:12Z</time>
</trkpt>
<trkpt lat="48.336769" lon="10.775982">
<ele>513.43</ele>
<time>2022-05-25T10:21:13Z</time>
</trkpt>
<trkpt lat="48.336735" lon="10.775971">
<ele>513.495</ele>
<time>2022-05-25T10:21:14Z</time>
</trkpt>
<trkpt lat="48.3367" lon="10.775961">
<ele>513.799</ele>
<time>2022-05-25T10:21:15Z</time>
</trkpt>
<trkpt lat="48.33667" lon="10.775944">
<ele>514.016</ele>
<time>2022-05-25T10:21:16Z</time>
</trkpt>
<trkpt lat="48.336643" lon="10.775929">
<ele>514.173</ele>
<time>2022-05-25T10:21:17Z</time>
</trkpt>
<trkpt lat="48.336613" lon="10.775917">
<ele>514.276</ele>
<time>2022-05-25T10:21:18Z</time>
</trkpt>
<trkpt lat="48.336582" lon="10.775908">
<ele>514.606</ele>
<time>2022-05-25T10:21:19Z</time>
</trkpt>
<trkpt lat="48.336563" lon="10.775896">
<ele>514.872</ele>
<time>2022-05-25T10:21:20Z</time>
</trkpt>
<trkpt lat="48.336536" lon="10.775888">
<ele>515.087</ele>
<time>2022-05-25T10:21:21Z</time>
</trkpt>
<trkpt lat="48.336502" lon="10.775877">
<ele>515.246</ele>
<time>2022-05-25T10:21:22Z</time>
</trkpt>
<trkpt lat="48.336468" lon="10.775867">
<ele>515.329</ele>
<time>2022-05-25T10:21:23Z</time>
</trkpt>
<trkpt lat="48.336433" lon="10.77586">
<ele>515.673</ele>
<time>2022-05-25T10:21:24Z</time>
</trkpt>
<trkpt lat="48.336399" lon="10.775855">
<ele>515.954</ele>
<time>2022-05-25T10:21:25Z</time>
</trkpt>
<trkpt lat="48.336365" lon="10.775848">
<ele>516.157</ele>
<time>2022-05-25T10:21:26Z</time>
</trkpt>
<trkpt lat="48.33633" lon="10.775838">
<ele>516.302</ele>
<time>2022-05-25T10:21:27Z</time>
</trkpt>
<trkpt lat="48.336296" lon="10.775826">
<ele>516.391</ele>
<time>2022-05-25T10:21:28Z</time>
</trkpt>
<trkpt lat="48.336258" lon="10.775817">
<ele>516.465</ele>
<time>2022-05-25T10:21:29Z</time>
</trkpt>
<trkpt lat="48.33622" lon="10.775806">
<ele>516.512</ele>
<time>2022-05-25T10:21:30Z</time>
</trkpt>
<trkpt lat="48.336174" lon="10.775797">
<ele>516.784</ele>
<time>2022-05-25T10:21:31Z</time>
</trkpt>
<trkpt lat="48.336128" lon="10.775786">
<ele>517.051</ele>
<time>2022-05-25T10:21:32Z</time>
</trkpt>
<trkpt lat="48.336082" lon="10.775782">
<ele>517.216</ele>
<time>2022-05-25T10:21:33Z</time>
</trkpt>
<trkpt lat="48.33604" lon="10.775779">
<ele>517.328</ele>
<time>2022-05-25T10:21:34Z</time>
</trkpt>
<trkpt lat="48.335999" lon="10.775773">
<ele>517.395</ele>
<time>2022-05-25T10:21:35Z</time>
</trkpt>
<trkpt lat="48.33596" lon="10.77577">
<ele>517.662</ele>
<time>2022-05-25T10:21:36Z</time>
</trkpt>
<trkpt lat="48.335922" lon="10.775773">
<ele>517.86</ele>
<time>2022-05-25T10:21:37Z</time>
</trkpt>
<trkpt lat="48.335892" lon="10.775785">
<ele>517.996</ele>
<time>2022-05-25T10:21:38Z</time>
</trkpt>
<trkpt lat="48.335873" lon="10.775804">
<ele>518.113</ele>
<time>2022-05-25T10:21:39Z</time>
</trkpt>
<trkpt lat="48.335857" lon="10.775813">
<ele>518.21</ele>
<time>2022-05-25T10:21:40Z</time>
</trkpt>
<trkpt lat="48.335854" lon="10.775817">
<ele>518.283</ele>
<time>2022-05-25T10:21:41Z</time>
</trkpt>
<trkpt lat="48.335854" lon="10.775819">
<ele>518.334</ele>
<time>2022-05-25T10:21:42Z</time>
</trkpt>
<trkpt lat="48.335854" lon="10.775822">
<ele>518.364</ele>
<time>2022-05-25T10:21:43Z</time>
</trkpt>
<trkpt lat="48.335831" lon="10.77581">
<ele>518.364</ele>
<time>2022-05-25T10:23:09Z</time>
</trkpt>
<trkpt lat="48.335823" lon="10.775812">
<ele>518.417</ele>
<time>2022-05-25T10:23:10Z</time>
</trkpt>
<trkpt lat="48.335815" lon="10.775812">
<ele>518.466</ele>
<time>2022-05-25T10:23:11Z</time>
</trkpt>
<trkpt lat="48.3358" lon="10.775812">
<ele>518.514</ele>
<time>2022-05-25T10:23:12Z</time>
</trkpt>
<trkpt lat="48.335789" lon="10.775812">
<ele>518.564</ele>
<time>2022-05-25T10:23:13Z</time>
</trkpt>
<trkpt lat="48.335777" lon="10.775812">
<ele>518.608</ele>
<time>2022-05-25T10:23:14Z</time>
</trkpt>
<trkpt lat="48.335766" lon="10.775812">
<ele>518.619</ele>
<time>2022-05-25T10:23:15Z</time>
</trkpt>
<trkpt lat="48.335758" lon="10.775812">
<ele>518.622</ele>
<time>2022-05-25T10:23:16Z</time>
</trkpt>
<trkpt lat="48.335747" lon="10.775815">
<ele>518.624</ele>
<time>2022-05-25T10:23:17Z</time>
</trkpt>
<trkpt lat="48.335732" lon="10.775815">
<ele>518.624</ele>
<time>2022-05-25T10:23:18Z</time>
</trkpt>
<trkpt lat="48.335724" lon="10.775817">
<ele>518.624</ele>
<time>2022-05-25T10:23:19Z</time>
</trkpt>
<trkpt lat="48.335709" lon="10.775821">
<ele>518.624</ele>
<time>2022-05-25T10:23:20Z</time>
</trkpt>
<trkpt lat="48.335697" lon="10.775826">
<ele>518.624</ele>
<time>2022-05-25T10:23:21Z</time>
</trkpt>
<trkpt lat="48.33569" lon="10.775833">
<ele>518.624</ele>
<time>2022-05-25T10:23:22Z</time>
</trkpt>
<trkpt lat="48.335674" lon="10.775838">
<ele>518.624</ele>
<time>2022-05-25T10:23:23Z</time>
</trkpt>
<trkpt lat="48.335663" lon="10.775846">
<ele>518.624</ele>
<time>2022-05-25T10:23:24Z</time>
</trkpt>
<trkpt lat="48.335655" lon="10.775855">
<ele>518.624</ele>
<time>2022-05-25T10:23:25Z</time>
</trkpt>
<trkpt lat="48.335644" lon="10.775863">
<ele>518.624</ele>
<time>2022-05-25T10:23:26Z</time>
</trkpt>
<trkpt lat="48.335632" lon="10.775871">
<ele>518.624</ele>
<time>2022-05-25T10:23:27Z</time>
</trkpt>
<trkpt lat="48.335625" lon="10.775879">
<ele>518.624</ele>
<time>2022-05-25T10:23:28Z</time>
</trkpt>
<trkpt lat="48.335621" lon="10.775884">
<ele>518.624</ele>
<time>2022-05-25T10:23:29Z</time>
</trkpt>
<trkpt lat="48.335613" lon="10.775887">
<ele>518.624</ele>
<time>2022-05-25T10:23:30Z</time>
</trkpt>
<trkpt lat="48.335609" lon="10.775887">
<ele>518.624</ele>
<time>2022-05-25T10:23:31Z</time>
</trkpt>
<trkpt lat="48.335613" lon="10.775886">
<ele>518.624</ele>
<time>2022-05-25T10:23:32Z</time>
</trkpt>
<trkpt lat="48.335602" lon="10.77591">
<ele>518.624</ele>
<time>2022-05-25T10:24:57Z</time>
</trkpt>
<trkpt lat="48.335598" lon="10.77592">
<ele>518.828</ele>
<time>2022-05-25T10:24:58Z</time>
</trkpt>
<trkpt lat="48.33559" lon="10.77594">
<ele>519.027</ele>
<time>2022-05-25T10:24:59Z</time>
</trkpt>
<trkpt lat="48.335571" lon="10.775963">
<ele>519.218</ele>
<time>2022-05-25T10:25:00Z</time>
</trkpt>
<trkpt lat="48.335552" lon="10.775992">
<ele>519.349</ele>
<time>2022-05-25T10:25:01Z</time>
</trkpt>
<trkpt lat="48.335529" lon="10.776026">
<ele>519.442</ele>
<time>2022-05-25T10:25:02Z</time>
</trkpt>
<trkpt lat="48.33551" lon="10.776057">
<ele>519.479</ele>
<time>2022-05-25T10:25:03Z</time>
</trkpt>
<trkpt lat="48.335491" lon="10.776085">
<ele>519.49</ele>
<time>2022-05-25T10:25:04Z</time>
</trkpt>
<trkpt lat="48.335472" lon="10.776115">
<ele>519.492</ele>
<time>2022-05-25T10:25:05Z</time>
</trkpt>
<trkpt lat="48.335457" lon="10.77615">
<ele>519.492</ele>
<time>2022-05-25T10:25:06Z</time>
</trkpt>
<trkpt lat="48.335438" lon="10.776183">
<ele>519.492</ele>
<time>2022-05-25T10:25:07Z</time>
</trkpt>
<trkpt lat="48.335419" lon="10.776218">
<ele>519.729</ele>
<time>2022-05-25T10:25:08Z</time>
</trkpt>
<trkpt lat="48.3354" lon="10.776258">
<ele>519.922</ele>
<time>2022-05-25T10:25:09Z</time>
</trkpt>
<trkpt lat="48.335388" lon="10.77629">
<ele>520.08</ele>
<time>2022-05-25T10:25:10Z</time>
</trkpt>
<trkpt lat="48.335381" lon="10.776319">
<ele>520.211</ele>
<time>2022-05-25T10:25:11Z</time>
</trkpt>
<trkpt lat="48.335365" lon="10.776357">
<ele>520.311</ele>
<time>2022-05-25T10:25:12Z</time>
</trkpt>
<trkpt lat="48.33535" lon="10.776401">
<ele>520.368</ele>
<time>2022-05-25T10:25:13Z</time>
</trkpt>
<trkpt lat="48.335339" lon="10.776442">
<ele>520.676</ele>
<time>2022-05-25T10:25:14Z</time>
</trkpt>
<trkpt lat="48.335335" lon="10.776479">
<ele>520.914</ele>
<time>2022-05-25T10:25:15Z</time>
</trkpt>
<trkpt lat="48.335323" lon="10.776517">
<ele>521.085</ele>
<time>2022-05-25T10:25:16Z</time>
</trkpt>
<trkpt lat="48.335312" lon="10.776546">
<ele>521.205</ele>
<time>2022-05-25T10:25:17Z</time>
</trkpt>
<trkpt lat="48.3353" lon="10.776573">
<ele>521.332</ele>
<time>2022-05-25T10:25:18Z</time>
</trkpt>
<trkpt lat="48.335289" lon="10.776612">
<ele>521.666</ele>
<time>2022-05-25T10:25:19Z</time>
</trkpt>
<trkpt lat="48.335274" lon="10.776653">
<ele>521.911</ele>
<time>2022-05-25T10:25:20Z</time>
</trkpt>
<trkpt lat="48.335262" lon="10.776687">
<ele>522.112</ele>
<time>2022-05-25T10:25:21Z</time>
</trkpt>
<trkpt lat="48.335251" lon="10.77672">
<ele>522.34</ele>
<time>2022-05-25T10:25:22Z</time>
</trkpt>
<trkpt lat="48.335243" lon="10.776759">
<ele>522.449</ele>
<time>2022-05-25T10:25:23Z</time>
</trkpt>
<trkpt lat="48.335236" lon="10.776795">
<ele>522.499</ele>
<time>2022-05-25T10:25:24Z</time>
</trkpt>
<trkpt lat="48.335236" lon="10.776832">
<ele>522.795</ele>
<time>2022-05-25T10:25:25Z</time>
</trkpt>
<trkpt lat="48.335236" lon="10.77687">
<ele>522.995</ele>
<time>2022-05-25T10:25:26Z</time>
</trkpt>
<trkpt lat="48.335228" lon="10.776906">
<ele>523.126</ele>
<time>2022-05-25T10:25:27Z</time>
</trkpt>
<trkpt lat="48.33522" lon="10.776943">
<ele>523.28</ele>
<time>2022-05-25T10:25:28Z</time>
</trkpt>
<trkpt lat="48.335213" lon="10.776979">
<ele>523.409</ele>
<time>2022-05-25T10:25:29Z</time>
</trkpt>
<trkpt lat="48.335201" lon="10.777025">
<ele>523.496</ele>
<time>2022-05-25T10:25:30Z</time>
</trkpt>
<trkpt lat="48.335194" lon="10.777078">
<ele>523.547</ele>
<time>2022-05-25T10:25:31Z</time>
</trkpt>
<trkpt lat="48.335186" lon="10.777126">
<ele>523.574</ele>
<time>2022-05-25T10:25:32Z</time>
</trkpt>
<trkpt lat="48.335171" lon="10.777175">
<ele>523.574</ele>
<time>2022-05-25T10:25:33Z</time>
</trkpt>
<trkpt lat="48.335155" lon="10.777216">
<ele>523.834</ele>
<time>2022-05-25T10:25:34Z</time>
</trkpt>
<trkpt lat="48.335136" lon="10.777265">
<ele>524.034</ele>
<time>2022-05-25T10:25:35Z</time>
</trkpt>
<trkpt lat="48.335121" lon="10.777308">
<ele>524.184</ele>
<time>2022-05-25T10:25:36Z</time>
</trkpt>
<trkpt lat="48.335098" lon="10.777346">
<ele>524.276</ele>
<time>2022-05-25T10:25:37Z</time>
</trkpt>
<trkpt lat="48.335079" lon="10.777393">
<ele>524.376</ele>
<time>2022-05-25T10:25:38Z</time>
</trkpt>
<trkpt lat="48.335072" lon="10.777433">
<ele>524.452</ele>
<time>2022-05-25T10:25:39Z</time>
</trkpt>
<trkpt lat="48.335056" lon="10.777473">
<ele>524.504</ele>
<time>2022-05-25T10:25:40Z</time>
</trkpt>
<trkpt lat="48.335045" lon="10.777515">
<ele>524.734</ele>
<time>2022-05-25T10:25:41Z</time>
</trkpt>
<trkpt lat="48.335037" lon="10.777557">
<ele>524.951</ele>
<time>2022-05-25T10:25:42Z</time>
</trkpt>
<trkpt lat="48.335022" lon="10.777601">
<ele>525.091</ele>
<time>2022-05-25T10:25:43Z</time>
</trkpt>
<trkpt lat="48.334999" lon="10.777657">
<ele>525.203</ele>
<time>2022-05-25T10:25:44Z</time>
</trkpt>
<trkpt lat="48.334976" lon="10.77772">
<ele>525.282</ele>
<time>2022-05-25T10:25:45Z</time>
</trkpt>
<trkpt lat="48.334949" lon="10.77777">
<ele>525.336</ele>
<time>2022-05-25T10:25:46Z</time>
</trkpt>
<trkpt lat="48.334923" lon="10.777813">
<ele>525.377</ele>
<time>2022-05-25T10:25:47Z</time>
</trkpt>
<trkpt lat="48.334896" lon="10.77785">
<ele>525.648</ele>
<time>2022-05-25T10:25:48Z</time>
</trkpt>
<trkpt lat="48.334877" lon="10.777895">
<ele>525.846</ele>
<time>2022-05-25T10:25:49Z</time>
</trkpt>
<trkpt lat="48.33485" lon="10.777925">
<ele>525.997</ele>
<time>2022-05-25T10:25:50Z</time>
</trkpt>
<trkpt lat="48.334824" lon="10.777949">
<ele>526.111</ele>
<time>2022-05-25T10:25:51Z</time>
</trkpt>
<trkpt lat="48.334801" lon="10.777973">
<ele>526.198</ele>
<time>2022-05-25T10:25:52Z</time>
</trkpt>
<trkpt lat="48.334778" lon="10.778006">
<ele>526.273</ele>
<time>2022-05-25T10:25:53Z</time>
</trkpt>
<trkpt lat="48.334751" lon="10.778046">
<ele>526.329</ele>
<time>2022-05-25T10:25:54Z</time>
</trkpt>
<trkpt lat="48.334724" lon="10.778083">
<ele>526.354</ele>
<time>2022-05-25T10:25:55Z</time>
</trkpt>
<trkpt lat="48.334698" lon="10.778115">
<ele>526.588</ele>
<time>2022-05-25T10:25:56Z</time>
</trkpt>
<trkpt lat="48.334667" lon="10.778142">
<ele>526.757</ele>
<time>2022-05-25T10:25:57Z</time>
</trkpt>
<trkpt lat="48.334633" lon="10.778169">
<ele>526.936</ele>
<time>2022-05-25T10:25:58Z</time>
</trkpt>
<trkpt lat="48.334606" lon="10.778196">
<ele>527.073</ele>
<time>2022-05-25T10:25:59Z</time>
</trkpt>
<trkpt lat="48.334583" lon="10.778222">
<ele>527.175</ele>
<time>2022-05-25T10:26:00Z</time>
</trkpt>
<trkpt lat="48.334553" lon="10.778247">
<ele>527.233</ele>
<time>2022-05-25T10:26:01Z</time>
</trkpt>
<trkpt lat="48.334522" lon="10.77827">
<ele>527.489</ele>
<time>2022-05-25T10:26:02Z</time>
</trkpt>
<trkpt lat="48.334503" lon="10.778293">
<ele>527.687</ele>
<time>2022-05-25T10:26:03Z</time>
</trkpt>
<trkpt lat="48.334484" lon="10.778322">
<ele>527.858</ele>
<time>2022-05-25T10:26:04Z</time>
</trkpt>
<trkpt lat="48.334457" lon="10.778356">
<ele>527.962</ele>
<time>2022-05-25T10:26:05Z</time>
</trkpt>
<trkpt lat="48.334446" lon="10.778389">
<ele>528.041</ele>
<time>2022-05-25T10:26:06Z</time>
</trkpt>
<trkpt lat="48.334442" lon="10.778423">
<ele>528.104</ele>
<time>2022-05-25T10:26:07Z</time>
</trkpt>
<trkpt lat="48.334435" lon="10.778462">
<ele>528.156</ele>
<time>2022-05-25T10:26:08Z</time>
</trkpt>
<trkpt lat="48.334435" lon="10.778499">
<ele>528.42</ele>
<time>2022-05-25T10:26:09Z</time>
</trkpt>
<trkpt lat="48.334435" lon="10.77853">
<ele>528.705</ele>
<time>2022-05-25T10:26:10Z</time>
</trkpt>
<trkpt lat="48.334442" lon="10.778609">
<ele>528.909</ele>
<time>2022-05-25T10:26:11Z</time>
</trkpt>
<trkpt lat="48.334435" lon="10.778675">
<ele>529.012</ele>
<time>2022-05-25T10:26:12Z</time>
</trkpt>
<trkpt lat="48.334423" lon="10.778731">
<ele>529.397</ele>
<time>2022-05-25T10:26:13Z</time>
</trkpt>
<trkpt lat="48.334415" lon="10.778789">
<ele>529.685</ele>
<time>2022-05-25T10:26:14Z</time>
</trkpt>
<trkpt lat="48.334404" lon="10.77884">
<ele>529.866</ele>
<time>2022-05-25T10:26:15Z</time>
</trkpt>
<trkpt lat="48.334408" lon="10.778886">
<ele>529.98</ele>
<time>2022-05-25T10:26:16Z</time>
</trkpt>
<trkpt lat="48.334404" lon="10.778928">
<ele>530.05</ele>
<time>2022-05-25T10:26:17Z</time>
</trkpt>
<trkpt lat="48.334408" lon="10.778967">
<ele>530.11</ele>
<time>2022-05-25T10:26:18Z</time>
</trkpt>
<trkpt lat="48.334404" lon="10.779005">
<ele>530.366</ele>
<time>2022-05-25T10:26:19Z</time>
</trkpt>
<trkpt lat="48.334404" lon="10.779043">
<ele>530.605</ele>
<time>2022-05-25T10:26:20Z</time>
</trkpt>
<trkpt lat="48.334408" lon="10.779082">
<ele>530.868</ele>
<time>2022-05-25T10:26:21Z</time>
</trkpt>
<trkpt lat="48.334404" lon="10.779122">
<ele>531.009</ele>
<time>2022-05-25T10:26:22Z</time>
</trkpt>
<trkpt lat="48.334404" lon="10.779157">
<ele>531.116</ele>
<time>2022-05-25T10:26:23Z</time>
</trkpt>
<trkpt lat="48.334408" lon="10.779183">
<ele>531.182</ele>
<time>2022-05-25T10:26:24Z</time>
</trkpt>
<trkpt lat="48.334408" lon="10.779208">
<ele>531.212</ele>
<time>2022-05-25T10:26:25Z</time>
</trkpt>
<trkpt lat="48.334404" lon="10.779235">
<ele>531.221</ele>
<time>2022-05-25T10:26:26Z</time>
</trkpt>
<trkpt lat="48.334404" lon="10.779261">
<ele>531.221</ele>
<time>2022-05-25T10:26:27Z</time>
</trkpt>
<trkpt lat="48.334412" lon="10.779285">
<ele>531.221</ele>
<time>2022-05-25T10:26:28Z</time>
</trkpt>
<trkpt lat="48.334415" lon="10.779313">
<ele>531.221</ele>
<time>2022-05-25T10:26:29Z</time>
</trkpt>
<trkpt lat="48.334412" lon="10.779357">
<ele>531.516</ele>
<time>2022-05-25T10:26:30Z</time>
</trkpt>
<trkpt lat="48.334419" lon="10.779397">
<ele>531.772</ele>
<time>2022-05-25T10:26:31Z</time>
</trkpt>
<trkpt lat="48.334446" lon="10.779427">
<ele>531.962</ele>
<time>2022-05-25T10:26:32Z</time>
</trkpt>
<trkpt lat="48.334457" lon="10.779481">
<ele>532.102</ele>
<time>2022-05-25T10:26:33Z</time>
</trkpt>
<trkpt lat="48.334473" lon="10.779529">
<ele>532.182</ele>
<time>2022-05-25T10:26:34Z</time>
</trkpt>
<trkpt lat="48.334484" lon="10.779569">
<ele>532.229</ele>
<time>2022-05-25T10:26:35Z</time>
</trkpt>
<trkpt lat="48.334492" lon="10.779612">
<ele>532.248</ele>
<time>2022-05-25T10:26:36Z</time>
</trkpt>
<trkpt lat="48.334499" lon="10.779653">
<ele>532.264</ele>
<time>2022-05-25T10:26:37Z</time>
</trkpt>
<trkpt lat="48.334499" lon="10.77969">
<ele>532.492</ele>
<time>2022-05-25T10:26:38Z</time>
</trkpt>
<trkpt lat="48.334499" lon="10.779725">
<ele>532.678</ele>
<time>2022-05-25T10:26:39Z</time>
</trkpt>
<trkpt lat="48.334503" lon="10.779758">
<ele>532.827</ele>
<time>2022-05-25T10:26:40Z</time>
</trkpt>
<trkpt lat="48.334507" lon="10.779789">
<ele>532.949</ele>
<time>2022-05-25T10:26:41Z</time>
</trkpt>
<trkpt lat="48.334507" lon="10.77982">
<ele>533.061</ele>
<time>2022-05-25T10:26:42Z</time>
</trkpt>
<trkpt lat="48.334511" lon="10.779852">
<ele>533.132</ele>
<time>2022-05-25T10:26:43Z</time>
</trkpt>
<trkpt lat="48.334503" lon="10.779892">
<ele>533.432</ele>
<time>2022-05-25T10:26:44Z</time>
</trkpt>
<trkpt lat="48.334507" lon="10.779937">
<ele>533.643</ele>
<time>2022-05-25T10:26:45Z</time>
</trkpt>
<trkpt lat="48.334507" lon="10.779971">
<ele>533.693</ele>
<time>2022-05-25T10:26:46Z</time>
</trkpt>
<trkpt lat="48.334496" lon="10.780006">
<ele>533.48</ele>
<time>2022-05-25T10:26:47Z</time>
</trkpt>
<trkpt lat="48.334492" lon="10.780038">
<ele>533.756</ele>
<time>2022-05-25T10:26:48Z</time>
</trkpt>
<trkpt lat="48.334484" lon="10.780068">
<ele>534.218</ele>
<time>2022-05-25T10:26:49Z</time>
</trkpt>
<trkpt lat="48.334484" lon="10.780102">
<ele>534.521</ele>
<time>2022-05-25T10:26:50Z</time>
</trkpt>
<trkpt lat="48.334484" lon="10.780125">
<ele>534.878</ele>
<time>2022-05-25T10:26:51Z</time>
</trkpt>
<trkpt lat="48.334484" lon="10.780147">
<ele>535.119</ele>
<time>2022-05-25T10:26:52Z</time>
</trkpt>
<trkpt lat="48.334484" lon="10.78017">
<ele>535.319</ele>
<time>2022-05-25T10:26:53Z</time>
</trkpt>
<trkpt lat="48.334484" lon="10.7802">
<ele>535.484</ele>
<time>2022-05-25T10:26:54Z</time>
</trkpt>
<trkpt lat="48.334492" lon="10.780231">
<ele>535.594</ele>
<time>2022-05-25T10:26:55Z</time>
</trkpt>
<trkpt lat="48.334503" lon="10.780262">
<ele>535.622</ele>
<time>2022-05-25T10:26:56Z</time>
</trkpt>
<trkpt lat="48.334511" lon="10.78029">
<ele>535.708</ele>
<time>2022-05-25T10:26:57Z</time>
</trkpt>
<trkpt lat="48.334526" lon="10.780332">
<ele>535.966</ele>
<time>2022-05-25T10:26:58Z</time>
</trkpt>
<trkpt lat="48.334545" lon="10.780375">
<ele>536.197</ele>
<time>2022-05-25T10:26:59Z</time>
</trkpt>
<trkpt lat="48.334572" lon="10.780428">
<ele>536.31</ele>
<time>2022-05-25T10:27:00Z</time>
</trkpt>
<trkpt lat="48.334583" lon="10.780482">
<ele>536.825</ele>
<time>2022-05-25T10:27:01Z</time>
</trkpt>
<trkpt lat="48.334587" lon="10.780523">
<ele>537.182</ele>
<time>2022-05-25T10:27:02Z</time>
</trkpt>
<trkpt lat="48.334583" lon="10.780558">
<ele>537.406</ele>
<time>2022-05-25T10:27:03Z</time>
</trkpt>
<trkpt lat="48.334579" lon="10.780583">
<ele>537.849</ele>
<time>2022-05-25T10:27:04Z</time>
</trkpt>
<trkpt lat="48.334572" lon="10.780608">
<ele>538.16</ele>
<time>2022-05-25T10:27:05Z</time>
</trkpt>
<trkpt lat="48.334579" lon="10.780639">
<ele>538.341</ele>
<time>2022-05-25T10:27:06Z</time>
</trkpt>
<trkpt lat="48.334579" lon="10.780668">
<ele>538.717</ele>
<time>2022-05-25T10:27:07Z</time>
</trkpt>
<trkpt lat="48.334591" lon="10.78071">
<ele>539.04</ele>
<time>2022-05-25T10:27:08Z</time>
</trkpt>
<trkpt lat="48.334595" lon="10.780738">
<ele>539.289</ele>
<time>2022-05-25T10:27:09Z</time>
</trkpt>
<trkpt lat="48.334595" lon="10.780764">
<ele>539.811</ele>
<time>2022-05-25T10:27:10Z</time>
</trkpt>
<trkpt lat="48.334591" lon="10.780787">
<ele>540.221</ele>
<time>2022-05-25T10:27:11Z</time>
</trkpt>
<trkpt lat="48.334583" lon="10.780813">
<ele>540.479</ele>
<time>2022-05-25T10:27:12Z</time>
</trkpt>
<trkpt lat="48.334572" lon="10.78084">
<ele>540.952</ele>
<time>2022-05-25T10:27:13Z</time>
</trkpt>
<trkpt lat="48.334564" lon="10.780868">
<ele>541.304</ele>
<time>2022-05-25T10:27:14Z</time>
</trkpt>
<trkpt lat="48.334557" lon="10.780911">
<ele>541.554</ele>
<time>2022-05-25T10:27:15Z</time>
</trkpt>
<trkpt lat="48.334549" lon="10.780949">
<ele>541.986</ele>
<time>2022-05-25T10:27:16Z</time>
</trkpt>
<trkpt lat="48.334541" lon="10.780987">
<ele>542.36</ele>
<time>2022-05-25T10:27:17Z</time>
</trkpt>
<trkpt lat="48.334538" lon="10.781023">
<ele>542.914</ele>
<time>2022-05-25T10:27:18Z</time>
</trkpt>
<trkpt lat="48.334534" lon="10.781072">
<ele>543.317</ele>
<time>2022-05-25T10:27:19Z</time>
</trkpt>
<trkpt lat="48.334534" lon="10.781121">
<ele>543.539</ele>
<time>2022-05-25T10:27:20Z</time>
</trkpt>
<trkpt lat="48.33453" lon="10.78116">
<ele>544</ele>
<time>2022-05-25T10:27:21Z</time>
</trkpt>
<trkpt lat="48.334522" lon="10.781203">
<ele>544.294</ele>
<time>2022-05-25T10:27:22Z</time>
</trkpt>
<trkpt lat="48.334526" lon="10.781249">
<ele>544.77</ele>
<time>2022-05-25T10:27:23Z</time>
</trkpt>
<trkpt lat="48.334545" lon="10.781291">
<ele>545.164</ele>
<time>2022-05-25T10:27:24Z</time>
</trkpt>
<trkpt lat="48.334564" lon="10.781337">
<ele>545.442</ele>
<time>2022-05-25T10:27:25Z</time>
</trkpt>
<trkpt lat="48.334579" lon="10.781377">
<ele>545.596</ele>
<time>2022-05-25T10:27:26Z</time>
</trkpt>
<trkpt lat="48.334583" lon="10.781417">
<ele>545.989</ele>
<time>2022-05-25T10:27:27Z</time>
</trkpt>
<trkpt lat="48.334583" lon="10.781448">
<ele>546.333</ele>
<time>2022-05-25T10:27:28Z</time>
</trkpt>
<trkpt lat="48.334576" lon="10.7815">
<ele>546.593</ele>
<time>2022-05-25T10:27:29Z</time>
</trkpt>
<trkpt lat="48.334572" lon="10.781531">
<ele>546.739</ele>
<time>2022-05-25T10:27:30Z</time>
</trkpt>
<trkpt lat="48.334572" lon="10.781565">
<ele>547.08</ele>
<time>2022-05-25T10:27:31Z</time>
</trkpt>
<trkpt lat="48.334572" lon="10.781599">
<ele>547.354</ele>
<time>2022-05-25T10:27:32Z</time>
</trkpt>
<trkpt lat="48.334583" lon="10.781629">
<ele>547.577</ele>
<time>2022-05-25T10:27:33Z</time>
</trkpt>
<trkpt lat="48.334583" lon="10.781657">
<ele>547.752</ele>
<time>2022-05-25T10:27:34Z</time>
</trkpt>
<trkpt lat="48.334583" lon="10.781689">
<ele>547.858</ele>
<time>2022-05-25T10:27:35Z</time>
</trkpt>
<trkpt lat="48.334591" lon="10.781741">
<ele>548.184</ele>
<time>2022-05-25T10:27:36Z</time>
</trkpt>
<trkpt lat="48.334591" lon="10.781775">
<ele>548.396</ele>
<time>2022-05-25T10:27:37Z</time>
</trkpt>
<trkpt lat="48.334595" lon="10.781805">
<ele>548.636</ele>
<time>2022-05-25T10:27:38Z</time>
</trkpt>
<trkpt lat="48.334591" lon="10.781845">
<ele>549.029</ele>
<time>2022-05-25T10:27:39Z</time>
</trkpt>
<trkpt lat="48.334591" lon="10.781881">
<ele>549.345</ele>
<time>2022-05-25T10:27:40Z</time>
</trkpt>
<trkpt lat="48.334591" lon="10.781917">
<ele>549.587</ele>
<time>2022-05-25T10:27:41Z</time>
</trkpt>
<trkpt lat="48.334602" lon="10.781955">
<ele>549.762</ele>
<time>2022-05-25T10:27:42Z</time>
</trkpt>
<trkpt lat="48.33461" lon="10.781993">
<ele>549.869</ele>
<time>2022-05-25T10:27:43Z</time>
</trkpt>
<trkpt lat="48.334614" lon="10.782042">
<ele>549.975</ele>
<time>2022-05-25T10:27:44Z</time>
</trkpt>
<trkpt lat="48.334614" lon="10.782084">
<ele>550.303</ele>
<time>2022-05-25T10:27:45Z</time>
</trkpt>
<trkpt lat="48.33461" lon="10.782123">
<ele>550.544</ele>
<time>2022-05-25T10:27:46Z</time>
</trkpt>
<trkpt lat="48.334621" lon="10.782177">
<ele>550.689</ele>
<time>2022-05-25T10:27:47Z</time>
</trkpt>
<trkpt lat="48.334614" lon="10.782222">
<ele>550.854</ele>
<time>2022-05-25T10:27:48Z</time>
</trkpt>
<trkpt lat="48.334618" lon="10.782267">
<ele>551.251</ele>
<time>2022-05-25T10:27:49Z</time>
</trkpt>
<trkpt lat="48.334629" lon="10.782307">
<ele>551.546</ele>
<time>2022-05-25T10:27:50Z</time>
</trkpt>
<trkpt lat="48.334637" lon="10.782334">
<ele>551.773</ele>
<time>2022-05-25T10:27:51Z</time>
</trkpt>
<trkpt lat="48.334656" lon="10.782383">
<ele>551.903</ele>
<time>2022-05-25T10:27:52Z</time>
</trkpt>
<trkpt lat="48.334671" lon="10.782408">
<ele>552.37</ele>
<time>2022-05-25T10:27:53Z</time>
</trkpt>
<trkpt lat="48.334679" lon="10.782441">
<ele>552.635</ele>
<time>2022-05-25T10:27:54Z</time>
</trkpt>
<trkpt lat="48.334698" lon="10.782478">
<ele>552.819</ele>
<time>2022-05-25T10:27:55Z</time>
</trkpt>
<trkpt lat="48.334709" lon="10.782512">
<ele>552.94</ele>
<time>2022-05-25T10:27:56Z</time>
</trkpt>
<trkpt lat="48.334698" lon="10.782546">
<ele>553.271</ele>
<time>2022-05-25T10:27:57Z</time>
</trkpt>
<trkpt lat="48.33469" lon="10.782569">
<ele>553.563</ele>
<time>2022-05-25T10:27:58Z</time>
</trkpt>
<trkpt lat="48.33469" lon="10.78261">
<ele>553.787</ele>
<time>2022-05-25T10:27:59Z</time>
</trkpt>
<trkpt lat="48.334682" lon="10.782655">
<ele>553.927</ele>
<time>2022-05-25T10:28:00Z</time>
</trkpt>
<trkpt lat="48.334682" lon="10.782692">
<ele>554.041</ele>
<time>2022-05-25T10:28:01Z</time>
</trkpt>
<trkpt lat="48.334679" lon="10.782725">
<ele>554.348</ele>
<time>2022-05-25T10:28:02Z</time>
</trkpt>
<trkpt lat="48.334675" lon="10.782766">
<ele>554.588</ele>
<time>2022-05-25T10:28:03Z</time>
</trkpt>
<trkpt lat="48.334679" lon="10.782806">
<ele>554.798</ele>
<time>2022-05-25T10:28:04Z</time>
</trkpt>
<trkpt lat="48.334682" lon="10.782845">
<ele>554.939</ele>
<time>2022-05-25T10:28:05Z</time>
</trkpt>
<trkpt lat="48.334679" lon="10.782884">
<ele>555.028</ele>
<time>2022-05-25T10:28:06Z</time>
</trkpt>
<trkpt lat="48.334675" lon="10.782921">
<ele>555.069</ele>
<time>2022-05-25T10:28:07Z</time>
</trkpt>
<trkpt lat="48.334663" lon="10.782952">
<ele>555.351</ele>
<time>2022-05-25T10:28:08Z</time>
</trkpt>
<trkpt lat="48.334648" lon="10.782989">
<ele>555.584</ele>
<time>2022-05-25T10:28:09Z</time>
</trkpt>
<trkpt lat="48.334648" lon="10.78303">
<ele>555.745</ele>
<time>2022-05-25T10:28:10Z</time>
</trkpt>
<trkpt lat="48.334644" lon="10.783072">
<ele>555.869</ele>
<time>2022-05-25T10:28:11Z</time>
</trkpt>
<trkpt lat="48.334637" lon="10.783113">
<ele>555.972</ele>
<time>2022-05-25T10:28:12Z</time>
</trkpt>
<trkpt lat="48.334629" lon="10.783155">
<ele>556.034</ele>
<time>2022-05-25T10:28:13Z</time>
</trkpt>
<trkpt lat="48.334625" lon="10.783185">
<ele>556.301</ele>
<time>2022-05-25T10:28:14Z</time>
</trkpt>
<trkpt lat="48.334637" lon="10.783223">
<ele>556.505</ele>
<time>2022-05-25T10:28:15Z</time>
</trkpt>
<trkpt lat="48.334644" lon="10.783271">
<ele>556.654</ele>
<time>2022-05-25T10:28:16Z</time>
</trkpt>
<trkpt lat="48.334648" lon="10.783319">
<ele>556.738</ele>
<time>2022-05-25T10:28:17Z</time>
</trkpt>
<trkpt lat="48.334648" lon="10.783355">
<ele>556.841</ele>
<time>2022-05-25T10:28:18Z</time>
</trkpt>
<trkpt lat="48.334644" lon="10.783401">
<ele>556.914</ele>
<time>2022-05-25T10:28:19Z</time>
</trkpt>
<trkpt lat="48.334637" lon="10.783442">
<ele>556.96</ele>
<time>2022-05-25T10:28:20Z</time>
</trkpt>
<trkpt lat="48.334625" lon="10.783502">
<ele>557.232</ele>
<time>2022-05-25T10:28:21Z</time>
</trkpt>
<trkpt lat="48.334637" lon="10.783572">
<ele>557.498</ele>
<time>2022-05-25T10:28:22Z</time>
</trkpt>
<trkpt lat="48.334637" lon="10.783612">
<ele>557.638</ele>
<time>2022-05-25T10:28:23Z</time>
</trkpt>
<trkpt lat="48.334644" lon="10.783663">
<ele>557.75</ele>
<time>2022-05-25T10:28:24Z</time>
</trkpt>
<trkpt lat="48.334644" lon="10.783707">
<ele>557.838</ele>
<time>2022-05-25T10:28:25Z</time>
</trkpt>
<trkpt lat="48.334648" lon="10.783761">
<ele>557.888</ele>
<time>2022-05-25T10:28:26Z</time>
</trkpt>
<trkpt lat="48.334656" lon="10.783803">
<ele>557.92</ele>
<time>2022-05-25T10:28:27Z</time>
</trkpt>
<trkpt lat="48.334667" lon="10.783855">
<ele>557.943</ele>
<time>2022-05-25T10:28:28Z</time>
</trkpt>
<trkpt lat="48.334667" lon="10.783892">
<ele>558.235</ele>
<time>2022-05-25T10:28:29Z</time>
</trkpt>
<trkpt lat="48.334682" lon="10.783947">
<ele>558.478</ele>
<time>2022-05-25T10:28:30Z</time>
</trkpt>
<trkpt lat="48.33469" lon="10.783985">
<ele>558.688</ele>
<time>2022-05-25T10:28:31Z</time>
</trkpt>
<trkpt lat="48.33469" lon="10.784039">
<ele>558.804</ele>
<time>2022-05-25T10:28:32Z</time>
</trkpt>
<trkpt lat="48.33469" lon="10.784083">
<ele>558.901</ele>
<time>2022-05-25T10:28:33Z</time>
</trkpt>
<trkpt lat="48.334702" lon="10.784123">
<ele>558.952</ele>
<time>2022-05-25T10:28:34Z</time>
</trkpt>
<trkpt lat="48.334705" lon="10.784151">
<ele>558.982</ele>
<time>2022-05-25T10:28:35Z</time>
</trkpt>
<trkpt lat="48.334713" lon="10.784184">
<ele>558.989</ele>
<time>2022-05-25T10:28:36Z</time>
</trkpt>
<trkpt lat="48.334721" lon="10.784226">
<ele>558.989</ele>
<time>2022-05-25T10:28:37Z</time>
</trkpt>
<trkpt lat="48.334732" lon="10.784268">
<ele>558.989</ele>
<time>2022-05-25T10:28:38Z</time>
</trkpt>
<trkpt lat="48.334743" lon="10.784308">
<ele>559.268</ele>
<time>2022-05-25T10:28:39Z</time>
</trkpt>
<trkpt lat="48.334755" lon="10.784351">
<ele>559.483</ele>
<time>2022-05-25T10:28:40Z</time>
</trkpt>
<trkpt lat="48.334766" lon="10.78438">
<ele>559.667</ele>
<time>2022-05-25T10:28:41Z</time>
</trkpt>
<trkpt lat="48.334782" lon="10.784407">
<ele>559.793</ele>
<time>2022-05-25T10:28:42Z</time>
</trkpt>
<trkpt lat="48.334793" lon="10.784445">
<ele>559.88</ele>
<time>2022-05-25T10:28:43Z</time>
</trkpt>
<trkpt lat="48.334808" lon="10.784477">
<ele>559.92</ele>
<time>2022-05-25T10:28:44Z</time>
</trkpt>
<trkpt lat="48.334824" lon="10.784509">
<ele>559.941</ele>
<time>2022-05-25T10:28:45Z</time>
</trkpt>
<trkpt lat="48.334839" lon="10.784542">
<ele>559.948</ele>
<time>2022-05-25T10:28:46Z</time>
</trkpt>
<trkpt lat="48.334839" lon="10.784593">
<ele>560.139</ele>
<time>2022-05-25T10:28:47Z</time>
</trkpt>
<trkpt lat="48.334827" lon="10.784656">
<ele>560.336</ele>
<time>2022-05-25T10:28:48Z</time>
</trkpt>
<trkpt lat="48.33482" lon="10.78471">
<ele>560.504</ele>
<time>2022-05-25T10:28:49Z</time>
</trkpt>
<trkpt lat="48.334812" lon="10.784765">
<ele>560.62</ele>
<time>2022-05-25T10:28:50Z</time>
</trkpt>
<trkpt lat="48.334812" lon="10.784823">
<ele>560.706</ele>
<time>2022-05-25T10:28:51Z</time>
</trkpt>
<trkpt lat="48.33482" lon="10.784867">
<ele>560.768</ele>
<time>2022-05-25T10:28:52Z</time>
</trkpt>
<trkpt lat="48.334831" lon="10.784899">
<ele>560.804</ele>
<time>2022-05-25T10:28:53Z</time>
</trkpt>
<trkpt lat="48.334831" lon="10.784946">
<ele>560.82</ele>
<time>2022-05-25T10:28:54Z</time>
</trkpt>
<trkpt lat="48.334831" lon="10.784976">
<ele>561.038</ele>
<time>2022-05-25T10:28:55Z</time>
</trkpt>
<trkpt lat="48.33482" lon="10.785028">
<ele>561.218</ele>
<time>2022-05-25T10:28:56Z</time>
</trkpt>
<trkpt lat="48.334808" lon="10.785093">
<ele>561.354</ele>
<time>2022-05-25T10:28:57Z</time>
</trkpt>
<trkpt lat="48.334805" lon="10.785158">
<ele>561.504</ele>
<time>2022-05-25T10:28:58Z</time>
</trkpt>
<trkpt lat="48.334801" lon="10.785219">
<ele>561.623</ele>
<time>2022-05-25T10:28:59Z</time>
</trkpt>
<trkpt lat="48.334801" lon="10.785274">
<ele>561.706</ele>
<time>2022-05-25T10:29:00Z</time>
</trkpt>
<trkpt lat="48.334801" lon="10.785322">
<ele>562.057</ele>
<time>2022-05-25T10:29:01Z</time>
</trkpt>
<trkpt lat="48.334793" lon="10.785365">
<ele>562.302</ele>
<time>2022-05-25T10:29:02Z</time>
</trkpt>
<trkpt lat="48.334789" lon="10.785406">
<ele>562.54</ele>
<time>2022-05-25T10:29:03Z</time>
</trkpt>
<trkpt lat="48.334782" lon="10.785445">
<ele>562.649</ele>
<time>2022-05-25T10:29:04Z</time>
</trkpt>
<trkpt lat="48.334782" lon="10.785477">
<ele>562.74</ele>
<time>2022-05-25T10:29:05Z</time>
</trkpt>
<trkpt lat="48.334782" lon="10.785515">
<ele>562.812</ele>
<time>2022-05-25T10:29:06Z</time>
</trkpt>
<trkpt lat="48.334782" lon="10.785559">
<ele>562.873</ele>
<time>2022-05-25T10:29:07Z</time>
</trkpt>
<trkpt lat="48.334785" lon="10.785595">
<ele>563.152</ele>
<time>2022-05-25T10:29:08Z</time>
</trkpt>
<trkpt lat="48.334785" lon="10.785642">
<ele>563.369</ele>
<time>2022-05-25T10:29:09Z</time>
</trkpt>
<trkpt lat="48.334782" lon="10.785682">
<ele>563.553</ele>
<time>2022-05-25T10:29:10Z</time>
</trkpt>
<trkpt lat="48.334778" lon="10.78572">
<ele>563.671</ele>
<time>2022-05-25T10:29:11Z</time>
</trkpt>
<trkpt lat="48.33477" lon="10.78576">
<ele>564.039</ele>
<time>2022-05-25T10:29:12Z</time>
</trkpt>
<trkpt lat="48.334763" lon="10.785789">
<ele>564.323</ele>
<time>2022-05-25T10:29:13Z</time>
</trkpt>
<trkpt lat="48.334755" lon="10.78582">
<ele>564.518</ele>
<time>2022-05-25T10:29:14Z</time>
</trkpt>
<trkpt lat="48.334751" lon="10.785862">
<ele>564.669</ele>
<time>2022-05-25T10:29:15Z</time>
</trkpt>
<trkpt lat="48.334751" lon="10.785895">
<ele>564.772</ele>
<time>2022-05-25T10:29:16Z</time>
</trkpt>
<trkpt lat="48.33474" lon="10.78595">
<ele>564.829</ele>
<time>2022-05-25T10:29:17Z</time>
</trkpt>
<trkpt lat="48.334736" lon="10.78599">
<ele>565.132</ele>
<time>2022-05-25T10:29:18Z</time>
</trkpt>
<trkpt lat="48.334728" lon="10.786021">
<ele>565.333</ele>
<time>2022-05-25T10:29:19Z</time>
</trkpt>
<trkpt lat="48.334717" lon="10.786061">
<ele>565.726</ele>
<time>2022-05-25T10:29:20Z</time>
</trkpt>
<trkpt lat="48.334713" lon="10.786095">
<ele>566.057</ele>
<time>2022-05-25T10:29:21Z</time>
</trkpt>
<trkpt lat="48.334709" lon="10.786132">
<ele>566.283</ele>
<time>2022-05-25T10:29:22Z</time>
</trkpt>
<trkpt lat="48.334713" lon="10.786166">
<ele>566.456</ele>
<time>2022-05-25T10:29:23Z</time>
</trkpt>
<trkpt lat="48.334713" lon="10.7862">
<ele>566.576</ele>
<time>2022-05-25T10:29:24Z</time>
</trkpt>
<trkpt lat="48.334713" lon="10.786235">
<ele>566.88</ele>
<time>2022-05-25T10:29:25Z</time>
</trkpt>
<trkpt lat="48.334713" lon="10.786259">
<ele>567.141</ele>
<time>2022-05-25T10:29:26Z</time>
</trkpt>
<trkpt lat="48.334713" lon="10.786302">
<ele>567.3</ele>
<time>2022-05-25T10:29:27Z</time>
</trkpt>
<trkpt lat="48.334713" lon="10.786346">
<ele>567.429</ele>
<time>2022-05-25T10:29:28Z</time>
</trkpt>
<trkpt lat="48.334709" lon="10.786422">
<ele>567.816</ele>
<time>2022-05-25T10:29:29Z</time>
</trkpt>
<trkpt lat="48.334702" lon="10.78647">
<ele>568.109</ele>
<time>2022-05-25T10:29:30Z</time>
</trkpt>
<trkpt lat="48.334698" lon="10.786515">
<ele>568.327</ele>
<time>2022-05-25T10:29:31Z</time>
</trkpt>
<trkpt lat="48.334694" lon="10.786569">
<ele>568.446</ele>
<time>2022-05-25T10:29:32Z</time>
</trkpt>
<trkpt lat="48.33469" lon="10.786623">
<ele>568.873</ele>
<time>2022-05-25T10:29:33Z</time>
</trkpt>
<trkpt lat="48.334686" lon="10.786681">
<ele>569.122</ele>
<time>2022-05-25T10:29:34Z</time>
</trkpt>
<trkpt lat="48.334682" lon="10.786745">
<ele>569.272</ele>
<time>2022-05-25T10:29:35Z</time>
</trkpt>
<trkpt lat="48.33469" lon="10.786793">
<ele>569.361</ele>
<time>2022-05-25T10:29:36Z</time>
</trkpt>
<trkpt lat="48.33469" lon="10.78685">
<ele>569.666</ele>
<time>2022-05-25T10:29:37Z</time>
</trkpt>
<trkpt lat="48.334682" lon="10.786901">
<ele>569.983</ele>
<time>2022-05-25T10:29:38Z</time>
</trkpt>
<trkpt lat="48.33469" lon="10.786947">
<ele>570.175</ele>
<time>2022-05-25T10:29:39Z</time>
</trkpt>
<trkpt lat="48.334694" lon="10.787">
<ele>570.576</ele>
<time>2022-05-25T10:29:40Z</time>
</trkpt>
<trkpt lat="48.334686" lon="10.787053">
<ele>570.849</ele>
<time>2022-05-25T10:29:41Z</time>
</trkpt>
<trkpt lat="48.334682" lon="10.787095">
<ele>571.334</ele>
<time>2022-05-25T10:29:42Z</time>
</trkpt>
<trkpt lat="48.334679" lon="10.787136">
<ele>571.728</ele>
<time>2022-05-25T10:29:43Z</time>
</trkpt>
<trkpt lat="48.334675" lon="10.787183">
<ele>572.012</ele>
<time>2022-05-25T10:29:44Z</time>
</trkpt>
<trkpt lat="48.334675" lon="10.787229">
<ele>572.502</ele>
<time>2022-05-25T10:29:45Z</time>
</trkpt>
<trkpt lat="48.334675" lon="10.787272">
<ele>572.829</ele>
<time>2022-05-25T10:29:46Z</time>
</trkpt>
<trkpt lat="48.334667" lon="10.787318">
<ele>573.066</ele>
<time>2022-05-25T10:29:47Z</time>
</trkpt>
<trkpt lat="48.334667" lon="10.787352">
<ele>573.475</ele>
<time>2022-05-25T10:29:48Z</time>
</trkpt>
<trkpt lat="48.334663" lon="10.787378">
<ele>573.806</ele>
<time>2022-05-25T10:29:49Z</time>
</trkpt>
<trkpt lat="48.334667" lon="10.787409">
<ele>574.033</ele>
<time>2022-05-25T10:29:50Z</time>
</trkpt>
<trkpt lat="48.334667" lon="10.787444">
<ele>574.413</ele>
<time>2022-05-25T10:29:51Z</time>
</trkpt>
<trkpt lat="48.334675" lon="10.787478">
<ele>574.711</ele>
<time>2022-05-25T10:29:52Z</time>
</trkpt>
<trkpt lat="48.334679" lon="10.787516">
<ele>574.943</ele>
<time>2022-05-25T10:29:53Z</time>
</trkpt>
<trkpt lat="48.334682" lon="10.787549">
<ele>575.093</ele>
<time>2022-05-25T10:29:54Z</time>
</trkpt>
<trkpt lat="48.334682" lon="10.787588">
<ele>575.487</ele>
<time>2022-05-25T10:29:55Z</time>
</trkpt>
<trkpt lat="48.334682" lon="10.787631">
<ele>575.815</ele>
<time>2022-05-25T10:29:56Z</time>
</trkpt>
<trkpt lat="48.334682" lon="10.787666">
<ele>576.004</ele>
<time>2022-05-25T10:29:57Z</time>
</trkpt>
<trkpt lat="48.334682" lon="10.7877">
<ele>576.167</ele>
<time>2022-05-25T10:29:58Z</time>
</trkpt>
<trkpt lat="48.33469" lon="10.787726">
<ele>576.267</ele>
<time>2022-05-25T10:29:59Z</time>
</trkpt>
<trkpt lat="48.334702" lon="10.78777">
<ele>576.586</ele>
<time>2022-05-25T10:30:00Z</time>
</trkpt>
<trkpt lat="48.334705" lon="10.787808">
<ele>576.838</ele>
<time>2022-05-25T10:30:01Z</time>
</trkpt>
<trkpt lat="48.33474" lon="10.787836">
<ele>577.031</ele>
<time>2022-05-25T10:30:02Z</time>
</trkpt>
<trkpt lat="48.33474" lon="10.787864">
<ele>577.213</ele>
<time>2022-05-25T10:30:03Z</time>
</trkpt>
<trkpt lat="48.334743" lon="10.787899">
<ele>577.298</ele>
<time>2022-05-25T10:30:04Z</time>
</trkpt>
<trkpt lat="48.334747" lon="10.787933">
<ele>577.347</ele>
<time>2022-05-25T10:30:05Z</time>
</trkpt>
<trkpt lat="48.334759" lon="10.787966">
<ele>577.378</ele>
<time>2022-05-25T10:30:06Z</time>
</trkpt>
<trkpt lat="48.334766" lon="10.788008">
<ele>577.397</ele>
<time>2022-05-25T10:30:07Z</time>
</trkpt>
<trkpt lat="48.334763" lon="10.788048">
<ele>577.604</ele>
<time>2022-05-25T10:30:08Z</time>
</trkpt>
<trkpt lat="48.334763" lon="10.788088">
<ele>577.783</ele>
<time>2022-05-25T10:30:09Z</time>
</trkpt>
<trkpt lat="48.334755" lon="10.788121">
<ele>577.926</ele>
<time>2022-05-25T10:30:10Z</time>
</trkpt>
<trkpt lat="48.334751" lon="10.78816">
<ele>578.074</ele>
<time>2022-05-25T10:30:11Z</time>
</trkpt>
<trkpt lat="48.334747" lon="10.788203">
<ele>578.151</ele>
<time>2022-05-25T10:30:12Z</time>
</trkpt>
<trkpt lat="48.334747" lon="10.788245">
<ele>578.213</ele>
<time>2022-05-25T10:30:13Z</time>
</trkpt>
<trkpt lat="48.33474" lon="10.78829">
<ele>578.253</ele>
<time>2022-05-25T10:30:14Z</time>
</trkpt>
<trkpt lat="48.334732" lon="10.78833">
<ele>578.271</ele>
<time>2022-05-25T10:30:15Z</time>
</trkpt>
<trkpt lat="48.334728" lon="10.788372">
<ele>578.271</ele>
<time>2022-05-25T10:30:16Z</time>
</trkpt>
<trkpt lat="48.334724" lon="10.788414">
<ele>578.271</ele>
<time>2022-05-25T10:30:17Z</time>
</trkpt>
<trkpt lat="48.334728" lon="10.788455">
<ele>578.271</ele>
<time>2022-05-25T10:30:18Z</time>
</trkpt>
<trkpt lat="48.334732" lon="10.788495">
<ele>578.556</ele>
<time>2022-05-25T10:30:19Z</time>
</trkpt>
<trkpt lat="48.334736" lon="10.788538">
<ele>578.776</ele>
<time>2022-05-25T10:30:20Z</time>
</trkpt>
<trkpt lat="48.334736" lon="10.788587">
<ele>578.947</ele>
<time>2022-05-25T10:30:21Z</time>
</trkpt>
<trkpt lat="48.334736" lon="10.788631">
<ele>579.069</ele>
<time>2022-05-25T10:30:22Z</time>
</trkpt>
<trkpt lat="48.334732" lon="10.78868">
<ele>579.157</ele>
<time>2022-05-25T10:30:23Z</time>
</trkpt>
<trkpt lat="48.334736" lon="10.788724">
<ele>579.208</ele>
<time>2022-05-25T10:30:24Z</time>
</trkpt>
<trkpt lat="48.334736" lon="10.78877">
<ele>579.232</ele>
<time>2022-05-25T10:30:25Z</time>
</trkpt>
<trkpt lat="48.334736" lon="10.788815">
<ele>579.232</ele>
<time>2022-05-25T10:30:26Z</time>
</trkpt>
<trkpt lat="48.334736" lon="10.788863">
<ele>579.232</ele>
<time>2022-05-25T10:30:27Z</time>
</trkpt>
<trkpt lat="48.334732" lon="10.78891">
<ele>579.232</ele>
<time>2022-05-25T10:30:28Z</time>
</trkpt>
<trkpt lat="48.334732" lon="10.788957">
<ele>579.232</ele>
<time>2022-05-25T10:30:29Z</time>
</trkpt>
<trkpt lat="48.334728" lon="10.789001">
<ele>579.231</ele>
<time>2022-05-25T10:30:30Z</time>
</trkpt>
<trkpt lat="48.334724" lon="10.789045">
<ele>579.232</ele>
<time>2022-05-25T10:30:31Z</time>
</trkpt>
<trkpt lat="48.334724" lon="10.789099">
<ele>579.231</ele>
<time>2022-05-25T10:30:32Z</time>
</trkpt>
<trkpt lat="48.334721" lon="10.78915">
<ele>579.232</ele>
<time>2022-05-25T10:30:33Z</time>
</trkpt>
<trkpt lat="48.334717" lon="10.7892">
<ele>579.231</ele>
<time>2022-05-25T10:30:34Z</time>
</trkpt>
<trkpt lat="48.334713" lon="10.789252">
<ele>579.477</ele>
<time>2022-05-25T10:30:35Z</time>
</trkpt>
<trkpt lat="48.334705" lon="10.789303">
<ele>579.672</ele>
<time>2022-05-25T10:30:36Z</time>
</trkpt>
<trkpt lat="48.334705" lon="10.789353">
<ele>579.802</ele>
<time>2022-05-25T10:30:37Z</time>
</trkpt>
<trkpt lat="48.334709" lon="10.789403">
<ele>579.943</ele>
<time>2022-05-25T10:30:38Z</time>
</trkpt>
<trkpt lat="48.334713" lon="10.789452">
<ele>580.046</ele>
<time>2022-05-25T10:30:39Z</time>
</trkpt>
<trkpt lat="48.334713" lon="10.7895">
<ele>580.116</ele>
<time>2022-05-25T10:30:40Z</time>
</trkpt>
<trkpt lat="48.334713" lon="10.789554">
<ele>580.168</ele>
<time>2022-05-25T10:30:41Z</time>
</trkpt>
<trkpt lat="48.334717" lon="10.789602">
<ele>580.192</ele>
<time>2022-05-25T10:30:42Z</time>
</trkpt>
<trkpt lat="48.334721" lon="10.789644">
<ele>580.192</ele>
<time>2022-05-25T10:30:43Z</time>
</trkpt>
<trkpt lat="48.334721" lon="10.789686">
<ele>580.192</ele>
<time>2022-05-25T10:30:44Z</time>
</trkpt>
<trkpt lat="48.334724" lon="10.789732">
<ele>580.192</ele>
<time>2022-05-25T10:30:45Z</time>
</trkpt>
<trkpt lat="48.334724" lon="10.789779">
<ele>580.192</ele>
<time>2022-05-25T10:30:46Z</time>
</trkpt>
<trkpt lat="48.334724" lon="10.78982">
<ele>580.439</ele>
<time>2022-05-25T10:30:47Z</time>
</trkpt>
<trkpt lat="48.334721" lon="10.789864">
<ele>580.672</ele>
<time>2022-05-25T10:30:48Z</time>
</trkpt>
<trkpt lat="48.334721" lon="10.789907">
<ele>580.866</ele>
<time>2022-05-25T10:30:49Z</time>
</trkpt>
<trkpt lat="48.334728" lon="10.789947">
<ele>581.032</ele>
<time>2022-05-25T10:30:50Z</time>
</trkpt>
<trkpt lat="48.334732" lon="10.789995">
<ele>581.16</ele>
<time>2022-05-25T10:30:51Z</time>
</trkpt>
<trkpt lat="48.334732" lon="10.790047">
<ele>581.247</ele>
<time>2022-05-25T10:30:52Z</time>
</trkpt>
<trkpt lat="48.334728" lon="10.7901">
<ele>581.301</ele>
<time>2022-05-25T10:30:53Z</time>
</trkpt>
<trkpt lat="48.334721" lon="10.790147">
<ele>581.328</ele>
<time>2022-05-25T10:30:54Z</time>
</trkpt>
<trkpt lat="48.334717" lon="10.790198">
<ele>581.328</ele>
<time>2022-05-25T10:30:55Z</time>
</trkpt>
<trkpt lat="48.334709" lon="10.790252">
<ele>581.328</ele>
<time>2022-05-25T10:30:56Z</time>
</trkpt>
<trkpt lat="48.334702" lon="10.79031">
<ele>581.328</ele>
<time>2022-05-25T10:30:57Z</time>
</trkpt>
<trkpt lat="48.334694" lon="10.790371">
<ele>581.328</ele>
<time>2022-05-25T10:30:58Z</time>
</trkpt>
<trkpt lat="48.334694" lon="10.79043">
<ele>581.328</ele>
<time>2022-05-25T10:30:59Z</time>
</trkpt>
<trkpt lat="48.334702" lon="10.790478">
<ele>581.328</ele>
<time>2022-05-25T10:31:00Z</time>
</trkpt>
<trkpt lat="48.334702" lon="10.790533">
<ele>581.328</ele>
<time>2022-05-25T10:31:01Z</time>
</trkpt>
<trkpt lat="48.334698" lon="10.790595">
<ele>581.328</ele>
<time>2022-05-25T10:31:02Z</time>
</trkpt>
<trkpt lat="48.334698" lon="10.790655">
<ele>581.328</ele>
<time>2022-05-25T10:31:03Z</time>
</trkpt>
<trkpt lat="48.33469" lon="10.790712">
<ele>581.328</ele>
<time>2022-05-25T10:31:04Z</time>
</trkpt>
<trkpt lat="48.334686" lon="10.790767">
<ele>581.328</ele>
<time>2022-05-25T10:31:05Z</time>
</trkpt>
<trkpt lat="48.334682" lon="10.790823">
<ele>581.328</ele>
<time>2022-05-25T10:31:06Z</time>
</trkpt>
<trkpt lat="48.334682" lon="10.790876">
<ele>581.328</ele>
<time>2022-05-25T10:31:07Z</time>
</trkpt>
<trkpt lat="48.334686" lon="10.790933">
<ele>581.328</ele>
<time>2022-05-25T10:31:08Z</time>
</trkpt>
<trkpt lat="48.33469" lon="10.790989">
<ele>581.328</ele>
<time>2022-05-25T10:31:09Z</time>
</trkpt>
<trkpt lat="48.334694" lon="10.791045">
<ele>581.328</ele>
<time>2022-05-25T10:31:10Z</time>
</trkpt>
<trkpt lat="48.334702" lon="10.791101">
<ele>581.328</ele>
<time>2022-05-25T10:31:11Z</time>
</trkpt>
<trkpt lat="48.334702" lon="10.791153">
<ele>581.328</ele>
<time>2022-05-25T10:31:12Z</time>
</trkpt>
<trkpt lat="48.334698" lon="10.791208">
<ele>581.328</ele>
<time>2022-05-25T10:31:13Z</time>
</trkpt>
<trkpt lat="48.33469" lon="10.791259">
<ele>581.328</ele>
<time>2022-05-25T10:31:14Z</time>
</trkpt>
<trkpt lat="48.334682" lon="10.791307">
<ele>581.328</ele>
<time>2022-05-25T10:31:15Z</time>
</trkpt>
<trkpt lat="48.334671" lon="10.791355">
<ele>581.328</ele>
<time>2022-05-25T10:31:16Z</time>
</trkpt>
<trkpt lat="48.334675" lon="10.791405">
<ele>581.328</ele>
<time>2022-05-25T10:31:17Z</time>
</trkpt>
<trkpt lat="48.334675" lon="10.791456">
<ele>581.328</ele>
<time>2022-05-25T10:31:18Z</time>
</trkpt>
<trkpt lat="48.334667" lon="10.791513">
<ele>581.328</ele>
<time>2022-05-25T10:31:19Z</time>
</trkpt>
<trkpt lat="48.334667" lon="10.791572">
<ele>581.328</ele>
<time>2022-05-25T10:31:20Z</time>
</trkpt>
<trkpt lat="48.334671" lon="10.791632">
<ele>581.328</ele>
<time>2022-05-25T10:31:21Z</time>
</trkpt>
<trkpt lat="48.334675" lon="10.791691">
<ele>581.328</ele>
<time>2022-05-25T10:31:22Z</time>
</trkpt>
<trkpt lat="48.334663" lon="10.791747">
<ele>581.328</ele>
<time>2022-05-25T10:31:23Z</time>
</trkpt>
<trkpt lat="48.334656" lon="10.791804">
<ele>581.328</ele>
<time>2022-05-25T10:31:24Z</time>
</trkpt>
<trkpt lat="48.334656" lon="10.791865">
<ele>581.058</ele>
<time>2022-05-25T10:31:25Z</time>
</trkpt>
<trkpt lat="48.334648" lon="10.791926">
<ele>580.851</ele>
<time>2022-05-25T10:31:26Z</time>
</trkpt>
<trkpt lat="48.334648" lon="10.791982">
<ele>580.714</ele>
<time>2022-05-25T10:31:27Z</time>
</trkpt>
<trkpt lat="48.334648" lon="10.792049">
<ele>580.561</ele>
<time>2022-05-25T10:31:28Z</time>
</trkpt>
<trkpt lat="48.334644" lon="10.792116">
<ele>580.454</ele>
<time>2022-05-25T10:31:29Z</time>
</trkpt>
<trkpt lat="48.334641" lon="10.792188">
<ele>580.12</ele>
<time>2022-05-25T10:31:30Z</time>
</trkpt>
<trkpt lat="48.334644" lon="10.792249">
<ele>579.864</ele>
<time>2022-05-25T10:31:31Z</time>
</trkpt>
<trkpt lat="48.334644" lon="10.792312">
<ele>579.678</ele>
<time>2022-05-25T10:31:32Z</time>
</trkpt>
<trkpt lat="48.334648" lon="10.792377">
<ele>579.495</ele>
<time>2022-05-25T10:31:33Z</time>
</trkpt>
<trkpt lat="48.334641" lon="10.79244">
<ele>579.419</ele>
<time>2022-05-25T10:31:34Z</time>
</trkpt>
<trkpt lat="48.334633" lon="10.792501">
<ele>579.369</ele>
<time>2022-05-25T10:31:35Z</time>
</trkpt>
<trkpt lat="48.334629" lon="10.792561">
<ele>579.342</ele>
<time>2022-05-25T10:31:36Z</time>
</trkpt>
<trkpt lat="48.334621" lon="10.792613">
<ele>579.319</ele>
<time>2022-05-25T10:31:37Z</time>
</trkpt>
<trkpt lat="48.334618" lon="10.792671">
<ele>579.319</ele>
<time>2022-05-25T10:31:38Z</time>
</trkpt>
<trkpt lat="48.334618" lon="10.792732">
<ele>579.319</ele>
<time>2022-05-25T10:31:39Z</time>
</trkpt>
<trkpt lat="48.334614" lon="10.792791">
<ele>579.319</ele>
<time>2022-05-25T10:31:40Z</time>
</trkpt>
<trkpt lat="48.334614" lon="10.792847">
<ele>579.319</ele>
<time>2022-05-25T10:31:41Z</time>
</trkpt>
<trkpt lat="48.334618" lon="10.792912">
<ele>579.319</ele>
<time>2022-05-25T10:31:42Z</time>
</trkpt>
<trkpt lat="48.334618" lon="10.792978">
<ele>579.319</ele>
<time>2022-05-25T10:31:43Z</time>
</trkpt>
<trkpt lat="48.334614" lon="10.793042">
<ele>579.319</ele>
<time>2022-05-25T10:31:44Z</time>
</trkpt>
<trkpt lat="48.334618" lon="10.793103">
<ele>579.319</ele>
<time>2022-05-25T10:31:45Z</time>
</trkpt>
<trkpt lat="48.334629" lon="10.79317">
<ele>579.319</ele>
<time>2022-05-25T10:31:46Z</time>
</trkpt>
<trkpt lat="48.334633" lon="10.793235">
<ele>579.319</ele>
<time>2022-05-25T10:31:47Z</time>
</trkpt>
<trkpt lat="48.334629" lon="10.793303">
<ele>579.319</ele>
<time>2022-05-25T10:31:48Z</time>
</trkpt>
<trkpt lat="48.334633" lon="10.793369">
<ele>579.319</ele>
<time>2022-05-25T10:31:49Z</time>
</trkpt>
<trkpt lat="48.334633" lon="10.793438">
<ele>579.319</ele>
<time>2022-05-25T10:31:50Z</time>
</trkpt>
<trkpt lat="48.334637" lon="10.793502">
<ele>579.319</ele>
<time>2022-05-25T10:31:51Z</time>
</trkpt>
<trkpt lat="48.334629" lon="10.79356">
<ele>579.319</ele>
<time>2022-05-25T10:31:52Z</time>
</trkpt>
<trkpt lat="48.334618" lon="10.793618">
<ele>579.319</ele>
<time>2022-05-25T10:31:53Z</time>
</trkpt>
<trkpt lat="48.334602" lon="10.793669">
<ele>579.319</ele>
<time>2022-05-25T10:31:54Z</time>
</trkpt>
<trkpt lat="48.334595" lon="10.793721">
<ele>579.319</ele>
<time>2022-05-25T10:31:55Z</time>
</trkpt>
<trkpt lat="48.334595" lon="10.793778">
<ele>579.319</ele>
<time>2022-05-25T10:31:56Z</time>
</trkpt>
<trkpt lat="48.334587" lon="10.793834">
<ele>579.319</ele>
<time>2022-05-25T10:31:57Z</time>
</trkpt>
<trkpt lat="48.334583" lon="10.79389">
<ele>579.073</ele>
<time>2022-05-25T10:31:58Z</time>
</trkpt>
<trkpt lat="48.334583" lon="10.793943">
<ele>578.859</ele>
<time>2022-05-25T10:31:59Z</time>
</trkpt>
<trkpt lat="48.334579" lon="10.794">
<ele>578.68</ele>
<time>2022-05-25T10:32:00Z</time>
</trkpt>
<trkpt lat="48.334572" lon="10.794065">
<ele>578.536</ele>
<time>2022-05-25T10:32:01Z</time>
</trkpt>
<trkpt lat="48.334568" lon="10.794129">
<ele>578.421</ele>
<time>2022-05-25T10:32:02Z</time>
</trkpt>
<trkpt lat="48.33456" lon="10.794195">
<ele>578.356</ele>
<time>2022-05-25T10:32:03Z</time>
</trkpt>
<trkpt lat="48.334557" lon="10.794255">
<ele>578.057</ele>
<time>2022-05-25T10:32:04Z</time>
</trkpt>
<trkpt lat="48.334549" lon="10.794327">
<ele>577.826</ele>
<time>2022-05-25T10:32:05Z</time>
</trkpt>
<trkpt lat="48.334541" lon="10.794398">
<ele>577.663</ele>
<time>2022-05-25T10:32:06Z</time>
</trkpt>
<trkpt lat="48.334545" lon="10.79446">
<ele>577.563</ele>
<time>2022-05-25T10:32:07Z</time>
</trkpt>
<trkpt lat="48.334549" lon="10.794518">
<ele>577.463</ele>
<time>2022-05-25T10:32:08Z</time>
</trkpt>
<trkpt lat="48.33456" lon="10.794577">
<ele>577.157</ele>
<time>2022-05-25T10:32:09Z</time>
</trkpt>
<trkpt lat="48.334572" lon="10.79463">
<ele>576.912</ele>
<time>2022-05-25T10:32:10Z</time>
</trkpt>
<trkpt lat="48.334583" lon="10.794686">
<ele>576.728</ele>
<time>2022-05-25T10:32:11Z</time>
</trkpt>
<trkpt lat="48.334587" lon="10.794733">
<ele>576.536</ele>
<time>2022-05-25T10:32:12Z</time>
</trkpt>
<trkpt lat="48.334587" lon="10.794771">
<ele>576.219</ele>
<time>2022-05-25T10:32:13Z</time>
</trkpt>
<trkpt lat="48.334595" lon="10.794817">
<ele>575.956</ele>
<time>2022-05-25T10:32:14Z</time>
</trkpt>
<trkpt lat="48.334602" lon="10.794863">
<ele>575.768</ele>
<time>2022-05-25T10:32:15Z</time>
</trkpt>
<trkpt lat="48.334614" lon="10.794915">
<ele>575.652</ele>
<time>2022-05-25T10:32:16Z</time>
</trkpt>
<trkpt lat="48.334621" lon="10.79496">
<ele>575.567</ele>
<time>2022-05-25T10:32:17Z</time>
</trkpt>
<trkpt lat="48.334629" lon="10.795005">
<ele>575.271</ele>
<time>2022-05-25T10:32:18Z</time>
</trkpt>
<trkpt lat="48.334641" lon="10.795047">
<ele>575.035</ele>
<time>2022-05-25T10:32:19Z</time>
</trkpt>
<trkpt lat="48.334648" lon="10.795092">
<ele>574.873</ele>
<time>2022-05-25T10:32:20Z</time>
</trkpt>
<trkpt lat="48.334656" lon="10.795137">
<ele>574.485</ele>
<time>2022-05-25T10:32:21Z</time>
</trkpt>
<trkpt lat="48.334656" lon="10.795179">
<ele>574.191</ele>
<time>2022-05-25T10:32:22Z</time>
</trkpt>
<trkpt lat="48.334663" lon="10.795227">
<ele>573.989</ele>
<time>2022-05-25T10:32:23Z</time>
</trkpt>
<trkpt lat="48.334667" lon="10.795259">
<ele>573.568</ele>
<time>2022-05-25T10:32:24Z</time>
</trkpt>
<trkpt lat="48.334679" lon="10.79533">
<ele>573.205</ele>
<time>2022-05-25T10:32:25Z</time>
</trkpt>
<trkpt lat="48.334679" lon="10.795372">
<ele>572.995</ele>
<time>2022-05-25T10:32:26Z</time>
</trkpt>
<trkpt lat="48.334682" lon="10.795431">
<ele>572.581</ele>
<time>2022-05-25T10:32:27Z</time>
</trkpt>
<trkpt lat="48.334694" lon="10.795479">
<ele>572.254</ele>
<time>2022-05-25T10:32:28Z</time>
</trkpt>
<trkpt lat="48.334705" lon="10.795531">
<ele>571.75</ele>
<time>2022-05-25T10:32:29Z</time>
</trkpt>
<trkpt lat="48.334686" lon="10.795613">
<ele>571.409</ele>
<time>2022-05-25T10:32:30Z</time>
</trkpt>
<trkpt lat="48.334682" lon="10.795724">
<ele>570.839</ele>
<time>2022-05-25T10:32:31Z</time>
</trkpt>
<trkpt lat="48.334686" lon="10.795839">
<ele>570.495</ele>
<time>2022-05-25T10:32:32Z</time>
</trkpt>
<trkpt lat="48.334698" lon="10.795937">
<ele>569.931</ele>
<time>2022-05-25T10:32:33Z</time>
</trkpt>
<trkpt lat="48.334698" lon="10.796046">
<ele>569.496</ele>
<time>2022-05-25T10:32:34Z</time>
</trkpt>
<trkpt lat="48.33469" lon="10.79617">
<ele>568.891</ele>
<time>2022-05-25T10:32:35Z</time>
</trkpt>
<trkpt lat="48.334671" lon="10.796345">
<ele>568.153</ele>
<time>2022-05-25T10:32:36Z</time>
</trkpt>
<trkpt lat="48.334671" lon="10.796474">
<ele>567.743</ele>
<time>2022-05-25T10:32:37Z</time>
</trkpt>
<trkpt lat="48.334686" lon="10.796618">
<ele>567.365</ele>
<time>2022-05-25T10:32:38Z</time>
</trkpt>
<trkpt lat="48.334671" lon="10.79679">
<ele>567.079</ele>
<time>2022-05-25T10:32:39Z</time>
</trkpt>
<trkpt lat="48.334656" lon="10.796949">
<ele>566.866</ele>
<time>2022-05-25T10:32:40Z</time>
</trkpt>
<trkpt lat="48.334648" lon="10.797075">
<ele>566.74</ele>
<time>2022-05-25T10:32:41Z</time>
</trkpt>
<trkpt lat="48.334637" lon="10.797203">
<ele>566.681</ele>
<time>2022-05-25T10:32:42Z</time>
</trkpt>
<trkpt lat="48.334644" lon="10.797363">
<ele>566.663</ele>
<time>2022-05-25T10:32:43Z</time>
</trkpt>
<trkpt lat="48.334644" lon="10.797473">
<ele>566.663</ele>
<time>2022-05-25T10:32:44Z</time>
</trkpt>
<trkpt lat="48.334641" lon="10.797559">
<ele>566.663</ele>
<time>2022-05-25T10:32:45Z</time>
</trkpt>
<trkpt lat="48.334641" lon="10.79763">
<ele>566.663</ele>
<time>2022-05-25T10:32:46Z</time>
</trkpt>
<trkpt lat="48.334641" lon="10.797689">
<ele>566.663</ele>
<time>2022-05-25T10:32:47Z</time>
</trkpt>
<trkpt lat="48.334644" lon="10.797742">
<ele>566.663</ele>
<time>2022-05-25T10:32:48Z</time>
</trkpt>
<trkpt lat="48.334656" lon="10.797793">
<ele>566.663</ele>
<time>2022-05-25T10:32:49Z</time>
</trkpt>
<trkpt lat="48.334656" lon="10.797852">
<ele>566.91</ele>
<time>2022-05-25T10:32:50Z</time>
</trkpt>
<trkpt lat="48.334667" lon="10.797905">
<ele>567.12</ele>
<time>2022-05-25T10:32:51Z</time>
</trkpt>
<trkpt lat="48.334671" lon="10.797954">
<ele>567.321</ele>
<time>2022-05-25T10:32:52Z</time>
</trkpt>
<trkpt lat="48.334671" lon="10.798007">
<ele>567.478</ele>
<time>2022-05-25T10:32:53Z</time>
</trkpt>
<trkpt lat="48.334671" lon="10.798063">
<ele>567.57</ele>
<time>2022-05-25T10:32:54Z</time>
</trkpt>
<trkpt lat="48.334675" lon="10.79811">
<ele>567.941</ele>
<time>2022-05-25T10:32:55Z</time>
</trkpt>
<trkpt lat="48.334675" lon="10.798146">
<ele>568.219</ele>
<time>2022-05-25T10:32:56Z</time>
</trkpt>
<trkpt lat="48.334679" lon="10.798182">
<ele>568.411</ele>
<time>2022-05-25T10:32:57Z</time>
</trkpt>
<trkpt lat="48.334675" lon="10.798217">
<ele>568.582</ele>
<time>2022-05-25T10:32:58Z</time>
</trkpt>
<trkpt lat="48.334671" lon="10.798259">
<ele>568.724</ele>
<time>2022-05-25T10:32:59Z</time>
</trkpt>
<trkpt lat="48.334663" lon="10.798299">
<ele>568.823</ele>
<time>2022-05-25T10:33:00Z</time>
</trkpt>
<trkpt lat="48.334667" lon="10.798341">
<ele>569.132</ele>
<time>2022-05-25T10:33:01Z</time>
</trkpt>
<trkpt lat="48.334671" lon="10.798385">
<ele>569.384</ele>
<time>2022-05-25T10:33:02Z</time>
</trkpt>
<trkpt lat="48.334667" lon="10.798431">
<ele>569.626</ele>
<time>2022-05-25T10:33:03Z</time>
</trkpt>
<trkpt lat="48.334671" lon="10.798467">
<ele>569.764</ele>
<time>2022-05-25T10:33:04Z</time>
</trkpt>
<trkpt lat="48.334667" lon="10.798505">
<ele>569.83</ele>
<time>2022-05-25T10:33:05Z</time>
</trkpt>
<trkpt lat="48.334667" lon="10.798542">
<ele>570.153</ele>
<time>2022-05-25T10:33:06Z</time>
</trkpt>
<trkpt lat="48.334682" lon="10.79858">
<ele>570.378</ele>
<time>2022-05-25T10:33:07Z</time>
</trkpt>
<trkpt lat="48.334682" lon="10.798618">
<ele>570.592</ele>
<time>2022-05-25T10:33:08Z</time>
</trkpt>
<trkpt lat="48.334686" lon="10.798654">
<ele>570.737</ele>
<time>2022-05-25T10:33:09Z</time>
</trkpt>
<trkpt lat="48.334682" lon="10.798695">
<ele>570.851</ele>
<time>2022-05-25T10:33:10Z</time>
</trkpt>
<trkpt lat="48.334679" lon="10.798733">
<ele>570.931</ele>
<time>2022-05-25T10:33:11Z</time>
</trkpt>
<trkpt lat="48.334679" lon="10.798772">
<ele>571.235</ele>
<time>2022-05-25T10:33:12Z</time>
</trkpt>
<trkpt lat="48.334675" lon="10.798814">
<ele>571.457</ele>
<time>2022-05-25T10:33:13Z</time>
</trkpt>
<trkpt lat="48.334671" lon="10.798861">
<ele>571.652</ele>
<time>2022-05-25T10:33:14Z</time>
</trkpt>
<trkpt lat="48.334679" lon="10.798911">
<ele>571.767</ele>
<time>2022-05-25T10:33:15Z</time>
</trkpt>
<trkpt lat="48.334679" lon="10.798961">
<ele>571.852</ele>
<time>2022-05-25T10:33:16Z</time>
</trkpt>
<trkpt lat="48.334675" lon="10.799003">
<ele>571.911</ele>
<time>2022-05-25T10:33:17Z</time>
</trkpt>
<trkpt lat="48.334682" lon="10.799045">
<ele>571.959</ele>
<time>2022-05-25T10:33:18Z</time>
</trkpt>
<trkpt lat="48.334682" lon="10.799082">
<ele>572.221</ele>
<time>2022-05-25T10:33:19Z</time>
</trkpt>
<trkpt lat="48.334679" lon="10.799125">
<ele>572.492</ele>
<time>2022-05-25T10:33:20Z</time>
</trkpt>
<trkpt lat="48.334682" lon="10.79916">
<ele>572.648</ele>
<time>2022-05-25T10:33:21Z</time>
</trkpt>
<trkpt lat="48.334686" lon="10.799211">
<ele>572.765</ele>
<time>2022-05-25T10:33:22Z</time>
</trkpt>
<trkpt lat="48.334682" lon="10.799252">
<ele>572.838</ele>
<time>2022-05-25T10:33:23Z</time>
</trkpt>
<trkpt lat="48.334679" lon="10.799294">
<ele>573.138</ele>
<time>2022-05-25T10:33:24Z</time>
</trkpt>
<trkpt lat="48.334675" lon="10.79933">
<ele>573.348</ele>
<time>2022-05-25T10:33:25Z</time>
</trkpt>
<trkpt lat="48.334667" lon="10.79937">
<ele>573.486</ele>
<time>2022-05-25T10:33:26Z</time>
</trkpt>
<trkpt lat="48.33466" lon="10.799412">
<ele>573.582</ele>
<time>2022-05-25T10:33:27Z</time>
</trkpt>
<trkpt lat="48.334652" lon="10.799457">
<ele>573.911</ele>
<time>2022-05-25T10:33:28Z</time>
</trkpt>
<trkpt lat="48.334648" lon="10.799495">
<ele>574.182</ele>
<time>2022-05-25T10:33:29Z</time>
</trkpt>
<trkpt lat="48.334648" lon="10.799539">
<ele>574.376</ele>
<time>2022-05-25T10:33:30Z</time>
</trkpt>
<trkpt lat="48.334648" lon="10.799579">
<ele>574.541</ele>
<time>2022-05-25T10:33:31Z</time>
</trkpt>
<trkpt lat="48.334648" lon="10.799615">
<ele>574.64</ele>
<time>2022-05-25T10:33:32Z</time>
</trkpt>
<trkpt lat="48.334652" lon="10.799653">
<ele>574.714</ele>
<time>2022-05-25T10:33:33Z</time>
</trkpt>
<trkpt lat="48.334648" lon="10.799695">
<ele>574.752</ele>
<time>2022-05-25T10:33:34Z</time>
</trkpt>
<trkpt lat="48.334644" lon="10.799738">
<ele>575.009</ele>
<time>2022-05-25T10:33:35Z</time>
</trkpt>
<trkpt lat="48.334641" lon="10.79978">
<ele>575.205</ele>
<time>2022-05-25T10:33:36Z</time>
</trkpt>
<trkpt lat="48.334637" lon="10.799815">
<ele>575.341</ele>
<time>2022-05-25T10:33:37Z</time>
</trkpt>
<trkpt lat="48.334633" lon="10.799862">
<ele>575.48</ele>
<time>2022-05-25T10:33:38Z</time>
</trkpt>
<trkpt lat="48.334625" lon="10.799911">
<ele>575.593</ele>
<time>2022-05-25T10:33:39Z</time>
</trkpt>
<trkpt lat="48.334621" lon="10.799969">
<ele>575.672</ele>
<time>2022-05-25T10:33:40Z</time>
</trkpt>
<trkpt lat="48.334629" lon="10.80002">
<ele>575.714</ele>
<time>2022-05-25T10:33:41Z</time>
</trkpt>
<trkpt lat="48.334629" lon="10.800067">
<ele>575.963</ele>
<time>2022-05-25T10:33:42Z</time>
</trkpt>
<trkpt lat="48.334621" lon="10.800109">
<ele>576.175</ele>
<time>2022-05-25T10:33:43Z</time>
</trkpt>
<trkpt lat="48.334621" lon="10.800153">
<ele>576.317</ele>
<time>2022-05-25T10:33:44Z</time>
</trkpt>
<trkpt lat="48.334618" lon="10.8002">
<ele>576.419</ele>
<time>2022-05-25T10:33:45Z</time>
</trkpt>
<trkpt lat="48.334618" lon="10.80025">
<ele>576.483</ele>
<time>2022-05-25T10:33:46Z</time>
</trkpt>
<trkpt lat="48.334618" lon="10.800303">
<ele>576.535</ele>
<time>2022-05-25T10:33:47Z</time>
</trkpt>
<trkpt lat="48.334618" lon="10.80035">
<ele>576.585</ele>
<time>2022-05-25T10:33:48Z</time>
</trkpt>
<trkpt lat="48.334618" lon="10.8004">
<ele>576.612</ele>
<time>2022-05-25T10:33:49Z</time>
</trkpt>
<trkpt lat="48.33461" lon="10.80044">
<ele>576.612</ele>
<time>2022-05-25T10:33:50Z</time>
</trkpt>
<trkpt lat="48.334606" lon="10.800487">
<ele>576.882</ele>
<time>2022-05-25T10:33:51Z</time>
</trkpt>
<trkpt lat="48.334602" lon="10.80053">
<ele>577.085</ele>
<time>2022-05-25T10:33:52Z</time>
</trkpt>
<trkpt lat="48.334606" lon="10.80057">
<ele>577.239</ele>
<time>2022-05-25T10:33:53Z</time>
</trkpt>
<trkpt lat="48.334599" lon="10.800615">
<ele>577.354</ele>
<time>2022-05-25T10:33:54Z</time>
</trkpt>
<trkpt lat="48.334587" lon="10.800667">
<ele>577.438</ele>
<time>2022-05-25T10:33:55Z</time>
</trkpt>
<trkpt lat="48.334587" lon="10.800718">
<ele>577.501</ele>
<time>2022-05-25T10:33:56Z</time>
</trkpt>
<trkpt lat="48.334583" lon="10.800777">
<ele>577.543</ele>
<time>2022-05-25T10:33:57Z</time>
</trkpt>
<trkpt lat="48.334579" lon="10.800837">
<ele>577.572</ele>
<time>2022-05-25T10:33:58Z</time>
</trkpt>
<trkpt lat="48.334576" lon="10.800901">
<ele>577.572</ele>
<time>2022-05-25T10:33:59Z</time>
</trkpt>
<trkpt lat="48.334583" lon="10.80096">
<ele>577.572</ele>
<time>2022-05-25T10:34:00Z</time>
</trkpt>
<trkpt lat="48.334583" lon="10.801014">
<ele>577.572</ele>
<time>2022-05-25T10:34:01Z</time>
</trkpt>
<trkpt lat="48.334583" lon="10.801071">
<ele>577.572</ele>
<time>2022-05-25T10:34:02Z</time>
</trkpt>
<trkpt lat="48.334583" lon="10.801131">
<ele>577.828</ele>
<time>2022-05-25T10:34:03Z</time>
</trkpt>
<trkpt lat="48.334576" lon="10.801184">
<ele>578.023</ele>
<time>2022-05-25T10:34:04Z</time>
</trkpt>
<trkpt lat="48.334568" lon="10.801238">
<ele>578.169</ele>
<time>2022-05-25T10:34:05Z</time>
</trkpt>
<trkpt lat="48.334568" lon="10.8013">
<ele>578.286</ele>
<time>2022-05-25T10:34:06Z</time>
</trkpt>
<trkpt lat="48.334568" lon="10.80136">
<ele>578.367</ele>
<time>2022-05-25T10:34:07Z</time>
</trkpt>
<trkpt lat="48.334579" lon="10.801427">
<ele>578.455</ele>
<time>2022-05-25T10:34:08Z</time>
</trkpt>
<trkpt lat="48.334583" lon="10.801492">
<ele>578.509</ele>
<time>2022-05-25T10:34:09Z</time>
</trkpt>
<trkpt lat="48.334579" lon="10.801557">
<ele>578.533</ele>
<time>2022-05-25T10:34:10Z</time>
</trkpt>
<trkpt lat="48.334579" lon="10.801621">
<ele>578.533</ele>
<time>2022-05-25T10:34:11Z</time>
</trkpt>
<trkpt lat="48.334587" lon="10.801695">
<ele>578.533</ele>
<time>2022-05-25T10:34:12Z</time>
</trkpt>
<trkpt lat="48.334591" lon="10.801766">
<ele>578.533</ele>
<time>2022-05-25T10:34:13Z</time>
</trkpt>
<trkpt lat="48.334591" lon="10.801831">
<ele>578.533</ele>
<time>2022-05-25T10:34:14Z</time>
</trkpt>
<trkpt lat="48.334587" lon="10.801903">
<ele>578.533</ele>
<time>2022-05-25T10:34:15Z</time>
</trkpt>
<trkpt lat="48.334583" lon="10.80197">
<ele>578.533</ele>
<time>2022-05-25T10:34:16Z</time>
</trkpt>
<trkpt lat="48.334583" lon="10.802043">
<ele>578.533</ele>
<time>2022-05-25T10:34:17Z</time>
</trkpt>
<trkpt lat="48.334583" lon="10.802112">
<ele>578.533</ele>
<time>2022-05-25T10:34:18Z</time>
</trkpt>
<trkpt lat="48.334583" lon="10.802178">
<ele>578.533</ele>
<time>2022-05-25T10:34:19Z</time>
</trkpt>
<trkpt lat="48.334583" lon="10.802241">
<ele>578.533</ele>
<time>2022-05-25T10:34:20Z</time>
</trkpt>
<trkpt lat="48.334587" lon="10.802307">
<ele>578.533</ele>
<time>2022-05-25T10:34:21Z</time>
</trkpt>
<trkpt lat="48.334595" lon="10.802368">
<ele>578.533</ele>
<time>2022-05-25T10:34:22Z</time>
</trkpt>
<trkpt lat="48.334602" lon="10.802437">
<ele>578.533</ele>
<time>2022-05-25T10:34:23Z</time>
</trkpt>
<trkpt lat="48.33461" lon="10.802502">
<ele>578.533</ele>
<time>2022-05-25T10:34:24Z</time>
</trkpt>
<trkpt lat="48.334618" lon="10.802562">
<ele>578.533</ele>
<time>2022-05-25T10:34:25Z</time>
</trkpt>
<trkpt lat="48.334621" lon="10.802615">
<ele>578.533</ele>
<time>2022-05-25T10:34:26Z</time>
</trkpt>
<trkpt lat="48.334633" lon="10.80267">
<ele>578.533</ele>
<time>2022-05-25T10:34:27Z</time>
</trkpt>
<trkpt lat="48.334641" lon="10.802726">
<ele>578.533</ele>
<time>2022-05-25T10:34:28Z</time>
</trkpt>
<trkpt lat="48.334648" lon="10.802776">
<ele>578.533</ele>
<time>2022-05-25T10:34:29Z</time>
</trkpt>
<trkpt lat="48.334648" lon="10.802833">
<ele>578.533</ele>
<time>2022-05-25T10:34:30Z</time>
</trkpt>
<trkpt lat="48.334648" lon="10.802889">
<ele>578.792</ele>
<time>2022-05-25T10:34:31Z</time>
</trkpt>
<trkpt lat="48.334648" lon="10.802946">
<ele>579.004</ele>
<time>2022-05-25T10:34:32Z</time>
</trkpt>
<trkpt lat="48.334648" lon="10.803002">
<ele>579.17</ele>
<time>2022-05-25T10:34:33Z</time>
</trkpt>
<trkpt lat="48.334644" lon="10.80306">
<ele>579.292</ele>
<time>2022-05-25T10:34:34Z</time>
</trkpt>
<trkpt lat="48.334637" lon="10.803126">
<ele>579.374</ele>
<time>2022-05-25T10:34:35Z</time>
</trkpt>
<trkpt lat="48.334637" lon="10.803193">
<ele>579.426</ele>
<time>2022-05-25T10:34:36Z</time>
</trkpt>
<trkpt lat="48.334648" lon="10.803256">
<ele>579.469</ele>
<time>2022-05-25T10:34:37Z</time>
</trkpt>
<trkpt lat="48.334652" lon="10.803313">
<ele>579.493</ele>
<time>2022-05-25T10:34:38Z</time>
</trkpt>
<trkpt lat="48.334652" lon="10.803367">
<ele>579.493</ele>
<time>2022-05-25T10:34:39Z</time>
</trkpt>
<trkpt lat="48.334648" lon="10.803422">
<ele>579.493</ele>
<time>2022-05-25T10:34:40Z</time>
</trkpt>
<trkpt lat="48.334641" lon="10.803482">
<ele>579.493</ele>
<time>2022-05-25T10:34:41Z</time>
</trkpt>
<trkpt lat="48.334633" lon="10.803536">
<ele>579.493</ele>
<time>2022-05-25T10:34:42Z</time>
</trkpt>
<trkpt lat="48.334633" lon="10.80359">
<ele>579.493</ele>
<time>2022-05-25T10:34:43Z</time>
</trkpt>
<trkpt lat="48.334621" lon="10.803645">
<ele>579.253</ele>
<time>2022-05-25T10:34:44Z</time>
</trkpt>
<trkpt lat="48.334618" lon="10.803697">
<ele>579.059</ele>
<time>2022-05-25T10:34:45Z</time>
</trkpt>
<trkpt lat="48.334618" lon="10.803753">
<ele>578.903</ele>
<time>2022-05-25T10:34:46Z</time>
</trkpt>
<trkpt lat="48.334618" lon="10.803808">
<ele>578.8</ele>
<time>2022-05-25T10:34:47Z</time>
</trkpt>
<trkpt lat="48.334621" lon="10.803876">
<ele>578.691</ele>
<time>2022-05-25T10:34:48Z</time>
</trkpt>
<trkpt lat="48.334625" lon="10.803944">
<ele>578.611</ele>
<time>2022-05-25T10:34:49Z</time>
</trkpt>
<trkpt lat="48.334629" lon="10.804012">
<ele>578.557</ele>
<time>2022-05-25T10:34:50Z</time>
</trkpt>
<trkpt lat="48.334641" lon="10.804077">
<ele>578.533</ele>
<time>2022-05-25T10:34:51Z</time>
</trkpt>
<trkpt lat="48.334648" lon="10.804144">
<ele>578.236</ele>
<time>2022-05-25T10:34:52Z</time>
</trkpt>
<trkpt lat="48.334656" lon="10.80422">
<ele>578.004</ele>
<time>2022-05-25T10:34:53Z</time>
</trkpt>
<trkpt lat="48.33466" lon="10.80431">
<ele>577.839</ele>
<time>2022-05-25T10:34:54Z</time>
</trkpt>
<trkpt lat="48.33466" lon="10.804401">
<ele>577.716</ele>
<time>2022-05-25T10:34:55Z</time>
</trkpt>
<trkpt lat="48.334663" lon="10.804492">
<ele>577.629</ele>
<time>2022-05-25T10:34:56Z</time>
</trkpt>
<trkpt lat="48.334656" lon="10.804586">
<ele>577.566</ele>
<time>2022-05-25T10:34:57Z</time>
</trkpt>
<trkpt lat="48.334652" lon="10.804687">
<ele>577.256</ele>
<time>2022-05-25T10:34:58Z</time>
</trkpt>
<trkpt lat="48.334652" lon="10.804796">
<ele>577.061</ele>
<time>2022-05-25T10:34:59Z</time>
</trkpt>
<trkpt lat="48.334648" lon="10.804917">
<ele>576.654</ele>
<time>2022-05-25T10:35:00Z</time>
</trkpt>
<trkpt lat="48.334648" lon="10.805038">
<ele>576.343</ele>
<time>2022-05-25T10:35:01Z</time>
</trkpt>
<trkpt lat="48.334648" lon="10.805161">
<ele>576.148</ele>
<time>2022-05-25T10:35:02Z</time>
</trkpt>
<trkpt lat="48.334652" lon="10.805275">
<ele>575.69</ele>
<time>2022-05-25T10:35:03Z</time>
</trkpt>
<trkpt lat="48.334656" lon="10.805391">
<ele>575.345</ele>
<time>2022-05-25T10:35:04Z</time>
</trkpt>
<trkpt lat="48.334663" lon="10.805493">
<ele>575.14</ele>
<time>2022-05-25T10:35:05Z</time>
</trkpt>
<trkpt lat="48.334671" lon="10.805592">
<ele>574.732</ele>
<time>2022-05-25T10:35:06Z</time>
</trkpt>
<trkpt lat="48.334682" lon="10.805707">
<ele>574.456</ele>
<time>2022-05-25T10:35:07Z</time>
</trkpt>
<trkpt lat="48.334694" lon="10.80581">
<ele>574.224</ele>
<time>2022-05-25T10:35:08Z</time>
</trkpt>
<trkpt lat="48.334709" lon="10.805903">
<ele>573.825</ele>
<time>2022-05-25T10:35:09Z</time>
</trkpt>
<trkpt lat="48.334705" lon="10.806005">
<ele>573.512</ele>
<time>2022-05-25T10:35:10Z</time>
</trkpt>
<trkpt lat="48.334717" lon="10.806113">
<ele>573.28</ele>
<time>2022-05-25T10:35:11Z</time>
</trkpt>
<trkpt lat="48.334713" lon="10.806211">
<ele>573.108</ele>
<time>2022-05-25T10:35:12Z</time>
</trkpt>
<trkpt lat="48.334713" lon="10.806316">
<ele>572.985</ele>
<time>2022-05-25T10:35:13Z</time>
</trkpt>
<trkpt lat="48.334724" lon="10.806416">
<ele>572.885</ele>
<time>2022-05-25T10:35:14Z</time>
</trkpt>
<trkpt lat="48.334732" lon="10.806501">
<ele>572.602</ele>
<time>2022-05-25T10:35:15Z</time>
</trkpt>
<trkpt lat="48.33474" lon="10.806581">
<ele>572.397</ele>
<time>2022-05-25T10:35:16Z</time>
</trkpt>
<trkpt lat="48.334747" lon="10.806657">
<ele>572.251</ele>
<time>2022-05-25T10:35:17Z</time>
</trkpt>
<trkpt lat="48.334747" lon="10.806729">
<ele>572.106</ele>
<time>2022-05-25T10:35:18Z</time>
</trkpt>
<trkpt lat="48.334751" lon="10.806803">
<ele>571.998</ele>
<time>2022-05-25T10:35:19Z</time>
</trkpt>
<trkpt lat="48.334755" lon="10.80689">
<ele>571.683</ele>
<time>2022-05-25T10:35:20Z</time>
</trkpt>
<trkpt lat="48.334763" lon="10.806974">
<ele>571.433</ele>
<time>2022-05-25T10:35:21Z</time>
</trkpt>
<trkpt lat="48.334774" lon="10.807062">
<ele>571.232</ele>
<time>2022-05-25T10:35:22Z</time>
</trkpt>
<trkpt lat="48.334774" lon="10.807165">
<ele>571.057</ele>
<time>2022-05-25T10:35:23Z</time>
</trkpt>
<trkpt lat="48.334778" lon="10.807288">
<ele>570.669</ele>
<time>2022-05-25T10:35:24Z</time>
</trkpt>
<trkpt lat="48.334778" lon="10.807398">
<ele>570.385</ele>
<time>2022-05-25T10:35:25Z</time>
</trkpt>
<trkpt lat="48.334778" lon="10.807495">
<ele>570.188</ele>
<time>2022-05-25T10:35:26Z</time>
</trkpt>
<trkpt lat="48.334782" lon="10.807603">
<ele>570.066</ele>
<time>2022-05-25T10:35:27Z</time>
</trkpt>
<trkpt lat="48.334782" lon="10.80772">
<ele>569.955</ele>
<time>2022-05-25T10:35:28Z</time>
</trkpt>
<trkpt lat="48.334785" lon="10.80783">
<ele>569.879</ele>
<time>2022-05-25T10:35:29Z</time>
</trkpt>
<trkpt lat="48.334778" lon="10.807942">
<ele>569.566</ele>
<time>2022-05-25T10:35:30Z</time>
</trkpt>
<trkpt lat="48.33477" lon="10.808039">
<ele>569.335</ele>
<time>2022-05-25T10:35:31Z</time>
</trkpt>
<trkpt lat="48.334774" lon="10.808121">
<ele>569.097</ele>
<time>2022-05-25T10:35:32Z</time>
</trkpt>
<trkpt lat="48.334778" lon="10.808198">
<ele>568.96</ele>
<time>2022-05-25T10:35:33Z</time>
</trkpt>
<trkpt lat="48.334774" lon="10.80831">
<ele>568.868</ele>
<time>2022-05-25T10:35:34Z</time>
</trkpt>
<trkpt lat="48.334763" lon="10.808414">
<ele>568.811</ele>
<time>2022-05-25T10:35:35Z</time>
</trkpt>
<trkpt lat="48.334763" lon="10.808504">
<ele>568.784</ele>
<time>2022-05-25T10:35:36Z</time>
</trkpt>
<trkpt lat="48.334763" lon="10.808594">
<ele>568.756</ele>
<time>2022-05-25T10:35:37Z</time>
</trkpt>
<trkpt lat="48.334766" lon="10.808692">
<ele>568.756</ele>
<time>2022-05-25T10:35:38Z</time>
</trkpt>
<trkpt lat="48.334778" lon="10.808782">
<ele>568.756</ele>
<time>2022-05-25T10:35:39Z</time>
</trkpt>
<trkpt lat="48.334785" lon="10.808865">
<ele>568.756</ele>
<time>2022-05-25T10:35:40Z</time>
</trkpt>
<trkpt lat="48.334793" lon="10.80896">
<ele>568.756</ele>
<time>2022-05-25T10:35:41Z</time>
</trkpt>
<trkpt lat="48.334805" lon="10.809043">
<ele>568.756</ele>
<time>2022-05-25T10:35:42Z</time>
</trkpt>
<trkpt lat="48.334831" lon="10.809125">
<ele>568.509</ele>
<time>2022-05-25T10:35:43Z</time>
</trkpt>
<trkpt lat="48.334846" lon="10.809192">
<ele>568.31</ele>
<time>2022-05-25T10:35:44Z</time>
</trkpt>
<trkpt lat="48.334862" lon="10.809269">
<ele>568.162</ele>
<time>2022-05-25T10:35:45Z</time>
</trkpt>
<trkpt lat="48.334877" lon="10.809334">
<ele>568.049</ele>
<time>2022-05-25T10:35:46Z</time>
</trkpt>
<trkpt lat="48.3349" lon="10.809402">
<ele>567.962</ele>
<time>2022-05-25T10:35:47Z</time>
</trkpt>
<trkpt lat="48.334915" lon="10.809465">
<ele>567.879</ele>
<time>2022-05-25T10:35:48Z</time>
</trkpt>
<trkpt lat="48.334934" lon="10.809516">
<ele>567.826</ele>
<time>2022-05-25T10:35:49Z</time>
</trkpt>
<trkpt lat="48.334934" lon="10.80958">
<ele>567.797</ele>
<time>2022-05-25T10:35:50Z</time>
</trkpt>
<trkpt lat="48.334942" lon="10.809637">
<ele>567.797</ele>
<time>2022-05-25T10:35:51Z</time>
</trkpt>
<trkpt lat="48.334965" lon="10.809702">
<ele>567.797</ele>
<time>2022-05-25T10:35:52Z</time>
</trkpt>
<trkpt lat="48.334995" lon="10.80977">
<ele>567.797</ele>
<time>2022-05-25T10:35:53Z</time>
</trkpt>
<trkpt lat="48.335018" lon="10.809843">
<ele>567.797</ele>
<time>2022-05-25T10:35:54Z</time>
</trkpt>
<trkpt lat="48.335033" lon="10.809922">
<ele>567.797</ele>
<time>2022-05-25T10:35:55Z</time>
</trkpt>
<trkpt lat="48.335041" lon="10.809992">
<ele>567.797</ele>
<time>2022-05-25T10:35:56Z</time>
</trkpt>
<trkpt lat="48.335033" lon="10.810059">
<ele>567.797</ele>
<time>2022-05-25T10:35:57Z</time>
</trkpt>
<trkpt lat="48.335011" lon="10.810106">
<ele>567.797</ele>
<time>2022-05-25T10:35:58Z</time>
</trkpt>
<trkpt lat="48.334995" lon="10.81015">
<ele>567.797</ele>
<time>2022-05-25T10:35:59Z</time>
</trkpt>
<trkpt lat="48.334984" lon="10.810193">
<ele>567.797</ele>
<time>2022-05-25T10:36:00Z</time>
</trkpt>
<trkpt lat="48.334991" lon="10.810258">
<ele>567.797</ele>
<time>2022-05-25T10:36:01Z</time>
</trkpt>
<trkpt lat="48.335003" lon="10.81032">
<ele>567.552</ele>
<time>2022-05-25T10:36:02Z</time>
</trkpt>
<trkpt lat="48.335014" lon="10.810373">
<ele>567.348</ele>
<time>2022-05-25T10:36:03Z</time>
</trkpt>
<trkpt lat="48.335022" lon="10.810423">
<ele>567.211</ele>
<time>2022-05-25T10:36:04Z</time>
</trkpt>
<trkpt lat="48.335022" lon="10.81047">
<ele>566.865</ele>
<time>2022-05-25T10:36:05Z</time>
</trkpt>
<trkpt lat="48.335026" lon="10.810518">
<ele>566.626</ele>
<time>2022-05-25T10:36:06Z</time>
</trkpt>
<trkpt lat="48.335033" lon="10.810565">
<ele>566.192</ele>
<time>2022-05-25T10:36:07Z</time>
</trkpt>
<trkpt lat="48.335041" lon="10.810616">
<ele>565.826</ele>
<time>2022-05-25T10:36:08Z</time>
</trkpt>
<trkpt lat="48.335041" lon="10.810681">
<ele>565.591</ele>
<time>2022-05-25T10:36:09Z</time>
</trkpt>
<trkpt lat="48.335041" lon="10.810757">
<ele>565.139</ele>
<time>2022-05-25T10:36:10Z</time>
</trkpt>
<trkpt lat="48.335033" lon="10.810834">
<ele>564.771</ele>
<time>2022-05-25T10:36:11Z</time>
</trkpt>
<trkpt lat="48.335014" lon="10.81092">
<ele>564.499</ele>
<time>2022-05-25T10:36:12Z</time>
</trkpt>
<trkpt lat="48.335018" lon="10.81098">
<ele>564.335</ele>
<time>2022-05-25T10:36:13Z</time>
</trkpt>
<trkpt lat="48.335022" lon="10.811049">
<ele>564.253</ele>
<time>2022-05-25T10:36:14Z</time>
</trkpt>
<trkpt lat="48.335033" lon="10.811116">
<ele>563.874</ele>
<time>2022-05-25T10:36:15Z</time>
</trkpt>
<trkpt lat="48.33506" lon="10.811186">
<ele>563.631</ele>
<time>2022-05-25T10:36:16Z</time>
</trkpt>
<trkpt lat="48.335091" lon="10.811267">
<ele>563.473</ele>
<time>2022-05-25T10:36:17Z</time>
</trkpt>
<trkpt lat="48.335125" lon="10.811385">
<ele>562.989</ele>
<time>2022-05-25T10:36:18Z</time>
</trkpt>
<trkpt lat="48.335152" lon="10.811532">
<ele>562.582</ele>
<time>2022-05-25T10:36:19Z</time>
</trkpt>
<trkpt lat="48.335201" lon="10.81162">
<ele>562.273</ele>
<time>2022-05-25T10:36:20Z</time>
</trkpt>
<trkpt lat="48.335258" lon="10.81167">
<ele>562.035</ele>
<time>2022-05-25T10:36:21Z</time>
</trkpt>
<trkpt lat="48.3353" lon="10.811718">
<ele>561.915</ele>
<time>2022-05-25T10:36:22Z</time>
</trkpt>
<trkpt lat="48.335323" lon="10.811762">
<ele>561.854</ele>
<time>2022-05-25T10:36:23Z</time>
</trkpt>
<trkpt lat="48.335365" lon="10.8118">
<ele>561.606</ele>
<time>2022-05-25T10:36:24Z</time>
</trkpt>
<trkpt lat="48.335403" lon="10.81183">
<ele>561.424</ele>
<time>2022-05-25T10:36:25Z</time>
</trkpt>
<trkpt lat="48.335453" lon="10.811867">
<ele>561.296</ele>
<time>2022-05-25T10:36:26Z</time>
</trkpt>
<trkpt lat="48.335484" lon="10.811902">
<ele>561.199</ele>
<time>2022-05-25T10:36:27Z</time>
</trkpt>
<trkpt lat="48.335514" lon="10.811934">
<ele>561.079</ele>
<time>2022-05-25T10:36:28Z</time>
</trkpt>
<trkpt lat="48.335548" lon="10.811965">
<ele>560.991</ele>
<time>2022-05-25T10:36:29Z</time>
</trkpt>
<trkpt lat="48.335583" lon="10.812005">
<ele>560.933</ele>
<time>2022-05-25T10:36:30Z</time>
</trkpt>
<trkpt lat="48.335617" lon="10.812049">
<ele>560.907</ele>
<time>2022-05-25T10:36:31Z</time>
</trkpt>
<trkpt lat="48.33564" lon="10.812087">
<ele>560.907</ele>
<time>2022-05-25T10:36:32Z</time>
</trkpt>
<trkpt lat="48.335655" lon="10.812125">
<ele>560.642</ele>
<time>2022-05-25T10:36:33Z</time>
</trkpt>
<trkpt lat="48.335655" lon="10.81216">
<ele>560.438</ele>
<time>2022-05-25T10:36:34Z</time>
</trkpt>
<trkpt lat="48.335693" lon="10.812201">
<ele>560.26</ele>
<time>2022-05-25T10:36:35Z</time>
</trkpt>
<trkpt lat="48.335716" lon="10.81224">
<ele>560.136</ele>
<time>2022-05-25T10:36:36Z</time>
</trkpt>
<trkpt lat="48.335724" lon="10.812266">
<ele>560.049</ele>
<time>2022-05-25T10:36:37Z</time>
</trkpt>
<trkpt lat="48.335758" lon="10.8123">
<ele>559.961</ele>
<time>2022-05-25T10:36:38Z</time>
</trkpt>
<trkpt lat="48.335777" lon="10.812332">
<ele>559.895</ele>
<time>2022-05-25T10:36:39Z</time>
</trkpt>
<trkpt lat="48.335796" lon="10.812369">
<ele>559.861</ele>
<time>2022-05-25T10:36:40Z</time>
</trkpt>
<trkpt lat="48.335812" lon="10.812411">
<ele>559.861</ele>
<time>2022-05-25T10:36:41Z</time>
</trkpt>
<trkpt lat="48.335815" lon="10.812449">
<ele>559.861</ele>
<time>2022-05-25T10:36:42Z</time>
</trkpt>
<trkpt lat="48.335819" lon="10.812493">
<ele>559.861</ele>
<time>2022-05-25T10:36:43Z</time>
</trkpt>
<trkpt lat="48.335812" lon="10.812531">
<ele>559.861</ele>
<time>2022-05-25T10:36:44Z</time>
</trkpt>
<trkpt lat="48.335804" lon="10.812571">
<ele>559.861</ele>
<time>2022-05-25T10:36:45Z</time>
</trkpt>
<trkpt lat="48.335793" lon="10.812609">
<ele>559.861</ele>
<time>2022-05-25T10:36:46Z</time>
</trkpt>
<trkpt lat="48.335789" lon="10.812648">
<ele>559.861</ele>
<time>2022-05-25T10:36:47Z</time>
</trkpt>
<trkpt lat="48.335785" lon="10.812695">
<ele>559.861</ele>
<time>2022-05-25T10:36:48Z</time>
</trkpt>
<trkpt lat="48.335773" lon="10.812743">
<ele>559.861</ele>
<time>2022-05-25T10:36:49Z</time>
</trkpt>
<trkpt lat="48.335766" lon="10.812786">
<ele>559.861</ele>
<time>2022-05-25T10:36:50Z</time>
</trkpt>
<trkpt lat="48.335758" lon="10.81283">
<ele>559.861</ele>
<time>2022-05-25T10:36:51Z</time>
</trkpt>
<trkpt lat="48.335754" lon="10.812895">
<ele>559.861</ele>
<time>2022-05-25T10:36:52Z</time>
</trkpt>
<trkpt lat="48.335743" lon="10.812952">
<ele>559.861</ele>
<time>2022-05-25T10:36:53Z</time>
</trkpt>
<trkpt lat="48.335739" lon="10.813008">
<ele>559.861</ele>
<time>2022-05-25T10:36:54Z</time>
</trkpt>
<trkpt lat="48.335732" lon="10.813055">
<ele>559.861</ele>
<time>2022-05-25T10:36:55Z</time>
</trkpt>
<trkpt lat="48.335724" lon="10.813097">
<ele>560.098</ele>
<time>2022-05-25T10:36:56Z</time>
</trkpt>
<trkpt lat="48.335712" lon="10.813134">
<ele>560.265</ele>
<time>2022-05-25T10:36:57Z</time>
</trkpt>
<trkpt lat="48.335705" lon="10.813171">
<ele>560.429</ele>
<time>2022-05-25T10:36:58Z</time>
</trkpt>
<trkpt lat="48.335697" lon="10.813204">
<ele>560.552</ele>
<time>2022-05-25T10:36:59Z</time>
</trkpt>
<trkpt lat="48.335693" lon="10.813247">
<ele>560.646</ele>
<time>2022-05-25T10:37:00Z</time>
</trkpt>
<trkpt lat="48.335693" lon="10.813292">
<ele>560.734</ele>
<time>2022-05-25T10:37:01Z</time>
</trkpt>
<trkpt lat="48.335693" lon="10.813329">
<ele>560.791</ele>
<time>2022-05-25T10:37:02Z</time>
</trkpt>
<trkpt lat="48.335682" lon="10.813367">
<ele>560.82</ele>
<time>2022-05-25T10:37:03Z</time>
</trkpt>
<trkpt lat="48.335674" lon="10.813405">
<ele>560.82</ele>
<time>2022-05-25T10:37:04Z</time>
</trkpt>
<trkpt lat="48.335667" lon="10.813447">
<ele>560.82</ele>
<time>2022-05-25T10:37:05Z</time>
</trkpt>
<trkpt lat="48.335659" lon="10.813486">
<ele>561.078</ele>
<time>2022-05-25T10:37:06Z</time>
</trkpt>
<trkpt lat="48.335648" lon="10.813528">
<ele>561.261</ele>
<time>2022-05-25T10:37:07Z</time>
</trkpt>
<trkpt lat="48.335636" lon="10.81356">
<ele>561.438</ele>
<time>2022-05-25T10:37:08Z</time>
</trkpt>
<trkpt lat="48.335629" lon="10.81359">
<ele>561.589</ele>
<time>2022-05-25T10:37:09Z</time>
</trkpt>
<trkpt lat="48.335621" lon="10.813622">
<ele>561.709</ele>
<time>2022-05-25T10:37:10Z</time>
</trkpt>
<trkpt lat="48.335613" lon="10.81365">
<ele>561.787</ele>
<time>2022-05-25T10:37:11Z</time>
</trkpt>
<trkpt lat="48.335602" lon="10.813687">
<ele>561.837</ele>
<time>2022-05-25T10:37:12Z</time>
</trkpt>
<trkpt lat="48.33559" lon="10.813725">
<ele>562.094</ele>
<time>2022-05-25T10:37:13Z</time>
</trkpt>
<trkpt lat="48.335579" lon="10.813761">
<ele>562.317</ele>
<time>2022-05-25T10:37:14Z</time>
</trkpt>
<trkpt lat="48.335575" lon="10.813802">
<ele>562.475</ele>
<time>2022-05-25T10:37:15Z</time>
</trkpt>
<trkpt lat="48.335567" lon="10.813845">
<ele>562.601</ele>
<time>2022-05-25T10:37:16Z</time>
</trkpt>
<trkpt lat="48.335567" lon="10.813884">
<ele>562.68</ele>
<time>2022-05-25T10:37:17Z</time>
</trkpt>
<trkpt lat="48.335567" lon="10.81392">
<ele>562.754</ele>
<time>2022-05-25T10:37:18Z</time>
</trkpt>
<trkpt lat="48.335567" lon="10.813974">
<ele>563.072</ele>
<time>2022-05-25T10:37:19Z</time>
</trkpt>
<trkpt lat="48.33556" lon="10.814035">
<ele>563.307</ele>
<time>2022-05-25T10:37:20Z</time>
</trkpt>
<trkpt lat="48.335548" lon="10.814095">
<ele>563.575</ele>
<time>2022-05-25T10:37:21Z</time>
</trkpt>
<trkpt lat="48.335545" lon="10.814157">
<ele>563.71</ele>
<time>2022-05-25T10:37:22Z</time>
</trkpt>
<trkpt lat="48.335529" lon="10.814209">
<ele>563.791</ele>
<time>2022-05-25T10:37:23Z</time>
</trkpt>
<trkpt lat="48.335529" lon="10.814251">
<ele>563.835</ele>
<time>2022-05-25T10:37:24Z</time>
</trkpt>
<trkpt lat="48.335541" lon="10.814312">
<ele>564.138</ele>
<time>2022-05-25T10:37:25Z</time>
</trkpt>
<trkpt lat="48.33556" lon="10.814377">
<ele>564.355</ele>
<time>2022-05-25T10:37:26Z</time>
</trkpt>
<trkpt lat="48.335567" lon="10.814435">
<ele>564.477</ele>
<time>2022-05-25T10:37:27Z</time>
</trkpt>
<trkpt lat="48.33556" lon="10.814482">
<ele>564.626</ele>
<time>2022-05-25T10:37:28Z</time>
</trkpt>
<trkpt lat="48.335567" lon="10.814528">
<ele>564.744</ele>
<time>2022-05-25T10:37:29Z</time>
</trkpt>
<trkpt lat="48.335564" lon="10.814567">
<ele>564.827</ele>
<time>2022-05-25T10:37:30Z</time>
</trkpt>
<trkpt lat="48.335567" lon="10.814595">
<ele>565.105</ele>
<time>2022-05-25T10:37:31Z</time>
</trkpt>
<trkpt lat="48.335571" lon="10.814627">
<ele>565.315</ele>
<time>2022-05-25T10:37:32Z</time>
</trkpt>
<trkpt lat="48.335571" lon="10.814664">
<ele>565.506</ele>
<time>2022-05-25T10:37:33Z</time>
</trkpt>
<trkpt lat="48.335575" lon="10.814697">
<ele>565.627</ele>
<time>2022-05-25T10:37:34Z</time>
</trkpt>
<trkpt lat="48.335583" lon="10.814735">
<ele>565.709</ele>
<time>2022-05-25T10:37:35Z</time>
</trkpt>
<trkpt lat="48.335594" lon="10.814778">
<ele>566.015</ele>
<time>2022-05-25T10:37:36Z</time>
</trkpt>
<trkpt lat="48.335602" lon="10.814808">
<ele>566.242</ele>
<time>2022-05-25T10:37:37Z</time>
</trkpt>
<trkpt lat="48.335602" lon="10.814841">
<ele>566.457</ele>
<time>2022-05-25T10:37:38Z</time>
</trkpt>
<trkpt lat="48.335602" lon="10.814894">
<ele>566.607</ele>
<time>2022-05-25T10:37:39Z</time>
</trkpt>
<trkpt lat="48.335598" lon="10.81493">
<ele>566.702</ele>
<time>2022-05-25T10:37:40Z</time>
</trkpt>
<trkpt lat="48.33559" lon="10.814968">
<ele>566.77</ele>
<time>2022-05-25T10:37:41Z</time>
</trkpt>
<trkpt lat="48.335587" lon="10.815001">
<ele>566.814</ele>
<time>2022-05-25T10:37:42Z</time>
</trkpt>
<trkpt lat="48.335575" lon="10.815049">
<ele>567.094</ele>
<time>2022-05-25T10:37:43Z</time>
</trkpt>
<trkpt lat="48.335564" lon="10.815088">
<ele>567.329</ele>
<time>2022-05-25T10:37:44Z</time>
</trkpt>
<trkpt lat="48.335556" lon="10.815128">
<ele>567.511</ele>
<time>2022-05-25T10:37:45Z</time>
</trkpt>
<trkpt lat="48.335541" lon="10.81517">
<ele>567.628</ele>
<time>2022-05-25T10:37:46Z</time>
</trkpt>
<trkpt lat="48.335533" lon="10.815219">
<ele>567.701</ele>
<time>2022-05-25T10:37:47Z</time>
</trkpt>
<trkpt lat="48.335537" lon="10.815257">
<ele>568.047</ele>
<time>2022-05-25T10:37:48Z</time>
</trkpt>
<trkpt lat="48.335529" lon="10.81531">
<ele>568.3</ele>
<time>2022-05-25T10:37:49Z</time>
</trkpt>
<trkpt lat="48.335537" lon="10.815376">
<ele>568.493</ele>
<time>2022-05-25T10:37:50Z</time>
</trkpt>
<trkpt lat="48.335548" lon="10.815431">
<ele>568.612</ele>
<time>2022-05-25T10:37:51Z</time>
</trkpt>
<trkpt lat="48.335548" lon="10.815478">
<ele>568.714</ele>
<time>2022-05-25T10:37:52Z</time>
</trkpt>
<trkpt lat="48.33556" lon="10.815529">
<ele>568.781</ele>
<time>2022-05-25T10:37:53Z</time>
</trkpt>
<trkpt lat="48.335567" lon="10.81555">
<ele>568.824</ele>
<time>2022-05-25T10:37:54Z</time>
</trkpt>
<trkpt lat="48.335575" lon="10.815571">
<ele>568.844</ele>
<time>2022-05-25T10:37:55Z</time>
</trkpt>
<trkpt lat="48.335583" lon="10.815603">
<ele>569.053</ele>
<time>2022-05-25T10:37:56Z</time>
</trkpt>
<trkpt lat="48.335583" lon="10.815646">
<ele>569.201</ele>
<time>2022-05-25T10:37:57Z</time>
</trkpt>
<trkpt lat="48.335583" lon="10.815685">
<ele>569.359</ele>
<time>2022-05-25T10:37:58Z</time>
</trkpt>
<trkpt lat="48.335587" lon="10.815715">
<ele>569.508</ele>
<time>2022-05-25T10:37:59Z</time>
</trkpt>
<trkpt lat="48.33559" lon="10.815762">
<ele>569.629</ele>
<time>2022-05-25T10:38:00Z</time>
</trkpt>
<trkpt lat="48.335594" lon="10.815802">
<ele>569.717</ele>
<time>2022-05-25T10:38:01Z</time>
</trkpt>
<trkpt lat="48.335594" lon="10.815831">
<ele>569.786</ele>
<time>2022-05-25T10:38:02Z</time>
</trkpt>
<trkpt lat="48.335587" lon="10.815864">
<ele>569.803</ele>
<time>2022-05-25T10:38:03Z</time>
</trkpt>
<trkpt lat="48.335575" lon="10.815898">
<ele>569.803</ele>
<time>2022-05-25T10:38:04Z</time>
</trkpt>
<trkpt lat="48.335567" lon="10.815948">
<ele>569.803</ele>
<time>2022-05-25T10:38:05Z</time>
</trkpt>
<trkpt lat="48.335575" lon="10.815998">
<ele>569.803</ele>
<time>2022-05-25T10:38:06Z</time>
</trkpt>
<trkpt lat="48.33556" lon="10.816051">
<ele>569.558</ele>
<time>2022-05-25T10:38:07Z</time>
</trkpt>
<trkpt lat="48.33556" lon="10.816105">
<ele>569.329</ele>
<time>2022-05-25T10:38:08Z</time>
</trkpt>
<trkpt lat="48.33556" lon="10.816145">
<ele>569.132</ele>
<time>2022-05-25T10:38:09Z</time>
</trkpt>
<trkpt lat="48.33556" lon="10.816192">
<ele>569.006</ele>
<time>2022-05-25T10:38:10Z</time>
</trkpt>
<trkpt lat="48.335556" lon="10.816247">
<ele>568.635</ele>
<time>2022-05-25T10:38:11Z</time>
</trkpt>
<trkpt lat="48.335548" lon="10.816315">
<ele>568.345</ele>
<time>2022-05-25T10:38:12Z</time>
</trkpt>
<trkpt lat="48.335545" lon="10.816367">
<ele>568.176</ele>
<time>2022-05-25T10:38:13Z</time>
</trkpt>
<trkpt lat="48.335537" lon="10.816413">
<ele>567.756</ele>
<time>2022-05-25T10:38:14Z</time>
</trkpt>
<trkpt lat="48.335537" lon="10.816474">
<ele>567.45</ele>
<time>2022-05-25T10:38:15Z</time>
</trkpt>
<trkpt lat="48.335529" lon="10.816526">
<ele>566.966</ele>
<time>2022-05-25T10:38:16Z</time>
</trkpt>
<trkpt lat="48.335518" lon="10.816575">
<ele>566.609</ele>
<time>2022-05-25T10:38:17Z</time>
</trkpt>
<trkpt lat="48.335503" lon="10.816637">
<ele>566.047</ele>
<time>2022-05-25T10:38:18Z</time>
</trkpt>
<trkpt lat="48.335495" lon="10.816709">
<ele>565.617</ele>
<time>2022-05-25T10:38:19Z</time>
</trkpt>
<trkpt lat="48.335491" lon="10.816769">
<ele>565.271</ele>
<time>2022-05-25T10:38:20Z</time>
</trkpt>
<trkpt lat="48.335491" lon="10.81682">
<ele>565.029</ele>
<time>2022-05-25T10:38:21Z</time>
</trkpt>
<trkpt lat="48.335476" lon="10.816889">
<ele>564.598</ele>
<time>2022-05-25T10:38:22Z</time>
</trkpt>
<trkpt lat="48.335464" lon="10.81696">
<ele>564.005</ele>
<time>2022-05-25T10:38:23Z</time>
</trkpt>
<trkpt lat="48.335457" lon="10.817073">
<ele>563.602</ele>
<time>2022-05-25T10:38:24Z</time>
</trkpt>
<trkpt lat="48.335445" lon="10.817184">
<ele>562.893</ele>
<time>2022-05-25T10:38:25Z</time>
</trkpt>
<trkpt lat="48.335442" lon="10.817262">
<ele>562.407</ele>
<time>2022-05-25T10:38:26Z</time>
</trkpt>
<trkpt lat="48.335438" lon="10.817356">
<ele>562.086</ele>
<time>2022-05-25T10:38:27Z</time>
</trkpt>
<trkpt lat="48.335438" lon="10.817451">
<ele>561.411</ele>
<time>2022-05-25T10:38:28Z</time>
</trkpt>
<trkpt lat="48.335434" lon="10.817536">
<ele>561.011</ele>
<time>2022-05-25T10:38:29Z</time>
</trkpt>
<trkpt lat="48.33543" lon="10.817616">
<ele>560.491</ele>
<time>2022-05-25T10:38:30Z</time>
</trkpt>
<trkpt lat="48.33543" lon="10.817698">
<ele>559.81</ele>
<time>2022-05-25T10:38:31Z</time>
</trkpt>
<trkpt lat="48.335434" lon="10.817794">
<ele>559.357</ele>
<time>2022-05-25T10:38:32Z</time>
</trkpt>
<trkpt lat="48.335445" lon="10.817892">
<ele>558.649</ele>
<time>2022-05-25T10:38:33Z</time>
</trkpt>
<trkpt lat="48.335453" lon="10.81799">
<ele>558.059</ele>
<time>2022-05-25T10:38:34Z</time>
</trkpt>
<trkpt lat="48.335461" lon="10.818122">
<ele>557.744</ele>
<time>2022-05-25T10:38:35Z</time>
</trkpt>
<trkpt lat="48.335453" lon="10.818233">
<ele>557.186</ele>
<time>2022-05-25T10:38:36Z</time>
</trkpt>
<trkpt lat="48.335449" lon="10.818343">
<ele>556.818</ele>
<time>2022-05-25T10:38:37Z</time>
</trkpt>
<trkpt lat="48.335468" lon="10.818439">
<ele>556.266</ele>
<time>2022-05-25T10:38:38Z</time>
</trkpt>
<trkpt lat="48.335468" lon="10.818531">
<ele>555.924</ele>
<time>2022-05-25T10:38:39Z</time>
</trkpt>
<trkpt lat="48.335487" lon="10.818628">
<ele>555.396</ele>
<time>2022-05-25T10:38:40Z</time>
</trkpt>
<trkpt lat="48.335495" lon="10.818705">
<ele>554.996</ele>
<time>2022-05-25T10:38:41Z</time>
</trkpt>
<trkpt lat="48.335495" lon="10.818774">
<ele>554.727</ele>
<time>2022-05-25T10:38:42Z</time>
</trkpt>
<trkpt lat="48.335495" lon="10.818839">
<ele>554.307</ele>
<time>2022-05-25T10:38:43Z</time>
</trkpt>
<trkpt lat="48.335503" lon="10.818905">
<ele>553.954</ele>
<time>2022-05-25T10:38:44Z</time>
</trkpt>
<trkpt lat="48.335514" lon="10.818978">
<ele>553.722</ele>
<time>2022-05-25T10:38:45Z</time>
</trkpt>
<trkpt lat="48.335526" lon="10.819052">
<ele>553.294</ele>
<time>2022-05-25T10:38:46Z</time>
</trkpt>
<trkpt lat="48.335529" lon="10.81915">
<ele>552.986</ele>
<time>2022-05-25T10:38:47Z</time>
</trkpt>
<trkpt lat="48.335541" lon="10.819243">
<ele>552.728</ele>
<time>2022-05-25T10:38:48Z</time>
</trkpt>
<trkpt lat="48.335541" lon="10.819325">
<ele>552.221</ele>
<time>2022-05-25T10:38:49Z</time>
</trkpt>
<trkpt lat="48.335545" lon="10.819399">
<ele>551.89</ele>
<time>2022-05-25T10:38:50Z</time>
</trkpt>
<trkpt lat="48.335548" lon="10.819471">
<ele>551.375</ele>
<time>2022-05-25T10:38:51Z</time>
</trkpt>
<trkpt lat="48.33556" lon="10.819614">
<ele>550.979</ele>
<time>2022-05-25T10:38:52Z</time>
</trkpt>
<trkpt lat="48.335564" lon="10.81973">
<ele>550.691</ele>
<time>2022-05-25T10:38:53Z</time>
</trkpt>
<trkpt lat="48.335579" lon="10.819826">
<ele>550.412</ele>
<time>2022-05-25T10:38:54Z</time>
</trkpt>
<trkpt lat="48.335587" lon="10.819897">
<ele>550.334</ele>
<time>2022-05-25T10:38:55Z</time>
</trkpt>
<trkpt lat="48.335602" lon="10.819956">
<ele>550.036</ele>
<time>2022-05-25T10:38:56Z</time>
</trkpt>
<trkpt lat="48.335621" lon="10.820015">
<ele>549.812</ele>
<time>2022-05-25T10:38:57Z</time>
</trkpt>
<trkpt lat="48.335629" lon="10.820071">
<ele>549.632</ele>
<time>2022-05-25T10:38:58Z</time>
</trkpt>
<trkpt lat="48.335632" lon="10.820124">
<ele>549.525</ele>
<time>2022-05-25T10:38:59Z</time>
</trkpt>
<trkpt lat="48.33564" lon="10.820175">
<ele>549.26</ele>
<time>2022-05-25T10:39:00Z</time>
</trkpt>
<trkpt lat="48.335648" lon="10.82023">
<ele>548.99</ele>
<time>2022-05-25T10:39:01Z</time>
</trkpt>
<trkpt lat="48.335655" lon="10.820282">
<ele>548.768</ele>
<time>2022-05-25T10:39:02Z</time>
</trkpt>
<trkpt lat="48.335659" lon="10.820332">
<ele>548.597</ele>
<time>2022-05-25T10:39:03Z</time>
</trkpt>
<trkpt lat="48.335659" lon="10.820379">
<ele>548.463</ele>
<time>2022-05-25T10:39:04Z</time>
</trkpt>
<trkpt lat="48.335655" lon="10.820436">
<ele>548.421</ele>
<time>2022-05-25T10:39:05Z</time>
</trkpt>
<trkpt lat="48.335659" lon="10.820488">
<ele>548.156</ele>
<time>2022-05-25T10:39:06Z</time>
</trkpt>
<trkpt lat="48.335659" lon="10.820545">
<ele>547.962</ele>
<time>2022-05-25T10:39:07Z</time>
</trkpt>
<trkpt lat="48.335663" lon="10.820603">
<ele>547.79</ele>
<time>2022-05-25T10:39:08Z</time>
</trkpt>
<trkpt lat="48.335663" lon="10.820664">
<ele>547.652</ele>
<time>2022-05-25T10:39:09Z</time>
</trkpt>
<trkpt lat="48.335667" lon="10.820724">
<ele>547.543</ele>
<time>2022-05-25T10:39:10Z</time>
</trkpt>
<trkpt lat="48.335667" lon="10.820788">
<ele>547.477</ele>
<time>2022-05-25T10:39:11Z</time>
</trkpt>
<trkpt lat="48.33567" lon="10.820855">
<ele>547.024</ele>
<time>2022-05-25T10:39:12Z</time>
</trkpt>
<trkpt lat="48.335659" lon="10.820931">
<ele>546.674</ele>
<time>2022-05-25T10:39:13Z</time>
</trkpt>
<trkpt lat="48.335648" lon="10.821008">
<ele>546.495</ele>
<time>2022-05-25T10:39:14Z</time>
</trkpt>
<trkpt lat="48.335644" lon="10.821087">
<ele>546.437</ele>
<time>2022-05-25T10:39:15Z</time>
</trkpt>
<trkpt lat="48.335651" lon="10.821167">
<ele>546.328</ele>
<time>2022-05-25T10:39:16Z</time>
</trkpt>
<trkpt lat="48.335655" lon="10.821246">
<ele>546.084</ele>
<time>2022-05-25T10:39:17Z</time>
</trkpt>
<trkpt lat="48.335655" lon="10.821328">
<ele>545.952</ele>
<time>2022-05-25T10:39:18Z</time>
</trkpt>
<trkpt lat="48.335648" lon="10.821414">
<ele>545.829</ele>
<time>2022-05-25T10:39:19Z</time>
</trkpt>
<trkpt lat="48.33564" lon="10.82151">
<ele>545.428</ele>
<time>2022-05-25T10:39:20Z</time>
</trkpt>
<trkpt lat="48.335636" lon="10.821607">
<ele>545.238</ele>
<time>2022-05-25T10:39:21Z</time>
</trkpt>
<trkpt lat="48.335625" lon="10.821703">
<ele>544.791</ele>
<time>2022-05-25T10:39:22Z</time>
</trkpt>
<trkpt lat="48.335613" lon="10.821785">
<ele>544.456</ele>
<time>2022-05-25T10:39:23Z</time>
</trkpt>
<trkpt lat="48.335598" lon="10.821867">
<ele>544.274</ele>
<time>2022-05-25T10:39:24Z</time>
</trkpt>
<trkpt lat="48.335594" lon="10.821948">
<ele>543.716</ele>
<time>2022-05-25T10:39:25Z</time>
</trkpt>
<trkpt lat="48.335583" lon="10.822032">
<ele>543.405</ele>
<time>2022-05-25T10:39:26Z</time>
</trkpt>
<trkpt lat="48.335575" lon="10.822108">
<ele>543.224</ele>
<time>2022-05-25T10:39:27Z</time>
</trkpt>
<trkpt lat="48.335571" lon="10.822185">
<ele>542.826</ele>
<time>2022-05-25T10:39:28Z</time>
</trkpt>
<trkpt lat="48.335567" lon="10.822262">
<ele>542.505</ele>
<time>2022-05-25T10:39:29Z</time>
</trkpt>
<trkpt lat="48.335564" lon="10.822344">
<ele>542.301</ele>
<time>2022-05-25T10:39:30Z</time>
</trkpt>
<trkpt lat="48.335556" lon="10.822427">
<ele>541.868</ele>
<time>2022-05-25T10:39:31Z</time>
</trkpt>
<trkpt lat="48.335541" lon="10.82251">
<ele>541.546</ele>
<time>2022-05-25T10:39:32Z</time>
</trkpt>
<trkpt lat="48.335529" lon="10.822596">
<ele>541.348</ele>
<time>2022-05-25T10:39:33Z</time>
</trkpt>
<trkpt lat="48.335522" lon="10.822667">
<ele>540.86</ele>
<time>2022-05-25T10:39:34Z</time>
</trkpt>
<trkpt lat="48.335514" lon="10.822734">
<ele>540.474</ele>
<time>2022-05-25T10:39:35Z</time>
</trkpt>
<trkpt lat="48.335503" lon="10.822807">
<ele>540.197</ele>
<time>2022-05-25T10:39:36Z</time>
</trkpt>
<trkpt lat="48.335499" lon="10.822882">
<ele>540.021</ele>
<time>2022-05-25T10:39:37Z</time>
</trkpt>
<trkpt lat="48.335495" lon="10.82295">
<ele>539.866</ele>
<time>2022-05-25T10:39:38Z</time>
</trkpt>
<trkpt lat="48.335491" lon="10.823021">
<ele>539.498</ele>
<time>2022-05-25T10:39:39Z</time>
</trkpt>
<trkpt lat="48.335495" lon="10.823087">
<ele>539.203</ele>
<time>2022-05-25T10:39:40Z</time>
</trkpt>
<trkpt lat="48.335495" lon="10.823161">
<ele>538.974</ele>
<time>2022-05-25T10:39:41Z</time>
</trkpt>
<trkpt lat="48.335487" lon="10.823235">
<ele>538.719</ele>
<time>2022-05-25T10:39:42Z</time>
</trkpt>
<trkpt lat="48.335476" lon="10.823308">
<ele>538.619</ele>
<time>2022-05-25T10:39:43Z</time>
</trkpt>
<trkpt lat="48.335476" lon="10.823375">
<ele>538.555</ele>
<time>2022-05-25T10:39:44Z</time>
</trkpt>
<trkpt lat="48.335472" lon="10.823444">
<ele>538.526</ele>
<time>2022-05-25T10:39:45Z</time>
</trkpt>
<trkpt lat="48.335464" lon="10.823524">
<ele>538.312</ele>
<time>2022-05-25T10:39:46Z</time>
</trkpt>
<trkpt lat="48.335461" lon="10.8236">
<ele>538.162</ele>
<time>2022-05-25T10:39:47Z</time>
</trkpt>
<trkpt lat="48.335453" lon="10.823681">
<ele>538.004</ele>
<time>2022-05-25T10:39:48Z</time>
</trkpt>
<trkpt lat="48.335438" lon="10.823773">
<ele>537.883</ele>
<time>2022-05-25T10:39:49Z</time>
</trkpt>
<trkpt lat="48.33543" lon="10.823852">
<ele>537.799</ele>
<time>2022-05-25T10:39:50Z</time>
</trkpt>
<trkpt lat="48.335423" lon="10.823947">
<ele>537.455</ele>
<time>2022-05-25T10:39:51Z</time>
</trkpt>
<trkpt lat="48.335415" lon="10.824039">
<ele>537.185</ele>
<time>2022-05-25T10:39:52Z</time>
</trkpt>
<trkpt lat="48.335407" lon="10.824127">
<ele>537.031</ele>
<time>2022-05-25T10:39:53Z</time>
</trkpt>
<trkpt lat="48.3354" lon="10.824215">
<ele>536.567</ele>
<time>2022-05-25T10:39:54Z</time>
</trkpt>
<trkpt lat="48.3354" lon="10.824299">
<ele>536.267</ele>
<time>2022-05-25T10:39:55Z</time>
</trkpt>
<trkpt lat="48.3354" lon="10.824377">
<ele>536.047</ele>
<time>2022-05-25T10:39:56Z</time>
</trkpt>
<trkpt lat="48.3354" lon="10.824447">
<ele>535.891</ele>
<time>2022-05-25T10:39:57Z</time>
</trkpt>
<trkpt lat="48.335392" lon="10.824523">
<ele>535.738</ele>
<time>2022-05-25T10:39:58Z</time>
</trkpt>
<trkpt lat="48.335388" lon="10.824603">
<ele>535.663</ele>
<time>2022-05-25T10:39:59Z</time>
</trkpt>
<trkpt lat="48.335377" lon="10.824689">
<ele>535.374</ele>
<time>2022-05-25T10:40:00Z</time>
</trkpt>
<trkpt lat="48.335373" lon="10.824773">
<ele>535.146</ele>
<time>2022-05-25T10:40:01Z</time>
</trkpt>
<trkpt lat="48.335365" lon="10.824866">
<ele>534.919</ele>
<time>2022-05-25T10:40:02Z</time>
</trkpt>
<trkpt lat="48.335361" lon="10.824962">
<ele>534.817</ele>
<time>2022-05-25T10:40:03Z</time>
</trkpt>
<trkpt lat="48.335354" lon="10.825047">
<ele>534.487</ele>
<time>2022-05-25T10:40:04Z</time>
</trkpt>
<trkpt lat="48.33535" lon="10.825125">
<ele>534.252</ele>
<time>2022-05-25T10:40:05Z</time>
</trkpt>
<trkpt lat="48.33535" lon="10.82519">
<ele>534.093</ele>
<time>2022-05-25T10:40:06Z</time>
</trkpt>
<trkpt lat="48.335342" lon="10.825252">
<ele>533.98</ele>
<time>2022-05-25T10:40:07Z</time>
</trkpt>
<trkpt lat="48.335335" lon="10.825318">
<ele>533.889</ele>
<time>2022-05-25T10:40:08Z</time>
</trkpt>
<trkpt lat="48.335335" lon="10.825385">
<ele>533.561</ele>
<time>2022-05-25T10:40:09Z</time>
</trkpt>
<trkpt lat="48.335331" lon="10.825449">
<ele>533.298</ele>
<time>2022-05-25T10:40:10Z</time>
</trkpt>
<trkpt lat="48.335327" lon="10.82551">
<ele>533.082</ele>
<time>2022-05-25T10:40:11Z</time>
</trkpt>
<trkpt lat="48.33532" lon="10.82557">
<ele>532.823</ele>
<time>2022-05-25T10:40:12Z</time>
</trkpt>
<trkpt lat="48.335308" lon="10.825633">
<ele>532.71</ele>
<time>2022-05-25T10:40:13Z</time>
</trkpt>
<trkpt lat="48.335297" lon="10.825699">
<ele>532.64</ele>
<time>2022-05-25T10:40:14Z</time>
</trkpt>
<trkpt lat="48.33527" lon="10.825766">
<ele>532.612</ele>
<time>2022-05-25T10:40:15Z</time>
</trkpt>
<trkpt lat="48.335247" lon="10.825822">
<ele>532.612</ele>
<time>2022-05-25T10:40:16Z</time>
</trkpt>
<trkpt lat="48.335217" lon="10.825871">
<ele>532.612</ele>
<time>2022-05-25T10:40:17Z</time>
</trkpt>
<trkpt lat="48.335186" lon="10.825916">
<ele>532.612</ele>
<time>2022-05-25T10:40:18Z</time>
</trkpt>
<trkpt lat="48.335152" lon="10.825962">
<ele>532.322</ele>
<time>2022-05-25T10:40:19Z</time>
</trkpt>
<trkpt lat="48.335117" lon="10.825996">
<ele>532.1</ele>
<time>2022-05-25T10:40:20Z</time>
</trkpt>
<trkpt lat="48.335083" lon="10.826023">
<ele>531.94</ele>
<time>2022-05-25T10:40:21Z</time>
</trkpt>
<trkpt lat="48.335041" lon="10.826053">
<ele>531.822</ele>
<time>2022-05-25T10:40:22Z</time>
</trkpt>
<trkpt lat="48.334999" lon="10.826078">
<ele>531.738</ele>
<time>2022-05-25T10:40:23Z</time>
</trkpt>
<trkpt lat="48.334957" lon="10.826097">
<ele>531.68</ele>
<time>2022-05-25T10:40:24Z</time>
</trkpt>
<trkpt lat="48.334927" lon="10.82611">
<ele>531.679</ele>
<time>2022-05-25T10:40:25Z</time>
</trkpt>
<trkpt lat="48.334888" lon="10.826119">
<ele>531.689</ele>
<time>2022-05-25T10:40:26Z</time>
</trkpt>
<trkpt lat="48.334858" lon="10.826138">
<ele>531.691</ele>
<time>2022-05-25T10:40:27Z</time>
</trkpt>
<trkpt lat="48.334827" lon="10.826153">
<ele>531.706</ele>
<time>2022-05-25T10:40:28Z</time>
</trkpt>
<trkpt lat="48.334801" lon="10.826165">
<ele>531.711</ele>
<time>2022-05-25T10:40:29Z</time>
</trkpt>
<trkpt lat="48.334778" lon="10.82617">
<ele>531.474</ele>
<time>2022-05-25T10:40:30Z</time>
</trkpt>
<trkpt lat="48.334755" lon="10.826183">
<ele>531.277</ele>
<time>2022-05-25T10:40:31Z</time>
</trkpt>
<trkpt lat="48.334732" lon="10.826191">
<ele>531.116</ele>
<time>2022-05-25T10:40:32Z</time>
</trkpt>
<trkpt lat="48.334709" lon="10.826203">
<ele>530.988</ele>
<time>2022-05-25T10:40:33Z</time>
</trkpt>
<trkpt lat="48.334702" lon="10.826224">
<ele>530.91</ele>
<time>2022-05-25T10:40:34Z</time>
</trkpt>
<trkpt lat="48.334702" lon="10.826258">
<ele>530.85</ele>
<time>2022-05-25T10:40:35Z</time>
</trkpt>
<trkpt lat="48.334705" lon="10.8263">
<ele>530.813</ele>
<time>2022-05-25T10:40:36Z</time>
</trkpt>
<trkpt lat="48.334705" lon="10.826361">
<ele>530.787</ele>
<time>2022-05-25T10:40:37Z</time>
</trkpt>
<trkpt lat="48.334713" lon="10.826402">
<ele>530.787</ele>
<time>2022-05-25T10:40:38Z</time>
</trkpt>
<trkpt lat="48.334721" lon="10.826436">
<ele>530.786</ele>
<time>2022-05-25T10:40:39Z</time>
</trkpt>
<trkpt lat="48.334732" lon="10.826469">
<ele>530.465</ele>
<time>2022-05-25T10:40:40Z</time>
</trkpt>
<trkpt lat="48.334736" lon="10.8265">
<ele>530.231</ele>
<time>2022-05-25T10:40:41Z</time>
</trkpt>
<trkpt lat="48.334724" lon="10.826524">
<ele>530.052</ele>
<time>2022-05-25T10:40:42Z</time>
</trkpt>
<trkpt lat="48.334713" lon="10.82654">
<ele>529.954</ele>
<time>2022-05-25T10:40:43Z</time>
</trkpt>
<trkpt lat="48.33469" lon="10.826555">
<ele>529.867</ele>
<time>2022-05-25T10:40:44Z</time>
</trkpt>
<trkpt lat="48.334671" lon="10.826578">
<ele>529.81</ele>
<time>2022-05-25T10:40:45Z</time>
</trkpt>
<trkpt lat="48.334656" lon="10.826597">
<ele>529.773</ele>
<time>2022-05-25T10:40:46Z</time>
</trkpt>
<trkpt lat="48.334644" lon="10.826607">
<ele>529.744</ele>
<time>2022-05-25T10:40:47Z</time>
</trkpt>
<trkpt lat="48.334629" lon="10.82662">
<ele>529.744</ele>
<time>2022-05-25T10:40:48Z</time>
</trkpt>
<trkpt lat="48.334618" lon="10.826627">
<ele>529.502</ele>
<time>2022-05-25T10:40:49Z</time>
</trkpt>
<trkpt lat="48.334606" lon="10.826632">
<ele>529.308</ele>
<time>2022-05-25T10:40:50Z</time>
</trkpt>
<trkpt lat="48.334599" lon="10.826635">
<ele>529.169</ele>
<time>2022-05-25T10:40:51Z</time>
</trkpt>
<trkpt lat="48.334587" lon="10.826639">
<ele>529.06</ele>
<time>2022-05-25T10:40:52Z</time>
</trkpt>
<trkpt lat="48.334583" lon="10.826637">
<ele>528.973</ele>
<time>2022-05-25T10:40:53Z</time>
</trkpt>
<trkpt lat="48.334583" lon="10.826633">
<ele>528.908</ele>
<time>2022-05-25T10:40:54Z</time>
</trkpt>
<trkpt lat="48.334583" lon="10.826632">
<ele>528.874</ele>
<time>2022-05-25T10:40:55Z</time>
</trkpt>
<trkpt lat="48.334579" lon="10.82662">
<ele>528.874</ele>
<time>2022-05-25T10:40:59Z</time>
</trkpt>
<trkpt lat="48.334576" lon="10.826614">
<ele>528.874</ele>
<time>2022-05-25T10:41:00Z</time>
</trkpt>
<trkpt lat="48.334576" lon="10.826604">
<ele>528.874</ele>
<time>2022-05-25T10:41:01Z</time>
</trkpt>
<trkpt lat="48.334572" lon="10.826593">
<ele>528.874</ele>
<time>2022-05-25T10:41:02Z</time>
</trkpt>
<trkpt lat="48.334568" lon="10.826589">
<ele>528.874</ele>
<time>2022-05-25T10:41:03Z</time>
</trkpt>
<trkpt lat="48.334564" lon="10.826585">
<ele>528.874</ele>
<time>2022-05-25T10:41:04Z</time>
</trkpt>
<trkpt lat="48.334538" lon="10.826576">
<ele>528.874</ele>
<time>2022-05-25T10:41:06Z</time>
</trkpt>
<trkpt lat="48.334526" lon="10.826567">
<ele>528.874</ele>
<time>2022-05-25T10:41:07Z</time>
</trkpt>
<trkpt lat="48.334518" lon="10.826555">
<ele>528.874</ele>
<time>2022-05-25T10:41:08Z</time>
</trkpt>
<trkpt lat="48.334503" lon="10.826553">
<ele>528.874</ele>
<time>2022-05-25T10:41:09Z</time>
</trkpt>
<trkpt lat="48.334518" lon="10.826547">
<ele>528.874</ele>
<time>2022-05-25T10:41:10Z</time>
</trkpt>
<trkpt lat="48.334507" lon="10.826549">
<ele>529.093</ele>
<time>2022-05-25T10:41:11Z</time>
</trkpt>
<trkpt lat="48.334454" lon="10.826535">
<ele>529.363</ele>
<time>2022-05-25T10:41:42Z</time>
</trkpt>
<trkpt lat="48.334454" lon="10.826551">
<ele>529.422</ele>
<time>2022-05-25T10:41:43Z</time>
</trkpt>
<trkpt lat="48.334454" lon="10.826573">
<ele>529.513</ele>
<time>2022-05-25T10:41:44Z</time>
</trkpt>
<trkpt lat="48.334457" lon="10.826591">
<ele>529.55</ele>
<time>2022-05-25T10:41:45Z</time>
</trkpt>
<trkpt lat="48.334465" lon="10.82661">
<ele>529.571</ele>
<time>2022-05-25T10:41:46Z</time>
</trkpt>
<trkpt lat="48.334476" lon="10.826633">
<ele>529.579</ele>
<time>2022-05-25T10:41:47Z</time>
</trkpt>
<trkpt lat="48.334484" lon="10.82666">
<ele>529.572</ele>
<time>2022-05-25T10:41:48Z</time>
</trkpt>
<trkpt lat="48.334499" lon="10.826679">
<ele>529.57</ele>
<time>2022-05-25T10:41:49Z</time>
</trkpt>
<trkpt lat="48.334518" lon="10.826702">
<ele>529.57</ele>
<time>2022-05-25T10:41:50Z</time>
</trkpt>
<trkpt lat="48.33453" lon="10.826727">
<ele>529.57</ele>
<time>2022-05-25T10:41:51Z</time>
</trkpt>
<trkpt lat="48.334545" lon="10.826769">
<ele>529.569</ele>
<time>2022-05-25T10:41:52Z</time>
</trkpt>
<trkpt lat="48.33456" lon="10.826803">
<ele>529.57</ele>
<time>2022-05-25T10:41:53Z</time>
</trkpt>
<trkpt lat="48.334579" lon="10.826845">
<ele>529.57</ele>
<time>2022-05-25T10:41:54Z</time>
</trkpt>
<trkpt lat="48.33461" lon="10.826883">
<ele>529.57</ele>
<time>2022-05-25T10:41:55Z</time>
</trkpt>
<trkpt lat="48.334641" lon="10.826917">
<ele>529.57</ele>
<time>2022-05-25T10:41:56Z</time>
</trkpt>
<trkpt lat="48.334667" lon="10.82696">
<ele>529.57</ele>
<time>2022-05-25T10:41:57Z</time>
</trkpt>
<trkpt lat="48.334698" lon="10.826995">
<ele>529.57</ele>
<time>2022-05-25T10:41:58Z</time>
</trkpt>
<trkpt lat="48.334732" lon="10.827019">
<ele>529.316</ele>
<time>2022-05-25T10:41:59Z</time>
</trkpt>
<trkpt lat="48.334763" lon="10.827044">
<ele>529.154</ele>
<time>2022-05-25T10:42:00Z</time>
</trkpt>
<trkpt lat="48.334793" lon="10.82707">
<ele>528.987</ele>
<time>2022-05-25T10:42:01Z</time>
</trkpt>
<trkpt lat="48.334816" lon="10.827098">
<ele>528.864</ele>
<time>2022-05-25T10:42:02Z</time>
</trkpt>
<trkpt lat="48.334846" lon="10.827129">
<ele>528.766</ele>
<time>2022-05-25T10:42:03Z</time>
</trkpt>
<trkpt lat="48.334885" lon="10.827167">
<ele>528.697</ele>
<time>2022-05-25T10:42:04Z</time>
</trkpt>
<trkpt lat="48.334915" lon="10.827198">
<ele>528.408</ele>
<time>2022-05-25T10:42:05Z</time>
</trkpt>
<trkpt lat="48.334946" lon="10.827234">
<ele>528.18</ele>
<time>2022-05-25T10:42:06Z</time>
</trkpt>
<trkpt lat="48.334976" lon="10.827276">
<ele>527.985</ele>
<time>2022-05-25T10:42:07Z</time>
</trkpt>
<trkpt lat="48.334999" lon="10.827322">
<ele>527.867</ele>
<time>2022-05-25T10:42:08Z</time>
</trkpt>
<trkpt lat="48.335018" lon="10.827372">
<ele>527.805</ele>
<time>2022-05-25T10:42:09Z</time>
</trkpt>
<trkpt lat="48.335045" lon="10.827421">
<ele>527.531</ele>
<time>2022-05-25T10:42:10Z</time>
</trkpt>
<trkpt lat="48.335072" lon="10.827472">
<ele>527.305</ele>
<time>2022-05-25T10:42:11Z</time>
</trkpt>
<trkpt lat="48.335087" lon="10.827518">
<ele>527.134</ele>
<time>2022-05-25T10:42:12Z</time>
</trkpt>
<trkpt lat="48.335106" lon="10.827568">
<ele>527.008</ele>
<time>2022-05-25T10:42:13Z</time>
</trkpt>
<trkpt lat="48.335117" lon="10.827615">
<ele>526.917</ele>
<time>2022-05-25T10:42:14Z</time>
</trkpt>
<trkpt lat="48.335125" lon="10.827655">
<ele>526.852</ele>
<time>2022-05-25T10:42:15Z</time>
</trkpt>
<trkpt lat="48.335125" lon="10.827697">
<ele>526.812</ele>
<time>2022-05-25T10:42:16Z</time>
</trkpt>
<trkpt lat="48.335121" lon="10.827728">
<ele>526.579</ele>
<time>2022-05-25T10:42:17Z</time>
</trkpt>
<trkpt lat="48.335129" lon="10.827768">
<ele>526.387</ele>
<time>2022-05-25T10:42:18Z</time>
</trkpt>
<trkpt lat="48.335136" lon="10.827819">
<ele>526.235</ele>
<time>2022-05-25T10:42:19Z</time>
</trkpt>
<trkpt lat="48.33514" lon="10.827873">
<ele>526.125</ele>
<time>2022-05-25T10:42:20Z</time>
</trkpt>
<trkpt lat="48.335148" lon="10.827927">
<ele>526.005</ele>
<time>2022-05-25T10:42:21Z</time>
</trkpt>
<trkpt lat="48.335155" lon="10.827982">
<ele>525.912</ele>
<time>2022-05-25T10:42:22Z</time>
</trkpt>
<trkpt lat="48.335167" lon="10.828038">
<ele>525.856</ele>
<time>2022-05-25T10:42:23Z</time>
</trkpt>
<trkpt lat="48.335171" lon="10.828087">
<ele>525.833</ele>
<time>2022-05-25T10:42:24Z</time>
</trkpt>
<trkpt lat="48.335182" lon="10.828125">
<ele>525.833</ele>
<time>2022-05-25T10:42:25Z</time>
</trkpt>
<trkpt lat="48.335197" lon="10.82815">
<ele>525.833</ele>
<time>2022-05-25T10:42:26Z</time>
</trkpt>
<trkpt lat="48.335213" lon="10.828167">
<ele>525.833</ele>
<time>2022-05-25T10:42:27Z</time>
</trkpt>
<trkpt lat="48.335232" lon="10.828175">
<ele>525.833</ele>
<time>2022-05-25T10:42:28Z</time>
</trkpt>
<trkpt lat="48.335255" lon="10.828176">
<ele>525.833</ele>
<time>2022-05-25T10:42:29Z</time>
</trkpt>
<trkpt lat="48.33527" lon="10.8282">
<ele>525.833</ele>
<time>2022-05-25T10:42:30Z</time>
</trkpt>
<trkpt lat="48.335278" lon="10.82824">
<ele>525.619</ele>
<time>2022-05-25T10:42:31Z</time>
</trkpt>
<trkpt lat="48.335285" lon="10.828283">
<ele>525.415</ele>
<time>2022-05-25T10:42:32Z</time>
</trkpt>
<trkpt lat="48.335293" lon="10.828335">
<ele>525.232</ele>
<time>2022-05-25T10:42:33Z</time>
</trkpt>
<trkpt lat="48.3353" lon="10.828386">
<ele>525.088</ele>
<time>2022-05-25T10:42:34Z</time>
</trkpt>
<trkpt lat="48.335304" lon="10.828444">
<ele>524.992</ele>
<time>2022-05-25T10:42:35Z</time>
</trkpt>
<trkpt lat="48.335312" lon="10.8285">
<ele>524.93</ele>
<time>2022-05-25T10:42:36Z</time>
</trkpt>
<trkpt lat="48.335316" lon="10.828562">
<ele>524.894</ele>
<time>2022-05-25T10:42:37Z</time>
</trkpt>
<trkpt lat="48.335323" lon="10.828624">
<ele>524.877</ele>
<time>2022-05-25T10:42:38Z</time>
</trkpt>
<trkpt lat="48.335331" lon="10.828691">
<ele>524.601</ele>
<time>2022-05-25T10:42:39Z</time>
</trkpt>
<trkpt lat="48.335335" lon="10.828752">
<ele>524.422</ele>
<time>2022-05-25T10:42:40Z</time>
</trkpt>
<trkpt lat="48.335335" lon="10.82882">
<ele>524.239</ele>
<time>2022-05-25T10:42:41Z</time>
</trkpt>
<trkpt lat="48.335342" lon="10.828892">
<ele>524.093</ele>
<time>2022-05-25T10:42:42Z</time>
</trkpt>
<trkpt lat="48.33535" lon="10.828961">
<ele>523.985</ele>
<time>2022-05-25T10:42:43Z</time>
</trkpt>
<trkpt lat="48.335361" lon="10.829034">
<ele>523.907</ele>
<time>2022-05-25T10:42:44Z</time>
</trkpt>
<trkpt lat="48.335369" lon="10.829107">
<ele>523.862</ele>
<time>2022-05-25T10:42:45Z</time>
</trkpt>
<trkpt lat="48.335373" lon="10.829179">
<ele>523.617</ele>
<time>2022-05-25T10:42:46Z</time>
</trkpt>
<trkpt lat="48.335377" lon="10.82925">
<ele>523.42</ele>
<time>2022-05-25T10:42:47Z</time>
</trkpt>
<trkpt lat="48.335377" lon="10.829327">
<ele>523.281</ele>
<time>2022-05-25T10:42:48Z</time>
</trkpt>
<trkpt lat="48.335381" lon="10.829405">
<ele>523.179</ele>
<time>2022-05-25T10:42:49Z</time>
</trkpt>
<trkpt lat="48.335381" lon="10.829491">
<ele>523.109</ele>
<time>2022-05-25T10:42:50Z</time>
</trkpt>
<trkpt lat="48.335384" lon="10.82958">
<ele>523.034</ele>
<time>2022-05-25T10:42:51Z</time>
</trkpt>
<trkpt lat="48.335388" lon="10.829671">
<ele>522.988</ele>
<time>2022-05-25T10:42:52Z</time>
</trkpt>
<trkpt lat="48.335388" lon="10.829773">
<ele>522.966</ele>
<time>2022-05-25T10:42:53Z</time>
</trkpt>
<trkpt lat="48.335392" lon="10.829864">
<ele>522.966</ele>
<time>2022-05-25T10:42:54Z</time>
</trkpt>
<trkpt lat="48.335396" lon="10.829958">
<ele>522.966</ele>
<time>2022-05-25T10:42:55Z</time>
</trkpt>
<trkpt lat="48.3354" lon="10.830047">
<ele>522.706</ele>
<time>2022-05-25T10:42:56Z</time>
</trkpt>
<trkpt lat="48.3354" lon="10.830127">
<ele>522.509</ele>
<time>2022-05-25T10:42:57Z</time>
</trkpt>
<trkpt lat="48.335407" lon="10.830203">
<ele>522.364</ele>
<time>2022-05-25T10:42:58Z</time>
</trkpt>
<trkpt lat="48.335411" lon="10.830276">
<ele>522.255</ele>
<time>2022-05-25T10:42:59Z</time>
</trkpt>
<trkpt lat="48.335415" lon="10.830354">
<ele>522.176</ele>
<time>2022-05-25T10:43:00Z</time>
</trkpt>
<trkpt lat="48.335419" lon="10.83042">
<ele>522.096</ele>
<time>2022-05-25T10:43:01Z</time>
</trkpt>
<trkpt lat="48.335426" lon="10.830488">
<ele>522.037</ele>
<time>2022-05-25T10:43:02Z</time>
</trkpt>
<trkpt lat="48.33543" lon="10.83056">
<ele>522.011</ele>
<time>2022-05-25T10:43:03Z</time>
</trkpt>
<trkpt lat="48.33543" lon="10.830639">
<ele>522.011</ele>
<time>2022-05-25T10:43:04Z</time>
</trkpt>
<trkpt lat="48.335434" lon="10.830714">
<ele>522.011</ele>
<time>2022-05-25T10:43:05Z</time>
</trkpt>
<trkpt lat="48.335438" lon="10.830791">
<ele>522.011</ele>
<time>2022-05-25T10:43:06Z</time>
</trkpt>
<trkpt lat="48.335442" lon="10.830861">
<ele>522.011</ele>
<time>2022-05-25T10:43:07Z</time>
</trkpt>
<trkpt lat="48.335445" lon="10.830928">
<ele>522.011</ele>
<time>2022-05-25T10:43:08Z</time>
</trkpt>
<trkpt lat="48.335449" lon="10.830991">
<ele>522.011</ele>
<time>2022-05-25T10:43:09Z</time>
</trkpt>
<trkpt lat="48.335449" lon="10.831061">
<ele>522.011</ele>
<time>2022-05-25T10:43:10Z</time>
</trkpt>
<trkpt lat="48.335453" lon="10.831129">
<ele>522.011</ele>
<time>2022-05-25T10:43:11Z</time>
</trkpt>
<trkpt lat="48.335457" lon="10.83119">
<ele>522.011</ele>
<time>2022-05-25T10:43:12Z</time>
</trkpt>
<trkpt lat="48.335461" lon="10.83125">
<ele>522.011</ele>
<time>2022-05-25T10:43:13Z</time>
</trkpt>
<trkpt lat="48.335464" lon="10.831309">
<ele>522.011</ele>
<time>2022-05-25T10:43:14Z</time>
</trkpt>
<trkpt lat="48.335468" lon="10.83137">
<ele>522.011</ele>
<time>2022-05-25T10:43:15Z</time>
</trkpt>
<trkpt lat="48.335476" lon="10.831429">
<ele>522.011</ele>
<time>2022-05-25T10:43:16Z</time>
</trkpt>
<trkpt lat="48.335484" lon="10.831489">
<ele>522.011</ele>
<time>2022-05-25T10:43:17Z</time>
</trkpt>
<trkpt lat="48.335491" lon="10.831547">
<ele>522.011</ele>
<time>2022-05-25T10:43:18Z</time>
</trkpt>
<trkpt lat="48.335495" lon="10.831605">
<ele>522.011</ele>
<time>2022-05-25T10:43:19Z</time>
</trkpt>
<trkpt lat="48.335499" lon="10.831667">
<ele>522.01</ele>
<time>2022-05-25T10:43:20Z</time>
</trkpt>
<trkpt lat="48.335503" lon="10.831726">
<ele>522.011</ele>
<time>2022-05-25T10:43:21Z</time>
</trkpt>
<trkpt lat="48.335506" lon="10.831787">
<ele>522.011</ele>
<time>2022-05-25T10:43:22Z</time>
</trkpt>
<trkpt lat="48.33551" lon="10.831845">
<ele>521.736</ele>
<time>2022-05-25T10:43:23Z</time>
</trkpt>
<trkpt lat="48.335522" lon="10.831894">
<ele>521.521</ele>
<time>2022-05-25T10:43:24Z</time>
</trkpt>
<trkpt lat="48.335526" lon="10.831946">
<ele>521.364</ele>
<time>2022-05-25T10:43:25Z</time>
</trkpt>
<trkpt lat="48.335529" lon="10.832003">
<ele>521.24</ele>
<time>2022-05-25T10:43:26Z</time>
</trkpt>
<trkpt lat="48.335533" lon="10.832055">
<ele>521.157</ele>
<time>2022-05-25T10:43:27Z</time>
</trkpt>
<trkpt lat="48.335537" lon="10.83209">
<ele>521.105</ele>
<time>2022-05-25T10:43:28Z</time>
</trkpt>
<trkpt lat="48.335545" lon="10.832115">
<ele>521.08</ele>
<time>2022-05-25T10:43:29Z</time>
</trkpt>
<trkpt lat="48.335548" lon="10.832127">
<ele>521.055</ele>
<time>2022-05-25T10:43:30Z</time>
</trkpt>
<trkpt lat="48.335552" lon="10.832127">
<ele>521.055</ele>
<time>2022-05-25T10:43:31Z</time>
</trkpt>
<trkpt lat="48.335552" lon="10.832129">
<ele>521.055</ele>
<time>2022-05-25T10:43:32Z</time>
</trkpt>
<trkpt lat="48.335548" lon="10.832137">
<ele>521.055</ele>
<time>2022-05-25T10:43:33Z</time>
</trkpt>
<trkpt lat="48.335552" lon="10.832164">
<ele>521.055</ele>
<time>2022-05-25T10:44:07Z</time>
</trkpt>
<trkpt lat="48.335552" lon="10.832189">
<ele>521.195</ele>
<time>2022-05-25T10:44:08Z</time>
</trkpt>
<trkpt lat="48.335556" lon="10.832214">
<ele>521.338</ele>
<time>2022-05-25T10:44:09Z</time>
</trkpt>
<trkpt lat="48.33556" lon="10.832248">
<ele>521.474</ele>
<time>2022-05-25T10:44:10Z</time>
</trkpt>
<trkpt lat="48.33556" lon="10.832283">
<ele>521.578</ele>
<time>2022-05-25T10:44:11Z</time>
</trkpt>
<trkpt lat="48.335564" lon="10.832318">
<ele>521.638</ele>
<time>2022-05-25T10:44:12Z</time>
</trkpt>
<trkpt lat="48.335571" lon="10.832356">
<ele>521.651</ele>
<time>2022-05-25T10:44:13Z</time>
</trkpt>
<trkpt lat="48.335575" lon="10.832405">
<ele>521.656</ele>
<time>2022-05-25T10:44:14Z</time>
</trkpt>
<trkpt lat="48.335579" lon="10.832458">
<ele>521.663</ele>
<time>2022-05-25T10:44:15Z</time>
</trkpt>
<trkpt lat="48.335579" lon="10.832519">
<ele>521.663</ele>
<time>2022-05-25T10:44:16Z</time>
</trkpt>
<trkpt lat="48.335583" lon="10.832572">
<ele>521.663</ele>
<time>2022-05-25T10:44:17Z</time>
</trkpt>
<trkpt lat="48.335583" lon="10.832622">
<ele>521.663</ele>
<time>2022-05-25T10:44:18Z</time>
</trkpt>
<trkpt lat="48.335587" lon="10.832673">
<ele>521.663</ele>
<time>2022-05-25T10:44:19Z</time>
</trkpt>
<trkpt lat="48.335587" lon="10.832711">
<ele>521.663</ele>
<time>2022-05-25T10:44:20Z</time>
</trkpt>
<trkpt lat="48.33559" lon="10.832742">
<ele>521.663</ele>
<time>2022-05-25T10:44:21Z</time>
</trkpt>
<trkpt lat="48.33559" lon="10.832767">
<ele>521.663</ele>
<time>2022-05-25T10:44:22Z</time>
</trkpt>
<trkpt lat="48.33559" lon="10.832784">
<ele>521.663</ele>
<time>2022-05-25T10:44:23Z</time>
</trkpt>
<trkpt lat="48.335587" lon="10.832787">
<ele>521.663</ele>
<time>2022-05-25T10:44:24Z</time>
</trkpt>
<trkpt lat="48.335583" lon="10.83279">
<ele>521.663</ele>
<time>2022-05-25T10:44:25Z</time>
</trkpt>
<trkpt lat="48.335583" lon="10.832792">
<ele>521.663</ele>
<time>2022-05-25T10:44:26Z</time>
</trkpt>
<trkpt lat="48.335579" lon="10.832836">
<ele>521.663</ele>
<time>2022-05-25T10:45:27Z</time>
</trkpt>
<trkpt lat="48.335583" lon="10.832855">
<ele>521.446</ele>
<time>2022-05-25T10:45:28Z</time>
</trkpt>
<trkpt lat="48.335583" lon="10.832876">
<ele>521.236</ele>
<time>2022-05-25T10:45:29Z</time>
</trkpt>
<trkpt lat="48.335587" lon="10.832907">
<ele>521.05</ele>
<time>2022-05-25T10:45:30Z</time>
</trkpt>
<trkpt lat="48.33559" lon="10.83294">
<ele>520.906</ele>
<time>2022-05-25T10:45:31Z</time>
</trkpt>
<trkpt lat="48.335594" lon="10.83298">
<ele>520.83</ele>
<time>2022-05-25T10:45:32Z</time>
</trkpt>
<trkpt lat="48.335602" lon="10.833018">
<ele>520.807</ele>
<time>2022-05-25T10:45:33Z</time>
</trkpt>
<trkpt lat="48.335609" lon="10.833067">
<ele>520.796</ele>
<time>2022-05-25T10:45:34Z</time>
</trkpt>
<trkpt lat="48.335613" lon="10.833118">
<ele>520.795</ele>
<time>2022-05-25T10:45:35Z</time>
</trkpt>
<trkpt lat="48.335617" lon="10.833168">
<ele>520.795</ele>
<time>2022-05-25T10:45:36Z</time>
</trkpt>
<trkpt lat="48.335621" lon="10.833219">
<ele>520.795</ele>
<time>2022-05-25T10:45:37Z</time>
</trkpt>
<trkpt lat="48.335625" lon="10.833265">
<ele>520.795</ele>
<time>2022-05-25T10:45:38Z</time>
</trkpt>
<trkpt lat="48.335625" lon="10.833315">
<ele>520.795</ele>
<time>2022-05-25T10:45:39Z</time>
</trkpt>
<trkpt lat="48.335625" lon="10.833368">
<ele>520.795</ele>
<time>2022-05-25T10:45:40Z</time>
</trkpt>
<trkpt lat="48.335625" lon="10.83342">
<ele>520.795</ele>
<time>2022-05-25T10:45:41Z</time>
</trkpt>
<trkpt lat="48.335625" lon="10.833471">
<ele>520.795</ele>
<time>2022-05-25T10:45:42Z</time>
</trkpt>
<trkpt lat="48.335629" lon="10.833524">
<ele>520.795</ele>
<time>2022-05-25T10:45:43Z</time>
</trkpt>
<trkpt lat="48.335632" lon="10.833578">
<ele>520.795</ele>
<time>2022-05-25T10:45:44Z</time>
</trkpt>
<trkpt lat="48.335632" lon="10.833638">
<ele>520.795</ele>
<time>2022-05-25T10:45:45Z</time>
</trkpt>
<trkpt lat="48.33564" lon="10.833697">
<ele>520.795</ele>
<time>2022-05-25T10:45:46Z</time>
</trkpt>
<trkpt lat="48.335644" lon="10.833755">
<ele>520.795</ele>
<time>2022-05-25T10:45:47Z</time>
</trkpt>
<trkpt lat="48.335651" lon="10.833817">
<ele>520.795</ele>
<time>2022-05-25T10:45:48Z</time>
</trkpt>
<trkpt lat="48.335655" lon="10.833874">
<ele>520.795</ele>
<time>2022-05-25T10:45:49Z</time>
</trkpt>
<trkpt lat="48.335659" lon="10.833932">
<ele>520.795</ele>
<time>2022-05-25T10:45:50Z</time>
</trkpt>
<trkpt lat="48.335667" lon="10.833991">
<ele>520.795</ele>
<time>2022-05-25T10:45:51Z</time>
</trkpt>
<trkpt lat="48.335674" lon="10.834055">
<ele>520.795</ele>
<time>2022-05-25T10:45:52Z</time>
</trkpt>
<trkpt lat="48.335678" lon="10.834124">
<ele>520.795</ele>
<time>2022-05-25T10:45:53Z</time>
</trkpt>
<trkpt lat="48.335682" lon="10.834192">
<ele>520.795</ele>
<time>2022-05-25T10:45:54Z</time>
</trkpt>
<trkpt lat="48.33569" lon="10.834259">
<ele>520.795</ele>
<time>2022-05-25T10:45:55Z</time>
</trkpt>
<trkpt lat="48.335693" lon="10.834325">
<ele>520.795</ele>
<time>2022-05-25T10:45:56Z</time>
</trkpt>
<trkpt lat="48.335701" lon="10.83439">
<ele>520.795</ele>
<time>2022-05-25T10:45:57Z</time>
</trkpt>
<trkpt lat="48.335705" lon="10.834455">
<ele>520.795</ele>
<time>2022-05-25T10:45:58Z</time>
</trkpt>
<trkpt lat="48.335709" lon="10.834523">
<ele>520.795</ele>
<time>2022-05-25T10:45:59Z</time>
</trkpt>
<trkpt lat="48.335716" lon="10.83459">
<ele>520.795</ele>
<time>2022-05-25T10:46:00Z</time>
</trkpt>
<trkpt lat="48.335724" lon="10.834655">
<ele>520.795</ele>
<time>2022-05-25T10:46:01Z</time>
</trkpt>
<trkpt lat="48.335724" lon="10.834723">
<ele>520.795</ele>
<time>2022-05-25T10:46:02Z</time>
</trkpt>
<trkpt lat="48.335728" lon="10.834789">
<ele>520.795</ele>
<time>2022-05-25T10:46:03Z</time>
</trkpt>
<trkpt lat="48.335735" lon="10.834858">
<ele>520.795</ele>
<time>2022-05-25T10:46:04Z</time>
</trkpt>
<trkpt lat="48.335747" lon="10.834929">
<ele>520.795</ele>
<time>2022-05-25T10:46:05Z</time>
</trkpt>
<trkpt lat="48.335754" lon="10.835003">
<ele>520.795</ele>
<time>2022-05-25T10:46:06Z</time>
</trkpt>
<trkpt lat="48.335758" lon="10.835074">
<ele>520.795</ele>
<time>2022-05-25T10:46:07Z</time>
</trkpt>
<trkpt lat="48.335766" lon="10.835143">
<ele>520.795</ele>
<time>2022-05-25T10:46:08Z</time>
</trkpt>
<trkpt lat="48.33577" lon="10.835208">
<ele>521.026</ele>
<time>2022-05-25T10:46:09Z</time>
</trkpt>
<trkpt lat="48.335773" lon="10.835275">
<ele>521.204</ele>
<time>2022-05-25T10:46:10Z</time>
</trkpt>
<trkpt lat="48.335777" lon="10.835346">
<ele>521.342</ele>
<time>2022-05-25T10:46:11Z</time>
</trkpt>
<trkpt lat="48.335781" lon="10.83542">
<ele>521.443</ele>
<time>2022-05-25T10:46:12Z</time>
</trkpt>
<trkpt lat="48.335785" lon="10.835495">
<ele>521.514</ele>
<time>2022-05-25T10:46:13Z</time>
</trkpt>
<trkpt lat="48.335789" lon="10.835571">
<ele>521.59</ele>
<time>2022-05-25T10:46:14Z</time>
</trkpt>
<trkpt lat="48.335789" lon="10.835645">
<ele>521.64</ele>
<time>2022-05-25T10:46:15Z</time>
</trkpt>
<trkpt lat="48.335793" lon="10.83572">
<ele>521.663</ele>
<time>2022-05-25T10:46:16Z</time>
</trkpt>
<trkpt lat="48.335796" lon="10.835796">
<ele>521.663</ele>
<time>2022-05-25T10:46:17Z</time>
</trkpt>
<trkpt lat="48.335804" lon="10.835872">
<ele>521.663</ele>
<time>2022-05-25T10:46:18Z</time>
</trkpt>
<trkpt lat="48.335812" lon="10.835945">
<ele>521.663</ele>
<time>2022-05-25T10:46:19Z</time>
</trkpt>
<trkpt lat="48.335815" lon="10.836017">
<ele>521.663</ele>
<time>2022-05-25T10:46:20Z</time>
</trkpt>
<trkpt lat="48.335819" lon="10.836083">
<ele>521.45</ele>
<time>2022-05-25T10:46:21Z</time>
</trkpt>
<trkpt lat="48.335823" lon="10.836151">
<ele>521.28</ele>
<time>2022-05-25T10:46:22Z</time>
</trkpt>
<trkpt lat="48.335823" lon="10.83623">
<ele>521.161</ele>
<time>2022-05-25T10:46:23Z</time>
</trkpt>
<trkpt lat="48.335835" lon="10.836302">
<ele>521.035</ele>
<time>2022-05-25T10:46:24Z</time>
</trkpt>
<trkpt lat="48.335838" lon="10.836375">
<ele>520.936</ele>
<time>2022-05-25T10:46:25Z</time>
</trkpt>
<trkpt lat="48.335846" lon="10.836453">
<ele>520.864</ele>
<time>2022-05-25T10:46:26Z</time>
</trkpt>
<trkpt lat="48.33585" lon="10.83653">
<ele>520.817</ele>
<time>2022-05-25T10:46:27Z</time>
</trkpt>
<trkpt lat="48.335854" lon="10.83661">
<ele>520.795</ele>
<time>2022-05-25T10:46:28Z</time>
</trkpt>
<trkpt lat="48.335857" lon="10.836696">
<ele>520.795</ele>
<time>2022-05-25T10:46:29Z</time>
</trkpt>
<trkpt lat="48.335869" lon="10.836778">
<ele>520.795</ele>
<time>2022-05-25T10:46:30Z</time>
</trkpt>
<trkpt lat="48.335876" lon="10.836868">
<ele>520.795</ele>
<time>2022-05-25T10:46:31Z</time>
</trkpt>
<trkpt lat="48.335884" lon="10.836958">
<ele>520.795</ele>
<time>2022-05-25T10:46:32Z</time>
</trkpt>
<trkpt lat="48.335888" lon="10.837047">
<ele>520.795</ele>
<time>2022-05-25T10:46:33Z</time>
</trkpt>
<trkpt lat="48.335896" lon="10.837135">
<ele>520.795</ele>
<time>2022-05-25T10:46:34Z</time>
</trkpt>
<trkpt lat="48.335899" lon="10.837226">
<ele>520.795</ele>
<time>2022-05-25T10:46:35Z</time>
</trkpt>
<trkpt lat="48.335903" lon="10.837317">
<ele>520.795</ele>
<time>2022-05-25T10:46:36Z</time>
</trkpt>
<trkpt lat="48.335911" lon="10.837408">
<ele>520.795</ele>
<time>2022-05-25T10:46:37Z</time>
</trkpt>
<trkpt lat="48.335918" lon="10.837503">
<ele>520.794</ele>
<time>2022-05-25T10:46:38Z</time>
</trkpt>
<trkpt lat="48.335918" lon="10.837599">
<ele>520.795</ele>
<time>2022-05-25T10:46:39Z</time>
</trkpt>
<trkpt lat="48.335926" lon="10.837687">
<ele>520.795</ele>
<time>2022-05-25T10:46:40Z</time>
</trkpt>
<trkpt lat="48.335934" lon="10.837779">
<ele>520.795</ele>
<time>2022-05-25T10:46:41Z</time>
</trkpt>
<trkpt lat="48.335941" lon="10.837869">
<ele>520.795</ele>
<time>2022-05-25T10:46:42Z</time>
</trkpt>
<trkpt lat="48.335949" lon="10.837961">
<ele>520.795</ele>
<time>2022-05-25T10:46:43Z</time>
</trkpt>
<trkpt lat="48.335953" lon="10.838049">
<ele>520.795</ele>
<time>2022-05-25T10:46:44Z</time>
</trkpt>
<trkpt lat="48.33596" lon="10.83813">
<ele>520.795</ele>
<time>2022-05-25T10:46:45Z</time>
</trkpt>
<trkpt lat="48.33596" lon="10.838202">
<ele>520.795</ele>
<time>2022-05-25T10:46:46Z</time>
</trkpt>
<trkpt lat="48.335964" lon="10.838266">
<ele>520.795</ele>
<time>2022-05-25T10:46:47Z</time>
</trkpt>
<trkpt lat="48.335968" lon="10.838322">
<ele>520.795</ele>
<time>2022-05-25T10:46:48Z</time>
</trkpt>
<trkpt lat="48.335976" lon="10.838368">
<ele>520.795</ele>
<time>2022-05-25T10:46:49Z</time>
</trkpt>
<trkpt lat="48.335972" lon="10.838405">
<ele>520.795</ele>
<time>2022-05-25T10:46:50Z</time>
</trkpt>
<trkpt lat="48.33596" lon="10.838433">
<ele>520.795</ele>
<time>2022-05-25T10:46:51Z</time>
</trkpt>
<trkpt lat="48.335953" lon="10.838457">
<ele>520.795</ele>
<time>2022-05-25T10:46:52Z</time>
</trkpt>
<trkpt lat="48.335945" lon="10.83848">
<ele>520.795</ele>
<time>2022-05-25T10:46:53Z</time>
</trkpt>
<trkpt lat="48.335938" lon="10.838511">
<ele>520.795</ele>
<time>2022-05-25T10:46:54Z</time>
</trkpt>
<trkpt lat="48.33593" lon="10.838554">
<ele>520.795</ele>
<time>2022-05-25T10:46:55Z</time>
</trkpt>
<trkpt lat="48.33593" lon="10.83862">
<ele>520.795</ele>
<time>2022-05-25T10:46:56Z</time>
</trkpt>
<trkpt lat="48.335934" lon="10.838696">
<ele>520.795</ele>
<time>2022-05-25T10:46:57Z</time>
</trkpt>
<trkpt lat="48.335938" lon="10.838782">
<ele>520.795</ele>
<time>2022-05-25T10:46:58Z</time>
</trkpt>
<trkpt lat="48.335938" lon="10.838863">
<ele>520.795</ele>
<time>2022-05-25T10:46:59Z</time>
</trkpt>
<trkpt lat="48.335941" lon="10.83895">
<ele>520.795</ele>
<time>2022-05-25T10:47:00Z</time>
</trkpt>
<trkpt lat="48.335949" lon="10.839033">
<ele>520.795</ele>
<time>2022-05-25T10:47:01Z</time>
</trkpt>
<trkpt lat="48.335953" lon="10.839111">
<ele>521.038</ele>
<time>2022-05-25T10:47:02Z</time>
</trkpt>
<trkpt lat="48.335953" lon="10.83919">
<ele>521.181</ele>
<time>2022-05-25T10:47:03Z</time>
</trkpt>
<trkpt lat="48.335957" lon="10.839271">
<ele>521.321</ele>
<time>2022-05-25T10:47:04Z</time>
</trkpt>
<trkpt lat="48.335964" lon="10.839352">
<ele>521.436</ele>
<time>2022-05-25T10:47:05Z</time>
</trkpt>
<trkpt lat="48.335972" lon="10.83943">
<ele>521.527</ele>
<time>2022-05-25T10:47:06Z</time>
</trkpt>
<trkpt lat="48.335976" lon="10.839508">
<ele>521.597</ele>
<time>2022-05-25T10:47:07Z</time>
</trkpt>
<trkpt lat="48.335983" lon="10.839585">
<ele>521.641</ele>
<time>2022-05-25T10:47:08Z</time>
</trkpt>
<trkpt lat="48.335983" lon="10.83966">
<ele>521.663</ele>
<time>2022-05-25T10:47:09Z</time>
</trkpt>
<trkpt lat="48.335991" lon="10.839735">
<ele>521.663</ele>
<time>2022-05-25T10:47:10Z</time>
</trkpt>
<trkpt lat="48.335999" lon="10.839811">
<ele>521.663</ele>
<time>2022-05-25T10:47:11Z</time>
</trkpt>
<trkpt lat="48.33601" lon="10.839885">
<ele>521.663</ele>
<time>2022-05-25T10:47:12Z</time>
</trkpt>
<trkpt lat="48.336018" lon="10.839962">
<ele>521.663</ele>
<time>2022-05-25T10:47:13Z</time>
</trkpt>
<trkpt lat="48.336021" lon="10.840034">
<ele>521.663</ele>
<time>2022-05-25T10:47:14Z</time>
</trkpt>
<trkpt lat="48.336029" lon="10.840109">
<ele>521.663</ele>
<time>2022-05-25T10:47:15Z</time>
</trkpt>
<trkpt lat="48.33604" lon="10.840178">
<ele>521.663</ele>
<time>2022-05-25T10:47:16Z</time>
</trkpt>
<trkpt lat="48.336048" lon="10.840249">
<ele>521.663</ele>
<time>2022-05-25T10:47:17Z</time>
</trkpt>
<trkpt lat="48.336052" lon="10.840315">
<ele>521.663</ele>
<time>2022-05-25T10:47:18Z</time>
</trkpt>
<trkpt lat="48.336056" lon="10.840384">
<ele>521.663</ele>
<time>2022-05-25T10:47:19Z</time>
</trkpt>
<trkpt lat="48.336067" lon="10.840459">
<ele>521.663</ele>
<time>2022-05-25T10:47:20Z</time>
</trkpt>
<trkpt lat="48.336071" lon="10.840535">
<ele>521.663</ele>
<time>2022-05-25T10:47:21Z</time>
</trkpt>
<trkpt lat="48.336075" lon="10.84061">
<ele>521.663</ele>
<time>2022-05-25T10:47:22Z</time>
</trkpt>
<trkpt lat="48.336082" lon="10.840685">
<ele>521.663</ele>
<time>2022-05-25T10:47:23Z</time>
</trkpt>
<trkpt lat="48.336082" lon="10.840755">
<ele>521.663</ele>
<time>2022-05-25T10:47:24Z</time>
</trkpt>
<trkpt lat="48.336082" lon="10.840827">
<ele>521.663</ele>
<time>2022-05-25T10:47:25Z</time>
</trkpt>
<trkpt lat="48.336086" lon="10.840909">
<ele>521.663</ele>
<time>2022-05-25T10:47:26Z</time>
</trkpt>
<trkpt lat="48.336086" lon="10.84099">
<ele>521.663</ele>
<time>2022-05-25T10:47:27Z</time>
</trkpt>
<trkpt lat="48.33609" lon="10.841072">
<ele>521.663</ele>
<time>2022-05-25T10:47:28Z</time>
</trkpt>
<trkpt lat="48.336094" lon="10.84115">
<ele>521.663</ele>
<time>2022-05-25T10:47:29Z</time>
</trkpt>
<trkpt lat="48.336094" lon="10.841227">
<ele>521.663</ele>
<time>2022-05-25T10:47:30Z</time>
</trkpt>
<trkpt lat="48.336102" lon="10.841301">
<ele>521.663</ele>
<time>2022-05-25T10:47:31Z</time>
</trkpt>
<trkpt lat="48.336109" lon="10.841382">
<ele>521.663</ele>
<time>2022-05-25T10:47:32Z</time>
</trkpt>
<trkpt lat="48.336117" lon="10.841456">
<ele>521.663</ele>
<time>2022-05-25T10:47:33Z</time>
</trkpt>
<trkpt lat="48.336117" lon="10.841536">
<ele>521.455</ele>
<time>2022-05-25T10:47:34Z</time>
</trkpt>
<trkpt lat="48.336124" lon="10.841613">
<ele>521.278</ele>
<time>2022-05-25T10:47:35Z</time>
</trkpt>
<trkpt lat="48.336132" lon="10.84169">
<ele>521.131</ele>
<time>2022-05-25T10:47:36Z</time>
</trkpt>
<trkpt lat="48.336143" lon="10.841772">
<ele>521.011</ele>
<time>2022-05-25T10:47:37Z</time>
</trkpt>
<trkpt lat="48.336147" lon="10.841846">
<ele>520.921</ele>
<time>2022-05-25T10:47:38Z</time>
</trkpt>
<trkpt lat="48.336155" lon="10.841921">
<ele>520.856</ele>
<time>2022-05-25T10:47:39Z</time>
</trkpt>
<trkpt lat="48.336155" lon="10.841996">
<ele>520.815</ele>
<time>2022-05-25T10:47:40Z</time>
</trkpt>
<trkpt lat="48.336159" lon="10.842072">
<ele>520.795</ele>
<time>2022-05-25T10:47:41Z</time>
</trkpt>
<trkpt lat="48.336166" lon="10.842145">
<ele>520.795</ele>
<time>2022-05-25T10:47:42Z</time>
</trkpt>
<trkpt lat="48.33617" lon="10.842216">
<ele>520.795</ele>
<time>2022-05-25T10:47:43Z</time>
</trkpt>
<trkpt lat="48.336174" lon="10.842294">
<ele>520.795</ele>
<time>2022-05-25T10:47:44Z</time>
</trkpt>
<trkpt lat="48.336178" lon="10.842375">
<ele>520.795</ele>
<time>2022-05-25T10:47:45Z</time>
</trkpt>
<trkpt lat="48.336182" lon="10.842457">
<ele>520.795</ele>
<time>2022-05-25T10:47:46Z</time>
</trkpt>
<trkpt lat="48.336185" lon="10.842533">
<ele>520.795</ele>
<time>2022-05-25T10:47:47Z</time>
</trkpt>
<trkpt lat="48.336189" lon="10.842602">
<ele>520.795</ele>
<time>2022-05-25T10:47:48Z</time>
</trkpt>
<trkpt lat="48.336193" lon="10.842671">
<ele>520.795</ele>
<time>2022-05-25T10:47:49Z</time>
</trkpt>
<trkpt lat="48.336201" lon="10.842744">
<ele>520.795</ele>
<time>2022-05-25T10:47:50Z</time>
</trkpt>
<trkpt lat="48.336205" lon="10.842812">
<ele>520.795</ele>
<time>2022-05-25T10:47:51Z</time>
</trkpt>
<trkpt lat="48.336212" lon="10.842876">
<ele>520.795</ele>
<time>2022-05-25T10:47:52Z</time>
</trkpt>
<trkpt lat="48.336212" lon="10.842943">
<ele>520.795</ele>
<time>2022-05-25T10:47:53Z</time>
</trkpt>
<trkpt lat="48.336216" lon="10.843013">
<ele>520.795</ele>
<time>2022-05-25T10:47:54Z</time>
</trkpt>
<trkpt lat="48.336224" lon="10.843083">
<ele>520.795</ele>
<time>2022-05-25T10:47:55Z</time>
</trkpt>
<trkpt lat="48.336231" lon="10.843155">
<ele>520.795</ele>
<time>2022-05-25T10:47:56Z</time>
</trkpt>
<trkpt lat="48.336239" lon="10.843224">
<ele>520.795</ele>
<time>2022-05-25T10:47:57Z</time>
</trkpt>
<trkpt lat="48.336243" lon="10.843291">
<ele>520.795</ele>
<time>2022-05-25T10:47:58Z</time>
</trkpt>
<trkpt lat="48.336246" lon="10.843367">
<ele>520.795</ele>
<time>2022-05-25T10:47:59Z</time>
</trkpt>
<trkpt lat="48.33625" lon="10.843438">
<ele>520.795</ele>
<time>2022-05-25T10:48:00Z</time>
</trkpt>
<trkpt lat="48.336254" lon="10.843512">
<ele>520.795</ele>
<time>2022-05-25T10:48:01Z</time>
</trkpt>
<trkpt lat="48.336258" lon="10.843585">
<ele>520.795</ele>
<time>2022-05-25T10:48:02Z</time>
</trkpt>
<trkpt lat="48.336269" lon="10.843657">
<ele>520.795</ele>
<time>2022-05-25T10:48:03Z</time>
</trkpt>
<trkpt lat="48.336277" lon="10.843739">
<ele>520.795</ele>
<time>2022-05-25T10:48:04Z</time>
</trkpt>
<trkpt lat="48.336277" lon="10.843823">
<ele>520.795</ele>
<time>2022-05-25T10:48:05Z</time>
</trkpt>
<trkpt lat="48.336285" lon="10.843906">
<ele>520.795</ele>
<time>2022-05-25T10:48:06Z</time>
</trkpt>
<trkpt lat="48.336288" lon="10.843993">
<ele>520.794</ele>
<time>2022-05-25T10:48:07Z</time>
</trkpt>
<trkpt lat="48.336296" lon="10.844072">
<ele>520.795</ele>
<time>2022-05-25T10:48:08Z</time>
</trkpt>
<trkpt lat="48.336304" lon="10.844148">
<ele>520.795</ele>
<time>2022-05-25T10:48:09Z</time>
</trkpt>
<trkpt lat="48.336311" lon="10.844221">
<ele>520.795</ele>
<time>2022-05-25T10:48:10Z</time>
</trkpt>
<trkpt lat="48.336311" lon="10.844296">
<ele>520.56</ele>
<time>2022-05-25T10:48:11Z</time>
</trkpt>
<trkpt lat="48.336319" lon="10.844372">
<ele>520.377</ele>
<time>2022-05-25T10:48:12Z</time>
</trkpt>
<trkpt lat="48.336323" lon="10.844448">
<ele>520.248</ele>
<time>2022-05-25T10:48:13Z</time>
</trkpt>
<trkpt lat="48.33633" lon="10.844525">
<ele>520.107</ele>
<time>2022-05-25T10:48:14Z</time>
</trkpt>
<trkpt lat="48.336334" lon="10.844599">
<ele>519.998</ele>
<time>2022-05-25T10:48:15Z</time>
</trkpt>
<trkpt lat="48.336342" lon="10.844675">
<ele>519.915</ele>
<time>2022-05-25T10:48:16Z</time>
</trkpt>
<trkpt lat="48.336342" lon="10.844751">
<ele>519.864</ele>
<time>2022-05-25T10:48:17Z</time>
</trkpt>
<trkpt lat="48.336346" lon="10.844825">
<ele>519.839</ele>
<time>2022-05-25T10:48:18Z</time>
</trkpt>
<trkpt lat="48.336349" lon="10.844904">
<ele>519.84</ele>
<time>2022-05-25T10:48:19Z</time>
</trkpt>
<trkpt lat="48.336357" lon="10.844982">
<ele>519.84</ele>
<time>2022-05-25T10:48:20Z</time>
</trkpt>
<trkpt lat="48.336365" lon="10.845063">
<ele>519.84</ele>
<time>2022-05-25T10:48:21Z</time>
</trkpt>
<trkpt lat="48.336372" lon="10.845141">
<ele>519.839</ele>
<time>2022-05-25T10:48:22Z</time>
</trkpt>
<trkpt lat="48.336376" lon="10.845219">
<ele>519.84</ele>
<time>2022-05-25T10:48:23Z</time>
</trkpt>
<trkpt lat="48.336376" lon="10.845292">
<ele>519.84</ele>
<time>2022-05-25T10:48:24Z</time>
</trkpt>
<trkpt lat="48.336384" lon="10.84536">
<ele>519.84</ele>
<time>2022-05-25T10:48:25Z</time>
</trkpt>
<trkpt lat="48.336391" lon="10.845435">
<ele>519.839</ele>
<time>2022-05-25T10:48:26Z</time>
</trkpt>
<trkpt lat="48.336395" lon="10.84551">
<ele>519.84</ele>
<time>2022-05-25T10:48:27Z</time>
</trkpt>
<trkpt lat="48.336395" lon="10.845585">
<ele>519.84</ele>
<time>2022-05-25T10:48:28Z</time>
</trkpt>
<trkpt lat="48.336403" lon="10.845654">
<ele>519.839</ele>
<time>2022-05-25T10:48:29Z</time>
</trkpt>
<trkpt lat="48.336403" lon="10.845728">
<ele>519.839</ele>
<time>2022-05-25T10:48:30Z</time>
</trkpt>
<trkpt lat="48.336411" lon="10.845801">
<ele>519.84</ele>
<time>2022-05-25T10:48:31Z</time>
</trkpt>
<trkpt lat="48.336411" lon="10.845875">
<ele>519.839</ele>
<time>2022-05-25T10:48:32Z</time>
</trkpt>
<trkpt lat="48.336411" lon="10.845948">
<ele>519.84</ele>
<time>2022-05-25T10:48:33Z</time>
</trkpt>
<trkpt lat="48.336414" lon="10.846024">
<ele>519.839</ele>
<time>2022-05-25T10:48:34Z</time>
</trkpt>
<trkpt lat="48.336418" lon="10.846103">
<ele>519.839</ele>
<time>2022-05-25T10:48:35Z</time>
</trkpt>
<trkpt lat="48.336426" lon="10.846182">
<ele>519.84</ele>
<time>2022-05-25T10:48:36Z</time>
</trkpt>
<trkpt lat="48.336433" lon="10.846258">
<ele>519.84</ele>
<time>2022-05-25T10:48:37Z</time>
</trkpt>
<trkpt lat="48.336441" lon="10.846334">
<ele>519.84</ele>
<time>2022-05-25T10:48:38Z</time>
</trkpt>
<trkpt lat="48.336449" lon="10.846409">
<ele>519.84</ele>
<time>2022-05-25T10:48:39Z</time>
</trkpt>
<trkpt lat="48.336456" lon="10.84648">
<ele>519.84</ele>
<time>2022-05-25T10:48:40Z</time>
</trkpt>
<trkpt lat="48.336464" lon="10.846557">
<ele>519.839</ele>
<time>2022-05-25T10:48:41Z</time>
</trkpt>
<trkpt lat="48.336472" lon="10.846628">
<ele>519.84</ele>
<time>2022-05-25T10:48:42Z</time>
</trkpt>
<trkpt lat="48.336475" lon="10.846705">
<ele>519.84</ele>
<time>2022-05-25T10:48:43Z</time>
</trkpt>
<trkpt lat="48.336487" lon="10.846777">
<ele>519.84</ele>
<time>2022-05-25T10:48:44Z</time>
</trkpt>
<trkpt lat="48.336498" lon="10.846848">
<ele>519.839</ele>
<time>2022-05-25T10:48:45Z</time>
</trkpt>
<trkpt lat="48.336502" lon="10.846925">
<ele>519.84</ele>
<time>2022-05-25T10:48:46Z</time>
</trkpt>
<trkpt lat="48.336506" lon="10.846998">
<ele>519.84</ele>
<time>2022-05-25T10:48:47Z</time>
</trkpt>
<trkpt lat="48.336514" lon="10.847071">
<ele>519.84</ele>
<time>2022-05-25T10:48:48Z</time>
</trkpt>
<trkpt lat="48.336517" lon="10.847141">
<ele>519.84</ele>
<time>2022-05-25T10:48:49Z</time>
</trkpt>
<trkpt lat="48.336521" lon="10.847219">
<ele>519.84</ele>
<time>2022-05-25T10:48:50Z</time>
</trkpt>
<trkpt lat="48.336529" lon="10.84729">
<ele>519.84</ele>
<time>2022-05-25T10:48:51Z</time>
</trkpt>
<trkpt lat="48.336536" lon="10.847366">
<ele>519.84</ele>
<time>2022-05-25T10:48:52Z</time>
</trkpt>
<trkpt lat="48.33654" lon="10.847448">
<ele>519.839</ele>
<time>2022-05-25T10:48:53Z</time>
</trkpt>
<trkpt lat="48.33654" lon="10.847538">
<ele>519.839</ele>
<time>2022-05-25T10:48:54Z</time>
</trkpt>
<trkpt lat="48.33654" lon="10.847618">
<ele>519.84</ele>
<time>2022-05-25T10:48:55Z</time>
</trkpt>
<trkpt lat="48.336544" lon="10.847699">
<ele>519.84</ele>
<time>2022-05-25T10:48:56Z</time>
</trkpt>
<trkpt lat="48.336552" lon="10.847781">
<ele>519.84</ele>
<time>2022-05-25T10:48:57Z</time>
</trkpt>
<trkpt lat="48.336555" lon="10.847865">
<ele>519.84</ele>
<time>2022-05-25T10:48:58Z</time>
</trkpt>
<trkpt lat="48.336559" lon="10.847948">
<ele>519.839</ele>
<time>2022-05-25T10:48:59Z</time>
</trkpt>
<trkpt lat="48.336563" lon="10.848041">
<ele>519.84</ele>
<time>2022-05-25T10:49:00Z</time>
</trkpt>
<trkpt lat="48.336571" lon="10.848122">
<ele>519.84</ele>
<time>2022-05-25T10:49:01Z</time>
</trkpt>
<trkpt lat="48.336575" lon="10.848207">
<ele>519.84</ele>
<time>2022-05-25T10:49:02Z</time>
</trkpt>
<trkpt lat="48.336582" lon="10.848287">
<ele>519.605</ele>
<time>2022-05-25T10:49:03Z</time>
</trkpt>
<trkpt lat="48.336594" lon="10.84837">
<ele>519.387</ele>
<time>2022-05-25T10:49:04Z</time>
</trkpt>
<trkpt lat="48.336597" lon="10.848455">
<ele>519.208</ele>
<time>2022-05-25T10:49:05Z</time>
</trkpt>
<trkpt lat="48.336601" lon="10.848539">
<ele>519.065</ele>
<time>2022-05-25T10:49:06Z</time>
</trkpt>
<trkpt lat="48.336605" lon="10.848625">
<ele>518.956</ele>
<time>2022-05-25T10:49:07Z</time>
</trkpt>
<trkpt lat="48.336609" lon="10.848711">
<ele>518.877</ele>
<time>2022-05-25T10:49:08Z</time>
</trkpt>
<trkpt lat="48.336617" lon="10.848797">
<ele>518.822</ele>
<time>2022-05-25T10:49:09Z</time>
</trkpt>
<trkpt lat="48.33662" lon="10.848879">
<ele>518.798</ele>
<time>2022-05-25T10:49:10Z</time>
</trkpt>
<trkpt lat="48.336628" lon="10.84896">
<ele>518.798</ele>
<time>2022-05-25T10:49:11Z</time>
</trkpt>
<trkpt lat="48.336632" lon="10.849038">
<ele>518.798</ele>
<time>2022-05-25T10:49:12Z</time>
</trkpt>
<trkpt lat="48.336636" lon="10.849117">
<ele>518.798</ele>
<time>2022-05-25T10:49:13Z</time>
</trkpt>
<trkpt lat="48.336636" lon="10.849196">
<ele>518.797</ele>
<time>2022-05-25T10:49:14Z</time>
</trkpt>
<trkpt lat="48.336643" lon="10.849273">
<ele>518.798</ele>
<time>2022-05-25T10:49:15Z</time>
</trkpt>
<trkpt lat="48.336643" lon="10.849352">
<ele>518.798</ele>
<time>2022-05-25T10:49:16Z</time>
</trkpt>
<trkpt lat="48.336651" lon="10.849427">
<ele>518.798</ele>
<time>2022-05-25T10:49:17Z</time>
</trkpt>
<trkpt lat="48.336655" lon="10.849504">
<ele>518.798</ele>
<time>2022-05-25T10:49:18Z</time>
</trkpt>
<trkpt lat="48.336662" lon="10.84958">
<ele>518.798</ele>
<time>2022-05-25T10:49:19Z</time>
</trkpt>
<trkpt lat="48.33667" lon="10.849653">
<ele>518.798</ele>
<time>2022-05-25T10:49:20Z</time>
</trkpt>
<trkpt lat="48.336674" lon="10.849727">
<ele>518.798</ele>
<time>2022-05-25T10:49:21Z</time>
</trkpt>
<trkpt lat="48.336681" lon="10.849802">
<ele>518.797</ele>
<time>2022-05-25T10:49:22Z</time>
</trkpt>
<trkpt lat="48.336685" lon="10.849878">
<ele>518.798</ele>
<time>2022-05-25T10:49:23Z</time>
</trkpt>
<trkpt lat="48.336689" lon="10.849952">
<ele>518.798</ele>
<time>2022-05-25T10:49:24Z</time>
</trkpt>
<trkpt lat="48.336693" lon="10.850017">
<ele>518.798</ele>
<time>2022-05-25T10:49:25Z</time>
</trkpt>
<trkpt lat="48.3367" lon="10.850079">
<ele>518.798</ele>
<time>2022-05-25T10:49:26Z</time>
</trkpt>
<trkpt lat="48.3367" lon="10.85014">
<ele>518.798</ele>
<time>2022-05-25T10:49:27Z</time>
</trkpt>
<trkpt lat="48.336704" lon="10.850199">
<ele>518.798</ele>
<time>2022-05-25T10:49:28Z</time>
</trkpt>
<trkpt lat="48.336704" lon="10.850259">
<ele>518.797</ele>
<time>2022-05-25T10:49:29Z</time>
</trkpt>
<trkpt lat="48.336708" lon="10.850327">
<ele>518.798</ele>
<time>2022-05-25T10:49:30Z</time>
</trkpt>
<trkpt lat="48.336716" lon="10.850397">
<ele>518.798</ele>
<time>2022-05-25T10:49:31Z</time>
</trkpt>
<trkpt lat="48.33672" lon="10.850469">
<ele>518.798</ele>
<time>2022-05-25T10:49:32Z</time>
</trkpt>
<trkpt lat="48.336727" lon="10.850551">
<ele>518.798</ele>
<time>2022-05-25T10:49:33Z</time>
</trkpt>
<trkpt lat="48.336731" lon="10.850634">
<ele>518.798</ele>
<time>2022-05-25T10:49:34Z</time>
</trkpt>
<trkpt lat="48.336735" lon="10.850718">
<ele>518.798</ele>
<time>2022-05-25T10:49:35Z</time>
</trkpt>
<trkpt lat="48.336739" lon="10.850797">
<ele>518.797</ele>
<time>2022-05-25T10:49:36Z</time>
</trkpt>
<trkpt lat="48.336746" lon="10.85087">
<ele>518.798</ele>
<time>2022-05-25T10:49:37Z</time>
</trkpt>
<trkpt lat="48.336754" lon="10.850942">
<ele>518.798</ele>
<time>2022-05-25T10:49:38Z</time>
</trkpt>
<trkpt lat="48.336765" lon="10.851011">
<ele>518.798</ele>
<time>2022-05-25T10:49:39Z</time>
</trkpt>
<trkpt lat="48.336769" lon="10.851078">
<ele>518.798</ele>
<time>2022-05-25T10:49:40Z</time>
</trkpt>
<trkpt lat="48.336769" lon="10.851147">
<ele>518.798</ele>
<time>2022-05-25T10:49:41Z</time>
</trkpt>
<trkpt lat="48.336773" lon="10.851214">
<ele>518.798</ele>
<time>2022-05-25T10:49:42Z</time>
</trkpt>
<trkpt lat="48.336781" lon="10.851285">
<ele>518.798</ele>
<time>2022-05-25T10:49:43Z</time>
</trkpt>
<trkpt lat="48.336784" lon="10.851357">
<ele>518.798</ele>
<time>2022-05-25T10:49:44Z</time>
</trkpt>
<trkpt lat="48.336788" lon="10.851422">
<ele>518.798</ele>
<time>2022-05-25T10:49:45Z</time>
</trkpt>
<trkpt lat="48.336796" lon="10.851492">
<ele>518.798</ele>
<time>2022-05-25T10:49:46Z</time>
</trkpt>
<trkpt lat="48.3368" lon="10.851559">
<ele>518.798</ele>
<time>2022-05-25T10:49:47Z</time>
</trkpt>
<trkpt lat="48.336803" lon="10.851633">
<ele>518.798</ele>
<time>2022-05-25T10:49:48Z</time>
</trkpt>
<trkpt lat="48.336811" lon="10.851703">
<ele>518.798</ele>
<time>2022-05-25T10:49:49Z</time>
</trkpt>
<trkpt lat="48.336815" lon="10.851774">
<ele>518.798</ele>
<time>2022-05-25T10:49:50Z</time>
</trkpt>
<trkpt lat="48.336823" lon="10.85185">
<ele>518.798</ele>
<time>2022-05-25T10:49:51Z</time>
</trkpt>
<trkpt lat="48.33683" lon="10.851923">
<ele>518.798</ele>
<time>2022-05-25T10:49:52Z</time>
</trkpt>
<trkpt lat="48.336834" lon="10.851995">
<ele>518.798</ele>
<time>2022-05-25T10:49:53Z</time>
</trkpt>
<trkpt lat="48.336838" lon="10.852065">
<ele>518.798</ele>
<time>2022-05-25T10:49:54Z</time>
</trkpt>
<trkpt lat="48.336845" lon="10.852137">
<ele>518.798</ele>
<time>2022-05-25T10:49:55Z</time>
</trkpt>
<trkpt lat="48.336849" lon="10.852203">
<ele>518.798</ele>
<time>2022-05-25T10:49:56Z</time>
</trkpt>
<trkpt lat="48.336853" lon="10.852275">
<ele>518.798</ele>
<time>2022-05-25T10:49:57Z</time>
</trkpt>
<trkpt lat="48.336857" lon="10.852342">
<ele>518.798</ele>
<time>2022-05-25T10:49:58Z</time>
</trkpt>
<trkpt lat="48.336861" lon="10.852411">
<ele>518.798</ele>
<time>2022-05-25T10:49:59Z</time>
</trkpt>
<trkpt lat="48.336864" lon="10.85248">
<ele>518.798</ele>
<time>2022-05-25T10:50:00Z</time>
</trkpt>
<trkpt lat="48.336868" lon="10.852547">
<ele>518.798</ele>
<time>2022-05-25T10:50:01Z</time>
</trkpt>
<trkpt lat="48.336872" lon="10.852613">
<ele>518.798</ele>
<time>2022-05-25T10:50:02Z</time>
</trkpt>
<trkpt lat="48.33688" lon="10.852685">
<ele>518.798</ele>
<time>2022-05-25T10:50:03Z</time>
</trkpt>
<trkpt lat="48.336884" lon="10.852758">
<ele>518.798</ele>
<time>2022-05-25T10:50:04Z</time>
</trkpt>
<trkpt lat="48.336884" lon="10.852828">
<ele>518.798</ele>
<time>2022-05-25T10:50:05Z</time>
</trkpt>
<trkpt lat="48.336891" lon="10.852897">
<ele>518.798</ele>
<time>2022-05-25T10:50:06Z</time>
</trkpt>
<trkpt lat="48.336895" lon="10.852968">
<ele>518.798</ele>
<time>2022-05-25T10:50:07Z</time>
</trkpt>
<trkpt lat="48.336899" lon="10.853042">
<ele>518.798</ele>
<time>2022-05-25T10:50:08Z</time>
</trkpt>
<trkpt lat="48.336906" lon="10.853113">
<ele>518.798</ele>
<time>2022-05-25T10:50:09Z</time>
</trkpt>
<trkpt lat="48.336914" lon="10.853182">
<ele>518.798</ele>
<time>2022-05-25T10:50:10Z</time>
</trkpt>
<trkpt lat="48.336922" lon="10.853247">
<ele>518.798</ele>
<time>2022-05-25T10:50:11Z</time>
</trkpt>
<trkpt lat="48.336926" lon="10.85331">
<ele>518.798</ele>
<time>2022-05-25T10:50:12Z</time>
</trkpt>
<trkpt lat="48.336929" lon="10.853376">
<ele>518.798</ele>
<time>2022-05-25T10:50:13Z</time>
</trkpt>
<trkpt lat="48.336937" lon="10.853436">
<ele>518.798</ele>
<time>2022-05-25T10:50:14Z</time>
</trkpt>
<trkpt lat="48.336941" lon="10.85349">
<ele>518.798</ele>
<time>2022-05-25T10:50:15Z</time>
</trkpt>
<trkpt lat="48.336945" lon="10.85355">
<ele>518.798</ele>
<time>2022-05-25T10:50:16Z</time>
</trkpt>
<trkpt lat="48.336952" lon="10.853603">
<ele>518.798</ele>
<time>2022-05-25T10:50:17Z</time>
</trkpt>
<trkpt lat="48.336952" lon="10.85366">
<ele>518.798</ele>
<time>2022-05-25T10:50:18Z</time>
</trkpt>
<trkpt lat="48.33696" lon="10.853717">
<ele>518.798</ele>
<time>2022-05-25T10:50:19Z</time>
</trkpt>
<trkpt lat="48.336967" lon="10.85377">
<ele>518.798</ele>
<time>2022-05-25T10:50:20Z</time>
</trkpt>
<trkpt lat="48.336971" lon="10.853824">
<ele>518.798</ele>
<time>2022-05-25T10:50:21Z</time>
</trkpt>
<trkpt lat="48.336975" lon="10.853873">
<ele>518.798</ele>
<time>2022-05-25T10:50:22Z</time>
</trkpt>
<trkpt lat="48.336975" lon="10.853917">
<ele>518.798</ele>
<time>2022-05-25T10:50:23Z</time>
</trkpt>
<trkpt lat="48.336975" lon="10.853959">
<ele>518.798</ele>
<time>2022-05-25T10:50:24Z</time>
</trkpt>
<trkpt lat="48.336979" lon="10.854007">
<ele>518.798</ele>
<time>2022-05-25T10:50:25Z</time>
</trkpt>
<trkpt lat="48.336983" lon="10.854053">
<ele>518.798</ele>
<time>2022-05-25T10:50:26Z</time>
</trkpt>
<trkpt lat="48.336983" lon="10.854095">
<ele>518.798</ele>
<time>2022-05-25T10:50:27Z</time>
</trkpt>
<trkpt lat="48.336979" lon="10.854136">
<ele>518.797</ele>
<time>2022-05-25T10:50:28Z</time>
</trkpt>
<trkpt lat="48.336975" lon="10.854172">
<ele>518.798</ele>
<time>2022-05-25T10:50:29Z</time>
</trkpt>
<trkpt lat="48.336975" lon="10.854217">
<ele>518.798</ele>
<time>2022-05-25T10:50:30Z</time>
</trkpt>
<trkpt lat="48.336975" lon="10.854274">
<ele>518.798</ele>
<time>2022-05-25T10:50:31Z</time>
</trkpt>
<trkpt lat="48.336979" lon="10.854326">
<ele>518.798</ele>
<time>2022-05-25T10:50:32Z</time>
</trkpt>
<trkpt lat="48.336987" lon="10.854386">
<ele>518.798</ele>
<time>2022-05-25T10:50:33Z</time>
</trkpt>
<trkpt lat="48.336994" lon="10.854447">
<ele>518.798</ele>
<time>2022-05-25T10:50:34Z</time>
</trkpt>
<trkpt lat="48.336994" lon="10.854498">
<ele>518.798</ele>
<time>2022-05-25T10:50:35Z</time>
</trkpt>
<trkpt lat="48.336998" lon="10.85455">
<ele>519.096</ele>
<time>2022-05-25T10:50:36Z</time>
</trkpt>
<trkpt lat="48.337002" lon="10.854598">
<ele>519.306</ele>
<time>2022-05-25T10:50:37Z</time>
</trkpt>
<trkpt lat="48.337006" lon="10.854649">
<ele>519.457</ele>
<time>2022-05-25T10:50:38Z</time>
</trkpt>
<trkpt lat="48.337009" lon="10.8547">
<ele>519.566</ele>
<time>2022-05-25T10:50:39Z</time>
</trkpt>
<trkpt lat="48.337013" lon="10.854745">
<ele>519.644</ele>
<time>2022-05-25T10:50:40Z</time>
</trkpt>
<trkpt lat="48.337017" lon="10.854785">
<ele>519.7</ele>
<time>2022-05-25T10:50:41Z</time>
</trkpt>
<trkpt lat="48.337009" lon="10.854816">
<ele>519.726</ele>
<time>2022-05-25T10:50:42Z</time>
</trkpt>
<trkpt lat="48.337006" lon="10.854839">
<ele>519.752</ele>
<time>2022-05-25T10:50:43Z</time>
</trkpt>
<trkpt lat="48.337002" lon="10.854856">
<ele>519.753</ele>
<time>2022-05-25T10:50:44Z</time>
</trkpt>
<trkpt lat="48.337002" lon="10.854863">
<ele>520.003</ele>
<time>2022-05-25T10:50:45Z</time>
</trkpt>
<trkpt lat="48.336998" lon="10.854873">
<ele>520.207</ele>
<time>2022-05-25T10:50:46Z</time>
</trkpt>
<trkpt lat="48.336994" lon="10.854879">
<ele>520.37</ele>
<time>2022-05-25T10:50:47Z</time>
</trkpt>
<trkpt lat="48.336987" lon="10.854885">
<ele>520.518</ele>
<time>2022-05-25T10:50:55Z</time>
</trkpt>
<trkpt lat="48.336983" lon="10.854877">
<ele>520.652</ele>
<time>2022-05-25T10:50:56Z</time>
</trkpt>
<trkpt lat="48.336979" lon="10.854875">
<ele>520.743</ele>
<time>2022-05-25T10:50:57Z</time>
</trkpt>
<trkpt lat="48.336979" lon="10.854872">
<ele>520.795</ele>
<time>2022-05-25T10:50:58Z</time>
</trkpt>
<trkpt lat="48.33696" lon="10.854839">
<ele>520.795</ele>
<time>2022-05-25T10:51:08Z</time>
</trkpt>
<trkpt lat="48.336948" lon="10.854829">
<ele>520.795</ele>
<time>2022-05-25T10:51:09Z</time>
</trkpt>
<trkpt lat="48.336937" lon="10.854818">
<ele>520.795</ele>
<time>2022-05-25T10:51:11Z</time>
</trkpt>
<trkpt lat="48.336895" lon="10.854792">
<ele>520.795</ele>
<time>2022-05-25T10:51:12Z</time>
</trkpt>
<trkpt lat="48.336864" lon="10.85477">
<ele>520.795</ele>
<time>2022-05-25T10:51:13Z</time>
</trkpt>
<trkpt lat="48.33683" lon="10.85474">
<ele>520.795</ele>
<time>2022-05-25T10:51:14Z</time>
</trkpt>
<trkpt lat="48.336796" lon="10.85471">
<ele>520.407</ele>
<time>2022-05-25T10:51:15Z</time>
</trkpt>
<trkpt lat="48.336765" lon="10.854678">
<ele>520.194</ele>
<time>2022-05-25T10:51:16Z</time>
</trkpt>
<trkpt lat="48.336727" lon="10.854642">
<ele>520.018</ele>
<time>2022-05-25T10:51:17Z</time>
</trkpt>
<trkpt lat="48.336693" lon="10.854613">
<ele>519.613</ele>
<time>2022-05-25T10:51:18Z</time>
</trkpt>
<trkpt lat="48.336658" lon="10.854582">
<ele>519.383</ele>
<time>2022-05-25T10:51:19Z</time>
</trkpt>
<trkpt lat="48.33662" lon="10.854546">
<ele>519.142</ele>
<time>2022-05-25T10:51:20Z</time>
</trkpt>
<trkpt lat="48.336586" lon="10.854513">
<ele>518.975</ele>
<time>2022-05-25T10:51:21Z</time>
</trkpt>
<trkpt lat="48.33654" lon="10.854477">
<ele>518.852</ele>
<time>2022-05-25T10:51:22Z</time>
</trkpt>
<trkpt lat="48.336494" lon="10.85444">
<ele>518.777</ele>
<time>2022-05-25T10:51:23Z</time>
</trkpt>
<trkpt lat="48.336445" lon="10.854399">
<ele>518.731</ele>
<time>2022-05-25T10:51:24Z</time>
</trkpt>
<trkpt lat="48.336399" lon="10.854353">
<ele>518.711</ele>
<time>2022-05-25T10:51:25Z</time>
</trkpt>
<trkpt lat="48.336346" lon="10.854309">
<ele>518.711</ele>
<time>2022-05-25T10:51:26Z</time>
</trkpt>
<trkpt lat="48.336296" lon="10.854267">
<ele>518.711</ele>
<time>2022-05-25T10:51:27Z</time>
</trkpt>
<trkpt lat="48.336246" lon="10.854228">
<ele>518.711</ele>
<time>2022-05-25T10:51:28Z</time>
</trkpt>
<trkpt lat="48.336201" lon="10.854185">
<ele>518.711</ele>
<time>2022-05-25T10:51:29Z</time>
</trkpt>
<trkpt lat="48.336155" lon="10.854145">
<ele>518.711</ele>
<time>2022-05-25T10:51:30Z</time>
</trkpt>
<trkpt lat="48.336109" lon="10.854102">
<ele>518.711</ele>
<time>2022-05-25T10:51:31Z</time>
</trkpt>
<trkpt lat="48.336052" lon="10.854056">
<ele>518.711</ele>
<time>2022-05-25T10:51:32Z</time>
</trkpt>
<trkpt lat="48.336006" lon="10.854005">
<ele>518.711</ele>
<time>2022-05-25T10:51:33Z</time>
</trkpt>
<trkpt lat="48.33596" lon="10.853957">
<ele>518.711</ele>
<time>2022-05-25T10:51:34Z</time>
</trkpt>
<trkpt lat="48.335911" lon="10.853907">
<ele>518.711</ele>
<time>2022-05-25T10:51:35Z</time>
</trkpt>
<trkpt lat="48.335865" lon="10.853848">
<ele>518.711</ele>
<time>2022-05-25T10:51:36Z</time>
</trkpt>
<trkpt lat="48.335823" lon="10.853793">
<ele>518.711</ele>
<time>2022-05-25T10:51:37Z</time>
</trkpt>
<trkpt lat="48.335789" lon="10.853739">
<ele>518.711</ele>
<time>2022-05-25T10:51:38Z</time>
</trkpt>
<trkpt lat="48.335758" lon="10.85367">
<ele>518.711</ele>
<time>2022-05-25T10:51:39Z</time>
</trkpt>
<trkpt lat="48.335735" lon="10.853608">
<ele>518.711</ele>
<time>2022-05-25T10:51:40Z</time>
</trkpt>
<trkpt lat="48.335709" lon="10.853548">
<ele>518.711</ele>
<time>2022-05-25T10:51:41Z</time>
</trkpt>
<trkpt lat="48.335682" lon="10.853498">
<ele>518.711</ele>
<time>2022-05-25T10:51:42Z</time>
</trkpt>
<trkpt lat="48.335648" lon="10.853458">
<ele>518.711</ele>
<time>2022-05-25T10:51:43Z</time>
</trkpt>
<trkpt lat="48.335625" lon="10.85343">
<ele>518.951</ele>
<time>2022-05-25T10:51:44Z</time>
</trkpt>
<trkpt lat="48.335606" lon="10.853415">
<ele>519.143</ele>
<time>2022-05-25T10:51:45Z</time>
</trkpt>
<trkpt lat="48.335606" lon="10.853416">
<ele>519.284</ele>
<time>2022-05-25T10:51:46Z</time>
</trkpt>
<trkpt lat="48.335594" lon="10.853418">
<ele>519.397</ele>
<time>2022-05-25T10:51:47Z</time>
</trkpt>
<trkpt lat="48.33559" lon="10.853415">
<ele>519.481</ele>
<time>2022-05-25T10:51:48Z</time>
</trkpt>
<trkpt lat="48.33559" lon="10.853412">
<ele>519.555</ele>
<time>2022-05-25T10:51:49Z</time>
</trkpt>
<trkpt lat="48.33559" lon="10.853415">
<ele>519.624</ele>
<time>2022-05-25T10:51:50Z</time>
</trkpt>
<trkpt lat="48.335583" lon="10.853398">
<ele>519.666</ele>
<time>2022-05-25T10:52:06Z</time>
</trkpt>
<trkpt lat="48.335575" lon="10.853388">
<ele>519.928</ele>
<time>2022-05-25T10:52:07Z</time>
</trkpt>
<trkpt lat="48.335571" lon="10.85338">
<ele>520.231</ele>
<time>2022-05-25T10:52:08Z</time>
</trkpt>
<trkpt lat="48.335571" lon="10.853374">
<ele>520.565</ele>
<time>2022-05-25T10:52:09Z</time>
</trkpt>
<trkpt lat="48.335567" lon="10.853372">
<ele>520.623</ele>
<time>2022-05-25T10:52:10Z</time>
</trkpt>
<trkpt lat="48.335571" lon="10.853373">
<ele>520.781</ele>
<time>2022-05-25T10:52:11Z</time>
</trkpt>
<trkpt lat="48.33556" lon="10.853341">
<ele>520.851</ele>
<time>2022-05-25T10:52:57Z</time>
</trkpt>
<trkpt lat="48.335552" lon="10.853329">
<ele>520.995</ele>
<time>2022-05-25T10:52:58Z</time>
</trkpt>
<trkpt lat="48.335541" lon="10.85331">
<ele>521.076</ele>
<time>2022-05-25T10:52:59Z</time>
</trkpt>
<trkpt lat="48.335533" lon="10.853291">
<ele>521.18</ele>
<time>2022-05-25T10:53:00Z</time>
</trkpt>
<trkpt lat="48.335518" lon="10.853268">
<ele>521.255</ele>
<time>2022-05-25T10:53:01Z</time>
</trkpt>
<trkpt lat="48.335503" lon="10.853243">
<ele>521.295</ele>
<time>2022-05-25T10:53:02Z</time>
</trkpt>
<trkpt lat="48.335491" lon="10.853217">
<ele>521.309</ele>
<time>2022-05-25T10:53:03Z</time>
</trkpt>
<trkpt lat="48.335472" lon="10.853187">
<ele>521.314</ele>
<time>2022-05-25T10:53:04Z</time>
</trkpt>
<trkpt lat="48.335453" lon="10.853159">
<ele>521.316</ele>
<time>2022-05-25T10:53:05Z</time>
</trkpt>
<trkpt lat="48.33543" lon="10.853126">
<ele>521.316</ele>
<time>2022-05-25T10:53:06Z</time>
</trkpt>
<trkpt lat="48.335407" lon="10.85309">
<ele>521.316</ele>
<time>2022-05-25T10:53:07Z</time>
</trkpt>
<trkpt lat="48.335384" lon="10.853052">
<ele>521.316</ele>
<time>2022-05-25T10:53:08Z</time>
</trkpt>
<trkpt lat="48.335361" lon="10.853013">
<ele>521.316</ele>
<time>2022-05-25T10:53:09Z</time>
</trkpt>
<trkpt lat="48.335335" lon="10.852975">
<ele>521.316</ele>
<time>2022-05-25T10:53:10Z</time>
</trkpt>
<trkpt lat="48.335308" lon="10.852935">
<ele>521.316</ele>
<time>2022-05-25T10:53:11Z</time>
</trkpt>
<trkpt lat="48.335281" lon="10.852893">
<ele>521.316</ele>
<time>2022-05-25T10:53:12Z</time>
</trkpt>
<trkpt lat="48.335258" lon="10.852849">
<ele>521.316</ele>
<time>2022-05-25T10:53:13Z</time>
</trkpt>
<trkpt lat="48.335232" lon="10.852805">
<ele>521.316</ele>
<time>2022-05-25T10:53:14Z</time>
</trkpt>
<trkpt lat="48.335201" lon="10.852763">
<ele>521.316</ele>
<time>2022-05-25T10:53:15Z</time>
</trkpt>
<trkpt lat="48.335175" lon="10.85272">
<ele>521.316</ele>
<time>2022-05-25T10:53:16Z</time>
</trkpt>
<trkpt lat="48.335144" lon="10.852676">
<ele>521.316</ele>
<time>2022-05-25T10:53:17Z</time>
</trkpt>
<trkpt lat="48.335121" lon="10.852629">
<ele>521.316</ele>
<time>2022-05-25T10:53:18Z</time>
</trkpt>
<trkpt lat="48.335094" lon="10.85258">
<ele>521.316</ele>
<time>2022-05-25T10:53:19Z</time>
</trkpt>
<trkpt lat="48.335072" lon="10.852532">
<ele>521.316</ele>
<time>2022-05-25T10:53:20Z</time>
</trkpt>
<trkpt lat="48.335041" lon="10.852489">
<ele>521.316</ele>
<time>2022-05-25T10:53:21Z</time>
</trkpt>
<trkpt lat="48.335007" lon="10.852447">
<ele>521.316</ele>
<time>2022-05-25T10:53:22Z</time>
</trkpt>
<trkpt lat="48.33498" lon="10.852402">
<ele>521.316</ele>
<time>2022-05-25T10:53:23Z</time>
</trkpt>
<trkpt lat="48.334953" lon="10.852352">
<ele>521.316</ele>
<time>2022-05-25T10:53:24Z</time>
</trkpt>
<trkpt lat="48.33493" lon="10.852304">
<ele>521.316</ele>
<time>2022-05-25T10:53:25Z</time>
</trkpt>
<trkpt lat="48.334904" lon="10.852257">
<ele>521.316</ele>
<time>2022-05-25T10:53:26Z</time>
</trkpt>
<trkpt lat="48.334873" lon="10.85221">
<ele>521.316</ele>
<time>2022-05-25T10:53:27Z</time>
</trkpt>
<trkpt lat="48.334843" lon="10.852161">
<ele>521.316</ele>
<time>2022-05-25T10:53:28Z</time>
</trkpt>
<trkpt lat="48.334812" lon="10.852116">
<ele>521.316</ele>
<time>2022-05-25T10:53:29Z</time>
</trkpt>
<trkpt lat="48.334785" lon="10.852068">
<ele>521.316</ele>
<time>2022-05-25T10:53:30Z</time>
</trkpt>
<trkpt lat="48.334759" lon="10.852021">
<ele>521.316</ele>
<time>2022-05-25T10:53:31Z</time>
</trkpt>
<trkpt lat="48.334724" lon="10.851972">
<ele>521.316</ele>
<time>2022-05-25T10:53:32Z</time>
</trkpt>
<trkpt lat="48.334698" lon="10.851923">
<ele>521.316</ele>
<time>2022-05-25T10:53:33Z</time>
</trkpt>
<trkpt lat="48.334667" lon="10.851873">
<ele>521.316</ele>
<time>2022-05-25T10:53:34Z</time>
</trkpt>
<trkpt lat="48.334637" lon="10.851822">
<ele>521.316</ele>
<time>2022-05-25T10:53:35Z</time>
</trkpt>
<trkpt lat="48.334606" lon="10.851771">
<ele>521.316</ele>
<time>2022-05-25T10:53:36Z</time>
</trkpt>
<trkpt lat="48.334576" lon="10.851722">
<ele>521.316</ele>
<time>2022-05-25T10:53:37Z</time>
</trkpt>
<trkpt lat="48.334545" lon="10.851668">
<ele>521.532</ele>
<time>2022-05-25T10:53:38Z</time>
</trkpt>
<trkpt lat="48.334515" lon="10.851619">
<ele>521.682</ele>
<time>2022-05-25T10:53:39Z</time>
</trkpt>
<trkpt lat="48.334484" lon="10.851564">
<ele>521.833</ele>
<time>2022-05-25T10:53:40Z</time>
</trkpt>
<trkpt lat="48.334454" lon="10.851515">
<ele>521.888</ele>
<time>2022-05-25T10:53:41Z</time>
</trkpt>
<trkpt lat="48.334423" lon="10.851465">
<ele>521.739</ele>
<time>2022-05-25T10:53:42Z</time>
</trkpt>
<trkpt lat="48.334389" lon="10.851416">
<ele>521.612</ele>
<time>2022-05-25T10:53:43Z</time>
</trkpt>
<trkpt lat="48.334358" lon="10.851365">
<ele>521.504</ele>
<time>2022-05-25T10:53:44Z</time>
</trkpt>
<trkpt lat="48.334328" lon="10.851319">
<ele>521.41</ele>
<time>2022-05-25T10:53:45Z</time>
</trkpt>
<trkpt lat="48.334301" lon="10.851277">
<ele>521.328</ele>
<time>2022-05-25T10:53:46Z</time>
</trkpt>
<trkpt lat="48.334274" lon="10.851229">
<ele>521.28</ele>
<time>2022-05-25T10:53:47Z</time>
</trkpt>
<trkpt lat="48.334244" lon="10.851181">
<ele>521.251</ele>
<time>2022-05-25T10:53:48Z</time>
</trkpt>
<trkpt lat="48.334213" lon="10.851135">
<ele>521.229</ele>
<time>2022-05-25T10:53:49Z</time>
</trkpt>
<trkpt lat="48.334183" lon="10.851087">
<ele>521.229</ele>
<time>2022-05-25T10:53:50Z</time>
</trkpt>
<trkpt lat="48.334156" lon="10.851037">
<ele>521.229</ele>
<time>2022-05-25T10:53:51Z</time>
</trkpt>
<trkpt lat="48.334122" lon="10.850986">
<ele>521.229</ele>
<time>2022-05-25T10:53:52Z</time>
</trkpt>
<trkpt lat="48.334095" lon="10.850934">
<ele>521.229</ele>
<time>2022-05-25T10:53:53Z</time>
</trkpt>
<trkpt lat="48.334064" lon="10.850882">
<ele>521.229</ele>
<time>2022-05-25T10:53:54Z</time>
</trkpt>
<trkpt lat="48.334038" lon="10.850833">
<ele>521.229</ele>
<time>2022-05-25T10:53:55Z</time>
</trkpt>
<trkpt lat="48.334011" lon="10.850787">
<ele>521.495</ele>
<time>2022-05-25T10:53:56Z</time>
</trkpt>
<trkpt lat="48.333981" lon="10.850739">
<ele>521.472</ele>
<time>2022-05-25T10:53:57Z</time>
</trkpt>
<trkpt lat="48.33395" lon="10.850691">
<ele>521.452</ele>
<time>2022-05-25T10:53:58Z</time>
</trkpt>
<trkpt lat="48.333916" lon="10.850636">
<ele>521.435</ele>
<time>2022-05-25T10:53:59Z</time>
</trkpt>
<trkpt lat="48.333885" lon="10.850582">
<ele>521.417</ele>
<time>2022-05-25T10:54:00Z</time>
</trkpt>
<trkpt lat="48.333851" lon="10.850527">
<ele>521.398</ele>
<time>2022-05-25T10:54:01Z</time>
</trkpt>
<trkpt lat="48.333813" lon="10.850473">
<ele>521.377</ele>
<time>2022-05-25T10:54:02Z</time>
</trkpt>
<trkpt lat="48.333775" lon="10.85042">
<ele>521.356</ele>
<time>2022-05-25T10:54:03Z</time>
</trkpt>
<trkpt lat="48.333736" lon="10.850372">
<ele>521.337</ele>
<time>2022-05-25T10:54:04Z</time>
</trkpt>
<trkpt lat="48.333694" lon="10.850325">
<ele>521.316</ele>
<time>2022-05-25T10:54:05Z</time>
</trkpt>
<trkpt lat="48.333652" lon="10.850282">
<ele>521.316</ele>
<time>2022-05-25T10:54:06Z</time>
</trkpt>
<trkpt lat="48.333614" lon="10.850239">
<ele>521.316</ele>
<time>2022-05-25T10:54:07Z</time>
</trkpt>
<trkpt lat="48.333576" lon="10.850199">
<ele>521.316</ele>
<time>2022-05-25T10:54:08Z</time>
</trkpt>
<trkpt lat="48.333542" lon="10.850161">
<ele>521.316</ele>
<time>2022-05-25T10:54:09Z</time>
</trkpt>
<trkpt lat="48.3335" lon="10.850121">
<ele>521.316</ele>
<time>2022-05-25T10:54:10Z</time>
</trkpt>
<trkpt lat="48.333462" lon="10.850081">
<ele>521.316</ele>
<time>2022-05-25T10:54:11Z</time>
</trkpt>
<trkpt lat="48.333427" lon="10.850039">
<ele>521.316</ele>
<time>2022-05-25T10:54:12Z</time>
</trkpt>
<trkpt lat="48.333393" lon="10.849998">
<ele>521.316</ele>
<time>2022-05-25T10:54:13Z</time>
</trkpt>
<trkpt lat="48.333355" lon="10.849956">
<ele>521.316</ele>
<time>2022-05-25T10:54:14Z</time>
</trkpt>
<trkpt lat="48.333317" lon="10.849914">
<ele>521.316</ele>
<time>2022-05-25T10:54:15Z</time>
</trkpt>
<trkpt lat="48.333275" lon="10.849872">
<ele>521.316</ele>
<time>2022-05-25T10:54:16Z</time>
</trkpt>
<trkpt lat="48.333237" lon="10.849833">
<ele>521.316</ele>
<time>2022-05-25T10:54:17Z</time>
</trkpt>
<trkpt lat="48.333199" lon="10.849792">
<ele>521.316</ele>
<time>2022-05-25T10:54:18Z</time>
</trkpt>
<trkpt lat="48.33316" lon="10.849753">
<ele>521.316</ele>
<time>2022-05-25T10:54:19Z</time>
</trkpt>
<trkpt lat="48.333122" lon="10.849715">
<ele>521.316</ele>
<time>2022-05-25T10:54:20Z</time>
</trkpt>
<trkpt lat="48.333084" lon="10.849675">
<ele>521.316</ele>
<time>2022-05-25T10:54:21Z</time>
</trkpt>
<trkpt lat="48.33305" lon="10.849633">
<ele>521.316</ele>
<time>2022-05-25T10:54:22Z</time>
</trkpt>
<trkpt lat="48.333012" lon="10.849591">
<ele>521.316</ele>
<time>2022-05-25T10:54:23Z</time>
</trkpt>
<trkpt lat="48.332973" lon="10.849549">
<ele>521.316</ele>
<time>2022-05-25T10:54:24Z</time>
</trkpt>
<trkpt lat="48.332939" lon="10.849508">
<ele>521.316</ele>
<time>2022-05-25T10:54:25Z</time>
</trkpt>
<trkpt lat="48.332909" lon="10.84947">
<ele>521.316</ele>
<time>2022-05-25T10:54:26Z</time>
</trkpt>
<trkpt lat="48.33287" lon="10.849427">
<ele>521.316</ele>
<time>2022-05-25T10:54:27Z</time>
</trkpt>
<trkpt lat="48.332836" lon="10.849381">
<ele>521.316</ele>
<time>2022-05-25T10:54:28Z</time>
</trkpt>
<trkpt lat="48.332802" lon="10.849339">
<ele>521.316</ele>
<time>2022-05-25T10:54:29Z</time>
</trkpt>
<trkpt lat="48.332767" lon="10.849297">
<ele>521.316</ele>
<time>2022-05-25T10:54:30Z</time>
</trkpt>
<trkpt lat="48.332741" lon="10.849254">
<ele>521.316</ele>
<time>2022-05-25T10:54:31Z</time>
</trkpt>
<trkpt lat="48.33271" lon="10.849207">
<ele>521.316</ele>
<time>2022-05-25T10:54:32Z</time>
</trkpt>
<trkpt lat="48.332684" lon="10.849161">
<ele>521.316</ele>
<time>2022-05-25T10:54:33Z</time>
</trkpt>
<trkpt lat="48.332653" lon="10.849115">
<ele>521.316</ele>
<time>2022-05-25T10:54:34Z</time>
</trkpt>
<trkpt lat="48.332623" lon="10.849072">
<ele>521.316</ele>
<time>2022-05-25T10:54:35Z</time>
</trkpt>
<trkpt lat="48.332596" lon="10.849025">
<ele>521.316</ele>
<time>2022-05-25T10:54:36Z</time>
</trkpt>
<trkpt lat="48.332561" lon="10.84898">
<ele>521.316</ele>
<time>2022-05-25T10:54:37Z</time>
</trkpt>
<trkpt lat="48.332535" lon="10.848933">
<ele>521.316</ele>
<time>2022-05-25T10:54:38Z</time>
</trkpt>
<trkpt lat="48.332508" lon="10.848891">
<ele>521.316</ele>
<time>2022-05-25T10:54:39Z</time>
</trkpt>
<trkpt lat="48.332485" lon="10.848849">
<ele>521.316</ele>
<time>2022-05-25T10:54:40Z</time>
</trkpt>
<trkpt lat="48.332462" lon="10.848807">
<ele>521.316</ele>
<time>2022-05-25T10:54:41Z</time>
</trkpt>
<trkpt lat="48.332439" lon="10.848768">
<ele>521.316</ele>
<time>2022-05-25T10:54:42Z</time>
</trkpt>
<trkpt lat="48.332424" lon="10.848728">
<ele>521.316</ele>
<time>2022-05-25T10:54:43Z</time>
</trkpt>
<trkpt lat="48.332401" lon="10.84869">
<ele>521.316</ele>
<time>2022-05-25T10:54:44Z</time>
</trkpt>
<trkpt lat="48.332386" lon="10.848653">
<ele>521.316</ele>
<time>2022-05-25T10:54:45Z</time>
</trkpt>
<trkpt lat="48.332367" lon="10.848619">
<ele>521.316</ele>
<time>2022-05-25T10:54:46Z</time>
</trkpt>
<trkpt lat="48.332352" lon="10.848583">
<ele>521.316</ele>
<time>2022-05-25T10:54:47Z</time>
</trkpt>
<trkpt lat="48.332336" lon="10.848552">
<ele>521.316</ele>
<time>2022-05-25T10:54:48Z</time>
</trkpt>
<trkpt lat="48.332321" lon="10.848527">
<ele>521.316</ele>
<time>2022-05-25T10:54:49Z</time>
</trkpt>
<trkpt lat="48.332302" lon="10.848512">
<ele>521.316</ele>
<time>2022-05-25T10:54:50Z</time>
</trkpt>
<trkpt lat="48.332291" lon="10.848508">
<ele>521.316</ele>
<time>2022-05-25T10:54:51Z</time>
</trkpt>
<trkpt lat="48.332287" lon="10.848512">
<ele>521.316</ele>
<time>2022-05-25T10:54:52Z</time>
</trkpt>
<trkpt lat="48.332283" lon="10.848512">
<ele>521.316</ele>
<time>2022-05-25T10:54:53Z</time>
</trkpt>
<trkpt lat="48.332283" lon="10.848514">
<ele>521.316</ele>
<time>2022-05-25T10:54:54Z</time>
</trkpt>
<trkpt lat="48.332275" lon="10.848515">
<ele>521.38</ele>
<time>2022-05-25T10:55:09Z</time>
</trkpt>
<trkpt lat="48.332264" lon="10.848523">
<ele>521.379</ele>
<time>2022-05-25T10:55:10Z</time>
</trkpt>
<trkpt lat="48.332249" lon="10.848535">
<ele>521.244</ele>
<time>2022-05-25T10:55:11Z</time>
</trkpt>
<trkpt lat="48.332241" lon="10.848539">
<ele>521.114</ele>
<time>2022-05-25T10:55:12Z</time>
</trkpt>
<trkpt lat="48.332222" lon="10.848541">
<ele>521</ele>
<time>2022-05-25T10:55:34Z</time>
</trkpt>
<trkpt lat="48.332207" lon="10.848538">
<ele>520.855</ele>
<time>2022-05-25T10:55:35Z</time>
</trkpt>
<trkpt lat="48.332184" lon="10.848535">
<ele>520.822</ele>
<time>2022-05-25T10:55:36Z</time>
</trkpt>
<trkpt lat="48.332161" lon="10.848529">
<ele>520.799</ele>
<time>2022-05-25T10:55:37Z</time>
</trkpt>
<trkpt lat="48.332134" lon="10.848518">
<ele>520.808</ele>
<time>2022-05-25T10:55:38Z</time>
</trkpt>
<trkpt lat="48.332104" lon="10.848505">
<ele>520.795</ele>
<time>2022-05-25T10:55:39Z</time>
</trkpt>
<trkpt lat="48.332073" lon="10.848489">
<ele>520.795</ele>
<time>2022-05-25T10:55:40Z</time>
</trkpt>
<trkpt lat="48.332039" lon="10.848474">
<ele>520.795</ele>
<time>2022-05-25T10:55:41Z</time>
</trkpt>
<trkpt lat="48.332008" lon="10.848457">
<ele>520.795</ele>
<time>2022-05-25T10:55:42Z</time>
</trkpt>
<trkpt lat="48.33197" lon="10.848441">
<ele>520.795</ele>
<time>2022-05-25T10:55:43Z</time>
</trkpt>
<trkpt lat="48.331928" lon="10.848425">
<ele>520.795</ele>
<time>2022-05-25T10:55:44Z</time>
</trkpt>
<trkpt lat="48.331886" lon="10.848412">
<ele>521.075</ele>
<time>2022-05-25T10:55:45Z</time>
</trkpt>
<trkpt lat="48.331844" lon="10.848396">
<ele>521.295</ele>
<time>2022-05-25T10:55:46Z</time>
</trkpt>
<trkpt lat="48.331802" lon="10.848376">
<ele>521.466</ele>
<time>2022-05-25T10:55:47Z</time>
</trkpt>
<trkpt lat="48.33176" lon="10.848357">
<ele>521.597</ele>
<time>2022-05-25T10:55:48Z</time>
</trkpt>
<trkpt lat="48.331722" lon="10.848333">
<ele>521.699</ele>
<time>2022-05-25T10:55:49Z</time>
</trkpt>
<trkpt lat="48.33168" lon="10.848309">
<ele>521.768</ele>
<time>2022-05-25T10:55:50Z</time>
</trkpt>
<trkpt lat="48.331638" lon="10.848289">
<ele>521.815</ele>
<time>2022-05-25T10:55:51Z</time>
</trkpt>
<trkpt lat="48.331593" lon="10.848269">
<ele>521.837</ele>
<time>2022-05-25T10:55:52Z</time>
</trkpt>
<trkpt lat="48.331551" lon="10.848253">
<ele>521.837</ele>
<time>2022-05-25T10:55:53Z</time>
</trkpt>
<trkpt lat="48.331509" lon="10.848238">
<ele>521.837</ele>
<time>2022-05-25T10:55:54Z</time>
</trkpt>
<trkpt lat="48.331459" lon="10.848221">
<ele>521.837</ele>
<time>2022-05-25T10:55:55Z</time>
</trkpt>
<trkpt lat="48.331413" lon="10.848205">
<ele>521.837</ele>
<time>2022-05-25T10:55:56Z</time>
</trkpt>
<trkpt lat="48.331364" lon="10.848189">
<ele>521.837</ele>
<time>2022-05-25T10:55:57Z</time>
</trkpt>
<trkpt lat="48.331322" lon="10.848172">
<ele>521.837</ele>
<time>2022-05-25T10:55:58Z</time>
</trkpt>
<trkpt lat="48.331276" lon="10.848155">
<ele>521.837</ele>
<time>2022-05-25T10:55:59Z</time>
</trkpt>
<trkpt lat="48.33123" lon="10.848135">
<ele>521.837</ele>
<time>2022-05-25T10:56:00Z</time>
</trkpt>
<trkpt lat="48.331184" lon="10.848114">
<ele>521.837</ele>
<time>2022-05-25T10:56:01Z</time>
</trkpt>
<trkpt lat="48.331142" lon="10.848097">
<ele>521.837</ele>
<time>2022-05-25T10:56:02Z</time>
</trkpt>
<trkpt lat="48.331097" lon="10.848083">
<ele>521.837</ele>
<time>2022-05-25T10:56:03Z</time>
</trkpt>
<trkpt lat="48.331059" lon="10.848066">
<ele>521.837</ele>
<time>2022-05-25T10:56:04Z</time>
</trkpt>
<trkpt lat="48.331013" lon="10.848051">
<ele>521.837</ele>
<time>2022-05-25T10:56:05Z</time>
</trkpt>
<trkpt lat="48.330963" lon="10.848039">
<ele>521.837</ele>
<time>2022-05-25T10:56:06Z</time>
</trkpt>
<trkpt lat="48.330925" lon="10.848023">
<ele>521.837</ele>
<time>2022-05-25T10:56:07Z</time>
</trkpt>
<trkpt lat="48.330887" lon="10.848007">
<ele>521.837</ele>
<time>2022-05-25T10:56:08Z</time>
</trkpt>
<trkpt lat="48.330841" lon="10.847992">
<ele>521.837</ele>
<time>2022-05-25T10:56:09Z</time>
</trkpt>
<trkpt lat="48.330803" lon="10.847974">
<ele>521.837</ele>
<time>2022-05-25T10:56:10Z</time>
</trkpt>
<trkpt lat="48.330761" lon="10.847957">
<ele>521.837</ele>
<time>2022-05-25T10:56:11Z</time>
</trkpt>
<trkpt lat="48.330719" lon="10.847943">
<ele>521.837</ele>
<time>2022-05-25T10:56:12Z</time>
</trkpt>
<trkpt lat="48.330673" lon="10.84793">
<ele>521.837</ele>
<time>2022-05-25T10:56:13Z</time>
</trkpt>
<trkpt lat="48.330631" lon="10.847911">
<ele>521.837</ele>
<time>2022-05-25T10:56:14Z</time>
</trkpt>
<trkpt lat="48.330589" lon="10.847898">
<ele>521.837</ele>
<time>2022-05-25T10:56:15Z</time>
</trkpt>
<trkpt lat="48.330544" lon="10.847883">
<ele>521.837</ele>
<time>2022-05-25T10:56:16Z</time>
</trkpt>
<trkpt lat="48.330502" lon="10.847873">
<ele>521.837</ele>
<time>2022-05-25T10:56:17Z</time>
</trkpt>
<trkpt lat="48.330452" lon="10.847869">
<ele>521.837</ele>
<time>2022-05-25T10:56:18Z</time>
</trkpt>
<trkpt lat="48.330406" lon="10.847858">
<ele>521.837</ele>
<time>2022-05-25T10:56:19Z</time>
</trkpt>
<trkpt lat="48.330353" lon="10.847845">
<ele>521.837</ele>
<time>2022-05-25T10:56:20Z</time>
</trkpt>
<trkpt lat="48.330311" lon="10.847836">
<ele>521.837</ele>
<time>2022-05-25T10:56:21Z</time>
</trkpt>
<trkpt lat="48.330265" lon="10.847823">
<ele>521.837</ele>
<time>2022-05-25T10:56:22Z</time>
</trkpt>
<trkpt lat="48.330215" lon="10.84781">
<ele>521.837</ele>
<time>2022-05-25T10:56:23Z</time>
</trkpt>
<trkpt lat="48.330173" lon="10.847795">
<ele>521.837</ele>
<time>2022-05-25T10:56:24Z</time>
</trkpt>
<trkpt lat="48.330132" lon="10.847781">
<ele>521.837</ele>
<time>2022-05-25T10:56:25Z</time>
</trkpt>
<trkpt lat="48.330086" lon="10.847765">
<ele>521.837</ele>
<time>2022-05-25T10:56:26Z</time>
</trkpt>
<trkpt lat="48.330036" lon="10.847752">
<ele>521.837</ele>
<time>2022-05-25T10:56:27Z</time>
</trkpt>
<trkpt lat="48.32999" lon="10.847736">
<ele>522.079</ele>
<time>2022-05-25T10:56:28Z</time>
</trkpt>
<trkpt lat="48.329941" lon="10.847718">
<ele>522.274</ele>
<time>2022-05-25T10:56:29Z</time>
</trkpt>
<trkpt lat="48.329891" lon="10.847703">
<ele>522.419</ele>
<time>2022-05-25T10:56:30Z</time>
</trkpt>
<trkpt lat="48.329849" lon="10.847689">
<ele>522.523</ele>
<time>2022-05-25T10:56:31Z</time>
</trkpt>
<trkpt lat="48.329803" lon="10.847668">
<ele>522.598</ele>
<time>2022-05-25T10:56:32Z</time>
</trkpt>
<trkpt lat="48.329758" lon="10.847653">
<ele>522.648</ele>
<time>2022-05-25T10:56:33Z</time>
</trkpt>
<trkpt lat="48.329716" lon="10.847642">
<ele>522.682</ele>
<time>2022-05-25T10:56:34Z</time>
</trkpt>
<trkpt lat="48.329674" lon="10.847629">
<ele>522.706</ele>
<time>2022-05-25T10:56:35Z</time>
</trkpt>
<trkpt lat="48.329632" lon="10.847615">
<ele>522.706</ele>
<time>2022-05-25T10:56:36Z</time>
</trkpt>
<trkpt lat="48.329594" lon="10.847603">
<ele>522.706</ele>
<time>2022-05-25T10:56:37Z</time>
</trkpt>
<trkpt lat="48.329552" lon="10.847589">
<ele>522.706</ele>
<time>2022-05-25T10:56:38Z</time>
</trkpt>
<trkpt lat="48.32951" lon="10.847565">
<ele>522.706</ele>
<time>2022-05-25T10:56:39Z</time>
</trkpt>
<trkpt lat="48.329472" lon="10.847547">
<ele>522.706</ele>
<time>2022-05-25T10:56:40Z</time>
</trkpt>
<trkpt lat="48.329433" lon="10.847529">
<ele>522.706</ele>
<time>2022-05-25T10:56:41Z</time>
</trkpt>
<trkpt lat="48.329391" lon="10.847515">
<ele>522.706</ele>
<time>2022-05-25T10:56:42Z</time>
</trkpt>
<trkpt lat="48.32935" lon="10.847502">
<ele>522.706</ele>
<time>2022-05-25T10:56:43Z</time>
</trkpt>
<trkpt lat="48.329304" lon="10.847486">
<ele>522.706</ele>
<time>2022-05-25T10:56:44Z</time>
</trkpt>
<trkpt lat="48.329262" lon="10.847465">
<ele>522.706</ele>
<time>2022-05-25T10:56:45Z</time>
</trkpt>
<trkpt lat="48.32922" lon="10.84744">
<ele>522.706</ele>
<time>2022-05-25T10:56:46Z</time>
</trkpt>
<trkpt lat="48.329174" lon="10.847419">
<ele>522.706</ele>
<time>2022-05-25T10:56:47Z</time>
</trkpt>
<trkpt lat="48.329136" lon="10.847395">
<ele>522.98</ele>
<time>2022-05-25T10:56:48Z</time>
</trkpt>
<trkpt lat="48.329094" lon="10.84737">
<ele>523.186</ele>
<time>2022-05-25T10:56:49Z</time>
</trkpt>
<trkpt lat="48.329052" lon="10.847349">
<ele>523.342</ele>
<time>2022-05-25T10:56:50Z</time>
</trkpt>
<trkpt lat="48.329014" lon="10.847326">
<ele>523.456</ele>
<time>2022-05-25T10:56:51Z</time>
</trkpt>
<trkpt lat="48.328976" lon="10.847303">
<ele>523.535</ele>
<time>2022-05-25T10:56:52Z</time>
</trkpt>
<trkpt lat="48.328934" lon="10.847276">
<ele>523.407</ele>
<time>2022-05-25T10:56:53Z</time>
</trkpt>
<trkpt lat="48.328892" lon="10.847245">
<ele>523.297</ele>
<time>2022-05-25T10:56:54Z</time>
</trkpt>
<trkpt lat="48.328854" lon="10.847215">
<ele>523.188</ele>
<time>2022-05-25T10:56:55Z</time>
</trkpt>
<trkpt lat="48.328812" lon="10.847183">
<ele>523.135</ele>
<time>2022-05-25T10:56:56Z</time>
</trkpt>
<trkpt lat="48.328773" lon="10.847157">
<ele>523.014</ele>
<time>2022-05-25T10:56:57Z</time>
</trkpt>
<trkpt lat="48.328732" lon="10.847132">
<ele>522.92</ele>
<time>2022-05-25T10:56:58Z</time>
</trkpt>
<trkpt lat="48.32869" lon="10.847108">
<ele>522.854</ele>
<time>2022-05-25T10:56:59Z</time>
</trkpt>
<trkpt lat="48.328651" lon="10.847083">
<ele>522.812</ele>
<time>2022-05-25T10:57:00Z</time>
</trkpt>
<trkpt lat="48.328606" lon="10.84706">
<ele>522.792</ele>
<time>2022-05-25T10:57:01Z</time>
</trkpt>
<trkpt lat="48.328568" lon="10.847037">
<ele>522.792</ele>
<time>2022-05-25T10:57:02Z</time>
</trkpt>
<trkpt lat="48.328529" lon="10.847013">
<ele>522.792</ele>
<time>2022-05-25T10:57:03Z</time>
</trkpt>
<trkpt lat="48.328487" lon="10.846989">
<ele>522.983</ele>
<time>2022-05-25T10:57:04Z</time>
</trkpt>
<trkpt lat="48.328445" lon="10.846967">
<ele>523.166</ele>
<time>2022-05-25T10:57:05Z</time>
</trkpt>
<trkpt lat="48.328403" lon="10.846947">
<ele>523.315</ele>
<time>2022-05-25T10:57:06Z</time>
</trkpt>
<trkpt lat="48.328358" lon="10.846922">
<ele>523.437</ele>
<time>2022-05-25T10:57:07Z</time>
</trkpt>
<trkpt lat="48.32832" lon="10.846897">
<ele>523.53</ele>
<time>2022-05-25T10:57:08Z</time>
</trkpt>
<trkpt lat="48.32827" lon="10.846873">
<ele>523.596</ele>
<time>2022-05-25T10:57:09Z</time>
</trkpt>
<trkpt lat="48.328224" lon="10.846853">
<ele>523.641</ele>
<time>2022-05-25T10:57:10Z</time>
</trkpt>
<trkpt lat="48.328182" lon="10.846829">
<ele>523.661</ele>
<time>2022-05-25T10:57:11Z</time>
</trkpt>
<trkpt lat="48.32814" lon="10.8468">
<ele>523.661</ele>
<time>2022-05-25T10:57:12Z</time>
</trkpt>
<trkpt lat="48.328094" lon="10.846773">
<ele>523.661</ele>
<time>2022-05-25T10:57:13Z</time>
</trkpt>
<trkpt lat="48.328053" lon="10.846748">
<ele>523.661</ele>
<time>2022-05-25T10:57:14Z</time>
</trkpt>
<trkpt lat="48.328007" lon="10.846725">
<ele>523.661</ele>
<time>2022-05-25T10:57:15Z</time>
</trkpt>
<trkpt lat="48.327965" lon="10.846695">
<ele>523.661</ele>
<time>2022-05-25T10:57:16Z</time>
</trkpt>
<trkpt lat="48.327919" lon="10.846664">
<ele>523.661</ele>
<time>2022-05-25T10:57:17Z</time>
</trkpt>
<trkpt lat="48.327877" lon="10.846639">
<ele>523.661</ele>
<time>2022-05-25T10:57:18Z</time>
</trkpt>
<trkpt lat="48.327835" lon="10.846614">
<ele>523.661</ele>
<time>2022-05-25T10:57:19Z</time>
</trkpt>
<trkpt lat="48.327793" lon="10.846584">
<ele>523.661</ele>
<time>2022-05-25T10:57:20Z</time>
</trkpt>
<trkpt lat="48.327751" lon="10.84656">
<ele>523.661</ele>
<time>2022-05-25T10:57:21Z</time>
</trkpt>
<trkpt lat="48.327705" lon="10.846535">
<ele>523.661</ele>
<time>2022-05-25T10:57:22Z</time>
</trkpt>
<trkpt lat="48.327663" lon="10.846514">
<ele>523.661</ele>
<time>2022-05-25T10:57:23Z</time>
</trkpt>
<trkpt lat="48.327621" lon="10.846492">
<ele>523.661</ele>
<time>2022-05-25T10:57:24Z</time>
</trkpt>
<trkpt lat="48.327583" lon="10.84647">
<ele>523.661</ele>
<time>2022-05-25T10:57:25Z</time>
</trkpt>
<trkpt lat="48.327545" lon="10.846448">
<ele>523.661</ele>
<time>2022-05-25T10:57:26Z</time>
</trkpt>
<trkpt lat="48.327507" lon="10.846428">
<ele>523.661</ele>
<time>2022-05-25T10:57:27Z</time>
</trkpt>
<trkpt lat="48.327473" lon="10.846409">
<ele>523.661</ele>
<time>2022-05-25T10:57:28Z</time>
</trkpt>
<trkpt lat="48.327427" lon="10.846388">
<ele>523.661</ele>
<time>2022-05-25T10:57:29Z</time>
</trkpt>
<trkpt lat="48.327389" lon="10.846369">
<ele>523.661</ele>
<time>2022-05-25T10:57:30Z</time>
</trkpt>
<trkpt lat="48.327347" lon="10.84635">
<ele>523.661</ele>
<time>2022-05-25T10:57:31Z</time>
</trkpt>
<trkpt lat="48.327309" lon="10.84633">
<ele>523.661</ele>
<time>2022-05-25T10:57:32Z</time>
</trkpt>
<trkpt lat="48.327267" lon="10.84631">
<ele>523.661</ele>
<time>2022-05-25T10:57:33Z</time>
</trkpt>
<trkpt lat="48.327225" lon="10.846289">
<ele>523.661</ele>
<time>2022-05-25T10:57:34Z</time>
</trkpt>
<trkpt lat="48.327183" lon="10.846269">
<ele>523.661</ele>
<time>2022-05-25T10:57:35Z</time>
</trkpt>
<trkpt lat="48.327141" lon="10.84625">
<ele>523.661</ele>
<time>2022-05-25T10:57:36Z</time>
</trkpt>
<trkpt lat="48.327099" lon="10.846233">
<ele>523.661</ele>
<time>2022-05-25T10:57:37Z</time>
</trkpt>
<trkpt lat="48.327057" lon="10.846215">
<ele>523.661</ele>
<time>2022-05-25T10:57:38Z</time>
</trkpt>
<trkpt lat="48.327019" lon="10.846191">
<ele>523.661</ele>
<time>2022-05-25T10:57:39Z</time>
</trkpt>
<trkpt lat="48.326977" lon="10.846167">
<ele>523.661</ele>
<time>2022-05-25T10:57:40Z</time>
</trkpt>
<trkpt lat="48.326935" lon="10.846142">
<ele>523.661</ele>
<time>2022-05-25T10:57:41Z</time>
</trkpt>
<trkpt lat="48.326893" lon="10.84612">
<ele>523.661</ele>
<time>2022-05-25T10:57:42Z</time>
</trkpt>
<trkpt lat="48.326855" lon="10.846098">
<ele>523.661</ele>
<time>2022-05-25T10:57:43Z</time>
</trkpt>
<trkpt lat="48.326813" lon="10.846075">
<ele>523.661</ele>
<time>2022-05-25T10:57:44Z</time>
</trkpt>
<trkpt lat="48.326771" lon="10.84605">
<ele>523.661</ele>
<time>2022-05-25T10:57:45Z</time>
</trkpt>
<trkpt lat="48.326729" lon="10.846027">
<ele>523.661</ele>
<time>2022-05-25T10:57:46Z</time>
</trkpt>
<trkpt lat="48.326691" lon="10.846004">
<ele>523.661</ele>
<time>2022-05-25T10:57:47Z</time>
</trkpt>
<trkpt lat="48.326653" lon="10.845982">
<ele>523.661</ele>
<time>2022-05-25T10:57:48Z</time>
</trkpt>
<trkpt lat="48.326614" lon="10.845957">
<ele>523.661</ele>
<time>2022-05-25T10:57:49Z</time>
</trkpt>
<trkpt lat="48.326572" lon="10.84593">
<ele>523.661</ele>
<time>2022-05-25T10:57:50Z</time>
</trkpt>
<trkpt lat="48.32653" lon="10.845905">
<ele>523.661</ele>
<time>2022-05-25T10:57:51Z</time>
</trkpt>
<trkpt lat="48.326492" lon="10.845881">
<ele>523.661</ele>
<time>2022-05-25T10:57:52Z</time>
</trkpt>
<trkpt lat="48.32645" lon="10.845857">
<ele>523.661</ele>
<time>2022-05-25T10:57:53Z</time>
</trkpt>
<trkpt lat="48.326408" lon="10.845833">
<ele>523.661</ele>
<time>2022-05-25T10:57:54Z</time>
</trkpt>
<trkpt lat="48.32637" lon="10.845807">
<ele>523.661</ele>
<time>2022-05-25T10:57:55Z</time>
</trkpt>
<trkpt lat="48.326332" lon="10.845778">
<ele>523.661</ele>
<time>2022-05-25T10:57:56Z</time>
</trkpt>
<trkpt lat="48.326294" lon="10.845752">
<ele>523.661</ele>
<time>2022-05-25T10:57:57Z</time>
</trkpt>
<trkpt lat="48.326252" lon="10.845725">
<ele>523.661</ele>
<time>2022-05-25T10:57:58Z</time>
</trkpt>
<trkpt lat="48.32621" lon="10.845698">
<ele>523.661</ele>
<time>2022-05-25T10:57:59Z</time>
</trkpt>
<trkpt lat="48.326172" lon="10.845674">
<ele>523.661</ele>
<time>2022-05-25T10:58:00Z</time>
</trkpt>
<trkpt lat="48.326134" lon="10.845646">
<ele>523.661</ele>
<time>2022-05-25T10:58:01Z</time>
</trkpt>
<trkpt lat="48.326092" lon="10.845614">
<ele>523.661</ele>
<time>2022-05-25T10:58:02Z</time>
</trkpt>
<trkpt lat="48.32605" lon="10.845583">
<ele>523.661</ele>
<time>2022-05-25T10:58:03Z</time>
</trkpt>
<trkpt lat="48.326012" lon="10.84555">
<ele>523.661</ele>
<time>2022-05-25T10:58:04Z</time>
</trkpt>
<trkpt lat="48.325974" lon="10.845518">
<ele>523.661</ele>
<time>2022-05-25T10:58:05Z</time>
</trkpt>
<trkpt lat="48.325932" lon="10.845489">
<ele>523.661</ele>
<time>2022-05-25T10:58:06Z</time>
</trkpt>
<trkpt lat="48.32589" lon="10.84546">
<ele>523.661</ele>
<time>2022-05-25T10:58:07Z</time>
</trkpt>
<trkpt lat="48.325848" lon="10.845432">
<ele>523.661</ele>
<time>2022-05-25T10:58:08Z</time>
</trkpt>
<trkpt lat="48.325809" lon="10.845403">
<ele>523.661</ele>
<time>2022-05-25T10:58:09Z</time>
</trkpt>
<trkpt lat="48.325771" lon="10.845376">
<ele>523.661</ele>
<time>2022-05-25T10:58:10Z</time>
</trkpt>
<trkpt lat="48.325733" lon="10.845352">
<ele>523.661</ele>
<time>2022-05-25T10:58:11Z</time>
</trkpt>
<trkpt lat="48.325695" lon="10.845325">
<ele>523.661</ele>
<time>2022-05-25T10:58:12Z</time>
</trkpt>
<trkpt lat="48.325657" lon="10.8453">
<ele>523.661</ele>
<time>2022-05-25T10:58:13Z</time>
</trkpt>
<trkpt lat="48.325619" lon="10.845271">
<ele>523.661</ele>
<time>2022-05-25T10:58:14Z</time>
</trkpt>
<trkpt lat="48.325584" lon="10.845242">
<ele>523.661</ele>
<time>2022-05-25T10:58:15Z</time>
</trkpt>
<trkpt lat="48.325542" lon="10.84521">
<ele>523.661</ele>
<time>2022-05-25T10:58:16Z</time>
</trkpt>
<trkpt lat="48.3255" lon="10.845183">
<ele>523.661</ele>
<time>2022-05-25T10:58:17Z</time>
</trkpt>
<trkpt lat="48.325462" lon="10.84516">
<ele>523.661</ele>
<time>2022-05-25T10:58:18Z</time>
</trkpt>
<trkpt lat="48.32542" lon="10.845139">
<ele>523.661</ele>
<time>2022-05-25T10:58:19Z</time>
</trkpt>
<trkpt lat="48.325382" lon="10.845117">
<ele>523.661</ele>
<time>2022-05-25T10:58:20Z</time>
</trkpt>
<trkpt lat="48.325344" lon="10.845093">
<ele>523.661</ele>
<time>2022-05-25T10:58:21Z</time>
</trkpt>
<trkpt lat="48.325302" lon="10.845065">
<ele>523.899</ele>
<time>2022-05-25T10:58:22Z</time>
</trkpt>
<trkpt lat="48.32526" lon="10.845034">
<ele>524.088</ele>
<time>2022-05-25T10:58:23Z</time>
</trkpt>
<trkpt lat="48.325222" lon="10.845005">
<ele>524.216</ele>
<time>2022-05-25T10:58:24Z</time>
</trkpt>
<trkpt lat="48.325184" lon="10.844984">
<ele>524.358</ele>
<time>2022-05-25T10:58:25Z</time>
</trkpt>
<trkpt lat="48.325142" lon="10.84496">
<ele>524.467</ele>
<time>2022-05-25T10:58:26Z</time>
</trkpt>
<trkpt lat="48.325108" lon="10.844936">
<ele>524.544</ele>
<time>2022-05-25T10:58:27Z</time>
</trkpt>
<trkpt lat="48.325066" lon="10.844912">
<ele>524.593</ele>
<time>2022-05-25T10:58:28Z</time>
</trkpt>
<trkpt lat="48.325031" lon="10.844883">
<ele>524.616</ele>
<time>2022-05-25T10:58:29Z</time>
</trkpt>
<trkpt lat="48.324993" lon="10.844855">
<ele>524.616</ele>
<time>2022-05-25T10:58:30Z</time>
</trkpt>
<trkpt lat="48.324955" lon="10.844825">
<ele>524.616</ele>
<time>2022-05-25T10:58:31Z</time>
</trkpt>
<trkpt lat="48.324917" lon="10.844797">
<ele>524.616</ele>
<time>2022-05-25T10:58:32Z</time>
</trkpt>
<trkpt lat="48.324879" lon="10.844769">
<ele>524.616</ele>
<time>2022-05-25T10:58:33Z</time>
</trkpt>
<trkpt lat="48.324837" lon="10.84474">
<ele>524.616</ele>
<time>2022-05-25T10:58:34Z</time>
</trkpt>
<trkpt lat="48.324802" lon="10.844716">
<ele>524.616</ele>
<time>2022-05-25T10:58:35Z</time>
</trkpt>
<trkpt lat="48.324764" lon="10.844692">
<ele>524.616</ele>
<time>2022-05-25T10:58:36Z</time>
</trkpt>
<trkpt lat="48.324722" lon="10.844667">
<ele>524.616</ele>
<time>2022-05-25T10:58:37Z</time>
</trkpt>
<trkpt lat="48.324684" lon="10.844645">
<ele>524.616</ele>
<time>2022-05-25T10:58:38Z</time>
</trkpt>
<trkpt lat="48.324642" lon="10.84462">
<ele>524.616</ele>
<time>2022-05-25T10:58:39Z</time>
</trkpt>
<trkpt lat="48.324608" lon="10.844594">
<ele>524.616</ele>
<time>2022-05-25T10:58:40Z</time>
</trkpt>
<trkpt lat="48.32457" lon="10.844568">
<ele>524.616</ele>
<time>2022-05-25T10:58:41Z</time>
</trkpt>
<trkpt lat="48.324532" lon="10.844545">
<ele>524.616</ele>
<time>2022-05-25T10:58:42Z</time>
</trkpt>
<trkpt lat="48.32449" lon="10.844525">
<ele>524.616</ele>
<time>2022-05-25T10:58:43Z</time>
</trkpt>
<trkpt lat="48.324444" lon="10.84451">
<ele>524.616</ele>
<time>2022-05-25T10:58:44Z</time>
</trkpt>
<trkpt lat="48.324402" lon="10.8445">
<ele>524.616</ele>
<time>2022-05-25T10:58:45Z</time>
</trkpt>
<trkpt lat="48.324352" lon="10.844494">
<ele>524.616</ele>
<time>2022-05-25T10:58:46Z</time>
</trkpt>
<trkpt lat="48.32431" lon="10.844492">
<ele>524.617</ele>
<time>2022-05-25T10:58:47Z</time>
</trkpt>
<trkpt lat="48.324261" lon="10.844492">
<ele>524.616</ele>
<time>2022-05-25T10:58:48Z</time>
</trkpt>
<trkpt lat="48.324215" lon="10.844496">
<ele>524.616</ele>
<time>2022-05-25T10:58:49Z</time>
</trkpt>
<trkpt lat="48.324177" lon="10.844498">
<ele>524.616</ele>
<time>2022-05-25T10:58:50Z</time>
</trkpt>
<trkpt lat="48.324135" lon="10.8445">
<ele>524.616</ele>
<time>2022-05-25T10:58:51Z</time>
</trkpt>
<trkpt lat="48.324089" lon="10.844497">
<ele>524.616</ele>
<time>2022-05-25T10:58:52Z</time>
</trkpt>
<trkpt lat="48.324051" lon="10.844496">
<ele>524.824</ele>
<time>2022-05-25T10:58:53Z</time>
</trkpt>
<trkpt lat="48.324005" lon="10.844492">
<ele>524.973</ele>
<time>2022-05-25T10:58:54Z</time>
</trkpt>
<trkpt lat="48.323959" lon="10.844487">
<ele>525.127</ele>
<time>2022-05-25T10:58:55Z</time>
</trkpt>
<trkpt lat="48.323917" lon="10.84448">
<ele>525.253</ele>
<time>2022-05-25T10:58:56Z</time>
</trkpt>
<trkpt lat="48.323875" lon="10.844475">
<ele>525.352</ele>
<time>2022-05-25T10:58:57Z</time>
</trkpt>
<trkpt lat="48.32383" lon="10.844475">
<ele>525.421</ele>
<time>2022-05-25T10:58:58Z</time>
</trkpt>
<trkpt lat="48.323792" lon="10.844475">
<ele>525.465</ele>
<time>2022-05-25T10:58:59Z</time>
</trkpt>
<trkpt lat="48.32375" lon="10.844475">
<ele>525.486</ele>
<time>2022-05-25T10:59:00Z</time>
</trkpt>
<trkpt lat="48.323708" lon="10.844473">
<ele>525.486</ele>
<time>2022-05-25T10:59:01Z</time>
</trkpt>
<trkpt lat="48.323669" lon="10.844475">
<ele>525.486</ele>
<time>2022-05-25T10:59:02Z</time>
</trkpt>
<trkpt lat="48.323631" lon="10.844477">
<ele>525.486</ele>
<time>2022-05-25T10:59:03Z</time>
</trkpt>
<trkpt lat="48.323589" lon="10.844475">
<ele>525.485</ele>
<time>2022-05-25T10:59:04Z</time>
</trkpt>
<trkpt lat="48.323547" lon="10.844477">
<ele>525.485</ele>
<time>2022-05-25T10:59:05Z</time>
</trkpt>
<trkpt lat="48.323498" lon="10.844475">
<ele>525.485</ele>
<time>2022-05-25T10:59:06Z</time>
</trkpt>
<trkpt lat="48.323452" lon="10.844473">
<ele>525.486</ele>
<time>2022-05-25T10:59:07Z</time>
</trkpt>
<trkpt lat="48.323406" lon="10.844468">
<ele>525.486</ele>
<time>2022-05-25T10:59:08Z</time>
</trkpt>
<trkpt lat="48.323364" lon="10.844472">
<ele>525.485</ele>
<time>2022-05-25T10:59:09Z</time>
</trkpt>
<trkpt lat="48.323318" lon="10.844475">
<ele>525.486</ele>
<time>2022-05-25T10:59:10Z</time>
</trkpt>
<trkpt lat="48.323277" lon="10.84448">
<ele>525.486</ele>
<time>2022-05-25T10:59:11Z</time>
</trkpt>
<trkpt lat="48.323238" lon="10.844485">
<ele>525.486</ele>
<time>2022-05-25T10:59:12Z</time>
</trkpt>
<trkpt lat="48.323193" lon="10.844488">
<ele>525.485</ele>
<time>2022-05-25T10:59:13Z</time>
</trkpt>
<trkpt lat="48.323147" lon="10.844494">
<ele>525.486</ele>
<time>2022-05-25T10:59:14Z</time>
</trkpt>
<trkpt lat="48.323105" lon="10.844496">
<ele>525.486</ele>
<time>2022-05-25T10:59:15Z</time>
</trkpt>
<trkpt lat="48.323063" lon="10.844498">
<ele>525.486</ele>
<time>2022-05-25T10:59:16Z</time>
</trkpt>
<trkpt lat="48.323025" lon="10.844503">
<ele>525.486</ele>
<time>2022-05-25T10:59:17Z</time>
</trkpt>
<trkpt lat="48.322987" lon="10.844503">
<ele>525.486</ele>
<time>2022-05-25T10:59:18Z</time>
</trkpt>
<trkpt lat="48.322956" lon="10.844494">
<ele>525.486</ele>
<time>2022-05-25T10:59:19Z</time>
</trkpt>
<trkpt lat="48.322926" lon="10.844487">
<ele>525.486</ele>
<time>2022-05-25T10:59:20Z</time>
</trkpt>
<trkpt lat="48.322903" lon="10.844472">
<ele>525.486</ele>
<time>2022-05-25T10:59:21Z</time>
</trkpt>
<trkpt lat="48.32288" lon="10.844445">
<ele>525.486</ele>
<time>2022-05-25T10:59:22Z</time>
</trkpt>
<trkpt lat="48.322868" lon="10.844419">
<ele>525.486</ele>
<time>2022-05-25T10:59:23Z</time>
</trkpt>
<trkpt lat="48.322857" lon="10.844401">
<ele>525.486</ele>
<time>2022-05-25T10:59:24Z</time>
</trkpt>
<trkpt lat="48.322845" lon="10.844392">
<ele>525.486</ele>
<time>2022-05-25T10:59:25Z</time>
</trkpt>
<trkpt lat="48.322842" lon="10.84439">
<ele>525.486</ele>
<time>2022-05-25T10:59:26Z</time>
</trkpt>
<trkpt lat="48.322838" lon="10.844392">
<ele>525.486</ele>
<time>2022-05-25T10:59:27Z</time>
</trkpt>
<trkpt lat="48.322826" lon="10.844405">
<ele>525.486</ele>
<time>2022-05-25T10:59:47Z</time>
</trkpt>
<trkpt lat="48.322823" lon="10.84441">
<ele>525.485</ele>
<time>2022-05-25T10:59:48Z</time>
</trkpt>
<trkpt lat="48.322819" lon="10.84441">
<ele>525.485</ele>
<time>2022-05-25T10:59:50Z</time>
</trkpt>
<trkpt lat="48.322815" lon="10.844428">
<ele>525.486</ele>
<time>2022-05-25T10:59:52Z</time>
</trkpt>
<trkpt lat="48.322807" lon="10.844454">
<ele>525.485</ele>
<time>2022-05-25T10:59:53Z</time>
</trkpt>
<trkpt lat="48.322796" lon="10.84447">
<ele>525.486</ele>
<time>2022-05-25T10:59:54Z</time>
</trkpt>
<trkpt lat="48.322784" lon="10.844488">
<ele>525.485</ele>
<time>2022-05-25T10:59:55Z</time>
</trkpt>
<trkpt lat="48.322769" lon="10.844503">
<ele>525.485</ele>
<time>2022-05-25T10:59:56Z</time>
</trkpt>
<trkpt lat="48.32275" lon="10.844519">
<ele>525.486</ele>
<time>2022-05-25T10:59:57Z</time>
</trkpt>
<trkpt lat="48.322727" lon="10.844531">
<ele>525.486</ele>
<time>2022-05-25T10:59:58Z</time>
</trkpt>
<trkpt lat="48.322697" lon="10.844542">
<ele>525.486</ele>
<time>2022-05-25T10:59:59Z</time>
</trkpt>
<trkpt lat="48.32267" lon="10.844553">
<ele>525.486</ele>
<time>2022-05-25T11:00:00Z</time>
</trkpt>
<trkpt lat="48.322643" lon="10.844555">
<ele>525.486</ele>
<time>2022-05-25T11:00:01Z</time>
</trkpt>
<trkpt lat="48.32262" lon="10.844548">
<ele>525.485</ele>
<time>2022-05-25T11:00:02Z</time>
</trkpt>
<trkpt lat="48.32259" lon="10.844548">
<ele>525.486</ele>
<time>2022-05-25T11:00:03Z</time>
</trkpt>
<trkpt lat="48.322559" lon="10.844548">
<ele>525.485</ele>
<time>2022-05-25T11:00:04Z</time>
</trkpt>
<trkpt lat="48.322525" lon="10.844557">
<ele>525.486</ele>
<time>2022-05-25T11:00:05Z</time>
</trkpt>
<trkpt lat="48.322491" lon="10.844569">
<ele>525.486</ele>
<time>2022-05-25T11:00:06Z</time>
</trkpt>
<trkpt lat="48.322456" lon="10.844588">
<ele>525.786</ele>
<time>2022-05-25T11:00:07Z</time>
</trkpt>
<trkpt lat="48.322422" lon="10.844606">
<ele>526.017</ele>
<time>2022-05-25T11:00:08Z</time>
</trkpt>
<trkpt lat="48.32238" lon="10.844625">
<ele>526.194</ele>
<time>2022-05-25T11:00:09Z</time>
</trkpt>
<trkpt lat="48.322342" lon="10.844638">
<ele>526.302</ele>
<time>2022-05-25T11:00:10Z</time>
</trkpt>
<trkpt lat="48.322304" lon="10.844645">
<ele>526.373</ele>
<time>2022-05-25T11:00:11Z</time>
</trkpt>
<trkpt lat="48.322273" lon="10.84465">
<ele>526.42</ele>
<time>2022-05-25T11:00:12Z</time>
</trkpt>
<trkpt lat="48.322243" lon="10.844653">
<ele>526.441</ele>
<time>2022-05-25T11:00:13Z</time>
</trkpt>
<trkpt lat="48.322216" lon="10.844657">
<ele>526.441</ele>
<time>2022-05-25T11:00:14Z</time>
</trkpt>
<trkpt lat="48.322189" lon="10.84466">
<ele>526.441</ele>
<time>2022-05-25T11:00:15Z</time>
</trkpt>
<trkpt lat="48.322155" lon="10.84466">
<ele>526.441</ele>
<time>2022-05-25T11:00:16Z</time>
</trkpt>
<trkpt lat="48.322124" lon="10.844662">
<ele>526.441</ele>
<time>2022-05-25T11:00:17Z</time>
</trkpt>
<trkpt lat="48.322094" lon="10.84466">
<ele>526.441</ele>
<time>2022-05-25T11:00:18Z</time>
</trkpt>
<trkpt lat="48.322063" lon="10.844655">
<ele>526.441</ele>
<time>2022-05-25T11:00:19Z</time>
</trkpt>
<trkpt lat="48.322037" lon="10.844651">
<ele>526.441</ele>
<time>2022-05-25T11:00:20Z</time>
</trkpt>
<trkpt lat="48.322006" lon="10.844648">
<ele>526.441</ele>
<time>2022-05-25T11:00:21Z</time>
</trkpt>
<trkpt lat="48.321976" lon="10.84465">
<ele>526.441</ele>
<time>2022-05-25T11:00:22Z</time>
</trkpt>
<trkpt lat="48.321945" lon="10.844653">
<ele>526.441</ele>
<time>2022-05-25T11:00:23Z</time>
</trkpt>
<trkpt lat="48.321915" lon="10.844662">
<ele>526.441</ele>
<time>2022-05-25T11:00:24Z</time>
</trkpt>
<trkpt lat="48.321884" lon="10.844671">
<ele>526.441</ele>
<time>2022-05-25T11:00:25Z</time>
</trkpt>
<trkpt lat="48.321857" lon="10.844682">
<ele>526.441</ele>
<time>2022-05-25T11:00:26Z</time>
</trkpt>
<trkpt lat="48.321827" lon="10.844692">
<ele>526.441</ele>
<time>2022-05-25T11:00:27Z</time>
</trkpt>
<trkpt lat="48.3218" lon="10.844702">
<ele>526.441</ele>
<time>2022-05-25T11:00:28Z</time>
</trkpt>
<trkpt lat="48.32177" lon="10.844702">
<ele>526.441</ele>
<time>2022-05-25T11:00:29Z</time>
</trkpt>
<trkpt lat="48.321739" lon="10.844692">
<ele>526.441</ele>
<time>2022-05-25T11:00:30Z</time>
</trkpt>
<trkpt lat="48.321705" lon="10.84468">
<ele>526.441</ele>
<time>2022-05-25T11:00:31Z</time>
</trkpt>
<trkpt lat="48.321674" lon="10.84467">
<ele>526.441</ele>
<time>2022-05-25T11:00:32Z</time>
</trkpt>
<trkpt lat="48.321648" lon="10.844659">
<ele>526.441</ele>
<time>2022-05-25T11:00:33Z</time>
</trkpt>
<trkpt lat="48.321617" lon="10.844638">
<ele>526.441</ele>
<time>2022-05-25T11:00:34Z</time>
</trkpt>
<trkpt lat="48.321587" lon="10.844611">
<ele>526.441</ele>
<time>2022-05-25T11:00:35Z</time>
</trkpt>
<trkpt lat="48.321552" lon="10.844585">
<ele>526.197</ele>
<time>2022-05-25T11:00:36Z</time>
</trkpt>
<trkpt lat="48.321526" lon="10.844562">
<ele>526.001</ele>
<time>2022-05-25T11:00:37Z</time>
</trkpt>
<trkpt lat="48.321487" lon="10.844537">
<ele>525.839</ele>
<time>2022-05-25T11:00:38Z</time>
</trkpt>
<trkpt lat="48.321445" lon="10.84451">
<ele>525.71</ele>
<time>2022-05-25T11:00:39Z</time>
</trkpt>
<trkpt lat="48.3214" lon="10.84448">
<ele>525.613</ele>
<time>2022-05-25T11:00:40Z</time>
</trkpt>
<trkpt lat="48.32135" lon="10.84445">
<ele>525.544</ele>
<time>2022-05-25T11:00:41Z</time>
</trkpt>
<trkpt lat="48.321301" lon="10.844419">
<ele>525.505</ele>
<time>2022-05-25T11:00:42Z</time>
</trkpt>
<trkpt lat="48.321251" lon="10.84439">
<ele>525.485</ele>
<time>2022-05-25T11:00:43Z</time>
</trkpt>
<trkpt lat="48.321213" lon="10.844359">
<ele>525.485</ele>
<time>2022-05-25T11:00:44Z</time>
</trkpt>
<trkpt lat="48.321167" lon="10.844338">
<ele>525.486</ele>
<time>2022-05-25T11:00:45Z</time>
</trkpt>
<trkpt lat="48.321129" lon="10.84432">
<ele>525.486</ele>
<time>2022-05-25T11:00:46Z</time>
</trkpt>
<trkpt lat="48.321091" lon="10.844303">
<ele>525.485</ele>
<time>2022-05-25T11:00:47Z</time>
</trkpt>
<trkpt lat="48.32106" lon="10.844287">
<ele>525.485</ele>
<time>2022-05-25T11:00:48Z</time>
</trkpt>
<trkpt lat="48.321033" lon="10.844268">
<ele>525.486</ele>
<time>2022-05-25T11:00:49Z</time>
</trkpt>
<trkpt lat="48.321007" lon="10.844253">
<ele>525.486</ele>
<time>2022-05-25T11:00:50Z</time>
</trkpt>
<trkpt lat="48.320976" lon="10.844242">
<ele>525.486</ele>
<time>2022-05-25T11:00:51Z</time>
</trkpt>
<trkpt lat="48.320946" lon="10.84423">
<ele>525.486</ele>
<time>2022-05-25T11:00:52Z</time>
</trkpt>
<trkpt lat="48.320919" lon="10.844219">
<ele>525.486</ele>
<time>2022-05-25T11:00:53Z</time>
</trkpt>
<trkpt lat="48.320885" lon="10.844212">
<ele>525.486</ele>
<time>2022-05-25T11:00:54Z</time>
</trkpt>
<trkpt lat="48.320854" lon="10.844196">
<ele>525.485</ele>
<time>2022-05-25T11:00:55Z</time>
</trkpt>
<trkpt lat="48.32082" lon="10.844182">
<ele>525.486</ele>
<time>2022-05-25T11:00:56Z</time>
</trkpt>
<trkpt lat="48.320789" lon="10.844175">
<ele>525.486</ele>
<time>2022-05-25T11:00:57Z</time>
</trkpt>
<trkpt lat="48.320751" lon="10.844178">
<ele>525.485</ele>
<time>2022-05-25T11:00:58Z</time>
</trkpt>
<trkpt lat="48.320713" lon="10.844182">
<ele>525.486</ele>
<time>2022-05-25T11:00:59Z</time>
</trkpt>
<trkpt lat="48.320679" lon="10.844178">
<ele>525.486</ele>
<time>2022-05-25T11:01:00Z</time>
</trkpt>
<trkpt lat="48.320637" lon="10.844169">
<ele>525.486</ele>
<time>2022-05-25T11:01:01Z</time>
</trkpt>
<trkpt lat="48.320602" lon="10.84416">
<ele>525.485</ele>
<time>2022-05-25T11:01:02Z</time>
</trkpt>
<trkpt lat="48.320568" lon="10.844156">
<ele>525.486</ele>
<time>2022-05-25T11:01:03Z</time>
</trkpt>
<trkpt lat="48.320534" lon="10.844153">
<ele>525.485</ele>
<time>2022-05-25T11:01:04Z</time>
</trkpt>
<trkpt lat="48.320507" lon="10.84415">
<ele>525.485</ele>
<time>2022-05-25T11:01:05Z</time>
</trkpt>
<trkpt lat="48.320477" lon="10.844147">
<ele>525.485</ele>
<time>2022-05-25T11:01:06Z</time>
</trkpt>
<trkpt lat="48.32045" lon="10.844144">
<ele>525.486</ele>
<time>2022-05-25T11:01:07Z</time>
</trkpt>
<trkpt lat="48.320415" lon="10.844133">
<ele>525.749</ele>
<time>2022-05-25T11:01:08Z</time>
</trkpt>
<trkpt lat="48.320381" lon="10.844121">
<ele>525.958</ele>
<time>2022-05-25T11:01:09Z</time>
</trkpt>
<trkpt lat="48.320347" lon="10.844113">
<ele>526.134</ele>
<time>2022-05-25T11:01:10Z</time>
</trkpt>
<trkpt lat="48.320324" lon="10.844104">
<ele>526.258</ele>
<time>2022-05-25T11:01:11Z</time>
</trkpt>
<trkpt lat="48.320305" lon="10.844083">
<ele>526.343</ele>
<time>2022-05-25T11:01:12Z</time>
</trkpt>
<trkpt lat="48.320271" lon="10.844058">
<ele>526.397</ele>
<time>2022-05-25T11:01:13Z</time>
</trkpt>
<trkpt lat="48.320244" lon="10.844033">
<ele>526.42</ele>
<time>2022-05-25T11:01:14Z</time>
</trkpt>
<trkpt lat="48.320213" lon="10.844009">
<ele>526.441</ele>
<time>2022-05-25T11:01:15Z</time>
</trkpt>
<trkpt lat="48.320183" lon="10.843988">
<ele>526.441</ele>
<time>2022-05-25T11:01:16Z</time>
</trkpt>
<trkpt lat="48.320156" lon="10.843964">
<ele>526.441</ele>
<time>2022-05-25T11:01:17Z</time>
</trkpt>
<trkpt lat="48.320126" lon="10.843935">
<ele>526.441</ele>
<time>2022-05-25T11:01:18Z</time>
</trkpt>
<trkpt lat="48.320095" lon="10.843904">
<ele>526.441</ele>
<time>2022-05-25T11:01:19Z</time>
</trkpt>
<trkpt lat="48.320065" lon="10.843873">
<ele>526.441</ele>
<time>2022-05-25T11:01:20Z</time>
</trkpt>
<trkpt lat="48.320038" lon="10.843844">
<ele>526.441</ele>
<time>2022-05-25T11:01:21Z</time>
</trkpt>
<trkpt lat="48.320011" lon="10.843815">
<ele>526.441</ele>
<time>2022-05-25T11:01:22Z</time>
</trkpt>
<trkpt lat="48.319981" lon="10.843787">
<ele>526.441</ele>
<time>2022-05-25T11:01:23Z</time>
</trkpt>
<trkpt lat="48.319958" lon="10.843759">
<ele>526.441</ele>
<time>2022-05-25T11:01:24Z</time>
</trkpt>
<trkpt lat="48.319927" lon="10.843729">
<ele>526.441</ele>
<time>2022-05-25T11:01:25Z</time>
</trkpt>
<trkpt lat="48.319893" lon="10.843698">
<ele>526.441</ele>
<time>2022-05-25T11:01:26Z</time>
</trkpt>
<trkpt lat="48.319862" lon="10.843675">
<ele>526.441</ele>
<time>2022-05-25T11:01:27Z</time>
</trkpt>
<trkpt lat="48.319836" lon="10.843658">
<ele>526.441</ele>
<time>2022-05-25T11:01:28Z</time>
</trkpt>
<trkpt lat="48.319809" lon="10.843647">
<ele>526.441</ele>
<time>2022-05-25T11:01:29Z</time>
</trkpt>
<trkpt lat="48.319782" lon="10.843632">
<ele>526.441</ele>
<time>2022-05-25T11:01:30Z</time>
</trkpt>
<trkpt lat="48.319756" lon="10.843614">
<ele>526.441</ele>
<time>2022-05-25T11:01:31Z</time>
</trkpt>
<trkpt lat="48.319733" lon="10.843595">
<ele>526.441</ele>
<time>2022-05-25T11:01:32Z</time>
</trkpt>
<trkpt lat="48.319706" lon="10.843582">
<ele>526.441</ele>
<time>2022-05-25T11:01:33Z</time>
</trkpt>
<trkpt lat="48.319683" lon="10.843568">
<ele>526.441</ele>
<time>2022-05-25T11:01:34Z</time>
</trkpt>
<trkpt lat="48.319653" lon="10.843555">
<ele>526.441</ele>
<time>2022-05-25T11:01:35Z</time>
</trkpt>
<trkpt lat="48.319618" lon="10.843538">
<ele>526.441</ele>
<time>2022-05-25T11:01:36Z</time>
</trkpt>
<trkpt lat="48.31958" lon="10.843525">
<ele>526.441</ele>
<time>2022-05-25T11:01:37Z</time>
</trkpt>
<trkpt lat="48.319546" lon="10.84351">
<ele>526.441</ele>
<time>2022-05-25T11:01:38Z</time>
</trkpt>
<trkpt lat="48.319511" lon="10.84349">
<ele>526.441</ele>
<time>2022-05-25T11:01:39Z</time>
</trkpt>
<trkpt lat="48.319481" lon="10.843472">
<ele>526.441</ele>
<time>2022-05-25T11:01:40Z</time>
</trkpt>
<trkpt lat="48.319447" lon="10.843453">
<ele>526.441</ele>
<time>2022-05-25T11:01:41Z</time>
</trkpt>
<trkpt lat="48.319412" lon="10.843438">
<ele>526.441</ele>
<time>2022-05-25T11:01:42Z</time>
</trkpt>
<trkpt lat="48.319374" lon="10.843431">
<ele>526.441</ele>
<time>2022-05-25T11:01:43Z</time>
</trkpt>
<trkpt lat="48.319336" lon="10.843417">
<ele>526.441</ele>
<time>2022-05-25T11:01:44Z</time>
</trkpt>
<trkpt lat="48.319294" lon="10.843398">
<ele>526.441</ele>
<time>2022-05-25T11:01:45Z</time>
</trkpt>
<trkpt lat="48.31926" lon="10.843383">
<ele>526.441</ele>
<time>2022-05-25T11:01:46Z</time>
</trkpt>
<trkpt lat="48.319221" lon="10.843371">
<ele>526.441</ele>
<time>2022-05-25T11:01:47Z</time>
</trkpt>
<trkpt lat="48.319183" lon="10.843358">
<ele>526.441</ele>
<time>2022-05-25T11:01:48Z</time>
</trkpt>
<trkpt lat="48.319145" lon="10.843348">
<ele>526.441</ele>
<time>2022-05-25T11:01:49Z</time>
</trkpt>
<trkpt lat="48.319107" lon="10.843339">
<ele>526.701</ele>
<time>2022-05-25T11:01:50Z</time>
</trkpt>
<trkpt lat="48.319069" lon="10.843327">
<ele>526.898</ele>
<time>2022-05-25T11:01:51Z</time>
</trkpt>
<trkpt lat="48.319031" lon="10.843312">
<ele>527.053</ele>
<time>2022-05-25T11:01:52Z</time>
</trkpt>
<trkpt lat="48.318985" lon="10.843297">
<ele>527.171</ele>
<time>2022-05-25T11:01:53Z</time>
</trkpt>
<trkpt lat="48.318939" lon="10.84328">
<ele>527.258</ele>
<time>2022-05-25T11:01:54Z</time>
</trkpt>
<trkpt lat="48.318901" lon="10.843264">
<ele>527.321</ele>
<time>2022-05-25T11:01:55Z</time>
</trkpt>
<trkpt lat="48.318851" lon="10.843248">
<ele>527.372</ele>
<time>2022-05-25T11:01:56Z</time>
</trkpt>
<trkpt lat="48.318806" lon="10.843235">
<ele>527.397</ele>
<time>2022-05-25T11:01:57Z</time>
</trkpt>
<trkpt lat="48.318764" lon="10.84323">
<ele>527.397</ele>
<time>2022-05-25T11:01:58Z</time>
</trkpt>
<trkpt lat="48.318718" lon="10.843225">
<ele>527.397</ele>
<time>2022-05-25T11:01:59Z</time>
</trkpt>
<trkpt lat="48.318672" lon="10.84322">
<ele>527.397</ele>
<time>2022-05-25T11:02:00Z</time>
</trkpt>
<trkpt lat="48.31863" lon="10.843211">
<ele>527.397</ele>
<time>2022-05-25T11:02:01Z</time>
</trkpt>
<trkpt lat="48.318584" lon="10.843205">
<ele>527.397</ele>
<time>2022-05-25T11:02:02Z</time>
</trkpt>
<trkpt lat="48.318542" lon="10.843207">
<ele>527.397</ele>
<time>2022-05-25T11:02:03Z</time>
</trkpt>
<trkpt lat="48.318501" lon="10.843205">
<ele>527.397</ele>
<time>2022-05-25T11:02:04Z</time>
</trkpt>
<trkpt lat="48.318455" lon="10.843202">
<ele>527.397</ele>
<time>2022-05-25T11:02:05Z</time>
</trkpt>
<trkpt lat="48.318413" lon="10.843199">
<ele>527.397</ele>
<time>2022-05-25T11:02:06Z</time>
</trkpt>
<trkpt lat="48.318371" lon="10.843199">
<ele>527.397</ele>
<time>2022-05-25T11:02:07Z</time>
</trkpt>
<trkpt lat="48.318329" lon="10.843201">
<ele>527.397</ele>
<time>2022-05-25T11:02:08Z</time>
</trkpt>
<trkpt lat="48.318287" lon="10.843199">
<ele>527.397</ele>
<time>2022-05-25T11:02:09Z</time>
</trkpt>
<trkpt lat="48.318245" lon="10.843199">
<ele>527.397</ele>
<time>2022-05-25T11:02:10Z</time>
</trkpt>
<trkpt lat="48.318203" lon="10.843195">
<ele>527.397</ele>
<time>2022-05-25T11:02:11Z</time>
</trkpt>
<trkpt lat="48.318161" lon="10.843186">
<ele>527.397</ele>
<time>2022-05-25T11:02:12Z</time>
</trkpt>
<trkpt lat="48.318119" lon="10.84318">
<ele>527.397</ele>
<time>2022-05-25T11:02:13Z</time>
</trkpt>
<trkpt lat="48.318077" lon="10.843176">
<ele>527.397</ele>
<time>2022-05-25T11:02:14Z</time>
</trkpt>
<trkpt lat="48.318035" lon="10.843168">
<ele>527.397</ele>
<time>2022-05-25T11:02:15Z</time>
</trkpt>
<trkpt lat="48.317993" lon="10.843162">
<ele>527.397</ele>
<time>2022-05-25T11:02:16Z</time>
</trkpt>
<trkpt lat="48.317955" lon="10.843159">
<ele>527.397</ele>
<time>2022-05-25T11:02:17Z</time>
</trkpt>
<trkpt lat="48.317917" lon="10.843155">
<ele>527.397</ele>
<time>2022-05-25T11:02:18Z</time>
</trkpt>
<trkpt lat="48.317879" lon="10.843151">
<ele>527.397</ele>
<time>2022-05-25T11:02:19Z</time>
</trkpt>
<trkpt lat="48.317844" lon="10.843146">
<ele>527.397</ele>
<time>2022-05-25T11:02:20Z</time>
</trkpt>
<trkpt lat="48.317806" lon="10.843142">
<ele>527.397</ele>
<time>2022-05-25T11:02:21Z</time>
</trkpt>
<trkpt lat="48.317768" lon="10.843132">
<ele>527.397</ele>
<time>2022-05-25T11:02:22Z</time>
</trkpt>
<trkpt lat="48.31773" lon="10.84313">
<ele>527.397</ele>
<time>2022-05-25T11:02:23Z</time>
</trkpt>
<trkpt lat="48.317696" lon="10.84313">
<ele>527.397</ele>
<time>2022-05-25T11:02:24Z</time>
</trkpt>
<trkpt lat="48.317661" lon="10.843132">
<ele>527.569</ele>
<time>2022-05-25T11:02:25Z</time>
</trkpt>
<trkpt lat="48.317619" lon="10.84313">
<ele>527.734</ele>
<time>2022-05-25T11:02:26Z</time>
</trkpt>
<trkpt lat="48.317581" lon="10.843132">
<ele>527.87</ele>
<time>2022-05-25T11:02:27Z</time>
</trkpt>
<trkpt lat="48.317543" lon="10.843127">
<ele>527.978</ele>
<time>2022-05-25T11:02:28Z</time>
</trkpt>
<trkpt lat="48.317509" lon="10.843119">
<ele>528.06</ele>
<time>2022-05-25T11:02:29Z</time>
</trkpt>
<trkpt lat="48.317471" lon="10.843113">
<ele>528.121</ele>
<time>2022-05-25T11:02:30Z</time>
</trkpt>
<trkpt lat="48.317436" lon="10.843104">
<ele>528.16</ele>
<time>2022-05-25T11:02:31Z</time>
</trkpt>
<trkpt lat="48.317402" lon="10.843094">
<ele>528.179</ele>
<time>2022-05-25T11:02:32Z</time>
</trkpt>
<trkpt lat="48.317368" lon="10.843092">
<ele>528.179</ele>
<time>2022-05-25T11:02:33Z</time>
</trkpt>
<trkpt lat="48.317329" lon="10.843086">
<ele>528.179</ele>
<time>2022-05-25T11:02:34Z</time>
</trkpt>
<trkpt lat="48.317287" lon="10.843081">
<ele>528.179</ele>
<time>2022-05-25T11:02:35Z</time>
</trkpt>
<trkpt lat="48.317245" lon="10.843077">
<ele>528.179</ele>
<time>2022-05-25T11:02:36Z</time>
</trkpt>
<trkpt lat="48.317204" lon="10.843067">
<ele>528.179</ele>
<time>2022-05-25T11:02:37Z</time>
</trkpt>
<trkpt lat="48.317158" lon="10.843055">
<ele>528.179</ele>
<time>2022-05-25T11:02:38Z</time>
</trkpt>
<trkpt lat="48.317112" lon="10.843054">
<ele>528.179</ele>
<time>2022-05-25T11:02:39Z</time>
</trkpt>
<trkpt lat="48.317074" lon="10.843048">
<ele>528.179</ele>
<time>2022-05-25T11:02:40Z</time>
</trkpt>
<trkpt lat="48.317024" lon="10.843043">
<ele>528.179</ele>
<time>2022-05-25T11:02:41Z</time>
</trkpt>
<trkpt lat="48.316975" lon="10.843054">
<ele>527.948</ele>
<time>2022-05-25T11:02:42Z</time>
</trkpt>
<trkpt lat="48.316917" lon="10.843054">
<ele>527.769</ele>
<time>2022-05-25T11:02:43Z</time>
</trkpt>
<trkpt lat="48.31686" lon="10.843054">
<ele>527.63</ele>
<time>2022-05-25T11:02:44Z</time>
</trkpt>
<trkpt lat="48.316807" lon="10.843052">
<ele>527.542</ele>
<time>2022-05-25T11:02:45Z</time>
</trkpt>
<trkpt lat="48.31675" lon="10.843043">
<ele>527.444</ele>
<time>2022-05-25T11:02:46Z</time>
</trkpt>
<trkpt lat="48.316696" lon="10.84303">
<ele>527.127</ele>
<time>2022-05-25T11:02:47Z</time>
</trkpt>
<trkpt lat="48.316647" lon="10.843017">
<ele>526.888</ele>
<time>2022-05-25T11:02:48Z</time>
</trkpt>
<trkpt lat="48.316593" lon="10.843006">
<ele>526.714</ele>
<time>2022-05-25T11:02:49Z</time>
</trkpt>
<trkpt lat="48.316544" lon="10.842996">
<ele>526.513</ele>
<time>2022-05-25T11:02:50Z</time>
</trkpt>
<trkpt lat="48.31649" lon="10.842985">
<ele>526.435</ele>
<time>2022-05-25T11:02:51Z</time>
</trkpt>
<trkpt lat="48.316448" lon="10.842975">
<ele>526.384</ele>
<time>2022-05-25T11:02:52Z</time>
</trkpt>
<trkpt lat="48.316402" lon="10.842964">
<ele>526.358</ele>
<time>2022-05-25T11:02:53Z</time>
</trkpt>
<trkpt lat="48.316357" lon="10.842956">
<ele>526.354</ele>
<time>2022-05-25T11:02:54Z</time>
</trkpt>
<trkpt lat="48.316315" lon="10.842947">
<ele>526.354</ele>
<time>2022-05-25T11:02:55Z</time>
</trkpt>
<trkpt lat="48.316269" lon="10.842941">
<ele>526.354</ele>
<time>2022-05-25T11:02:56Z</time>
</trkpt>
<trkpt lat="48.316227" lon="10.842933">
<ele>526.354</ele>
<time>2022-05-25T11:02:57Z</time>
</trkpt>
<trkpt lat="48.316185" lon="10.842925">
<ele>526.354</ele>
<time>2022-05-25T11:02:58Z</time>
</trkpt>
<trkpt lat="48.316139" lon="10.842916">
<ele>526.354</ele>
<time>2022-05-25T11:02:59Z</time>
</trkpt>
<trkpt lat="48.316097" lon="10.842907">
<ele>526.354</ele>
<time>2022-05-25T11:03:00Z</time>
</trkpt>
<trkpt lat="48.316051" lon="10.842898">
<ele>526.354</ele>
<time>2022-05-25T11:03:01Z</time>
</trkpt>
<trkpt lat="48.316002" lon="10.842894">
<ele>526.354</ele>
<time>2022-05-25T11:03:02Z</time>
</trkpt>
<trkpt lat="48.315956" lon="10.842885">
<ele>526.354</ele>
<time>2022-05-25T11:03:03Z</time>
</trkpt>
<trkpt lat="48.31591" lon="10.842875">
<ele>526.354</ele>
<time>2022-05-25T11:03:04Z</time>
</trkpt>
<trkpt lat="48.315868" lon="10.84286">
<ele>526.354</ele>
<time>2022-05-25T11:03:05Z</time>
</trkpt>
<trkpt lat="48.315823" lon="10.842849">
<ele>526.354</ele>
<time>2022-05-25T11:03:06Z</time>
</trkpt>
<trkpt lat="48.315773" lon="10.842842">
<ele>526.354</ele>
<time>2022-05-25T11:03:07Z</time>
</trkpt>
<trkpt lat="48.315731" lon="10.842828">
<ele>526.354</ele>
<time>2022-05-25T11:03:08Z</time>
</trkpt>
<trkpt lat="48.315685" lon="10.842818">
<ele>526.354</ele>
<time>2022-05-25T11:03:09Z</time>
</trkpt>
<trkpt lat="48.315643" lon="10.84281">
<ele>526.354</ele>
<time>2022-05-25T11:03:10Z</time>
</trkpt>
<trkpt lat="48.315594" lon="10.842801">
<ele>526.354</ele>
<time>2022-05-25T11:03:11Z</time>
</trkpt>
<trkpt lat="48.315548" lon="10.842793">
<ele>526.354</ele>
<time>2022-05-25T11:03:12Z</time>
</trkpt>
<trkpt lat="48.315506" lon="10.842784">
<ele>526.354</ele>
<time>2022-05-25T11:03:13Z</time>
</trkpt>
<trkpt lat="48.31546" lon="10.842772">
<ele>526.354</ele>
<time>2022-05-25T11:03:14Z</time>
</trkpt>
<trkpt lat="48.315414" lon="10.842761">
<ele>526.354</ele>
<time>2022-05-25T11:03:15Z</time>
</trkpt>
<trkpt lat="48.315376" lon="10.842755">
<ele>526.354</ele>
<time>2022-05-25T11:03:16Z</time>
</trkpt>
<trkpt lat="48.315334" lon="10.842752">
<ele>526.354</ele>
<time>2022-05-25T11:03:17Z</time>
</trkpt>
<trkpt lat="48.315292" lon="10.842747">
<ele>526.354</ele>
<time>2022-05-25T11:03:18Z</time>
</trkpt>
<trkpt lat="48.31525" lon="10.842742">
<ele>526.354</ele>
<time>2022-05-25T11:03:19Z</time>
</trkpt>
<trkpt lat="48.315216" lon="10.84273">
<ele>526.354</ele>
<time>2022-05-25T11:03:20Z</time>
</trkpt>
<trkpt lat="48.315174" lon="10.842717">
<ele>526.354</ele>
<time>2022-05-25T11:03:21Z</time>
</trkpt>
<trkpt lat="48.315132" lon="10.842707">
<ele>526.354</ele>
<time>2022-05-25T11:03:22Z</time>
</trkpt>
<trkpt lat="48.31509" lon="10.842698">
<ele>526.354</ele>
<time>2022-05-25T11:03:23Z</time>
</trkpt>
<trkpt lat="48.315048" lon="10.842695">
<ele>526.354</ele>
<time>2022-05-25T11:03:24Z</time>
</trkpt>
<trkpt lat="48.315006" lon="10.84269">
<ele>526.354</ele>
<time>2022-05-25T11:03:25Z</time>
</trkpt>
<trkpt lat="48.314972" lon="10.842682">
<ele>526.354</ele>
<time>2022-05-25T11:03:26Z</time>
</trkpt>
<trkpt lat="48.314953" lon="10.842677">
<ele>526.354</ele>
<time>2022-05-25T11:03:27Z</time>
</trkpt>
<trkpt lat="48.314934" lon="10.842673">
<ele>526.354</ele>
<time>2022-05-25T11:03:28Z</time>
</trkpt>
<trkpt lat="48.314919" lon="10.842673">
<ele>526.354</ele>
<time>2022-05-25T11:03:29Z</time>
</trkpt>
<trkpt lat="48.314903" lon="10.842679">
<ele>526.354</ele>
<time>2022-05-25T11:03:30Z</time>
</trkpt>
<trkpt lat="48.314892" lon="10.842695">
<ele>526.354</ele>
<time>2022-05-25T11:03:31Z</time>
</trkpt>
<trkpt lat="48.314884" lon="10.842725">
<ele>526.354</ele>
<time>2022-05-25T11:03:32Z</time>
</trkpt>
<trkpt lat="48.314884" lon="10.842767">
<ele>526.354</ele>
<time>2022-05-25T11:03:33Z</time>
</trkpt>
<trkpt lat="48.314892" lon="10.842812">
<ele>526.354</ele>
<time>2022-05-25T11:03:34Z</time>
</trkpt>
<trkpt lat="48.314896" lon="10.842858">
<ele>526.354</ele>
<time>2022-05-25T11:03:35Z</time>
</trkpt>
<trkpt lat="48.314899" lon="10.84291">
<ele>526.636</ele>
<time>2022-05-25T11:03:36Z</time>
</trkpt>
<trkpt lat="48.314903" lon="10.842964">
<ele>526.855</ele>
<time>2022-05-25T11:03:37Z</time>
</trkpt>
<trkpt lat="48.314907" lon="10.843013">
<ele>527.01</ele>
<time>2022-05-25T11:03:38Z</time>
</trkpt>
<trkpt lat="48.314911" lon="10.843065">
<ele>527.119</ele>
<time>2022-05-25T11:03:39Z</time>
</trkpt>
<trkpt lat="48.314919" lon="10.843117">
<ele>527.194</ele>
<time>2022-05-25T11:03:40Z</time>
</trkpt>
<trkpt lat="48.314922" lon="10.843172">
<ele>527.249</ele>
<time>2022-05-25T11:03:41Z</time>
</trkpt>
<trkpt lat="48.314926" lon="10.843222">
<ele>527.29</ele>
<time>2022-05-25T11:03:42Z</time>
</trkpt>
<trkpt lat="48.31493" lon="10.843278">
<ele>527.31</ele>
<time>2022-05-25T11:03:43Z</time>
</trkpt>
<trkpt lat="48.314938" lon="10.843331">
<ele>527.31</ele>
<time>2022-05-25T11:03:44Z</time>
</trkpt>
<trkpt lat="48.314941" lon="10.84339">
<ele>527.31</ele>
<time>2022-05-25T11:03:45Z</time>
</trkpt>
<trkpt lat="48.314945" lon="10.843447">
<ele>527.31</ele>
<time>2022-05-25T11:03:46Z</time>
</trkpt>
<trkpt lat="48.314953" lon="10.843505">
<ele>527.31</ele>
<time>2022-05-25T11:03:47Z</time>
</trkpt>
<trkpt lat="48.314957" lon="10.843567">
<ele>527.31</ele>
<time>2022-05-25T11:03:48Z</time>
</trkpt>
<trkpt lat="48.31496" lon="10.843626">
<ele>527.31</ele>
<time>2022-05-25T11:03:49Z</time>
</trkpt>
<trkpt lat="48.314968" lon="10.84369">
<ele>527.31</ele>
<time>2022-05-25T11:03:50Z</time>
</trkpt>
<trkpt lat="48.314968" lon="10.843752">
<ele>527.31</ele>
<time>2022-05-25T11:03:51Z</time>
</trkpt>
<trkpt lat="48.314972" lon="10.843817">
<ele>527.31</ele>
<time>2022-05-25T11:03:52Z</time>
</trkpt>
<trkpt lat="48.314972" lon="10.843878">
<ele>527.31</ele>
<time>2022-05-25T11:03:53Z</time>
</trkpt>
<trkpt lat="48.31498" lon="10.843942">
<ele>527.31</ele>
<time>2022-05-25T11:03:54Z</time>
</trkpt>
<trkpt lat="48.314987" lon="10.844009">
<ele>527.31</ele>
<time>2022-05-25T11:03:55Z</time>
</trkpt>
<trkpt lat="48.314991" lon="10.844077">
<ele>527.31</ele>
<time>2022-05-25T11:03:56Z</time>
</trkpt>
<trkpt lat="48.314995" lon="10.844146">
<ele>527.31</ele>
<time>2022-05-25T11:03:57Z</time>
</trkpt>
<trkpt lat="48.315002" lon="10.844212">
<ele>527.31</ele>
<time>2022-05-25T11:03:58Z</time>
</trkpt>
<trkpt lat="48.315006" lon="10.844275">
<ele>527.31</ele>
<time>2022-05-25T11:03:59Z</time>
</trkpt>
<trkpt lat="48.315006" lon="10.844334">
<ele>527.31</ele>
<time>2022-05-25T11:04:00Z</time>
</trkpt>
<trkpt lat="48.31501" lon="10.844392">
<ele>527.31</ele>
<time>2022-05-25T11:04:01Z</time>
</trkpt>
<trkpt lat="48.315018" lon="10.844452">
<ele>527.31</ele>
<time>2022-05-25T11:04:02Z</time>
</trkpt>
<trkpt lat="48.315022" lon="10.844508">
<ele>527.31</ele>
<time>2022-05-25T11:04:03Z</time>
</trkpt>
<trkpt lat="48.315025" lon="10.844561">
<ele>527.31</ele>
<time>2022-05-25T11:04:04Z</time>
</trkpt>
<trkpt lat="48.315033" lon="10.844617">
<ele>527.31</ele>
<time>2022-05-25T11:04:05Z</time>
</trkpt>
<trkpt lat="48.315041" lon="10.844678">
<ele>527.31</ele>
<time>2022-05-25T11:04:06Z</time>
</trkpt>
<trkpt lat="48.315048" lon="10.844739">
<ele>527.31</ele>
<time>2022-05-25T11:04:07Z</time>
</trkpt>
<trkpt lat="48.315052" lon="10.844806">
<ele>527.31</ele>
<time>2022-05-25T11:04:08Z</time>
</trkpt>
<trkpt lat="48.315056" lon="10.844873">
<ele>527.31</ele>
<time>2022-05-25T11:04:09Z</time>
</trkpt>
<trkpt lat="48.315056" lon="10.84494">
<ele>527.31</ele>
<time>2022-05-25T11:04:10Z</time>
</trkpt>
<trkpt lat="48.315063" lon="10.845012">
<ele>527.31</ele>
<time>2022-05-25T11:04:11Z</time>
</trkpt>
<trkpt lat="48.315067" lon="10.845077">
<ele>527.31</ele>
<time>2022-05-25T11:04:12Z</time>
</trkpt>
<trkpt lat="48.315075" lon="10.845137">
<ele>527.31</ele>
<time>2022-05-25T11:04:13Z</time>
</trkpt>
<trkpt lat="48.315086" lon="10.8452">
<ele>527.31</ele>
<time>2022-05-25T11:04:14Z</time>
</trkpt>
<trkpt lat="48.31509" lon="10.845264">
<ele>527.31</ele>
<time>2022-05-25T11:04:15Z</time>
</trkpt>
<trkpt lat="48.315098" lon="10.84533">
<ele>527.31</ele>
<time>2022-05-25T11:04:16Z</time>
</trkpt>
<trkpt lat="48.315105" lon="10.845397">
<ele>527.31</ele>
<time>2022-05-25T11:04:17Z</time>
</trkpt>
<trkpt lat="48.315117" lon="10.845464">
<ele>527.31</ele>
<time>2022-05-25T11:04:18Z</time>
</trkpt>
<trkpt lat="48.315121" lon="10.845531">
<ele>527.31</ele>
<time>2022-05-25T11:04:19Z</time>
</trkpt>
<trkpt lat="48.315128" lon="10.845593">
<ele>527.31</ele>
<time>2022-05-25T11:04:20Z</time>
</trkpt>
<trkpt lat="48.31514" lon="10.845656">
<ele>527.31</ele>
<time>2022-05-25T11:04:21Z</time>
</trkpt>
<trkpt lat="48.315144" lon="10.845718">
<ele>527.31</ele>
<time>2022-05-25T11:04:22Z</time>
</trkpt>
<trkpt lat="48.315147" lon="10.84578">
<ele>527.31</ele>
<time>2022-05-25T11:04:23Z</time>
</trkpt>
<trkpt lat="48.315155" lon="10.845843">
<ele>527.31</ele>
<time>2022-05-25T11:04:24Z</time>
</trkpt>
<trkpt lat="48.315166" lon="10.845908">
<ele>527.31</ele>
<time>2022-05-25T11:04:25Z</time>
</trkpt>
<trkpt lat="48.315174" lon="10.845973">
<ele>527.31</ele>
<time>2022-05-25T11:04:26Z</time>
</trkpt>
<trkpt lat="48.315182" lon="10.846038">
<ele>527.31</ele>
<time>2022-05-25T11:04:27Z</time>
</trkpt>
<trkpt lat="48.315186" lon="10.846102">
<ele>527.31</ele>
<time>2022-05-25T11:04:28Z</time>
</trkpt>
<trkpt lat="48.315189" lon="10.846167">
<ele>527.31</ele>
<time>2022-05-25T11:04:29Z</time>
</trkpt>
<trkpt lat="48.315189" lon="10.846227">
<ele>527.31</ele>
<time>2022-05-25T11:04:30Z</time>
</trkpt>
<trkpt lat="48.315197" lon="10.846289">
<ele>527.31</ele>
<time>2022-05-25T11:04:31Z</time>
</trkpt>
<trkpt lat="48.315201" lon="10.846347">
<ele>527.31</ele>
<time>2022-05-25T11:04:32Z</time>
</trkpt>
<trkpt lat="48.315208" lon="10.846407">
<ele>527.31</ele>
<time>2022-05-25T11:04:33Z</time>
</trkpt>
<trkpt lat="48.315216" lon="10.846469">
<ele>527.31</ele>
<time>2022-05-25T11:04:34Z</time>
</trkpt>
<trkpt lat="48.31522" lon="10.846528">
<ele>527.31</ele>
<time>2022-05-25T11:04:35Z</time>
</trkpt>
<trkpt lat="48.315224" lon="10.84659">
<ele>527.31</ele>
<time>2022-05-25T11:04:36Z</time>
</trkpt>
<trkpt lat="48.315231" lon="10.846652">
<ele>527.31</ele>
<time>2022-05-25T11:04:37Z</time>
</trkpt>
<trkpt lat="48.315231" lon="10.84671">
<ele>527.31</ele>
<time>2022-05-25T11:04:38Z</time>
</trkpt>
<trkpt lat="48.315231" lon="10.846766">
<ele>527.31</ele>
<time>2022-05-25T11:04:39Z</time>
</trkpt>
<trkpt lat="48.31522" lon="10.846822">
<ele>527.31</ele>
<time>2022-05-25T11:04:40Z</time>
</trkpt>
<trkpt lat="48.315208" lon="10.846875">
<ele>527.31</ele>
<time>2022-05-25T11:04:41Z</time>
</trkpt>
<trkpt lat="48.315197" lon="10.846931">
<ele>527.31</ele>
<time>2022-05-25T11:04:42Z</time>
</trkpt>
<trkpt lat="48.315186" lon="10.846974">
<ele>527.54</ele>
<time>2022-05-25T11:04:43Z</time>
</trkpt>
<trkpt lat="48.315178" lon="10.847014">
<ele>527.723</ele>
<time>2022-05-25T11:04:44Z</time>
</trkpt>
<trkpt lat="48.315174" lon="10.847055">
<ele>527.856</ele>
<time>2022-05-25T11:04:45Z</time>
</trkpt>
<trkpt lat="48.315166" lon="10.847098">
<ele>527.995</ele>
<time>2022-05-25T11:04:46Z</time>
</trkpt>
<trkpt lat="48.315155" lon="10.847143">
<ele>528.096</ele>
<time>2022-05-25T11:04:47Z</time>
</trkpt>
<trkpt lat="48.315151" lon="10.847186">
<ele>528.381</ele>
<time>2022-05-25T11:04:48Z</time>
</trkpt>
<trkpt lat="48.315136" lon="10.847226">
<ele>528.611</ele>
<time>2022-05-25T11:04:49Z</time>
</trkpt>
<trkpt lat="48.315121" lon="10.847268">
<ele>528.791</ele>
<time>2022-05-25T11:04:50Z</time>
</trkpt>
<trkpt lat="48.315113" lon="10.847318">
<ele>528.966</ele>
<time>2022-05-25T11:04:51Z</time>
</trkpt>
<trkpt lat="48.315105" lon="10.84737">
<ele>529.044</ele>
<time>2022-05-25T11:04:52Z</time>
</trkpt>
<trkpt lat="48.315094" lon="10.847426">
<ele>529.09</ele>
<time>2022-05-25T11:04:53Z</time>
</trkpt>
<trkpt lat="48.315086" lon="10.847489">
<ele>529.116</ele>
<time>2022-05-25T11:04:54Z</time>
</trkpt>
<trkpt lat="48.315075" lon="10.847552">
<ele>529.135</ele>
<time>2022-05-25T11:04:55Z</time>
</trkpt>
<trkpt lat="48.315063" lon="10.847615">
<ele>529.135</ele>
<time>2022-05-25T11:04:56Z</time>
</trkpt>
<trkpt lat="48.315052" lon="10.847676">
<ele>529.135</ele>
<time>2022-05-25T11:04:57Z</time>
</trkpt>
<trkpt lat="48.315041" lon="10.847738">
<ele>529.135</ele>
<time>2022-05-25T11:04:58Z</time>
</trkpt>
<trkpt lat="48.315025" lon="10.847802">
<ele>529.135</ele>
<time>2022-05-25T11:04:59Z</time>
</trkpt>
<trkpt lat="48.315014" lon="10.847865">
<ele>529.135</ele>
<time>2022-05-25T11:05:00Z</time>
</trkpt>
<trkpt lat="48.315002" lon="10.847925">
<ele>529.135</ele>
<time>2022-05-25T11:05:01Z</time>
</trkpt>
<trkpt lat="48.314991" lon="10.847983">
<ele>529.135</ele>
<time>2022-05-25T11:05:02Z</time>
</trkpt>
<trkpt lat="48.31498" lon="10.848046">
<ele>529.135</ele>
<time>2022-05-25T11:05:03Z</time>
</trkpt>
<trkpt lat="48.314968" lon="10.848105">
<ele>529.135</ele>
<time>2022-05-25T11:05:04Z</time>
</trkpt>
<trkpt lat="48.31496" lon="10.848162">
<ele>529.135</ele>
<time>2022-05-25T11:05:05Z</time>
</trkpt>
<trkpt lat="48.314957" lon="10.848213">
<ele>529.135</ele>
<time>2022-05-25T11:05:06Z</time>
</trkpt>
<trkpt lat="48.314949" lon="10.848269">
<ele>528.861</ele>
<time>2022-05-25T11:05:07Z</time>
</trkpt>
<trkpt lat="48.314938" lon="10.848326">
<ele>528.644</ele>
<time>2022-05-25T11:05:08Z</time>
</trkpt>
<trkpt lat="48.314926" lon="10.848385">
<ele>528.474</ele>
<time>2022-05-25T11:05:09Z</time>
</trkpt>
<trkpt lat="48.314915" lon="10.848449">
<ele>528.35</ele>
<time>2022-05-25T11:05:10Z</time>
</trkpt>
<trkpt lat="48.314903" lon="10.848515">
<ele>528.265</ele>
<time>2022-05-25T11:05:11Z</time>
</trkpt>
<trkpt lat="48.314892" lon="10.848575">
<ele>528.204</ele>
<time>2022-05-25T11:05:12Z</time>
</trkpt>
<trkpt lat="48.314884" lon="10.848632">
<ele>528.179</ele>
<time>2022-05-25T11:05:13Z</time>
</trkpt>
<trkpt lat="48.314873" lon="10.84868">
<ele>528.179</ele>
<time>2022-05-25T11:05:14Z</time>
</trkpt>
<trkpt lat="48.314865" lon="10.848717">
<ele>528.179</ele>
<time>2022-05-25T11:05:15Z</time>
</trkpt>
<trkpt lat="48.314857" lon="10.848757">
<ele>527.983</ele>
<time>2022-05-25T11:05:16Z</time>
</trkpt>
<trkpt lat="48.314842" lon="10.848799">
<ele>527.818</ele>
<time>2022-05-25T11:05:17Z</time>
</trkpt>
<trkpt lat="48.314827" lon="10.848842">
<ele>527.679</ele>
<time>2022-05-25T11:05:18Z</time>
</trkpt>
<trkpt lat="48.314812" lon="10.848883">
<ele>527.559</ele>
<time>2022-05-25T11:05:19Z</time>
</trkpt>
<trkpt lat="48.314796" lon="10.848927">
<ele>527.458</ele>
<time>2022-05-25T11:05:20Z</time>
</trkpt>
<trkpt lat="48.314789" lon="10.848963">
<ele>527.382</ele>
<time>2022-05-25T11:05:21Z</time>
</trkpt>
<trkpt lat="48.314777" lon="10.849007">
<ele>527.332</ele>
<time>2022-05-25T11:05:22Z</time>
</trkpt>
<trkpt lat="48.314762" lon="10.849052">
<ele>527.31</ele>
<time>2022-05-25T11:05:23Z</time>
</trkpt>
<trkpt lat="48.314747" lon="10.849105">
<ele>527.31</ele>
<time>2022-05-25T11:05:24Z</time>
</trkpt>
<trkpt lat="48.314732" lon="10.849158">
<ele>527.31</ele>
<time>2022-05-25T11:05:25Z</time>
</trkpt>
<trkpt lat="48.314713" lon="10.849222">
<ele>527.31</ele>
<time>2022-05-25T11:05:26Z</time>
</trkpt>
<trkpt lat="48.314697" lon="10.84928">
<ele>527.31</ele>
<time>2022-05-25T11:05:27Z</time>
</trkpt>
<trkpt lat="48.314682" lon="10.849338">
<ele>527.31</ele>
<time>2022-05-25T11:05:28Z</time>
</trkpt>
<trkpt lat="48.314667" lon="10.849385">
<ele>527.31</ele>
<time>2022-05-25T11:05:29Z</time>
</trkpt>
<trkpt lat="48.314651" lon="10.849442">
<ele>527.31</ele>
<time>2022-05-25T11:05:30Z</time>
</trkpt>
<trkpt lat="48.314636" lon="10.849483">
<ele>527.31</ele>
<time>2022-05-25T11:05:31Z</time>
</trkpt>
<trkpt lat="48.314625" lon="10.849526">
<ele>527.31</ele>
<time>2022-05-25T11:05:32Z</time>
</trkpt>
<trkpt lat="48.314613" lon="10.849558">
<ele>527.31</ele>
<time>2022-05-25T11:05:33Z</time>
</trkpt>
<trkpt lat="48.314613" lon="10.849568">
<ele>527.31</ele>
<time>2022-05-25T11:05:34Z</time>
</trkpt>
<trkpt lat="48.314613" lon="10.849574">
<ele>527.31</ele>
<time>2022-05-25T11:05:36Z</time>
</trkpt>
<trkpt lat="48.314621" lon="10.84956">
<ele>527.31</ele>
<time>2022-05-25T11:06:05Z</time>
</trkpt>
<trkpt lat="48.314625" lon="10.849549">
<ele>527.205</ele>
<time>2022-05-25T11:06:06Z</time>
</trkpt>
<trkpt lat="48.314621" lon="10.849551">
<ele>527.029</ele>
<time>2022-05-25T11:06:08Z</time>
</trkpt>
<trkpt lat="48.314625" lon="10.849545">
<ele>526.943</ele>
<time>2022-05-25T11:06:09Z</time>
</trkpt>
<trkpt lat="48.314629" lon="10.849541">
<ele>526.838</ele>
<time>2022-05-25T11:06:10Z</time>
</trkpt>
<trkpt lat="48.314632" lon="10.849525">
<ele>526.802</ele>
<time>2022-05-25T11:06:11Z</time>
</trkpt>
<trkpt lat="48.31464" lon="10.849507">
<ele>526.796</ele>
<time>2022-05-25T11:06:12Z</time>
</trkpt>
<trkpt lat="48.314648" lon="10.84948">
<ele>526.789</ele>
<time>2022-05-25T11:06:13Z</time>
</trkpt>
<trkpt lat="48.314663" lon="10.849444">
<ele>526.789</ele>
<time>2022-05-25T11:06:14Z</time>
</trkpt>
<trkpt lat="48.314674" lon="10.849401">
<ele>526.789</ele>
<time>2022-05-25T11:06:15Z</time>
</trkpt>
<trkpt lat="48.314693" lon="10.849352">
<ele>526.789</ele>
<time>2022-05-25T11:06:16Z</time>
</trkpt>
<trkpt lat="48.314709" lon="10.849303">
<ele>526.789</ele>
<time>2022-05-25T11:06:17Z</time>
</trkpt>
<trkpt lat="48.314724" lon="10.849257">
<ele>526.788</ele>
<time>2022-05-25T11:06:18Z</time>
</trkpt>
<trkpt lat="48.314739" lon="10.84921">
<ele>526.788</ele>
<time>2022-05-25T11:06:19Z</time>
</trkpt>
<trkpt lat="48.314754" lon="10.849165">
<ele>526.789</ele>
<time>2022-05-25T11:06:20Z</time>
</trkpt>
<trkpt lat="48.314766" lon="10.849122">
<ele>526.789</ele>
<time>2022-05-25T11:06:21Z</time>
</trkpt>
<trkpt lat="48.314777" lon="10.84908">
<ele>526.789</ele>
<time>2022-05-25T11:06:22Z</time>
</trkpt>
<trkpt lat="48.314789" lon="10.849045">
<ele>526.789</ele>
<time>2022-05-25T11:06:23Z</time>
</trkpt>
<trkpt lat="48.314796" lon="10.849009">
<ele>526.789</ele>
<time>2022-05-25T11:06:24Z</time>
</trkpt>
<trkpt lat="48.314808" lon="10.848984">
<ele>526.788</ele>
<time>2022-05-25T11:06:25Z</time>
</trkpt>
<trkpt lat="48.314816" lon="10.848958">
<ele>526.789</ele>
<time>2022-05-25T11:06:26Z</time>
</trkpt>
<trkpt lat="48.314819" lon="10.848938">
<ele>526.788</ele>
<time>2022-05-25T11:06:27Z</time>
</trkpt>
<trkpt lat="48.314819" lon="10.848928">
<ele>526.789</ele>
<time>2022-05-25T11:06:28Z</time>
</trkpt>
<trkpt lat="48.314816" lon="10.848927">
<ele>526.789</ele>
<time>2022-05-25T11:06:29Z</time>
</trkpt>
<trkpt lat="48.314816" lon="10.848922">
<ele>526.789</ele>
<time>2022-05-25T11:06:30Z</time>
</trkpt>
<trkpt lat="48.314823" lon="10.848904">
<ele>526.789</ele>
<time>2022-05-25T11:06:33Z</time>
</trkpt>
<trkpt lat="48.314827" lon="10.848885">
<ele>526.788</ele>
<time>2022-05-25T11:06:34Z</time>
</trkpt>
<trkpt lat="48.314827" lon="10.848862">
<ele>526.788</ele>
<time>2022-05-25T11:06:35Z</time>
</trkpt>
<trkpt lat="48.314831" lon="10.848842">
<ele>526.789</ele>
<time>2022-05-25T11:06:36Z</time>
</trkpt>
<trkpt lat="48.314835" lon="10.848822">
<ele>526.789</ele>
<time>2022-05-25T11:06:37Z</time>
</trkpt>
<trkpt lat="48.314835" lon="10.848802">
<ele>526.789</ele>
<time>2022-05-25T11:06:38Z</time>
</trkpt>
<trkpt lat="48.314838" lon="10.848788">
<ele>526.789</ele>
<time>2022-05-25T11:06:39Z</time>
</trkpt>
<trkpt lat="48.314838" lon="10.848783">
<ele>526.788</ele>
<time>2022-05-25T11:06:40Z</time>
</trkpt>
<trkpt lat="48.314838" lon="10.848782">
<ele>526.789</ele>
<time>2022-05-25T11:06:41Z</time>
</trkpt>
<trkpt lat="48.314835" lon="10.84878">
<ele>526.789</ele>
<time>2022-05-25T11:06:42Z</time>
</trkpt>
<trkpt lat="48.314819" lon="10.848753">
<ele>526.789</ele>
<time>2022-05-25T11:06:52Z</time>
</trkpt>
<trkpt lat="48.314808" lon="10.848748">
<ele>526.789</ele>
<time>2022-05-25T11:06:53Z</time>
</trkpt>
<trkpt lat="48.314793" lon="10.848748">
<ele>526.789</ele>
<time>2022-05-25T11:06:54Z</time>
</trkpt>
<trkpt lat="48.314777" lon="10.848751">
<ele>526.789</ele>
<time>2022-05-25T11:06:55Z</time>
</trkpt>
<trkpt lat="48.314758" lon="10.848753">
<ele>526.788</ele>
<time>2022-05-25T11:06:56Z</time>
</trkpt>
<trkpt lat="48.314728" lon="10.848757">
<ele>526.788</ele>
<time>2022-05-25T11:06:57Z</time>
</trkpt>
<trkpt lat="48.314697" lon="10.848759">
<ele>526.789</ele>
<time>2022-05-25T11:06:58Z</time>
</trkpt>
<trkpt lat="48.314671" lon="10.848755">
<ele>526.789</ele>
<time>2022-05-25T11:06:59Z</time>
</trkpt>
<trkpt lat="48.314644" lon="10.848746">
<ele>526.789</ele>
<time>2022-05-25T11:07:00Z</time>
</trkpt>
<trkpt lat="48.314625" lon="10.848744">
<ele>526.789</ele>
<time>2022-05-25T11:07:01Z</time>
</trkpt>
<trkpt lat="48.314602" lon="10.848742">
<ele>526.789</ele>
<time>2022-05-25T11:07:02Z</time>
</trkpt>
<trkpt lat="48.314583" lon="10.848728">
<ele>526.788</ele>
<time>2022-05-25T11:07:03Z</time>
</trkpt>
<trkpt lat="48.314564" lon="10.848708">
<ele>526.788</ele>
<time>2022-05-25T11:07:04Z</time>
</trkpt>
<trkpt lat="48.314533" lon="10.848697">
<ele>526.789</ele>
<time>2022-05-25T11:07:05Z</time>
</trkpt>
<trkpt lat="48.31451" lon="10.848686">
<ele>526.789</ele>
<time>2022-05-25T11:07:06Z</time>
</trkpt>
<trkpt lat="48.314484" lon="10.848677">
<ele>527.044</ele>
<time>2022-05-25T11:07:07Z</time>
</trkpt>
<trkpt lat="48.314457" lon="10.84866">
<ele>527.247</ele>
<time>2022-05-25T11:07:08Z</time>
</trkpt>
<trkpt lat="48.314426" lon="10.848643">
<ele>527.403</ele>
<time>2022-05-25T11:07:09Z</time>
</trkpt>
<trkpt lat="48.314392" lon="10.84863">
<ele>527.504</ele>
<time>2022-05-25T11:07:10Z</time>
</trkpt>
<trkpt lat="48.314354" lon="10.848615">
<ele>527.572</ele>
<time>2022-05-25T11:07:11Z</time>
</trkpt>
<trkpt lat="48.31432" lon="10.848606">
<ele>527.62</ele>
<time>2022-05-25T11:07:12Z</time>
</trkpt>
<trkpt lat="48.314285" lon="10.848596">
<ele>527.447</ele>
<time>2022-05-25T11:07:13Z</time>
</trkpt>
<trkpt lat="48.314251" lon="10.848588">
<ele>527.448</ele>
<time>2022-05-25T11:07:14Z</time>
</trkpt>
<trkpt lat="48.31422" lon="10.848575">
<ele>527.27</ele>
<time>2022-05-25T11:07:15Z</time>
</trkpt>
<trkpt lat="48.31419" lon="10.848558">
<ele>527.125</ele>
<time>2022-05-25T11:07:16Z</time>
</trkpt>
<trkpt lat="48.314163" lon="10.848545">
<ele>527.013</ele>
<time>2022-05-25T11:07:17Z</time>
</trkpt>
<trkpt lat="48.314137" lon="10.848529">
<ele>526.924</ele>
<time>2022-05-25T11:07:18Z</time>
</trkpt>
<trkpt lat="48.31411" lon="10.84851">
<ele>526.858</ele>
<time>2022-05-25T11:07:19Z</time>
</trkpt>
<trkpt lat="48.314091" lon="10.848492">
<ele>526.811</ele>
<time>2022-05-25T11:07:20Z</time>
</trkpt>
<trkpt lat="48.314068" lon="10.848475">
<ele>526.788</ele>
<time>2022-05-25T11:07:21Z</time>
</trkpt>
<trkpt lat="48.314045" lon="10.84846">
<ele>526.789</ele>
<time>2022-05-25T11:07:22Z</time>
</trkpt>
<trkpt lat="48.314022" lon="10.84844">
<ele>526.789</ele>
<time>2022-05-25T11:07:23Z</time>
</trkpt>
<trkpt lat="48.314003" lon="10.848412">
<ele>526.789</ele>
<time>2022-05-25T11:07:24Z</time>
</trkpt>
<trkpt lat="48.31398" lon="10.848382">
<ele>526.788</ele>
<time>2022-05-25T11:07:25Z</time>
</trkpt>
<trkpt lat="48.313957" lon="10.848343">
<ele>526.789</ele>
<time>2022-05-25T11:07:26Z</time>
</trkpt>
<trkpt lat="48.313938" lon="10.848305">
<ele>526.789</ele>
<time>2022-05-25T11:07:27Z</time>
</trkpt>
<trkpt lat="48.313919" lon="10.848258">
<ele>526.788</ele>
<time>2022-05-25T11:07:28Z</time>
</trkpt>
<trkpt lat="48.3139" lon="10.848213">
<ele>526.789</ele>
<time>2022-05-25T11:07:29Z</time>
</trkpt>
<trkpt lat="48.313885" lon="10.848172">
<ele>526.788</ele>
<time>2022-05-25T11:07:30Z</time>
</trkpt>
<trkpt lat="48.313877" lon="10.848131">
<ele>526.789</ele>
<time>2022-05-25T11:07:31Z</time>
</trkpt>
<trkpt lat="48.313869" lon="10.848095">
<ele>526.789</ele>
<time>2022-05-25T11:07:32Z</time>
</trkpt>
<trkpt lat="48.31385" lon="10.84805">
<ele>526.789</ele>
<time>2022-05-25T11:07:33Z</time>
</trkpt>
<trkpt lat="48.313828" lon="10.848001">
<ele>526.789</ele>
<time>2022-05-25T11:07:34Z</time>
</trkpt>
<trkpt lat="48.313797" lon="10.847943">
<ele>526.789</ele>
<time>2022-05-25T11:07:35Z</time>
</trkpt>
<trkpt lat="48.313755" lon="10.847897">
<ele>526.789</ele>
<time>2022-05-25T11:07:36Z</time>
</trkpt>
<trkpt lat="48.313717" lon="10.847858">
<ele>526.788</ele>
<time>2022-05-25T11:07:37Z</time>
</trkpt>
<trkpt lat="48.313683" lon="10.847827">
<ele>526.789</ele>
<time>2022-05-25T11:07:38Z</time>
</trkpt>
<trkpt lat="48.313644" lon="10.847795">
<ele>526.788</ele>
<time>2022-05-25T11:07:39Z</time>
</trkpt>
<trkpt lat="48.313602" lon="10.847765">
<ele>526.789</ele>
<time>2022-05-25T11:07:40Z</time>
</trkpt>
<trkpt lat="48.313564" lon="10.847733">
<ele>526.788</ele>
<time>2022-05-25T11:07:41Z</time>
</trkpt>
<trkpt lat="48.313526" lon="10.847701">
<ele>526.789</ele>
<time>2022-05-25T11:07:42Z</time>
</trkpt>
<trkpt lat="48.313492" lon="10.84767">
<ele>526.789</ele>
<time>2022-05-25T11:07:43Z</time>
</trkpt>
<trkpt lat="48.313457" lon="10.847638">
<ele>526.789</ele>
<time>2022-05-25T11:07:44Z</time>
</trkpt>
<trkpt lat="48.313423" lon="10.84761">
<ele>526.789</ele>
<time>2022-05-25T11:07:45Z</time>
</trkpt>
<trkpt lat="48.3134" lon="10.847587">
<ele>526.788</ele>
<time>2022-05-25T11:07:46Z</time>
</trkpt>
<trkpt lat="48.313374" lon="10.847563">
<ele>526.789</ele>
<time>2022-05-25T11:07:47Z</time>
</trkpt>
<trkpt lat="48.313347" lon="10.847547">
<ele>526.788</ele>
<time>2022-05-25T11:07:48Z</time>
</trkpt>
<trkpt lat="48.31332" lon="10.847535">
<ele>526.789</ele>
<time>2022-05-25T11:07:49Z</time>
</trkpt>
<trkpt lat="48.31329" lon="10.84752">
<ele>526.789</ele>
<time>2022-05-25T11:07:50Z</time>
</trkpt>
<trkpt lat="48.313259" lon="10.847507">
<ele>526.789</ele>
<time>2022-05-25T11:07:51Z</time>
</trkpt>
<trkpt lat="48.313229" lon="10.847493">
<ele>526.788</ele>
<time>2022-05-25T11:07:52Z</time>
</trkpt>
<trkpt lat="48.313194" lon="10.84748">
<ele>526.789</ele>
<time>2022-05-25T11:07:53Z</time>
</trkpt>
<trkpt lat="48.313164" lon="10.847471">
<ele>526.788</ele>
<time>2022-05-25T11:07:54Z</time>
</trkpt>
<trkpt lat="48.313133" lon="10.84746">
<ele>526.788</ele>
<time>2022-05-25T11:07:55Z</time>
</trkpt>
<trkpt lat="48.313103" lon="10.847454">
<ele>526.789</ele>
<time>2022-05-25T11:07:56Z</time>
</trkpt>
<trkpt lat="48.313072" lon="10.847446">
<ele>526.789</ele>
<time>2022-05-25T11:07:57Z</time>
</trkpt>
<trkpt lat="48.313042" lon="10.847435">
<ele>526.789</ele>
<time>2022-05-25T11:07:58Z</time>
</trkpt>
<trkpt lat="48.313007" lon="10.847431">
<ele>526.789</ele>
<time>2022-05-25T11:07:59Z</time>
</trkpt>
<trkpt lat="48.312969" lon="10.847422">
<ele>526.789</ele>
<time>2022-05-25T11:08:00Z</time>
</trkpt>
<trkpt lat="48.312935" lon="10.847406">
<ele>526.788</ele>
<time>2022-05-25T11:08:01Z</time>
</trkpt>
<trkpt lat="48.312889" lon="10.847393">
<ele>526.789</ele>
<time>2022-05-25T11:08:02Z</time>
</trkpt>
<trkpt lat="48.312851" lon="10.847385">
<ele>526.789</ele>
<time>2022-05-25T11:08:03Z</time>
</trkpt>
<trkpt lat="48.312813" lon="10.847381">
<ele>526.789</ele>
<time>2022-05-25T11:08:04Z</time>
</trkpt>
<trkpt lat="48.312778" lon="10.847375">
<ele>526.789</ele>
<time>2022-05-25T11:08:05Z</time>
</trkpt>
<trkpt lat="48.312744" lon="10.84736">
<ele>526.788</ele>
<time>2022-05-25T11:08:06Z</time>
</trkpt>
<trkpt lat="48.312706" lon="10.847351">
<ele>526.788</ele>
<time>2022-05-25T11:08:07Z</time>
</trkpt>
<trkpt lat="48.312664" lon="10.847341">
<ele>526.788</ele>
<time>2022-05-25T11:08:08Z</time>
</trkpt>
<trkpt lat="48.312626" lon="10.84733">
<ele>526.789</ele>
<time>2022-05-25T11:08:09Z</time>
</trkpt>
<trkpt lat="48.312588" lon="10.847317">
<ele>526.788</ele>
<time>2022-05-25T11:08:10Z</time>
</trkpt>
<trkpt lat="48.312546" lon="10.847297">
<ele>526.789</ele>
<time>2022-05-25T11:08:11Z</time>
</trkpt>
<trkpt lat="48.312504" lon="10.847283">
<ele>526.789</ele>
<time>2022-05-25T11:08:12Z</time>
</trkpt>
<trkpt lat="48.312458" lon="10.847261">
<ele>526.789</ele>
<time>2022-05-25T11:08:13Z</time>
</trkpt>
<trkpt lat="48.312416" lon="10.847253">
<ele>526.788</ele>
<time>2022-05-25T11:08:14Z</time>
</trkpt>
<trkpt lat="48.312378" lon="10.847245">
<ele>526.789</ele>
<time>2022-05-25T11:08:15Z</time>
</trkpt>
<trkpt lat="48.312336" lon="10.847237">
<ele>526.789</ele>
<time>2022-05-25T11:08:16Z</time>
</trkpt>
<trkpt lat="48.312298" lon="10.847225">
<ele>526.788</ele>
<time>2022-05-25T11:08:17Z</time>
</trkpt>
<trkpt lat="48.312256" lon="10.847213">
<ele>526.789</ele>
<time>2022-05-25T11:08:18Z</time>
</trkpt>
<trkpt lat="48.312218" lon="10.847207">
<ele>526.789</ele>
<time>2022-05-25T11:08:19Z</time>
</trkpt>
<trkpt lat="48.31218" lon="10.847202">
<ele>526.789</ele>
<time>2022-05-25T11:08:20Z</time>
</trkpt>
<trkpt lat="48.312134" lon="10.847194">
<ele>526.789</ele>
<time>2022-05-25T11:08:21Z</time>
</trkpt>
<trkpt lat="48.312088" lon="10.84719">
<ele>526.789</ele>
<time>2022-05-25T11:08:22Z</time>
</trkpt>
<trkpt lat="48.312031" lon="10.847185">
<ele>526.789</ele>
<time>2022-05-25T11:08:23Z</time>
</trkpt>
<trkpt lat="48.311977" lon="10.847181">
<ele>526.789</ele>
<time>2022-05-25T11:08:24Z</time>
</trkpt>
<trkpt lat="48.311924" lon="10.847174">
<ele>526.788</ele>
<time>2022-05-25T11:08:25Z</time>
</trkpt>
<trkpt lat="48.311871" lon="10.847163">
<ele>526.789</ele>
<time>2022-05-25T11:08:26Z</time>
</trkpt>
<trkpt lat="48.311821" lon="10.847157">
<ele>526.789</ele>
<time>2022-05-25T11:08:27Z</time>
</trkpt>
<trkpt lat="48.311771" lon="10.84715">
<ele>526.789</ele>
<time>2022-05-25T11:08:28Z</time>
</trkpt>
<trkpt lat="48.311729" lon="10.847143">
<ele>526.789</ele>
<time>2022-05-25T11:08:29Z</time>
</trkpt>
<trkpt lat="48.311687" lon="10.84714">
<ele>526.789</ele>
<time>2022-05-25T11:08:30Z</time>
</trkpt>
<trkpt lat="48.311649" lon="10.847136">
<ele>526.515</ele>
<time>2022-05-25T11:08:31Z</time>
</trkpt>
<trkpt lat="48.311611" lon="10.847132">
<ele>526.496</ele>
<time>2022-05-25T11:08:32Z</time>
</trkpt>
<trkpt lat="48.311569" lon="10.847127">
<ele>526.483</ele>
<time>2022-05-25T11:08:33Z</time>
</trkpt>
<trkpt lat="48.311531" lon="10.847118">
<ele>526.469</ele>
<time>2022-05-25T11:08:34Z</time>
</trkpt>
<trkpt lat="48.311493" lon="10.84711">
<ele>526.462</ele>
<time>2022-05-25T11:08:35Z</time>
</trkpt>
<trkpt lat="48.311451" lon="10.8471">
<ele>526.464</ele>
<time>2022-05-25T11:08:36Z</time>
</trkpt>
<trkpt lat="48.311409" lon="10.847092">
<ele>526.473</ele>
<time>2022-05-25T11:08:37Z</time>
</trkpt>
<trkpt lat="48.311371" lon="10.84709">
<ele>526.489</ele>
<time>2022-05-25T11:08:38Z</time>
</trkpt>
<trkpt lat="48.311329" lon="10.847087">
<ele>526.508</ele>
<time>2022-05-25T11:08:39Z</time>
</trkpt>
<trkpt lat="48.311283" lon="10.847081">
<ele>526.528</ele>
<time>2022-05-25T11:08:40Z</time>
</trkpt>
<trkpt lat="48.311241" lon="10.847076">
<ele>526.528</ele>
<time>2022-05-25T11:08:41Z</time>
</trkpt>
<trkpt lat="48.311199" lon="10.847071">
<ele>526.528</ele>
<time>2022-05-25T11:08:42Z</time>
</trkpt>
<trkpt lat="48.311153" lon="10.847065">
<ele>526.528</ele>
<time>2022-05-25T11:08:43Z</time>
</trkpt>
<trkpt lat="48.311111" lon="10.84706">
<ele>526.528</ele>
<time>2022-05-25T11:08:44Z</time>
</trkpt>
<trkpt lat="48.311066" lon="10.847055">
<ele>526.528</ele>
<time>2022-05-25T11:08:45Z</time>
</trkpt>
<trkpt lat="48.31102" lon="10.847055">
<ele>526.528</ele>
<time>2022-05-25T11:08:46Z</time>
</trkpt>
<trkpt lat="48.310974" lon="10.847043">
<ele>526.528</ele>
<time>2022-05-25T11:08:47Z</time>
</trkpt>
<trkpt lat="48.310925" lon="10.847027">
<ele>526.528</ele>
<time>2022-05-25T11:08:48Z</time>
</trkpt>
<trkpt lat="48.310883" lon="10.84701">
<ele>526.528</ele>
<time>2022-05-25T11:08:49Z</time>
</trkpt>
<trkpt lat="48.310841" lon="10.846992">
<ele>526.528</ele>
<time>2022-05-25T11:08:50Z</time>
</trkpt>
<trkpt lat="48.310799" lon="10.84697">
<ele>526.528</ele>
<time>2022-05-25T11:08:51Z</time>
</trkpt>
<trkpt lat="48.310768" lon="10.846949">
<ele>526.528</ele>
<time>2022-05-25T11:08:52Z</time>
</trkpt>
<trkpt lat="48.31073" lon="10.846924">
<ele>526.528</ele>
<time>2022-05-25T11:08:53Z</time>
</trkpt>
<trkpt lat="48.310696" lon="10.846893">
<ele>526.528</ele>
<time>2022-05-25T11:08:54Z</time>
</trkpt>
<trkpt lat="48.310658" lon="10.846867">
<ele>526.528</ele>
<time>2022-05-25T11:08:55Z</time>
</trkpt>
<trkpt lat="48.310623" lon="10.846842">
<ele>526.528</ele>
<time>2022-05-25T11:08:56Z</time>
</trkpt>
<trkpt lat="48.310581" lon="10.846822">
<ele>526.528</ele>
<time>2022-05-25T11:08:57Z</time>
</trkpt>
<trkpt lat="48.310539" lon="10.846807">
<ele>526.528</ele>
<time>2022-05-25T11:08:58Z</time>
</trkpt>
<trkpt lat="48.310497" lon="10.846795">
<ele>526.528</ele>
<time>2022-05-25T11:08:59Z</time>
</trkpt>
<trkpt lat="48.310459" lon="10.846784">
<ele>526.528</ele>
<time>2022-05-25T11:09:00Z</time>
</trkpt>
<trkpt lat="48.310421" lon="10.846773">
<ele>526.528</ele>
<time>2022-05-25T11:09:01Z</time>
</trkpt>
<trkpt lat="48.310383" lon="10.84677">
<ele>526.528</ele>
<time>2022-05-25T11:09:02Z</time>
</trkpt>
<trkpt lat="48.310345" lon="10.846763">
<ele>526.528</ele>
<time>2022-05-25T11:09:03Z</time>
</trkpt>
<trkpt lat="48.310303" lon="10.846752">
<ele>526.528</ele>
<time>2022-05-25T11:09:04Z</time>
</trkpt>
<trkpt lat="48.310261" lon="10.846738">
<ele>526.528</ele>
<time>2022-05-25T11:09:05Z</time>
</trkpt>
<trkpt lat="48.310223" lon="10.846725">
<ele>526.528</ele>
<time>2022-05-25T11:09:06Z</time>
</trkpt>
<trkpt lat="48.310181" lon="10.846715">
<ele>526.528</ele>
<time>2022-05-25T11:09:07Z</time>
</trkpt>
<trkpt lat="48.310139" lon="10.846705">
<ele>526.528</ele>
<time>2022-05-25T11:09:08Z</time>
</trkpt>
<trkpt lat="48.310101" lon="10.846691">
<ele>526.528</ele>
<time>2022-05-25T11:09:09Z</time>
</trkpt>
<trkpt lat="48.310059" lon="10.846672">
<ele>526.528</ele>
<time>2022-05-25T11:09:10Z</time>
</trkpt>
<trkpt lat="48.31002" lon="10.84665">
<ele>526.528</ele>
<time>2022-05-25T11:09:11Z</time>
</trkpt>
<trkpt lat="48.309982" lon="10.846624">
<ele>526.528</ele>
<time>2022-05-25T11:09:12Z</time>
</trkpt>
<trkpt lat="48.309948" lon="10.8466">
<ele>526.528</ele>
<time>2022-05-25T11:09:13Z</time>
</trkpt>
<trkpt lat="48.309917" lon="10.846572">
<ele>526.528</ele>
<time>2022-05-25T11:09:14Z</time>
</trkpt>
<trkpt lat="48.309883" lon="10.846542">
<ele>526.528</ele>
<time>2022-05-25T11:09:15Z</time>
</trkpt>
<trkpt lat="48.309853" lon="10.846514">
<ele>526.528</ele>
<time>2022-05-25T11:09:16Z</time>
</trkpt>
<trkpt lat="48.309814" lon="10.846486">
<ele>526.528</ele>
<time>2022-05-25T11:09:17Z</time>
</trkpt>
<trkpt lat="48.30978" lon="10.846461">
<ele>526.528</ele>
<time>2022-05-25T11:09:18Z</time>
</trkpt>
<trkpt lat="48.309746" lon="10.846442">
<ele>526.528</ele>
<time>2022-05-25T11:09:19Z</time>
</trkpt>
<trkpt lat="48.309711" lon="10.846427">
<ele>526.528</ele>
<time>2022-05-25T11:09:20Z</time>
</trkpt>
<trkpt lat="48.309677" lon="10.846405">
<ele>526.528</ele>
<time>2022-05-25T11:09:21Z</time>
</trkpt>
<trkpt lat="48.309639" lon="10.846385">
<ele>526.528</ele>
<time>2022-05-25T11:09:22Z</time>
</trkpt>
<trkpt lat="48.309597" lon="10.846365">
<ele>526.528</ele>
<time>2022-05-25T11:09:23Z</time>
</trkpt>
<trkpt lat="48.309559" lon="10.846348">
<ele>526.528</ele>
<time>2022-05-25T11:09:24Z</time>
</trkpt>
<trkpt lat="48.309521" lon="10.846338">
<ele>526.528</ele>
<time>2022-05-25T11:09:25Z</time>
</trkpt>
<trkpt lat="48.309479" lon="10.846329">
<ele>526.528</ele>
<time>2022-05-25T11:09:26Z</time>
</trkpt>
<trkpt lat="48.309441" lon="10.84632">
<ele>526.528</ele>
<time>2022-05-25T11:09:27Z</time>
</trkpt>
<trkpt lat="48.309395" lon="10.84631">
<ele>526.528</ele>
<time>2022-05-25T11:09:28Z</time>
</trkpt>
<trkpt lat="48.309353" lon="10.846302">
<ele>526.528</ele>
<time>2022-05-25T11:09:29Z</time>
</trkpt>
<trkpt lat="48.309315" lon="10.846293">
<ele>526.528</ele>
<time>2022-05-25T11:09:30Z</time>
</trkpt>
<trkpt lat="48.309273" lon="10.84628">
<ele>526.528</ele>
<time>2022-05-25T11:09:31Z</time>
</trkpt>
<trkpt lat="48.309235" lon="10.846262">
<ele>526.528</ele>
<time>2022-05-25T11:09:32Z</time>
</trkpt>
<trkpt lat="48.309193" lon="10.846236">
<ele>526.528</ele>
<time>2022-05-25T11:09:33Z</time>
</trkpt>
<trkpt lat="48.309155" lon="10.84621">
<ele>526.528</ele>
<time>2022-05-25T11:09:34Z</time>
</trkpt>
<trkpt lat="48.30912" lon="10.846176">
<ele>526.528</ele>
<time>2022-05-25T11:09:35Z</time>
</trkpt>
<trkpt lat="48.30909" lon="10.846143">
<ele>526.528</ele>
<time>2022-05-25T11:09:36Z</time>
</trkpt>
<trkpt lat="48.309055" lon="10.846111">
<ele>526.528</ele>
<time>2022-05-25T11:09:37Z</time>
</trkpt>
<trkpt lat="48.309021" lon="10.846086">
<ele>526.528</ele>
<time>2022-05-25T11:09:38Z</time>
</trkpt>
<trkpt lat="48.308987" lon="10.846059">
<ele>526.528</ele>
<time>2022-05-25T11:09:39Z</time>
</trkpt>
<trkpt lat="48.308956" lon="10.846031">
<ele>526.528</ele>
<time>2022-05-25T11:09:40Z</time>
</trkpt>
<trkpt lat="48.308922" lon="10.846002">
<ele>526.767</ele>
<time>2022-05-25T11:09:41Z</time>
</trkpt>
<trkpt lat="48.308891" lon="10.845971">
<ele>526.956</ele>
<time>2022-05-25T11:09:42Z</time>
</trkpt>
<trkpt lat="48.308853" lon="10.845945">
<ele>527.109</ele>
<time>2022-05-25T11:09:43Z</time>
</trkpt>
<trkpt lat="48.308815" lon="10.845924">
<ele>527.213</ele>
<time>2022-05-25T11:09:44Z</time>
</trkpt>
<trkpt lat="48.308773" lon="10.84591">
<ele>527.326</ele>
<time>2022-05-25T11:09:45Z</time>
</trkpt>
<trkpt lat="48.308735" lon="10.845901">
<ele>527.408</ele>
<time>2022-05-25T11:09:46Z</time>
</trkpt>
<trkpt lat="48.308697" lon="10.845893">
<ele>527.46</ele>
<time>2022-05-25T11:09:47Z</time>
</trkpt>
<trkpt lat="48.308662" lon="10.845883">
<ele>527.484</ele>
<time>2022-05-25T11:09:48Z</time>
</trkpt>
<trkpt lat="48.30862" lon="10.845879">
<ele>527.484</ele>
<time>2022-05-25T11:09:49Z</time>
</trkpt>
<trkpt lat="48.308578" lon="10.845872">
<ele>527.484</ele>
<time>2022-05-25T11:09:50Z</time>
</trkpt>
<trkpt lat="48.30854" lon="10.845866">
<ele>527.484</ele>
<time>2022-05-25T11:09:51Z</time>
</trkpt>
<trkpt lat="48.308502" lon="10.845855">
<ele>527.484</ele>
<time>2022-05-25T11:09:52Z</time>
</trkpt>
<trkpt lat="48.308468" lon="10.845837">
<ele>527.484</ele>
<time>2022-05-25T11:09:53Z</time>
</trkpt>
<trkpt lat="48.308434" lon="10.845816">
<ele>527.484</ele>
<time>2022-05-25T11:09:54Z</time>
</trkpt>
<trkpt lat="48.308395" lon="10.845797">
<ele>527.484</ele>
<time>2022-05-25T11:09:55Z</time>
</trkpt>
<trkpt lat="48.308353" lon="10.845778">
<ele>527.484</ele>
<time>2022-05-25T11:09:56Z</time>
</trkpt>
<trkpt lat="48.308315" lon="10.845758">
<ele>527.484</ele>
<time>2022-05-25T11:09:57Z</time>
</trkpt>
<trkpt lat="48.308273" lon="10.84574">
<ele>527.484</ele>
<time>2022-05-25T11:09:58Z</time>
</trkpt>
<trkpt lat="48.308239" lon="10.845715">
<ele>527.484</ele>
<time>2022-05-25T11:09:59Z</time>
</trkpt>
<trkpt lat="48.308201" lon="10.845695">
<ele>527.484</ele>
<time>2022-05-25T11:10:00Z</time>
</trkpt>
<trkpt lat="48.308159" lon="10.845678">
<ele>527.484</ele>
<time>2022-05-25T11:10:01Z</time>
</trkpt>
<trkpt lat="48.308117" lon="10.845663">
<ele>527.484</ele>
<time>2022-05-25T11:10:02Z</time>
</trkpt>
<trkpt lat="48.308079" lon="10.845644">
<ele>527.484</ele>
<time>2022-05-25T11:10:03Z</time>
</trkpt>
<trkpt lat="48.308037" lon="10.845627">
<ele>527.484</ele>
<time>2022-05-25T11:10:04Z</time>
</trkpt>
<trkpt lat="48.307995" lon="10.845613">
<ele>527.484</ele>
<time>2022-05-25T11:10:05Z</time>
</trkpt>
<trkpt lat="48.307953" lon="10.845605">
<ele>527.484</ele>
<time>2022-05-25T11:10:06Z</time>
</trkpt>
<trkpt lat="48.307915" lon="10.845595">
<ele>527.484</ele>
<time>2022-05-25T11:10:07Z</time>
</trkpt>
<trkpt lat="48.307873" lon="10.845589">
<ele>527.484</ele>
<time>2022-05-25T11:10:08Z</time>
</trkpt>
<trkpt lat="48.307835" lon="10.845581">
<ele>527.484</ele>
<time>2022-05-25T11:10:09Z</time>
</trkpt>
<trkpt lat="48.307793" lon="10.845575">
<ele>527.484</ele>
<time>2022-05-25T11:10:10Z</time>
</trkpt>
<trkpt lat="48.307755" lon="10.845571">
<ele>527.484</ele>
<time>2022-05-25T11:10:11Z</time>
</trkpt>
<trkpt lat="48.30772" lon="10.845571">
<ele>527.484</ele>
<time>2022-05-25T11:10:12Z</time>
</trkpt>
<trkpt lat="48.307686" lon="10.845573">
<ele>527.484</ele>
<time>2022-05-25T11:10:13Z</time>
</trkpt>
<trkpt lat="48.307655" lon="10.845576">
<ele>527.484</ele>
<time>2022-05-25T11:10:14Z</time>
</trkpt>
<trkpt lat="48.307625" lon="10.845583">
<ele>527.484</ele>
<time>2022-05-25T11:10:15Z</time>
</trkpt>
<trkpt lat="48.307594" lon="10.845592">
<ele>527.484</ele>
<time>2022-05-25T11:10:16Z</time>
</trkpt>
<trkpt lat="48.307571" lon="10.845604">
<ele>527.484</ele>
<time>2022-05-25T11:10:17Z</time>
</trkpt>
<trkpt lat="48.307552" lon="10.845616">
<ele>527.484</ele>
<time>2022-05-25T11:10:18Z</time>
</trkpt>
<trkpt lat="48.307526" lon="10.845634">
<ele>527.484</ele>
<time>2022-05-25T11:10:19Z</time>
</trkpt>
<trkpt lat="48.307499" lon="10.845654">
<ele>527.484</ele>
<time>2022-05-25T11:10:20Z</time>
</trkpt>
<trkpt lat="48.307468" lon="10.845674">
<ele>527.484</ele>
<time>2022-05-25T11:10:21Z</time>
</trkpt>
<trkpt lat="48.307434" lon="10.845696">
<ele>527.484</ele>
<time>2022-05-25T11:10:22Z</time>
</trkpt>
<trkpt lat="48.307407" lon="10.845718">
<ele>527.484</ele>
<time>2022-05-25T11:10:23Z</time>
</trkpt>
<trkpt lat="48.307377" lon="10.845738">
<ele>527.484</ele>
<time>2022-05-25T11:10:24Z</time>
</trkpt>
<trkpt lat="48.30735" lon="10.845755">
<ele>527.484</ele>
<time>2022-05-25T11:10:25Z</time>
</trkpt>
<trkpt lat="48.30732" lon="10.845768">
<ele>527.484</ele>
<time>2022-05-25T11:10:26Z</time>
</trkpt>
<trkpt lat="48.307285" lon="10.845784">
<ele>527.484</ele>
<time>2022-05-25T11:10:27Z</time>
</trkpt>
<trkpt lat="48.307251" lon="10.8458">
<ele>527.484</ele>
<time>2022-05-25T11:10:28Z</time>
</trkpt>
<trkpt lat="48.307213" lon="10.845814">
<ele>527.484</ele>
<time>2022-05-25T11:10:29Z</time>
</trkpt>
<trkpt lat="48.307171" lon="10.845814">
<ele>527.484</ele>
<time>2022-05-25T11:10:30Z</time>
</trkpt>
<trkpt lat="48.30714" lon="10.845808">
<ele>527.484</ele>
<time>2022-05-25T11:10:31Z</time>
</trkpt>
<trkpt lat="48.30711" lon="10.84581">
<ele>527.484</ele>
<time>2022-05-25T11:10:32Z</time>
</trkpt>
<trkpt lat="48.307079" lon="10.845807">
<ele>527.484</ele>
<time>2022-05-25T11:10:33Z</time>
</trkpt>
<trkpt lat="48.307045" lon="10.845805">
<ele>527.484</ele>
<time>2022-05-25T11:10:34Z</time>
</trkpt>
<trkpt lat="48.307014" lon="10.845797">
<ele>527.484</ele>
<time>2022-05-25T11:10:35Z</time>
</trkpt>
<trkpt lat="48.306984" lon="10.845784">
<ele>527.484</ele>
<time>2022-05-25T11:10:36Z</time>
</trkpt>
<trkpt lat="48.306953" lon="10.84578">
<ele>527.484</ele>
<time>2022-05-25T11:10:37Z</time>
</trkpt>
<trkpt lat="48.306927" lon="10.845774">
<ele>527.484</ele>
<time>2022-05-25T11:10:38Z</time>
</trkpt>
<trkpt lat="48.306889" lon="10.845759">
<ele>527.484</ele>
<time>2022-05-25T11:10:39Z</time>
</trkpt>
<trkpt lat="48.30685" lon="10.845755">
<ele>527.484</ele>
<time>2022-05-25T11:10:40Z</time>
</trkpt>
<trkpt lat="48.306816" lon="10.845745">
<ele>527.484</ele>
<time>2022-05-25T11:10:41Z</time>
</trkpt>
<trkpt lat="48.306774" lon="10.845774">
<ele>527.484</ele>
<time>2022-05-25T11:10:42Z</time>
</trkpt>
<trkpt lat="48.306751" lon="10.845742">
<ele>527.484</ele>
<time>2022-05-25T11:10:43Z</time>
</trkpt>
<trkpt lat="48.306725" lon="10.845714">
<ele>527.484</ele>
<time>2022-05-25T11:10:44Z</time>
</trkpt>
<trkpt lat="48.306694" lon="10.845695">
<ele>527.484</ele>
<time>2022-05-25T11:10:45Z</time>
</trkpt>
<trkpt lat="48.306664" lon="10.84567">
<ele>527.484</ele>
<time>2022-05-25T11:10:46Z</time>
</trkpt>
<trkpt lat="48.306629" lon="10.845635">
<ele>527.484</ele>
<time>2022-05-25T11:10:47Z</time>
</trkpt>
<trkpt lat="48.306583" lon="10.845635">
<ele>527.484</ele>
<time>2022-05-25T11:10:48Z</time>
</trkpt>
<trkpt lat="48.306549" lon="10.845613">
<ele>527.484</ele>
<time>2022-05-25T11:10:49Z</time>
</trkpt>
<trkpt lat="48.306515" lon="10.845581">
<ele>527.739</ele>
<time>2022-05-25T11:10:50Z</time>
</trkpt>
<trkpt lat="48.30648" lon="10.84556">
<ele>527.952</ele>
<time>2022-05-25T11:10:51Z</time>
</trkpt>
<trkpt lat="48.306442" lon="10.845537">
<ele>528.099</ele>
<time>2022-05-25T11:10:52Z</time>
</trkpt>
<trkpt lat="48.306416" lon="10.845511">
<ele>528.209</ele>
<time>2022-05-25T11:10:53Z</time>
</trkpt>
<trkpt lat="48.306393" lon="10.845478">
<ele>528.282</ele>
<time>2022-05-25T11:10:54Z</time>
</trkpt>
<trkpt lat="48.306374" lon="10.845443">
<ele>528.358</ele>
<time>2022-05-25T11:10:55Z</time>
</trkpt>
<trkpt lat="48.306347" lon="10.845399">
<ele>528.411</ele>
<time>2022-05-25T11:10:56Z</time>
</trkpt>
<trkpt lat="48.306313" lon="10.845362">
<ele>528.44</ele>
<time>2022-05-25T11:10:57Z</time>
</trkpt>
<trkpt lat="48.306278" lon="10.845327">
<ele>528.44</ele>
<time>2022-05-25T11:10:58Z</time>
</trkpt>
<trkpt lat="48.306252" lon="10.8453">
<ele>528.44</ele>
<time>2022-05-25T11:10:59Z</time>
</trkpt>
<trkpt lat="48.306225" lon="10.845271">
<ele>528.44</ele>
<time>2022-05-25T11:11:00Z</time>
</trkpt>
<trkpt lat="48.30619" lon="10.845238">
<ele>528.44</ele>
<time>2022-05-25T11:11:01Z</time>
</trkpt>
<trkpt lat="48.306156" lon="10.84521">
<ele>528.44</ele>
<time>2022-05-25T11:11:02Z</time>
</trkpt>
<trkpt lat="48.306114" lon="10.845187">
<ele>528.44</ele>
<time>2022-05-25T11:11:03Z</time>
</trkpt>
<trkpt lat="48.30608" lon="10.845163">
<ele>528.44</ele>
<time>2022-05-25T11:11:04Z</time>
</trkpt>
<trkpt lat="48.306046" lon="10.845143">
<ele>528.44</ele>
<time>2022-05-25T11:11:05Z</time>
</trkpt>
<trkpt lat="48.306019" lon="10.845126">
<ele>528.44</ele>
<time>2022-05-25T11:11:06Z</time>
</trkpt>
<trkpt lat="48.305988" lon="10.845114">
<ele>528.44</ele>
<time>2022-05-25T11:11:07Z</time>
</trkpt>
<trkpt lat="48.305958" lon="10.845093">
<ele>528.44</ele>
<time>2022-05-25T11:11:08Z</time>
</trkpt>
<trkpt lat="48.30592" lon="10.845097">
<ele>528.44</ele>
<time>2022-05-25T11:11:09Z</time>
</trkpt>
<trkpt lat="48.305885" lon="10.84509">
<ele>528.44</ele>
<time>2022-05-25T11:11:10Z</time>
</trkpt>
<trkpt lat="48.305859" lon="10.845074">
<ele>528.44</ele>
<time>2022-05-25T11:11:11Z</time>
</trkpt>
<trkpt lat="48.305836" lon="10.845051">
<ele>528.44</ele>
<time>2022-05-25T11:11:12Z</time>
</trkpt>
<trkpt lat="48.305805" lon="10.845028">
<ele>528.44</ele>
<time>2022-05-25T11:11:13Z</time>
</trkpt>
<trkpt lat="48.305779" lon="10.845012">
<ele>528.44</ele>
<time>2022-05-25T11:11:14Z</time>
</trkpt>
<trkpt lat="48.305759" lon="10.844998">
<ele>528.44</ele>
<time>2022-05-25T11:11:15Z</time>
</trkpt>
<trkpt lat="48.305721" lon="10.844984">
<ele>528.44</ele>
<time>2022-05-25T11:11:16Z</time>
</trkpt>
<trkpt lat="48.305668" lon="10.845003">
<ele>528.44</ele>
<time>2022-05-25T11:11:17Z</time>
</trkpt>
<trkpt lat="48.305626" lon="10.844998">
<ele>528.44</ele>
<time>2022-05-25T11:11:18Z</time>
</trkpt>
<trkpt lat="48.305584" lon="10.845003">
<ele>528.44</ele>
<time>2022-05-25T11:11:19Z</time>
</trkpt>
<trkpt lat="48.30555" lon="10.844988">
<ele>528.44</ele>
<time>2022-05-25T11:11:20Z</time>
</trkpt>
<trkpt lat="48.305508" lon="10.844974">
<ele>528.44</ele>
<time>2022-05-25T11:11:21Z</time>
</trkpt>
<trkpt lat="48.30547" lon="10.844945">
<ele>528.44</ele>
<time>2022-05-25T11:11:22Z</time>
</trkpt>
<trkpt lat="48.30542" lon="10.844934">
<ele>528.44</ele>
<time>2022-05-25T11:11:23Z</time>
</trkpt>
<trkpt lat="48.305374" lon="10.844902">
<ele>528.44</ele>
<time>2022-05-25T11:11:24Z</time>
</trkpt>
<trkpt lat="48.305336" lon="10.844879">
<ele>528.44</ele>
<time>2022-05-25T11:11:25Z</time>
</trkpt>
<trkpt lat="48.305305" lon="10.844862">
<ele>528.44</ele>
<time>2022-05-25T11:11:26Z</time>
</trkpt>
<trkpt lat="48.305271" lon="10.84486">
<ele>528.44</ele>
<time>2022-05-25T11:11:27Z</time>
</trkpt>
<trkpt lat="48.305233" lon="10.844844">
<ele>528.44</ele>
<time>2022-05-25T11:11:28Z</time>
</trkpt>
<trkpt lat="48.305202" lon="10.844827">
<ele>528.44</ele>
<time>2022-05-25T11:11:29Z</time>
</trkpt>
<trkpt lat="48.305168" lon="10.844813">
<ele>528.44</ele>
<time>2022-05-25T11:11:30Z</time>
</trkpt>
<trkpt lat="48.305141" lon="10.844806">
<ele>528.44</ele>
<time>2022-05-25T11:11:31Z</time>
</trkpt>
<trkpt lat="48.305119" lon="10.844798">
<ele>528.44</ele>
<time>2022-05-25T11:11:32Z</time>
</trkpt>
<trkpt lat="48.305061" lon="10.844835">
<ele>528.44</ele>
<time>2022-05-25T11:11:33Z</time>
</trkpt>
<trkpt lat="48.305031" lon="10.844814">
<ele>528.44</ele>
<time>2022-05-25T11:11:34Z</time>
</trkpt>
<trkpt lat="48.305004" lon="10.844797">
<ele>528.44</ele>
<time>2022-05-25T11:11:35Z</time>
</trkpt>
<trkpt lat="48.304966" lon="10.84477">
<ele>528.44</ele>
<time>2022-05-25T11:11:36Z</time>
</trkpt>
<trkpt lat="48.30492" lon="10.844751">
<ele>528.44</ele>
<time>2022-05-25T11:11:37Z</time>
</trkpt>
<trkpt lat="48.304871" lon="10.844728">
<ele>528.44</ele>
<time>2022-05-25T11:11:38Z</time>
</trkpt>
<trkpt lat="48.304836" lon="10.844718">
<ele>528.44</ele>
<time>2022-05-25T11:11:39Z</time>
</trkpt>
<trkpt lat="48.304806" lon="10.844707">
<ele>528.44</ele>
<time>2022-05-25T11:11:40Z</time>
</trkpt>
<trkpt lat="48.304752" lon="10.844693">
<ele>528.44</ele>
<time>2022-05-25T11:11:41Z</time>
</trkpt>
<trkpt lat="48.304707" lon="10.844675">
<ele>528.44</ele>
<time>2022-05-25T11:11:42Z</time>
</trkpt>
<trkpt lat="48.304668" lon="10.844651">
<ele>528.44</ele>
<time>2022-05-25T11:11:43Z</time>
</trkpt>
<trkpt lat="48.30463" lon="10.844635">
<ele>528.44</ele>
<time>2022-05-25T11:11:44Z</time>
</trkpt>
<trkpt lat="48.304588" lon="10.844602">
<ele>528.44</ele>
<time>2022-05-25T11:11:45Z</time>
</trkpt>
<trkpt lat="48.304527" lon="10.844608">
<ele>528.44</ele>
<time>2022-05-25T11:11:46Z</time>
</trkpt>
<trkpt lat="48.304466" lon="10.844606">
<ele>528.44</ele>
<time>2022-05-25T11:11:47Z</time>
</trkpt>
<trkpt lat="48.30444" lon="10.844568">
<ele>528.44</ele>
<time>2022-05-25T11:11:48Z</time>
</trkpt>
<trkpt lat="48.304401" lon="10.844531">
<ele>528.697</ele>
<time>2022-05-25T11:11:49Z</time>
</trkpt>
<trkpt lat="48.304375" lon="10.844497">
<ele>528.902</ele>
<time>2022-05-25T11:11:50Z</time>
</trkpt>
<trkpt lat="48.304333" lon="10.844488">
<ele>529.057</ele>
<time>2022-05-25T11:11:51Z</time>
</trkpt>
<trkpt lat="48.304302" lon="10.84445">
<ele>529.164</ele>
<time>2022-05-25T11:11:52Z</time>
</trkpt>
<trkpt lat="48.304272" lon="10.844414">
<ele>529.237</ele>
<time>2022-05-25T11:11:53Z</time>
</trkpt>
<trkpt lat="48.304234" lon="10.84438">
<ele>529.296</ele>
<time>2022-05-25T11:11:54Z</time>
</trkpt>
<trkpt lat="48.304199" lon="10.84435">
<ele>529.361</ele>
<time>2022-05-25T11:11:55Z</time>
</trkpt>
<trkpt lat="48.304161" lon="10.844322">
<ele>529.396</ele>
<time>2022-05-25T11:11:56Z</time>
</trkpt>
<trkpt lat="48.304127" lon="10.844298">
<ele>529.395</ele>
<time>2022-05-25T11:11:57Z</time>
</trkpt>
<trkpt lat="48.304092" lon="10.844267">
<ele>529.395</ele>
<time>2022-05-25T11:11:58Z</time>
</trkpt>
<trkpt lat="48.304062" lon="10.844245">
<ele>529.395</ele>
<time>2022-05-25T11:11:59Z</time>
</trkpt>
<trkpt lat="48.30402" lon="10.844225">
<ele>529.396</ele>
<time>2022-05-25T11:12:00Z</time>
</trkpt>
<trkpt lat="48.303978" lon="10.844215">
<ele>529.396</ele>
<time>2022-05-25T11:12:01Z</time>
</trkpt>
<trkpt lat="48.30394" lon="10.844209">
<ele>529.396</ele>
<time>2022-05-25T11:12:02Z</time>
</trkpt>
<trkpt lat="48.303902" lon="10.844202">
<ele>529.395</ele>
<time>2022-05-25T11:12:03Z</time>
</trkpt>
<trkpt lat="48.303864" lon="10.844193">
<ele>529.396</ele>
<time>2022-05-25T11:12:04Z</time>
</trkpt>
<trkpt lat="48.303806" lon="10.844167">
<ele>529.396</ele>
<time>2022-05-25T11:12:05Z</time>
</trkpt>
<trkpt lat="48.303757" lon="10.844147">
<ele>529.395</ele>
<time>2022-05-25T11:12:06Z</time>
</trkpt>
<trkpt lat="48.303703" lon="10.844154">
<ele>529.396</ele>
<time>2022-05-25T11:12:07Z</time>
</trkpt>
<trkpt lat="48.303665" lon="10.844142">
<ele>529.396</ele>
<time>2022-05-25T11:12:08Z</time>
</trkpt>
<trkpt lat="48.303616" lon="10.844121">
<ele>529.396</ele>
<time>2022-05-25T11:12:09Z</time>
</trkpt>
<trkpt lat="48.303577" lon="10.844104">
<ele>529.395</ele>
<time>2022-05-25T11:12:10Z</time>
</trkpt>
<trkpt lat="48.303535" lon="10.844083">
<ele>529.396</ele>
<time>2022-05-25T11:12:11Z</time>
</trkpt>
<trkpt lat="48.303482" lon="10.844077">
<ele>529.396</ele>
<time>2022-05-25T11:12:12Z</time>
</trkpt>
<trkpt lat="48.30344" lon="10.844047">
<ele>529.396</ele>
<time>2022-05-25T11:12:13Z</time>
</trkpt>
<trkpt lat="48.303402" lon="10.844015">
<ele>529.395</ele>
<time>2022-05-25T11:12:14Z</time>
</trkpt>
<trkpt lat="48.303368" lon="10.84399">
<ele>529.396</ele>
<time>2022-05-25T11:12:15Z</time>
</trkpt>
<trkpt lat="48.303337" lon="10.843964">
<ele>529.396</ele>
<time>2022-05-25T11:12:16Z</time>
</trkpt>
<trkpt lat="48.303303" lon="10.84394">
<ele>529.396</ele>
<time>2022-05-25T11:12:17Z</time>
</trkpt>
<trkpt lat="48.303272" lon="10.843911">
<ele>529.396</ele>
<time>2022-05-25T11:12:18Z</time>
</trkpt>
<trkpt lat="48.303242" lon="10.843892">
<ele>529.396</ele>
<time>2022-05-25T11:12:19Z</time>
</trkpt>
<trkpt lat="48.303207" lon="10.843877">
<ele>529.396</ele>
<time>2022-05-25T11:12:20Z</time>
</trkpt>
<trkpt lat="48.303173" lon="10.843867">
<ele>529.396</ele>
<time>2022-05-25T11:12:21Z</time>
</trkpt>
<trkpt lat="48.303139" lon="10.843863">
<ele>529.396</ele>
<time>2022-05-25T11:12:22Z</time>
</trkpt>
<trkpt lat="48.303112" lon="10.843871">
<ele>529.395</ele>
<time>2022-05-25T11:12:23Z</time>
</trkpt>
<trkpt lat="48.303085" lon="10.84389">
<ele>529.395</ele>
<time>2022-05-25T11:12:24Z</time>
</trkpt>
<trkpt lat="48.303051" lon="10.843904">
<ele>529.396</ele>
<time>2022-05-25T11:12:25Z</time>
</trkpt>
<trkpt lat="48.303024" lon="10.843915">
<ele>529.396</ele>
<time>2022-05-25T11:12:26Z</time>
</trkpt>
<trkpt lat="48.302998" lon="10.843932">
<ele>529.395</ele>
<time>2022-05-25T11:12:27Z</time>
</trkpt>
<trkpt lat="48.30294" lon="10.843966">
<ele>529.396</ele>
<time>2022-05-25T11:12:28Z</time>
</trkpt>
<trkpt lat="48.30291" lon="10.843982">
<ele>529.396</ele>
<time>2022-05-25T11:12:29Z</time>
</trkpt>
<trkpt lat="48.302872" lon="10.844016">
<ele>529.396</ele>
<time>2022-05-25T11:12:30Z</time>
</trkpt>
<trkpt lat="48.302841" lon="10.844033">
<ele>529.396</ele>
<time>2022-05-25T11:12:31Z</time>
</trkpt>
<trkpt lat="48.302811" lon="10.844044">
<ele>529.396</ele>
<time>2022-05-25T11:12:32Z</time>
</trkpt>
<trkpt lat="48.302769" lon="10.844069">
<ele>529.396</ele>
<time>2022-05-25T11:12:33Z</time>
</trkpt>
<trkpt lat="48.302734" lon="10.844097">
<ele>529.396</ele>
<time>2022-05-25T11:12:34Z</time>
</trkpt>
<trkpt lat="48.302704" lon="10.84412">
<ele>529.396</ele>
<time>2022-05-25T11:12:35Z</time>
</trkpt>
<trkpt lat="48.302673" lon="10.844144">
<ele>529.395</ele>
<time>2022-05-25T11:12:36Z</time>
</trkpt>
<trkpt lat="48.302628" lon="10.844177">
<ele>529.396</ele>
<time>2022-05-25T11:12:37Z</time>
</trkpt>
<trkpt lat="48.302589" lon="10.844205">
<ele>529.395</ele>
<time>2022-05-25T11:12:38Z</time>
</trkpt>
<trkpt lat="48.302555" lon="10.844218">
<ele>529.395</ele>
<time>2022-05-25T11:12:39Z</time>
</trkpt>
<trkpt lat="48.302525" lon="10.844244">
<ele>529.395</ele>
<time>2022-05-25T11:12:40Z</time>
</trkpt>
<trkpt lat="48.302475" lon="10.844272">
<ele>529.396</ele>
<time>2022-05-25T11:12:41Z</time>
</trkpt>
<trkpt lat="48.302437" lon="10.844295">
<ele>529.396</ele>
<time>2022-05-25T11:12:42Z</time>
</trkpt>
<trkpt lat="48.302406" lon="10.844322">
<ele>529.396</ele>
<time>2022-05-25T11:12:43Z</time>
</trkpt>
<trkpt lat="48.302387" lon="10.844361">
<ele>529.395</ele>
<time>2022-05-25T11:12:44Z</time>
</trkpt>
<trkpt lat="48.302372" lon="10.84441">
<ele>529.396</ele>
<time>2022-05-25T11:12:45Z</time>
</trkpt>
<trkpt lat="48.302349" lon="10.84446">
<ele>529.396</ele>
<time>2022-05-25T11:12:46Z</time>
</trkpt>
<trkpt lat="48.302315" lon="10.84453">
<ele>529.396</ele>
<time>2022-05-25T11:12:47Z</time>
</trkpt>
<trkpt lat="48.302299" lon="10.844571">
<ele>529.396</ele>
<time>2022-05-25T11:12:48Z</time>
</trkpt>
<trkpt lat="48.302277" lon="10.844619">
<ele>529.395</ele>
<time>2022-05-25T11:12:49Z</time>
</trkpt>
<trkpt lat="48.302242" lon="10.84469">
<ele>529.396</ele>
<time>2022-05-25T11:12:50Z</time>
</trkpt>
<trkpt lat="48.302223" lon="10.844749">
<ele>529.396</ele>
<time>2022-05-25T11:12:51Z</time>
</trkpt>
<trkpt lat="48.302197" lon="10.844804">
<ele>529.395</ele>
<time>2022-05-25T11:12:52Z</time>
</trkpt>
<trkpt lat="48.30217" lon="10.844869">
<ele>529.395</ele>
<time>2022-05-25T11:12:53Z</time>
</trkpt>
<trkpt lat="48.302147" lon="10.84492">
<ele>529.396</ele>
<time>2022-05-25T11:12:54Z</time>
</trkpt>
<trkpt lat="48.302124" lon="10.84497">
<ele>529.396</ele>
<time>2022-05-25T11:12:55Z</time>
</trkpt>
<trkpt lat="48.302094" lon="10.844996">
<ele>529.395</ele>
<time>2022-05-25T11:12:56Z</time>
</trkpt>
<trkpt lat="48.302063" lon="10.845049">
<ele>529.396</ele>
<time>2022-05-25T11:12:57Z</time>
</trkpt>
<trkpt lat="48.302032" lon="10.84511">
<ele>529.396</ele>
<time>2022-05-25T11:12:58Z</time>
</trkpt>
<trkpt lat="48.302006" lon="10.845161">
<ele>529.395</ele>
<time>2022-05-25T11:12:59Z</time>
</trkpt>
<trkpt lat="48.301983" lon="10.8452">
<ele>529.396</ele>
<time>2022-05-25T11:13:00Z</time>
</trkpt>
<trkpt lat="48.30196" lon="10.845238">
<ele>529.396</ele>
<time>2022-05-25T11:13:01Z</time>
</trkpt>
<trkpt lat="48.301929" lon="10.845273">
<ele>529.396</ele>
<time>2022-05-25T11:13:02Z</time>
</trkpt>
<trkpt lat="48.301895" lon="10.845313">
<ele>529.396</ele>
<time>2022-05-25T11:13:03Z</time>
</trkpt>
<trkpt lat="48.301872" lon="10.845352">
<ele>529.396</ele>
<time>2022-05-25T11:13:04Z</time>
</trkpt>
<trkpt lat="48.301849" lon="10.845384">
<ele>529.396</ele>
<time>2022-05-25T11:13:05Z</time>
</trkpt>
<trkpt lat="48.301819" lon="10.845415">
<ele>529.395</ele>
<time>2022-05-25T11:13:06Z</time>
</trkpt>
<trkpt lat="48.301796" lon="10.845462">
<ele>529.396</ele>
<time>2022-05-25T11:13:07Z</time>
</trkpt>
<trkpt lat="48.301777" lon="10.845499">
<ele>529.395</ele>
<time>2022-05-25T11:13:08Z</time>
</trkpt>
<trkpt lat="48.30175" lon="10.845541">
<ele>529.396</ele>
<time>2022-05-25T11:13:09Z</time>
</trkpt>
<trkpt lat="48.30172" lon="10.84559">
<ele>529.396</ele>
<time>2022-05-25T11:13:10Z</time>
</trkpt>
<trkpt lat="48.301701" lon="10.845629">
<ele>529.396</ele>
<time>2022-05-25T11:13:11Z</time>
</trkpt>
<trkpt lat="48.301674" lon="10.845665">
<ele>529.395</ele>
<time>2022-05-25T11:13:12Z</time>
</trkpt>
<trkpt lat="48.301655" lon="10.845702">
<ele>529.396</ele>
<time>2022-05-25T11:13:13Z</time>
</trkpt>
<trkpt lat="48.301628" lon="10.845743">
<ele>529.396</ele>
<time>2022-05-25T11:13:14Z</time>
</trkpt>
<trkpt lat="48.301601" lon="10.84578">
<ele>529.396</ele>
<time>2022-05-25T11:13:15Z</time>
</trkpt>
<trkpt lat="48.301582" lon="10.845828">
<ele>529.396</ele>
<time>2022-05-25T11:13:16Z</time>
</trkpt>
<trkpt lat="48.301548" lon="10.845875">
<ele>529.396</ele>
<time>2022-05-25T11:13:17Z</time>
</trkpt>
<trkpt lat="48.301514" lon="10.845917">
<ele>529.395</ele>
<time>2022-05-25T11:13:18Z</time>
</trkpt>
<trkpt lat="48.301476" lon="10.845928">
<ele>529.396</ele>
<time>2022-05-25T11:13:19Z</time>
</trkpt>
<trkpt lat="48.301445" lon="10.845922">
<ele>529.396</ele>
<time>2022-05-25T11:13:20Z</time>
</trkpt>
<trkpt lat="48.301418" lon="10.845917">
<ele>529.395</ele>
<time>2022-05-25T11:13:21Z</time>
</trkpt>
<trkpt lat="48.301392" lon="10.845919">
<ele>529.395</ele>
<time>2022-05-25T11:13:22Z</time>
</trkpt>
<trkpt lat="48.301365" lon="10.845905">
<ele>529.396</ele>
<time>2022-05-25T11:13:23Z</time>
</trkpt>
<trkpt lat="48.301338" lon="10.845883">
<ele>529.395</ele>
<time>2022-05-25T11:13:24Z</time>
</trkpt>
<trkpt lat="48.301315" lon="10.845854">
<ele>529.395</ele>
<time>2022-05-25T11:13:25Z</time>
</trkpt>
<trkpt lat="48.3013" lon="10.845825">
<ele>529.396</ele>
<time>2022-05-25T11:13:26Z</time>
</trkpt>
<trkpt lat="48.301285" lon="10.845801">
<ele>529.395</ele>
<time>2022-05-25T11:13:27Z</time>
</trkpt>
<trkpt lat="48.301266" lon="10.84577">
<ele>529.396</ele>
<time>2022-05-25T11:13:28Z</time>
</trkpt>
<trkpt lat="48.301247" lon="10.845723">
<ele>529.396</ele>
<time>2022-05-25T11:13:29Z</time>
</trkpt>
<trkpt lat="48.301231" lon="10.845678">
<ele>529.396</ele>
<time>2022-05-25T11:13:30Z</time>
</trkpt>
<trkpt lat="48.301201" lon="10.845645">
<ele>529.396</ele>
<time>2022-05-25T11:13:31Z</time>
</trkpt>
<trkpt lat="48.301182" lon="10.845596">
<ele>529.396</ele>
<time>2022-05-25T11:13:32Z</time>
</trkpt>
<trkpt lat="48.301167" lon="10.845551">
<ele>529.396</ele>
<time>2022-05-25T11:13:33Z</time>
</trkpt>
<trkpt lat="48.301144" lon="10.845507">
<ele>529.396</ele>
<time>2022-05-25T11:13:34Z</time>
</trkpt>
<trkpt lat="48.301132" lon="10.845473">
<ele>529.395</ele>
<time>2022-05-25T11:13:35Z</time>
</trkpt>
<trkpt lat="48.301125" lon="10.845442">
<ele>529.395</ele>
<time>2022-05-25T11:13:36Z</time>
</trkpt>
<trkpt lat="48.301113" lon="10.845409">
<ele>529.396</ele>
<time>2022-05-25T11:13:37Z</time>
</trkpt>
<trkpt lat="48.301105" lon="10.845368">
<ele>529.396</ele>
<time>2022-05-25T11:13:38Z</time>
</trkpt>
<trkpt lat="48.30109" lon="10.845333">
<ele>529.396</ele>
<time>2022-05-25T11:13:39Z</time>
</trkpt>
<trkpt lat="48.301071" lon="10.845308">
<ele>529.396</ele>
<time>2022-05-25T11:13:40Z</time>
</trkpt>
<trkpt lat="48.301067" lon="10.845263">
<ele>529.396</ele>
<time>2022-05-25T11:13:41Z</time>
</trkpt>
<trkpt lat="48.301071" lon="10.845208">
<ele>529.396</ele>
<time>2022-05-25T11:13:42Z</time>
</trkpt>
<trkpt lat="48.301075" lon="10.845148">
<ele>529.396</ele>
<time>2022-05-25T11:13:43Z</time>
</trkpt>
<trkpt lat="48.301079" lon="10.845083">
<ele>529.395</ele>
<time>2022-05-25T11:13:44Z</time>
</trkpt>
<trkpt lat="48.301086" lon="10.845023">
<ele>529.396</ele>
<time>2022-05-25T11:13:45Z</time>
</trkpt>
<trkpt lat="48.30109" lon="10.844969">
<ele>529.395</ele>
<time>2022-05-25T11:13:46Z</time>
</trkpt>
<trkpt lat="48.301094" lon="10.844938">
<ele>529.396</ele>
<time>2022-05-25T11:13:47Z</time>
</trkpt>
<trkpt lat="48.301105" lon="10.844869">
<ele>529.395</ele>
<time>2022-05-25T11:13:48Z</time>
</trkpt>
<trkpt lat="48.301105" lon="10.844807">
<ele>529.396</ele>
<time>2022-05-25T11:13:49Z</time>
</trkpt>
<trkpt lat="48.301105" lon="10.844757">
<ele>529.395</ele>
<time>2022-05-25T11:13:50Z</time>
</trkpt>
<trkpt lat="48.301102" lon="10.8447">
<ele>529.396</ele>
<time>2022-05-25T11:13:51Z</time>
</trkpt>
<trkpt lat="48.30109" lon="10.844625">
<ele>529.396</ele>
<time>2022-05-25T11:13:52Z</time>
</trkpt>
<trkpt lat="48.30109" lon="10.844562">
<ele>529.396</ele>
<time>2022-05-25T11:13:53Z</time>
</trkpt>
<trkpt lat="48.30109" lon="10.8445">
<ele>529.395</ele>
<time>2022-05-25T11:13:54Z</time>
</trkpt>
<trkpt lat="48.30109" lon="10.844441">
<ele>529.396</ele>
<time>2022-05-25T11:13:55Z</time>
</trkpt>
<trkpt lat="48.301086" lon="10.844389">
<ele>529.395</ele>
<time>2022-05-25T11:13:56Z</time>
</trkpt>
<trkpt lat="48.301086" lon="10.84433">
<ele>529.396</ele>
<time>2022-05-25T11:13:57Z</time>
</trkpt>
<trkpt lat="48.301086" lon="10.844278">
<ele>529.395</ele>
<time>2022-05-25T11:13:58Z</time>
</trkpt>
<trkpt lat="48.301094" lon="10.844238">
<ele>529.395</ele>
<time>2022-05-25T11:13:59Z</time>
</trkpt>
<trkpt lat="48.30109" lon="10.844188">
<ele>529.396</ele>
<time>2022-05-25T11:14:00Z</time>
</trkpt>
<trkpt lat="48.301086" lon="10.844151">
<ele>529.396</ele>
<time>2022-05-25T11:14:01Z</time>
</trkpt>
<trkpt lat="48.301083" lon="10.844065">
<ele>529.395</ele>
<time>2022-05-25T11:14:02Z</time>
</trkpt>
<trkpt lat="48.301079" lon="10.843988">
<ele>529.395</ele>
<time>2022-05-25T11:14:03Z</time>
</trkpt>
<trkpt lat="48.301067" lon="10.843906">
<ele>529.396</ele>
<time>2022-05-25T11:14:04Z</time>
</trkpt>
<trkpt lat="48.301052" lon="10.84384">
<ele>529.396</ele>
<time>2022-05-25T11:14:05Z</time>
</trkpt>
<trkpt lat="48.301033" lon="10.84378">
<ele>529.396</ele>
<time>2022-05-25T11:14:06Z</time>
</trkpt>
<trkpt lat="48.301018" lon="10.843696">
<ele>529.396</ele>
<time>2022-05-25T11:14:07Z</time>
</trkpt>
<trkpt lat="48.300987" lon="10.843643">
<ele>529.396</ele>
<time>2022-05-25T11:14:08Z</time>
</trkpt>
<trkpt lat="48.300964" lon="10.843585">
<ele>529.395</ele>
<time>2022-05-25T11:14:09Z</time>
</trkpt>
<trkpt lat="48.300919" lon="10.84357">
<ele>529.395</ele>
<time>2022-05-25T11:14:10Z</time>
</trkpt>
<trkpt lat="48.300896" lon="10.84351">
<ele>529.396</ele>
<time>2022-05-25T11:14:11Z</time>
</trkpt>
<trkpt lat="48.300869" lon="10.843442">
<ele>529.396</ele>
<time>2022-05-25T11:14:12Z</time>
</trkpt>
<trkpt lat="48.300842" lon="10.843369">
<ele>529.395</ele>
<time>2022-05-25T11:14:13Z</time>
</trkpt>
<trkpt lat="48.300808" lon="10.843298">
<ele>529.396</ele>
<time>2022-05-25T11:14:14Z</time>
</trkpt>
<trkpt lat="48.300777" lon="10.843241">
<ele>529.396</ele>
<time>2022-05-25T11:14:15Z</time>
</trkpt>
<trkpt lat="48.300747" lon="10.843184">
<ele>529.664</ele>
<time>2022-05-25T11:14:16Z</time>
</trkpt>
<trkpt lat="48.300709" lon="10.84313">
<ele>529.867</ele>
<time>2022-05-25T11:14:17Z</time>
</trkpt>
<trkpt lat="48.300671" lon="10.843083">
<ele>530.013</ele>
<time>2022-05-25T11:14:18Z</time>
</trkpt>
<trkpt lat="48.300621" lon="10.843046">
<ele>530.12</ele>
<time>2022-05-25T11:14:19Z</time>
</trkpt>
<trkpt lat="48.300564" lon="10.84303">
<ele>530.195</ele>
<time>2022-05-25T11:14:20Z</time>
</trkpt>
<trkpt lat="48.300518" lon="10.843012">
<ele>530.242</ele>
<time>2022-05-25T11:14:21Z</time>
</trkpt>
<trkpt lat="48.300476" lon="10.842999">
<ele>530.265</ele>
<time>2022-05-25T11:14:22Z</time>
</trkpt>
<trkpt lat="48.300434" lon="10.842988">
<ele>530.265</ele>
<time>2022-05-25T11:14:23Z</time>
</trkpt>
<trkpt lat="48.300388" lon="10.842988">
<ele>530.265</ele>
<time>2022-05-25T11:14:24Z</time>
</trkpt>
<trkpt lat="48.300343" lon="10.843001">
<ele>530.265</ele>
<time>2022-05-25T11:14:25Z</time>
</trkpt>
<trkpt lat="48.300301" lon="10.843005">
<ele>530.265</ele>
<time>2022-05-25T11:14:26Z</time>
</trkpt>
<trkpt lat="48.300255" lon="10.843001">
<ele>530.265</ele>
<time>2022-05-25T11:14:27Z</time>
</trkpt>
<trkpt lat="48.300217" lon="10.842994">
<ele>530.265</ele>
<time>2022-05-25T11:14:28Z</time>
</trkpt>
<trkpt lat="48.300175" lon="10.842981">
<ele>530.265</ele>
<time>2022-05-25T11:14:29Z</time>
</trkpt>
<trkpt lat="48.300125" lon="10.842977">
<ele>530.265</ele>
<time>2022-05-25T11:14:30Z</time>
</trkpt>
<trkpt lat="48.300083" lon="10.842964">
<ele>530.265</ele>
<time>2022-05-25T11:14:31Z</time>
</trkpt>
<trkpt lat="48.300045" lon="10.842935">
<ele>530.265</ele>
<time>2022-05-25T11:14:32Z</time>
</trkpt>
<trkpt lat="48.299999" lon="10.842908">
<ele>530.265</ele>
<time>2022-05-25T11:14:33Z</time>
</trkpt>
<trkpt lat="48.299961" lon="10.842882">
<ele>530.265</ele>
<time>2022-05-25T11:14:34Z</time>
</trkpt>
<trkpt lat="48.299919" lon="10.842855">
<ele>530.265</ele>
<time>2022-05-25T11:14:35Z</time>
</trkpt>
<trkpt lat="48.299885" lon="10.842834">
<ele>530.265</ele>
<time>2022-05-25T11:14:36Z</time>
</trkpt>
<trkpt lat="48.29985" lon="10.842822">
<ele>530.265</ele>
<time>2022-05-25T11:14:37Z</time>
</trkpt>
<trkpt lat="48.299816" lon="10.842818">
<ele>530.265</ele>
<time>2022-05-25T11:14:38Z</time>
</trkpt>
<trkpt lat="48.299786" lon="10.842815">
<ele>530.265</ele>
<time>2022-05-25T11:14:39Z</time>
</trkpt>
<trkpt lat="48.299751" lon="10.84281">
<ele>530.265</ele>
<time>2022-05-25T11:14:40Z</time>
</trkpt>
<trkpt lat="48.299717" lon="10.842809">
<ele>530.265</ele>
<time>2022-05-25T11:14:41Z</time>
</trkpt>
<trkpt lat="48.299686" lon="10.842805">
<ele>530.265</ele>
<time>2022-05-25T11:14:42Z</time>
</trkpt>
<trkpt lat="48.299648" lon="10.842794">
<ele>530.265</ele>
<time>2022-05-25T11:14:43Z</time>
</trkpt>
<trkpt lat="48.29961" lon="10.84278">
<ele>530.265</ele>
<time>2022-05-25T11:14:44Z</time>
</trkpt>
<trkpt lat="48.299561" lon="10.842772">
<ele>530.265</ele>
<time>2022-05-25T11:14:45Z</time>
</trkpt>
<trkpt lat="48.299519" lon="10.842745">
<ele>530.265</ele>
<time>2022-05-25T11:14:46Z</time>
</trkpt>
<trkpt lat="48.299469" lon="10.842728">
<ele>530.265</ele>
<time>2022-05-25T11:14:47Z</time>
</trkpt>
<trkpt lat="48.299427" lon="10.842702">
<ele>530.265</ele>
<time>2022-05-25T11:14:48Z</time>
</trkpt>
<trkpt lat="48.299389" lon="10.842671">
<ele>530.265</ele>
<time>2022-05-25T11:14:49Z</time>
</trkpt>
<trkpt lat="48.299355" lon="10.842637">
<ele>530.265</ele>
<time>2022-05-25T11:14:50Z</time>
</trkpt>
<trkpt lat="48.299316" lon="10.842604">
<ele>530.265</ele>
<time>2022-05-25T11:14:51Z</time>
</trkpt>
<trkpt lat="48.299282" lon="10.842577">
<ele>530.265</ele>
<time>2022-05-25T11:14:52Z</time>
</trkpt>
<trkpt lat="48.299252" lon="10.842548">
<ele>530.265</ele>
<time>2022-05-25T11:14:53Z</time>
</trkpt>
<trkpt lat="48.29921" lon="10.842526">
<ele>530.265</ele>
<time>2022-05-25T11:14:54Z</time>
</trkpt>
<trkpt lat="48.299179" lon="10.842513">
<ele>530.265</ele>
<time>2022-05-25T11:14:55Z</time>
</trkpt>
<trkpt lat="48.299141" lon="10.842504">
<ele>530.265</ele>
<time>2022-05-25T11:14:56Z</time>
</trkpt>
<trkpt lat="48.299099" lon="10.842488">
<ele>530.265</ele>
<time>2022-05-25T11:14:57Z</time>
</trkpt>
<trkpt lat="48.299061" lon="10.84248">
<ele>530.265</ele>
<time>2022-05-25T11:14:58Z</time>
</trkpt>
<trkpt lat="48.299026" lon="10.842466">
<ele>530.265</ele>
<time>2022-05-25T11:14:59Z</time>
</trkpt>
<trkpt lat="48.298996" lon="10.842457">
<ele>530.265</ele>
<time>2022-05-25T11:15:00Z</time>
</trkpt>
<trkpt lat="48.298962" lon="10.842451">
<ele>530.265</ele>
<time>2022-05-25T11:15:01Z</time>
</trkpt>
<trkpt lat="48.298923" lon="10.842439">
<ele>530.265</ele>
<time>2022-05-25T11:15:02Z</time>
</trkpt>
<trkpt lat="48.298882" lon="10.842425">
<ele>530.265</ele>
<time>2022-05-25T11:15:03Z</time>
</trkpt>
<trkpt lat="48.298832" lon="10.842423">
<ele>530.265</ele>
<time>2022-05-25T11:15:04Z</time>
</trkpt>
<trkpt lat="48.298786" lon="10.842428">
<ele>530.265</ele>
<time>2022-05-25T11:15:05Z</time>
</trkpt>
<trkpt lat="48.298752" lon="10.842422">
<ele>530.265</ele>
<time>2022-05-25T11:15:06Z</time>
</trkpt>
<trkpt lat="48.298714" lon="10.842425">
<ele>530.265</ele>
<time>2022-05-25T11:15:07Z</time>
</trkpt>
<trkpt lat="48.298679" lon="10.84241">
<ele>530.265</ele>
<time>2022-05-25T11:15:08Z</time>
</trkpt>
<trkpt lat="48.298637" lon="10.84239">
<ele>530.265</ele>
<time>2022-05-25T11:15:09Z</time>
</trkpt>
<trkpt lat="48.298595" lon="10.842372">
<ele>530.265</ele>
<time>2022-05-25T11:15:10Z</time>
</trkpt>
<trkpt lat="48.298557" lon="10.842355">
<ele>530.265</ele>
<time>2022-05-25T11:15:11Z</time>
</trkpt>
<trkpt lat="48.298527" lon="10.842332">
<ele>530.265</ele>
<time>2022-05-25T11:15:12Z</time>
</trkpt>
<trkpt lat="48.298485" lon="10.84232">
<ele>530.265</ele>
<time>2022-05-25T11:15:13Z</time>
</trkpt>
<trkpt lat="48.298458" lon="10.842304">
<ele>530.265</ele>
<time>2022-05-25T11:15:14Z</time>
</trkpt>
<trkpt lat="48.298424" lon="10.842283">
<ele>530.265</ele>
<time>2022-05-25T11:15:15Z</time>
</trkpt>
<trkpt lat="48.298393" lon="10.842265">
<ele>530.265</ele>
<time>2022-05-25T11:15:16Z</time>
</trkpt>
<trkpt lat="48.298359" lon="10.842243">
<ele>530.265</ele>
<time>2022-05-25T11:15:17Z</time>
</trkpt>
<trkpt lat="48.298317" lon="10.842241">
<ele>530.265</ele>
<time>2022-05-25T11:15:18Z</time>
</trkpt>
<trkpt lat="48.298279" lon="10.842225">
<ele>530.265</ele>
<time>2022-05-25T11:15:19Z</time>
</trkpt>
<trkpt lat="48.298244" lon="10.842214">
<ele>530.265</ele>
<time>2022-05-25T11:15:20Z</time>
</trkpt>
<trkpt lat="48.298203" lon="10.842198">
<ele>530.265</ele>
<time>2022-05-25T11:15:21Z</time>
</trkpt>
<trkpt lat="48.298168" lon="10.842175">
<ele>530.265</ele>
<time>2022-05-25T11:15:22Z</time>
</trkpt>
<trkpt lat="48.298138" lon="10.842141">
<ele>530.265</ele>
<time>2022-05-25T11:15:23Z</time>
</trkpt>
<trkpt lat="48.298103" lon="10.842125">
<ele>530.265</ele>
<time>2022-05-25T11:15:24Z</time>
</trkpt>
<trkpt lat="48.298061" lon="10.842098">
<ele>530.265</ele>
<time>2022-05-25T11:15:25Z</time>
</trkpt>
<trkpt lat="48.298012" lon="10.842089">
<ele>530.265</ele>
<time>2022-05-25T11:15:26Z</time>
</trkpt>
<trkpt lat="48.29797" lon="10.842067">
<ele>530.265</ele>
<time>2022-05-25T11:15:27Z</time>
</trkpt>
<trkpt lat="48.29792" lon="10.84204">
<ele>530.265</ele>
<time>2022-05-25T11:15:28Z</time>
</trkpt>
<trkpt lat="48.297886" lon="10.842031">
<ele>530.265</ele>
<time>2022-05-25T11:15:29Z</time>
</trkpt>
<trkpt lat="48.297852" lon="10.842007">
<ele>530.265</ele>
<time>2022-05-25T11:15:30Z</time>
</trkpt>
<trkpt lat="48.297817" lon="10.841978">
<ele>530.265</ele>
<time>2022-05-25T11:15:31Z</time>
</trkpt>
<trkpt lat="48.297783" lon="10.841946">
<ele>530.265</ele>
<time>2022-05-25T11:15:32Z</time>
</trkpt>
<trkpt lat="48.297745" lon="10.841929">
<ele>530.265</ele>
<time>2022-05-25T11:15:33Z</time>
</trkpt>
<trkpt lat="48.29771" lon="10.841915">
<ele>530.265</ele>
<time>2022-05-25T11:15:34Z</time>
</trkpt>
<trkpt lat="48.297684" lon="10.841895">
<ele>530.265</ele>
<time>2022-05-25T11:15:35Z</time>
</trkpt>
<trkpt lat="48.297649" lon="10.841888">
<ele>530.265</ele>
<time>2022-05-25T11:15:36Z</time>
</trkpt>
<trkpt lat="48.297619" lon="10.841866">
<ele>530.534</ele>
<time>2022-05-25T11:15:37Z</time>
</trkpt>
<trkpt lat="48.297596" lon="10.841839">
<ele>530.741</ele>
<time>2022-05-25T11:15:38Z</time>
</trkpt>
<trkpt lat="48.297558" lon="10.841799">
<ele>530.901</ele>
<time>2022-05-25T11:15:39Z</time>
</trkpt>
<trkpt lat="48.29752" lon="10.841779">
<ele>530.792</ele>
<time>2022-05-25T11:15:40Z</time>
</trkpt>
<trkpt lat="48.297474" lon="10.841745">
<ele>530.688</ele>
<time>2022-05-25T11:15:41Z</time>
</trkpt>
<trkpt lat="48.297417" lon="10.841703">
<ele>530.588</ele>
<time>2022-05-25T11:15:42Z</time>
</trkpt>
<trkpt lat="48.297352" lon="10.841674">
<ele>530.498</ele>
<time>2022-05-25T11:15:43Z</time>
</trkpt>
<trkpt lat="48.297302" lon="10.841643">
<ele>530.475</ele>
<time>2022-05-25T11:15:44Z</time>
</trkpt>
<trkpt lat="48.297256" lon="10.841615">
<ele>530.391</ele>
<time>2022-05-25T11:15:45Z</time>
</trkpt>
<trkpt lat="48.297211" lon="10.84159">
<ele>530.322</ele>
<time>2022-05-25T11:15:46Z</time>
</trkpt>
<trkpt lat="48.297165" lon="10.841562">
<ele>530.286</ele>
<time>2022-05-25T11:15:47Z</time>
</trkpt>
<trkpt lat="48.297123" lon="10.841536">
<ele>530.265</ele>
<time>2022-05-25T11:15:48Z</time>
</trkpt>
<trkpt lat="48.297089" lon="10.841514">
<ele>530.265</ele>
<time>2022-05-25T11:15:49Z</time>
</trkpt>
<trkpt lat="48.297054" lon="10.841492">
<ele>530.265</ele>
<time>2022-05-25T11:15:50Z</time>
</trkpt>
<trkpt lat="48.29702" lon="10.84146">
<ele>530.265</ele>
<time>2022-05-25T11:15:51Z</time>
</trkpt>
<trkpt lat="48.296986" lon="10.841448">
<ele>530.265</ele>
<time>2022-05-25T11:15:52Z</time>
</trkpt>
<trkpt lat="48.296955" lon="10.841431">
<ele>530.265</ele>
<time>2022-05-25T11:15:53Z</time>
</trkpt>
<trkpt lat="48.296925" lon="10.841389">
<ele>530.265</ele>
<time>2022-05-25T11:15:54Z</time>
</trkpt>
<trkpt lat="48.296898" lon="10.841357">
<ele>530.265</ele>
<time>2022-05-25T11:15:55Z</time>
</trkpt>
<trkpt lat="48.296864" lon="10.841326">
<ele>530.265</ele>
<time>2022-05-25T11:15:56Z</time>
</trkpt>
<trkpt lat="48.296829" lon="10.841292">
<ele>530.265</ele>
<time>2022-05-25T11:15:57Z</time>
</trkpt>
<trkpt lat="48.296803" lon="10.841261">
<ele>530.265</ele>
<time>2022-05-25T11:15:58Z</time>
</trkpt>
<trkpt lat="48.29678" lon="10.841244">
<ele>530.265</ele>
<time>2022-05-25T11:15:59Z</time>
</trkpt>
<trkpt lat="48.296764" lon="10.841195">
<ele>530.265</ele>
<time>2022-05-25T11:16:00Z</time>
</trkpt>
<trkpt lat="48.296757" lon="10.841155">
<ele>530.265</ele>
<time>2022-05-25T11:16:01Z</time>
</trkpt>
<trkpt lat="48.296749" lon="10.841108">
<ele>530.265</ele>
<time>2022-05-25T11:16:02Z</time>
</trkpt>
<trkpt lat="48.296741" lon="10.841062">
<ele>530.265</ele>
<time>2022-05-25T11:16:03Z</time>
</trkpt>
<trkpt lat="48.296734" lon="10.841008">
<ele>530.265</ele>
<time>2022-05-25T11:16:04Z</time>
</trkpt>
<trkpt lat="48.296726" lon="10.840959">
<ele>530.265</ele>
<time>2022-05-25T11:16:05Z</time>
</trkpt>
<trkpt lat="48.296715" lon="10.840911">
<ele>530.265</ele>
<time>2022-05-25T11:16:06Z</time>
</trkpt>
<trkpt lat="48.296707" lon="10.840853">
<ele>530.265</ele>
<time>2022-05-25T11:16:07Z</time>
</trkpt>
<trkpt lat="48.296684" lon="10.840765">
<ele>530.585</ele>
<time>2022-05-25T11:16:08Z</time>
</trkpt>
<trkpt lat="48.296669" lon="10.840695">
<ele>530.835</ele>
<time>2022-05-25T11:16:09Z</time>
</trkpt>
<trkpt lat="48.29665" lon="10.840622">
<ele>531.003</ele>
<time>2022-05-25T11:16:10Z</time>
</trkpt>
<trkpt lat="48.296631" lon="10.840549">
<ele>531.124</ele>
<time>2022-05-25T11:16:11Z</time>
</trkpt>
<trkpt lat="48.2966" lon="10.840477">
<ele>531.198</ele>
<time>2022-05-25T11:16:12Z</time>
</trkpt>
<trkpt lat="48.296566" lon="10.840421">
<ele>531.253</ele>
<time>2022-05-25T11:16:13Z</time>
</trkpt>
<trkpt lat="48.296532" lon="10.840364">
<ele>531.288</ele>
<time>2022-05-25T11:16:14Z</time>
</trkpt>
<trkpt lat="48.296497" lon="10.840315">
<ele>531.308</ele>
<time>2022-05-25T11:16:15Z</time>
</trkpt>
<trkpt lat="48.296471" lon="10.840265">
<ele>531.308</ele>
<time>2022-05-25T11:16:16Z</time>
</trkpt>
<trkpt lat="48.29644" lon="10.840212">
<ele>531.308</ele>
<time>2022-05-25T11:16:17Z</time>
</trkpt>
<trkpt lat="48.29641" lon="10.84016">
<ele>531.308</ele>
<time>2022-05-25T11:16:18Z</time>
</trkpt>
<trkpt lat="48.296379" lon="10.840112">
<ele>531.308</ele>
<time>2022-05-25T11:16:19Z</time>
</trkpt>
<trkpt lat="48.296349" lon="10.840074">
<ele>531.308</ele>
<time>2022-05-25T11:16:20Z</time>
</trkpt>
<trkpt lat="48.296314" lon="10.840037">
<ele>531.308</ele>
<time>2022-05-25T11:16:21Z</time>
</trkpt>
<trkpt lat="48.296284" lon="10.840006">
<ele>531.308</ele>
<time>2022-05-25T11:16:22Z</time>
</trkpt>
<trkpt lat="48.296257" lon="10.83998">
<ele>531.308</ele>
<time>2022-05-25T11:16:23Z</time>
</trkpt>
<trkpt lat="48.296227" lon="10.839943">
<ele>531.308</ele>
<time>2022-05-25T11:16:24Z</time>
</trkpt>
<trkpt lat="48.296196" lon="10.839907">
<ele>531.308</ele>
<time>2022-05-25T11:16:25Z</time>
</trkpt>
<trkpt lat="48.296165" lon="10.839873">
<ele>531.308</ele>
<time>2022-05-25T11:16:26Z</time>
</trkpt>
<trkpt lat="48.296139" lon="10.839843">
<ele>531.308</ele>
<time>2022-05-25T11:16:27Z</time>
</trkpt>
<trkpt lat="48.296108" lon="10.839809">
<ele>531.308</ele>
<time>2022-05-25T11:16:28Z</time>
</trkpt>
<trkpt lat="48.296078" lon="10.839777">
<ele>531.308</ele>
<time>2022-05-25T11:16:29Z</time>
</trkpt>
<trkpt lat="48.296047" lon="10.839745">
<ele>531.308</ele>
<time>2022-05-25T11:16:30Z</time>
</trkpt>
<trkpt lat="48.296017" lon="10.83972">
<ele>531.308</ele>
<time>2022-05-25T11:16:31Z</time>
</trkpt>
<trkpt lat="48.29599" lon="10.839692">
<ele>531.308</ele>
<time>2022-05-25T11:16:32Z</time>
</trkpt>
<trkpt lat="48.295959" lon="10.839662">
<ele>531.308</ele>
<time>2022-05-25T11:16:33Z</time>
</trkpt>
<trkpt lat="48.295933" lon="10.83963">
<ele>531.308</ele>
<time>2022-05-25T11:16:34Z</time>
</trkpt>
<trkpt lat="48.295906" lon="10.839597">
<ele>531.308</ele>
<time>2022-05-25T11:16:35Z</time>
</trkpt>
<trkpt lat="48.295879" lon="10.83957">
<ele>531.308</ele>
<time>2022-05-25T11:16:36Z</time>
</trkpt>
<trkpt lat="48.295849" lon="10.839547">
<ele>531.308</ele>
<time>2022-05-25T11:16:37Z</time>
</trkpt>
<trkpt lat="48.295822" lon="10.839524">
<ele>531.308</ele>
<time>2022-05-25T11:16:38Z</time>
</trkpt>
<trkpt lat="48.295788" lon="10.839492">
<ele>531.308</ele>
<time>2022-05-25T11:16:39Z</time>
</trkpt>
<trkpt lat="48.295757" lon="10.839453">
<ele>531.308</ele>
<time>2022-05-25T11:16:40Z</time>
</trkpt>
<trkpt lat="48.295727" lon="10.839419">
<ele>531.308</ele>
<time>2022-05-25T11:16:41Z</time>
</trkpt>
<trkpt lat="48.295696" lon="10.839385">
<ele>531.308</ele>
<time>2022-05-25T11:16:42Z</time>
</trkpt>
<trkpt lat="48.29567" lon="10.839344">
<ele>531.308</ele>
<time>2022-05-25T11:16:43Z</time>
</trkpt>
<trkpt lat="48.295639" lon="10.839302">
<ele>531.528</ele>
<time>2022-05-25T11:16:44Z</time>
</trkpt>
<trkpt lat="48.295612" lon="10.839255">
<ele>531.735</ele>
<time>2022-05-25T11:16:45Z</time>
</trkpt>
<trkpt lat="48.295586" lon="10.839208">
<ele>531.901</ele>
<time>2022-05-25T11:16:46Z</time>
</trkpt>
<trkpt lat="48.295555" lon="10.839174">
<ele>532.022</ele>
<time>2022-05-25T11:16:47Z</time>
</trkpt>
<trkpt lat="48.295525" lon="10.839143">
<ele>532.121</ele>
<time>2022-05-25T11:16:48Z</time>
</trkpt>
<trkpt lat="48.295486" lon="10.839111">
<ele>532.196</ele>
<time>2022-05-25T11:16:49Z</time>
</trkpt>
<trkpt lat="48.295452" lon="10.839084">
<ele>532.242</ele>
<time>2022-05-25T11:16:50Z</time>
</trkpt>
<trkpt lat="48.295418" lon="10.839052">
<ele>532.264</ele>
<time>2022-05-25T11:16:51Z</time>
</trkpt>
<trkpt lat="48.29538" lon="10.83902">
<ele>532.264</ele>
<time>2022-05-25T11:16:52Z</time>
</trkpt>
<trkpt lat="48.295345" lon="10.838995">
<ele>532.264</ele>
<time>2022-05-25T11:16:53Z</time>
</trkpt>
<trkpt lat="48.295307" lon="10.83897">
<ele>532.264</ele>
<time>2022-05-25T11:16:54Z</time>
</trkpt>
<trkpt lat="48.295265" lon="10.838946">
<ele>532.264</ele>
<time>2022-05-25T11:16:55Z</time>
</trkpt>
<trkpt lat="48.295227" lon="10.838923">
<ele>532.264</ele>
<time>2022-05-25T11:16:56Z</time>
</trkpt>
<trkpt lat="48.295189" lon="10.838898">
<ele>532.264</ele>
<time>2022-05-25T11:16:57Z</time>
</trkpt>
<trkpt lat="48.295158" lon="10.838875">
<ele>532.264</ele>
<time>2022-05-25T11:16:58Z</time>
</trkpt>
<trkpt lat="48.295124" lon="10.838845">
<ele>532.264</ele>
<time>2022-05-25T11:16:59Z</time>
</trkpt>
<trkpt lat="48.29509" lon="10.838819">
<ele>532.264</ele>
<time>2022-05-25T11:17:00Z</time>
</trkpt>
<trkpt lat="48.295044" lon="10.838803">
<ele>532.264</ele>
<time>2022-05-25T11:17:01Z</time>
</trkpt>
<trkpt lat="48.29501" lon="10.838782">
<ele>532.264</ele>
<time>2022-05-25T11:17:02Z</time>
</trkpt>
<trkpt lat="48.294971" lon="10.838759">
<ele>532.264</ele>
<time>2022-05-25T11:17:03Z</time>
</trkpt>
<trkpt lat="48.29493" lon="10.838738">
<ele>532.264</ele>
<time>2022-05-25T11:17:04Z</time>
</trkpt>
<trkpt lat="48.294888" lon="10.838716">
<ele>532.264</ele>
<time>2022-05-25T11:17:05Z</time>
</trkpt>
<trkpt lat="48.294842" lon="10.838695">
<ele>532.264</ele>
<time>2022-05-25T11:17:06Z</time>
</trkpt>
<trkpt lat="48.294807" lon="10.838672">
<ele>532.264</ele>
<time>2022-05-25T11:17:07Z</time>
</trkpt>
<trkpt lat="48.294765" lon="10.838655">
<ele>532.264</ele>
<time>2022-05-25T11:17:08Z</time>
</trkpt>
<trkpt lat="48.294727" lon="10.838644">
<ele>532.264</ele>
<time>2022-05-25T11:17:09Z</time>
</trkpt>
<trkpt lat="48.294682" lon="10.83864">
<ele>532.264</ele>
<time>2022-05-25T11:17:10Z</time>
</trkpt>
<trkpt lat="48.294643" lon="10.838623">
<ele>532.264</ele>
<time>2022-05-25T11:17:11Z</time>
</trkpt>
<trkpt lat="48.294601" lon="10.838607">
<ele>532.264</ele>
<time>2022-05-25T11:17:12Z</time>
</trkpt>
<trkpt lat="48.294559" lon="10.838583">
<ele>532.264</ele>
<time>2022-05-25T11:17:13Z</time>
</trkpt>
<trkpt lat="48.294518" lon="10.838562">
<ele>532.264</ele>
<time>2022-05-25T11:17:14Z</time>
</trkpt>
<trkpt lat="48.294483" lon="10.838542">
<ele>532.264</ele>
<time>2022-05-25T11:17:15Z</time>
</trkpt>
<trkpt lat="48.294449" lon="10.838529">
<ele>532.264</ele>
<time>2022-05-25T11:17:16Z</time>
</trkpt>
<trkpt lat="48.294407" lon="10.838518">
<ele>532.264</ele>
<time>2022-05-25T11:17:17Z</time>
</trkpt>
<trkpt lat="48.294369" lon="10.838502">
<ele>532.264</ele>
<time>2022-05-25T11:17:18Z</time>
</trkpt>
<trkpt lat="48.294334" lon="10.838485">
<ele>532.264</ele>
<time>2022-05-25T11:17:19Z</time>
</trkpt>
<trkpt lat="48.2943" lon="10.838464">
<ele>532.264</ele>
<time>2022-05-25T11:17:20Z</time>
</trkpt>
<trkpt lat="48.294258" lon="10.838445">
<ele>532.264</ele>
<time>2022-05-25T11:17:21Z</time>
</trkpt>
<trkpt lat="48.294216" lon="10.838433">
<ele>532.264</ele>
<time>2022-05-25T11:17:22Z</time>
</trkpt>
<trkpt lat="48.294186" lon="10.838407">
<ele>532.264</ele>
<time>2022-05-25T11:17:23Z</time>
</trkpt>
<trkpt lat="48.294155" lon="10.838388">
<ele>532.264</ele>
<time>2022-05-25T11:17:24Z</time>
</trkpt>
<trkpt lat="48.294125" lon="10.838366">
<ele>532.264</ele>
<time>2022-05-25T11:17:25Z</time>
</trkpt>
<trkpt lat="48.29409" lon="10.838345">
<ele>532.264</ele>
<time>2022-05-25T11:17:26Z</time>
</trkpt>
<trkpt lat="48.294052" lon="10.838326">
<ele>532.264</ele>
<time>2022-05-25T11:17:27Z</time>
</trkpt>
<trkpt lat="48.29401" lon="10.838305">
<ele>532.532</ele>
<time>2022-05-25T11:17:28Z</time>
</trkpt>
<trkpt lat="48.293972" lon="10.838277">
<ele>532.736</ele>
<time>2022-05-25T11:17:29Z</time>
</trkpt>
<trkpt lat="48.29393" lon="10.838245">
<ele>532.903</ele>
<time>2022-05-25T11:17:30Z</time>
</trkpt>
<trkpt lat="48.293888" lon="10.838208">
<ele>533.036</ele>
<time>2022-05-25T11:17:31Z</time>
</trkpt>
<trkpt lat="48.29385" lon="10.838172">
<ele>533.116</ele>
<time>2022-05-25T11:17:32Z</time>
</trkpt>
<trkpt lat="48.293812" lon="10.838139">
<ele>533.162</ele>
<time>2022-05-25T11:17:33Z</time>
</trkpt>
<trkpt lat="48.293781" lon="10.838099">
<ele>533.196</ele>
<time>2022-05-25T11:17:34Z</time>
</trkpt>
<trkpt lat="48.293747" lon="10.838063">
<ele>533.22</ele>
<time>2022-05-25T11:17:35Z</time>
</trkpt>
<trkpt lat="48.293709" lon="10.838023">
<ele>533.221</ele>
<time>2022-05-25T11:17:36Z</time>
</trkpt>
<trkpt lat="48.293678" lon="10.83799">
<ele>533.221</ele>
<time>2022-05-25T11:17:37Z</time>
</trkpt>
<trkpt lat="48.293644" lon="10.837953">
<ele>533.22</ele>
<time>2022-05-25T11:17:38Z</time>
</trkpt>
<trkpt lat="48.29361" lon="10.837915">
<ele>533.221</ele>
<time>2022-05-25T11:17:39Z</time>
</trkpt>
<trkpt lat="48.293583" lon="10.837882">
<ele>533.22</ele>
<time>2022-05-25T11:17:40Z</time>
</trkpt>
<trkpt lat="48.293556" lon="10.837853">
<ele>533.22</ele>
<time>2022-05-25T11:17:41Z</time>
</trkpt>
<trkpt lat="48.293537" lon="10.837825">
<ele>533.221</ele>
<time>2022-05-25T11:17:42Z</time>
</trkpt>
<trkpt lat="48.29351" lon="10.837798">
<ele>533.221</ele>
<time>2022-05-25T11:17:43Z</time>
</trkpt>
<trkpt lat="48.293491" lon="10.83776">
<ele>533.22</ele>
<time>2022-05-25T11:17:44Z</time>
</trkpt>
<trkpt lat="48.293468" lon="10.837733">
<ele>533.221</ele>
<time>2022-05-25T11:17:45Z</time>
</trkpt>
<trkpt lat="48.293442" lon="10.837709">
<ele>533.221</ele>
<time>2022-05-25T11:17:46Z</time>
</trkpt>
<trkpt lat="48.293411" lon="10.837676">
<ele>533.221</ele>
<time>2022-05-25T11:17:47Z</time>
</trkpt>
<trkpt lat="48.293388" lon="10.837643">
<ele>533.221</ele>
<time>2022-05-25T11:17:48Z</time>
</trkpt>
<trkpt lat="48.293373" lon="10.837608">
<ele>533.22</ele>
<time>2022-05-25T11:17:49Z</time>
</trkpt>
<trkpt lat="48.293343" lon="10.837573">
<ele>533.221</ele>
<time>2022-05-25T11:17:50Z</time>
</trkpt>
<trkpt lat="48.293312" lon="10.837536">
<ele>532.966</ele>
<time>2022-05-25T11:17:51Z</time>
</trkpt>
<trkpt lat="48.293285" lon="10.837502">
<ele>532.772</ele>
<time>2022-05-25T11:17:52Z</time>
</trkpt>
<trkpt lat="48.293259" lon="10.837465">
<ele>532.619</ele>
<time>2022-05-25T11:17:53Z</time>
</trkpt>
<trkpt lat="48.293228" lon="10.83744">
<ele>532.524</ele>
<time>2022-05-25T11:17:54Z</time>
</trkpt>
<trkpt lat="48.293194" lon="10.837431">
<ele>532.415</ele>
<time>2022-05-25T11:17:55Z</time>
</trkpt>
<trkpt lat="48.293163" lon="10.837437">
<ele>532.335</ele>
<time>2022-05-25T11:17:56Z</time>
</trkpt>
<trkpt lat="48.293125" lon="10.837443">
<ele>532.285</ele>
<time>2022-05-25T11:17:57Z</time>
</trkpt>
<trkpt lat="48.293095" lon="10.837462">
<ele>532.264</ele>
<time>2022-05-25T11:17:58Z</time>
</trkpt>
<trkpt lat="48.293064" lon="10.837483">
<ele>532.264</ele>
<time>2022-05-25T11:17:59Z</time>
</trkpt>
<trkpt lat="48.293037" lon="10.837504">
<ele>532.264</ele>
<time>2022-05-25T11:18:00Z</time>
</trkpt>
<trkpt lat="48.293018" lon="10.837522">
<ele>532.264</ele>
<time>2022-05-25T11:18:01Z</time>
</trkpt>
<trkpt lat="48.292992" lon="10.837534">
<ele>532.264</ele>
<time>2022-05-25T11:18:02Z</time>
</trkpt>
<trkpt lat="48.292969" lon="10.837544">
<ele>532.264</ele>
<time>2022-05-25T11:18:03Z</time>
</trkpt>
<trkpt lat="48.292946" lon="10.837557">
<ele>532.264</ele>
<time>2022-05-25T11:18:04Z</time>
</trkpt>
<trkpt lat="48.292923" lon="10.837577">
<ele>532.264</ele>
<time>2022-05-25T11:18:05Z</time>
</trkpt>
<trkpt lat="48.292904" lon="10.837597">
<ele>532.264</ele>
<time>2022-05-25T11:18:06Z</time>
</trkpt>
<trkpt lat="48.292885" lon="10.837613">
<ele>532.264</ele>
<time>2022-05-25T11:18:07Z</time>
</trkpt>
<trkpt lat="48.292858" lon="10.837626">
<ele>532.264</ele>
<time>2022-05-25T11:18:08Z</time>
</trkpt>
<trkpt lat="48.292831" lon="10.837637">
<ele>532.264</ele>
<time>2022-05-25T11:18:09Z</time>
</trkpt>
<trkpt lat="48.292809" lon="10.837646">
<ele>532.264</ele>
<time>2022-05-25T11:18:10Z</time>
</trkpt>
<trkpt lat="48.292789" lon="10.837662">
<ele>532.264</ele>
<time>2022-05-25T11:18:11Z</time>
</trkpt>
<trkpt lat="48.292763" lon="10.83768">
<ele>532.264</ele>
<time>2022-05-25T11:18:12Z</time>
</trkpt>
<trkpt lat="48.292736" lon="10.837699">
<ele>532.264</ele>
<time>2022-05-25T11:18:13Z</time>
</trkpt>
<trkpt lat="48.292706" lon="10.837708">
<ele>532.264</ele>
<time>2022-05-25T11:18:14Z</time>
</trkpt>
<trkpt lat="48.292671" lon="10.837716">
<ele>532.264</ele>
<time>2022-05-25T11:18:15Z</time>
</trkpt>
<trkpt lat="48.292633" lon="10.837725">
<ele>532.264</ele>
<time>2022-05-25T11:18:16Z</time>
</trkpt>
<trkpt lat="48.292599" lon="10.837729">
<ele>532.264</ele>
<time>2022-05-25T11:18:17Z</time>
</trkpt>
<trkpt lat="48.292561" lon="10.837729">
<ele>532.264</ele>
<time>2022-05-25T11:18:18Z</time>
</trkpt>
<trkpt lat="48.292526" lon="10.83772">
<ele>532.264</ele>
<time>2022-05-25T11:18:19Z</time>
</trkpt>
<trkpt lat="48.292496" lon="10.837709">
<ele>532.264</ele>
<time>2022-05-25T11:18:20Z</time>
</trkpt>
<trkpt lat="48.292461" lon="10.837702">
<ele>532.264</ele>
<time>2022-05-25T11:18:21Z</time>
</trkpt>
<trkpt lat="48.292431" lon="10.837685">
<ele>532.264</ele>
<time>2022-05-25T11:18:22Z</time>
</trkpt>
<trkpt lat="48.292397" lon="10.837674">
<ele>532.264</ele>
<time>2022-05-25T11:18:23Z</time>
</trkpt>
<trkpt lat="48.292355" lon="10.837664">
<ele>532.264</ele>
<time>2022-05-25T11:18:24Z</time>
</trkpt>
<trkpt lat="48.292316" lon="10.837648">
<ele>532.264</ele>
<time>2022-05-25T11:18:25Z</time>
</trkpt>
<trkpt lat="48.292274" lon="10.837637">
<ele>532.264</ele>
<time>2022-05-25T11:18:26Z</time>
</trkpt>
<trkpt lat="48.292233" lon="10.837628">
<ele>532.264</ele>
<time>2022-05-25T11:18:27Z</time>
</trkpt>
<trkpt lat="48.292179" lon="10.837618">
<ele>532.264</ele>
<time>2022-05-25T11:18:28Z</time>
</trkpt>
<trkpt lat="48.292133" lon="10.837618">
<ele>532.264</ele>
<time>2022-05-25T11:18:29Z</time>
</trkpt>
<trkpt lat="48.292095" lon="10.837606">
<ele>532.264</ele>
<time>2022-05-25T11:18:30Z</time>
</trkpt>
<trkpt lat="48.292053" lon="10.837599">
<ele>532.264</ele>
<time>2022-05-25T11:18:31Z</time>
</trkpt>
<trkpt lat="48.292023" lon="10.837595">
<ele>532.264</ele>
<time>2022-05-25T11:18:32Z</time>
</trkpt>
<trkpt lat="48.291985" lon="10.83759">
<ele>532.264</ele>
<time>2022-05-25T11:18:33Z</time>
</trkpt>
<trkpt lat="48.291954" lon="10.837573">
<ele>532.264</ele>
<time>2022-05-25T11:18:34Z</time>
</trkpt>
<trkpt lat="48.29192" lon="10.837553">
<ele>532.264</ele>
<time>2022-05-25T11:18:35Z</time>
</trkpt>
<trkpt lat="48.291885" lon="10.837535">
<ele>532.264</ele>
<time>2022-05-25T11:18:36Z</time>
</trkpt>
<trkpt lat="48.291851" lon="10.837522">
<ele>532.264</ele>
<time>2022-05-25T11:18:37Z</time>
</trkpt>
<trkpt lat="48.291813" lon="10.837506">
<ele>532.264</ele>
<time>2022-05-25T11:18:38Z</time>
</trkpt>
<trkpt lat="48.291779" lon="10.837492">
<ele>532.264</ele>
<time>2022-05-25T11:18:39Z</time>
</trkpt>
<trkpt lat="48.29174" lon="10.83748">
<ele>532.264</ele>
<time>2022-05-25T11:18:40Z</time>
</trkpt>
<trkpt lat="48.291706" lon="10.837461">
<ele>532.264</ele>
<time>2022-05-25T11:18:41Z</time>
</trkpt>
<trkpt lat="48.291676" lon="10.83744">
<ele>532.264</ele>
<time>2022-05-25T11:18:42Z</time>
</trkpt>
<trkpt lat="48.291637" lon="10.83742">
<ele>532.264</ele>
<time>2022-05-25T11:18:43Z</time>
</trkpt>
<trkpt lat="48.291603" lon="10.837403">
<ele>532.476</ele>
<time>2022-05-25T11:18:44Z</time>
</trkpt>
<trkpt lat="48.291569" lon="10.837385">
<ele>532.676</ele>
<time>2022-05-25T11:18:45Z</time>
</trkpt>
<trkpt lat="48.291538" lon="10.837366">
<ele>532.837</ele>
<time>2022-05-25T11:18:46Z</time>
</trkpt>
<trkpt lat="48.2915" lon="10.837343">
<ele>532.972</ele>
<time>2022-05-25T11:18:47Z</time>
</trkpt>
<trkpt lat="48.291462" lon="10.83732">
<ele>533.076</ele>
<time>2022-05-25T11:18:48Z</time>
</trkpt>
<trkpt lat="48.291424" lon="10.837298">
<ele>533.153</ele>
<time>2022-05-25T11:18:49Z</time>
</trkpt>
<trkpt lat="48.291389" lon="10.83727">
<ele>533.198</ele>
<time>2022-05-25T11:18:50Z</time>
</trkpt>
<trkpt lat="48.291355" lon="10.837245">
<ele>533.221</ele>
<time>2022-05-25T11:18:51Z</time>
</trkpt>
<trkpt lat="48.291317" lon="10.83722">
<ele>533.221</ele>
<time>2022-05-25T11:18:52Z</time>
</trkpt>
<trkpt lat="48.291279" lon="10.837207">
<ele>533.221</ele>
<time>2022-05-25T11:18:53Z</time>
</trkpt>
<trkpt lat="48.291237" lon="10.837186">
<ele>533.221</ele>
<time>2022-05-25T11:18:54Z</time>
</trkpt>
<trkpt lat="48.291199" lon="10.837165">
<ele>533.221</ele>
<time>2022-05-25T11:18:55Z</time>
</trkpt>
<trkpt lat="48.291157" lon="10.837138">
<ele>533.22</ele>
<time>2022-05-25T11:18:56Z</time>
</trkpt>
<trkpt lat="48.291115" lon="10.837112">
<ele>533.221</ele>
<time>2022-05-25T11:18:57Z</time>
</trkpt>
<trkpt lat="48.291073" lon="10.837083">
<ele>533.221</ele>
<time>2022-05-25T11:18:58Z</time>
</trkpt>
<trkpt lat="48.291031" lon="10.837056">
<ele>533.221</ele>
<time>2022-05-25T11:18:59Z</time>
</trkpt>
<trkpt lat="48.290993" lon="10.837039">
<ele>533.221</ele>
<time>2022-05-25T11:19:00Z</time>
</trkpt>
<trkpt lat="48.290947" lon="10.837016">
<ele>533.221</ele>
<time>2022-05-25T11:19:01Z</time>
</trkpt>
<trkpt lat="48.290905" lon="10.836997">
<ele>533.221</ele>
<time>2022-05-25T11:19:02Z</time>
</trkpt>
<trkpt lat="48.290863" lon="10.836972">
<ele>533.22</ele>
<time>2022-05-25T11:19:03Z</time>
</trkpt>
<trkpt lat="48.290821" lon="10.836948">
<ele>533.221</ele>
<time>2022-05-25T11:19:04Z</time>
</trkpt>
<trkpt lat="48.290779" lon="10.836925">
<ele>533.221</ele>
<time>2022-05-25T11:19:05Z</time>
</trkpt>
<trkpt lat="48.290737" lon="10.836902">
<ele>533.221</ele>
<time>2022-05-25T11:19:06Z</time>
</trkpt>
<trkpt lat="48.290691" lon="10.836886">
<ele>533.221</ele>
<time>2022-05-25T11:19:07Z</time>
</trkpt>
<trkpt lat="48.290649" lon="10.836868">
<ele>533.22</ele>
<time>2022-05-25T11:19:08Z</time>
</trkpt>
<trkpt lat="48.290604" lon="10.83685">
<ele>533.221</ele>
<time>2022-05-25T11:19:09Z</time>
</trkpt>
<trkpt lat="48.290562" lon="10.83683">
<ele>533.221</ele>
<time>2022-05-25T11:19:10Z</time>
</trkpt>
<trkpt lat="48.29052" lon="10.836802">
<ele>533.22</ele>
<time>2022-05-25T11:19:11Z</time>
</trkpt>
<trkpt lat="48.290482" lon="10.836777">
<ele>533.221</ele>
<time>2022-05-25T11:19:12Z</time>
</trkpt>
<trkpt lat="48.29044" lon="10.836757">
<ele>533.221</ele>
<time>2022-05-25T11:19:13Z</time>
</trkpt>
<trkpt lat="48.290401" lon="10.836734">
<ele>533.22</ele>
<time>2022-05-25T11:19:14Z</time>
</trkpt>
<trkpt lat="48.290359" lon="10.836706">
<ele>533.22</ele>
<time>2022-05-25T11:19:15Z</time>
</trkpt>
<trkpt lat="48.290314" lon="10.836685">
<ele>533.221</ele>
<time>2022-05-25T11:19:16Z</time>
</trkpt>
<trkpt lat="48.290279" lon="10.836662">
<ele>533.221</ele>
<time>2022-05-25T11:19:17Z</time>
</trkpt>
<trkpt lat="48.290237" lon="10.836637">
<ele>533.221</ele>
<time>2022-05-25T11:19:18Z</time>
</trkpt>
<trkpt lat="48.290192" lon="10.836608">
<ele>533.221</ele>
<time>2022-05-25T11:19:19Z</time>
</trkpt>
<trkpt lat="48.290154" lon="10.836589">
<ele>533.221</ele>
<time>2022-05-25T11:19:20Z</time>
</trkpt>
<trkpt lat="48.290119" lon="10.836572">
<ele>533.221</ele>
<time>2022-05-25T11:19:21Z</time>
</trkpt>
<trkpt lat="48.290081" lon="10.836547">
<ele>533.221</ele>
<time>2022-05-25T11:19:22Z</time>
</trkpt>
<trkpt lat="48.290035" lon="10.836522">
<ele>533.221</ele>
<time>2022-05-25T11:19:23Z</time>
</trkpt>
<trkpt lat="48.289989" lon="10.836501">
<ele>533.221</ele>
<time>2022-05-25T11:19:24Z</time>
</trkpt>
<trkpt lat="48.289951" lon="10.83648">
<ele>533.221</ele>
<time>2022-05-25T11:19:25Z</time>
</trkpt>
<trkpt lat="48.289906" lon="10.836465">
<ele>533.221</ele>
<time>2022-05-25T11:19:26Z</time>
</trkpt>
<trkpt lat="48.289864" lon="10.836433">
<ele>533.22</ele>
<time>2022-05-25T11:19:27Z</time>
</trkpt>
<trkpt lat="48.289822" lon="10.836402">
<ele>533.472</ele>
<time>2022-05-25T11:19:28Z</time>
</trkpt>
<trkpt lat="48.289776" lon="10.836378">
<ele>533.663</ele>
<time>2022-05-25T11:19:29Z</time>
</trkpt>
<trkpt lat="48.289734" lon="10.836351">
<ele>533.8</ele>
<time>2022-05-25T11:19:30Z</time>
</trkpt>
<trkpt lat="48.289692" lon="10.836322">
<ele>533.906</ele>
<time>2022-05-25T11:19:31Z</time>
</trkpt>
<trkpt lat="48.289654" lon="10.836297">
<ele>533.981</ele>
<time>2022-05-25T11:19:32Z</time>
</trkpt>
<trkpt lat="48.289608" lon="10.836277">
<ele>534.032</ele>
<time>2022-05-25T11:19:33Z</time>
</trkpt>
<trkpt lat="48.289562" lon="10.836256">
<ele>534.067</ele>
<time>2022-05-25T11:19:34Z</time>
</trkpt>
<trkpt lat="48.289516" lon="10.836237">
<ele>534.09</ele>
<time>2022-05-25T11:19:35Z</time>
</trkpt>
<trkpt lat="48.289474" lon="10.836213">
<ele>534.09</ele>
<time>2022-05-25T11:19:36Z</time>
</trkpt>
<trkpt lat="48.289433" lon="10.836186">
<ele>534.09</ele>
<time>2022-05-25T11:19:37Z</time>
</trkpt>
<trkpt lat="48.289391" lon="10.836164">
<ele>534.09</ele>
<time>2022-05-25T11:19:38Z</time>
</trkpt>
<trkpt lat="48.289345" lon="10.836141">
<ele>534.09</ele>
<time>2022-05-25T11:19:39Z</time>
</trkpt>
<trkpt lat="48.289299" lon="10.836123">
<ele>534.09</ele>
<time>2022-05-25T11:19:40Z</time>
</trkpt>
<trkpt lat="48.289257" lon="10.836099">
<ele>534.09</ele>
<time>2022-05-25T11:19:41Z</time>
</trkpt>
<trkpt lat="48.289207" lon="10.836075">
<ele>534.09</ele>
<time>2022-05-25T11:19:42Z</time>
</trkpt>
<trkpt lat="48.289162" lon="10.836055">
<ele>534.09</ele>
<time>2022-05-25T11:19:43Z</time>
</trkpt>
<trkpt lat="48.289116" lon="10.836036">
<ele>534.09</ele>
<time>2022-05-25T11:19:44Z</time>
</trkpt>
<trkpt lat="48.28907" lon="10.836008">
<ele>534.09</ele>
<time>2022-05-25T11:19:45Z</time>
</trkpt>
<trkpt lat="48.289028" lon="10.835987">
<ele>534.091</ele>
<time>2022-05-25T11:19:46Z</time>
</trkpt>
<trkpt lat="48.288982" lon="10.83596">
<ele>534.09</ele>
<time>2022-05-25T11:19:47Z</time>
</trkpt>
<trkpt lat="48.288937" lon="10.835935">
<ele>534.09</ele>
<time>2022-05-25T11:19:48Z</time>
</trkpt>
<trkpt lat="48.288898" lon="10.83592">
<ele>534.09</ele>
<time>2022-05-25T11:19:49Z</time>
</trkpt>
<trkpt lat="48.288853" lon="10.835894">
<ele>534.09</ele>
<time>2022-05-25T11:19:50Z</time>
</trkpt>
<trkpt lat="48.288811" lon="10.835868">
<ele>534.09</ele>
<time>2022-05-25T11:19:51Z</time>
</trkpt>
<trkpt lat="48.288765" lon="10.835847">
<ele>534.09</ele>
<time>2022-05-25T11:19:52Z</time>
</trkpt>
<trkpt lat="48.288715" lon="10.835832">
<ele>534.09</ele>
<time>2022-05-25T11:19:53Z</time>
</trkpt>
<trkpt lat="48.288673" lon="10.835812">
<ele>533.896</ele>
<time>2022-05-25T11:19:54Z</time>
</trkpt>
<trkpt lat="48.288628" lon="10.835792">
<ele>533.713</ele>
<time>2022-05-25T11:19:55Z</time>
</trkpt>
<trkpt lat="48.288582" lon="10.835772">
<ele>533.56</ele>
<time>2022-05-25T11:19:56Z</time>
</trkpt>
<trkpt lat="48.28854" lon="10.835742">
<ele>533.437</ele>
<time>2022-05-25T11:19:57Z</time>
</trkpt>
<trkpt lat="48.28849" lon="10.835715">
<ele>533.35</ele>
<time>2022-05-25T11:19:58Z</time>
</trkpt>
<trkpt lat="48.288445" lon="10.83569">
<ele>533.303</ele>
<time>2022-05-25T11:19:59Z</time>
</trkpt>
<trkpt lat="48.288399" lon="10.835669">
<ele>533.478</ele>
<time>2022-05-25T11:20:00Z</time>
</trkpt>
<trkpt lat="48.288357" lon="10.835647">
<ele>533.633</ele>
<time>2022-05-25T11:20:01Z</time>
</trkpt>
<trkpt lat="48.288315" lon="10.835629">
<ele>533.772</ele>
<time>2022-05-25T11:20:02Z</time>
</trkpt>
<trkpt lat="48.288269" lon="10.835605">
<ele>533.873</ele>
<time>2022-05-25T11:20:03Z</time>
</trkpt>
<trkpt lat="48.288223" lon="10.835579">
<ele>533.946</ele>
<time>2022-05-25T11:20:04Z</time>
</trkpt>
<trkpt lat="48.288185" lon="10.83555">
<ele>534.018</ele>
<time>2022-05-25T11:20:05Z</time>
</trkpt>
<trkpt lat="48.288143" lon="10.835516">
<ele>534.066</ele>
<time>2022-05-25T11:20:06Z</time>
</trkpt>
<trkpt lat="48.288094" lon="10.835493">
<ele>534.09</ele>
<time>2022-05-25T11:20:07Z</time>
</trkpt>
<trkpt lat="48.288052" lon="10.835472">
<ele>534.09</ele>
<time>2022-05-25T11:20:08Z</time>
</trkpt>
<trkpt lat="48.288006" lon="10.835443">
<ele>534.377</ele>
<time>2022-05-25T11:20:09Z</time>
</trkpt>
<trkpt lat="48.287956" lon="10.835418">
<ele>534.602</ele>
<time>2022-05-25T11:20:10Z</time>
</trkpt>
<trkpt lat="48.287903" lon="10.83539">
<ele>534.771</ele>
<time>2022-05-25T11:20:11Z</time>
</trkpt>
<trkpt lat="48.287853" lon="10.83537">
<ele>534.896</ele>
<time>2022-05-25T11:20:12Z</time>
</trkpt>
<trkpt lat="48.287804" lon="10.835346">
<ele>534.987</ele>
<time>2022-05-25T11:20:13Z</time>
</trkpt>
<trkpt lat="48.287758" lon="10.835323">
<ele>535.049</ele>
<time>2022-05-25T11:20:14Z</time>
</trkpt>
<trkpt lat="48.287708" lon="10.835302">
<ele>535.107</ele>
<time>2022-05-25T11:20:15Z</time>
</trkpt>
<trkpt lat="48.287663" lon="10.835279">
<ele>535.134</ele>
<time>2022-05-25T11:20:16Z</time>
</trkpt>
<trkpt lat="48.287609" lon="10.83526">
<ele>535.134</ele>
<time>2022-05-25T11:20:17Z</time>
</trkpt>
<trkpt lat="48.287556" lon="10.835239">
<ele>535.134</ele>
<time>2022-05-25T11:20:18Z</time>
</trkpt>
<trkpt lat="48.287506" lon="10.835217">
<ele>535.134</ele>
<time>2022-05-25T11:20:19Z</time>
</trkpt>
<trkpt lat="48.28746" lon="10.835192">
<ele>535.134</ele>
<time>2022-05-25T11:20:20Z</time>
</trkpt>
<trkpt lat="48.287411" lon="10.835165">
<ele>535.134</ele>
<time>2022-05-25T11:20:21Z</time>
</trkpt>
<trkpt lat="48.287365" lon="10.835143">
<ele>535.134</ele>
<time>2022-05-25T11:20:22Z</time>
</trkpt>
<trkpt lat="48.287315" lon="10.835118">
<ele>535.134</ele>
<time>2022-05-25T11:20:23Z</time>
</trkpt>
<trkpt lat="48.287266" lon="10.835097">
<ele>535.134</ele>
<time>2022-05-25T11:20:24Z</time>
</trkpt>
<trkpt lat="48.287216" lon="10.835073">
<ele>535.134</ele>
<time>2022-05-25T11:20:25Z</time>
</trkpt>
<trkpt lat="48.287178" lon="10.83505">
<ele>535.134</ele>
<time>2022-05-25T11:20:26Z</time>
</trkpt>
<trkpt lat="48.287128" lon="10.835027">
<ele>535.134</ele>
<time>2022-05-25T11:20:27Z</time>
</trkpt>
<trkpt lat="48.287086" lon="10.835003">
<ele>535.134</ele>
<time>2022-05-25T11:20:28Z</time>
</trkpt>
<trkpt lat="48.287041" lon="10.83498">
<ele>535.134</ele>
<time>2022-05-25T11:20:29Z</time>
</trkpt>
<trkpt lat="48.286995" lon="10.834957">
<ele>535.134</ele>
<time>2022-05-25T11:20:30Z</time>
</trkpt>
<trkpt lat="48.286953" lon="10.834931">
<ele>535.134</ele>
<time>2022-05-25T11:20:31Z</time>
</trkpt>
<trkpt lat="48.286907" lon="10.834905">
<ele>535.134</ele>
<time>2022-05-25T11:20:32Z</time>
</trkpt>
<trkpt lat="48.286858" lon="10.83488">
<ele>535.134</ele>
<time>2022-05-25T11:20:33Z</time>
</trkpt>
<trkpt lat="48.286816" lon="10.834858">
<ele>535.134</ele>
<time>2022-05-25T11:20:34Z</time>
</trkpt>
<trkpt lat="48.286766" lon="10.834835">
<ele>535.134</ele>
<time>2022-05-25T11:20:35Z</time>
</trkpt>
<trkpt lat="48.28672" lon="10.83481">
<ele>535.134</ele>
<time>2022-05-25T11:20:36Z</time>
</trkpt>
<trkpt lat="48.286671" lon="10.834788">
<ele>535.134</ele>
<time>2022-05-25T11:20:37Z</time>
</trkpt>
<trkpt lat="48.286625" lon="10.834764">
<ele>535.134</ele>
<time>2022-05-25T11:20:38Z</time>
</trkpt>
<trkpt lat="48.286579" lon="10.834743">
<ele>535.134</ele>
<time>2022-05-25T11:20:39Z</time>
</trkpt>
<trkpt lat="48.28653" lon="10.834722">
<ele>535.134</ele>
<time>2022-05-25T11:20:40Z</time>
</trkpt>
<trkpt lat="48.286484" lon="10.834699">
<ele>535.134</ele>
<time>2022-05-25T11:20:41Z</time>
</trkpt>
<trkpt lat="48.286434" lon="10.834672">
<ele>535.134</ele>
<time>2022-05-25T11:20:42Z</time>
</trkpt>
<trkpt lat="48.286388" lon="10.834645">
<ele>535.134</ele>
<time>2022-05-25T11:20:43Z</time>
</trkpt>
<trkpt lat="48.286343" lon="10.83462">
<ele>535.134</ele>
<time>2022-05-25T11:20:44Z</time>
</trkpt>
<trkpt lat="48.286297" lon="10.834597">
<ele>535.134</ele>
<time>2022-05-25T11:20:45Z</time>
</trkpt>
<trkpt lat="48.286251" lon="10.834574">
<ele>535.134</ele>
<time>2022-05-25T11:20:46Z</time>
</trkpt>
<trkpt lat="48.286201" lon="10.83455">
<ele>535.134</ele>
<time>2022-05-25T11:20:47Z</time>
</trkpt>
<trkpt lat="48.286156" lon="10.834527">
<ele>535.134</ele>
<time>2022-05-25T11:20:48Z</time>
</trkpt>
<trkpt lat="48.28611" lon="10.834502">
<ele>535.134</ele>
<time>2022-05-25T11:20:49Z</time>
</trkpt>
<trkpt lat="48.286064" lon="10.834476">
<ele>535.134</ele>
<time>2022-05-25T11:20:50Z</time>
</trkpt>
<trkpt lat="48.286018" lon="10.834454">
<ele>535.134</ele>
<time>2022-05-25T11:20:51Z</time>
</trkpt>
<trkpt lat="48.285976" lon="10.834432">
<ele>535.134</ele>
<time>2022-05-25T11:20:52Z</time>
</trkpt>
<trkpt lat="48.285927" lon="10.834406">
<ele>535.134</ele>
<time>2022-05-25T11:20:53Z</time>
</trkpt>
<trkpt lat="48.285881" lon="10.83438">
<ele>535.134</ele>
<time>2022-05-25T11:20:54Z</time>
</trkpt>
<trkpt lat="48.285835" lon="10.834355">
<ele>535.134</ele>
<time>2022-05-25T11:20:55Z</time>
</trkpt>
<trkpt lat="48.285786" lon="10.834331">
<ele>535.134</ele>
<time>2022-05-25T11:20:56Z</time>
</trkpt>
<trkpt lat="48.285744" lon="10.834307">
<ele>535.134</ele>
<time>2022-05-25T11:20:57Z</time>
</trkpt>
<trkpt lat="48.285698" lon="10.834282">
<ele>535.134</ele>
<time>2022-05-25T11:20:58Z</time>
</trkpt>
<trkpt lat="48.285648" lon="10.834255">
<ele>535.134</ele>
<time>2022-05-25T11:20:59Z</time>
</trkpt>
<trkpt lat="48.285606" lon="10.834231">
<ele>535.134</ele>
<time>2022-05-25T11:21:00Z</time>
</trkpt>
<trkpt lat="48.285557" lon="10.834207">
<ele>535.134</ele>
<time>2022-05-25T11:21:01Z</time>
</trkpt>
<trkpt lat="48.285511" lon="10.834184">
<ele>535.134</ele>
<time>2022-05-25T11:21:02Z</time>
</trkpt>
<trkpt lat="48.285465" lon="10.83416">
<ele>535.134</ele>
<time>2022-05-25T11:21:03Z</time>
</trkpt>
<trkpt lat="48.285419" lon="10.834135">
<ele>535.134</ele>
<time>2022-05-25T11:21:04Z</time>
</trkpt>
<trkpt lat="48.285378" lon="10.834108">
<ele>535.134</ele>
<time>2022-05-25T11:21:05Z</time>
</trkpt>
<trkpt lat="48.285332" lon="10.834084">
<ele>535.134</ele>
<time>2022-05-25T11:21:06Z</time>
</trkpt>
<trkpt lat="48.28529" lon="10.834056">
<ele>535.134</ele>
<time>2022-05-25T11:21:07Z</time>
</trkpt>
<trkpt lat="48.285244" lon="10.83403">
<ele>535.134</ele>
<time>2022-05-25T11:21:08Z</time>
</trkpt>
<trkpt lat="48.285198" lon="10.83401">
<ele>535.134</ele>
<time>2022-05-25T11:21:09Z</time>
</trkpt>
<trkpt lat="48.28516" lon="10.833986">
<ele>535.134</ele>
<time>2022-05-25T11:21:10Z</time>
</trkpt>
<trkpt lat="48.285114" lon="10.833963">
<ele>535.134</ele>
<time>2022-05-25T11:21:11Z</time>
</trkpt>
<trkpt lat="48.285069" lon="10.833937">
<ele>535.134</ele>
<time>2022-05-25T11:21:12Z</time>
</trkpt>
<trkpt lat="48.28503" lon="10.833914">
<ele>535.365</ele>
<time>2022-05-25T11:21:13Z</time>
</trkpt>
<trkpt lat="48.284988" lon="10.83389">
<ele>535.53</ele>
<time>2022-05-25T11:21:14Z</time>
</trkpt>
<trkpt lat="48.284946" lon="10.833865">
<ele>535.699</ele>
<time>2022-05-25T11:21:15Z</time>
</trkpt>
<trkpt lat="48.284904" lon="10.833845">
<ele>535.834</ele>
<time>2022-05-25T11:21:16Z</time>
</trkpt>
<trkpt lat="48.284866" lon="10.833819">
<ele>535.94</ele>
<time>2022-05-25T11:21:17Z</time>
</trkpt>
<trkpt lat="48.284828" lon="10.833795">
<ele>536.017</ele>
<time>2022-05-25T11:21:18Z</time>
</trkpt>
<trkpt lat="48.28479" lon="10.833771">
<ele>536.066</ele>
<time>2022-05-25T11:21:19Z</time>
</trkpt>
<trkpt lat="48.284748" lon="10.833741">
<ele>536.09</ele>
<time>2022-05-25T11:21:20Z</time>
</trkpt>
<trkpt lat="48.28471" lon="10.833712">
<ele>536.09</ele>
<time>2022-05-25T11:21:21Z</time>
</trkpt>
<trkpt lat="48.284668" lon="10.833681">
<ele>536.09</ele>
<time>2022-05-25T11:21:22Z</time>
</trkpt>
<trkpt lat="48.284626" lon="10.833648">
<ele>536.09</ele>
<time>2022-05-25T11:21:23Z</time>
</trkpt>
<trkpt lat="48.28458" lon="10.833616">
<ele>536.09</ele>
<time>2022-05-25T11:21:24Z</time>
</trkpt>
<trkpt lat="48.284538" lon="10.833585">
<ele>536.09</ele>
<time>2022-05-25T11:21:25Z</time>
</trkpt>
<trkpt lat="48.284496" lon="10.833553">
<ele>536.09</ele>
<time>2022-05-25T11:21:26Z</time>
</trkpt>
<trkpt lat="48.284451" lon="10.833522">
<ele>536.09</ele>
<time>2022-05-25T11:21:27Z</time>
</trkpt>
<trkpt lat="48.284409" lon="10.833488">
<ele>536.09</ele>
<time>2022-05-25T11:21:28Z</time>
</trkpt>
<trkpt lat="48.284367" lon="10.833459">
<ele>536.09</ele>
<time>2022-05-25T11:21:29Z</time>
</trkpt>
<trkpt lat="48.284321" lon="10.833428">
<ele>536.09</ele>
<time>2022-05-25T11:21:30Z</time>
</trkpt>
<trkpt lat="48.284279" lon="10.833398">
<ele>536.09</ele>
<time>2022-05-25T11:21:31Z</time>
</trkpt>
<trkpt lat="48.284233" lon="10.833364">
<ele>536.09</ele>
<time>2022-05-25T11:21:32Z</time>
</trkpt>
<trkpt lat="48.284187" lon="10.833331">
<ele>536.09</ele>
<time>2022-05-25T11:21:33Z</time>
</trkpt>
<trkpt lat="48.284149" lon="10.8333">
<ele>536.09</ele>
<time>2022-05-25T11:21:34Z</time>
</trkpt>
<trkpt lat="48.284103" lon="10.83327">
<ele>536.09</ele>
<time>2022-05-25T11:21:35Z</time>
</trkpt>
<trkpt lat="48.284058" lon="10.833241">
<ele>536.09</ele>
<time>2022-05-25T11:21:36Z</time>
</trkpt>
<trkpt lat="48.284019" lon="10.83321">
<ele>536.09</ele>
<time>2022-05-25T11:21:37Z</time>
</trkpt>
<trkpt lat="48.283978" lon="10.833177">
<ele>536.09</ele>
<time>2022-05-25T11:21:38Z</time>
</trkpt>
<trkpt lat="48.283932" lon="10.833145">
<ele>536.09</ele>
<time>2022-05-25T11:21:39Z</time>
</trkpt>
<trkpt lat="48.28389" lon="10.833115">
<ele>536.09</ele>
<time>2022-05-25T11:21:40Z</time>
</trkpt>
<trkpt lat="48.283844" lon="10.833085">
<ele>536.09</ele>
<time>2022-05-25T11:21:41Z</time>
</trkpt>
<trkpt lat="48.283798" lon="10.833056">
<ele>536.09</ele>
<time>2022-05-25T11:21:42Z</time>
</trkpt>
<trkpt lat="48.283756" lon="10.833027">
<ele>536.09</ele>
<time>2022-05-25T11:21:43Z</time>
</trkpt>
<trkpt lat="48.28371" lon="10.832995">
<ele>536.09</ele>
<time>2022-05-25T11:21:44Z</time>
</trkpt>
<trkpt lat="48.283665" lon="10.83296">
<ele>536.09</ele>
<time>2022-05-25T11:21:45Z</time>
</trkpt>
<trkpt lat="48.283623" lon="10.832925">
<ele>536.09</ele>
<time>2022-05-25T11:21:46Z</time>
</trkpt>
<trkpt lat="48.283577" lon="10.832893">
<ele>536.09</ele>
<time>2022-05-25T11:21:47Z</time>
</trkpt>
<trkpt lat="48.283531" lon="10.832862">
<ele>536.09</ele>
<time>2022-05-25T11:21:48Z</time>
</trkpt>
<trkpt lat="48.283489" lon="10.83283">
<ele>536.09</ele>
<time>2022-05-25T11:21:49Z</time>
</trkpt>
<trkpt lat="48.283443" lon="10.832801">
<ele>536.09</ele>
<time>2022-05-25T11:21:50Z</time>
</trkpt>
<trkpt lat="48.283401" lon="10.832769">
<ele>536.09</ele>
<time>2022-05-25T11:21:51Z</time>
</trkpt>
<trkpt lat="48.283356" lon="10.832738">
<ele>536.09</ele>
<time>2022-05-25T11:21:52Z</time>
</trkpt>
<trkpt lat="48.28331" lon="10.832705">
<ele>536.09</ele>
<time>2022-05-25T11:21:53Z</time>
</trkpt>
<trkpt lat="48.283268" lon="10.832673">
<ele>536.09</ele>
<time>2022-05-25T11:21:54Z</time>
</trkpt>
<trkpt lat="48.283218" lon="10.83264">
<ele>536.09</ele>
<time>2022-05-25T11:21:55Z</time>
</trkpt>
<trkpt lat="48.283173" lon="10.832606">
<ele>536.09</ele>
<time>2022-05-25T11:21:56Z</time>
</trkpt>
<trkpt lat="48.283131" lon="10.832572">
<ele>536.09</ele>
<time>2022-05-25T11:21:57Z</time>
</trkpt>
<trkpt lat="48.283081" lon="10.832539">
<ele>536.09</ele>
<time>2022-05-25T11:21:58Z</time>
</trkpt>
<trkpt lat="48.283039" lon="10.832503">
<ele>536.09</ele>
<time>2022-05-25T11:21:59Z</time>
</trkpt>
<trkpt lat="48.28299" lon="10.832468">
<ele>536.09</ele>
<time>2022-05-25T11:22:00Z</time>
</trkpt>
<trkpt lat="48.282944" lon="10.832437">
<ele>536.09</ele>
<time>2022-05-25T11:22:01Z</time>
</trkpt>
<trkpt lat="48.282898" lon="10.832405">
<ele>536.09</ele>
<time>2022-05-25T11:22:02Z</time>
</trkpt>
<trkpt lat="48.282852" lon="10.832374">
<ele>536.09</ele>
<time>2022-05-25T11:22:03Z</time>
</trkpt>
<trkpt lat="48.282806" lon="10.83234">
<ele>536.09</ele>
<time>2022-05-25T11:22:04Z</time>
</trkpt>
<trkpt lat="48.282757" lon="10.832309">
<ele>536.344</ele>
<time>2022-05-25T11:22:05Z</time>
</trkpt>
<trkpt lat="48.282715" lon="10.832279">
<ele>536.556</ele>
<time>2022-05-25T11:22:06Z</time>
</trkpt>
<trkpt lat="48.282669" lon="10.832252">
<ele>536.731</ele>
<time>2022-05-25T11:22:07Z</time>
</trkpt>
<trkpt lat="48.282631" lon="10.832225">
<ele>536.87</ele>
<time>2022-05-25T11:22:08Z</time>
</trkpt>
<trkpt lat="48.282589" lon="10.832193">
<ele>536.979</ele>
<time>2022-05-25T11:22:09Z</time>
</trkpt>
<trkpt lat="48.282555" lon="10.83216">
<ele>537.058</ele>
<time>2022-05-25T11:22:10Z</time>
</trkpt>
<trkpt lat="48.28252" lon="10.832129">
<ele>537.109</ele>
<time>2022-05-25T11:22:11Z</time>
</trkpt>
<trkpt lat="48.282482" lon="10.832093">
<ele>537.134</ele>
<time>2022-05-25T11:22:12Z</time>
</trkpt>
<trkpt lat="48.282436" lon="10.832059">
<ele>537.134</ele>
<time>2022-05-25T11:22:13Z</time>
</trkpt>
<trkpt lat="48.282391" lon="10.832028">
<ele>537.134</ele>
<time>2022-05-25T11:22:14Z</time>
</trkpt>
<trkpt lat="48.282352" lon="10.831997">
<ele>537.134</ele>
<time>2022-05-25T11:22:15Z</time>
</trkpt>
<trkpt lat="48.282303" lon="10.831964">
<ele>537.134</ele>
<time>2022-05-25T11:22:16Z</time>
</trkpt>
<trkpt lat="48.282261" lon="10.831928">
<ele>537.134</ele>
<time>2022-05-25T11:22:17Z</time>
</trkpt>
<trkpt lat="48.282219" lon="10.831894">
<ele>537.134</ele>
<time>2022-05-25T11:22:18Z</time>
</trkpt>
<trkpt lat="48.282173" lon="10.831861">
<ele>537.134</ele>
<time>2022-05-25T11:22:19Z</time>
</trkpt>
<trkpt lat="48.282131" lon="10.831831">
<ele>537.134</ele>
<time>2022-05-25T11:22:20Z</time>
</trkpt>
<trkpt lat="48.282093" lon="10.831803">
<ele>537.134</ele>
<time>2022-05-25T11:22:21Z</time>
</trkpt>
<trkpt lat="48.282051" lon="10.831775">
<ele>537.134</ele>
<time>2022-05-25T11:22:22Z</time>
</trkpt>
<trkpt lat="48.282013" lon="10.831749">
<ele>537.134</ele>
<time>2022-05-25T11:22:23Z</time>
</trkpt>
<trkpt lat="48.281971" lon="10.831722">
<ele>537.134</ele>
<time>2022-05-25T11:22:24Z</time>
</trkpt>
<trkpt lat="48.281937" lon="10.831692">
<ele>537.134</ele>
<time>2022-05-25T11:22:25Z</time>
</trkpt>
<trkpt lat="48.281898" lon="10.831665">
<ele>537.134</ele>
<time>2022-05-25T11:22:26Z</time>
</trkpt>
<trkpt lat="48.28186" lon="10.831638">
<ele>537.134</ele>
<time>2022-05-25T11:22:27Z</time>
</trkpt>
<trkpt lat="48.281818" lon="10.831612">
<ele>537.134</ele>
<time>2022-05-25T11:22:28Z</time>
</trkpt>
<trkpt lat="48.28178" lon="10.831582">
<ele>537.134</ele>
<time>2022-05-25T11:22:29Z</time>
</trkpt>
<trkpt lat="48.281738" lon="10.83155">
<ele>537.134</ele>
<time>2022-05-25T11:22:30Z</time>
</trkpt>
<trkpt lat="48.281696" lon="10.831518">
<ele>537.134</ele>
<time>2022-05-25T11:22:31Z</time>
</trkpt>
<trkpt lat="48.281651" lon="10.831489">
<ele>537.134</ele>
<time>2022-05-25T11:22:32Z</time>
</trkpt>
<trkpt lat="48.281609" lon="10.831456">
<ele>537.134</ele>
<time>2022-05-25T11:22:33Z</time>
</trkpt>
<trkpt lat="48.281567" lon="10.831423">
<ele>537.134</ele>
<time>2022-05-25T11:22:34Z</time>
</trkpt>
<trkpt lat="48.281521" lon="10.83139">
<ele>537.134</ele>
<time>2022-05-25T11:22:35Z</time>
</trkpt>
<trkpt lat="48.281479" lon="10.831358">
<ele>537.134</ele>
<time>2022-05-25T11:22:36Z</time>
</trkpt>
<trkpt lat="48.281441" lon="10.831326">
<ele>537.134</ele>
<time>2022-05-25T11:22:37Z</time>
</trkpt>
<trkpt lat="48.281403" lon="10.831302">
<ele>536.847</ele>
<time>2022-05-25T11:22:38Z</time>
</trkpt>
<trkpt lat="48.281364" lon="10.831275">
<ele>536.869</ele>
<time>2022-05-25T11:22:39Z</time>
</trkpt>
<trkpt lat="48.281326" lon="10.831248">
<ele>536.892</ele>
<time>2022-05-25T11:22:40Z</time>
</trkpt>
<trkpt lat="48.281284" lon="10.831223">
<ele>536.914</ele>
<time>2022-05-25T11:22:41Z</time>
</trkpt>
<trkpt lat="48.281246" lon="10.831197">
<ele>536.938</ele>
<time>2022-05-25T11:22:42Z</time>
</trkpt>
<trkpt lat="48.281208" lon="10.831168">
<ele>536.961</ele>
<time>2022-05-25T11:22:43Z</time>
</trkpt>
<trkpt lat="48.28117" lon="10.831138">
<ele>536.981</ele>
<time>2022-05-25T11:22:44Z</time>
</trkpt>
<trkpt lat="48.281132" lon="10.831112">
<ele>537.003</ele>
<time>2022-05-25T11:22:45Z</time>
</trkpt>
<trkpt lat="48.28109" lon="10.831087">
<ele>537.023</ele>
<time>2022-05-25T11:22:46Z</time>
</trkpt>
<trkpt lat="48.281052" lon="10.831059">
<ele>537.047</ele>
<time>2022-05-25T11:22:47Z</time>
</trkpt>
<trkpt lat="48.281013" lon="10.831025">
<ele>537.047</ele>
<time>2022-05-25T11:22:48Z</time>
</trkpt>
<trkpt lat="48.280975" lon="10.830993">
<ele>537.047</ele>
<time>2022-05-25T11:22:49Z</time>
</trkpt>
<trkpt lat="48.28093" lon="10.830961">
<ele>537.047</ele>
<time>2022-05-25T11:22:50Z</time>
</trkpt>
<trkpt lat="48.280888" lon="10.830932">
<ele>537.047</ele>
<time>2022-05-25T11:22:51Z</time>
</trkpt>
<trkpt lat="48.280849" lon="10.8309">
<ele>537.047</ele>
<time>2022-05-25T11:22:52Z</time>
</trkpt>
<trkpt lat="48.280807" lon="10.830867">
<ele>537.047</ele>
<time>2022-05-25T11:22:53Z</time>
</trkpt>
<trkpt lat="48.280769" lon="10.830836">
<ele>537.047</ele>
<time>2022-05-25T11:22:54Z</time>
</trkpt>
<trkpt lat="48.280731" lon="10.830811">
<ele>537.047</ele>
<time>2022-05-25T11:22:55Z</time>
</trkpt>
<trkpt lat="48.280693" lon="10.830787">
<ele>537.047</ele>
<time>2022-05-25T11:22:56Z</time>
</trkpt>
<trkpt lat="48.280659" lon="10.830762">
<ele>537.047</ele>
<time>2022-05-25T11:22:57Z</time>
</trkpt>
<trkpt lat="48.280621" lon="10.830731">
<ele>537.047</ele>
<time>2022-05-25T11:22:58Z</time>
</trkpt>
<trkpt lat="48.280579" lon="10.8307">
<ele>537.047</ele>
<time>2022-05-25T11:22:59Z</time>
</trkpt>
<trkpt lat="48.28054" lon="10.830673">
<ele>537.047</ele>
<time>2022-05-25T11:23:00Z</time>
</trkpt>
<trkpt lat="48.280502" lon="10.830648">
<ele>537.047</ele>
<time>2022-05-25T11:23:01Z</time>
</trkpt>
<trkpt lat="48.280464" lon="10.830618">
<ele>537.047</ele>
<time>2022-05-25T11:23:02Z</time>
</trkpt>
<trkpt lat="48.28043" lon="10.830588">
<ele>537.047</ele>
<time>2022-05-25T11:23:03Z</time>
</trkpt>
<trkpt lat="48.280392" lon="10.830565">
<ele>537.047</ele>
<time>2022-05-25T11:23:04Z</time>
</trkpt>
<trkpt lat="48.280357" lon="10.830544">
<ele>537.047</ele>
<time>2022-05-25T11:23:05Z</time>
</trkpt>
<trkpt lat="48.280323" lon="10.83052">
<ele>537.047</ele>
<time>2022-05-25T11:23:06Z</time>
</trkpt>
<trkpt lat="48.280285" lon="10.830492">
<ele>537.047</ele>
<time>2022-05-25T11:23:07Z</time>
</trkpt>
<trkpt lat="48.280254" lon="10.830461">
<ele>537.047</ele>
<time>2022-05-25T11:23:08Z</time>
</trkpt>
<trkpt lat="48.28022" lon="10.830435">
<ele>537.047</ele>
<time>2022-05-25T11:23:09Z</time>
</trkpt>
<trkpt lat="48.28019" lon="10.830412">
<ele>537.047</ele>
<time>2022-05-25T11:23:10Z</time>
</trkpt>
<trkpt lat="48.280159" lon="10.830392">
<ele>537.047</ele>
<time>2022-05-25T11:23:11Z</time>
</trkpt>
<trkpt lat="48.28014" lon="10.830379">
<ele>537.047</ele>
<time>2022-05-25T11:23:12Z</time>
</trkpt>
<trkpt lat="48.280125" lon="10.830372">
<ele>537.047</ele>
<time>2022-05-25T11:23:13Z</time>
</trkpt>
<trkpt lat="48.280113" lon="10.830368">
<ele>537.047</ele>
<time>2022-05-25T11:23:14Z</time>
</trkpt>
<trkpt lat="48.280113" lon="10.830366">
<ele>537.228</ele>
<time>2022-05-25T11:23:15Z</time>
</trkpt>
<trkpt lat="48.280106" lon="10.830363">
<ele>537.386</ele>
<time>2022-05-25T11:23:16Z</time>
</trkpt>
<trkpt lat="48.280094" lon="10.83036">
<ele>537.528</ele>
<time>2022-05-25T11:23:17Z</time>
</trkpt>
<trkpt lat="48.280079" lon="10.830356">
<ele>537.659</ele>
<time>2022-05-25T11:23:18Z</time>
</trkpt>
<trkpt lat="48.280067" lon="10.830335">
<ele>537.784</ele>
<time>2022-05-25T11:23:19Z</time>
</trkpt>
<trkpt lat="48.280056" lon="10.830314">
<ele>537.897</ele>
<time>2022-05-25T11:23:20Z</time>
</trkpt>
<trkpt lat="48.280041" lon="10.830301">
<ele>537.97</ele>
<time>2022-05-25T11:23:21Z</time>
</trkpt>
<trkpt lat="48.280025" lon="10.830308">
<ele>538.004</ele>
<time>2022-05-25T11:23:22Z</time>
</trkpt>
<trkpt lat="48.280014" lon="10.830329">
<ele>538.004</ele>
<time>2022-05-25T11:23:23Z</time>
</trkpt>
<trkpt lat="48.280006" lon="10.83036">
<ele>538.004</ele>
<time>2022-05-25T11:23:24Z</time>
</trkpt>
<trkpt lat="48.279999" lon="10.830396">
<ele>538.004</ele>
<time>2022-05-25T11:23:25Z</time>
</trkpt>
<trkpt lat="48.279987" lon="10.830437">
<ele>538.004</ele>
<time>2022-05-25T11:23:26Z</time>
</trkpt>
<trkpt lat="48.279976" lon="10.830483">
<ele>538.004</ele>
<time>2022-05-25T11:23:27Z</time>
</trkpt>
<trkpt lat="48.279964" lon="10.830528">
<ele>538.004</ele>
<time>2022-05-25T11:23:28Z</time>
</trkpt>
<trkpt lat="48.279953" lon="10.830575">
<ele>538.004</ele>
<time>2022-05-25T11:23:29Z</time>
</trkpt>
<trkpt lat="48.279945" lon="10.830616">
<ele>538.004</ele>
<time>2022-05-25T11:23:30Z</time>
</trkpt>
<trkpt lat="48.27993" lon="10.830658">
<ele>538.004</ele>
<time>2022-05-25T11:23:31Z</time>
</trkpt>
<trkpt lat="48.279915" lon="10.8307">
<ele>538.004</ele>
<time>2022-05-25T11:23:32Z</time>
</trkpt>
<trkpt lat="48.279903" lon="10.830747">
<ele>538.004</ele>
<time>2022-05-25T11:23:33Z</time>
</trkpt>
<trkpt lat="48.279884" lon="10.830796">
<ele>538.004</ele>
<time>2022-05-25T11:23:34Z</time>
</trkpt>
<trkpt lat="48.279869" lon="10.830849">
<ele>538.004</ele>
<time>2022-05-25T11:23:35Z</time>
</trkpt>
<trkpt lat="48.27985" lon="10.830896">
<ele>538.004</ele>
<time>2022-05-25T11:23:36Z</time>
</trkpt>
<trkpt lat="48.279835" lon="10.830952">
<ele>538.004</ele>
<time>2022-05-25T11:23:37Z</time>
</trkpt>
<trkpt lat="48.279816" lon="10.830999">
<ele>538.004</ele>
<time>2022-05-25T11:23:38Z</time>
</trkpt>
<trkpt lat="48.279808" lon="10.831048">
<ele>538.004</ele>
<time>2022-05-25T11:23:39Z</time>
</trkpt>
<trkpt lat="48.279793" lon="10.8311">
<ele>538.004</ele>
<time>2022-05-25T11:23:40Z</time>
</trkpt>
<trkpt lat="48.279781" lon="10.831145">
<ele>538.004</ele>
<time>2022-05-25T11:23:41Z</time>
</trkpt>
<trkpt lat="48.279766" lon="10.831188">
<ele>538.004</ele>
<time>2022-05-25T11:23:42Z</time>
</trkpt>
<trkpt lat="48.279751" lon="10.831228">
<ele>538.004</ele>
<time>2022-05-25T11:23:43Z</time>
</trkpt>
<trkpt lat="48.279739" lon="10.831265">
<ele>538.004</ele>
<time>2022-05-25T11:23:44Z</time>
</trkpt>
<trkpt lat="48.279728" lon="10.831304">
<ele>538.004</ele>
<time>2022-05-25T11:23:45Z</time>
</trkpt>
<trkpt lat="48.279716" lon="10.831349">
<ele>538.004</ele>
<time>2022-05-25T11:23:46Z</time>
</trkpt>
<trkpt lat="48.279697" lon="10.8314">
<ele>538.004</ele>
<time>2022-05-25T11:23:47Z</time>
</trkpt>
<trkpt lat="48.279682" lon="10.831451">
<ele>538.004</ele>
<time>2022-05-25T11:23:48Z</time>
</trkpt>
<trkpt lat="48.279675" lon="10.831496">
<ele>538.004</ele>
<time>2022-05-25T11:23:49Z</time>
</trkpt>
<trkpt lat="48.279659" lon="10.831529">
<ele>538.004</ele>
<time>2022-05-25T11:23:50Z</time>
</trkpt>
<trkpt lat="48.279652" lon="10.831554">
<ele>538.004</ele>
<time>2022-05-25T11:23:51Z</time>
</trkpt>
<trkpt lat="48.279652" lon="10.831578">
<ele>538.004</ele>
<time>2022-05-25T11:23:52Z</time>
</trkpt>
<trkpt lat="48.279644" lon="10.831596">
<ele>538.004</ele>
<time>2022-05-25T11:23:53Z</time>
</trkpt>
<trkpt lat="48.27964" lon="10.831617">
<ele>537.82</ele>
<time>2022-05-25T11:23:54Z</time>
</trkpt>
<trkpt lat="48.279633" lon="10.831638">
<ele>537.65</ele>
<time>2022-05-25T11:23:55Z</time>
</trkpt>
<trkpt lat="48.279625" lon="10.831663">
<ele>537.492</ele>
<time>2022-05-25T11:23:56Z</time>
</trkpt>
<trkpt lat="48.279617" lon="10.831693">
<ele>537.343</ele>
<time>2022-05-25T11:23:57Z</time>
</trkpt>
<trkpt lat="48.279606" lon="10.831728">
<ele>537.213</ele>
<time>2022-05-25T11:23:58Z</time>
</trkpt>
<trkpt lat="48.279587" lon="10.83177">
<ele>537.121</ele>
<time>2022-05-25T11:23:59Z</time>
</trkpt>
<trkpt lat="48.279572" lon="10.831815">
<ele>537.068</ele>
<time>2022-05-25T11:24:00Z</time>
</trkpt>
<trkpt lat="48.279552" lon="10.831863">
<ele>537.047</ele>
<time>2022-05-25T11:24:01Z</time>
</trkpt>
<trkpt lat="48.279537" lon="10.831915">
<ele>537.047</ele>
<time>2022-05-25T11:24:02Z</time>
</trkpt>
<trkpt lat="48.279518" lon="10.831969">
<ele>537.047</ele>
<time>2022-05-25T11:24:03Z</time>
</trkpt>
<trkpt lat="48.279507" lon="10.832022">
<ele>537.047</ele>
<time>2022-05-25T11:24:04Z</time>
</trkpt>
<trkpt lat="48.279488" lon="10.832076">
<ele>537.047</ele>
<time>2022-05-25T11:24:05Z</time>
</trkpt>
<trkpt lat="48.279476" lon="10.832125">
<ele>537.047</ele>
<time>2022-05-25T11:24:06Z</time>
</trkpt>
<trkpt lat="48.279457" lon="10.832178">
<ele>537.047</ele>
<time>2022-05-25T11:24:07Z</time>
</trkpt>
<trkpt lat="48.279442" lon="10.832238">
<ele>537.047</ele>
<time>2022-05-25T11:24:08Z</time>
</trkpt>
<trkpt lat="48.279427" lon="10.832298">
<ele>537.047</ele>
<time>2022-05-25T11:24:09Z</time>
</trkpt>
<trkpt lat="48.279408" lon="10.832358">
<ele>537.047</ele>
<time>2022-05-25T11:24:10Z</time>
</trkpt>
<trkpt lat="48.279385" lon="10.832426">
<ele>537.047</ele>
<time>2022-05-25T11:24:11Z</time>
</trkpt>
<trkpt lat="48.279366" lon="10.832487">
<ele>537.047</ele>
<time>2022-05-25T11:24:12Z</time>
</trkpt>
<trkpt lat="48.279343" lon="10.832548">
<ele>537.047</ele>
<time>2022-05-25T11:24:13Z</time>
</trkpt>
<trkpt lat="48.279324" lon="10.832615">
<ele>537.047</ele>
<time>2022-05-25T11:24:14Z</time>
</trkpt>
<trkpt lat="48.279305" lon="10.832678">
<ele>537.047</ele>
<time>2022-05-25T11:24:15Z</time>
</trkpt>
<trkpt lat="48.279285" lon="10.832745">
<ele>537.047</ele>
<time>2022-05-25T11:24:16Z</time>
</trkpt>
<trkpt lat="48.279263" lon="10.832808">
<ele>537.047</ele>
<time>2022-05-25T11:24:17Z</time>
</trkpt>
<trkpt lat="48.27924" lon="10.832876">
<ele>537.047</ele>
<time>2022-05-25T11:24:18Z</time>
</trkpt>
<trkpt lat="48.279221" lon="10.832948">
<ele>537.334</ele>
<time>2022-05-25T11:24:19Z</time>
</trkpt>
<trkpt lat="48.279198" lon="10.833014">
<ele>537.56</ele>
<time>2022-05-25T11:24:20Z</time>
</trkpt>
<trkpt lat="48.279179" lon="10.833077">
<ele>537.726</ele>
<time>2022-05-25T11:24:21Z</time>
</trkpt>
<trkpt lat="48.27916" lon="10.83313">
<ele>537.848</ele>
<time>2022-05-25T11:24:22Z</time>
</trkpt>
<trkpt lat="48.279137" lon="10.833192">
<ele>537.941</ele>
<time>2022-05-25T11:24:23Z</time>
</trkpt>
<trkpt lat="48.279121" lon="10.833255">
<ele>538.004</ele>
<time>2022-05-25T11:24:24Z</time>
</trkpt>
<trkpt lat="48.279102" lon="10.833317">
<ele>538.063</ele>
<time>2022-05-25T11:24:25Z</time>
</trkpt>
<trkpt lat="48.279087" lon="10.833373">
<ele>538.091</ele>
<time>2022-05-25T11:24:26Z</time>
</trkpt>
<trkpt lat="48.279068" lon="10.833431">
<ele>538.091</ele>
<time>2022-05-25T11:24:27Z</time>
</trkpt>
<trkpt lat="48.279053" lon="10.833493">
<ele>538.091</ele>
<time>2022-05-25T11:24:28Z</time>
</trkpt>
<trkpt lat="48.279034" lon="10.833557">
<ele>538.091</ele>
<time>2022-05-25T11:24:29Z</time>
</trkpt>
<trkpt lat="48.279018" lon="10.833616">
<ele>538.091</ele>
<time>2022-05-25T11:24:30Z</time>
</trkpt>
<trkpt lat="48.278999" lon="10.833678">
<ele>538.091</ele>
<time>2022-05-25T11:24:31Z</time>
</trkpt>
<trkpt lat="48.278984" lon="10.833741">
<ele>538.091</ele>
<time>2022-05-25T11:24:32Z</time>
</trkpt>
<trkpt lat="48.278965" lon="10.833803">
<ele>538.091</ele>
<time>2022-05-25T11:24:33Z</time>
</trkpt>
<trkpt lat="48.278957" lon="10.833855">
<ele>538.091</ele>
<time>2022-05-25T11:24:34Z</time>
</trkpt>
<trkpt lat="48.278942" lon="10.833914">
<ele>538.091</ele>
<time>2022-05-25T11:24:35Z</time>
</trkpt>
<trkpt lat="48.278931" lon="10.833972">
<ele>538.091</ele>
<time>2022-05-25T11:24:36Z</time>
</trkpt>
<trkpt lat="48.278912" lon="10.834033">
<ele>538.091</ele>
<time>2022-05-25T11:24:37Z</time>
</trkpt>
<trkpt lat="48.2789" lon="10.834098">
<ele>538.091</ele>
<time>2022-05-25T11:24:38Z</time>
</trkpt>
<trkpt lat="48.278885" lon="10.834157">
<ele>538.091</ele>
<time>2022-05-25T11:24:39Z</time>
</trkpt>
<trkpt lat="48.27887" lon="10.834213">
<ele>538.091</ele>
<time>2022-05-25T11:24:40Z</time>
</trkpt>
<trkpt lat="48.278866" lon="10.834273">
<ele>538.091</ele>
<time>2022-05-25T11:24:41Z</time>
</trkpt>
<trkpt lat="48.278862" lon="10.834336">
<ele>538.091</ele>
<time>2022-05-25T11:24:42Z</time>
</trkpt>
<trkpt lat="48.278847" lon="10.834402">
<ele>538.091</ele>
<time>2022-05-25T11:24:43Z</time>
</trkpt>
<trkpt lat="48.278831" lon="10.834455">
<ele>538.091</ele>
<time>2022-05-25T11:24:44Z</time>
</trkpt>
<trkpt lat="48.27882" lon="10.834506">
<ele>538.091</ele>
<time>2022-05-25T11:24:45Z</time>
</trkpt>
<trkpt lat="48.278805" lon="10.834553">
<ele>538.091</ele>
<time>2022-05-25T11:24:46Z</time>
</trkpt>
<trkpt lat="48.278793" lon="10.834607">
<ele>538.091</ele>
<time>2022-05-25T11:24:47Z</time>
</trkpt>
<trkpt lat="48.278774" lon="10.834667">
<ele>538.091</ele>
<time>2022-05-25T11:24:48Z</time>
</trkpt>
<trkpt lat="48.278759" lon="10.834726">
<ele>538.091</ele>
<time>2022-05-25T11:24:49Z</time>
</trkpt>
<trkpt lat="48.278755" lon="10.834784">
<ele>538.091</ele>
<time>2022-05-25T11:24:50Z</time>
</trkpt>
<trkpt lat="48.278748" lon="10.834863">
<ele>538.091</ele>
<time>2022-05-25T11:24:51Z</time>
</trkpt>
<trkpt lat="48.278736" lon="10.834924">
<ele>538.091</ele>
<time>2022-05-25T11:24:52Z</time>
</trkpt>
<trkpt lat="48.278728" lon="10.834989">
<ele>538.091</ele>
<time>2022-05-25T11:24:53Z</time>
</trkpt>
<trkpt lat="48.278717" lon="10.835052">
<ele>538.091</ele>
<time>2022-05-25T11:24:54Z</time>
</trkpt>
<trkpt lat="48.278706" lon="10.835118">
<ele>538.091</ele>
<time>2022-05-25T11:24:55Z</time>
</trkpt>
<trkpt lat="48.278702" lon="10.835185">
<ele>538.091</ele>
<time>2022-05-25T11:24:56Z</time>
</trkpt>
<trkpt lat="48.27869" lon="10.835248">
<ele>538.091</ele>
<time>2022-05-25T11:24:57Z</time>
</trkpt>
<trkpt lat="48.278687" lon="10.835311">
<ele>538.091</ele>
<time>2022-05-25T11:24:58Z</time>
</trkpt>
<trkpt lat="48.278683" lon="10.83539">
<ele>538.091</ele>
<time>2022-05-25T11:24:59Z</time>
</trkpt>
<trkpt lat="48.278675" lon="10.835448">
<ele>538.091</ele>
<time>2022-05-25T11:25:00Z</time>
</trkpt>
<trkpt lat="48.278667" lon="10.835505">
<ele>538.091</ele>
<time>2022-05-25T11:25:01Z</time>
</trkpt>
<trkpt lat="48.278656" lon="10.835555">
<ele>538.091</ele>
<time>2022-05-25T11:25:02Z</time>
</trkpt>
<trkpt lat="48.278648" lon="10.83561">
<ele>538.091</ele>
<time>2022-05-25T11:25:03Z</time>
</trkpt>
<trkpt lat="48.278641" lon="10.835677">
<ele>538.091</ele>
<time>2022-05-25T11:25:04Z</time>
</trkpt>
<trkpt lat="48.278641" lon="10.835734">
<ele>538.091</ele>
<time>2022-05-25T11:25:05Z</time>
</trkpt>
<trkpt lat="48.278633" lon="10.8358">
<ele>538.091</ele>
<time>2022-05-25T11:25:06Z</time>
</trkpt>
<trkpt lat="48.278625" lon="10.83588">
<ele>538.091</ele>
<time>2022-05-25T11:25:07Z</time>
</trkpt>
<trkpt lat="48.278614" lon="10.835955">
<ele>538.091</ele>
<time>2022-05-25T11:25:08Z</time>
</trkpt>
<trkpt lat="48.278606" lon="10.836025">
<ele>538.091</ele>
<time>2022-05-25T11:25:09Z</time>
</trkpt>
<trkpt lat="48.278606" lon="10.836097">
<ele>538.091</ele>
<time>2022-05-25T11:25:10Z</time>
</trkpt>
<trkpt lat="48.278603" lon="10.836164">
<ele>538.091</ele>
<time>2022-05-25T11:25:11Z</time>
</trkpt>
<trkpt lat="48.278599" lon="10.83622">
<ele>538.091</ele>
<time>2022-05-25T11:25:12Z</time>
</trkpt>
<trkpt lat="48.278591" lon="10.836281">
<ele>538.091</ele>
<time>2022-05-25T11:25:13Z</time>
</trkpt>
<trkpt lat="48.278587" lon="10.836346">
<ele>538.091</ele>
<time>2022-05-25T11:25:14Z</time>
</trkpt>
<trkpt lat="48.278584" lon="10.836405">
<ele>538.091</ele>
<time>2022-05-25T11:25:15Z</time>
</trkpt>
<trkpt lat="48.27858" lon="10.836467">
<ele>538.091</ele>
<time>2022-05-25T11:25:16Z</time>
</trkpt>
<trkpt lat="48.278576" lon="10.836526">
<ele>538.091</ele>
<time>2022-05-25T11:25:17Z</time>
</trkpt>
<trkpt lat="48.278572" lon="10.836592">
<ele>538.091</ele>
<time>2022-05-25T11:25:18Z</time>
</trkpt>
<trkpt lat="48.278561" lon="10.836656">
<ele>538.091</ele>
<time>2022-05-25T11:25:19Z</time>
</trkpt>
<trkpt lat="48.278549" lon="10.83672">
<ele>538.091</ele>
<time>2022-05-25T11:25:20Z</time>
</trkpt>
<trkpt lat="48.278542" lon="10.836788">
<ele>538.091</ele>
<time>2022-05-25T11:25:21Z</time>
</trkpt>
<trkpt lat="48.278538" lon="10.836864">
<ele>538.091</ele>
<time>2022-05-25T11:25:22Z</time>
</trkpt>
<trkpt lat="48.278534" lon="10.836941">
<ele>538.091</ele>
<time>2022-05-25T11:25:23Z</time>
</trkpt>
<trkpt lat="48.27853" lon="10.837013">
<ele>538.091</ele>
<time>2022-05-25T11:25:24Z</time>
</trkpt>
<trkpt lat="48.27853" lon="10.837082">
<ele>538.091</ele>
<time>2022-05-25T11:25:25Z</time>
</trkpt>
<trkpt lat="48.278526" lon="10.837151">
<ele>538.091</ele>
<time>2022-05-25T11:25:26Z</time>
</trkpt>
<trkpt lat="48.278522" lon="10.837218">
<ele>538.091</ele>
<time>2022-05-25T11:25:27Z</time>
</trkpt>
<trkpt lat="48.278515" lon="10.837282">
<ele>538.091</ele>
<time>2022-05-25T11:25:28Z</time>
</trkpt>
<trkpt lat="48.278507" lon="10.83735">
<ele>538.091</ele>
<time>2022-05-25T11:25:29Z</time>
</trkpt>
<trkpt lat="48.278507" lon="10.837417">
<ele>538.091</ele>
<time>2022-05-25T11:25:30Z</time>
</trkpt>
<trkpt lat="48.278507" lon="10.837481">
<ele>538.091</ele>
<time>2022-05-25T11:25:31Z</time>
</trkpt>
<trkpt lat="48.278507" lon="10.83754">
<ele>538.048</ele>
<time>2022-05-25T11:25:32Z</time>
</trkpt>
<trkpt lat="48.278507" lon="10.837602">
<ele>538.014</ele>
<time>2022-05-25T11:25:33Z</time>
</trkpt>
<trkpt lat="48.278507" lon="10.837662">
<ele>537.985</ele>
<time>2022-05-25T11:25:34Z</time>
</trkpt>
<trkpt lat="48.278507" lon="10.837718">
<ele>537.962</ele>
<time>2022-05-25T11:25:35Z</time>
</trkpt>
<trkpt lat="48.278507" lon="10.837775">
<ele>537.944</ele>
<time>2022-05-25T11:25:36Z</time>
</trkpt>
<trkpt lat="48.278503" lon="10.83784">
<ele>537.931</ele>
<time>2022-05-25T11:25:37Z</time>
</trkpt>
<trkpt lat="48.2785" lon="10.837903">
<ele>537.921</ele>
<time>2022-05-25T11:25:38Z</time>
</trkpt>
<trkpt lat="48.278496" lon="10.83797">
<ele>537.917</ele>
<time>2022-05-25T11:25:39Z</time>
</trkpt>
<trkpt lat="48.278492" lon="10.838037">
<ele>537.917</ele>
<time>2022-05-25T11:25:40Z</time>
</trkpt>
<trkpt lat="48.278488" lon="10.838103">
<ele>537.917</ele>
<time>2022-05-25T11:25:41Z</time>
</trkpt>
<trkpt lat="48.278481" lon="10.83817">
<ele>537.917</ele>
<time>2022-05-25T11:25:42Z</time>
</trkpt>
<trkpt lat="48.278477" lon="10.838238">
<ele>537.917</ele>
<time>2022-05-25T11:25:43Z</time>
</trkpt>
<trkpt lat="48.278469" lon="10.838308">
<ele>537.917</ele>
<time>2022-05-25T11:25:44Z</time>
</trkpt>
<trkpt lat="48.278465" lon="10.838373">
<ele>537.917</ele>
<time>2022-05-25T11:25:45Z</time>
</trkpt>
<trkpt lat="48.278458" lon="10.838435">
<ele>537.917</ele>
<time>2022-05-25T11:25:46Z</time>
</trkpt>
<trkpt lat="48.27845" lon="10.838498">
<ele>537.917</ele>
<time>2022-05-25T11:25:47Z</time>
</trkpt>
<trkpt lat="48.278442" lon="10.838565">
<ele>537.917</ele>
<time>2022-05-25T11:25:48Z</time>
</trkpt>
<trkpt lat="48.278439" lon="10.838634">
<ele>537.917</ele>
<time>2022-05-25T11:25:49Z</time>
</trkpt>
<trkpt lat="48.278427" lon="10.838701">
<ele>537.917</ele>
<time>2022-05-25T11:25:50Z</time>
</trkpt>
<trkpt lat="48.278419" lon="10.838775">
<ele>537.917</ele>
<time>2022-05-25T11:25:51Z</time>
</trkpt>
<trkpt lat="48.278408" lon="10.838843">
<ele>538.159</ele>
<time>2022-05-25T11:25:52Z</time>
</trkpt>
<trkpt lat="48.2784" lon="10.838913">
<ele>538.355</ele>
<time>2022-05-25T11:25:53Z</time>
</trkpt>
<trkpt lat="48.278385" lon="10.838985">
<ele>538.486</ele>
<time>2022-05-25T11:25:54Z</time>
</trkpt>
<trkpt lat="48.278378" lon="10.839055">
<ele>538.623</ele>
<time>2022-05-25T11:25:55Z</time>
</trkpt>
<trkpt lat="48.278374" lon="10.839118">
<ele>538.726</ele>
<time>2022-05-25T11:25:56Z</time>
</trkpt>
<trkpt lat="48.278362" lon="10.839178">
<ele>538.802</ele>
<time>2022-05-25T11:25:57Z</time>
</trkpt>
<trkpt lat="48.278351" lon="10.839233">
<ele>538.85</ele>
<time>2022-05-25T11:25:58Z</time>
</trkpt>
<trkpt lat="48.278343" lon="10.839292">
<ele>538.874</ele>
<time>2022-05-25T11:25:59Z</time>
</trkpt>
<trkpt lat="48.278336" lon="10.839354">
<ele>538.874</ele>
<time>2022-05-25T11:26:00Z</time>
</trkpt>
<trkpt lat="48.27832" lon="10.839419">
<ele>538.874</ele>
<time>2022-05-25T11:26:01Z</time>
</trkpt>
<trkpt lat="48.278313" lon="10.839484">
<ele>538.874</ele>
<time>2022-05-25T11:26:02Z</time>
</trkpt>
<trkpt lat="48.278309" lon="10.839545">
<ele>538.874</ele>
<time>2022-05-25T11:26:03Z</time>
</trkpt>
<trkpt lat="48.278297" lon="10.839619">
<ele>538.874</ele>
<time>2022-05-25T11:26:04Z</time>
</trkpt>
<trkpt lat="48.278286" lon="10.83969">
<ele>538.874</ele>
<time>2022-05-25T11:26:05Z</time>
</trkpt>
<trkpt lat="48.278278" lon="10.839769">
<ele>538.874</ele>
<time>2022-05-25T11:26:06Z</time>
</trkpt>
<trkpt lat="48.278267" lon="10.839836">
<ele>538.874</ele>
<time>2022-05-25T11:26:07Z</time>
</trkpt>
<trkpt lat="48.278263" lon="10.839887">
<ele>538.874</ele>
<time>2022-05-25T11:26:08Z</time>
</trkpt>
<trkpt lat="48.278255" lon="10.839935">
<ele>538.874</ele>
<time>2022-05-25T11:26:09Z</time>
</trkpt>
<trkpt lat="48.278252" lon="10.839976">
<ele>538.874</ele>
<time>2022-05-25T11:26:10Z</time>
</trkpt>
<trkpt lat="48.278248" lon="10.840023">
<ele>538.874</ele>
<time>2022-05-25T11:26:11Z</time>
</trkpt>
<trkpt lat="48.278236" lon="10.840072">
<ele>538.874</ele>
<time>2022-05-25T11:26:12Z</time>
</trkpt>
<trkpt lat="48.278229" lon="10.840117">
<ele>538.874</ele>
<time>2022-05-25T11:26:13Z</time>
</trkpt>
<trkpt lat="48.278217" lon="10.840158">
<ele>538.874</ele>
<time>2022-05-25T11:26:14Z</time>
</trkpt>
<trkpt lat="48.278206" lon="10.840199">
<ele>538.874</ele>
<time>2022-05-25T11:26:15Z</time>
</trkpt>
<trkpt lat="48.278194" lon="10.840235">
<ele>538.874</ele>
<time>2022-05-25T11:26:16Z</time>
</trkpt>
<trkpt lat="48.278179" lon="10.84027">
<ele>538.874</ele>
<time>2022-05-25T11:26:17Z</time>
</trkpt>
<trkpt lat="48.27816" lon="10.840295">
<ele>538.874</ele>
<time>2022-05-25T11:26:18Z</time>
</trkpt>
<trkpt lat="48.278145" lon="10.840319">
<ele>538.874</ele>
<time>2022-05-25T11:26:19Z</time>
</trkpt>
<trkpt lat="48.278118" lon="10.840339">
<ele>538.874</ele>
<time>2022-05-25T11:26:20Z</time>
</trkpt>
<trkpt lat="48.278084" lon="10.840337">
<ele>538.874</ele>
<time>2022-05-25T11:26:21Z</time>
</trkpt>
<trkpt lat="48.278049" lon="10.840326">
<ele>538.874</ele>
<time>2022-05-25T11:26:22Z</time>
</trkpt>
<trkpt lat="48.278008" lon="10.840319">
<ele>538.874</ele>
<time>2022-05-25T11:26:23Z</time>
</trkpt>
<trkpt lat="48.277966" lon="10.840314">
<ele>538.874</ele>
<time>2022-05-25T11:26:24Z</time>
</trkpt>
<trkpt lat="48.277924" lon="10.840305">
<ele>538.874</ele>
<time>2022-05-25T11:26:25Z</time>
</trkpt>
<trkpt lat="48.277885" lon="10.840286">
<ele>539.234</ele>
<time>2022-05-25T11:26:26Z</time>
</trkpt>
<trkpt lat="48.277847" lon="10.840263">
<ele>539.478</ele>
<time>2022-05-25T11:26:27Z</time>
</trkpt>
<trkpt lat="48.277802" lon="10.840237">
<ele>539.638</ele>
<time>2022-05-25T11:26:28Z</time>
</trkpt>
<trkpt lat="48.27776" lon="10.840214">
<ele>539.753</ele>
<time>2022-05-25T11:26:29Z</time>
</trkpt>
<trkpt lat="48.277718" lon="10.840195">
<ele>539.834</ele>
<time>2022-05-25T11:26:30Z</time>
</trkpt>
<trkpt lat="48.277679" lon="10.840168">
<ele>539.893</ele>
<time>2022-05-25T11:26:31Z</time>
</trkpt>
<trkpt lat="48.277645" lon="10.840142">
<ele>539.918</ele>
<time>2022-05-25T11:26:32Z</time>
</trkpt>
<trkpt lat="48.277607" lon="10.840118">
<ele>539.918</ele>
<time>2022-05-25T11:26:33Z</time>
</trkpt>
<trkpt lat="48.277569" lon="10.840096">
<ele>539.918</ele>
<time>2022-05-25T11:26:34Z</time>
</trkpt>
<trkpt lat="48.277531" lon="10.840075">
<ele>539.918</ele>
<time>2022-05-25T11:26:35Z</time>
</trkpt>
<trkpt lat="48.2775" lon="10.840055">
<ele>540.192</ele>
<time>2022-05-25T11:26:36Z</time>
</trkpt>
<trkpt lat="48.277466" lon="10.840035">
<ele>540.41</ele>
<time>2022-05-25T11:26:37Z</time>
</trkpt>
<trkpt lat="48.277431" lon="10.840022">
<ele>540.585</ele>
<time>2022-05-25T11:26:38Z</time>
</trkpt>
<trkpt lat="48.277393" lon="10.840004">
<ele>540.706</ele>
<time>2022-05-25T11:26:39Z</time>
</trkpt>
<trkpt lat="48.277355" lon="10.839987">
<ele>540.786</ele>
<time>2022-05-25T11:26:40Z</time>
</trkpt>
<trkpt lat="48.277321" lon="10.839972">
<ele>541.08</ele>
<time>2022-05-25T11:26:41Z</time>
</trkpt>
<trkpt lat="48.277287" lon="10.839964">
<ele>541.31</ele>
<time>2022-05-25T11:26:42Z</time>
</trkpt>
<trkpt lat="48.277252" lon="10.839952">
<ele>541.46</ele>
<time>2022-05-25T11:26:43Z</time>
</trkpt>
<trkpt lat="48.277225" lon="10.83994">
<ele>541.566</ele>
<time>2022-05-25T11:26:44Z</time>
</trkpt>
<trkpt lat="48.277195" lon="10.839931">
<ele>541.676</ele>
<time>2022-05-25T11:26:45Z</time>
</trkpt>
<trkpt lat="48.277164" lon="10.839922">
<ele>541.754</ele>
<time>2022-05-25T11:26:46Z</time>
</trkpt>
<trkpt lat="48.277142" lon="10.839927">
<ele>541.805</ele>
<time>2022-05-25T11:26:47Z</time>
</trkpt>
<trkpt lat="48.277111" lon="10.83995">
<ele>541.832</ele>
<time>2022-05-25T11:26:48Z</time>
</trkpt>
<trkpt lat="48.277092" lon="10.839983">
<ele>541.832</ele>
<time>2022-05-25T11:26:49Z</time>
</trkpt>
<trkpt lat="48.277073" lon="10.840029">
<ele>541.832</ele>
<time>2022-05-25T11:26:50Z</time>
</trkpt>
<trkpt lat="48.277058" lon="10.840075">
<ele>541.832</ele>
<time>2022-05-25T11:26:51Z</time>
</trkpt>
<trkpt lat="48.277042" lon="10.840127">
<ele>542.06</ele>
<time>2022-05-25T11:26:52Z</time>
</trkpt>
<trkpt lat="48.277023" lon="10.840172">
<ele>542.237</ele>
<time>2022-05-25T11:26:53Z</time>
</trkpt>
<trkpt lat="48.277008" lon="10.840221">
<ele>542.357</ele>
<time>2022-05-25T11:26:54Z</time>
</trkpt>
<trkpt lat="48.276985" lon="10.840272">
<ele>542.487</ele>
<time>2022-05-25T11:26:55Z</time>
</trkpt>
<trkpt lat="48.276966" lon="10.840322">
<ele>542.577</ele>
<time>2022-05-25T11:26:56Z</time>
</trkpt>
<trkpt lat="48.276947" lon="10.84037">
<ele>542.641</ele>
<time>2022-05-25T11:26:57Z</time>
</trkpt>
<trkpt lat="48.276932" lon="10.840424">
<ele>542.682</ele>
<time>2022-05-25T11:26:58Z</time>
</trkpt>
<trkpt lat="48.276913" lon="10.840477">
<ele>542.702</ele>
<time>2022-05-25T11:26:59Z</time>
</trkpt>
<trkpt lat="48.276894" lon="10.840529">
<ele>542.702</ele>
<time>2022-05-25T11:27:00Z</time>
</trkpt>
<trkpt lat="48.276875" lon="10.840585">
<ele>542.702</ele>
<time>2022-05-25T11:27:01Z</time>
</trkpt>
<trkpt lat="48.276852" lon="10.840638">
<ele>542.702</ele>
<time>2022-05-25T11:27:02Z</time>
</trkpt>
<trkpt lat="48.276829" lon="10.84069">
<ele>542.702</ele>
<time>2022-05-25T11:27:03Z</time>
</trkpt>
<trkpt lat="48.27681" lon="10.840738">
<ele>542.702</ele>
<time>2022-05-25T11:27:04Z</time>
</trkpt>
<trkpt lat="48.276787" lon="10.840788">
<ele>542.702</ele>
<time>2022-05-25T11:27:05Z</time>
</trkpt>
<trkpt lat="48.276768" lon="10.840832">
<ele>542.702</ele>
<time>2022-05-25T11:27:06Z</time>
</trkpt>
<trkpt lat="48.276741" lon="10.840876">
<ele>542.702</ele>
<time>2022-05-25T11:27:07Z</time>
</trkpt>
<trkpt lat="48.276714" lon="10.840919">
<ele>542.702</ele>
<time>2022-05-25T11:27:08Z</time>
</trkpt>
<trkpt lat="48.276688" lon="10.840961">
<ele>542.702</ele>
<time>2022-05-25T11:27:09Z</time>
</trkpt>
<trkpt lat="48.276661" lon="10.841007">
<ele>542.703</ele>
<time>2022-05-25T11:27:10Z</time>
</trkpt>
<trkpt lat="48.276638" lon="10.841053">
<ele>542.702</ele>
<time>2022-05-25T11:27:11Z</time>
</trkpt>
<trkpt lat="48.276611" lon="10.8411">
<ele>542.702</ele>
<time>2022-05-25T11:27:12Z</time>
</trkpt>
<trkpt lat="48.276585" lon="10.841144">
<ele>542.702</ele>
<time>2022-05-25T11:27:13Z</time>
</trkpt>
<trkpt lat="48.276562" lon="10.841189">
<ele>542.702</ele>
<time>2022-05-25T11:27:14Z</time>
</trkpt>
<trkpt lat="48.276535" lon="10.841233">
<ele>542.702</ele>
<time>2022-05-25T11:27:15Z</time>
</trkpt>
<trkpt lat="48.276512" lon="10.841275">
<ele>542.702</ele>
<time>2022-05-25T11:27:16Z</time>
</trkpt>
<trkpt lat="48.276489" lon="10.841311">
<ele>542.702</ele>
<time>2022-05-25T11:27:17Z</time>
</trkpt>
<trkpt lat="48.276463" lon="10.841343">
<ele>542.702</ele>
<time>2022-05-25T11:27:18Z</time>
</trkpt>
<trkpt lat="48.276447" lon="10.841376">
<ele>542.702</ele>
<time>2022-05-25T11:27:19Z</time>
</trkpt>
<trkpt lat="48.276424" lon="10.841407">
<ele>542.702</ele>
<time>2022-05-25T11:27:20Z</time>
</trkpt>
<trkpt lat="48.276405" lon="10.841431">
<ele>542.702</ele>
<time>2022-05-25T11:27:21Z</time>
</trkpt>
<trkpt lat="48.276382" lon="10.84145">
<ele>542.702</ele>
<time>2022-05-25T11:27:22Z</time>
</trkpt>
<trkpt lat="48.276356" lon="10.841468">
<ele>542.702</ele>
<time>2022-05-25T11:27:23Z</time>
</trkpt>
<trkpt lat="48.27634" lon="10.841476">
<ele>542.702</ele>
<time>2022-05-25T11:27:24Z</time>
</trkpt>
<trkpt lat="48.276329" lon="10.841478">
<ele>542.702</ele>
<time>2022-05-25T11:27:25Z</time>
</trkpt>
<trkpt lat="48.276325" lon="10.841476">
<ele>542.702</ele>
<time>2022-05-25T11:27:26Z</time>
</trkpt>
<trkpt lat="48.276318" lon="10.84147">
<ele>542.702</ele>
<time>2022-05-25T11:27:27Z</time>
</trkpt>
<trkpt lat="48.27631" lon="10.841468">
<ele>542.702</ele>
<time>2022-05-25T11:27:28Z</time>
</trkpt>
<trkpt lat="48.276299" lon="10.841465">
<ele>542.702</ele>
<time>2022-05-25T11:27:29Z</time>
</trkpt>
<trkpt lat="48.276268" lon="10.841465">
<ele>542.702</ele>
<time>2022-05-25T11:27:34Z</time>
</trkpt>
<trkpt lat="48.276272" lon="10.841467">
<ele>542.702</ele>
<time>2022-05-25T11:27:35Z</time>
</trkpt>
<trkpt lat="48.276276" lon="10.84147">
<ele>542.702</ele>
<time>2022-05-25T11:27:36Z</time>
</trkpt>
<trkpt lat="48.276279" lon="10.841483">
<ele>542.702</ele>
<time>2022-05-25T11:27:37Z</time>
</trkpt>
<trkpt lat="48.276291" lon="10.841496">
<ele>542.702</ele>
<time>2022-05-25T11:27:38Z</time>
</trkpt>
<trkpt lat="48.276295" lon="10.841505">
<ele>542.703</ele>
<time>2022-05-25T11:27:39Z</time>
</trkpt>
<trkpt lat="48.276295" lon="10.841506">
<ele>542.702</ele>
<time>2022-05-25T11:27:40Z</time>
</trkpt>
<trkpt lat="48.276287" lon="10.841506">
<ele>542.702</ele>
<time>2022-05-25T11:27:42Z</time>
</trkpt>
<trkpt lat="48.276283" lon="10.841527">
<ele>542.702</ele>
<time>2022-05-25T11:27:49Z</time>
</trkpt>
<trkpt lat="48.276283" lon="10.84153">
<ele>542.702</ele>
<time>2022-05-25T11:27:50Z</time>
</trkpt>
<trkpt lat="48.276283" lon="10.841532">
<ele>542.702</ele>
<time>2022-05-25T11:27:51Z</time>
</trkpt>
<trkpt lat="48.276287" lon="10.841527">
<ele>542.702</ele>
<time>2022-05-25T11:27:52Z</time>
</trkpt>
<trkpt lat="48.276287" lon="10.841529">
<ele>542.702</ele>
<time>2022-05-25T11:27:53Z</time>
</trkpt>
<trkpt lat="48.276291" lon="10.841529">
<ele>542.702</ele>
<time>2022-05-25T11:27:55Z</time>
</trkpt>
<trkpt lat="48.276295" lon="10.841537">
<ele>542.702</ele>
<time>2022-05-25T11:29:23Z</time>
</trkpt>
<trkpt lat="48.276291" lon="10.841539">
<ele>542.554</ele>
<time>2022-05-25T11:29:24Z</time>
</trkpt>
<trkpt lat="48.276287" lon="10.841541">
<ele>542.414</ele>
<time>2022-05-25T11:29:25Z</time>
</trkpt>
<trkpt lat="48.276283" lon="10.841539">
<ele>542.213</ele>
<time>2022-05-25T11:29:26Z</time>
</trkpt>
<trkpt lat="48.276299" lon="10.841552">
<ele>542.144</ele>
<time>2022-05-25T11:30:00Z</time>
</trkpt>
<trkpt lat="48.276295" lon="10.841548">
<ele>542.115</ele>
<time>2022-05-25T11:30:01Z</time>
</trkpt>
<trkpt lat="48.276291" lon="10.841543">
<ele>542.918</ele>
<time>2022-05-25T11:30:02Z</time>
</trkpt>
<trkpt lat="48.276287" lon="10.841537">
<ele>542.722</ele>
<time>2022-05-25T11:30:03Z</time>
</trkpt>
<trkpt lat="48.276283" lon="10.841536">
<ele>542.465</ele>
<time>2022-05-25T11:30:04Z</time>
</trkpt>
<trkpt lat="48.276283" lon="10.841534">
<ele>542.304</ele>
<time>2022-05-25T11:30:05Z</time>
</trkpt>
<trkpt lat="48.276276" lon="10.841525">
<ele>542.74</ele>
<time>2022-05-25T11:30:06Z</time>
</trkpt>
<trkpt lat="48.27626" lon="10.84151">
<ele>542.424</ele>
<time>2022-05-25T11:30:33Z</time>
</trkpt>
<trkpt lat="48.276249" lon="10.841505">
<ele>542.339</ele>
<time>2022-05-25T11:30:34Z</time>
</trkpt>
<trkpt lat="48.276253" lon="10.841502">
<ele>542.575</ele>
<time>2022-05-25T11:30:35Z</time>
</trkpt>
<trkpt lat="48.276253" lon="10.841498">
<ele>542.834</ele>
<time>2022-05-25T11:30:36Z</time>
</trkpt>
<trkpt lat="48.276253" lon="10.841496">
<ele>542.728</ele>
<time>2022-05-25T11:30:37Z</time>
</trkpt>
<trkpt lat="48.276276" lon="10.841481">
<ele>542.243</ele>
<time>2022-05-25T11:30:41Z</time>
</trkpt>
<trkpt lat="48.276279" lon="10.841472">
<ele>542.398</ele>
<time>2022-05-25T11:30:42Z</time>
</trkpt>
<trkpt lat="48.276287" lon="10.841462">
<ele>542.437</ele>
<time>2022-05-25T11:30:43Z</time>
</trkpt>
<trkpt lat="48.276291" lon="10.841455">
<ele>541.662</ele>
<time>2022-05-25T11:30:44Z</time>
</trkpt>
<trkpt lat="48.276291" lon="10.841452">
<ele>541.466</ele>
<time>2022-05-25T11:30:45Z</time>
</trkpt>
<trkpt lat="48.276291" lon="10.841441">
<ele>541.527</ele>
<time>2022-05-25T11:30:46Z</time>
</trkpt>
<trkpt lat="48.276287" lon="10.841443">
<ele>541.929</ele>
<time>2022-05-25T11:30:47Z</time>
</trkpt>
<trkpt lat="48.275703" lon="10.842087">
<ele>542.187</ele>
<time>2022-05-25T11:32:24Z</time>
</trkpt>
<trkpt lat="48.275673" lon="10.842105">
<ele>543.057</ele>
<time>2022-05-25T11:32:25Z</time>
</trkpt>
<trkpt lat="48.27565" lon="10.842122">
<ele>543.121</ele>
<time>2022-05-25T11:32:26Z</time>
</trkpt>
<trkpt lat="48.275711" lon="10.842237">
<ele>543.229</ele>
<time>2022-05-25T11:32:27Z</time>
</trkpt>
<trkpt lat="48.276814" lon="10.841387">
<ele>542.849</ele>
<time>2022-05-25T11:34:43Z</time>
</trkpt>
<trkpt lat="48.276791" lon="10.841373">
<ele>543.033</ele>
<time>2022-05-25T11:34:44Z</time>
</trkpt>
<trkpt lat="48.276756" lon="10.841387">
<ele>542.761</ele>
<time>2022-05-25T11:34:45Z</time>
</trkpt>
<trkpt lat="48.276749" lon="10.841382">
<ele>542.76</ele>
<time>2022-05-25T11:34:46Z</time>
</trkpt>
<trkpt lat="48.276665" lon="10.841399">
<ele>542.565</ele>
<time>2022-05-25T11:34:47Z</time>
</trkpt>
<trkpt lat="48.276604" lon="10.841403">
<ele>542.444</ele>
<time>2022-05-25T11:34:48Z</time>
</trkpt>
<trkpt lat="48.276577" lon="10.841405">
<ele>542.326</ele>
<time>2022-05-25T11:34:49Z</time>
</trkpt>
<trkpt lat="48.276554" lon="10.841397">
<ele>542.412</ele>
<time>2022-05-25T11:34:50Z</time>
</trkpt>
<trkpt lat="48.276524" lon="10.841395">
<ele>542.489</ele>
<time>2022-05-25T11:34:51Z</time>
</trkpt>
<trkpt lat="48.276489" lon="10.841416">
<ele>542.684</ele>
<time>2022-05-25T11:34:52Z</time>
</trkpt>
<trkpt lat="48.276463" lon="10.84141">
<ele>542.534</ele>
<time>2022-05-25T11:34:53Z</time>
</trkpt>
<trkpt lat="48.276409" lon="10.841415">
<ele>542.589</ele>
<time>2022-05-25T11:34:54Z</time>
</trkpt>
<trkpt lat="48.276318" lon="10.841399">
<ele>542.447</ele>
<time>2022-05-25T11:34:56Z</time>
</trkpt>
<trkpt lat="48.27626" lon="10.841399">
<ele>542.513</ele>
<time>2022-05-25T11:34:57Z</time>
</trkpt>
<trkpt lat="48.276264" lon="10.841395">
<ele>542.146</ele>
<time>2022-05-25T11:34:58Z</time>
</trkpt>
<trkpt lat="48.276257" lon="10.841397">
<ele>542.145</ele>
<time>2022-05-25T11:34:59Z</time>
</trkpt>
<trkpt lat="48.27623" lon="10.84136">
<ele>542.196</ele>
<time>2022-05-25T11:35:01Z</time>
</trkpt>
<trkpt lat="48.276211" lon="10.841318">
<ele>542.241</ele>
<time>2022-05-25T11:35:02Z</time>
</trkpt>
<trkpt lat="48.276176" lon="10.841296">
<ele>542.277</ele>
<time>2022-05-25T11:35:03Z</time>
</trkpt>
<trkpt lat="48.276173" lon="10.841275">
<ele>542.32</ele>
<time>2022-05-25T11:35:04Z</time>
</trkpt>
<trkpt lat="48.276176" lon="10.841253">
<ele>542.354</ele>
<time>2022-05-25T11:35:05Z</time>
</trkpt>
<trkpt lat="48.276176" lon="10.841236">
<ele>542.445</ele>
<time>2022-05-25T11:35:06Z</time>
</trkpt>
<trkpt lat="48.276196" lon="10.841215">
<ele>542.441</ele>
<time>2022-05-25T11:35:07Z</time>
</trkpt>
<trkpt lat="48.276207" lon="10.841195">
<ele>542.441</ele>
<time>2022-05-25T11:35:08Z</time>
</trkpt>
<trkpt lat="48.276215" lon="10.841177">
<ele>542.441</ele>
<time>2022-05-25T11:35:09Z</time>
</trkpt>
<trkpt lat="48.276211" lon="10.841165">
<ele>542.441</ele>
<time>2022-05-25T11:35:10Z</time>
</trkpt>
<trkpt lat="48.276199" lon="10.841156">
<ele>542.441</ele>
<time>2022-05-25T11:35:11Z</time>
</trkpt>
<trkpt lat="48.276188" lon="10.841148">
<ele>542.441</ele>
<time>2022-05-25T11:35:12Z</time>
</trkpt>
<trkpt lat="48.276165" lon="10.841142">
<ele>542.441</ele>
<time>2022-05-25T11:35:13Z</time>
</trkpt>
<trkpt lat="48.276134" lon="10.841142">
<ele>542.441</ele>
<time>2022-05-25T11:35:14Z</time>
</trkpt>
<trkpt lat="48.276119" lon="10.841133">
<ele>542.441</ele>
<time>2022-05-25T11:35:15Z</time>
</trkpt>
<trkpt lat="48.276096" lon="10.841128">
<ele>542.441</ele>
<time>2022-05-25T11:35:16Z</time>
</trkpt>
<trkpt lat="48.276108" lon="10.841108">
<ele>542.441</ele>
<time>2022-05-25T11:35:17Z</time>
</trkpt>
<trkpt lat="48.2761" lon="10.841095">
<ele>542.63</ele>
<time>2022-05-25T11:35:18Z</time>
</trkpt>
<trkpt lat="48.276089" lon="10.841085">
<ele>542.637</ele>
<time>2022-05-25T11:35:19Z</time>
</trkpt>
<trkpt lat="48.276077" lon="10.841048">
<ele>542.566</ele>
<time>2022-05-25T11:35:20Z</time>
</trkpt>
<trkpt lat="48.276066" lon="10.841016">
<ele>542.511</ele>
<time>2022-05-25T11:35:21Z</time>
</trkpt>
<trkpt lat="48.276043" lon="10.840988">
<ele>542.464</ele>
<time>2022-05-25T11:35:22Z</time>
</trkpt>
<trkpt lat="48.276031" lon="10.840977">
<ele>542.417</ele>
<time>2022-05-25T11:35:23Z</time>
</trkpt>
<trkpt lat="48.276031" lon="10.84097">
<ele>542.578</ele>
<time>2022-05-25T11:35:24Z</time>
</trkpt>
<trkpt lat="48.276031" lon="10.840951">
<ele>542.563</ele>
<time>2022-05-25T11:35:25Z</time>
</trkpt>
<trkpt lat="48.276031" lon="10.84094">
<ele>542.674</ele>
<time>2022-05-25T11:35:26Z</time>
</trkpt>
<trkpt lat="48.276051" lon="10.840976">
<ele>542.69</ele>
<time>2022-05-25T11:35:27Z</time>
</trkpt>
<trkpt lat="48.276054" lon="10.840959">
<ele>542.749</ele>
<time>2022-05-25T11:35:28Z</time>
</trkpt>
<trkpt lat="48.276073" lon="10.840972">
<ele>542.521</ele>
<time>2022-05-25T11:35:29Z</time>
</trkpt>
<trkpt lat="48.276085" lon="10.840986">
<ele>542.708</ele>
<time>2022-05-25T11:35:30Z</time>
</trkpt>
<trkpt lat="48.276073" lon="10.840974">
<ele>542.485</ele>
<time>2022-05-25T11:35:31Z</time>
</trkpt>
<trkpt lat="48.27607" lon="10.840878">
<ele>542.264</ele>
<time>2022-05-25T11:35:32Z</time>
</trkpt>
<trkpt lat="48.276066" lon="10.840928">
<ele>542.38</ele>
<time>2022-05-25T11:35:33Z</time>
</trkpt>
<trkpt lat="48.276054" lon="10.84094">
<ele>542.439</ele>
<time>2022-05-25T11:35:34Z</time>
</trkpt>
<trkpt lat="48.276031" lon="10.840903">
<ele>542.567</ele>
<time>2022-05-25T11:35:35Z</time>
</trkpt>
<trkpt lat="48.276012" lon="10.840928">
<ele>542.525</ele>
<time>2022-05-25T11:35:36Z</time>
</trkpt>
<trkpt lat="48.275986" lon="10.840992">
<ele>542.647</ele>
<time>2022-05-25T11:35:37Z</time>
</trkpt>
<trkpt lat="48.276157" lon="10.841347">
<ele>542.769</ele>
<time>2022-05-25T11:38:33Z</time>
</trkpt>
<trkpt lat="48.276199" lon="10.84144">
<ele>542.732</ele>
<time>2022-05-25T11:38:34Z</time>
</trkpt>
<trkpt lat="48.27618" lon="10.841536">
<ele>542.543</ele>
<time>2022-05-25T11:38:35Z</time>
</trkpt>
<trkpt lat="48.276192" lon="10.841543">
<ele>542.112</ele>
<time>2022-05-25T11:38:36Z</time>
</trkpt>
<trkpt lat="48.276188" lon="10.841548">
<ele>541.825</ele>
<time>2022-05-25T11:38:37Z</time>
</trkpt>
<trkpt lat="48.27618" lon="10.841548">
<ele>541.643</ele>
<time>2022-05-25T11:38:38Z</time>
</trkpt>
<trkpt lat="48.27618" lon="10.841552">
<ele>541.833</ele>
<time>2022-05-25T11:38:39Z</time>
</trkpt>
<trkpt lat="48.276184" lon="10.841557">
<ele>541.84</ele>
<time>2022-05-25T11:38:40Z</time>
</trkpt>
<trkpt lat="48.276199" lon="10.841452">
<ele>541.903</ele>
<time>2022-05-25T11:39:29Z</time>
</trkpt>
<trkpt lat="48.276196" lon="10.84145">
<ele>541.535</ele>
<time>2022-05-25T11:39:30Z</time>
</trkpt>
<trkpt lat="48.276196" lon="10.841448">
<ele>541.396</ele>
<time>2022-05-25T11:39:31Z</time>
</trkpt>
<trkpt lat="48.276188" lon="10.84145">
<ele>540.521</ele>
<time>2022-05-25T11:39:32Z</time>
</trkpt>
<trkpt lat="48.276199" lon="10.841467">
<ele>539.275</ele>
<time>2022-05-25T11:39:55Z</time>
</trkpt>
<trkpt lat="48.276199" lon="10.841465">
<ele>538.574</ele>
<time>2022-05-25T11:39:56Z</time>
</trkpt>
<trkpt lat="48.276203" lon="10.841465">
<ele>538.078</ele>
<time>2022-05-25T11:39:57Z</time>
</trkpt>
<trkpt lat="48.276207" lon="10.841465">
<ele>537.724</ele>
<time>2022-05-25T11:39:58Z</time>
</trkpt>
<trkpt lat="48.27618" lon="10.841433">
<ele>537.429</ele>
<time>2022-05-25T11:40:38Z</time>
</trkpt>
<trkpt lat="48.27618" lon="10.841434">
<ele>536.383</ele>
<time>2022-05-25T11:40:39Z</time>
</trkpt>
<trkpt lat="48.276184" lon="10.841436">
<ele>536.293</ele>
<time>2022-05-25T11:40:40Z</time>
</trkpt>
<trkpt lat="48.276184" lon="10.841434">
<ele>536.264</ele>
<time>2022-05-25T11:40:41Z</time>
</trkpt>
<trkpt lat="48.276211" lon="10.841427">
<ele>536.264</ele>
<time>2022-05-25T11:42:13Z</time>
</trkpt>
<trkpt lat="48.276215" lon="10.841441">
<ele>536.264</ele>
<time>2022-05-25T11:42:14Z</time>
</trkpt>
<trkpt lat="48.276218" lon="10.841452">
<ele>536.264</ele>
<time>2022-05-25T11:42:15Z</time>
</trkpt>
<trkpt lat="48.276218" lon="10.841464">
<ele>536.264</ele>
<time>2022-05-25T11:42:16Z</time>
</trkpt>
<trkpt lat="48.276222" lon="10.84147">
<ele>536.264</ele>
<time>2022-05-25T11:42:17Z</time>
</trkpt>
<trkpt lat="48.27623" lon="10.84152">
<ele>536.265</ele>
<time>2022-05-25T11:45:09Z</time>
</trkpt>
<trkpt lat="48.276234" lon="10.84153">
<ele>536.265</ele>
<time>2022-05-25T11:45:10Z</time>
</trkpt>
<trkpt lat="48.276234" lon="10.841527">
<ele>536.265</ele>
<time>2022-05-25T11:45:11Z</time>
</trkpt>
<trkpt lat="48.276241" lon="10.841537">
<ele>536.264</ele>
<time>2022-05-25T11:45:12Z</time>
</trkpt>
<trkpt lat="48.27626" lon="10.841539">
<ele>536.264</ele>
<time>2022-05-25T11:45:13Z</time>
</trkpt>
<trkpt lat="48.276276" lon="10.841552">
<ele>536.264</ele>
<time>2022-05-25T11:45:14Z</time>
</trkpt>
<trkpt lat="48.276276" lon="10.841558">
<ele>536.264</ele>
<time>2022-05-25T11:45:15Z</time>
</trkpt>
<trkpt lat="48.276287" lon="10.841541">
<ele>536.264</ele>
<time>2022-05-25T11:45:16Z</time>
</trkpt>
<trkpt lat="48.276306" lon="10.841536">
<ele>536.264</ele>
<time>2022-05-25T11:45:17Z</time>
</trkpt>
<trkpt lat="48.276291" lon="10.841529">
<ele>536.264</ele>
<time>2022-05-25T11:45:18Z</time>
</trkpt>
<trkpt lat="48.276276" lon="10.841516">
<ele>536.264</ele>
<time>2022-05-25T11:45:19Z</time>
</trkpt>
<trkpt lat="48.27626" lon="10.841506">
<ele>536.264</ele>
<time>2022-05-25T11:45:20Z</time>
</trkpt>
<trkpt lat="48.276291" lon="10.841518">
<ele>536.264</ele>
<time>2022-05-25T11:45:31Z</time>
</trkpt>
<trkpt lat="48.276302" lon="10.84151">
<ele>536.264</ele>
<time>2022-05-25T11:45:32Z</time>
</trkpt>
<trkpt lat="48.27631" lon="10.841503">
<ele>536.265</ele>
<time>2022-05-25T11:45:33Z</time>
</trkpt>
<trkpt lat="48.276314" lon="10.841489">
<ele>536.264</ele>
<time>2022-05-25T11:45:34Z</time>
</trkpt>
<trkpt lat="48.276318" lon="10.84148">
<ele>536.264</ele>
<time>2022-05-25T11:45:35Z</time>
</trkpt>
<trkpt lat="48.276329" lon="10.841476">
<ele>536.264</ele>
<time>2022-05-25T11:45:36Z</time>
</trkpt>
<trkpt lat="48.276352" lon="10.841472">
<ele>536.265</ele>
<time>2022-05-25T11:45:37Z</time>
</trkpt>
<trkpt lat="48.276356" lon="10.841458">
<ele>536.264</ele>
<time>2022-05-25T11:45:38Z</time>
</trkpt>
<trkpt lat="48.276367" lon="10.841456">
<ele>536.264</ele>
<time>2022-05-25T11:45:39Z</time>
</trkpt>
<trkpt lat="48.276367" lon="10.841468">
<ele>536.264</ele>
<time>2022-05-25T11:45:40Z</time>
</trkpt>
<trkpt lat="48.276367" lon="10.841464">
<ele>536.264</ele>
<time>2022-05-25T11:45:41Z</time>
</trkpt>
<trkpt lat="48.276371" lon="10.841464">
<ele>536.264</ele>
<time>2022-05-25T11:45:42Z</time>
</trkpt>
<trkpt lat="48.276386" lon="10.841465">
<ele>536.264</ele>
<time>2022-05-25T11:45:43Z</time>
</trkpt>
<trkpt lat="48.276402" lon="10.841475">
<ele>536.265</ele>
<time>2022-05-25T11:45:44Z</time>
</trkpt>
<trkpt lat="48.276402" lon="10.841472">
<ele>536.264</ele>
<time>2022-05-25T11:45:45Z</time>
</trkpt>
<trkpt lat="48.276402" lon="10.84147">
<ele>536.265</ele>
<time>2022-05-25T11:45:46Z</time>
</trkpt>
<trkpt lat="48.276394" lon="10.841458">
<ele>536.265</ele>
<time>2022-05-25T11:45:47Z</time>
</trkpt>
<trkpt lat="48.276398" lon="10.841445">
<ele>536.264</ele>
<time>2022-05-25T11:45:48Z</time>
</trkpt>
<trkpt lat="48.27639" lon="10.841445">
<ele>536.264</ele>
<time>2022-05-25T11:45:49Z</time>
</trkpt>
<trkpt lat="48.276371" lon="10.841478">
<ele>536.265</ele>
<time>2022-05-25T11:45:59Z</time>
</trkpt>
<trkpt lat="48.276375" lon="10.841498">
<ele>536.264</ele>
<time>2022-05-25T11:46:00Z</time>
</trkpt>
<trkpt lat="48.276379" lon="10.841505">
<ele>536.264</ele>
<time>2022-05-25T11:46:01Z</time>
</trkpt>
<trkpt lat="48.276375" lon="10.841508">
<ele>536.264</ele>
<time>2022-05-25T11:46:02Z</time>
</trkpt>
<trkpt lat="48.276329" lon="10.841514">
<ele>536.265</ele>
<time>2022-05-25T11:46:06Z</time>
</trkpt>
<trkpt lat="48.276314" lon="10.84151">
<ele>536.264</ele>
<time>2022-05-25T11:46:07Z</time>
</trkpt>
<trkpt lat="48.276302" lon="10.841514">
<ele>536.264</ele>
<time>2022-05-25T11:46:08Z</time>
</trkpt>
<trkpt lat="48.276291" lon="10.841516">
<ele>536.265</ele>
<time>2022-05-25T11:46:09Z</time>
</trkpt>
<trkpt lat="48.276272" lon="10.84151">
<ele>536.264</ele>
<time>2022-05-25T11:46:10Z</time>
</trkpt>
<trkpt lat="48.276268" lon="10.841516">
<ele>536.265</ele>
<time>2022-05-25T11:46:11Z</time>
</trkpt>
<trkpt lat="48.27626" lon="10.841527">
<ele>536.264</ele>
<time>2022-05-25T11:46:12Z</time>
</trkpt>
<trkpt lat="48.27626" lon="10.841536">
<ele>536.264</ele>
<time>2022-05-25T11:46:13Z</time>
</trkpt>
<trkpt lat="48.276283" lon="10.841537">
<ele>536.264</ele>
<time>2022-05-25T11:46:14Z</time>
</trkpt>
<trkpt lat="48.276299" lon="10.841558">
<ele>536.264</ele>
<time>2022-05-25T11:46:15Z</time>
</trkpt>
<trkpt lat="48.276299" lon="10.841543">
<ele>536.264</ele>
<time>2022-05-25T11:46:16Z</time>
</trkpt>
<trkpt lat="48.276299" lon="10.841552">
<ele>536.264</ele>
<time>2022-05-25T11:46:17Z</time>
</trkpt>
<trkpt lat="48.276291" lon="10.841555">
<ele>536.264</ele>
<time>2022-05-25T11:46:18Z</time>
</trkpt>
<trkpt lat="48.276291" lon="10.841562">
<ele>536.265</ele>
<time>2022-05-25T11:46:19Z</time>
</trkpt>
<trkpt lat="48.276314" lon="10.841577">
<ele>536.264</ele>
<time>2022-05-25T11:46:20Z</time>
</trkpt>
<trkpt lat="48.276318" lon="10.841573">
<ele>536.264</ele>
<time>2022-05-25T11:46:21Z</time>
</trkpt>
<trkpt lat="48.276333" lon="10.841583">
<ele>536.265</ele>
<time>2022-05-25T11:46:22Z</time>
</trkpt>
<trkpt lat="48.276318" lon="10.841587">
<ele>536.265</ele>
<time>2022-05-25T11:46:24Z</time>
</trkpt>
<trkpt lat="48.276287" lon="10.841572">
<ele>536.264</ele>
<time>2022-05-25T11:46:25Z</time>
</trkpt>
<trkpt lat="48.276287" lon="10.841569">
<ele>536.264</ele>
<time>2022-05-25T11:46:26Z</time>
</trkpt>
<trkpt lat="48.276291" lon="10.841565">
<ele>536.264</ele>
<time>2022-05-25T11:46:27Z</time>
</trkpt>
<trkpt lat="48.276279" lon="10.84157">
<ele>536.265</ele>
<time>2022-05-25T11:46:28Z</time>
</trkpt>
<trkpt lat="48.276257" lon="10.841567">
<ele>536.264</ele>
<time>2022-05-25T11:46:29Z</time>
</trkpt>
<trkpt lat="48.276237" lon="10.841537">
<ele>536.264</ele>
<time>2022-05-25T11:46:30Z</time>
</trkpt>
<trkpt lat="48.276226" lon="10.841525">
<ele>536.264</ele>
<time>2022-05-25T11:46:31Z</time>
</trkpt>
<trkpt lat="48.276226" lon="10.841387">
<ele>536.265</ele>
<time>2022-05-25T11:47:10Z</time>
</trkpt>
<trkpt lat="48.276222" lon="10.841378">
<ele>536.264</ele>
<time>2022-05-25T11:47:11Z</time>
</trkpt>
<trkpt lat="48.276222" lon="10.841372">
<ele>536.264</ele>
<time>2022-05-25T11:47:12Z</time>
</trkpt>
<trkpt lat="48.276226" lon="10.841368">
<ele>536.264</ele>
<time>2022-05-25T11:47:13Z</time>
</trkpt>
<trkpt lat="48.276207" lon="10.841391">
<ele>536.264</ele>
<time>2022-05-25T11:48:17Z</time>
</trkpt>
<trkpt lat="48.276199" lon="10.841391">
<ele>536.264</ele>
<time>2022-05-25T11:48:18Z</time>
</trkpt>
<trkpt lat="48.276199" lon="10.841393">
<ele>536.264</ele>
<time>2022-05-25T11:48:19Z</time>
</trkpt>
<trkpt lat="48.276203" lon="10.841395">
<ele>536.264</ele>
<time>2022-05-25T11:48:21Z</time>
</trkpt>
<trkpt lat="48.27623" lon="10.841525">
<ele>536.264</ele>
<time>2022-05-25T11:52:39Z</time>
</trkpt>
<trkpt lat="48.27623" lon="10.841527">
<ele>536.264</ele>
<time>2022-05-25T11:52:40Z</time>
</trkpt>
<trkpt lat="48.276226" lon="10.841525">
<ele>536.264</ele>
<time>2022-05-25T11:52:42Z</time>
</trkpt>
<trkpt lat="48.27623" lon="10.841529">
<ele>536.264</ele>
<time>2022-05-25T11:53:27Z</time>
</trkpt>
<trkpt lat="48.27623" lon="10.84153">
<ele>536.265</ele>
<time>2022-05-25T11:53:28Z</time>
</trkpt>
<trkpt lat="48.27623" lon="10.841532">
<ele>536.265</ele>
<time>2022-05-25T11:53:29Z</time>
</trkpt>
<trkpt lat="48.276199" lon="10.84151">
<ele>536.265</ele>
<time>2022-05-25T11:53:35Z</time>
</trkpt>
<trkpt lat="48.276196" lon="10.841508">
<ele>536.264</ele>
<time>2022-05-25T11:53:36Z</time>
</trkpt>
<trkpt lat="48.276192" lon="10.841505">
<ele>536.265</ele>
<time>2022-05-25T11:53:37Z</time>
</trkpt>
<trkpt lat="48.276188" lon="10.841506">
<ele>536.264</ele>
<time>2022-05-25T11:53:38Z</time>
</trkpt>
<trkpt lat="48.27618" lon="10.84151">
<ele>536.264</ele>
<time>2022-05-25T11:53:39Z</time>
</trkpt>
<trkpt lat="48.27618" lon="10.841512">
<ele>536.264</ele>
<time>2022-05-25T11:53:40Z</time>
</trkpt>
<trkpt lat="48.276176" lon="10.841506">
<ele>536.265</ele>
<time>2022-05-25T11:53:41Z</time>
</trkpt>
<trkpt lat="48.276173" lon="10.841503">
<ele>536.264</ele>
<time>2022-05-25T11:53:42Z</time>
</trkpt>
<trkpt lat="48.276173" lon="10.841494">
<ele>536.264</ele>
<time>2022-05-25T11:53:43Z</time>
</trkpt>
<trkpt lat="48.276169" lon="10.84147">
<ele>536.265</ele>
<time>2022-05-25T11:53:44Z</time>
</trkpt>
<trkpt lat="48.276154" lon="10.84145">
<ele>536.264</ele>
<time>2022-05-25T11:53:45Z</time>
</trkpt>
<trkpt lat="48.276142" lon="10.841432">
<ele>536.265</ele>
<time>2022-05-25T11:53:46Z</time>
</trkpt>
<trkpt lat="48.276173" lon="10.841569">
<ele>536.264</ele>
<time>2022-05-25T11:55:55Z</time>
</trkpt>
<trkpt lat="48.276199" lon="10.841508">
<ele>536.264</ele>
<time>2022-05-25T11:55:56Z</time>
</trkpt>
<trkpt lat="48.276222" lon="10.841539">
<ele>536.265</ele>
<time>2022-05-25T11:55:57Z</time>
</trkpt>
<trkpt lat="48.276207" lon="10.841555">
<ele>536.264</ele>
<time>2022-05-25T11:55:58Z</time>
</trkpt>
<trkpt lat="48.27626" lon="10.841543">
<ele>536.264</ele>
<time>2022-05-25T11:55:59Z</time>
</trkpt>
<trkpt lat="48.276276" lon="10.84156">
<ele>536.264</ele>
<time>2022-05-25T11:56:00Z</time>
</trkpt>
<trkpt lat="48.276276" lon="10.841554">
<ele>536.265</ele>
<time>2022-05-25T11:56:01Z</time>
</trkpt>
<trkpt lat="48.276287" lon="10.841557">
<ele>536.265</ele>
<time>2022-05-25T11:56:02Z</time>
</trkpt>
<trkpt lat="48.276279" lon="10.84156">
<ele>536.264</ele>
<time>2022-05-25T11:56:03Z</time>
</trkpt>
<trkpt lat="48.276283" lon="10.841562">
<ele>536.264</ele>
<time>2022-05-25T11:56:04Z</time>
</trkpt>
<trkpt lat="48.276283" lon="10.841563">
<ele>536.264</ele>
<time>2022-05-25T11:56:05Z</time>
</trkpt>
<trkpt lat="48.276272" lon="10.841537">
<ele>536.265</ele>
<time>2022-05-25T11:58:55Z</time>
</trkpt>
<trkpt lat="48.276272" lon="10.841541">
<ele>536.264</ele>
<time>2022-05-25T11:58:56Z</time>
</trkpt>
<trkpt lat="48.276276" lon="10.841546">
<ele>536.264</ele>
<time>2022-05-25T11:58:57Z</time>
</trkpt>
<trkpt lat="48.276272" lon="10.841548">
<ele>536.264</ele>
<time>2022-05-25T11:58:58Z</time>
</trkpt>
<trkpt lat="48.27626" lon="10.841562">
<ele>536.265</ele>
<time>2022-05-25T11:59:00Z</time>
</trkpt>
<trkpt lat="48.276253" lon="10.841575">
<ele>536.265</ele>
<time>2022-05-25T11:59:01Z</time>
</trkpt>
<trkpt lat="48.276241" lon="10.841594">
<ele>536.264</ele>
<time>2022-05-25T11:59:02Z</time>
</trkpt>
<trkpt lat="48.27623" lon="10.841617">
<ele>536.264</ele>
<time>2022-05-25T11:59:03Z</time>
</trkpt>
<trkpt lat="48.276215" lon="10.841652">
<ele>536.264</ele>
<time>2022-05-25T11:59:04Z</time>
</trkpt>
<trkpt lat="48.276203" lon="10.841697">
<ele>536.264</ele>
<time>2022-05-25T11:59:05Z</time>
</trkpt>
<trkpt lat="48.276188" lon="10.841745">
<ele>536.264</ele>
<time>2022-05-25T11:59:06Z</time>
</trkpt>
<trkpt lat="48.276169" lon="10.841788">
<ele>536.265</ele>
<time>2022-05-25T11:59:07Z</time>
</trkpt>
<trkpt lat="48.27615" lon="10.841839">
<ele>536.264</ele>
<time>2022-05-25T11:59:08Z</time>
</trkpt>
<trkpt lat="48.276123" lon="10.841891">
<ele>536.264</ele>
<time>2022-05-25T11:59:09Z</time>
</trkpt>
<trkpt lat="48.276096" lon="10.84194">
<ele>536.264</ele>
<time>2022-05-25T11:59:10Z</time>
</trkpt>
<trkpt lat="48.276077" lon="10.841977">
<ele>536.264</ele>
<time>2022-05-25T11:59:11Z</time>
</trkpt>
<trkpt lat="48.276054" lon="10.842013">
<ele>536.264</ele>
<time>2022-05-25T11:59:12Z</time>
</trkpt>
<trkpt lat="48.276035" lon="10.842052">
<ele>536.264</ele>
<time>2022-05-25T11:59:13Z</time>
</trkpt>
<trkpt lat="48.276012" lon="10.842092">
<ele>536.264</ele>
<time>2022-05-25T11:59:14Z</time>
</trkpt>
<trkpt lat="48.275993" lon="10.842134">
<ele>536.264</ele>
<time>2022-05-25T11:59:15Z</time>
</trkpt>
<trkpt lat="48.275967" lon="10.842183">
<ele>536.264</ele>
<time>2022-05-25T11:59:16Z</time>
</trkpt>
<trkpt lat="48.27594" lon="10.842227">
<ele>536.265</ele>
<time>2022-05-25T11:59:17Z</time>
</trkpt>
<trkpt lat="48.275917" lon="10.842269">
<ele>536.264</ele>
<time>2022-05-25T11:59:18Z</time>
</trkpt>
<trkpt lat="48.27589" lon="10.842308">
<ele>536.265</ele>
<time>2022-05-25T11:59:19Z</time>
</trkpt>
<trkpt lat="48.275864" lon="10.842343">
<ele>536.265</ele>
<time>2022-05-25T11:59:20Z</time>
</trkpt>
<trkpt lat="48.275837" lon="10.842386">
<ele>536.264</ele>
<time>2022-05-25T11:59:21Z</time>
</trkpt>
<trkpt lat="48.275814" lon="10.842426">
<ele>536.264</ele>
<time>2022-05-25T11:59:22Z</time>
</trkpt>
<trkpt lat="48.275791" lon="10.84247">
<ele>536.264</ele>
<time>2022-05-25T11:59:23Z</time>
</trkpt>
<trkpt lat="48.275764" lon="10.842518">
<ele>536.264</ele>
<time>2022-05-25T11:59:24Z</time>
</trkpt>
<trkpt lat="48.275734" lon="10.842564">
<ele>536.264</ele>
<time>2022-05-25T11:59:25Z</time>
</trkpt>
<trkpt lat="48.275703" lon="10.84261">
<ele>536.264</ele>
<time>2022-05-25T11:59:26Z</time>
</trkpt>
<trkpt lat="48.275673" lon="10.842653">
<ele>536.264</ele>
<time>2022-05-25T11:59:27Z</time>
</trkpt>
<trkpt lat="48.275639" lon="10.842695">
<ele>536.264</ele>
<time>2022-05-25T11:59:28Z</time>
</trkpt>
<trkpt lat="48.275608" lon="10.84274">
<ele>536.264</ele>
<time>2022-05-25T11:59:29Z</time>
</trkpt>
<trkpt lat="48.275578" lon="10.842787">
<ele>536.264</ele>
<time>2022-05-25T11:59:30Z</time>
</trkpt>
<trkpt lat="48.275551" lon="10.842832">
<ele>536.484</ele>
<time>2022-05-25T11:59:31Z</time>
</trkpt>
<trkpt lat="48.275524" lon="10.84288">
<ele>536.654</ele>
<time>2022-05-25T11:59:32Z</time>
</trkpt>
<trkpt lat="48.275494" lon="10.842927">
<ele>536.772</ele>
<time>2022-05-25T11:59:33Z</time>
</trkpt>
<trkpt lat="48.275467" lon="10.84298">
<ele>536.9</ele>
<time>2022-05-25T11:59:34Z</time>
</trkpt>
<trkpt lat="48.275433" lon="10.843032">
<ele>536.999</ele>
<time>2022-05-25T11:59:35Z</time>
</trkpt>
<trkpt lat="48.275406" lon="10.843083">
<ele>537.068</ele>
<time>2022-05-25T11:59:36Z</time>
</trkpt>
<trkpt lat="48.275375" lon="10.84313">
<ele>537.114</ele>
<time>2022-05-25T11:59:37Z</time>
</trkpt>
<trkpt lat="48.275345" lon="10.843176">
<ele>537.135</ele>
<time>2022-05-25T11:59:38Z</time>
</trkpt>
<trkpt lat="48.275318" lon="10.84323">
<ele>537.135</ele>
<time>2022-05-25T11:59:39Z</time>
</trkpt>
<trkpt lat="48.275291" lon="10.843278">
<ele>537.135</ele>
<time>2022-05-25T11:59:40Z</time>
</trkpt>
<trkpt lat="48.275265" lon="10.843327">
<ele>537.135</ele>
<time>2022-05-25T11:59:41Z</time>
</trkpt>
<trkpt lat="48.275238" lon="10.843379">
<ele>537.135</ele>
<time>2022-05-25T11:59:42Z</time>
</trkpt>
<trkpt lat="48.275208" lon="10.843431">
<ele>537.135</ele>
<time>2022-05-25T11:59:43Z</time>
</trkpt>
<trkpt lat="48.275185" lon="10.843484">
<ele>537.135</ele>
<time>2022-05-25T11:59:44Z</time>
</trkpt>
<trkpt lat="48.27515" lon="10.843538">
<ele>537.135</ele>
<time>2022-05-25T11:59:45Z</time>
</trkpt>
<trkpt lat="48.275124" lon="10.843595">
<ele>537.135</ele>
<time>2022-05-25T11:59:46Z</time>
</trkpt>
<trkpt lat="48.275097" lon="10.843652">
<ele>537.135</ele>
<time>2022-05-25T11:59:47Z</time>
</trkpt>
<trkpt lat="48.275066" lon="10.843712">
<ele>537.135</ele>
<time>2022-05-25T11:59:48Z</time>
</trkpt>
<trkpt lat="48.27504" lon="10.843773">
<ele>537.135</ele>
<time>2022-05-25T11:59:49Z</time>
</trkpt>
<trkpt lat="48.275013" lon="10.843832">
<ele>537.135</ele>
<time>2022-05-25T11:59:50Z</time>
</trkpt>
<trkpt lat="48.274986" lon="10.843892">
<ele>537.135</ele>
<time>2022-05-25T11:59:51Z</time>
</trkpt>
<trkpt lat="48.274963" lon="10.843948">
<ele>537.135</ele>
<time>2022-05-25T11:59:52Z</time>
</trkpt>
<trkpt lat="48.27494" lon="10.844006">
<ele>537.135</ele>
<time>2022-05-25T11:59:53Z</time>
</trkpt>
<trkpt lat="48.274918" lon="10.84406">
<ele>537.135</ele>
<time>2022-05-25T11:59:54Z</time>
</trkpt>
<trkpt lat="48.274891" lon="10.844118">
<ele>537.135</ele>
<time>2022-05-25T11:59:55Z</time>
</trkpt>
<trkpt lat="48.274864" lon="10.844173">
<ele>537.135</ele>
<time>2022-05-25T11:59:56Z</time>
</trkpt>
<trkpt lat="48.274841" lon="10.84423">
<ele>537.135</ele>
<time>2022-05-25T11:59:58Z</time>
</trkpt>
<trkpt lat="48.274796" lon="10.844341">
<ele>537.135</ele>
<time>2022-05-25T11:59:59Z</time>
</trkpt>
<trkpt lat="48.274773" lon="10.844401">
<ele>537.135</ele>
<time>2022-05-25T12:00:00Z</time>
</trkpt>
<trkpt lat="48.274742" lon="10.84445">
<ele>537.135</ele>
<time>2022-05-25T12:00:01Z</time>
</trkpt>
<trkpt lat="48.2747" lon="10.844512">
<ele>537.135</ele>
<time>2022-05-25T12:00:02Z</time>
</trkpt>
<trkpt lat="48.27467" lon="10.844573">
<ele>537.135</ele>
<time>2022-05-25T12:00:03Z</time>
</trkpt>
<trkpt lat="48.274647" lon="10.84463">
<ele>537.135</ele>
<time>2022-05-25T12:00:04Z</time>
</trkpt>
<trkpt lat="48.274624" lon="10.84469">
<ele>537.135</ele>
<time>2022-05-25T12:00:05Z</time>
</trkpt>
<trkpt lat="48.274597" lon="10.844751">
<ele>537.135</ele>
<time>2022-05-25T12:00:06Z</time>
</trkpt>
<trkpt lat="48.274578" lon="10.844811">
<ele>537.135</ele>
<time>2022-05-25T12:00:07Z</time>
</trkpt>
<trkpt lat="48.274555" lon="10.844871">
<ele>537.135</ele>
<time>2022-05-25T12:00:08Z</time>
</trkpt>
<trkpt lat="48.274529" lon="10.84493">
<ele>537.135</ele>
<time>2022-05-25T12:00:09Z</time>
</trkpt>
<trkpt lat="48.274498" lon="10.84499">
<ele>537.135</ele>
<time>2022-05-25T12:00:10Z</time>
</trkpt>
<trkpt lat="48.274475" lon="10.845052">
<ele>537.135</ele>
<time>2022-05-25T12:00:11Z</time>
</trkpt>
<trkpt lat="48.274452" lon="10.845112">
<ele>537.135</ele>
<time>2022-05-25T12:00:12Z</time>
</trkpt>
<trkpt lat="48.274429" lon="10.84517">
<ele>537.135</ele>
<time>2022-05-25T12:00:13Z</time>
</trkpt>
<trkpt lat="48.274403" lon="10.84523">
<ele>537.135</ele>
<time>2022-05-25T12:00:14Z</time>
</trkpt>
<trkpt lat="48.27438" lon="10.84529">
<ele>537.135</ele>
<time>2022-05-25T12:00:15Z</time>
</trkpt>
<trkpt lat="48.274361" lon="10.845345">
<ele>537.135</ele>
<time>2022-05-25T12:00:16Z</time>
</trkpt>
<trkpt lat="48.274338" lon="10.845401">
<ele>537.135</ele>
<time>2022-05-25T12:00:17Z</time>
</trkpt>
<trkpt lat="48.274319" lon="10.845455">
<ele>537.135</ele>
<time>2022-05-25T12:00:18Z</time>
</trkpt>
<trkpt lat="48.2743" lon="10.845508">
<ele>537.135</ele>
<time>2022-05-25T12:00:19Z</time>
</trkpt>
<trkpt lat="48.274273" lon="10.845565">
<ele>537.135</ele>
<time>2022-05-25T12:00:20Z</time>
</trkpt>
<trkpt lat="48.27425" lon="10.845616">
<ele>537.135</ele>
<time>2022-05-25T12:00:21Z</time>
</trkpt>
<trkpt lat="48.274223" lon="10.845674">
<ele>537.366</ele>
<time>2022-05-25T12:00:22Z</time>
</trkpt>
<trkpt lat="48.2742" lon="10.84573">
<ele>537.533</ele>
<time>2022-05-25T12:00:23Z</time>
</trkpt>
<trkpt lat="48.274174" lon="10.845793">
<ele>537.71</ele>
<time>2022-05-25T12:00:24Z</time>
</trkpt>
<trkpt lat="48.274143" lon="10.845852">
<ele>537.847</ele>
<time>2022-05-25T12:00:25Z</time>
</trkpt>
<trkpt lat="48.274109" lon="10.845903">
<ele>537.952</ele>
<time>2022-05-25T12:00:26Z</time>
</trkpt>
<trkpt lat="48.274078" lon="10.84594">
<ele>538.024</ele>
<time>2022-05-25T12:00:27Z</time>
</trkpt>
<trkpt lat="48.274052" lon="10.845971">
<ele>538.069</ele>
<time>2022-05-25T12:00:28Z</time>
</trkpt>
<trkpt lat="48.274029" lon="10.846013">
<ele>538.092</ele>
<time>2022-05-25T12:00:29Z</time>
</trkpt>
<trkpt lat="48.274002" lon="10.846063">
<ele>538.092</ele>
<time>2022-05-25T12:00:30Z</time>
</trkpt>
<trkpt lat="48.273972" lon="10.846113">
<ele>538.093</ele>
<time>2022-05-25T12:00:31Z</time>
</trkpt>
<trkpt lat="48.273941" lon="10.846169">
<ele>538.092</ele>
<time>2022-05-25T12:00:32Z</time>
</trkpt>
<trkpt lat="48.273914" lon="10.846224">
<ele>538.093</ele>
<time>2022-05-25T12:00:33Z</time>
</trkpt>
<trkpt lat="48.273891" lon="10.846262">
<ele>538.092</ele>
<time>2022-05-25T12:00:34Z</time>
</trkpt>
<trkpt lat="48.273876" lon="10.846308">
<ele>538.092</ele>
<time>2022-05-25T12:00:35Z</time>
</trkpt>
<trkpt lat="48.273853" lon="10.846354">
<ele>538.092</ele>
<time>2022-05-25T12:00:36Z</time>
</trkpt>
<trkpt lat="48.273834" lon="10.846402">
<ele>538.092</ele>
<time>2022-05-25T12:00:37Z</time>
</trkpt>
<trkpt lat="48.273815" lon="10.846452">
<ele>538.092</ele>
<time>2022-05-25T12:00:38Z</time>
</trkpt>
<trkpt lat="48.273796" lon="10.846509">
<ele>538.339</ele>
<time>2022-05-25T12:00:39Z</time>
</trkpt>
<trkpt lat="48.273777" lon="10.846565">
<ele>538.54</ele>
<time>2022-05-25T12:00:40Z</time>
</trkpt>
<trkpt lat="48.27375" lon="10.84663">
<ele>538.705</ele>
<time>2022-05-25T12:00:41Z</time>
</trkpt>
<trkpt lat="48.273731" lon="10.846691">
<ele>538.827</ele>
<time>2022-05-25T12:00:42Z</time>
</trkpt>
<trkpt lat="48.273712" lon="10.846745">
<ele>538.899</ele>
<time>2022-05-25T12:00:43Z</time>
</trkpt>
<trkpt lat="48.273685" lon="10.846798">
<ele>538.977</ele>
<time>2022-05-25T12:00:44Z</time>
</trkpt>
<trkpt lat="48.273666" lon="10.846862">
<ele>539.267</ele>
<time>2022-05-25T12:00:45Z</time>
</trkpt>
<trkpt lat="48.273647" lon="10.846922">
<ele>539.485</ele>
<time>2022-05-25T12:00:46Z</time>
</trkpt>
<trkpt lat="48.273624" lon="10.846976">
<ele>539.727</ele>
<time>2022-05-25T12:00:47Z</time>
</trkpt>
<trkpt lat="48.273609" lon="10.847027">
<ele>539.839</ele>
<time>2022-05-25T12:00:48Z</time>
</trkpt>
<trkpt lat="48.27359" lon="10.847081">
<ele>539.921</ele>
<time>2022-05-25T12:00:49Z</time>
</trkpt>
<trkpt lat="48.273575" lon="10.847136">
<ele>539.978</ele>
<time>2022-05-25T12:00:50Z</time>
</trkpt>
<trkpt lat="48.273552" lon="10.847188">
<ele>540.236</ele>
<time>2022-05-25T12:00:51Z</time>
</trkpt>
<trkpt lat="48.273529" lon="10.847243">
<ele>540.429</ele>
<time>2022-05-25T12:00:52Z</time>
</trkpt>
<trkpt lat="48.27351" lon="10.847293">
<ele>540.556</ele>
<time>2022-05-25T12:00:53Z</time>
</trkpt>
<trkpt lat="48.273487" lon="10.847343">
<ele>540.702</ele>
<time>2022-05-25T12:00:54Z</time>
</trkpt>
<trkpt lat="48.273464" lon="10.847397">
<ele>540.808</ele>
<time>2022-05-25T12:00:55Z</time>
</trkpt>
<trkpt lat="48.273449" lon="10.84745">
<ele>541.126</ele>
<time>2022-05-25T12:00:56Z</time>
</trkpt>
<trkpt lat="48.273422" lon="10.847498">
<ele>541.369</ele>
<time>2022-05-25T12:00:57Z</time>
</trkpt>
<trkpt lat="48.273396" lon="10.847545">
<ele>541.555</ele>
<time>2022-05-25T12:00:58Z</time>
</trkpt>
<trkpt lat="48.27338" lon="10.847592">
<ele>541.735</ele>
<time>2022-05-25T12:00:59Z</time>
</trkpt>
<trkpt lat="48.273357" lon="10.847642">
<ele>541.823</ele>
<time>2022-05-25T12:01:00Z</time>
</trkpt>
<trkpt lat="48.273338" lon="10.847695">
<ele>541.877</ele>
<time>2022-05-25T12:01:01Z</time>
</trkpt>
<trkpt lat="48.273323" lon="10.847748">
<ele>541.901</ele>
<time>2022-05-25T12:01:02Z</time>
</trkpt>
<trkpt lat="48.2733" lon="10.847803">
<ele>541.923</ele>
<time>2022-05-25T12:01:03Z</time>
</trkpt>
<trkpt lat="48.273285" lon="10.84786">
<ele>541.923</ele>
<time>2022-05-25T12:01:04Z</time>
</trkpt>
<trkpt lat="48.273266" lon="10.847915">
<ele>542.241</ele>
<time>2022-05-25T12:01:05Z</time>
</trkpt>
<trkpt lat="48.273251" lon="10.847965">
<ele>542.482</ele>
<time>2022-05-25T12:01:06Z</time>
</trkpt>
<trkpt lat="48.273228" lon="10.848017">
<ele>542.668</ele>
<time>2022-05-25T12:01:07Z</time>
</trkpt>
<trkpt lat="48.273212" lon="10.848065">
<ele>542.794</ele>
<time>2022-05-25T12:01:08Z</time>
</trkpt>
<trkpt lat="48.273193" lon="10.848112">
<ele>542.878</ele>
<time>2022-05-25T12:01:09Z</time>
</trkpt>
<trkpt lat="48.273182" lon="10.848153">
<ele>542.936</ele>
<time>2022-05-25T12:01:10Z</time>
</trkpt>
<trkpt lat="48.273163" lon="10.848191">
<ele>542.968</ele>
<time>2022-05-25T12:01:11Z</time>
</trkpt>
<trkpt lat="48.27314" lon="10.848231">
<ele>542.968</ele>
<time>2022-05-25T12:01:12Z</time>
</trkpt>
<trkpt lat="48.273117" lon="10.848282">
<ele>542.968</ele>
<time>2022-05-25T12:01:13Z</time>
</trkpt>
<trkpt lat="48.273098" lon="10.848331">
<ele>542.968</ele>
<time>2022-05-25T12:01:14Z</time>
</trkpt>
<trkpt lat="48.273075" lon="10.848384">
<ele>542.968</ele>
<time>2022-05-25T12:01:15Z</time>
</trkpt>
<trkpt lat="48.27306" lon="10.848441">
<ele>542.968</ele>
<time>2022-05-25T12:01:16Z</time>
</trkpt>
<trkpt lat="48.273041" lon="10.848501">
<ele>542.968</ele>
<time>2022-05-25T12:01:17Z</time>
</trkpt>
<trkpt lat="48.273033" lon="10.84856">
<ele>542.968</ele>
<time>2022-05-25T12:01:18Z</time>
</trkpt>
<trkpt lat="48.273026" lon="10.848621">
<ele>542.968</ele>
<time>2022-05-25T12:01:19Z</time>
</trkpt>
<trkpt lat="48.273014" lon="10.848678">
<ele>542.968</ele>
<time>2022-05-25T12:01:20Z</time>
</trkpt>
<trkpt lat="48.273006" lon="10.84873">
<ele>542.968</ele>
<time>2022-05-25T12:01:21Z</time>
</trkpt>
<trkpt lat="48.272995" lon="10.848783">
<ele>542.968</ele>
<time>2022-05-25T12:01:22Z</time>
</trkpt>
<trkpt lat="48.27298" lon="10.848839">
<ele>543.177</ele>
<time>2022-05-25T12:01:23Z</time>
</trkpt>
<trkpt lat="48.272964" lon="10.848891">
<ele>543.373</ele>
<time>2022-05-25T12:01:24Z</time>
</trkpt>
<trkpt lat="48.272942" lon="10.848947">
<ele>543.54</ele>
<time>2022-05-25T12:01:25Z</time>
</trkpt>
<trkpt lat="48.272926" lon="10.848995">
<ele>543.676</ele>
<time>2022-05-25T12:01:26Z</time>
</trkpt>
<trkpt lat="48.272903" lon="10.849047">
<ele>543.78</ele>
<time>2022-05-25T12:01:27Z</time>
</trkpt>
<trkpt lat="48.272884" lon="10.8491">
<ele>543.858</ele>
<time>2022-05-25T12:01:28Z</time>
</trkpt>
<trkpt lat="48.272869" lon="10.849157">
<ele>543.905</ele>
<time>2022-05-25T12:01:29Z</time>
</trkpt>
<trkpt lat="48.272846" lon="10.849214">
<ele>543.926</ele>
<time>2022-05-25T12:01:30Z</time>
</trkpt>
<trkpt lat="48.272835" lon="10.849273">
<ele>543.926</ele>
<time>2022-05-25T12:01:31Z</time>
</trkpt>
<trkpt lat="48.27282" lon="10.84933">
<ele>543.926</ele>
<time>2022-05-25T12:01:32Z</time>
</trkpt>
<trkpt lat="48.272804" lon="10.849386">
<ele>543.926</ele>
<time>2022-05-25T12:01:33Z</time>
</trkpt>
<trkpt lat="48.272785" lon="10.849446">
<ele>543.926</ele>
<time>2022-05-25T12:01:34Z</time>
</trkpt>
<trkpt lat="48.27277" lon="10.849513">
<ele>543.926</ele>
<time>2022-05-25T12:01:35Z</time>
</trkpt>
<trkpt lat="48.272751" lon="10.849578">
<ele>543.926</ele>
<time>2022-05-25T12:01:36Z</time>
</trkpt>
<trkpt lat="48.272736" lon="10.84964">
<ele>543.926</ele>
<time>2022-05-25T12:01:37Z</time>
</trkpt>
<trkpt lat="48.272717" lon="10.849704">
<ele>543.926</ele>
<time>2022-05-25T12:01:38Z</time>
</trkpt>
<trkpt lat="48.272697" lon="10.849765">
<ele>543.926</ele>
<time>2022-05-25T12:01:39Z</time>
</trkpt>
<trkpt lat="48.272678" lon="10.849825">
<ele>543.926</ele>
<time>2022-05-25T12:01:40Z</time>
</trkpt>
<trkpt lat="48.272659" lon="10.849885">
<ele>544.144</ele>
<time>2022-05-25T12:01:41Z</time>
</trkpt>
<trkpt lat="48.27264" lon="10.849945">
<ele>544.314</ele>
<time>2022-05-25T12:01:42Z</time>
</trkpt>
<trkpt lat="48.272629" lon="10.850001">
<ele>544.43</ele>
<time>2022-05-25T12:01:43Z</time>
</trkpt>
<trkpt lat="48.27261" lon="10.850059">
<ele>544.56</ele>
<time>2022-05-25T12:01:44Z</time>
</trkpt>
<trkpt lat="48.272587" lon="10.850117">
<ele>544.658</ele>
<time>2022-05-25T12:01:45Z</time>
</trkpt>
<trkpt lat="48.272568" lon="10.850177">
<ele>544.729</ele>
<time>2022-05-25T12:01:46Z</time>
</trkpt>
<trkpt lat="48.272545" lon="10.85024">
<ele>544.775</ele>
<time>2022-05-25T12:01:47Z</time>
</trkpt>
<trkpt lat="48.27253" lon="10.8503">
<ele>544.798</ele>
<time>2022-05-25T12:01:48Z</time>
</trkpt>
<trkpt lat="48.272511" lon="10.850356">
<ele>544.798</ele>
<time>2022-05-25T12:01:49Z</time>
</trkpt>
<trkpt lat="48.272491" lon="10.850416">
<ele>544.798</ele>
<time>2022-05-25T12:01:50Z</time>
</trkpt>
<trkpt lat="48.272476" lon="10.850475">
<ele>544.798</ele>
<time>2022-05-25T12:01:51Z</time>
</trkpt>
<trkpt lat="48.272449" lon="10.850532">
<ele>544.798</ele>
<time>2022-05-25T12:01:52Z</time>
</trkpt>
<trkpt lat="48.27243" lon="10.85059">
<ele>544.798</ele>
<time>2022-05-25T12:01:53Z</time>
</trkpt>
<trkpt lat="48.272411" lon="10.85065">
<ele>544.798</ele>
<time>2022-05-25T12:01:54Z</time>
</trkpt>
<trkpt lat="48.272388" lon="10.850712">
<ele>544.798</ele>
<time>2022-05-25T12:01:55Z</time>
</trkpt>
<trkpt lat="48.272373" lon="10.850773">
<ele>544.798</ele>
<time>2022-05-25T12:01:56Z</time>
</trkpt>
<trkpt lat="48.27235" lon="10.850837">
<ele>544.798</ele>
<time>2022-05-25T12:01:57Z</time>
</trkpt>
<trkpt lat="48.272335" lon="10.850901">
<ele>544.798</ele>
<time>2022-05-25T12:01:58Z</time>
</trkpt>
<trkpt lat="48.272316" lon="10.850967">
<ele>544.798</ele>
<time>2022-05-25T12:01:59Z</time>
</trkpt>
<trkpt lat="48.272289" lon="10.85103">
<ele>544.798</ele>
<time>2022-05-25T12:02:00Z</time>
</trkpt>
<trkpt lat="48.272274" lon="10.851093">
<ele>544.798</ele>
<time>2022-05-25T12:02:01Z</time>
</trkpt>
<trkpt lat="48.272259" lon="10.851151">
<ele>544.798</ele>
<time>2022-05-25T12:02:02Z</time>
</trkpt>
<trkpt lat="48.272251" lon="10.851213">
<ele>544.798</ele>
<time>2022-05-25T12:02:03Z</time>
</trkpt>
<trkpt lat="48.272243" lon="10.851274">
<ele>545.026</ele>
<time>2022-05-25T12:02:04Z</time>
</trkpt>
<trkpt lat="48.272232" lon="10.85134">
<ele>545.217</ele>
<time>2022-05-25T12:02:05Z</time>
</trkpt>
<trkpt lat="48.272224" lon="10.851412">
<ele>545.377</ele>
<time>2022-05-25T12:02:06Z</time>
</trkpt>
<trkpt lat="48.272217" lon="10.851483">
<ele>545.507</ele>
<time>2022-05-25T12:02:07Z</time>
</trkpt>
<trkpt lat="48.272209" lon="10.851562">
<ele>545.612</ele>
<time>2022-05-25T12:02:08Z</time>
</trkpt>
<trkpt lat="48.272198" lon="10.851642">
<ele>545.668</ele>
<time>2022-05-25T12:02:09Z</time>
</trkpt>
<trkpt lat="48.272186" lon="10.851726">
<ele>545.468</ele>
<time>2022-05-25T12:02:10Z</time>
</trkpt>
<trkpt lat="48.272167" lon="10.85181">
<ele>545.291</ele>
<time>2022-05-25T12:02:11Z</time>
</trkpt>
<trkpt lat="48.272144" lon="10.851895">
<ele>545.177</ele>
<time>2022-05-25T12:02:12Z</time>
</trkpt>
<trkpt lat="48.272118" lon="10.851985">
<ele>544.843</ele>
<time>2022-05-25T12:02:13Z</time>
</trkpt>
<trkpt lat="48.272095" lon="10.852077">
<ele>544.567</ele>
<time>2022-05-25T12:02:14Z</time>
</trkpt>
<trkpt lat="48.272072" lon="10.852175">
<ele>544.122</ele>
<time>2022-05-25T12:02:15Z</time>
</trkpt>
<trkpt lat="48.272049" lon="10.852282">
<ele>543.542</ele>
<time>2022-05-25T12:02:16Z</time>
</trkpt>
<trkpt lat="48.272011" lon="10.852394">
<ele>542.78</ele>
<time>2022-05-25T12:02:17Z</time>
</trkpt>
<trkpt lat="48.271969" lon="10.852495">
<ele>542.209</ele>
<time>2022-05-25T12:02:18Z</time>
</trkpt>
<trkpt lat="48.271931" lon="10.852595">
<ele>541.779</ele>
<time>2022-05-25T12:02:19Z</time>
</trkpt>
<trkpt lat="48.271896" lon="10.852687">
<ele>541.47</ele>
<time>2022-05-25T12:02:20Z</time>
</trkpt>
<trkpt lat="48.271889" lon="10.852781">
<ele>541.215</ele>
<time>2022-05-25T12:02:21Z</time>
</trkpt>
<trkpt lat="48.271873" lon="10.852891">
<ele>541.136</ele>
<time>2022-05-25T12:02:22Z</time>
</trkpt>
<trkpt lat="48.271851" lon="10.852995">
<ele>541.078</ele>
<time>2022-05-25T12:02:23Z</time>
</trkpt>
<trkpt lat="48.271816" lon="10.853086">
<ele>541.053</ele>
<time>2022-05-25T12:02:24Z</time>
</trkpt>
<trkpt lat="48.271782" lon="10.853176">
<ele>541.331</ele>
<time>2022-05-25T12:02:25Z</time>
</trkpt>
<trkpt lat="48.271755" lon="10.853245">
<ele>541.548</ele>
<time>2022-05-25T12:02:26Z</time>
</trkpt>
<trkpt lat="48.271729" lon="10.853307">
<ele>541.696</ele>
<time>2022-05-25T12:02:27Z</time>
</trkpt>
<trkpt lat="48.271698" lon="10.853364">
<ele>542.075</ele>
<time>2022-05-25T12:02:28Z</time>
</trkpt>
<trkpt lat="48.271664" lon="10.853425">
<ele>542.333</ele>
<time>2022-05-25T12:02:29Z</time>
</trkpt>
<trkpt lat="48.271633" lon="10.853486">
<ele>542.772</ele>
<time>2022-05-25T12:02:30Z</time>
</trkpt>
<trkpt lat="48.271599" lon="10.853555">
<ele>543.075</ele>
<time>2022-05-25T12:02:31Z</time>
</trkpt>
<trkpt lat="48.271564" lon="10.853623">
<ele>543.545</ele>
<time>2022-05-25T12:02:32Z</time>
</trkpt>
<trkpt lat="48.271526" lon="10.85369">
<ele>543.914</ele>
<time>2022-05-25T12:02:33Z</time>
</trkpt>
<trkpt lat="48.2715" lon="10.853752">
<ele>544.275</ele>
<time>2022-05-25T12:02:34Z</time>
</trkpt>
<trkpt lat="48.271465" lon="10.85381">
<ele>544.492</ele>
<time>2022-05-25T12:02:35Z</time>
</trkpt>
<trkpt lat="48.271435" lon="10.853868">
<ele>544.87</ele>
<time>2022-05-25T12:02:36Z</time>
</trkpt>
<trkpt lat="48.271404" lon="10.853931">
<ele>545.154</ele>
<time>2022-05-25T12:02:37Z</time>
</trkpt>
<trkpt lat="48.271374" lon="10.853992">
<ele>545.359</ele>
<time>2022-05-25T12:02:38Z</time>
</trkpt>
<trkpt lat="48.271358" lon="10.854047">
<ele>545.502</ele>
<time>2022-05-25T12:02:39Z</time>
</trkpt>
<trkpt lat="48.271336" lon="10.854115">
<ele>545.646</ele>
<time>2022-05-25T12:02:40Z</time>
</trkpt>
<trkpt lat="48.271305" lon="10.85419">
<ele>545.702</ele>
<time>2022-05-25T12:02:41Z</time>
</trkpt>
<trkpt lat="48.271282" lon="10.854261">
<ele>545.733</ele>
<time>2022-05-25T12:02:42Z</time>
</trkpt>
<trkpt lat="48.271263" lon="10.854337">
<ele>545.756</ele>
<time>2022-05-25T12:02:43Z</time>
</trkpt>
<trkpt lat="48.27124" lon="10.854414">
<ele>545.756</ele>
<time>2022-05-25T12:02:44Z</time>
</trkpt>
<trkpt lat="48.271225" lon="10.854491">
<ele>545.756</ele>
<time>2022-05-25T12:02:45Z</time>
</trkpt>
<trkpt lat="48.271206" lon="10.85457">
<ele>545.756</ele>
<time>2022-05-25T12:02:46Z</time>
</trkpt>
<trkpt lat="48.271191" lon="10.854647">
<ele>545.756</ele>
<time>2022-05-25T12:02:47Z</time>
</trkpt>
<trkpt lat="48.271175" lon="10.854722">
<ele>545.756</ele>
<time>2022-05-25T12:02:48Z</time>
</trkpt>
<trkpt lat="48.271164" lon="10.854797">
<ele>545.756</ele>
<time>2022-05-25T12:02:49Z</time>
</trkpt>
<trkpt lat="48.271149" lon="10.854872">
<ele>545.756</ele>
<time>2022-05-25T12:02:50Z</time>
</trkpt>
<trkpt lat="48.271133" lon="10.854943">
<ele>545.756</ele>
<time>2022-05-25T12:02:51Z</time>
</trkpt>
<trkpt lat="48.271118" lon="10.85502">
<ele>545.756</ele>
<time>2022-05-25T12:02:52Z</time>
</trkpt>
<trkpt lat="48.271103" lon="10.855099">
<ele>545.756</ele>
<time>2022-05-25T12:02:53Z</time>
</trkpt>
<trkpt lat="48.271084" lon="10.855179">
<ele>545.756</ele>
<time>2022-05-25T12:02:54Z</time>
</trkpt>
<trkpt lat="48.271069" lon="10.855262">
<ele>545.756</ele>
<time>2022-05-25T12:02:55Z</time>
</trkpt>
<trkpt lat="48.271049" lon="10.855344">
<ele>545.756</ele>
<time>2022-05-25T12:02:56Z</time>
</trkpt>
<trkpt lat="48.271034" lon="10.855426">
<ele>545.756</ele>
<time>2022-05-25T12:02:57Z</time>
</trkpt>
<trkpt lat="48.271019" lon="10.85551">
<ele>545.756</ele>
<time>2022-05-25T12:02:58Z</time>
</trkpt>
<trkpt lat="48.271" lon="10.855597">
<ele>545.756</ele>
<time>2022-05-25T12:02:59Z</time>
</trkpt>
<trkpt lat="48.270981" lon="10.855681">
<ele>545.756</ele>
<time>2022-05-25T12:03:00Z</time>
</trkpt>
<trkpt lat="48.270966" lon="10.855767">
<ele>545.756</ele>
<time>2022-05-25T12:03:01Z</time>
</trkpt>
<trkpt lat="48.270947" lon="10.855853">
<ele>545.756</ele>
<time>2022-05-25T12:03:02Z</time>
</trkpt>
<trkpt lat="48.270935" lon="10.855939">
<ele>545.756</ele>
<time>2022-05-25T12:03:03Z</time>
</trkpt>
<trkpt lat="48.270916" lon="10.856023">
<ele>545.756</ele>
<time>2022-05-25T12:03:04Z</time>
</trkpt>
<trkpt lat="48.270901" lon="10.856109">
<ele>545.756</ele>
<time>2022-05-25T12:03:05Z</time>
</trkpt>
<trkpt lat="48.270885" lon="10.856191">
<ele>545.756</ele>
<time>2022-05-25T12:03:06Z</time>
</trkpt>
<trkpt lat="48.27087" lon="10.856274">
<ele>545.756</ele>
<time>2022-05-25T12:03:07Z</time>
</trkpt>
<trkpt lat="48.270855" lon="10.856355">
<ele>545.497</ele>
<time>2022-05-25T12:03:08Z</time>
</trkpt>
<trkpt lat="48.27084" lon="10.856438">
<ele>545.293</ele>
<time>2022-05-25T12:03:09Z</time>
</trkpt>
<trkpt lat="48.270821" lon="10.856522">
<ele>545.138</ele>
<time>2022-05-25T12:03:10Z</time>
</trkpt>
<trkpt lat="48.270809" lon="10.856604">
<ele>545.021</ele>
<time>2022-05-25T12:03:11Z</time>
</trkpt>
<trkpt lat="48.27079" lon="10.856685">
<ele>544.939</ele>
<time>2022-05-25T12:03:12Z</time>
</trkpt>
<trkpt lat="48.270775" lon="10.856767">
<ele>544.878</ele>
<time>2022-05-25T12:03:13Z</time>
</trkpt>
<trkpt lat="48.27076" lon="10.856849">
<ele>544.823</ele>
<time>2022-05-25T12:03:14Z</time>
</trkpt>
<trkpt lat="48.270744" lon="10.856928">
<ele>544.798</ele>
<time>2022-05-25T12:03:15Z</time>
</trkpt>
<trkpt lat="48.270725" lon="10.857008">
<ele>544.798</ele>
<time>2022-05-25T12:03:16Z</time>
</trkpt>
<trkpt lat="48.27071" lon="10.857087">
<ele>544.798</ele>
<time>2022-05-25T12:03:17Z</time>
</trkpt>
<trkpt lat="48.270695" lon="10.857165">
<ele>544.798</ele>
<time>2022-05-25T12:03:18Z</time>
</trkpt>
<trkpt lat="48.270679" lon="10.857244">
<ele>544.798</ele>
<time>2022-05-25T12:03:19Z</time>
</trkpt>
<trkpt lat="48.270664" lon="10.857318">
<ele>544.798</ele>
<time>2022-05-25T12:03:20Z</time>
</trkpt>
<trkpt lat="48.270649" lon="10.857391">
<ele>544.798</ele>
<time>2022-05-25T12:03:21Z</time>
</trkpt>
<trkpt lat="48.270634" lon="10.857464">
<ele>544.798</ele>
<time>2022-05-25T12:03:22Z</time>
</trkpt>
<trkpt lat="48.270618" lon="10.857535">
<ele>544.798</ele>
<time>2022-05-25T12:03:23Z</time>
</trkpt>
<trkpt lat="48.270607" lon="10.857607">
<ele>544.798</ele>
<time>2022-05-25T12:03:24Z</time>
</trkpt>
<trkpt lat="48.270592" lon="10.857678">
<ele>544.798</ele>
<time>2022-05-25T12:03:25Z</time>
</trkpt>
<trkpt lat="48.27058" lon="10.857749">
<ele>544.798</ele>
<time>2022-05-25T12:03:26Z</time>
</trkpt>
<trkpt lat="48.270561" lon="10.857822">
<ele>544.798</ele>
<time>2022-05-25T12:03:27Z</time>
</trkpt>
<trkpt lat="48.27055" lon="10.857896">
<ele>544.798</ele>
<time>2022-05-25T12:03:28Z</time>
</trkpt>
<trkpt lat="48.270531" lon="10.857968">
<ele>544.798</ele>
<time>2022-05-25T12:03:29Z</time>
</trkpt>
<trkpt lat="48.270519" lon="10.858043">
<ele>544.798</ele>
<time>2022-05-25T12:03:30Z</time>
</trkpt>
<trkpt lat="48.2705" lon="10.858115">
<ele>544.798</ele>
<time>2022-05-25T12:03:31Z</time>
</trkpt>
<trkpt lat="48.270489" lon="10.858187">
<ele>544.798</ele>
<time>2022-05-25T12:03:32Z</time>
</trkpt>
<trkpt lat="48.270473" lon="10.858253">
<ele>544.798</ele>
<time>2022-05-25T12:03:33Z</time>
</trkpt>
<trkpt lat="48.270458" lon="10.858316">
<ele>544.798</ele>
<time>2022-05-25T12:03:34Z</time>
</trkpt>
<trkpt lat="48.270443" lon="10.85838">
<ele>544.798</ele>
<time>2022-05-25T12:03:35Z</time>
</trkpt>
<trkpt lat="48.270432" lon="10.858438">
<ele>544.798</ele>
<time>2022-05-25T12:03:36Z</time>
</trkpt>
<trkpt lat="48.270424" lon="10.858493">
<ele>544.798</ele>
<time>2022-05-25T12:03:37Z</time>
</trkpt>
<trkpt lat="48.270409" lon="10.858548">
<ele>544.798</ele>
<time>2022-05-25T12:03:38Z</time>
</trkpt>
<trkpt lat="48.270397" lon="10.858604">
<ele>544.798</ele>
<time>2022-05-25T12:03:39Z</time>
</trkpt>
<trkpt lat="48.27039" lon="10.858662">
<ele>544.798</ele>
<time>2022-05-25T12:03:40Z</time>
</trkpt>
<trkpt lat="48.270374" lon="10.858724">
<ele>544.798</ele>
<time>2022-05-25T12:03:41Z</time>
</trkpt>
<trkpt lat="48.270363" lon="10.85879">
<ele>544.798</ele>
<time>2022-05-25T12:03:42Z</time>
</trkpt>
<trkpt lat="48.270348" lon="10.858855">
<ele>545.012</ele>
<time>2022-05-25T12:03:43Z</time>
</trkpt>
<trkpt lat="48.270332" lon="10.858922">
<ele>545.223</ele>
<time>2022-05-25T12:03:44Z</time>
</trkpt>
<trkpt lat="48.270321" lon="10.85899">
<ele>545.394</ele>
<time>2022-05-25T12:03:45Z</time>
</trkpt>
<trkpt lat="48.270306" lon="10.859061">
<ele>545.526</ele>
<time>2022-05-25T12:03:46Z</time>
</trkpt>
<trkpt lat="48.270294" lon="10.859134">
<ele>545.623</ele>
<time>2022-05-25T12:03:47Z</time>
</trkpt>
<trkpt lat="48.270279" lon="10.859205">
<ele>545.692</ele>
<time>2022-05-25T12:03:48Z</time>
</trkpt>
<trkpt lat="48.27026" lon="10.859277">
<ele>545.735</ele>
<time>2022-05-25T12:03:49Z</time>
</trkpt>
<trkpt lat="48.270248" lon="10.85935">
<ele>545.756</ele>
<time>2022-05-25T12:03:50Z</time>
</trkpt>
<trkpt lat="48.270233" lon="10.859427">
<ele>545.756</ele>
<time>2022-05-25T12:03:51Z</time>
</trkpt>
<trkpt lat="48.270218" lon="10.859505">
<ele>545.756</ele>
<time>2022-05-25T12:03:52Z</time>
</trkpt>
<trkpt lat="48.270203" lon="10.859583">
<ele>545.756</ele>
<time>2022-05-25T12:03:53Z</time>
</trkpt>
<trkpt lat="48.270191" lon="10.85966">
<ele>545.756</ele>
<time>2022-05-25T12:03:54Z</time>
</trkpt>
<trkpt lat="48.270176" lon="10.859732">
<ele>545.756</ele>
<time>2022-05-25T12:03:55Z</time>
</trkpt>
<trkpt lat="48.270164" lon="10.859807">
<ele>545.756</ele>
<time>2022-05-25T12:03:56Z</time>
</trkpt>
<trkpt lat="48.270149" lon="10.859881">
<ele>545.756</ele>
<time>2022-05-25T12:03:57Z</time>
</trkpt>
<trkpt lat="48.270134" lon="10.859957">
<ele>545.756</ele>
<time>2022-05-25T12:03:58Z</time>
</trkpt>
<trkpt lat="48.270123" lon="10.860033">
<ele>545.756</ele>
<time>2022-05-25T12:03:59Z</time>
</trkpt>
<trkpt lat="48.270107" lon="10.860112">
<ele>545.756</ele>
<time>2022-05-25T12:04:00Z</time>
</trkpt>
<trkpt lat="48.270092" lon="10.86019">
<ele>545.756</ele>
<time>2022-05-25T12:04:01Z</time>
</trkpt>
<trkpt lat="48.270077" lon="10.860265">
<ele>545.756</ele>
<time>2022-05-25T12:04:02Z</time>
</trkpt>
<trkpt lat="48.270065" lon="10.860336">
<ele>545.756</ele>
<time>2022-05-25T12:04:03Z</time>
</trkpt>
<trkpt lat="48.270054" lon="10.86041">
<ele>545.756</ele>
<time>2022-05-25T12:04:04Z</time>
</trkpt>
<trkpt lat="48.270039" lon="10.860479">
<ele>545.756</ele>
<time>2022-05-25T12:04:05Z</time>
</trkpt>
<trkpt lat="48.270027" lon="10.860548">
<ele>545.756</ele>
<time>2022-05-25T12:04:06Z</time>
</trkpt>
<trkpt lat="48.270016" lon="10.86062">
<ele>545.756</ele>
<time>2022-05-25T12:04:07Z</time>
</trkpt>
<trkpt lat="48.27" lon="10.86069">
<ele>545.756</ele>
<time>2022-05-25T12:04:08Z</time>
</trkpt>
<trkpt lat="48.269989" lon="10.860762">
<ele>546.004</ele>
<time>2022-05-25T12:04:09Z</time>
</trkpt>
<trkpt lat="48.269974" lon="10.860833">
<ele>546.203</ele>
<time>2022-05-25T12:04:10Z</time>
</trkpt>
<trkpt lat="48.269962" lon="10.860898">
<ele>546.357</ele>
<time>2022-05-25T12:04:11Z</time>
</trkpt>
<trkpt lat="48.269947" lon="10.860963">
<ele>546.472</ele>
<time>2022-05-25T12:04:12Z</time>
</trkpt>
<trkpt lat="48.269936" lon="10.861027">
<ele>546.554</ele>
<time>2022-05-25T12:04:13Z</time>
</trkpt>
<trkpt lat="48.269924" lon="10.861092">
<ele>546.636</ele>
<time>2022-05-25T12:04:14Z</time>
</trkpt>
<trkpt lat="48.269913" lon="10.861148">
<ele>546.688</ele>
<time>2022-05-25T12:04:15Z</time>
</trkpt>
<trkpt lat="48.269901" lon="10.861204">
<ele>546.714</ele>
<time>2022-05-25T12:04:16Z</time>
</trkpt>
<trkpt lat="48.26989" lon="10.861263">
<ele>546.714</ele>
<time>2022-05-25T12:04:17Z</time>
</trkpt>
<trkpt lat="48.269875" lon="10.861323">
<ele>546.714</ele>
<time>2022-05-25T12:04:18Z</time>
</trkpt>
<trkpt lat="48.269867" lon="10.861386">
<ele>546.714</ele>
<time>2022-05-25T12:04:19Z</time>
</trkpt>
<trkpt lat="48.269852" lon="10.861449">
<ele>546.714</ele>
<time>2022-05-25T12:04:20Z</time>
</trkpt>
<trkpt lat="48.26984" lon="10.861514">
<ele>546.714</ele>
<time>2022-05-25T12:04:21Z</time>
</trkpt>
<trkpt lat="48.269833" lon="10.861579">
<ele>546.714</ele>
<time>2022-05-25T12:04:22Z</time>
</trkpt>
<trkpt lat="48.269817" lon="10.861645">
<ele>546.714</ele>
<time>2022-05-25T12:04:23Z</time>
</trkpt>
<trkpt lat="48.269806" lon="10.861707">
<ele>546.714</ele>
<time>2022-05-25T12:04:24Z</time>
</trkpt>
<trkpt lat="48.269791" lon="10.861768">
<ele>546.714</ele>
<time>2022-05-25T12:04:25Z</time>
</trkpt>
<trkpt lat="48.269775" lon="10.861833">
<ele>546.714</ele>
<time>2022-05-25T12:04:26Z</time>
</trkpt>
<trkpt lat="48.269768" lon="10.861897">
<ele>546.714</ele>
<time>2022-05-25T12:04:27Z</time>
</trkpt>
<trkpt lat="48.269753" lon="10.861965">
<ele>546.714</ele>
<time>2022-05-25T12:04:28Z</time>
</trkpt>
<trkpt lat="48.269741" lon="10.862037">
<ele>546.714</ele>
<time>2022-05-25T12:04:29Z</time>
</trkpt>
<trkpt lat="48.269726" lon="10.862109">
<ele>546.714</ele>
<time>2022-05-25T12:04:30Z</time>
</trkpt>
<trkpt lat="48.269707" lon="10.862183">
<ele>546.714</ele>
<time>2022-05-25T12:04:31Z</time>
</trkpt>
<trkpt lat="48.269691" lon="10.862258">
<ele>546.714</ele>
<time>2022-05-25T12:04:32Z</time>
</trkpt>
<trkpt lat="48.269672" lon="10.862337">
<ele>546.714</ele>
<time>2022-05-25T12:04:33Z</time>
</trkpt>
<trkpt lat="48.269661" lon="10.862413">
<ele>546.714</ele>
<time>2022-05-25T12:04:34Z</time>
</trkpt>
<trkpt lat="48.269642" lon="10.862493">
<ele>546.714</ele>
<time>2022-05-25T12:04:35Z</time>
</trkpt>
<trkpt lat="48.269627" lon="10.862574">
<ele>546.714</ele>
<time>2022-05-25T12:04:36Z</time>
</trkpt>
<trkpt lat="48.269608" lon="10.862655">
<ele>546.714</ele>
<time>2022-05-25T12:04:37Z</time>
</trkpt>
<trkpt lat="48.269588" lon="10.862736">
<ele>546.714</ele>
<time>2022-05-25T12:04:38Z</time>
</trkpt>
<trkpt lat="48.269573" lon="10.862815">
<ele>546.714</ele>
<time>2022-05-25T12:04:39Z</time>
</trkpt>
<trkpt lat="48.269554" lon="10.862891">
<ele>546.714</ele>
<time>2022-05-25T12:04:40Z</time>
</trkpt>
<trkpt lat="48.269543" lon="10.862972">
<ele>546.714</ele>
<time>2022-05-25T12:04:41Z</time>
</trkpt>
<trkpt lat="48.269524" lon="10.86305">
<ele>546.714</ele>
<time>2022-05-25T12:04:42Z</time>
</trkpt>
<trkpt lat="48.269508" lon="10.86312">
<ele>546.714</ele>
<time>2022-05-25T12:04:43Z</time>
</trkpt>
<trkpt lat="48.269497" lon="10.863194">
<ele>546.714</ele>
<time>2022-05-25T12:04:44Z</time>
</trkpt>
<trkpt lat="48.269478" lon="10.863265">
<ele>546.714</ele>
<time>2022-05-25T12:04:45Z</time>
</trkpt>
<trkpt lat="48.269474" lon="10.863332">
<ele>546.714</ele>
<time>2022-05-25T12:04:46Z</time>
</trkpt>
<trkpt lat="48.26947" lon="10.8634">
<ele>546.714</ele>
<time>2022-05-25T12:04:47Z</time>
</trkpt>
<trkpt lat="48.269455" lon="10.863471">
<ele>546.714</ele>
<time>2022-05-25T12:04:48Z</time>
</trkpt>
<trkpt lat="48.26944" lon="10.863544">
<ele>546.714</ele>
<time>2022-05-25T12:04:49Z</time>
</trkpt>
<trkpt lat="48.269421" lon="10.863615">
<ele>546.714</ele>
<time>2022-05-25T12:04:50Z</time>
</trkpt>
<trkpt lat="48.269409" lon="10.863685">
<ele>546.714</ele>
<time>2022-05-25T12:04:51Z</time>
</trkpt>
<trkpt lat="48.269394" lon="10.863756">
<ele>546.714</ele>
<time>2022-05-25T12:04:52Z</time>
</trkpt>
<trkpt lat="48.269382" lon="10.863823">
<ele>546.714</ele>
<time>2022-05-25T12:04:53Z</time>
</trkpt>
<trkpt lat="48.269367" lon="10.86389">
<ele>546.714</ele>
<time>2022-05-25T12:04:54Z</time>
</trkpt>
<trkpt lat="48.269356" lon="10.863955">
<ele>546.714</ele>
<time>2022-05-25T12:04:55Z</time>
</trkpt>
<trkpt lat="48.269348" lon="10.86402">
<ele>546.714</ele>
<time>2022-05-25T12:04:56Z</time>
</trkpt>
<trkpt lat="48.269333" lon="10.864085">
<ele>546.714</ele>
<time>2022-05-25T12:04:57Z</time>
</trkpt>
<trkpt lat="48.269318" lon="10.864154">
<ele>546.714</ele>
<time>2022-05-25T12:04:58Z</time>
</trkpt>
<trkpt lat="48.269302" lon="10.864223">
<ele>546.714</ele>
<time>2022-05-25T12:04:59Z</time>
</trkpt>
<trkpt lat="48.269287" lon="10.864293">
<ele>546.714</ele>
<time>2022-05-25T12:05:00Z</time>
</trkpt>
<trkpt lat="48.269272" lon="10.864367">
<ele>546.714</ele>
<time>2022-05-25T12:05:01Z</time>
</trkpt>
<trkpt lat="48.269253" lon="10.864439">
<ele>546.714</ele>
<time>2022-05-25T12:05:02Z</time>
</trkpt>
<trkpt lat="48.269238" lon="10.864511">
<ele>546.714</ele>
<time>2022-05-25T12:05:03Z</time>
</trkpt>
<trkpt lat="48.269218" lon="10.864587">
<ele>546.714</ele>
<time>2022-05-25T12:05:04Z</time>
</trkpt>
<trkpt lat="48.269207" lon="10.864661">
<ele>546.714</ele>
<time>2022-05-25T12:05:05Z</time>
</trkpt>
<trkpt lat="48.269188" lon="10.86474">
<ele>546.714</ele>
<time>2022-05-25T12:05:06Z</time>
</trkpt>
<trkpt lat="48.269173" lon="10.864815">
<ele>546.441</ele>
<time>2022-05-25T12:05:07Z</time>
</trkpt>
<trkpt lat="48.269154" lon="10.864888">
<ele>546.233</ele>
<time>2022-05-25T12:05:08Z</time>
</trkpt>
<trkpt lat="48.269142" lon="10.864961">
<ele>546.076</ele>
<time>2022-05-25T12:05:09Z</time>
</trkpt>
<trkpt lat="48.269127" lon="10.865033">
<ele>545.959</ele>
<time>2022-05-25T12:05:10Z</time>
</trkpt>
<trkpt lat="48.269115" lon="10.865107">
<ele>545.875</ele>
<time>2022-05-25T12:05:11Z</time>
</trkpt>
<trkpt lat="48.269096" lon="10.86518">
<ele>545.825</ele>
<time>2022-05-25T12:05:12Z</time>
</trkpt>
<trkpt lat="48.269081" lon="10.865256">
<ele>545.782</ele>
<time>2022-05-25T12:05:13Z</time>
</trkpt>
<trkpt lat="48.269066" lon="10.865334">
<ele>545.756</ele>
<time>2022-05-25T12:05:14Z</time>
</trkpt>
<trkpt lat="48.269054" lon="10.86541">
<ele>545.756</ele>
<time>2022-05-25T12:05:15Z</time>
</trkpt>
<trkpt lat="48.269035" lon="10.86549">
<ele>545.756</ele>
<time>2022-05-25T12:05:16Z</time>
</trkpt>
<trkpt lat="48.269016" lon="10.86557">
<ele>545.756</ele>
<time>2022-05-25T12:05:17Z</time>
</trkpt>
<trkpt lat="48.268997" lon="10.865654">
<ele>545.489</ele>
<time>2022-05-25T12:05:18Z</time>
</trkpt>
<trkpt lat="48.268982" lon="10.865738">
<ele>545.281</ele>
<time>2022-05-25T12:05:19Z</time>
</trkpt>
<trkpt lat="48.268959" lon="10.865826">
<ele>545.128</ele>
<time>2022-05-25T12:05:20Z</time>
</trkpt>
<trkpt lat="48.268944" lon="10.865911">
<ele>545.014</ele>
<time>2022-05-25T12:05:21Z</time>
</trkpt>
<trkpt lat="48.268925" lon="10.865996">
<ele>544.951</ele>
<time>2022-05-25T12:05:22Z</time>
</trkpt>
<trkpt lat="48.268909" lon="10.866081">
<ele>544.656</ele>
<time>2022-05-25T12:05:23Z</time>
</trkpt>
<trkpt lat="48.26889" lon="10.86617">
<ele>544.42</ele>
<time>2022-05-25T12:05:24Z</time>
</trkpt>
<trkpt lat="48.268875" lon="10.866261">
<ele>544.216</ele>
<time>2022-05-25T12:05:25Z</time>
</trkpt>
<trkpt lat="48.26886" lon="10.866354">
<ele>543.844</ele>
<time>2022-05-25T12:05:26Z</time>
</trkpt>
<trkpt lat="48.268837" lon="10.866448">
<ele>543.542</ele>
<time>2022-05-25T12:05:27Z</time>
</trkpt>
<trkpt lat="48.268822" lon="10.866547">
<ele>543.305</ele>
<time>2022-05-25T12:05:28Z</time>
</trkpt>
<trkpt lat="48.268803" lon="10.86664">
<ele>543.129</ele>
<time>2022-05-25T12:05:29Z</time>
</trkpt>
<trkpt lat="48.268784" lon="10.866732">
<ele>543.009</ele>
<time>2022-05-25T12:05:30Z</time>
</trkpt>
<trkpt lat="48.268764" lon="10.866832">
<ele>542.933</ele>
<time>2022-05-25T12:05:31Z</time>
</trkpt>
<trkpt lat="48.268753" lon="10.866934">
<ele>542.666</ele>
<time>2022-05-25T12:05:32Z</time>
</trkpt>
<trkpt lat="48.268738" lon="10.867032">
<ele>542.478</ele>
<time>2022-05-25T12:05:33Z</time>
</trkpt>
<trkpt lat="48.26873" lon="10.867128">
<ele>542.308</ele>
<time>2022-05-25T12:05:34Z</time>
</trkpt>
<trkpt lat="48.268707" lon="10.867229">
<ele>542.174</ele>
<time>2022-05-25T12:05:35Z</time>
</trkpt>
<trkpt lat="48.268692" lon="10.867342">
<ele>542.069</ele>
<time>2022-05-25T12:05:36Z</time>
</trkpt>
<trkpt lat="48.268665" lon="10.867464">
<ele>541.992</ele>
<time>2022-05-25T12:05:37Z</time>
</trkpt>
<trkpt lat="48.268661" lon="10.867552">
<ele>541.945</ele>
<time>2022-05-25T12:05:38Z</time>
</trkpt>
<trkpt lat="48.26865" lon="10.867677">
<ele>541.923</ele>
<time>2022-05-25T12:05:39Z</time>
</trkpt>
<trkpt lat="48.268623" lon="10.867786">
<ele>541.923</ele>
<time>2022-05-25T12:05:40Z</time>
</trkpt>
<trkpt lat="48.268589" lon="10.867886">
<ele>541.923</ele>
<time>2022-05-25T12:05:41Z</time>
</trkpt>
<trkpt lat="48.268574" lon="10.867956">
<ele>541.923</ele>
<time>2022-05-25T12:05:42Z</time>
</trkpt>
<trkpt lat="48.268543" lon="10.868051">
<ele>541.923</ele>
<time>2022-05-25T12:05:43Z</time>
</trkpt>
<trkpt lat="48.268532" lon="10.868125">
<ele>541.923</ele>
<time>2022-05-25T12:05:44Z</time>
</trkpt>
<trkpt lat="48.26852" lon="10.868217">
<ele>541.923</ele>
<time>2022-05-25T12:05:45Z</time>
</trkpt>
<trkpt lat="48.268501" lon="10.868302">
<ele>542.189</ele>
<time>2022-05-25T12:05:46Z</time>
</trkpt>
<trkpt lat="48.268467" lon="10.868384">
<ele>542.389</ele>
<time>2022-05-25T12:05:47Z</time>
</trkpt>
<trkpt lat="48.268448" lon="10.868462">
<ele>542.536</ele>
<time>2022-05-25T12:05:48Z</time>
</trkpt>
<trkpt lat="48.26844" lon="10.868531">
<ele>542.901</ele>
<time>2022-05-25T12:05:49Z</time>
</trkpt>
<trkpt lat="48.268417" lon="10.86861">
<ele>543.189</ele>
<time>2022-05-25T12:05:50Z</time>
</trkpt>
<trkpt lat="48.268402" lon="10.86868">
<ele>543.37</ele>
<time>2022-05-25T12:05:51Z</time>
</trkpt>
<trkpt lat="48.268394" lon="10.868751">
<ele>543.508</ele>
<time>2022-05-25T12:05:52Z</time>
</trkpt>
<trkpt lat="48.268387" lon="10.868822">
<ele>543.597</ele>
<time>2022-05-25T12:05:53Z</time>
</trkpt>
<trkpt lat="48.268379" lon="10.868889">
<ele>543.673</ele>
<time>2022-05-25T12:05:54Z</time>
</trkpt>
<trkpt lat="48.268372" lon="10.86895">
<ele>543.945</ele>
<time>2022-05-25T12:05:55Z</time>
</trkpt>
<trkpt lat="48.268368" lon="10.86901">
<ele>544.165</ele>
<time>2022-05-25T12:05:56Z</time>
</trkpt>
<trkpt lat="48.268364" lon="10.869071">
<ele>544.415</ele>
<time>2022-05-25T12:05:57Z</time>
</trkpt>
<trkpt lat="48.268353" lon="10.869139">
<ele>544.53</ele>
<time>2022-05-25T12:05:58Z</time>
</trkpt>
<trkpt lat="48.268341" lon="10.869205">
<ele>544.626</ele>
<time>2022-05-25T12:05:59Z</time>
</trkpt>
<trkpt lat="48.268333" lon="10.869268">
<ele>544.68</ele>
<time>2022-05-25T12:06:00Z</time>
</trkpt>
<trkpt lat="48.268326" lon="10.869328">
<ele>544.705</ele>
<time>2022-05-25T12:06:01Z</time>
</trkpt>
<trkpt lat="48.268318" lon="10.869388">
<ele>544.942</ele>
<time>2022-05-25T12:06:02Z</time>
</trkpt>
<trkpt lat="48.268311" lon="10.869449">
<ele>545.111</ele>
<time>2022-05-25T12:06:03Z</time>
</trkpt>
<trkpt lat="48.268307" lon="10.869507">
<ele>545.279</ele>
<time>2022-05-25T12:06:04Z</time>
</trkpt>
<trkpt lat="48.268303" lon="10.869563">
<ele>545.411</ele>
<time>2022-05-25T12:06:05Z</time>
</trkpt>
<trkpt lat="48.268291" lon="10.869624">
<ele>545.513</ele>
<time>2022-05-25T12:06:06Z</time>
</trkpt>
<trkpt lat="48.268284" lon="10.869677">
<ele>545.591</ele>
<time>2022-05-25T12:06:07Z</time>
</trkpt>
<trkpt lat="48.268276" lon="10.869733">
<ele>545.644</ele>
<time>2022-05-25T12:06:08Z</time>
</trkpt>
<trkpt lat="48.268272" lon="10.86979">
<ele>545.669</ele>
<time>2022-05-25T12:06:09Z</time>
</trkpt>
<trkpt lat="48.268269" lon="10.869852">
<ele>545.668</ele>
<time>2022-05-25T12:06:10Z</time>
</trkpt>
<trkpt lat="48.268261" lon="10.869908">
<ele>545.669</ele>
<time>2022-05-25T12:06:11Z</time>
</trkpt>
<trkpt lat="48.268253" lon="10.869967">
<ele>545.669</ele>
<time>2022-05-25T12:06:12Z</time>
</trkpt>
<trkpt lat="48.268246" lon="10.870028">
<ele>545.669</ele>
<time>2022-05-25T12:06:13Z</time>
</trkpt>
<trkpt lat="48.268238" lon="10.870089">
<ele>545.668</ele>
<time>2022-05-25T12:06:14Z</time>
</trkpt>
<trkpt lat="48.26823" lon="10.870152">
<ele>545.668</ele>
<time>2022-05-25T12:06:15Z</time>
</trkpt>
<trkpt lat="48.268219" lon="10.870215">
<ele>545.669</ele>
<time>2022-05-25T12:06:16Z</time>
</trkpt>
<trkpt lat="48.268211" lon="10.870276">
<ele>545.668</ele>
<time>2022-05-25T12:06:17Z</time>
</trkpt>
<trkpt lat="48.268208" lon="10.870337">
<ele>545.907</ele>
<time>2022-05-25T12:06:18Z</time>
</trkpt>
<trkpt lat="48.2682" lon="10.870395">
<ele>546.093</ele>
<time>2022-05-25T12:06:19Z</time>
</trkpt>
<trkpt lat="48.268196" lon="10.870452">
<ele>546.231</ele>
<time>2022-05-25T12:06:20Z</time>
</trkpt>
<trkpt lat="48.268188" lon="10.870506">
<ele>546.332</ele>
<time>2022-05-25T12:06:21Z</time>
</trkpt>
<trkpt lat="48.268185" lon="10.870562">
<ele>546.409</ele>
<time>2022-05-25T12:06:22Z</time>
</trkpt>
<trkpt lat="48.268177" lon="10.870617">
<ele>546.464</ele>
<time>2022-05-25T12:06:23Z</time>
</trkpt>
<trkpt lat="48.268173" lon="10.870673">
<ele>546.515</ele>
<time>2022-05-25T12:06:24Z</time>
</trkpt>
<trkpt lat="48.268173" lon="10.870732">
<ele>546.54</ele>
<time>2022-05-25T12:06:25Z</time>
</trkpt>
<trkpt lat="48.268166" lon="10.87079">
<ele>546.54</ele>
<time>2022-05-25T12:06:26Z</time>
</trkpt>
<trkpt lat="48.268158" lon="10.870846">
<ele>546.54</ele>
<time>2022-05-25T12:06:27Z</time>
</trkpt>
<trkpt lat="48.268154" lon="10.870902">
<ele>546.54</ele>
<time>2022-05-25T12:06:28Z</time>
</trkpt>
<trkpt lat="48.26815" lon="10.870953">
<ele>546.54</ele>
<time>2022-05-25T12:06:29Z</time>
</trkpt>
<trkpt lat="48.268147" lon="10.871005">
<ele>546.54</ele>
<time>2022-05-25T12:06:30Z</time>
</trkpt>
<trkpt lat="48.268143" lon="10.871059">
<ele>546.54</ele>
<time>2022-05-25T12:06:31Z</time>
</trkpt>
<trkpt lat="48.268143" lon="10.871117">
<ele>546.54</ele>
<time>2022-05-25T12:06:32Z</time>
</trkpt>
<trkpt lat="48.268139" lon="10.871173">
<ele>546.54</ele>
<time>2022-05-25T12:06:33Z</time>
</trkpt>
<trkpt lat="48.268135" lon="10.871231">
<ele>546.54</ele>
<time>2022-05-25T12:06:34Z</time>
</trkpt>
<trkpt lat="48.268131" lon="10.871295">
<ele>546.54</ele>
<time>2022-05-25T12:06:35Z</time>
</trkpt>
<trkpt lat="48.268127" lon="10.871359">
<ele>546.54</ele>
<time>2022-05-25T12:06:36Z</time>
</trkpt>
<trkpt lat="48.268124" lon="10.871425">
<ele>546.54</ele>
<time>2022-05-25T12:06:37Z</time>
</trkpt>
<trkpt lat="48.26812" lon="10.871491">
<ele>546.54</ele>
<time>2022-05-25T12:06:38Z</time>
</trkpt>
<trkpt lat="48.268112" lon="10.87156">
<ele>546.54</ele>
<time>2022-05-25T12:06:39Z</time>
</trkpt>
<trkpt lat="48.268108" lon="10.871627">
<ele>546.54</ele>
<time>2022-05-25T12:06:40Z</time>
</trkpt>
<trkpt lat="48.268105" lon="10.87169">
<ele>546.54</ele>
<time>2022-05-25T12:06:41Z</time>
</trkpt>
<trkpt lat="48.268105" lon="10.871755">
<ele>546.54</ele>
<time>2022-05-25T12:06:42Z</time>
</trkpt>
<trkpt lat="48.268105" lon="10.871819">
<ele>546.54</ele>
<time>2022-05-25T12:06:43Z</time>
</trkpt>
<trkpt lat="48.268105" lon="10.871883">
<ele>546.308</ele>
<time>2022-05-25T12:06:44Z</time>
</trkpt>
<trkpt lat="48.268105" lon="10.871948">
<ele>546.115</ele>
<time>2022-05-25T12:06:45Z</time>
</trkpt>
<trkpt lat="48.268105" lon="10.872019">
<ele>545.954</ele>
<time>2022-05-25T12:06:46Z</time>
</trkpt>
<trkpt lat="48.268097" lon="10.872085">
<ele>545.824</ele>
<time>2022-05-25T12:06:47Z</time>
</trkpt>
<trkpt lat="48.268085" lon="10.872151">
<ele>545.722</ele>
<time>2022-05-25T12:06:48Z</time>
</trkpt>
<trkpt lat="48.268078" lon="10.872216">
<ele>545.648</ele>
<time>2022-05-25T12:06:49Z</time>
</trkpt>
<trkpt lat="48.26807" lon="10.872285">
<ele>545.608</ele>
<time>2022-05-25T12:06:50Z</time>
</trkpt>
<trkpt lat="48.268059" lon="10.872355">
<ele>545.344</ele>
<time>2022-05-25T12:06:51Z</time>
</trkpt>
<trkpt lat="48.268047" lon="10.872425">
<ele>545.148</ele>
<time>2022-05-25T12:06:52Z</time>
</trkpt>
<trkpt lat="48.268036" lon="10.872499">
<ele>545.019</ele>
<time>2022-05-25T12:06:53Z</time>
</trkpt>
<trkpt lat="48.268024" lon="10.872574">
<ele>544.879</ele>
<time>2022-05-25T12:06:54Z</time>
</trkpt>
<trkpt lat="48.268013" lon="10.872648">
<ele>544.779</ele>
<time>2022-05-25T12:06:55Z</time>
</trkpt>
<trkpt lat="48.268005" lon="10.872722">
<ele>544.458</ele>
<time>2022-05-25T12:06:56Z</time>
</trkpt>
<trkpt lat="48.267994" lon="10.872792">
<ele>544.209</ele>
<time>2022-05-25T12:06:57Z</time>
</trkpt>
<trkpt lat="48.267986" lon="10.872857">
<ele>544.029</ele>
<time>2022-05-25T12:06:58Z</time>
</trkpt>
<trkpt lat="48.267982" lon="10.872916">
<ele>543.846</ele>
<time>2022-05-25T12:06:59Z</time>
</trkpt>
<trkpt lat="48.267979" lon="10.872972">
<ele>543.765</ele>
<time>2022-05-25T12:07:00Z</time>
</trkpt>
<trkpt lat="48.267979" lon="10.87302">
<ele>543.715</ele>
<time>2022-05-25T12:07:01Z</time>
</trkpt>
<trkpt lat="48.267975" lon="10.873058">
<ele>543.694</ele>
<time>2022-05-25T12:07:02Z</time>
</trkpt>
<trkpt lat="48.267971" lon="10.873094">
<ele>543.49</ele>
<time>2022-05-25T12:07:03Z</time>
</trkpt>
<trkpt lat="48.267967" lon="10.873125">
<ele>543.326</ele>
<time>2022-05-25T12:07:04Z</time>
</trkpt>
<trkpt lat="48.267956" lon="10.873155">
<ele>543.183</ele>
<time>2022-05-25T12:07:05Z</time>
</trkpt>
<trkpt lat="48.267944" lon="10.873181">
<ele>543.059</ele>
<time>2022-05-25T12:07:06Z</time>
</trkpt>
<trkpt lat="48.267929" lon="10.873209">
<ele>542.956</ele>
<time>2022-05-25T12:07:07Z</time>
</trkpt>
<trkpt lat="48.267914" lon="10.873234">
<ele>542.876</ele>
<time>2022-05-25T12:07:08Z</time>
</trkpt>
<trkpt lat="48.267895" lon="10.873257">
<ele>542.821</ele>
<time>2022-05-25T12:07:09Z</time>
</trkpt>
<trkpt lat="48.267879" lon="10.873281">
<ele>542.794</ele>
<time>2022-05-25T12:07:10Z</time>
</trkpt>
<trkpt lat="48.267853" lon="10.8733">
<ele>542.794</ele>
<time>2022-05-25T12:07:11Z</time>
</trkpt>
<trkpt lat="48.26783" lon="10.873326">
<ele>542.549</ele>
<time>2022-05-25T12:07:12Z</time>
</trkpt>
<trkpt lat="48.267815" lon="10.873362">
<ele>542.383</ele>
<time>2022-05-25T12:07:13Z</time>
</trkpt>
<trkpt lat="48.267807" lon="10.873404">
<ele>542.206</ele>
<time>2022-05-25T12:07:14Z</time>
</trkpt>
<trkpt lat="48.267807" lon="10.873444">
<ele>542.071</ele>
<time>2022-05-25T12:07:15Z</time>
</trkpt>
<trkpt lat="48.267799" lon="10.873487">
<ele>541.969</ele>
<time>2022-05-25T12:07:16Z</time>
</trkpt>
<trkpt lat="48.26778" lon="10.873529">
<ele>541.897</ele>
<time>2022-05-25T12:07:17Z</time>
</trkpt>
<trkpt lat="48.267754" lon="10.87356">
<ele>541.856</ele>
<time>2022-05-25T12:07:18Z</time>
</trkpt>
<trkpt lat="48.267727" lon="10.873565">
<ele>541.836</ele>
<time>2022-05-25T12:07:19Z</time>
</trkpt>
<trkpt lat="48.267696" lon="10.873557">
<ele>541.836</ele>
<time>2022-05-25T12:07:20Z</time>
</trkpt>
<trkpt lat="48.267658" lon="10.873544">
<ele>541.836</ele>
<time>2022-05-25T12:07:21Z</time>
</trkpt>
<trkpt lat="48.267616" lon="10.873529">
<ele>541.836</ele>
<time>2022-05-25T12:07:22Z</time>
</trkpt>
<trkpt lat="48.26757" lon="10.873515">
<ele>541.836</ele>
<time>2022-05-25T12:07:23Z</time>
</trkpt>
<trkpt lat="48.267521" lon="10.873496">
<ele>541.836</ele>
<time>2022-05-25T12:07:24Z</time>
</trkpt>
<trkpt lat="48.267475" lon="10.873484">
<ele>541.836</ele>
<time>2022-05-25T12:07:25Z</time>
</trkpt>
<trkpt lat="48.267426" lon="10.873468">
<ele>541.836</ele>
<time>2022-05-25T12:07:26Z</time>
</trkpt>
<trkpt lat="48.267376" lon="10.87345">
<ele>541.836</ele>
<time>2022-05-25T12:07:27Z</time>
</trkpt>
<trkpt lat="48.267326" lon="10.873426">
<ele>541.836</ele>
<time>2022-05-25T12:07:28Z</time>
</trkpt>
<trkpt lat="48.267273" lon="10.873404">
<ele>541.836</ele>
<time>2022-05-25T12:07:29Z</time>
</trkpt>
<trkpt lat="48.267223" lon="10.873381">
<ele>541.836</ele>
<time>2022-05-25T12:07:30Z</time>
</trkpt>
<trkpt lat="48.26717" lon="10.873353">
<ele>541.836</ele>
<time>2022-05-25T12:07:31Z</time>
</trkpt>
<trkpt lat="48.267124" lon="10.87333">
<ele>541.836</ele>
<time>2022-05-25T12:07:32Z</time>
</trkpt>
<trkpt lat="48.267071" lon="10.87331">
<ele>541.836</ele>
<time>2022-05-25T12:07:33Z</time>
</trkpt>
<trkpt lat="48.267029" lon="10.87329">
<ele>541.836</ele>
<time>2022-05-25T12:07:34Z</time>
</trkpt>
<trkpt lat="48.266987" lon="10.87327">
<ele>541.836</ele>
<time>2022-05-25T12:07:35Z</time>
</trkpt>
<trkpt lat="48.266941" lon="10.873251">
<ele>541.836</ele>
<time>2022-05-25T12:07:36Z</time>
</trkpt>
<trkpt lat="48.266903" lon="10.873232">
<ele>541.836</ele>
<time>2022-05-25T12:07:37Z</time>
</trkpt>
<trkpt lat="48.266861" lon="10.873213">
<ele>541.836</ele>
<time>2022-05-25T12:07:38Z</time>
</trkpt>
<trkpt lat="48.266823" lon="10.873197">
<ele>541.836</ele>
<time>2022-05-25T12:07:39Z</time>
</trkpt>
<trkpt lat="48.266781" lon="10.873178">
<ele>541.836</ele>
<time>2022-05-25T12:07:40Z</time>
</trkpt>
<trkpt lat="48.266739" lon="10.87316">
<ele>541.836</ele>
<time>2022-05-25T12:07:41Z</time>
</trkpt>
<trkpt lat="48.266701" lon="10.873138">
<ele>541.836</ele>
<time>2022-05-25T12:07:42Z</time>
</trkpt>
<trkpt lat="48.266655" lon="10.873113">
<ele>541.836</ele>
<time>2022-05-25T12:07:43Z</time>
</trkpt>
<trkpt lat="48.266613" lon="10.87309">
<ele>541.836</ele>
<time>2022-05-25T12:07:44Z</time>
</trkpt>
<trkpt lat="48.266575" lon="10.873065">
<ele>541.836</ele>
<time>2022-05-25T12:07:45Z</time>
</trkpt>
<trkpt lat="48.266525" lon="10.873041">
<ele>541.836</ele>
<time>2022-05-25T12:07:46Z</time>
</trkpt>
<trkpt lat="48.266483" lon="10.873018">
<ele>541.836</ele>
<time>2022-05-25T12:07:47Z</time>
</trkpt>
<trkpt lat="48.266441" lon="10.87299">
<ele>541.836</ele>
<time>2022-05-25T12:07:48Z</time>
</trkpt>
<trkpt lat="48.266396" lon="10.872962">
<ele>541.836</ele>
<time>2022-05-25T12:07:49Z</time>
</trkpt>
<trkpt lat="48.26635" lon="10.872936">
<ele>541.836</ele>
<time>2022-05-25T12:07:50Z</time>
</trkpt>
<trkpt lat="48.266308" lon="10.87291">
<ele>541.836</ele>
<time>2022-05-25T12:07:51Z</time>
</trkpt>
<trkpt lat="48.266266" lon="10.872885">
<ele>541.836</ele>
<time>2022-05-25T12:07:52Z</time>
</trkpt>
<trkpt lat="48.266224" lon="10.872862">
<ele>541.836</ele>
<time>2022-05-25T12:07:53Z</time>
</trkpt>
<trkpt lat="48.266186" lon="10.872838">
<ele>541.836</ele>
<time>2022-05-25T12:07:54Z</time>
</trkpt>
<trkpt lat="48.266148" lon="10.872811">
<ele>541.836</ele>
<time>2022-05-25T12:07:55Z</time>
</trkpt>
<trkpt lat="48.266109" lon="10.872787">
<ele>541.836</ele>
<time>2022-05-25T12:07:56Z</time>
</trkpt>
<trkpt lat="48.266071" lon="10.872763">
<ele>541.836</ele>
<time>2022-05-25T12:07:57Z</time>
</trkpt>
<trkpt lat="48.266033" lon="10.872738">
<ele>542.066</ele>
<time>2022-05-25T12:07:58Z</time>
</trkpt>
<trkpt lat="48.265999" lon="10.872713">
<ele>542.032</ele>
<time>2022-05-25T12:07:59Z</time>
</trkpt>
<trkpt lat="48.265968" lon="10.872688">
<ele>542</ele>
<time>2022-05-25T12:08:00Z</time>
</trkpt>
<trkpt lat="48.265942" lon="10.872668">
<ele>541.973</ele>
<time>2022-05-25T12:08:01Z</time>
</trkpt>
<trkpt lat="48.265915" lon="10.87265">
<ele>541.947</ele>
<time>2022-05-25T12:08:02Z</time>
</trkpt>
<trkpt lat="48.265892" lon="10.87263">
<ele>541.947</ele>
<time>2022-05-25T12:08:03Z</time>
</trkpt>
<trkpt lat="48.265865" lon="10.872608">
<ele>541.918</ele>
<time>2022-05-25T12:08:04Z</time>
</trkpt>
<trkpt lat="48.265842" lon="10.87259">
<ele>541.89</ele>
<time>2022-05-25T12:08:05Z</time>
</trkpt>
<trkpt lat="48.265823" lon="10.872574">
<ele>541.863</ele>
<time>2022-05-25T12:08:06Z</time>
</trkpt>
<trkpt lat="48.2658" lon="10.872553">
<ele>541.836</ele>
<time>2022-05-25T12:08:07Z</time>
</trkpt>
<trkpt lat="48.265774" lon="10.872528">
<ele>541.836</ele>
<time>2022-05-25T12:08:08Z</time>
</trkpt>
<trkpt lat="48.265743" lon="10.872503">
<ele>541.836</ele>
<time>2022-05-25T12:08:09Z</time>
</trkpt>
<trkpt lat="48.265713" lon="10.872484">
<ele>541.836</ele>
<time>2022-05-25T12:08:10Z</time>
</trkpt>
<trkpt lat="48.265675" lon="10.87247">
<ele>541.836</ele>
<time>2022-05-25T12:08:11Z</time>
</trkpt>
<trkpt lat="48.26564" lon="10.872453">
<ele>541.836</ele>
<time>2022-05-25T12:08:12Z</time>
</trkpt>
<trkpt lat="48.26561" lon="10.87243">
<ele>541.836</ele>
<time>2022-05-25T12:08:13Z</time>
</trkpt>
<trkpt lat="48.265579" lon="10.872403">
<ele>541.836</ele>
<time>2022-05-25T12:08:14Z</time>
</trkpt>
<trkpt lat="48.265549" lon="10.872377">
<ele>542.135</ele>
<time>2022-05-25T12:08:15Z</time>
</trkpt>
<trkpt lat="48.265518" lon="10.872345">
<ele>542.35</ele>
<time>2022-05-25T12:08:16Z</time>
</trkpt>
<trkpt lat="48.265484" lon="10.872308">
<ele>542.513</ele>
<time>2022-05-25T12:08:17Z</time>
</trkpt>
<trkpt lat="48.265453" lon="10.872265">
<ele>542.633</ele>
<time>2022-05-25T12:08:18Z</time>
</trkpt>
<trkpt lat="48.265423" lon="10.87222">
<ele>542.714</ele>
<time>2022-05-25T12:08:19Z</time>
</trkpt>
<trkpt lat="48.265385" lon="10.872173">
<ele>542.765</ele>
<time>2022-05-25T12:08:20Z</time>
</trkpt>
<trkpt lat="48.265347" lon="10.87213">
<ele>542.789</ele>
<time>2022-05-25T12:08:21Z</time>
</trkpt>
<trkpt lat="48.265312" lon="10.87209">
<ele>542.794</ele>
<time>2022-05-25T12:08:22Z</time>
</trkpt>
<trkpt lat="48.265274" lon="10.872052">
<ele>542.794</ele>
<time>2022-05-25T12:08:23Z</time>
</trkpt>
<trkpt lat="48.26524" lon="10.872008">
<ele>542.794</ele>
<time>2022-05-25T12:08:24Z</time>
</trkpt>
<trkpt lat="48.265198" lon="10.871964">
<ele>542.794</ele>
<time>2022-05-25T12:08:25Z</time>
</trkpt>
<trkpt lat="48.265163" lon="10.871921">
<ele>542.794</ele>
<time>2022-05-25T12:08:26Z</time>
</trkpt>
<trkpt lat="48.265121" lon="10.871873">
<ele>542.794</ele>
<time>2022-05-25T12:08:27Z</time>
</trkpt>
<trkpt lat="48.265083" lon="10.87183">
<ele>542.794</ele>
<time>2022-05-25T12:08:28Z</time>
</trkpt>
<trkpt lat="48.265045" lon="10.87179">
<ele>542.794</ele>
<time>2022-05-25T12:08:29Z</time>
</trkpt>
<trkpt lat="48.265011" lon="10.871749">
<ele>542.794</ele>
<time>2022-05-25T12:08:30Z</time>
</trkpt>
<trkpt lat="48.264973" lon="10.871707">
<ele>542.794</ele>
<time>2022-05-25T12:08:31Z</time>
</trkpt>
<trkpt lat="48.264935" lon="10.871663">
<ele>542.794</ele>
<time>2022-05-25T12:08:32Z</time>
</trkpt>
<trkpt lat="48.264896" lon="10.87162">
<ele>542.794</ele>
<time>2022-05-25T12:08:33Z</time>
</trkpt>
<trkpt lat="48.264858" lon="10.871575">
<ele>542.794</ele>
<time>2022-05-25T12:08:34Z</time>
</trkpt>
<trkpt lat="48.26482" lon="10.871529">
<ele>542.794</ele>
<time>2022-05-25T12:08:35Z</time>
</trkpt>
<trkpt lat="48.264782" lon="10.871482">
<ele>542.794</ele>
<time>2022-05-25T12:08:36Z</time>
</trkpt>
<trkpt lat="48.264744" lon="10.871438">
<ele>542.794</ele>
<time>2022-05-25T12:08:37Z</time>
</trkpt>
<trkpt lat="48.264706" lon="10.871399">
<ele>542.794</ele>
<time>2022-05-25T12:08:38Z</time>
</trkpt>
<trkpt lat="48.264668" lon="10.87136">
<ele>542.794</ele>
<time>2022-05-25T12:08:39Z</time>
</trkpt>
<trkpt lat="48.264629" lon="10.87132">
<ele>542.794</ele>
<time>2022-05-25T12:08:40Z</time>
</trkpt>
<trkpt lat="48.264595" lon="10.87128">
<ele>542.794</ele>
<time>2022-05-25T12:08:41Z</time>
</trkpt>
<trkpt lat="48.264557" lon="10.871238">
<ele>542.794</ele>
<time>2022-05-25T12:08:42Z</time>
</trkpt>
<trkpt lat="48.264523" lon="10.871198">
<ele>542.794</ele>
<time>2022-05-25T12:08:43Z</time>
</trkpt>
<trkpt lat="48.264488" lon="10.871156">
<ele>542.794</ele>
<time>2022-05-25T12:08:44Z</time>
</trkpt>
<trkpt lat="48.26445" lon="10.87111">
<ele>542.794</ele>
<time>2022-05-25T12:08:45Z</time>
</trkpt>
<trkpt lat="48.264416" lon="10.871065">
<ele>542.794</ele>
<time>2022-05-25T12:08:46Z</time>
</trkpt>
<trkpt lat="48.264378" lon="10.871021">
<ele>542.794</ele>
<time>2022-05-25T12:08:47Z</time>
</trkpt>
<trkpt lat="48.264343" lon="10.870982">
<ele>542.794</ele>
<time>2022-05-25T12:08:48Z</time>
</trkpt>
<trkpt lat="48.264305" lon="10.870942">
<ele>542.794</ele>
<time>2022-05-25T12:08:49Z</time>
</trkpt>
<trkpt lat="48.264275" lon="10.870903">
<ele>542.794</ele>
<time>2022-05-25T12:08:50Z</time>
</trkpt>
<trkpt lat="48.26424" lon="10.870867">
<ele>542.794</ele>
<time>2022-05-25T12:08:51Z</time>
</trkpt>
<trkpt lat="48.26421" lon="10.870835">
<ele>542.794</ele>
<time>2022-05-25T12:08:52Z</time>
</trkpt>
<trkpt lat="48.264175" lon="10.8708">
<ele>542.794</ele>
<time>2022-05-25T12:08:53Z</time>
</trkpt>
<trkpt lat="48.264145" lon="10.870769">
<ele>542.794</ele>
<time>2022-05-25T12:08:54Z</time>
</trkpt>
<trkpt lat="48.264114" lon="10.870735">
<ele>542.794</ele>
<time>2022-05-25T12:08:55Z</time>
</trkpt>
<trkpt lat="48.264084" lon="10.870702">
<ele>542.794</ele>
<time>2022-05-25T12:08:56Z</time>
</trkpt>
<trkpt lat="48.264053" lon="10.870668">
<ele>542.794</ele>
<time>2022-05-25T12:08:57Z</time>
</trkpt>
<trkpt lat="48.264019" lon="10.870635">
<ele>542.794</ele>
<time>2022-05-25T12:08:58Z</time>
</trkpt>
<trkpt lat="48.263985" lon="10.870601">
<ele>543.024</ele>
<time>2022-05-25T12:08:59Z</time>
</trkpt>
<trkpt lat="48.26395" lon="10.870565">
<ele>543.206</ele>
<time>2022-05-25T12:09:00Z</time>
</trkpt>
<trkpt lat="48.263912" lon="10.870532">
<ele>543.344</ele>
<time>2022-05-25T12:09:01Z</time>
</trkpt>
<trkpt lat="48.263874" lon="10.870498">
<ele>543.453</ele>
<time>2022-05-25T12:09:02Z</time>
</trkpt>
<trkpt lat="48.26384" lon="10.870462">
<ele>543.524</ele>
<time>2022-05-25T12:09:03Z</time>
</trkpt>
<trkpt lat="48.263805" lon="10.870428">
<ele>543.598</ele>
<time>2022-05-25T12:09:04Z</time>
</trkpt>
<trkpt lat="48.263767" lon="10.870395">
<ele>543.644</ele>
<time>2022-05-25T12:09:05Z</time>
</trkpt>
<trkpt lat="48.263729" lon="10.870363">
<ele>543.665</ele>
<time>2022-05-25T12:09:06Z</time>
</trkpt>
<trkpt lat="48.263687" lon="10.870333">
<ele>543.665</ele>
<time>2022-05-25T12:09:07Z</time>
</trkpt>
<trkpt lat="48.263649" lon="10.8703">
<ele>543.665</ele>
<time>2022-05-25T12:09:08Z</time>
</trkpt>
<trkpt lat="48.263611" lon="10.870267">
<ele>543.665</ele>
<time>2022-05-25T12:09:09Z</time>
</trkpt>
<trkpt lat="48.263577" lon="10.870234">
<ele>543.665</ele>
<time>2022-05-25T12:09:10Z</time>
</trkpt>
<trkpt lat="48.263535" lon="10.8702">
<ele>543.665</ele>
<time>2022-05-25T12:09:11Z</time>
</trkpt>
<trkpt lat="48.263496" lon="10.87017">
<ele>543.665</ele>
<time>2022-05-25T12:09:12Z</time>
</trkpt>
<trkpt lat="48.263454" lon="10.87014">
<ele>543.665</ele>
<time>2022-05-25T12:09:13Z</time>
</trkpt>
<trkpt lat="48.263416" lon="10.870107">
<ele>543.665</ele>
<time>2022-05-25T12:09:14Z</time>
</trkpt>
<trkpt lat="48.263371" lon="10.870079">
<ele>543.665</ele>
<time>2022-05-25T12:09:15Z</time>
</trkpt>
<trkpt lat="48.263329" lon="10.870047">
<ele>543.665</ele>
<time>2022-05-25T12:09:16Z</time>
</trkpt>
<trkpt lat="48.263287" lon="10.870018">
<ele>543.665</ele>
<time>2022-05-25T12:09:17Z</time>
</trkpt>
<trkpt lat="48.263245" lon="10.86999">
<ele>543.665</ele>
<time>2022-05-25T12:09:18Z</time>
</trkpt>
<trkpt lat="48.263203" lon="10.869964">
<ele>543.665</ele>
<time>2022-05-25T12:09:19Z</time>
</trkpt>
<trkpt lat="48.263161" lon="10.869941">
<ele>543.665</ele>
<time>2022-05-25T12:09:20Z</time>
</trkpt>
<trkpt lat="48.263119" lon="10.869913">
<ele>543.665</ele>
<time>2022-05-25T12:09:21Z</time>
</trkpt>
<trkpt lat="48.263073" lon="10.869884">
<ele>543.665</ele>
<time>2022-05-25T12:09:22Z</time>
</trkpt>
<trkpt lat="48.263023" lon="10.869857">
<ele>543.665</ele>
<time>2022-05-25T12:09:23Z</time>
</trkpt>
<trkpt lat="48.262981" lon="10.869832">
<ele>543.665</ele>
<time>2022-05-25T12:09:24Z</time>
</trkpt>
<trkpt lat="48.262936" lon="10.869804">
<ele>543.665</ele>
<time>2022-05-25T12:09:25Z</time>
</trkpt>
<trkpt lat="48.26289" lon="10.869779">
<ele>543.665</ele>
<time>2022-05-25T12:09:26Z</time>
</trkpt>
<trkpt lat="48.262844" lon="10.869754">
<ele>543.665</ele>
<time>2022-05-25T12:09:27Z</time>
</trkpt>
<trkpt lat="48.262798" lon="10.869729">
<ele>543.665</ele>
<time>2022-05-25T12:09:28Z</time>
</trkpt>
<trkpt lat="48.262756" lon="10.869706">
<ele>543.665</ele>
<time>2022-05-25T12:09:29Z</time>
</trkpt>
<trkpt lat="48.262714" lon="10.869681">
<ele>543.665</ele>
<time>2022-05-25T12:09:30Z</time>
</trkpt>
<trkpt lat="48.262672" lon="10.869658">
<ele>543.665</ele>
<time>2022-05-25T12:09:31Z</time>
</trkpt>
<trkpt lat="48.26263" lon="10.86964">
<ele>543.665</ele>
<time>2022-05-25T12:09:32Z</time>
</trkpt>
<trkpt lat="48.262589" lon="10.869622">
<ele>543.665</ele>
<time>2022-05-25T12:09:33Z</time>
</trkpt>
<trkpt lat="48.262539" lon="10.869601">
<ele>543.665</ele>
<time>2022-05-25T12:09:34Z</time>
</trkpt>
<trkpt lat="48.262497" lon="10.86958">
<ele>543.665</ele>
<time>2022-05-25T12:09:35Z</time>
</trkpt>
<trkpt lat="48.262451" lon="10.869559">
<ele>543.941</ele>
<time>2022-05-25T12:09:36Z</time>
</trkpt>
<trkpt lat="48.262405" lon="10.869538">
<ele>544.161</ele>
<time>2022-05-25T12:09:37Z</time>
</trkpt>
<trkpt lat="48.26236" lon="10.86952">
<ele>544.325</ele>
<time>2022-05-25T12:09:38Z</time>
</trkpt>
<trkpt lat="48.262314" lon="10.869503">
<ele>544.447</ele>
<time>2022-05-25T12:09:39Z</time>
</trkpt>
<trkpt lat="48.262272" lon="10.869485">
<ele>544.524</ele>
<time>2022-05-25T12:09:40Z</time>
</trkpt>
<trkpt lat="48.262226" lon="10.86947">
<ele>544.573</ele>
<time>2022-05-25T12:09:41Z</time>
</trkpt>
<trkpt lat="48.262184" lon="10.869454">
<ele>544.601</ele>
<time>2022-05-25T12:09:42Z</time>
</trkpt>
<trkpt lat="48.262142" lon="10.869438">
<ele>544.623</ele>
<time>2022-05-25T12:09:43Z</time>
</trkpt>
<trkpt lat="48.2621" lon="10.869421">
<ele>544.623</ele>
<time>2022-05-25T12:09:44Z</time>
</trkpt>
<trkpt lat="48.262054" lon="10.869407">
<ele>544.623</ele>
<time>2022-05-25T12:09:45Z</time>
</trkpt>
<trkpt lat="48.262012" lon="10.869393">
<ele>544.623</ele>
<time>2022-05-25T12:09:46Z</time>
</trkpt>
<trkpt lat="48.261967" lon="10.869379">
<ele>544.623</ele>
<time>2022-05-25T12:09:47Z</time>
</trkpt>
<trkpt lat="48.261921" lon="10.869363">
<ele>544.623</ele>
<time>2022-05-25T12:09:48Z</time>
</trkpt>
<trkpt lat="48.261879" lon="10.869349">
<ele>544.623</ele>
<time>2022-05-25T12:09:49Z</time>
</trkpt>
<trkpt lat="48.261833" lon="10.869338">
<ele>544.623</ele>
<time>2022-05-25T12:09:50Z</time>
</trkpt>
<trkpt lat="48.261787" lon="10.869327">
<ele>544.623</ele>
<time>2022-05-25T12:09:51Z</time>
</trkpt>
<trkpt lat="48.261745" lon="10.869316">
<ele>544.623</ele>
<time>2022-05-25T12:09:52Z</time>
</trkpt>
<trkpt lat="48.2617" lon="10.869308">
<ele>544.623</ele>
<time>2022-05-25T12:09:53Z</time>
</trkpt>
<trkpt lat="48.261658" lon="10.869298">
<ele>544.623</ele>
<time>2022-05-25T12:09:54Z</time>
</trkpt>
<trkpt lat="48.26162" lon="10.869291">
<ele>544.623</ele>
<time>2022-05-25T12:09:55Z</time>
</trkpt>
<trkpt lat="48.261578" lon="10.869285">
<ele>544.623</ele>
<time>2022-05-25T12:09:56Z</time>
</trkpt>
<trkpt lat="48.261539" lon="10.869277">
<ele>544.623</ele>
<time>2022-05-25T12:09:57Z</time>
</trkpt>
<trkpt lat="48.261497" lon="10.86927">
<ele>544.623</ele>
<time>2022-05-25T12:09:58Z</time>
</trkpt>
<trkpt lat="48.261463" lon="10.869262">
<ele>544.623</ele>
<time>2022-05-25T12:09:59Z</time>
</trkpt>
<trkpt lat="48.261425" lon="10.869257">
<ele>544.623</ele>
<time>2022-05-25T12:10:00Z</time>
</trkpt>
<trkpt lat="48.261387" lon="10.869251">
<ele>544.623</ele>
<time>2022-05-25T12:10:01Z</time>
</trkpt>
<trkpt lat="48.261345" lon="10.869246">
<ele>544.623</ele>
<time>2022-05-25T12:10:02Z</time>
</trkpt>
<trkpt lat="48.261303" lon="10.869244">
<ele>544.623</ele>
<time>2022-05-25T12:10:03Z</time>
</trkpt>
<trkpt lat="48.261265" lon="10.869241">
<ele>544.623</ele>
<time>2022-05-25T12:10:04Z</time>
</trkpt>
<trkpt lat="48.261223" lon="10.869239">
<ele>544.623</ele>
<time>2022-05-25T12:10:05Z</time>
</trkpt>
<trkpt lat="48.261177" lon="10.869237">
<ele>544.623</ele>
<time>2022-05-25T12:10:06Z</time>
</trkpt>
<trkpt lat="48.261135" lon="10.869235">
<ele>544.623</ele>
<time>2022-05-25T12:10:07Z</time>
</trkpt>
<trkpt lat="48.261093" lon="10.869233">
<ele>544.623</ele>
<time>2022-05-25T12:10:08Z</time>
</trkpt>
<trkpt lat="48.261047" lon="10.869232">
<ele>544.623</ele>
<time>2022-05-25T12:10:09Z</time>
</trkpt>
<trkpt lat="48.261002" lon="10.869232">
<ele>544.623</ele>
<time>2022-05-25T12:10:10Z</time>
</trkpt>
<trkpt lat="48.26096" lon="10.86923">
<ele>544.623</ele>
<time>2022-05-25T12:10:11Z</time>
</trkpt>
<trkpt lat="48.260914" lon="10.869228">
<ele>544.623</ele>
<time>2022-05-25T12:10:12Z</time>
</trkpt>
<trkpt lat="48.260872" lon="10.869226">
<ele>544.623</ele>
<time>2022-05-25T12:10:13Z</time>
</trkpt>
<trkpt lat="48.26083" lon="10.869224">
<ele>544.623</ele>
<time>2022-05-25T12:10:14Z</time>
</trkpt>
<trkpt lat="48.260784" lon="10.86922">
<ele>544.623</ele>
<time>2022-05-25T12:10:15Z</time>
</trkpt>
<trkpt lat="48.260742" lon="10.86922">
<ele>544.623</ele>
<time>2022-05-25T12:10:16Z</time>
</trkpt>
<trkpt lat="48.260693" lon="10.86922">
<ele>544.623</ele>
<time>2022-05-25T12:10:17Z</time>
</trkpt>
<trkpt lat="48.260647" lon="10.869218">
<ele>544.623</ele>
<time>2022-05-25T12:10:18Z</time>
</trkpt>
<trkpt lat="48.260601" lon="10.869216">
<ele>544.623</ele>
<time>2022-05-25T12:10:19Z</time>
</trkpt>
<trkpt lat="48.260555" lon="10.869215">
<ele>544.623</ele>
<time>2022-05-25T12:10:20Z</time>
</trkpt>
<trkpt lat="48.260513" lon="10.869211">
<ele>544.623</ele>
<time>2022-05-25T12:10:21Z</time>
</trkpt>
<trkpt lat="48.260464" lon="10.869211">
<ele>544.623</ele>
<time>2022-05-25T12:10:22Z</time>
</trkpt>
<trkpt lat="48.260418" lon="10.869209">
<ele>544.623</ele>
<time>2022-05-25T12:10:23Z</time>
</trkpt>
<trkpt lat="48.260376" lon="10.869208">
<ele>544.623</ele>
<time>2022-05-25T12:10:24Z</time>
</trkpt>
<trkpt lat="48.26033" lon="10.869207">
<ele>544.623</ele>
<time>2022-05-25T12:10:25Z</time>
</trkpt>
<trkpt lat="48.260284" lon="10.869204">
<ele>544.623</ele>
<time>2022-05-25T12:10:26Z</time>
</trkpt>
<trkpt lat="48.260242" lon="10.869202">
<ele>544.623</ele>
<time>2022-05-25T12:10:27Z</time>
</trkpt>
<trkpt lat="48.260201" lon="10.869199">
<ele>544.623</ele>
<time>2022-05-25T12:10:28Z</time>
</trkpt>
<trkpt lat="48.260155" lon="10.869197">
<ele>544.623</ele>
<time>2022-05-25T12:10:29Z</time>
</trkpt>
<trkpt lat="48.260117" lon="10.869197">
<ele>544.623</ele>
<time>2022-05-25T12:10:30Z</time>
</trkpt>
<trkpt lat="48.260078" lon="10.869195">
<ele>544.623</ele>
<time>2022-05-25T12:10:31Z</time>
</trkpt>
<trkpt lat="48.260033" lon="10.869195">
<ele>544.623</ele>
<time>2022-05-25T12:10:32Z</time>
</trkpt>
<trkpt lat="48.259991" lon="10.869195">
<ele>544.623</ele>
<time>2022-05-25T12:10:33Z</time>
</trkpt>
<trkpt lat="48.259945" lon="10.869192">
<ele>544.623</ele>
<time>2022-05-25T12:10:34Z</time>
</trkpt>
<trkpt lat="48.259899" lon="10.869188">
<ele>544.623</ele>
<time>2022-05-25T12:10:35Z</time>
</trkpt>
<trkpt lat="48.259857" lon="10.869184">
<ele>544.623</ele>
<time>2022-05-25T12:10:36Z</time>
</trkpt>
<trkpt lat="48.259811" lon="10.869182">
<ele>544.623</ele>
<time>2022-05-25T12:10:37Z</time>
</trkpt>
<trkpt lat="48.259766" lon="10.86918">
<ele>544.623</ele>
<time>2022-05-25T12:10:38Z</time>
</trkpt>
<trkpt lat="48.259724" lon="10.86918">
<ele>544.623</ele>
<time>2022-05-25T12:10:39Z</time>
</trkpt>
<trkpt lat="48.259678" lon="10.869178">
<ele>544.623</ele>
<time>2022-05-25T12:10:40Z</time>
</trkpt>
<trkpt lat="48.259632" lon="10.869176">
<ele>544.623</ele>
<time>2022-05-25T12:10:41Z</time>
</trkpt>
<trkpt lat="48.25959" lon="10.869174">
<ele>544.623</ele>
<time>2022-05-25T12:10:42Z</time>
</trkpt>
<trkpt lat="48.259548" lon="10.86917">
<ele>544.623</ele>
<time>2022-05-25T12:10:43Z</time>
</trkpt>
<trkpt lat="48.25951" lon="10.869168">
<ele>544.623</ele>
<time>2022-05-25T12:10:44Z</time>
</trkpt>
<trkpt lat="48.259468" lon="10.869165">
<ele>544.623</ele>
<time>2022-05-25T12:10:45Z</time>
</trkpt>
<trkpt lat="48.25943" lon="10.869164">
<ele>544.623</ele>
<time>2022-05-25T12:10:46Z</time>
</trkpt>
<trkpt lat="48.259392" lon="10.869162">
<ele>544.623</ele>
<time>2022-05-25T12:10:47Z</time>
</trkpt>
<trkpt lat="48.259354" lon="10.869164">
<ele>544.623</ele>
<time>2022-05-25T12:10:48Z</time>
</trkpt>
<trkpt lat="48.259315" lon="10.869164">
<ele>544.623</ele>
<time>2022-05-25T12:10:49Z</time>
</trkpt>
<trkpt lat="48.259274" lon="10.869165">
<ele>544.623</ele>
<time>2022-05-25T12:10:50Z</time>
</trkpt>
<trkpt lat="48.259239" lon="10.869165">
<ele>544.623</ele>
<time>2022-05-25T12:10:51Z</time>
</trkpt>
<trkpt lat="48.259193" lon="10.869164">
<ele>544.623</ele>
<time>2022-05-25T12:10:52Z</time>
</trkpt>
<trkpt lat="48.259155" lon="10.86916">
<ele>544.623</ele>
<time>2022-05-25T12:10:53Z</time>
</trkpt>
<trkpt lat="48.259113" lon="10.869159">
<ele>544.623</ele>
<time>2022-05-25T12:10:54Z</time>
</trkpt>
<trkpt lat="48.259075" lon="10.869157">
<ele>544.623</ele>
<time>2022-05-25T12:10:55Z</time>
</trkpt>
<trkpt lat="48.259037" lon="10.869153">
<ele>544.623</ele>
<time>2022-05-25T12:10:56Z</time>
</trkpt>
<trkpt lat="48.258995" lon="10.869148">
<ele>544.623</ele>
<time>2022-05-25T12:10:57Z</time>
</trkpt>
<trkpt lat="48.258953" lon="10.869143">
<ele>544.623</ele>
<time>2022-05-25T12:10:58Z</time>
</trkpt>
<trkpt lat="48.258915" lon="10.869139">
<ele>544.623</ele>
<time>2022-05-25T12:10:59Z</time>
</trkpt>
<trkpt lat="48.258881" lon="10.869132">
<ele>544.623</ele>
<time>2022-05-25T12:11:00Z</time>
</trkpt>
<trkpt lat="48.258846" lon="10.869128">
<ele>544.623</ele>
<time>2022-05-25T12:11:01Z</time>
</trkpt>
<trkpt lat="48.258808" lon="10.869123">
<ele>544.623</ele>
<time>2022-05-25T12:11:02Z</time>
</trkpt>
<trkpt lat="48.258774" lon="10.869119">
<ele>544.623</ele>
<time>2022-05-25T12:11:03Z</time>
</trkpt>
<trkpt lat="48.258739" lon="10.869113">
<ele>544.623</ele>
<time>2022-05-25T12:11:04Z</time>
</trkpt>
<trkpt lat="48.258705" lon="10.869106">
<ele>544.623</ele>
<time>2022-05-25T12:11:05Z</time>
</trkpt>
<trkpt lat="48.258671" lon="10.869097">
<ele>544.623</ele>
<time>2022-05-25T12:11:06Z</time>
</trkpt>
<trkpt lat="48.258636" lon="10.869088">
<ele>544.623</ele>
<time>2022-05-25T12:11:07Z</time>
</trkpt>
<trkpt lat="48.258598" lon="10.869078">
<ele>544.623</ele>
<time>2022-05-25T12:11:08Z</time>
</trkpt>
<trkpt lat="48.25856" lon="10.869065">
<ele>544.623</ele>
<time>2022-05-25T12:11:09Z</time>
</trkpt>
<trkpt lat="48.258522" lon="10.869055">
<ele>544.623</ele>
<time>2022-05-25T12:11:10Z</time>
</trkpt>
<trkpt lat="48.258476" lon="10.869043">
<ele>544.623</ele>
<time>2022-05-25T12:11:11Z</time>
</trkpt>
<trkpt lat="48.25843" lon="10.86903">
<ele>544.623</ele>
<time>2022-05-25T12:11:12Z</time>
</trkpt>
<trkpt lat="48.258385" lon="10.869019">
<ele>544.623</ele>
<time>2022-05-25T12:11:13Z</time>
</trkpt>
<trkpt lat="48.258335" lon="10.869004">
<ele>544.623</ele>
<time>2022-05-25T12:11:14Z</time>
</trkpt>
<trkpt lat="48.258286" lon="10.86899">
<ele>544.623</ele>
<time>2022-05-25T12:11:15Z</time>
</trkpt>
<trkpt lat="48.258232" lon="10.868973">
<ele>544.623</ele>
<time>2022-05-25T12:11:16Z</time>
</trkpt>
<trkpt lat="48.258183" lon="10.868962">
<ele>544.623</ele>
<time>2022-05-25T12:11:17Z</time>
</trkpt>
<trkpt lat="48.258137" lon="10.868958">
<ele>544.623</ele>
<time>2022-05-25T12:11:18Z</time>
</trkpt>
<trkpt lat="48.258095" lon="10.868958">
<ele>544.623</ele>
<time>2022-05-25T12:11:19Z</time>
</trkpt>
<trkpt lat="48.258053" lon="10.868968">
<ele>544.623</ele>
<time>2022-05-25T12:11:20Z</time>
</trkpt>
<trkpt lat="48.258015" lon="10.868996">
<ele>544.623</ele>
<time>2022-05-25T12:11:21Z</time>
</trkpt>
<trkpt lat="48.25798" lon="10.869021">
<ele>544.623</ele>
<time>2022-05-25T12:11:22Z</time>
</trkpt>
<trkpt lat="48.257942" lon="10.86905">
<ele>544.623</ele>
<time>2022-05-25T12:11:23Z</time>
</trkpt>
<trkpt lat="48.257908" lon="10.869075">
<ele>544.623</ele>
<time>2022-05-25T12:11:24Z</time>
</trkpt>
<trkpt lat="48.257874" lon="10.869101">
<ele>544.623</ele>
<time>2022-05-25T12:11:25Z</time>
</trkpt>
<trkpt lat="48.257843" lon="10.869134">
<ele>544.623</ele>
<time>2022-05-25T12:11:26Z</time>
</trkpt>
<trkpt lat="48.257824" lon="10.869175">
<ele>544.623</ele>
<time>2022-05-25T12:11:27Z</time>
</trkpt>
<trkpt lat="48.257809" lon="10.869226">
<ele>544.623</ele>
<time>2022-05-25T12:11:28Z</time>
</trkpt>
<trkpt lat="48.257797" lon="10.869287">
<ele>544.623</ele>
<time>2022-05-25T12:11:29Z</time>
</trkpt>
<trkpt lat="48.257786" lon="10.869349">
<ele>544.623</ele>
<time>2022-05-25T12:11:30Z</time>
</trkpt>
<trkpt lat="48.257774" lon="10.869421">
<ele>544.623</ele>
<time>2022-05-25T12:11:31Z</time>
</trkpt>
<trkpt lat="48.257755" lon="10.869492">
<ele>544.623</ele>
<time>2022-05-25T12:11:32Z</time>
</trkpt>
<trkpt lat="48.257744" lon="10.869567">
<ele>544.623</ele>
<time>2022-05-25T12:11:33Z</time>
</trkpt>
<trkpt lat="48.257729" lon="10.86964">
<ele>544.623</ele>
<time>2022-05-25T12:11:34Z</time>
</trkpt>
<trkpt lat="48.257713" lon="10.869714">
<ele>544.623</ele>
<time>2022-05-25T12:11:35Z</time>
</trkpt>
<trkpt lat="48.257694" lon="10.869785">
<ele>544.623</ele>
<time>2022-05-25T12:11:36Z</time>
</trkpt>
<trkpt lat="48.257679" lon="10.86986">
<ele>544.623</ele>
<time>2022-05-25T12:11:37Z</time>
</trkpt>
<trkpt lat="48.257668" lon="10.86993">
<ele>544.623</ele>
<time>2022-05-25T12:11:38Z</time>
</trkpt>
<trkpt lat="48.257652" lon="10.869999">
<ele>544.623</ele>
<time>2022-05-25T12:11:39Z</time>
</trkpt>
<trkpt lat="48.257637" lon="10.870069">
<ele>544.623</ele>
<time>2022-05-25T12:11:40Z</time>
</trkpt>
<trkpt lat="48.257618" lon="10.870138">
<ele>544.623</ele>
<time>2022-05-25T12:11:41Z</time>
</trkpt>
<trkpt lat="48.257603" lon="10.870209">
<ele>544.623</ele>
<time>2022-05-25T12:11:42Z</time>
</trkpt>
<trkpt lat="48.257587" lon="10.870275">
<ele>544.854</ele>
<time>2022-05-25T12:11:43Z</time>
</trkpt>
<trkpt lat="48.257572" lon="10.870347">
<ele>545.072</ele>
<time>2022-05-25T12:11:44Z</time>
</trkpt>
<trkpt lat="48.257549" lon="10.87042">
<ele>545.255</ele>
<time>2022-05-25T12:11:45Z</time>
</trkpt>
<trkpt lat="48.257538" lon="10.870492">
<ele>545.403</ele>
<time>2022-05-25T12:11:46Z</time>
</trkpt>
<trkpt lat="48.257519" lon="10.870565">
<ele>545.514</ele>
<time>2022-05-25T12:11:47Z</time>
</trkpt>
<trkpt lat="48.257507" lon="10.870635">
<ele>545.593</ele>
<time>2022-05-25T12:11:48Z</time>
</trkpt>
<trkpt lat="48.257492" lon="10.870708">
<ele>545.644</ele>
<time>2022-05-25T12:11:49Z</time>
</trkpt>
<trkpt lat="48.257473" lon="10.87078">
<ele>545.668</ele>
<time>2022-05-25T12:11:50Z</time>
</trkpt>
<trkpt lat="48.257454" lon="10.870852">
<ele>545.669</ele>
<time>2022-05-25T12:11:51Z</time>
</trkpt>
<trkpt lat="48.257439" lon="10.870923">
<ele>545.669</ele>
<time>2022-05-25T12:11:52Z</time>
</trkpt>
<trkpt lat="48.257423" lon="10.870998">
<ele>545.669</ele>
<time>2022-05-25T12:11:53Z</time>
</trkpt>
<trkpt lat="48.257408" lon="10.871074">
<ele>545.668</ele>
<time>2022-05-25T12:11:54Z</time>
</trkpt>
<trkpt lat="48.257393" lon="10.871147">
<ele>545.668</ele>
<time>2022-05-25T12:11:55Z</time>
</trkpt>
<trkpt lat="48.257381" lon="10.871219">
<ele>545.668</ele>
<time>2022-05-25T12:11:56Z</time>
</trkpt>
<trkpt lat="48.257366" lon="10.87129">
<ele>545.669</ele>
<time>2022-05-25T12:11:57Z</time>
</trkpt>
<trkpt lat="48.257351" lon="10.87136">
<ele>545.668</ele>
<time>2022-05-25T12:11:58Z</time>
</trkpt>
<trkpt lat="48.257336" lon="10.87143">
<ele>545.669</ele>
<time>2022-05-25T12:11:59Z</time>
</trkpt>
<trkpt lat="48.257317" lon="10.871498">
<ele>545.668</ele>
<time>2022-05-25T12:12:00Z</time>
</trkpt>
<trkpt lat="48.257305" lon="10.871567">
<ele>545.669</ele>
<time>2022-05-25T12:12:01Z</time>
</trkpt>
<trkpt lat="48.257286" lon="10.871634">
<ele>545.669</ele>
<time>2022-05-25T12:12:02Z</time>
</trkpt>
<trkpt lat="48.257271" lon="10.871703">
<ele>545.668</ele>
<time>2022-05-25T12:12:03Z</time>
</trkpt>
<trkpt lat="48.257252" lon="10.871774">
<ele>545.669</ele>
<time>2022-05-25T12:12:04Z</time>
</trkpt>
<trkpt lat="48.25724" lon="10.871841">
<ele>545.668</ele>
<time>2022-05-25T12:12:05Z</time>
</trkpt>
<trkpt lat="48.257221" lon="10.87191">
<ele>545.669</ele>
<time>2022-05-25T12:12:06Z</time>
</trkpt>
<trkpt lat="48.25721" lon="10.871977">
<ele>545.668</ele>
<time>2022-05-25T12:12:07Z</time>
</trkpt>
<trkpt lat="48.257191" lon="10.87204">
<ele>545.669</ele>
<time>2022-05-25T12:12:08Z</time>
</trkpt>
<trkpt lat="48.257175" lon="10.872103">
<ele>545.669</ele>
<time>2022-05-25T12:12:09Z</time>
</trkpt>
<trkpt lat="48.25716" lon="10.872167">
<ele>545.669</ele>
<time>2022-05-25T12:12:10Z</time>
</trkpt>
<trkpt lat="48.257145" lon="10.872231">
<ele>545.669</ele>
<time>2022-05-25T12:12:11Z</time>
</trkpt>
<trkpt lat="48.257126" lon="10.87229">
<ele>545.669</ele>
<time>2022-05-25T12:12:12Z</time>
</trkpt>
<trkpt lat="48.257111" lon="10.87235">
<ele>545.669</ele>
<time>2022-05-25T12:12:13Z</time>
</trkpt>
<trkpt lat="48.257095" lon="10.872409">
<ele>545.669</ele>
<time>2022-05-25T12:12:14Z</time>
</trkpt>
<trkpt lat="48.257084" lon="10.872465">
<ele>545.669</ele>
<time>2022-05-25T12:12:15Z</time>
</trkpt>
<trkpt lat="48.257072" lon="10.872519">
<ele>545.669</ele>
<time>2022-05-25T12:12:16Z</time>
</trkpt>
<trkpt lat="48.257057" lon="10.87257">
<ele>545.669</ele>
<time>2022-05-25T12:12:17Z</time>
</trkpt>
<trkpt lat="48.25705" lon="10.872619">
<ele>545.669</ele>
<time>2022-05-25T12:12:18Z</time>
</trkpt>
<trkpt lat="48.257038" lon="10.872663">
<ele>545.669</ele>
<time>2022-05-25T12:12:19Z</time>
</trkpt>
<trkpt lat="48.25703" lon="10.87271">
<ele>545.669</ele>
<time>2022-05-25T12:12:20Z</time>
</trkpt>
<trkpt lat="48.257023" lon="10.872762">
<ele>545.669</ele>
<time>2022-05-25T12:12:21Z</time>
</trkpt>
<trkpt lat="48.257011" lon="10.872815">
<ele>545.668</ele>
<time>2022-05-25T12:12:22Z</time>
</trkpt>
<trkpt lat="48.257" lon="10.872869">
<ele>545.669</ele>
<time>2022-05-25T12:12:23Z</time>
</trkpt>
<trkpt lat="48.256992" lon="10.872929">
<ele>545.669</ele>
<time>2022-05-25T12:12:24Z</time>
</trkpt>
<trkpt lat="48.256981" lon="10.872989">
<ele>545.668</ele>
<time>2022-05-25T12:12:25Z</time>
</trkpt>
<trkpt lat="48.256969" lon="10.873045">
<ele>545.669</ele>
<time>2022-05-25T12:12:26Z</time>
</trkpt>
<trkpt lat="48.256958" lon="10.873098">
<ele>545.669</ele>
<time>2022-05-25T12:12:27Z</time>
</trkpt>
<trkpt lat="48.256947" lon="10.873144">
<ele>545.669</ele>
<time>2022-05-25T12:12:28Z</time>
</trkpt>
<trkpt lat="48.256935" lon="10.87319">
<ele>545.669</ele>
<time>2022-05-25T12:12:29Z</time>
</trkpt>
<trkpt lat="48.256927" lon="10.873235">
<ele>545.668</ele>
<time>2022-05-25T12:12:30Z</time>
</trkpt>
<trkpt lat="48.25692" lon="10.873279">
<ele>545.669</ele>
<time>2022-05-25T12:12:31Z</time>
</trkpt>
<trkpt lat="48.256912" lon="10.873314">
<ele>545.669</ele>
<time>2022-05-25T12:12:32Z</time>
</trkpt>
<trkpt lat="48.256901" lon="10.873347">
<ele>545.669</ele>
<time>2022-05-25T12:12:33Z</time>
</trkpt>
<trkpt lat="48.256893" lon="10.873379">
<ele>545.669</ele>
<time>2022-05-25T12:12:34Z</time>
</trkpt>
<trkpt lat="48.256889" lon="10.873412">
<ele>545.668</ele>
<time>2022-05-25T12:12:35Z</time>
</trkpt>
<trkpt lat="48.256878" lon="10.87345">
<ele>545.669</ele>
<time>2022-05-25T12:12:36Z</time>
</trkpt>
<trkpt lat="48.256863" lon="10.873498">
<ele>545.669</ele>
<time>2022-05-25T12:12:37Z</time>
</trkpt>
<trkpt lat="48.256851" lon="10.873544">
<ele>545.669</ele>
<time>2022-05-25T12:12:38Z</time>
</trkpt>
<trkpt lat="48.256836" lon="10.873592">
<ele>545.669</ele>
<time>2022-05-25T12:12:39Z</time>
</trkpt>
<trkpt lat="48.256828" lon="10.87364">
<ele>545.669</ele>
<time>2022-05-25T12:12:40Z</time>
</trkpt>
<trkpt lat="48.256824" lon="10.873687">
<ele>545.669</ele>
<time>2022-05-25T12:12:41Z</time>
</trkpt>
<trkpt lat="48.256813" lon="10.873734">
<ele>545.669</ele>
<time>2022-05-25T12:12:42Z</time>
</trkpt>
<trkpt lat="48.256798" lon="10.873789">
<ele>545.669</ele>
<time>2022-05-25T12:12:43Z</time>
</trkpt>
<trkpt lat="48.256786" lon="10.87385">
<ele>545.669</ele>
<time>2022-05-25T12:12:44Z</time>
</trkpt>
<trkpt lat="48.256767" lon="10.873917">
<ele>545.668</ele>
<time>2022-05-25T12:12:45Z</time>
</trkpt>
<trkpt lat="48.256752" lon="10.873981">
<ele>545.668</ele>
<time>2022-05-25T12:12:46Z</time>
</trkpt>
<trkpt lat="48.256733" lon="10.874045">
<ele>545.669</ele>
<time>2022-05-25T12:12:47Z</time>
</trkpt>
<trkpt lat="48.256714" lon="10.874102">
<ele>545.669</ele>
<time>2022-05-25T12:12:48Z</time>
</trkpt>
<trkpt lat="48.256699" lon="10.874166">
<ele>545.669</ele>
<time>2022-05-25T12:12:49Z</time>
</trkpt>
<trkpt lat="48.256676" lon="10.874237">
<ele>545.669</ele>
<time>2022-05-25T12:12:50Z</time>
</trkpt>
<trkpt lat="48.256653" lon="10.874307">
<ele>545.669</ele>
<time>2022-05-25T12:12:51Z</time>
</trkpt>
<trkpt lat="48.256626" lon="10.874384">
<ele>545.669</ele>
<time>2022-05-25T12:12:52Z</time>
</trkpt>
<trkpt lat="48.256603" lon="10.874456">
<ele>545.669</ele>
<time>2022-05-25T12:12:53Z</time>
</trkpt>
<trkpt lat="48.256577" lon="10.874532">
<ele>545.668</ele>
<time>2022-05-25T12:12:54Z</time>
</trkpt>
<trkpt lat="48.25655" lon="10.874606">
<ele>545.668</ele>
<time>2022-05-25T12:12:55Z</time>
</trkpt>
<trkpt lat="48.256523" lon="10.87468">
<ele>545.669</ele>
<time>2022-05-25T12:12:56Z</time>
</trkpt>
<trkpt lat="48.256496" lon="10.874755">
<ele>545.668</ele>
<time>2022-05-25T12:12:57Z</time>
</trkpt>
<trkpt lat="48.25647" lon="10.874826">
<ele>545.669</ele>
<time>2022-05-25T12:12:58Z</time>
</trkpt>
<trkpt lat="48.256443" lon="10.874898">
<ele>545.669</ele>
<time>2022-05-25T12:12:59Z</time>
</trkpt>
<trkpt lat="48.256416" lon="10.874967">
<ele>545.669</ele>
<time>2022-05-25T12:13:00Z</time>
</trkpt>
<trkpt lat="48.256393" lon="10.875033">
<ele>545.669</ele>
<time>2022-05-25T12:13:01Z</time>
</trkpt>
<trkpt lat="48.256367" lon="10.875098">
<ele>545.669</ele>
<time>2022-05-25T12:13:02Z</time>
</trkpt>
<trkpt lat="48.25634" lon="10.875163">
<ele>545.669</ele>
<time>2022-05-25T12:13:03Z</time>
</trkpt>
<trkpt lat="48.25631" lon="10.875225">
<ele>545.669</ele>
<time>2022-05-25T12:13:04Z</time>
</trkpt>
<trkpt lat="48.256279" lon="10.875285">
<ele>545.668</ele>
<time>2022-05-25T12:13:05Z</time>
</trkpt>
<trkpt lat="48.256252" lon="10.875346">
<ele>545.669</ele>
<time>2022-05-25T12:13:06Z</time>
</trkpt>
<trkpt lat="48.256222" lon="10.875411">
<ele>545.668</ele>
<time>2022-05-25T12:13:07Z</time>
</trkpt>
<trkpt lat="48.256195" lon="10.875476">
<ele>545.668</ele>
<time>2022-05-25T12:13:08Z</time>
</trkpt>
<trkpt lat="48.256165" lon="10.875542">
<ele>545.669</ele>
<time>2022-05-25T12:13:09Z</time>
</trkpt>
<trkpt lat="48.256138" lon="10.875607">
<ele>545.669</ele>
<time>2022-05-25T12:13:10Z</time>
</trkpt>
<trkpt lat="48.256107" lon="10.87567">
<ele>545.668</ele>
<time>2022-05-25T12:13:11Z</time>
</trkpt>
<trkpt lat="48.256081" lon="10.875735">
<ele>545.669</ele>
<time>2022-05-25T12:13:12Z</time>
</trkpt>
<trkpt lat="48.25605" lon="10.875794">
<ele>545.668</ele>
<time>2022-05-25T12:13:13Z</time>
</trkpt>
<trkpt lat="48.25602" lon="10.875857">
<ele>545.669</ele>
<time>2022-05-25T12:13:14Z</time>
</trkpt>
<trkpt lat="48.255989" lon="10.875918">
<ele>545.668</ele>
<time>2022-05-25T12:13:15Z</time>
</trkpt>
<trkpt lat="48.255962" lon="10.875973">
<ele>545.669</ele>
<time>2022-05-25T12:13:16Z</time>
</trkpt>
<trkpt lat="48.255939" lon="10.876029">
<ele>545.669</ele>
<time>2022-05-25T12:13:17Z</time>
</trkpt>
<trkpt lat="48.255917" lon="10.876085">
<ele>545.669</ele>
<time>2022-05-25T12:13:18Z</time>
</trkpt>
<trkpt lat="48.255882" lon="10.87614">
<ele>545.669</ele>
<time>2022-05-25T12:13:19Z</time>
</trkpt>
<trkpt lat="48.255852" lon="10.876195">
<ele>545.668</ele>
<time>2022-05-25T12:13:20Z</time>
</trkpt>
<trkpt lat="48.255825" lon="10.876251">
<ele>545.668</ele>
<time>2022-05-25T12:13:21Z</time>
</trkpt>
<trkpt lat="48.255798" lon="10.876308">
<ele>545.669</ele>
<time>2022-05-25T12:13:22Z</time>
</trkpt>
<trkpt lat="48.255772" lon="10.876362">
<ele>545.668</ele>
<time>2022-05-25T12:13:23Z</time>
</trkpt>
<trkpt lat="48.255741" lon="10.876413">
<ele>545.668</ele>
<time>2022-05-25T12:13:24Z</time>
</trkpt>
<trkpt lat="48.255714" lon="10.876469">
<ele>545.668</ele>
<time>2022-05-25T12:13:25Z</time>
</trkpt>
<trkpt lat="48.255684" lon="10.876519">
<ele>545.669</ele>
<time>2022-05-25T12:13:26Z</time>
</trkpt>
<trkpt lat="48.255653" lon="10.876574">
<ele>545.668</ele>
<time>2022-05-25T12:13:27Z</time>
</trkpt>
<trkpt lat="48.255623" lon="10.87663">
<ele>545.669</ele>
<time>2022-05-25T12:13:28Z</time>
</trkpt>
<trkpt lat="48.255589" lon="10.876687">
<ele>545.669</ele>
<time>2022-05-25T12:13:29Z</time>
</trkpt>
<trkpt lat="48.255558" lon="10.87674">
<ele>545.669</ele>
<time>2022-05-25T12:13:30Z</time>
</trkpt>
<trkpt lat="48.255531" lon="10.876797">
<ele>545.669</ele>
<time>2022-05-25T12:13:31Z</time>
</trkpt>
<trkpt lat="48.255501" lon="10.87685">
<ele>545.669</ele>
<time>2022-05-25T12:13:32Z</time>
</trkpt>
<trkpt lat="48.255474" lon="10.876902">
<ele>545.668</ele>
<time>2022-05-25T12:13:33Z</time>
</trkpt>
<trkpt lat="48.255444" lon="10.876955">
<ele>545.669</ele>
<time>2022-05-25T12:13:34Z</time>
</trkpt>
<trkpt lat="48.255417" lon="10.877006">
<ele>545.669</ele>
<time>2022-05-25T12:13:35Z</time>
</trkpt>
<trkpt lat="48.255386" lon="10.877053">
<ele>545.668</ele>
<time>2022-05-25T12:13:36Z</time>
</trkpt>
<trkpt lat="48.25536" lon="10.8771">
<ele>545.669</ele>
<time>2022-05-25T12:13:37Z</time>
</trkpt>
<trkpt lat="48.255325" lon="10.877147">
<ele>545.669</ele>
<time>2022-05-25T12:13:38Z</time>
</trkpt>
<trkpt lat="48.255295" lon="10.877193">
<ele>545.669</ele>
<time>2022-05-25T12:13:39Z</time>
</trkpt>
<trkpt lat="48.25526" lon="10.87724">
<ele>545.669</ele>
<time>2022-05-25T12:13:40Z</time>
</trkpt>
<trkpt lat="48.25523" lon="10.87729">
<ele>545.669</ele>
<time>2022-05-25T12:13:41Z</time>
</trkpt>
<trkpt lat="48.255199" lon="10.877338">
<ele>545.668</ele>
<time>2022-05-25T12:13:42Z</time>
</trkpt>
<trkpt lat="48.255173" lon="10.877378">
<ele>545.669</ele>
<time>2022-05-25T12:13:43Z</time>
</trkpt>
<trkpt lat="48.255142" lon="10.87742">
<ele>545.669</ele>
<time>2022-05-25T12:13:44Z</time>
</trkpt>
<trkpt lat="48.255108" lon="10.877461">
<ele>545.668</ele>
<time>2022-05-25T12:13:45Z</time>
</trkpt>
<trkpt lat="48.255081" lon="10.877498">
<ele>545.669</ele>
<time>2022-05-25T12:13:46Z</time>
</trkpt>
<trkpt lat="48.255051" lon="10.877537">
<ele>545.669</ele>
<time>2022-05-25T12:13:47Z</time>
</trkpt>
<trkpt lat="48.255024" lon="10.877568">
<ele>545.896</ele>
<time>2022-05-25T12:13:48Z</time>
</trkpt>
<trkpt lat="48.254997" lon="10.877597">
<ele>546.079</ele>
<time>2022-05-25T12:13:49Z</time>
</trkpt>
<trkpt lat="48.254971" lon="10.877625">
<ele>546.218</ele>
<time>2022-05-25T12:13:50Z</time>
</trkpt>
<trkpt lat="48.25494" lon="10.87766">
<ele>546.325</ele>
<time>2022-05-25T12:13:51Z</time>
</trkpt>
<trkpt lat="48.254913" lon="10.877695">
<ele>546.402</ele>
<time>2022-05-25T12:13:52Z</time>
</trkpt>
<trkpt lat="48.254887" lon="10.87773">
<ele>546.461</ele>
<time>2022-05-25T12:13:53Z</time>
</trkpt>
<trkpt lat="48.254864" lon="10.877766">
<ele>546.515</ele>
<time>2022-05-25T12:13:54Z</time>
</trkpt>
<trkpt lat="48.254837" lon="10.877804">
<ele>546.54</ele>
<time>2022-05-25T12:13:55Z</time>
</trkpt>
<trkpt lat="48.254807" lon="10.877851">
<ele>546.54</ele>
<time>2022-05-25T12:13:56Z</time>
</trkpt>
<trkpt lat="48.254776" lon="10.8779">
<ele>546.54</ele>
<time>2022-05-25T12:13:57Z</time>
</trkpt>
<trkpt lat="48.254749" lon="10.877948">
<ele>546.54</ele>
<time>2022-05-25T12:13:58Z</time>
</trkpt>
<trkpt lat="48.254723" lon="10.877996">
<ele>546.54</ele>
<time>2022-05-25T12:13:59Z</time>
</trkpt>
<trkpt lat="48.254696" lon="10.878043">
<ele>546.54</ele>
<time>2022-05-25T12:14:00Z</time>
</trkpt>
<trkpt lat="48.254662" lon="10.878092">
<ele>546.54</ele>
<time>2022-05-25T12:14:01Z</time>
</trkpt>
<trkpt lat="48.25462" lon="10.878139">
<ele>546.54</ele>
<time>2022-05-25T12:14:02Z</time>
</trkpt>
<trkpt lat="48.254578" lon="10.878191">
<ele>546.54</ele>
<time>2022-05-25T12:14:03Z</time>
</trkpt>
<trkpt lat="48.254536" lon="10.878252">
<ele>546.54</ele>
<time>2022-05-25T12:14:04Z</time>
</trkpt>
<trkpt lat="48.254494" lon="10.878312">
<ele>546.54</ele>
<time>2022-05-25T12:14:05Z</time>
</trkpt>
<trkpt lat="48.254452" lon="10.878371">
<ele>546.54</ele>
<time>2022-05-25T12:14:06Z</time>
</trkpt>
<trkpt lat="48.254414" lon="10.878434">
<ele>546.54</ele>
<time>2022-05-25T12:14:07Z</time>
</trkpt>
<trkpt lat="48.254372" lon="10.878493">
<ele>546.54</ele>
<time>2022-05-25T12:14:08Z</time>
</trkpt>
<trkpt lat="48.25433" lon="10.87855">
<ele>546.54</ele>
<time>2022-05-25T12:14:09Z</time>
</trkpt>
<trkpt lat="48.254292" lon="10.878608">
<ele>546.54</ele>
<time>2022-05-25T12:14:10Z</time>
</trkpt>
<trkpt lat="48.254253" lon="10.878665">
<ele>546.54</ele>
<time>2022-05-25T12:14:11Z</time>
</trkpt>
<trkpt lat="48.254219" lon="10.878721">
<ele>546.54</ele>
<time>2022-05-25T12:14:12Z</time>
</trkpt>
<trkpt lat="48.254181" lon="10.878782">
<ele>546.54</ele>
<time>2022-05-25T12:14:13Z</time>
</trkpt>
<trkpt lat="48.254143" lon="10.878835">
<ele>546.54</ele>
<time>2022-05-25T12:14:14Z</time>
</trkpt>
<trkpt lat="48.254105" lon="10.878886">
<ele>546.54</ele>
<time>2022-05-25T12:14:15Z</time>
</trkpt>
<trkpt lat="48.25407" lon="10.878937">
<ele>546.54</ele>
<time>2022-05-25T12:14:16Z</time>
</trkpt>
<trkpt lat="48.25404" lon="10.878987">
<ele>546.54</ele>
<time>2022-05-25T12:14:17Z</time>
</trkpt>
<trkpt lat="48.254002" lon="10.879038">
<ele>546.54</ele>
<time>2022-05-25T12:14:18Z</time>
</trkpt>
<trkpt lat="48.253971" lon="10.879086">
<ele>546.54</ele>
<time>2022-05-25T12:14:19Z</time>
</trkpt>
<trkpt lat="48.253941" lon="10.879133">
<ele>546.54</ele>
<time>2022-05-25T12:14:21Z</time>
</trkpt>
<trkpt lat="48.25388" lon="10.879229">
<ele>546.54</ele>
<time>2022-05-25T12:14:22Z</time>
</trkpt>
<trkpt lat="48.253849" lon="10.879274">
<ele>546.54</ele>
<time>2022-05-25T12:14:23Z</time>
</trkpt>
<trkpt lat="48.253822" lon="10.879325">
<ele>546.54</ele>
<time>2022-05-25T12:14:24Z</time>
</trkpt>
<trkpt lat="48.253792" lon="10.879372">
<ele>546.54</ele>
<time>2022-05-25T12:14:25Z</time>
</trkpt>
<trkpt lat="48.253765" lon="10.879416">
<ele>546.54</ele>
<time>2022-05-25T12:14:26Z</time>
</trkpt>
<trkpt lat="48.253735" lon="10.879463">
<ele>546.54</ele>
<time>2022-05-25T12:14:27Z</time>
</trkpt>
<trkpt lat="48.253708" lon="10.879509">
<ele>546.54</ele>
<time>2022-05-25T12:14:28Z</time>
</trkpt>
<trkpt lat="48.253681" lon="10.879555">
<ele>546.54</ele>
<time>2022-05-25T12:14:29Z</time>
</trkpt>
<trkpt lat="48.253651" lon="10.879607">
<ele>546.54</ele>
<time>2022-05-25T12:14:30Z</time>
</trkpt>
<trkpt lat="48.25362" lon="10.87966">
<ele>546.32</ele>
<time>2022-05-25T12:14:31Z</time>
</trkpt>
<trkpt lat="48.25359" lon="10.879712">
<ele>546.146</ele>
<time>2022-05-25T12:14:32Z</time>
</trkpt>
<trkpt lat="48.253559" lon="10.879762">
<ele>546.025</ele>
<time>2022-05-25T12:14:33Z</time>
</trkpt>
<trkpt lat="48.253536" lon="10.879808">
<ele>545.897</ele>
<time>2022-05-25T12:14:34Z</time>
</trkpt>
<trkpt lat="48.253506" lon="10.879859">
<ele>545.801</ele>
<time>2022-05-25T12:14:35Z</time>
</trkpt>
<trkpt lat="48.253483" lon="10.879907">
<ele>545.732</ele>
<time>2022-05-25T12:14:36Z</time>
</trkpt>
<trkpt lat="48.253456" lon="10.879953">
<ele>545.689</ele>
<time>2022-05-25T12:14:37Z</time>
</trkpt>
<trkpt lat="48.253433" lon="10.879999">
<ele>545.669</ele>
<time>2022-05-25T12:14:38Z</time>
</trkpt>
<trkpt lat="48.253407" lon="10.88004">
<ele>545.669</ele>
<time>2022-05-25T12:14:39Z</time>
</trkpt>
<trkpt lat="48.253384" lon="10.880085">
<ele>545.669</ele>
<time>2022-05-25T12:14:40Z</time>
</trkpt>
<trkpt lat="48.253357" lon="10.880129">
<ele>545.668</ele>
<time>2022-05-25T12:14:41Z</time>
</trkpt>
<trkpt lat="48.253342" lon="10.880172">
<ele>545.668</ele>
<time>2022-05-25T12:14:42Z</time>
</trkpt>
<trkpt lat="48.253319" lon="10.880209">
<ele>545.668</ele>
<time>2022-05-25T12:14:43Z</time>
</trkpt>
<trkpt lat="48.253304" lon="10.880243">
<ele>545.669</ele>
<time>2022-05-25T12:14:44Z</time>
</trkpt>
<trkpt lat="48.253288" lon="10.880276">
<ele>545.669</ele>
<time>2022-05-25T12:14:45Z</time>
</trkpt>
<trkpt lat="48.253277" lon="10.880305">
<ele>545.668</ele>
<time>2022-05-25T12:14:46Z</time>
</trkpt>
<trkpt lat="48.253265" lon="10.880332">
<ele>545.669</ele>
<time>2022-05-25T12:14:47Z</time>
</trkpt>
<trkpt lat="48.253254" lon="10.88036">
<ele>545.668</ele>
<time>2022-05-25T12:14:48Z</time>
</trkpt>
<trkpt lat="48.253242" lon="10.880384">
<ele>545.668</ele>
<time>2022-05-25T12:14:49Z</time>
</trkpt>
<trkpt lat="48.253235" lon="10.880412">
<ele>545.669</ele>
<time>2022-05-25T12:14:50Z</time>
</trkpt>
<trkpt lat="48.253227" lon="10.88044">
<ele>545.669</ele>
<time>2022-05-25T12:14:51Z</time>
</trkpt>
<trkpt lat="48.253223" lon="10.880473">
<ele>545.669</ele>
<time>2022-05-25T12:14:52Z</time>
</trkpt>
<trkpt lat="48.253223" lon="10.880504">
<ele>545.668</ele>
<time>2022-05-25T12:14:53Z</time>
</trkpt>
<trkpt lat="48.253223" lon="10.880531">
<ele>545.669</ele>
<time>2022-05-25T12:14:54Z</time>
</trkpt>
<trkpt lat="48.253231" lon="10.880557">
<ele>545.668</ele>
<time>2022-05-25T12:14:55Z</time>
</trkpt>
<trkpt lat="48.253231" lon="10.880573">
<ele>545.668</ele>
<time>2022-05-25T12:14:56Z</time>
</trkpt>
<trkpt lat="48.253231" lon="10.880577">
<ele>545.669</ele>
<time>2022-05-25T12:14:57Z</time>
</trkpt>
<trkpt lat="48.253235" lon="10.880575">
<ele>545.669</ele>
<time>2022-05-25T12:14:59Z</time>
</trkpt>
<trkpt lat="48.253235" lon="10.880584">
<ele>545.669</ele>
<time>2022-05-25T12:15:07Z</time>
</trkpt>
<trkpt lat="48.253235" lon="10.880589">
<ele>545.668</ele>
<time>2022-05-25T12:15:08Z</time>
</trkpt>
<trkpt lat="48.253235" lon="10.880593">
<ele>545.669</ele>
<time>2022-05-25T12:15:09Z</time>
</trkpt>
<trkpt lat="48.253231" lon="10.880596">
<ele>545.669</ele>
<time>2022-05-25T12:15:10Z</time>
</trkpt>
<trkpt lat="48.253231" lon="10.880598">
<ele>545.669</ele>
<time>2022-05-25T12:15:12Z</time>
</trkpt>
<trkpt lat="48.253223" lon="10.880618">
<ele>545.668</ele>
<time>2022-05-25T12:15:31Z</time>
</trkpt>
<trkpt lat="48.25322" lon="10.880624">
<ele>545.669</ele>
<time>2022-05-25T12:15:32Z</time>
</trkpt>
<trkpt lat="48.253212" lon="10.880627">
<ele>545.668</ele>
<time>2022-05-25T12:15:33Z</time>
</trkpt>
<trkpt lat="48.253212" lon="10.88063">
<ele>545.669</ele>
<time>2022-05-25T12:15:34Z</time>
</trkpt>
<trkpt lat="48.253189" lon="10.88062">
<ele>545.669</ele>
<time>2022-05-25T12:15:40Z</time>
</trkpt>
<trkpt lat="48.253174" lon="10.880613">
<ele>545.669</ele>
<time>2022-05-25T12:15:41Z</time>
</trkpt>
<trkpt lat="48.253151" lon="10.880603">
<ele>545.669</ele>
<time>2022-05-25T12:15:42Z</time>
</trkpt>
<trkpt lat="48.253128" lon="10.880589">
<ele>545.669</ele>
<time>2022-05-25T12:15:43Z</time>
</trkpt>
<trkpt lat="48.253098" lon="10.880571">
<ele>545.669</ele>
<time>2022-05-25T12:15:44Z</time>
</trkpt>
<trkpt lat="48.253067" lon="10.880555">
<ele>545.669</ele>
<time>2022-05-25T12:15:45Z</time>
</trkpt>
<trkpt lat="48.253036" lon="10.880537">
<ele>545.669</ele>
<time>2022-05-25T12:15:46Z</time>
</trkpt>
<trkpt lat="48.253006" lon="10.880519">
<ele>545.669</ele>
<time>2022-05-25T12:15:47Z</time>
</trkpt>
<trkpt lat="48.252979" lon="10.880505">
<ele>545.669</ele>
<time>2022-05-25T12:15:48Z</time>
</trkpt>
<trkpt lat="48.252949" lon="10.880496">
<ele>545.669</ele>
<time>2022-05-25T12:15:49Z</time>
</trkpt>
<trkpt lat="48.252926" lon="10.880489">
<ele>545.668</ele>
<time>2022-05-25T12:15:50Z</time>
</trkpt>
<trkpt lat="48.252899" lon="10.880487">
<ele>545.669</ele>
<time>2022-05-25T12:15:51Z</time>
</trkpt>
<trkpt lat="48.252876" lon="10.880487">
<ele>545.668</ele>
<time>2022-05-25T12:15:52Z</time>
</trkpt>
<trkpt lat="48.252857" lon="10.880486">
<ele>545.668</ele>
<time>2022-05-25T12:15:53Z</time>
</trkpt>
<trkpt lat="48.252842" lon="10.880484">
<ele>545.669</ele>
<time>2022-05-25T12:15:54Z</time>
</trkpt>
<trkpt lat="48.252823" lon="10.880486">
<ele>545.668</ele>
<time>2022-05-25T12:15:55Z</time>
</trkpt>
<trkpt lat="48.252819" lon="10.880489">
<ele>545.669</ele>
<time>2022-05-25T12:15:56Z</time>
</trkpt>
<trkpt lat="48.252819" lon="10.8805">
<ele>545.669</ele>
<time>2022-05-25T12:15:57Z</time>
</trkpt>
<trkpt lat="48.252815" lon="10.880507">
<ele>545.855</ele>
<time>2022-05-25T12:15:58Z</time>
</trkpt>
<trkpt lat="48.252811" lon="10.88051">
<ele>546.016</ele>
<time>2022-05-25T12:15:59Z</time>
</trkpt>
<trkpt lat="48.252808" lon="10.880515">
<ele>546.142</ele>
<time>2022-05-25T12:16:00Z</time>
</trkpt>
<trkpt lat="48.252796" lon="10.880529">
<ele>546.255</ele>
<time>2022-05-25T12:16:07Z</time>
</trkpt>
<trkpt lat="48.252789" lon="10.880547">
<ele>546.354</ele>
<time>2022-05-25T12:16:08Z</time>
</trkpt>
<trkpt lat="48.252785" lon="10.880569">
<ele>546.439</ele>
<time>2022-05-25T12:16:09Z</time>
</trkpt>
<trkpt lat="48.252773" lon="10.8806">
<ele>546.525</ele>
<time>2022-05-25T12:16:10Z</time>
</trkpt>
<trkpt lat="48.252766" lon="10.880642">
<ele>546.54</ele>
<time>2022-05-25T12:16:11Z</time>
</trkpt>
<trkpt lat="48.252754" lon="10.880691">
<ele>546.54</ele>
<time>2022-05-25T12:16:12Z</time>
</trkpt>
<trkpt lat="48.252743" lon="10.880745">
<ele>546.54</ele>
<time>2022-05-25T12:16:13Z</time>
</trkpt>
<trkpt lat="48.252735" lon="10.880801">
<ele>546.411</ele>
<time>2022-05-25T12:16:14Z</time>
</trkpt>
<trkpt lat="48.252728" lon="10.88086">
<ele>546.339</ele>
<time>2022-05-25T12:16:15Z</time>
</trkpt>
<trkpt lat="48.252724" lon="10.880919">
<ele>546.287</ele>
<time>2022-05-25T12:16:16Z</time>
</trkpt>
<trkpt lat="48.25272" lon="10.88098">
<ele>546.257</ele>
<time>2022-05-25T12:16:17Z</time>
</trkpt>
<trkpt lat="48.252708" lon="10.881042">
<ele>546.231</ele>
<time>2022-05-25T12:16:18Z</time>
</trkpt>
<trkpt lat="48.252689" lon="10.8811">
<ele>546.216</ele>
<time>2022-05-25T12:16:19Z</time>
</trkpt>
<trkpt lat="48.252666" lon="10.88116">
<ele>546.2</ele>
<time>2022-05-25T12:16:20Z</time>
</trkpt>
<trkpt lat="48.252647" lon="10.88122">
<ele>546.191</ele>
<time>2022-05-25T12:16:21Z</time>
</trkpt>
<trkpt lat="48.252625" lon="10.881286">
<ele>546.191</ele>
<time>2022-05-25T12:16:22Z</time>
</trkpt>
<trkpt lat="48.252594" lon="10.881355">
<ele>546.191</ele>
<time>2022-05-25T12:16:23Z</time>
</trkpt>
<trkpt lat="48.252567" lon="10.88143">
<ele>546.191</ele>
<time>2022-05-25T12:16:24Z</time>
</trkpt>
<trkpt lat="48.252541" lon="10.881508">
<ele>546.191</ele>
<time>2022-05-25T12:16:25Z</time>
</trkpt>
<trkpt lat="48.25251" lon="10.881587">
<ele>546.191</ele>
<time>2022-05-25T12:16:26Z</time>
</trkpt>
<trkpt lat="48.252487" lon="10.881667">
<ele>546.191</ele>
<time>2022-05-25T12:16:27Z</time>
</trkpt>
<trkpt lat="48.25246" lon="10.881746">
<ele>546.191</ele>
<time>2022-05-25T12:16:28Z</time>
</trkpt>
<trkpt lat="48.25243" lon="10.881826">
<ele>546.191</ele>
<time>2022-05-25T12:16:29Z</time>
</trkpt>
<trkpt lat="48.252403" lon="10.881904">
<ele>546.191</ele>
<time>2022-05-25T12:16:30Z</time>
</trkpt>
<trkpt lat="48.252377" lon="10.88198">
<ele>546.191</ele>
<time>2022-05-25T12:16:31Z</time>
</trkpt>
<trkpt lat="48.25235" lon="10.882054">
<ele>546.191</ele>
<time>2022-05-25T12:16:32Z</time>
</trkpt>
<trkpt lat="48.252323" lon="10.882133">
<ele>546.191</ele>
<time>2022-05-25T12:16:33Z</time>
</trkpt>
<trkpt lat="48.252296" lon="10.88221">
<ele>546.191</ele>
<time>2022-05-25T12:16:34Z</time>
</trkpt>
<trkpt lat="48.252274" lon="10.882287">
<ele>546.191</ele>
<time>2022-05-25T12:16:35Z</time>
</trkpt>
<trkpt lat="48.252247" lon="10.88236">
<ele>546.191</ele>
<time>2022-05-25T12:16:36Z</time>
</trkpt>
<trkpt lat="48.252224" lon="10.882432">
<ele>546.191</ele>
<time>2022-05-25T12:16:37Z</time>
</trkpt>
<trkpt lat="48.252197" lon="10.882505">
<ele>546.191</ele>
<time>2022-05-25T12:16:38Z</time>
</trkpt>
<trkpt lat="48.252171" lon="10.882575">
<ele>546.191</ele>
<time>2022-05-25T12:16:39Z</time>
</trkpt>
<trkpt lat="48.252151" lon="10.882647">
<ele>546.191</ele>
<time>2022-05-25T12:16:40Z</time>
</trkpt>
<trkpt lat="48.252129" lon="10.882714">
<ele>546.191</ele>
<time>2022-05-25T12:16:41Z</time>
</trkpt>
<trkpt lat="48.252106" lon="10.882782">
<ele>546.191</ele>
<time>2022-05-25T12:16:42Z</time>
</trkpt>
<trkpt lat="48.252087" lon="10.882851">
<ele>546.191</ele>
<time>2022-05-25T12:16:43Z</time>
</trkpt>
<trkpt lat="48.252068" lon="10.88292">
<ele>546.191</ele>
<time>2022-05-25T12:16:44Z</time>
</trkpt>
<trkpt lat="48.252045" lon="10.882992">
<ele>546.191</ele>
<time>2022-05-25T12:16:45Z</time>
</trkpt>
<trkpt lat="48.252026" lon="10.883062">
<ele>546.191</ele>
<time>2022-05-25T12:16:46Z</time>
</trkpt>
<trkpt lat="48.252003" lon="10.883132">
<ele>546.191</ele>
<time>2022-05-25T12:16:47Z</time>
</trkpt>
<trkpt lat="48.251984" lon="10.883203">
<ele>546.191</ele>
<time>2022-05-25T12:16:48Z</time>
</trkpt>
<trkpt lat="48.251965" lon="10.883273">
<ele>546.191</ele>
<time>2022-05-25T12:16:49Z</time>
</trkpt>
<trkpt lat="48.251942" lon="10.883345">
<ele>546.191</ele>
<time>2022-05-25T12:16:50Z</time>
</trkpt>
<trkpt lat="48.251923" lon="10.883416">
<ele>546.191</ele>
<time>2022-05-25T12:16:51Z</time>
</trkpt>
<trkpt lat="48.251904" lon="10.883488">
<ele>546.191</ele>
<time>2022-05-25T12:16:52Z</time>
</trkpt>
<trkpt lat="48.251881" lon="10.88356">
<ele>546.191</ele>
<time>2022-05-25T12:16:53Z</time>
</trkpt>
<trkpt lat="48.251869" lon="10.883632">
<ele>546.191</ele>
<time>2022-05-25T12:16:54Z</time>
</trkpt>
<trkpt lat="48.251846" lon="10.883703">
<ele>546.191</ele>
<time>2022-05-25T12:16:55Z</time>
</trkpt>
<trkpt lat="48.251827" lon="10.883772">
<ele>546.191</ele>
<time>2022-05-25T12:16:56Z</time>
</trkpt>
<trkpt lat="48.251808" lon="10.883842">
<ele>546.191</ele>
<time>2022-05-25T12:16:57Z</time>
</trkpt>
<trkpt lat="48.251789" lon="10.883915">
<ele>546.191</ele>
<time>2022-05-25T12:16:58Z</time>
</trkpt>
<trkpt lat="48.251774" lon="10.883988">
<ele>546.191</ele>
<time>2022-05-25T12:16:59Z</time>
</trkpt>
<trkpt lat="48.251755" lon="10.884062">
<ele>546.191</ele>
<time>2022-05-25T12:17:00Z</time>
</trkpt>
<trkpt lat="48.251743" lon="10.884137">
<ele>546.191</ele>
<time>2022-05-25T12:17:01Z</time>
</trkpt>
<trkpt lat="48.251724" lon="10.884214">
<ele>546.191</ele>
<time>2022-05-25T12:17:02Z</time>
</trkpt>
<trkpt lat="48.251709" lon="10.884295">
<ele>546.191</ele>
<time>2022-05-25T12:17:03Z</time>
</trkpt>
<trkpt lat="48.251686" lon="10.884376">
<ele>546.191</ele>
<time>2022-05-25T12:17:04Z</time>
</trkpt>
<trkpt lat="48.251675" lon="10.884454">
<ele>546.191</ele>
<time>2022-05-25T12:17:05Z</time>
</trkpt>
<trkpt lat="48.251656" lon="10.884531">
<ele>546.191</ele>
<time>2022-05-25T12:17:06Z</time>
</trkpt>
<trkpt lat="48.25164" lon="10.88461">
<ele>546.191</ele>
<time>2022-05-25T12:17:07Z</time>
</trkpt>
<trkpt lat="48.251621" lon="10.884688">
<ele>546.191</ele>
<time>2022-05-25T12:17:08Z</time>
</trkpt>
<trkpt lat="48.25161" lon="10.884766">
<ele>546.191</ele>
<time>2022-05-25T12:17:09Z</time>
</trkpt>
<trkpt lat="48.251595" lon="10.884843">
<ele>546.191</ele>
<time>2022-05-25T12:17:10Z</time>
</trkpt>
<trkpt lat="48.251579" lon="10.884922">
<ele>546.191</ele>
<time>2022-05-25T12:17:11Z</time>
</trkpt>
<trkpt lat="48.251564" lon="10.885003">
<ele>546.191</ele>
<time>2022-05-25T12:17:12Z</time>
</trkpt>
<trkpt lat="48.251549" lon="10.885088">
<ele>546.191</ele>
<time>2022-05-25T12:17:13Z</time>
</trkpt>
<trkpt lat="48.251534" lon="10.885168">
<ele>546.191</ele>
<time>2022-05-25T12:17:14Z</time>
</trkpt>
<trkpt lat="48.251518" lon="10.885245">
<ele>546.191</ele>
<time>2022-05-25T12:17:15Z</time>
</trkpt>
<trkpt lat="48.251507" lon="10.885326">
<ele>546.191</ele>
<time>2022-05-25T12:17:16Z</time>
</trkpt>
<trkpt lat="48.251492" lon="10.885405">
<ele>546.191</ele>
<time>2022-05-25T12:17:17Z</time>
</trkpt>
<trkpt lat="48.25148" lon="10.885485">
<ele>546.191</ele>
<time>2022-05-25T12:17:18Z</time>
</trkpt>
<trkpt lat="48.251469" lon="10.885567">
<ele>546.191</ele>
<time>2022-05-25T12:17:19Z</time>
</trkpt>
<trkpt lat="48.251457" lon="10.885652">
<ele>546.191</ele>
<time>2022-05-25T12:17:20Z</time>
</trkpt>
<trkpt lat="48.251446" lon="10.885738">
<ele>545.903</ele>
<time>2022-05-25T12:17:21Z</time>
</trkpt>
<trkpt lat="48.251427" lon="10.88583">
<ele>545.676</ele>
<time>2022-05-25T12:17:22Z</time>
</trkpt>
<trkpt lat="48.251411" lon="10.885924">
<ele>545.506</ele>
<time>2022-05-25T12:17:23Z</time>
</trkpt>
<trkpt lat="48.251396" lon="10.886023">
<ele>545.386</ele>
<time>2022-05-25T12:17:24Z</time>
</trkpt>
<trkpt lat="48.251385" lon="10.886117">
<ele>545.307</ele>
<time>2022-05-25T12:17:25Z</time>
</trkpt>
<trkpt lat="48.251366" lon="10.886209">
<ele>545.259</ele>
<time>2022-05-25T12:17:26Z</time>
</trkpt>
<trkpt lat="48.251354" lon="10.886301">
<ele>545.236</ele>
<time>2022-05-25T12:17:27Z</time>
</trkpt>
<trkpt lat="48.251339" lon="10.886392">
<ele>545.233</ele>
<time>2022-05-25T12:17:28Z</time>
</trkpt>
<trkpt lat="48.251324" lon="10.886479">
<ele>545.233</ele>
<time>2022-05-25T12:17:29Z</time>
</trkpt>
<trkpt lat="48.251316" lon="10.886572">
<ele>545.233</ele>
<time>2022-05-25T12:17:30Z</time>
</trkpt>
<trkpt lat="48.251297" lon="10.886658">
<ele>545.233</ele>
<time>2022-05-25T12:17:31Z</time>
</trkpt>
<trkpt lat="48.251286" lon="10.886745">
<ele>545.233</ele>
<time>2022-05-25T12:17:32Z</time>
</trkpt>
<trkpt lat="48.251274" lon="10.886831">
<ele>544.968</ele>
<time>2022-05-25T12:17:33Z</time>
</trkpt>
<trkpt lat="48.251259" lon="10.886915">
<ele>544.762</ele>
<time>2022-05-25T12:17:34Z</time>
</trkpt>
<trkpt lat="48.251251" lon="10.887">
<ele>544.603</ele>
<time>2022-05-25T12:17:35Z</time>
</trkpt>
<trkpt lat="48.25124" lon="10.887083">
<ele>544.484</ele>
<time>2022-05-25T12:17:36Z</time>
</trkpt>
<trkpt lat="48.251225" lon="10.887169">
<ele>544.401</ele>
<time>2022-05-25T12:17:37Z</time>
</trkpt>
<trkpt lat="48.251217" lon="10.887252">
<ele>544.346</ele>
<time>2022-05-25T12:17:38Z</time>
</trkpt>
<trkpt lat="48.251205" lon="10.887339">
<ele>544.302</ele>
<time>2022-05-25T12:17:39Z</time>
</trkpt>
<trkpt lat="48.25119" lon="10.887418">
<ele>544.275</ele>
<time>2022-05-25T12:17:40Z</time>
</trkpt>
<trkpt lat="48.251183" lon="10.8875">
<ele>544.275</ele>
<time>2022-05-25T12:17:41Z</time>
</trkpt>
<trkpt lat="48.251171" lon="10.887586">
<ele>544.275</ele>
<time>2022-05-25T12:17:42Z</time>
</trkpt>
<trkpt lat="48.251156" lon="10.887667">
<ele>544.275</ele>
<time>2022-05-25T12:17:43Z</time>
</trkpt>
<trkpt lat="48.251148" lon="10.887749">
<ele>544.275</ele>
<time>2022-05-25T12:17:44Z</time>
</trkpt>
<trkpt lat="48.251137" lon="10.887829">
<ele>544.275</ele>
<time>2022-05-25T12:17:45Z</time>
</trkpt>
<trkpt lat="48.251125" lon="10.887912">
<ele>544.275</ele>
<time>2022-05-25T12:17:46Z</time>
</trkpt>
<trkpt lat="48.251114" lon="10.888">
<ele>544.275</ele>
<time>2022-05-25T12:17:47Z</time>
</trkpt>
<trkpt lat="48.251099" lon="10.88809">
<ele>544.275</ele>
<time>2022-05-25T12:17:48Z</time>
</trkpt>
<trkpt lat="48.251087" lon="10.888179">
<ele>544.275</ele>
<time>2022-05-25T12:17:49Z</time>
</trkpt>
<trkpt lat="48.251072" lon="10.888267">
<ele>544.275</ele>
<time>2022-05-25T12:17:50Z</time>
</trkpt>
<trkpt lat="48.25106" lon="10.888356">
<ele>544.275</ele>
<time>2022-05-25T12:17:51Z</time>
</trkpt>
<trkpt lat="48.251049" lon="10.888445">
<ele>544.275</ele>
<time>2022-05-25T12:17:52Z</time>
</trkpt>
<trkpt lat="48.251038" lon="10.888533">
<ele>544.275</ele>
<time>2022-05-25T12:17:53Z</time>
</trkpt>
<trkpt lat="48.251026" lon="10.88862">
<ele>544.275</ele>
<time>2022-05-25T12:17:54Z</time>
</trkpt>
<trkpt lat="48.251019" lon="10.888708">
<ele>544.275</ele>
<time>2022-05-25T12:17:55Z</time>
</trkpt>
<trkpt lat="48.251007" lon="10.888795">
<ele>544.275</ele>
<time>2022-05-25T12:17:56Z</time>
</trkpt>
<trkpt lat="48.250996" lon="10.888882">
<ele>544.275</ele>
<time>2022-05-25T12:17:57Z</time>
</trkpt>
<trkpt lat="48.250988" lon="10.888968">
<ele>544.275</ele>
<time>2022-05-25T12:17:58Z</time>
</trkpt>
<trkpt lat="48.250977" lon="10.889053">
<ele>544.275</ele>
<time>2022-05-25T12:17:59Z</time>
</trkpt>
<trkpt lat="48.250969" lon="10.889136">
<ele>544.275</ele>
<time>2022-05-25T12:18:00Z</time>
</trkpt>
<trkpt lat="48.250961" lon="10.889222">
<ele>544.275</ele>
<time>2022-05-25T12:18:01Z</time>
</trkpt>
<trkpt lat="48.250957" lon="10.889305">
<ele>544.275</ele>
<time>2022-05-25T12:18:02Z</time>
</trkpt>
<trkpt lat="48.250946" lon="10.889385">
<ele>544.275</ele>
<time>2022-05-25T12:18:03Z</time>
</trkpt>
<trkpt lat="48.250935" lon="10.889467">
<ele>544.275</ele>
<time>2022-05-25T12:18:04Z</time>
</trkpt>
<trkpt lat="48.250927" lon="10.88955">
<ele>544.275</ele>
<time>2022-05-25T12:18:05Z</time>
</trkpt>
<trkpt lat="48.250923" lon="10.88963">
<ele>544.275</ele>
<time>2022-05-25T12:18:06Z</time>
</trkpt>
<trkpt lat="48.250912" lon="10.889713">
<ele>544.275</ele>
<time>2022-05-25T12:18:07Z</time>
</trkpt>
<trkpt lat="48.250908" lon="10.889798">
<ele>544.275</ele>
<time>2022-05-25T12:18:08Z</time>
</trkpt>
<trkpt lat="48.2509" lon="10.889882">
<ele>544.275</ele>
<time>2022-05-25T12:18:09Z</time>
</trkpt>
<trkpt lat="48.250896" lon="10.889961">
<ele>544.275</ele>
<time>2022-05-25T12:18:10Z</time>
</trkpt>
<trkpt lat="48.250889" lon="10.890047">
<ele>544.275</ele>
<time>2022-05-25T12:18:11Z</time>
</trkpt>
<trkpt lat="48.250881" lon="10.890129">
<ele>544.275</ele>
<time>2022-05-25T12:18:12Z</time>
</trkpt>
<trkpt lat="48.250877" lon="10.89021">
<ele>544.275</ele>
<time>2022-05-25T12:18:13Z</time>
</trkpt>
<trkpt lat="48.25087" lon="10.890293">
<ele>544.275</ele>
<time>2022-05-25T12:18:14Z</time>
</trkpt>
<trkpt lat="48.250862" lon="10.89038">
<ele>544.275</ele>
<time>2022-05-25T12:18:15Z</time>
</trkpt>
<trkpt lat="48.250858" lon="10.890464">
<ele>544.275</ele>
<time>2022-05-25T12:18:16Z</time>
</trkpt>
<trkpt lat="48.250851" lon="10.890548">
<ele>544.275</ele>
<time>2022-05-25T12:18:17Z</time>
</trkpt>
<trkpt lat="48.250839" lon="10.89063">
<ele>544.275</ele>
<time>2022-05-25T12:18:18Z</time>
</trkpt>
<trkpt lat="48.250832" lon="10.890712">
<ele>544.275</ele>
<time>2022-05-25T12:18:19Z</time>
</trkpt>
<trkpt lat="48.250828" lon="10.890795">
<ele>544.275</ele>
<time>2022-05-25T12:18:20Z</time>
</trkpt>
<trkpt lat="48.25082" lon="10.890875">
<ele>544.275</ele>
<time>2022-05-25T12:18:21Z</time>
</trkpt>
<trkpt lat="48.250813" lon="10.890953">
<ele>544.275</ele>
<time>2022-05-25T12:18:22Z</time>
</trkpt>
<trkpt lat="48.250801" lon="10.891034">
<ele>544.275</ele>
<time>2022-05-25T12:18:23Z</time>
</trkpt>
<trkpt lat="48.250797" lon="10.891109">
<ele>544.275</ele>
<time>2022-05-25T12:18:24Z</time>
</trkpt>
<trkpt lat="48.25079" lon="10.891185">
<ele>544.275</ele>
<time>2022-05-25T12:18:25Z</time>
</trkpt>
<trkpt lat="48.250782" lon="10.89126">
<ele>544.275</ele>
<time>2022-05-25T12:18:26Z</time>
</trkpt>
<trkpt lat="48.250774" lon="10.891338">
<ele>544.275</ele>
<time>2022-05-25T12:18:27Z</time>
</trkpt>
<trkpt lat="48.250767" lon="10.891416">
<ele>544.275</ele>
<time>2022-05-25T12:18:28Z</time>
</trkpt>
<trkpt lat="48.250767" lon="10.891493">
<ele>544.275</ele>
<time>2022-05-25T12:18:29Z</time>
</trkpt>
<trkpt lat="48.250759" lon="10.89157">
<ele>544.275</ele>
<time>2022-05-25T12:18:30Z</time>
</trkpt>
<trkpt lat="48.250755" lon="10.891646">
<ele>544.275</ele>
<time>2022-05-25T12:18:31Z</time>
</trkpt>
<trkpt lat="48.250748" lon="10.89172">
<ele>544.275</ele>
<time>2022-05-25T12:18:32Z</time>
</trkpt>
<trkpt lat="48.250736" lon="10.891784">
<ele>544.275</ele>
<time>2022-05-25T12:18:33Z</time>
</trkpt>
<trkpt lat="48.250732" lon="10.891832">
<ele>544.275</ele>
<time>2022-05-25T12:18:34Z</time>
</trkpt>
<trkpt lat="48.250725" lon="10.89187">
<ele>544.275</ele>
<time>2022-05-25T12:18:35Z</time>
</trkpt>
<trkpt lat="48.250725" lon="10.89191">
<ele>544.275</ele>
<time>2022-05-25T12:18:36Z</time>
</trkpt>
<trkpt lat="48.250725" lon="10.891956">
<ele>544.275</ele>
<time>2022-05-25T12:18:37Z</time>
</trkpt>
<trkpt lat="48.250721" lon="10.892005">
<ele>544.275</ele>
<time>2022-05-25T12:18:38Z</time>
</trkpt>
<trkpt lat="48.250717" lon="10.892055">
<ele>544.275</ele>
<time>2022-05-25T12:18:39Z</time>
</trkpt>
<trkpt lat="48.250713" lon="10.892111">
<ele>544.275</ele>
<time>2022-05-25T12:18:40Z</time>
</trkpt>
<trkpt lat="48.25071" lon="10.892168">
<ele>544.275</ele>
<time>2022-05-25T12:18:41Z</time>
</trkpt>
<trkpt lat="48.25071" lon="10.892228">
<ele>544.275</ele>
<time>2022-05-25T12:18:42Z</time>
</trkpt>
<trkpt lat="48.25071" lon="10.892285">
<ele>544.275</ele>
<time>2022-05-25T12:18:43Z</time>
</trkpt>
<trkpt lat="48.250702" lon="10.892345">
<ele>544.275</ele>
<time>2022-05-25T12:18:44Z</time>
</trkpt>
<trkpt lat="48.250702" lon="10.892412">
<ele>544.275</ele>
<time>2022-05-25T12:18:45Z</time>
</trkpt>
<trkpt lat="48.250702" lon="10.89248">
<ele>544.275</ele>
<time>2022-05-25T12:18:46Z</time>
</trkpt>
<trkpt lat="48.250702" lon="10.892545">
<ele>544.275</ele>
<time>2022-05-25T12:18:47Z</time>
</trkpt>
<trkpt lat="48.250702" lon="10.892615">
<ele>544.275</ele>
<time>2022-05-25T12:18:48Z</time>
</trkpt>
<trkpt lat="48.250698" lon="10.89268">
<ele>544.275</ele>
<time>2022-05-25T12:18:49Z</time>
</trkpt>
<trkpt lat="48.250698" lon="10.89275">
<ele>544.275</ele>
<time>2022-05-25T12:18:50Z</time>
</trkpt>
<trkpt lat="48.250698" lon="10.892819">
<ele>544.275</ele>
<time>2022-05-25T12:18:51Z</time>
</trkpt>
<trkpt lat="48.250698" lon="10.892886">
<ele>544.275</ele>
<time>2022-05-25T12:18:52Z</time>
</trkpt>
<trkpt lat="48.250694" lon="10.892953">
<ele>544.275</ele>
<time>2022-05-25T12:18:53Z</time>
</trkpt>
<trkpt lat="48.25069" lon="10.893023">
<ele>544.275</ele>
<time>2022-05-25T12:18:54Z</time>
</trkpt>
<trkpt lat="48.25069" lon="10.893093">
<ele>544.275</ele>
<time>2022-05-25T12:18:55Z</time>
</trkpt>
<trkpt lat="48.25069" lon="10.893168">
<ele>544.275</ele>
<time>2022-05-25T12:18:56Z</time>
</trkpt>
<trkpt lat="48.250687" lon="10.89324">
<ele>544.275</ele>
<time>2022-05-25T12:18:57Z</time>
</trkpt>
<trkpt lat="48.250687" lon="10.893313">
<ele>544.275</ele>
<time>2022-05-25T12:18:58Z</time>
</trkpt>
<trkpt lat="48.250687" lon="10.893387">
<ele>544.275</ele>
<time>2022-05-25T12:18:59Z</time>
</trkpt>
<trkpt lat="48.250687" lon="10.893462">
<ele>544.275</ele>
<time>2022-05-25T12:19:00Z</time>
</trkpt>
<trkpt lat="48.25069" lon="10.893538">
<ele>544.275</ele>
<time>2022-05-25T12:19:01Z</time>
</trkpt>
<trkpt lat="48.250687" lon="10.893613">
<ele>544.275</ele>
<time>2022-05-25T12:19:02Z</time>
</trkpt>
<trkpt lat="48.25069" lon="10.893688">
<ele>544.275</ele>
<time>2022-05-25T12:19:03Z</time>
</trkpt>
<trkpt lat="48.250694" lon="10.893764">
<ele>544.275</ele>
<time>2022-05-25T12:19:04Z</time>
</trkpt>
<trkpt lat="48.250698" lon="10.893837">
<ele>544.275</ele>
<time>2022-05-25T12:19:05Z</time>
</trkpt>
<trkpt lat="48.250702" lon="10.893913">
<ele>544.275</ele>
<time>2022-05-25T12:19:06Z</time>
</trkpt>
<trkpt lat="48.250702" lon="10.893989">
<ele>544.275</ele>
<time>2022-05-25T12:19:07Z</time>
</trkpt>
<trkpt lat="48.250702" lon="10.894065">
<ele>544.275</ele>
<time>2022-05-25T12:19:08Z</time>
</trkpt>
<trkpt lat="48.250698" lon="10.894136">
<ele>544.275</ele>
<time>2022-05-25T12:19:09Z</time>
</trkpt>
<trkpt lat="48.250698" lon="10.894212">
<ele>544.275</ele>
<time>2022-05-25T12:19:10Z</time>
</trkpt>
<trkpt lat="48.250702" lon="10.894285">
<ele>544.275</ele>
<time>2022-05-25T12:19:11Z</time>
</trkpt>
<trkpt lat="48.250702" lon="10.894359">
<ele>544.275</ele>
<time>2022-05-25T12:19:12Z</time>
</trkpt>
<trkpt lat="48.250702" lon="10.894432">
<ele>544.275</ele>
<time>2022-05-25T12:19:13Z</time>
</trkpt>
<trkpt lat="48.250698" lon="10.894504">
<ele>544.275</ele>
<time>2022-05-25T12:19:14Z</time>
</trkpt>
<trkpt lat="48.250698" lon="10.89458">
<ele>544.275</ele>
<time>2022-05-25T12:19:15Z</time>
</trkpt>
<trkpt lat="48.250698" lon="10.894653">
<ele>544.275</ele>
<time>2022-05-25T12:19:16Z</time>
</trkpt>
<trkpt lat="48.250698" lon="10.894732">
<ele>544.275</ele>
<time>2022-05-25T12:19:17Z</time>
</trkpt>
<trkpt lat="48.250698" lon="10.89481">
<ele>544.275</ele>
<time>2022-05-25T12:19:18Z</time>
</trkpt>
<trkpt lat="48.250698" lon="10.894896">
<ele>544.275</ele>
<time>2022-05-25T12:19:19Z</time>
</trkpt>
<trkpt lat="48.250698" lon="10.894977">
<ele>544.275</ele>
<time>2022-05-25T12:19:20Z</time>
</trkpt>
<trkpt lat="48.250698" lon="10.895059">
<ele>544.275</ele>
<time>2022-05-25T12:19:21Z</time>
</trkpt>
<trkpt lat="48.250694" lon="10.895139">
<ele>544.275</ele>
<time>2022-05-25T12:19:22Z</time>
</trkpt>
<trkpt lat="48.25069" lon="10.895218">
<ele>544.275</ele>
<time>2022-05-25T12:19:23Z</time>
</trkpt>
<trkpt lat="48.25069" lon="10.8953">
<ele>544.275</ele>
<time>2022-05-25T12:19:24Z</time>
</trkpt>
<trkpt lat="48.25069" lon="10.895384">
<ele>544.275</ele>
<time>2022-05-25T12:19:25Z</time>
</trkpt>
<trkpt lat="48.25069" lon="10.895467">
<ele>544.275</ele>
<time>2022-05-25T12:19:26Z</time>
</trkpt>
<trkpt lat="48.25069" lon="10.895549">
<ele>544.275</ele>
<time>2022-05-25T12:19:27Z</time>
</trkpt>
<trkpt lat="48.25069" lon="10.895629">
<ele>544.275</ele>
<time>2022-05-25T12:19:28Z</time>
</trkpt>
<trkpt lat="48.25069" lon="10.895706">
<ele>544.275</ele>
<time>2022-05-25T12:19:29Z</time>
</trkpt>
<trkpt lat="48.25069" lon="10.895783">
<ele>544.275</ele>
<time>2022-05-25T12:19:30Z</time>
</trkpt>
<trkpt lat="48.250694" lon="10.895862">
<ele>544.275</ele>
<time>2022-05-25T12:19:31Z</time>
</trkpt>
<trkpt lat="48.250698" lon="10.895941">
<ele>544.275</ele>
<time>2022-05-25T12:19:32Z</time>
</trkpt>
<trkpt lat="48.250702" lon="10.89602">
<ele>544.275</ele>
<time>2022-05-25T12:19:33Z</time>
</trkpt>
<trkpt lat="48.250702" lon="10.8961">
<ele>544.275</ele>
<time>2022-05-25T12:19:34Z</time>
</trkpt>
<trkpt lat="48.250702" lon="10.896177">
<ele>544.275</ele>
<time>2022-05-25T12:19:35Z</time>
</trkpt>
<trkpt lat="48.250702" lon="10.896255">
<ele>544.275</ele>
<time>2022-05-25T12:19:36Z</time>
</trkpt>
<trkpt lat="48.250702" lon="10.896333">
<ele>544.275</ele>
<time>2022-05-25T12:19:37Z</time>
</trkpt>
<trkpt lat="48.250702" lon="10.896414">
<ele>544.275</ele>
<time>2022-05-25T12:19:38Z</time>
</trkpt>
<trkpt lat="48.250702" lon="10.896495">
<ele>544.275</ele>
<time>2022-05-25T12:19:39Z</time>
</trkpt>
<trkpt lat="48.25071" lon="10.89658">
<ele>544.275</ele>
<time>2022-05-25T12:19:40Z</time>
</trkpt>
<trkpt lat="48.250713" lon="10.896664">
<ele>544.275</ele>
<time>2022-05-25T12:19:41Z</time>
</trkpt>
<trkpt lat="48.250721" lon="10.896747">
<ele>544.275</ele>
<time>2022-05-25T12:19:42Z</time>
</trkpt>
<trkpt lat="48.250729" lon="10.89683">
<ele>544.002</ele>
<time>2022-05-25T12:19:43Z</time>
</trkpt>
<trkpt lat="48.250732" lon="10.896912">
<ele>543.791</ele>
<time>2022-05-25T12:19:44Z</time>
</trkpt>
<trkpt lat="48.25074" lon="10.896995">
<ele>543.632</ele>
<time>2022-05-25T12:19:45Z</time>
</trkpt>
<trkpt lat="48.250744" lon="10.89708">
<ele>543.517</ele>
<time>2022-05-25T12:19:46Z</time>
</trkpt>
<trkpt lat="48.250751" lon="10.897166">
<ele>543.439</ele>
<time>2022-05-25T12:19:47Z</time>
</trkpt>
<trkpt lat="48.250759" lon="10.897252">
<ele>543.385</ele>
<time>2022-05-25T12:19:48Z</time>
</trkpt>
<trkpt lat="48.250767" lon="10.897338">
<ele>543.343</ele>
<time>2022-05-25T12:19:49Z</time>
</trkpt>
<trkpt lat="48.250771" lon="10.897425">
<ele>543.316</ele>
<time>2022-05-25T12:19:50Z</time>
</trkpt>
<trkpt lat="48.250778" lon="10.897508">
<ele>543.316</ele>
<time>2022-05-25T12:19:51Z</time>
</trkpt>
<trkpt lat="48.250786" lon="10.897588">
<ele>543.317</ele>
<time>2022-05-25T12:19:52Z</time>
</trkpt>
<trkpt lat="48.250793" lon="10.89767">
<ele>543.316</ele>
<time>2022-05-25T12:19:53Z</time>
</trkpt>
<trkpt lat="48.250797" lon="10.897752">
<ele>543.316</ele>
<time>2022-05-25T12:19:54Z</time>
</trkpt>
<trkpt lat="48.250805" lon="10.897832">
<ele>543.317</ele>
<time>2022-05-25T12:19:55Z</time>
</trkpt>
<trkpt lat="48.250813" lon="10.897912">
<ele>543.317</ele>
<time>2022-05-25T12:19:56Z</time>
</trkpt>
<trkpt lat="48.25082" lon="10.897992">
<ele>543.317</ele>
<time>2022-05-25T12:19:57Z</time>
</trkpt>
<trkpt lat="48.250828" lon="10.898071">
<ele>543.316</ele>
<time>2022-05-25T12:19:58Z</time>
</trkpt>
<trkpt lat="48.250832" lon="10.898149">
<ele>543.317</ele>
<time>2022-05-25T12:19:59Z</time>
</trkpt>
<trkpt lat="48.250839" lon="10.898223">
<ele>543.317</ele>
<time>2022-05-25T12:20:00Z</time>
</trkpt>
<trkpt lat="48.250843" lon="10.898298">
<ele>543.316</ele>
<time>2022-05-25T12:20:01Z</time>
</trkpt>
<trkpt lat="48.250851" lon="10.898374">
<ele>543.316</ele>
<time>2022-05-25T12:20:02Z</time>
</trkpt>
<trkpt lat="48.250858" lon="10.898448">
<ele>543.316</ele>
<time>2022-05-25T12:20:03Z</time>
</trkpt>
<trkpt lat="48.250866" lon="10.898526">
<ele>543.317</ele>
<time>2022-05-25T12:20:04Z</time>
</trkpt>
<trkpt lat="48.250877" lon="10.898603">
<ele>543.317</ele>
<time>2022-05-25T12:20:05Z</time>
</trkpt>
<trkpt lat="48.250889" lon="10.898679">
<ele>543.317</ele>
<time>2022-05-25T12:20:06Z</time>
</trkpt>
<trkpt lat="48.250896" lon="10.898755">
<ele>543.317</ele>
<time>2022-05-25T12:20:07Z</time>
</trkpt>
<trkpt lat="48.250908" lon="10.898831">
<ele>543.317</ele>
<time>2022-05-25T12:20:08Z</time>
</trkpt>
<trkpt lat="48.250919" lon="10.898913">
<ele>543.317</ele>
<time>2022-05-25T12:20:09Z</time>
</trkpt>
<trkpt lat="48.250927" lon="10.898993">
<ele>543.317</ele>
<time>2022-05-25T12:20:10Z</time>
</trkpt>
<trkpt lat="48.250942" lon="10.899076">
<ele>543.317</ele>
<time>2022-05-25T12:20:11Z</time>
</trkpt>
<trkpt lat="48.250954" lon="10.89916">
<ele>543.317</ele>
<time>2022-05-25T12:20:12Z</time>
</trkpt>
<trkpt lat="48.250961" lon="10.89924">
<ele>543.317</ele>
<time>2022-05-25T12:20:13Z</time>
</trkpt>
<trkpt lat="48.250973" lon="10.89932">
<ele>543.317</ele>
<time>2022-05-25T12:20:14Z</time>
</trkpt>
<trkpt lat="48.250984" lon="10.8994">
<ele>543.317</ele>
<time>2022-05-25T12:20:15Z</time>
</trkpt>
<trkpt lat="48.250992" lon="10.899482">
<ele>543.316</ele>
<time>2022-05-25T12:20:16Z</time>
</trkpt>
<trkpt lat="48.251003" lon="10.89956">
<ele>543.317</ele>
<time>2022-05-25T12:20:17Z</time>
</trkpt>
<trkpt lat="48.251019" lon="10.89964">
<ele>543.317</ele>
<time>2022-05-25T12:20:18Z</time>
</trkpt>
<trkpt lat="48.251026" lon="10.899718">
<ele>543.316</ele>
<time>2022-05-25T12:20:19Z</time>
</trkpt>
<trkpt lat="48.251038" lon="10.899796">
<ele>543.317</ele>
<time>2022-05-25T12:20:20Z</time>
</trkpt>
<trkpt lat="48.251049" lon="10.899872">
<ele>543.317</ele>
<time>2022-05-25T12:20:21Z</time>
</trkpt>
<trkpt lat="48.25106" lon="10.89995">
<ele>543.317</ele>
<time>2022-05-25T12:20:22Z</time>
</trkpt>
<trkpt lat="48.251072" lon="10.900026">
<ele>543.317</ele>
<time>2022-05-25T12:20:23Z</time>
</trkpt>
<trkpt lat="48.251083" lon="10.900102">
<ele>543.317</ele>
<time>2022-05-25T12:20:24Z</time>
</trkpt>
<trkpt lat="48.251095" lon="10.900175">
<ele>543.316</ele>
<time>2022-05-25T12:20:25Z</time>
</trkpt>
<trkpt lat="48.25111" lon="10.900245">
<ele>543.317</ele>
<time>2022-05-25T12:20:26Z</time>
</trkpt>
<trkpt lat="48.251122" lon="10.900311">
<ele>543.317</ele>
<time>2022-05-25T12:20:27Z</time>
</trkpt>
<trkpt lat="48.251133" lon="10.900376">
<ele>543.317</ele>
<time>2022-05-25T12:20:28Z</time>
</trkpt>
<trkpt lat="48.251144" lon="10.900432">
<ele>543.316</ele>
<time>2022-05-25T12:20:29Z</time>
</trkpt>
<trkpt lat="48.251148" lon="10.900481">
<ele>543.317</ele>
<time>2022-05-25T12:20:30Z</time>
</trkpt>
<trkpt lat="48.251137" lon="10.900532">
<ele>543.317</ele>
<time>2022-05-25T12:20:31Z</time>
</trkpt>
<trkpt lat="48.251118" lon="10.900563">
<ele>543.317</ele>
<time>2022-05-25T12:20:32Z</time>
</trkpt>
<trkpt lat="48.25108" lon="10.900571">
<ele>543.317</ele>
<time>2022-05-25T12:20:33Z</time>
</trkpt>
<trkpt lat="48.251038" lon="10.900573">
<ele>543.316</ele>
<time>2022-05-25T12:20:34Z</time>
</trkpt>
<trkpt lat="48.250996" lon="10.900578">
<ele>543.317</ele>
<time>2022-05-25T12:20:35Z</time>
</trkpt>
<trkpt lat="48.250954" lon="10.900581">
<ele>543.316</ele>
<time>2022-05-25T12:20:36Z</time>
</trkpt>
<trkpt lat="48.250908" lon="10.900585">
<ele>543.316</ele>
<time>2022-05-25T12:20:37Z</time>
</trkpt>
<trkpt lat="48.250862" lon="10.900592">
<ele>543.316</ele>
<time>2022-05-25T12:20:38Z</time>
</trkpt>
<trkpt lat="48.250824" lon="10.900599">
<ele>543.317</ele>
<time>2022-05-25T12:20:39Z</time>
</trkpt>
<trkpt lat="48.250778" lon="10.900603">
<ele>543.316</ele>
<time>2022-05-25T12:20:40Z</time>
</trkpt>
<trkpt lat="48.250732" lon="10.90061">
<ele>543.317</ele>
<time>2022-05-25T12:20:41Z</time>
</trkpt>
<trkpt lat="48.250687" lon="10.900619">
<ele>543.317</ele>
<time>2022-05-25T12:20:42Z</time>
</trkpt>
<trkpt lat="48.250641" lon="10.900621">
<ele>543.317</ele>
<time>2022-05-25T12:20:43Z</time>
</trkpt>
<trkpt lat="48.250595" lon="10.900627">
<ele>543.317</ele>
<time>2022-05-25T12:20:44Z</time>
</trkpt>
<trkpt lat="48.250549" lon="10.900634">
<ele>543.317</ele>
<time>2022-05-25T12:20:45Z</time>
</trkpt>
<trkpt lat="48.250504" lon="10.900639">
<ele>543.317</ele>
<time>2022-05-25T12:20:46Z</time>
</trkpt>
<trkpt lat="48.250462" lon="10.900644">
<ele>543.316</ele>
<time>2022-05-25T12:20:47Z</time>
</trkpt>
<trkpt lat="48.250416" lon="10.90065">
<ele>543.317</ele>
<time>2022-05-25T12:20:48Z</time>
</trkpt>
<trkpt lat="48.250374" lon="10.900655">
<ele>543.316</ele>
<time>2022-05-25T12:20:49Z</time>
</trkpt>
<trkpt lat="48.250328" lon="10.900661">
<ele>543.317</ele>
<time>2022-05-25T12:20:50Z</time>
</trkpt>
<trkpt lat="48.250282" lon="10.900663">
<ele>543.317</ele>
<time>2022-05-25T12:20:51Z</time>
</trkpt>
<trkpt lat="48.250237" lon="10.900667">
<ele>543.317</ele>
<time>2022-05-25T12:20:52Z</time>
</trkpt>
<trkpt lat="48.250187" lon="10.900668">
<ele>543.316</ele>
<time>2022-05-25T12:20:53Z</time>
</trkpt>
<trkpt lat="48.250145" lon="10.90067">
<ele>543.317</ele>
<time>2022-05-25T12:20:54Z</time>
</trkpt>
<trkpt lat="48.250092" lon="10.900672">
<ele>543.317</ele>
<time>2022-05-25T12:20:55Z</time>
</trkpt>
<trkpt lat="48.25005" lon="10.900676">
<ele>543.317</ele>
<time>2022-05-25T12:20:56Z</time>
</trkpt>
<trkpt lat="48.250004" lon="10.900678">
<ele>543.317</ele>
<time>2022-05-25T12:20:57Z</time>
</trkpt>
<trkpt lat="48.249954" lon="10.900681">
<ele>543.317</ele>
<time>2022-05-25T12:20:58Z</time>
</trkpt>
<trkpt lat="48.249912" lon="10.900684">
<ele>543.317</ele>
<time>2022-05-25T12:20:59Z</time>
</trkpt>
<trkpt lat="48.249863" lon="10.900686">
<ele>543.317</ele>
<time>2022-05-25T12:21:00Z</time>
</trkpt>
<trkpt lat="48.249821" lon="10.900688">
<ele>543.317</ele>
<time>2022-05-25T12:21:01Z</time>
</trkpt>
<trkpt lat="48.249771" lon="10.900688">
<ele>543.317</ele>
<time>2022-05-25T12:21:02Z</time>
</trkpt>
<trkpt lat="48.249722" lon="10.900686">
<ele>543.317</ele>
<time>2022-05-25T12:21:03Z</time>
</trkpt>
<trkpt lat="48.249676" lon="10.900683">
<ele>543.317</ele>
<time>2022-05-25T12:21:04Z</time>
</trkpt>
<trkpt lat="48.24963" lon="10.90068">
<ele>543.317</ele>
<time>2022-05-25T12:21:05Z</time>
</trkpt>
<trkpt lat="48.249588" lon="10.90068">
<ele>543.317</ele>
<time>2022-05-25T12:21:06Z</time>
</trkpt>
<trkpt lat="48.249538" lon="10.900677">
<ele>543.317</ele>
<time>2022-05-25T12:21:07Z</time>
</trkpt>
<trkpt lat="48.249493" lon="10.90067">
<ele>543.317</ele>
<time>2022-05-25T12:21:08Z</time>
</trkpt>
<trkpt lat="48.249447" lon="10.900661">
<ele>543.51</ele>
<time>2022-05-25T12:21:09Z</time>
</trkpt>
<trkpt lat="48.249397" lon="10.90065">
<ele>543.693</ele>
<time>2022-05-25T12:21:10Z</time>
</trkpt>
<trkpt lat="48.249352" lon="10.900639">
<ele>543.845</ele>
<time>2022-05-25T12:21:11Z</time>
</trkpt>
<trkpt lat="48.249302" lon="10.900625">
<ele>543.967</ele>
<time>2022-05-25T12:21:12Z</time>
</trkpt>
<trkpt lat="48.249256" lon="10.900606">
<ele>544.06</ele>
<time>2022-05-25T12:21:13Z</time>
</trkpt>
<trkpt lat="48.249207" lon="10.90059">
<ele>544.125</ele>
<time>2022-05-25T12:21:14Z</time>
</trkpt>
<trkpt lat="48.249165" lon="10.900575">
<ele>544.168</ele>
<time>2022-05-25T12:21:15Z</time>
</trkpt>
<trkpt lat="48.249111" lon="10.90056">
<ele>544.188</ele>
<time>2022-05-25T12:21:16Z</time>
</trkpt>
<trkpt lat="48.249069" lon="10.900543">
<ele>544.188</ele>
<time>2022-05-25T12:21:17Z</time>
</trkpt>
<trkpt lat="48.24902" lon="10.900525">
<ele>544.188</ele>
<time>2022-05-25T12:21:18Z</time>
</trkpt>
<trkpt lat="48.248974" lon="10.900508">
<ele>544.188</ele>
<time>2022-05-25T12:21:19Z</time>
</trkpt>
<trkpt lat="48.248924" lon="10.90049">
<ele>544.188</ele>
<time>2022-05-25T12:21:20Z</time>
</trkpt>
<trkpt lat="48.248875" lon="10.900475">
<ele>544.188</ele>
<time>2022-05-25T12:21:21Z</time>
</trkpt>
<trkpt lat="48.248829" lon="10.900456">
<ele>544.188</ele>
<time>2022-05-25T12:21:22Z</time>
</trkpt>
<trkpt lat="48.248779" lon="10.90044">
<ele>544.188</ele>
<time>2022-05-25T12:21:23Z</time>
</trkpt>
<trkpt lat="48.24873" lon="10.900422">
<ele>544.188</ele>
<time>2022-05-25T12:21:24Z</time>
</trkpt>
<trkpt lat="48.24868" lon="10.900405">
<ele>544.188</ele>
<time>2022-05-25T12:21:25Z</time>
</trkpt>
<trkpt lat="48.248634" lon="10.900391">
<ele>544.188</ele>
<time>2022-05-25T12:21:26Z</time>
</trkpt>
<trkpt lat="48.248585" lon="10.900373">
<ele>544.188</ele>
<time>2022-05-25T12:21:27Z</time>
</trkpt>
<trkpt lat="48.248539" lon="10.900357">
<ele>544.188</ele>
<time>2022-05-25T12:21:28Z</time>
</trkpt>
<trkpt lat="48.248489" lon="10.90034">
<ele>544.188</ele>
<time>2022-05-25T12:21:29Z</time>
</trkpt>
<trkpt lat="48.248444" lon="10.900327">
<ele>544.188</ele>
<time>2022-05-25T12:21:30Z</time>
</trkpt>
<trkpt lat="48.248394" lon="10.900313">
<ele>544.188</ele>
<time>2022-05-25T12:21:31Z</time>
</trkpt>
<trkpt lat="48.248348" lon="10.900302">
<ele>544.188</ele>
<time>2022-05-25T12:21:32Z</time>
</trkpt>
<trkpt lat="48.248299" lon="10.900287">
<ele>544.188</ele>
<time>2022-05-25T12:21:33Z</time>
</trkpt>
<trkpt lat="48.248253" lon="10.900271">
<ele>544.188</ele>
<time>2022-05-25T12:21:34Z</time>
</trkpt>
<trkpt lat="48.248203" lon="10.900258">
<ele>544.188</ele>
<time>2022-05-25T12:21:35Z</time>
</trkpt>
<trkpt lat="48.248158" lon="10.900245">
<ele>544.188</ele>
<time>2022-05-25T12:21:36Z</time>
</trkpt>
<trkpt lat="48.248112" lon="10.900231">
<ele>544.188</ele>
<time>2022-05-25T12:21:37Z</time>
</trkpt>
<trkpt lat="48.248062" lon="10.900219">
<ele>544.188</ele>
<time>2022-05-25T12:21:38Z</time>
</trkpt>
<trkpt lat="48.248016" lon="10.900205">
<ele>544.188</ele>
<time>2022-05-25T12:21:39Z</time>
</trkpt>
<trkpt lat="48.247967" lon="10.900191">
<ele>544.188</ele>
<time>2022-05-25T12:21:40Z</time>
</trkpt>
<trkpt lat="48.247917" lon="10.90018">
<ele>544.188</ele>
<time>2022-05-25T12:21:41Z</time>
</trkpt>
<trkpt lat="48.247868" lon="10.900165">
<ele>544.188</ele>
<time>2022-05-25T12:21:42Z</time>
</trkpt>
<trkpt lat="48.247822" lon="10.900152">
<ele>544.188</ele>
<time>2022-05-25T12:21:43Z</time>
</trkpt>
<trkpt lat="48.247776" lon="10.900137">
<ele>544.188</ele>
<time>2022-05-25T12:21:44Z</time>
</trkpt>
<trkpt lat="48.24773" lon="10.900122">
<ele>544.188</ele>
<time>2022-05-25T12:21:45Z</time>
</trkpt>
<trkpt lat="48.247684" lon="10.900105">
<ele>544.188</ele>
<time>2022-05-25T12:21:46Z</time>
</trkpt>
<trkpt lat="48.247635" lon="10.900084">
<ele>544.188</ele>
<time>2022-05-25T12:21:47Z</time>
</trkpt>
<trkpt lat="48.247597" lon="10.90006">
<ele>544.188</ele>
<time>2022-05-25T12:21:48Z</time>
</trkpt>
<trkpt lat="48.247551" lon="10.900042">
<ele>544.188</ele>
<time>2022-05-25T12:21:49Z</time>
</trkpt>
<trkpt lat="48.247505" lon="10.900041">
<ele>544.188</ele>
<time>2022-05-25T12:21:50Z</time>
</trkpt>
<trkpt lat="48.247463" lon="10.900053">
<ele>544.188</ele>
<time>2022-05-25T12:21:51Z</time>
</trkpt>
<trkpt lat="48.247433" lon="10.900088">
<ele>544.188</ele>
<time>2022-05-25T12:21:52Z</time>
</trkpt>
<trkpt lat="48.247414" lon="10.900139">
<ele>544.188</ele>
<time>2022-05-25T12:21:53Z</time>
</trkpt>
<trkpt lat="48.247406" lon="10.900198">
<ele>544.188</ele>
<time>2022-05-25T12:21:54Z</time>
</trkpt>
<trkpt lat="48.247406" lon="10.900261">
<ele>544.188</ele>
<time>2022-05-25T12:21:55Z</time>
</trkpt>
<trkpt lat="48.247406" lon="10.900322">
<ele>544.188</ele>
<time>2022-05-25T12:21:56Z</time>
</trkpt>
<trkpt lat="48.247406" lon="10.900387">
<ele>544.188</ele>
<time>2022-05-25T12:21:57Z</time>
</trkpt>
<trkpt lat="48.24741" lon="10.900456">
<ele>544.188</ele>
<time>2022-05-25T12:21:58Z</time>
</trkpt>
<trkpt lat="48.24741" lon="10.90053">
<ele>544.188</ele>
<time>2022-05-25T12:21:59Z</time>
</trkpt>
<trkpt lat="48.24741" lon="10.900605">
<ele>544.188</ele>
<time>2022-05-25T12:22:00Z</time>
</trkpt>
<trkpt lat="48.24741" lon="10.90068">
<ele>544.188</ele>
<time>2022-05-25T12:22:01Z</time>
</trkpt>
<trkpt lat="48.24741" lon="10.900755">
<ele>544.188</ele>
<time>2022-05-25T12:22:02Z</time>
</trkpt>
<trkpt lat="48.247406" lon="10.90083">
<ele>544.188</ele>
<time>2022-05-25T12:22:03Z</time>
</trkpt>
<trkpt lat="48.247406" lon="10.900907">
<ele>544.188</ele>
<time>2022-05-25T12:22:04Z</time>
</trkpt>
<trkpt lat="48.247406" lon="10.900987">
<ele>544.188</ele>
<time>2022-05-25T12:22:05Z</time>
</trkpt>
<trkpt lat="48.247406" lon="10.901067">
<ele>544.188</ele>
<time>2022-05-25T12:22:06Z</time>
</trkpt>
<trkpt lat="48.247406" lon="10.901147">
<ele>544.188</ele>
<time>2022-05-25T12:22:07Z</time>
</trkpt>
<trkpt lat="48.247406" lon="10.901225">
<ele>544.188</ele>
<time>2022-05-25T12:22:08Z</time>
</trkpt>
<trkpt lat="48.247402" lon="10.901303">
<ele>544.188</ele>
<time>2022-05-25T12:22:09Z</time>
</trkpt>
<trkpt lat="48.247402" lon="10.901383">
<ele>544.188</ele>
<time>2022-05-25T12:22:10Z</time>
</trkpt>
<trkpt lat="48.247402" lon="10.901464">
<ele>544.188</ele>
<time>2022-05-25T12:22:11Z</time>
</trkpt>
<trkpt lat="48.247402" lon="10.901544">
<ele>544.188</ele>
<time>2022-05-25T12:22:12Z</time>
</trkpt>
<trkpt lat="48.247402" lon="10.901625">
<ele>544.188</ele>
<time>2022-05-25T12:22:13Z</time>
</trkpt>
<trkpt lat="48.247398" lon="10.901705">
<ele>544.188</ele>
<time>2022-05-25T12:22:14Z</time>
</trkpt>
<trkpt lat="48.247398" lon="10.901785">
<ele>544.188</ele>
<time>2022-05-25T12:22:15Z</time>
</trkpt>
<trkpt lat="48.247398" lon="10.901863">
<ele>544.188</ele>
<time>2022-05-25T12:22:16Z</time>
</trkpt>
<trkpt lat="48.247398" lon="10.901941">
<ele>544.188</ele>
<time>2022-05-25T12:22:17Z</time>
</trkpt>
<trkpt lat="48.247398" lon="10.902019">
<ele>544.188</ele>
<time>2022-05-25T12:22:18Z</time>
</trkpt>
<trkpt lat="48.247402" lon="10.902095">
<ele>544.188</ele>
<time>2022-05-25T12:22:19Z</time>
</trkpt>
<trkpt lat="48.247402" lon="10.90217">
<ele>544.188</ele>
<time>2022-05-25T12:22:20Z</time>
</trkpt>
<trkpt lat="48.247402" lon="10.902243">
<ele>544.188</ele>
<time>2022-05-25T12:22:21Z</time>
</trkpt>
<trkpt lat="48.247398" lon="10.902313">
<ele>544.188</ele>
<time>2022-05-25T12:22:22Z</time>
</trkpt>
<trkpt lat="48.247387" lon="10.902381">
<ele>544.188</ele>
<time>2022-05-25T12:22:23Z</time>
</trkpt>
<trkpt lat="48.247368" lon="10.902449">
<ele>544.188</ele>
<time>2022-05-25T12:22:24Z</time>
</trkpt>
<trkpt lat="48.247341" lon="10.902509">
<ele>544.188</ele>
<time>2022-05-25T12:22:25Z</time>
</trkpt>
<trkpt lat="48.247299" lon="10.902556">
<ele>544.188</ele>
<time>2022-05-25T12:22:26Z</time>
</trkpt>
<trkpt lat="48.247257" lon="10.902589">
<ele>544.188</ele>
<time>2022-05-25T12:22:27Z</time>
</trkpt>
<trkpt lat="48.247215" lon="10.90261">
<ele>544.188</ele>
<time>2022-05-25T12:22:28Z</time>
</trkpt>
<trkpt lat="48.247173" lon="10.902624">
<ele>544.188</ele>
<time>2022-05-25T12:22:29Z</time>
</trkpt>
<trkpt lat="48.247124" lon="10.902632">
<ele>544.188</ele>
<time>2022-05-25T12:22:30Z</time>
</trkpt>
<trkpt lat="48.247082" lon="10.902638">
<ele>544.188</ele>
<time>2022-05-25T12:22:31Z</time>
</trkpt>
<trkpt lat="48.247032" lon="10.902649">
<ele>544.188</ele>
<time>2022-05-25T12:22:32Z</time>
</trkpt>
<trkpt lat="48.246986" lon="10.902658">
<ele>544.188</ele>
<time>2022-05-25T12:22:33Z</time>
</trkpt>
<trkpt lat="48.246941" lon="10.902666">
<ele>544.188</ele>
<time>2022-05-25T12:22:34Z</time>
</trkpt>
<trkpt lat="48.246895" lon="10.902675">
<ele>544.188</ele>
<time>2022-05-25T12:22:35Z</time>
</trkpt>
<trkpt lat="48.246853" lon="10.902685">
<ele>544.188</ele>
<time>2022-05-25T12:22:36Z</time>
</trkpt>
<trkpt lat="48.246803" lon="10.902695">
<ele>544.188</ele>
<time>2022-05-25T12:22:37Z</time>
</trkpt>
<trkpt lat="48.246758" lon="10.902701">
<ele>544.188</ele>
<time>2022-05-25T12:22:38Z</time>
</trkpt>
<trkpt lat="48.246716" lon="10.902714">
<ele>544.188</ele>
<time>2022-05-25T12:22:39Z</time>
</trkpt>
<trkpt lat="48.246666" lon="10.902725">
<ele>544.188</ele>
<time>2022-05-25T12:22:40Z</time>
</trkpt>
<trkpt lat="48.246624" lon="10.902737">
<ele>544.188</ele>
<time>2022-05-25T12:22:41Z</time>
</trkpt>
<trkpt lat="48.246578" lon="10.902748">
<ele>544.188</ele>
<time>2022-05-25T12:22:42Z</time>
</trkpt>
<trkpt lat="48.246529" lon="10.902757">
<ele>544.188</ele>
<time>2022-05-25T12:22:43Z</time>
</trkpt>
<trkpt lat="48.246487" lon="10.902768">
<ele>544.188</ele>
<time>2022-05-25T12:22:44Z</time>
</trkpt>
<trkpt lat="48.246441" lon="10.902775">
<ele>544.188</ele>
<time>2022-05-25T12:22:45Z</time>
</trkpt>
<trkpt lat="48.246395" lon="10.902783">
<ele>544.188</ele>
<time>2022-05-25T12:22:46Z</time>
</trkpt>
<trkpt lat="48.246353" lon="10.902794">
<ele>544.188</ele>
<time>2022-05-25T12:22:47Z</time>
</trkpt>
<trkpt lat="48.246307" lon="10.902804">
<ele>544.188</ele>
<time>2022-05-25T12:22:48Z</time>
</trkpt>
<trkpt lat="48.246262" lon="10.902817">
<ele>544.188</ele>
<time>2022-05-25T12:22:49Z</time>
</trkpt>
<trkpt lat="48.246216" lon="10.902828">
<ele>544.188</ele>
<time>2022-05-25T12:22:50Z</time>
</trkpt>
<trkpt lat="48.24617" lon="10.90284">
<ele>544.188</ele>
<time>2022-05-25T12:22:51Z</time>
</trkpt>
<trkpt lat="48.246124" lon="10.902853">
<ele>544.188</ele>
<time>2022-05-25T12:22:52Z</time>
</trkpt>
<trkpt lat="48.246078" lon="10.902864">
<ele>544.188</ele>
<time>2022-05-25T12:22:53Z</time>
</trkpt>
<trkpt lat="48.246033" lon="10.902871">
<ele>544.188</ele>
<time>2022-05-25T12:22:54Z</time>
</trkpt>
<trkpt lat="48.245983" lon="10.90288">
<ele>544.188</ele>
<time>2022-05-25T12:22:55Z</time>
</trkpt>
<trkpt lat="48.245941" lon="10.902892">
<ele>544.188</ele>
<time>2022-05-25T12:22:56Z</time>
</trkpt>
<trkpt lat="48.245892" lon="10.902902">
<ele>544.188</ele>
<time>2022-05-25T12:22:57Z</time>
</trkpt>
<trkpt lat="48.245842" lon="10.902911">
<ele>544.188</ele>
<time>2022-05-25T12:22:58Z</time>
</trkpt>
<trkpt lat="48.2458" lon="10.902924">
<ele>544.188</ele>
<time>2022-05-25T12:22:59Z</time>
</trkpt>
<trkpt lat="48.24575" lon="10.902935">
<ele>544.188</ele>
<time>2022-05-25T12:23:00Z</time>
</trkpt>
<trkpt lat="48.245708" lon="10.902948">
<ele>544.188</ele>
<time>2022-05-25T12:23:01Z</time>
</trkpt>
<trkpt lat="48.245663" lon="10.90296">
<ele>544.188</ele>
<time>2022-05-25T12:23:02Z</time>
</trkpt>
<trkpt lat="48.245617" lon="10.90297">
<ele>544.188</ele>
<time>2022-05-25T12:23:03Z</time>
</trkpt>
<trkpt lat="48.245575" lon="10.90298">
<ele>544.188</ele>
<time>2022-05-25T12:23:04Z</time>
</trkpt>
<trkpt lat="48.245529" lon="10.902993">
<ele>544.188</ele>
<time>2022-05-25T12:23:05Z</time>
</trkpt>
<trkpt lat="48.245483" lon="10.903008">
<ele>544.188</ele>
<time>2022-05-25T12:23:06Z</time>
</trkpt>
<trkpt lat="48.245438" lon="10.903022">
<ele>544.188</ele>
<time>2022-05-25T12:23:07Z</time>
</trkpt>
<trkpt lat="48.245388" lon="10.903035">
<ele>544.188</ele>
<time>2022-05-25T12:23:08Z</time>
</trkpt>
<trkpt lat="48.245342" lon="10.903047">
<ele>544.188</ele>
<time>2022-05-25T12:23:09Z</time>
</trkpt>
<trkpt lat="48.245296" lon="10.903056">
<ele>544.188</ele>
<time>2022-05-25T12:23:10Z</time>
</trkpt>
<trkpt lat="48.245255" lon="10.90307">
<ele>544.188</ele>
<time>2022-05-25T12:23:11Z</time>
</trkpt>
<trkpt lat="48.245205" lon="10.903083">
<ele>544.188</ele>
<time>2022-05-25T12:23:12Z</time>
</trkpt>
<trkpt lat="48.245159" lon="10.903093">
<ele>544.188</ele>
<time>2022-05-25T12:23:13Z</time>
</trkpt>
<trkpt lat="48.245113" lon="10.903109">
<ele>544.188</ele>
<time>2022-05-25T12:23:14Z</time>
</trkpt>
<trkpt lat="48.245064" lon="10.903123">
<ele>544.188</ele>
<time>2022-05-25T12:23:15Z</time>
</trkpt>
<trkpt lat="48.245022" lon="10.903137">
<ele>544.188</ele>
<time>2022-05-25T12:23:16Z</time>
</trkpt>
<trkpt lat="48.244976" lon="10.903146">
<ele>544.188</ele>
<time>2022-05-25T12:23:17Z</time>
</trkpt>
<trkpt lat="48.24493" lon="10.903153">
<ele>544.188</ele>
<time>2022-05-25T12:23:18Z</time>
</trkpt>
<trkpt lat="48.244888" lon="10.903163">
<ele>544.188</ele>
<time>2022-05-25T12:23:19Z</time>
</trkpt>
<trkpt lat="48.244843" lon="10.903175">
<ele>544.188</ele>
<time>2022-05-25T12:23:20Z</time>
</trkpt>
<trkpt lat="48.244801" lon="10.903185">
<ele>544.188</ele>
<time>2022-05-25T12:23:21Z</time>
</trkpt>
<trkpt lat="48.244751" lon="10.903198">
<ele>544.188</ele>
<time>2022-05-25T12:23:22Z</time>
</trkpt>
<trkpt lat="48.244705" lon="10.903211">
<ele>544.188</ele>
<time>2022-05-25T12:23:23Z</time>
</trkpt>
<trkpt lat="48.244659" lon="10.903221">
<ele>544.188</ele>
<time>2022-05-25T12:23:24Z</time>
</trkpt>
<trkpt lat="48.24461" lon="10.903236">
<ele>544.188</ele>
<time>2022-05-25T12:23:25Z</time>
</trkpt>
<trkpt lat="48.244568" lon="10.903252">
<ele>544.188</ele>
<time>2022-05-25T12:23:26Z</time>
</trkpt>
<trkpt lat="48.244518" lon="10.903263">
<ele>544.188</ele>
<time>2022-05-25T12:23:27Z</time>
</trkpt>
<trkpt lat="48.244473" lon="10.903275">
<ele>544.188</ele>
<time>2022-05-25T12:23:28Z</time>
</trkpt>
<trkpt lat="48.244427" lon="10.903285">
<ele>544.188</ele>
<time>2022-05-25T12:23:29Z</time>
</trkpt>
<trkpt lat="48.244377" lon="10.903293">
<ele>544.188</ele>
<time>2022-05-25T12:23:30Z</time>
</trkpt>
<trkpt lat="48.244331" lon="10.903301">
<ele>544.476</ele>
<time>2022-05-25T12:23:31Z</time>
</trkpt>
<trkpt lat="48.244282" lon="10.903314">
<ele>544.696</ele>
<time>2022-05-25T12:23:32Z</time>
</trkpt>
<trkpt lat="48.244236" lon="10.903326">
<ele>544.861</ele>
<time>2022-05-25T12:23:33Z</time>
</trkpt>
<trkpt lat="48.24419" lon="10.903338">
<ele>544.987</ele>
<time>2022-05-25T12:23:34Z</time>
</trkpt>
<trkpt lat="48.244144" lon="10.90335">
<ele>545.069</ele>
<time>2022-05-25T12:23:35Z</time>
</trkpt>
<trkpt lat="48.244095" lon="10.903361">
<ele>545.122</ele>
<time>2022-05-25T12:23:36Z</time>
</trkpt>
<trkpt lat="48.244049" lon="10.903374">
<ele>545.146</ele>
<time>2022-05-25T12:23:37Z</time>
</trkpt>
<trkpt lat="48.244007" lon="10.903387">
<ele>545.146</ele>
<time>2022-05-25T12:23:38Z</time>
</trkpt>
<trkpt lat="48.243958" lon="10.903399">
<ele>545.146</ele>
<time>2022-05-25T12:23:39Z</time>
</trkpt>
<trkpt lat="48.243912" lon="10.90341">
<ele>545.146</ele>
<time>2022-05-25T12:23:40Z</time>
</trkpt>
<trkpt lat="48.243866" lon="10.903419">
<ele>545.146</ele>
<time>2022-05-25T12:23:41Z</time>
</trkpt>
<trkpt lat="48.243816" lon="10.903425">
<ele>545.146</ele>
<time>2022-05-25T12:23:42Z</time>
</trkpt>
<trkpt lat="48.243771" lon="10.90343">
<ele>545.146</ele>
<time>2022-05-25T12:23:43Z</time>
</trkpt>
<trkpt lat="48.243725" lon="10.90343">
<ele>545.146</ele>
<time>2022-05-25T12:23:44Z</time>
</trkpt>
<trkpt lat="48.243687" lon="10.90342">
<ele>545.146</ele>
<time>2022-05-25T12:23:45Z</time>
</trkpt>
<trkpt lat="48.243645" lon="10.90341">
<ele>545.146</ele>
<time>2022-05-25T12:23:46Z</time>
</trkpt>
<trkpt lat="48.243599" lon="10.903397">
<ele>545.146</ele>
<time>2022-05-25T12:23:47Z</time>
</trkpt>
<trkpt lat="48.243557" lon="10.903382">
<ele>545.146</ele>
<time>2022-05-25T12:23:48Z</time>
</trkpt>
<trkpt lat="48.243511" lon="10.903368">
<ele>545.146</ele>
<time>2022-05-25T12:23:49Z</time>
</trkpt>
<trkpt lat="48.243462" lon="10.903357">
<ele>545.146</ele>
<time>2022-05-25T12:23:50Z</time>
</trkpt>
<trkpt lat="48.24342" lon="10.903334">
<ele>545.146</ele>
<time>2022-05-25T12:23:51Z</time>
</trkpt>
<trkpt lat="48.243382" lon="10.903303">
<ele>545.146</ele>
<time>2022-05-25T12:23:52Z</time>
</trkpt>
<trkpt lat="48.24334" lon="10.90327">
<ele>545.146</ele>
<time>2022-05-25T12:23:53Z</time>
</trkpt>
<trkpt lat="48.243301" lon="10.903236">
<ele>545.146</ele>
<time>2022-05-25T12:23:54Z</time>
</trkpt>
<trkpt lat="48.243263" lon="10.9032">
<ele>545.146</ele>
<time>2022-05-25T12:23:55Z</time>
</trkpt>
<trkpt lat="48.243225" lon="10.903163">
<ele>545.391</ele>
<time>2022-05-25T12:23:56Z</time>
</trkpt>
<trkpt lat="48.243187" lon="10.903125">
<ele>545.583</ele>
<time>2022-05-25T12:23:57Z</time>
</trkpt>
<trkpt lat="48.243149" lon="10.903085">
<ele>545.735</ele>
<time>2022-05-25T12:23:58Z</time>
</trkpt>
<trkpt lat="48.243111" lon="10.903047">
<ele>545.836</ele>
<time>2022-05-25T12:23:59Z</time>
</trkpt>
<trkpt lat="48.243073" lon="10.903013">
<ele>545.95</ele>
<time>2022-05-25T12:24:00Z</time>
</trkpt>
<trkpt lat="48.243031" lon="10.902982">
<ele>546.029</ele>
<time>2022-05-25T12:24:01Z</time>
</trkpt>
<trkpt lat="48.242985" lon="10.902951">
<ele>546.08</ele>
<time>2022-05-25T12:24:02Z</time>
</trkpt>
<trkpt lat="48.242943" lon="10.902924">
<ele>546.104</ele>
<time>2022-05-25T12:24:03Z</time>
</trkpt>
<trkpt lat="48.242901" lon="10.902895">
<ele>546.104</ele>
<time>2022-05-25T12:24:04Z</time>
</trkpt>
<trkpt lat="48.242855" lon="10.902869">
<ele>546.104</ele>
<time>2022-05-25T12:24:05Z</time>
</trkpt>
<trkpt lat="48.242809" lon="10.902842">
<ele>546.104</ele>
<time>2022-05-25T12:24:06Z</time>
</trkpt>
<trkpt lat="48.242764" lon="10.902819">
<ele>546.104</ele>
<time>2022-05-25T12:24:07Z</time>
</trkpt>
<trkpt lat="48.242718" lon="10.902799">
<ele>546.104</ele>
<time>2022-05-25T12:24:08Z</time>
</trkpt>
<trkpt lat="48.242676" lon="10.902779">
<ele>546.104</ele>
<time>2022-05-25T12:24:09Z</time>
</trkpt>
<trkpt lat="48.242626" lon="10.902761">
<ele>546.104</ele>
<time>2022-05-25T12:24:10Z</time>
</trkpt>
<trkpt lat="48.24258" lon="10.902741">
<ele>546.104</ele>
<time>2022-05-25T12:24:11Z</time>
</trkpt>
<trkpt lat="48.242531" lon="10.902727">
<ele>546.104</ele>
<time>2022-05-25T12:24:12Z</time>
</trkpt>
<trkpt lat="48.242485" lon="10.902712">
<ele>546.104</ele>
<time>2022-05-25T12:24:13Z</time>
</trkpt>
<trkpt lat="48.242435" lon="10.902695">
<ele>546.104</ele>
<time>2022-05-25T12:24:14Z</time>
</trkpt>
<trkpt lat="48.24239" lon="10.902678">
<ele>546.104</ele>
<time>2022-05-25T12:24:15Z</time>
</trkpt>
<trkpt lat="48.242344" lon="10.902663">
<ele>546.104</ele>
<time>2022-05-25T12:24:16Z</time>
</trkpt>
<trkpt lat="48.242294" lon="10.902645">
<ele>546.104</ele>
<time>2022-05-25T12:24:17Z</time>
</trkpt>
<trkpt lat="48.242252" lon="10.902628">
<ele>546.104</ele>
<time>2022-05-25T12:24:18Z</time>
</trkpt>
<trkpt lat="48.242203" lon="10.902612">
<ele>546.104</ele>
<time>2022-05-25T12:24:19Z</time>
</trkpt>
<trkpt lat="48.242153" lon="10.902595">
<ele>546.104</ele>
<time>2022-05-25T12:24:20Z</time>
</trkpt>
<trkpt lat="48.242104" lon="10.902578">
<ele>546.104</ele>
<time>2022-05-25T12:24:21Z</time>
</trkpt>
<trkpt lat="48.242058" lon="10.902563">
<ele>546.104</ele>
<time>2022-05-25T12:24:22Z</time>
</trkpt>
<trkpt lat="48.242004" lon="10.902551">
<ele>546.104</ele>
<time>2022-05-25T12:24:23Z</time>
</trkpt>
<trkpt lat="48.241959" lon="10.902534">
<ele>546.104</ele>
<time>2022-05-25T12:24:24Z</time>
</trkpt>
<trkpt lat="48.241905" lon="10.902518">
<ele>546.104</ele>
<time>2022-05-25T12:24:25Z</time>
</trkpt>
<trkpt lat="48.241859" lon="10.902503">
<ele>546.104</ele>
<time>2022-05-25T12:24:26Z</time>
</trkpt>
<trkpt lat="48.241806" lon="10.902486">
<ele>546.104</ele>
<time>2022-05-25T12:24:27Z</time>
</trkpt>
<trkpt lat="48.24176" lon="10.90247">
<ele>546.104</ele>
<time>2022-05-25T12:24:28Z</time>
</trkpt>
<trkpt lat="48.241711" lon="10.902453">
<ele>546.104</ele>
<time>2022-05-25T12:24:29Z</time>
</trkpt>
<trkpt lat="48.241665" lon="10.902437">
<ele>546.104</ele>
<time>2022-05-25T12:24:30Z</time>
</trkpt>
<trkpt lat="48.241611" lon="10.90242">
<ele>546.104</ele>
<time>2022-05-25T12:24:31Z</time>
</trkpt>
<trkpt lat="48.241566" lon="10.902404">
<ele>546.104</ele>
<time>2022-05-25T12:24:32Z</time>
</trkpt>
<trkpt lat="48.241516" lon="10.902387">
<ele>546.104</ele>
<time>2022-05-25T12:24:33Z</time>
</trkpt>
<trkpt lat="48.241474" lon="10.902375">
<ele>546.104</ele>
<time>2022-05-25T12:24:34Z</time>
</trkpt>
<trkpt lat="48.241428" lon="10.902362">
<ele>546.104</ele>
<time>2022-05-25T12:24:35Z</time>
</trkpt>
<trkpt lat="48.241383" lon="10.902348">
<ele>546.104</ele>
<time>2022-05-25T12:24:36Z</time>
</trkpt>
<trkpt lat="48.241341" lon="10.902331">
<ele>546.104</ele>
<time>2022-05-25T12:24:37Z</time>
</trkpt>
<trkpt lat="48.241291" lon="10.902314">
<ele>546.104</ele>
<time>2022-05-25T12:24:38Z</time>
</trkpt>
<trkpt lat="48.241245" lon="10.902298">
<ele>546.104</ele>
<time>2022-05-25T12:24:39Z</time>
</trkpt>
<trkpt lat="48.241196" lon="10.902282">
<ele>546.104</ele>
<time>2022-05-25T12:24:40Z</time>
</trkpt>
<trkpt lat="48.241154" lon="10.902258">
<ele>546.104</ele>
<time>2022-05-25T12:24:41Z</time>
</trkpt>
<trkpt lat="48.241112" lon="10.902235">
<ele>546.104</ele>
<time>2022-05-25T12:24:42Z</time>
</trkpt>
<trkpt lat="48.24107" lon="10.902215">
<ele>546.104</ele>
<time>2022-05-25T12:24:43Z</time>
</trkpt>
<trkpt lat="48.241028" lon="10.902195">
<ele>546.104</ele>
<time>2022-05-25T12:24:44Z</time>
</trkpt>
<trkpt lat="48.240986" lon="10.902175">
<ele>546.104</ele>
<time>2022-05-25T12:24:45Z</time>
</trkpt>
<trkpt lat="48.24094" lon="10.902157">
<ele>546.104</ele>
<time>2022-05-25T12:24:46Z</time>
</trkpt>
<trkpt lat="48.240894" lon="10.902137">
<ele>546.104</ele>
<time>2022-05-25T12:24:47Z</time>
</trkpt>
<trkpt lat="48.240852" lon="10.902119">
<ele>546.104</ele>
<time>2022-05-25T12:24:48Z</time>
</trkpt>
<trkpt lat="48.24081" lon="10.902095">
<ele>546.104</ele>
<time>2022-05-25T12:24:49Z</time>
</trkpt>
<trkpt lat="48.240765" lon="10.902079">
<ele>546.104</ele>
<time>2022-05-25T12:24:50Z</time>
</trkpt>
<trkpt lat="48.240723" lon="10.902065">
<ele>546.366</ele>
<time>2022-05-25T12:24:51Z</time>
</trkpt>
<trkpt lat="48.240673" lon="10.902052">
<ele>546.566</ele>
<time>2022-05-25T12:24:52Z</time>
</trkpt>
<trkpt lat="48.240627" lon="10.902032">
<ele>546.716</ele>
<time>2022-05-25T12:24:53Z</time>
</trkpt>
<trkpt lat="48.240582" lon="10.902008">
<ele>546.826</ele>
<time>2022-05-25T12:24:54Z</time>
</trkpt>
<trkpt lat="48.240536" lon="10.901989">
<ele>546.903</ele>
<time>2022-05-25T12:24:55Z</time>
</trkpt>
<trkpt lat="48.240486" lon="10.90197">
<ele>546.95</ele>
<time>2022-05-25T12:24:56Z</time>
</trkpt>
<trkpt lat="48.240437" lon="10.901952">
<ele>546.976</ele>
<time>2022-05-25T12:24:57Z</time>
</trkpt>
<trkpt lat="48.240395" lon="10.901935">
<ele>546.976</ele>
<time>2022-05-25T12:24:58Z</time>
</trkpt>
<trkpt lat="48.240341" lon="10.901914">
<ele>546.976</ele>
<time>2022-05-25T12:24:59Z</time>
</trkpt>
<trkpt lat="48.240295" lon="10.901891">
<ele>546.976</ele>
<time>2022-05-25T12:25:00Z</time>
</trkpt>
<trkpt lat="48.24025" lon="10.90187">
<ele>546.975</ele>
<time>2022-05-25T12:25:01Z</time>
</trkpt>
<trkpt lat="48.240204" lon="10.90185">
<ele>546.975</ele>
<time>2022-05-25T12:25:02Z</time>
</trkpt>
<trkpt lat="48.240154" lon="10.901828">
<ele>546.975</ele>
<time>2022-05-25T12:25:03Z</time>
</trkpt>
<trkpt lat="48.240108" lon="10.901809">
<ele>546.975</ele>
<time>2022-05-25T12:25:04Z</time>
</trkpt>
<trkpt lat="48.240063" lon="10.901793">
<ele>546.975</ele>
<time>2022-05-25T12:25:05Z</time>
</trkpt>
<trkpt lat="48.240013" lon="10.90178">
<ele>546.975</ele>
<time>2022-05-25T12:25:06Z</time>
</trkpt>
<trkpt lat="48.239971" lon="10.901767">
<ele>546.975</ele>
<time>2022-05-25T12:25:07Z</time>
</trkpt>
<trkpt lat="48.239922" lon="10.901754">
<ele>546.975</ele>
<time>2022-05-25T12:25:08Z</time>
</trkpt>
<trkpt lat="48.239876" lon="10.901738">
<ele>546.975</ele>
<time>2022-05-25T12:25:09Z</time>
</trkpt>
<trkpt lat="48.239834" lon="10.901725">
<ele>546.975</ele>
<time>2022-05-25T12:25:10Z</time>
</trkpt>
<trkpt lat="48.239784" lon="10.901715">
<ele>546.975</ele>
<time>2022-05-25T12:25:11Z</time>
</trkpt>
<trkpt lat="48.239742" lon="10.901709">
<ele>546.975</ele>
<time>2022-05-25T12:25:12Z</time>
</trkpt>
<trkpt lat="48.239693" lon="10.901705">
<ele>546.975</ele>
<time>2022-05-25T12:25:13Z</time>
</trkpt>
<trkpt lat="48.239647" lon="10.901703">
<ele>546.975</ele>
<time>2022-05-25T12:25:14Z</time>
</trkpt>
<trkpt lat="48.239597" lon="10.901698">
<ele>546.975</ele>
<time>2022-05-25T12:25:15Z</time>
</trkpt>
<trkpt lat="48.239552" lon="10.901693">
<ele>546.976</ele>
<time>2022-05-25T12:25:16Z</time>
</trkpt>
<trkpt lat="48.239506" lon="10.901687">
<ele>546.975</ele>
<time>2022-05-25T12:25:17Z</time>
</trkpt>
<trkpt lat="48.239456" lon="10.901684">
<ele>546.975</ele>
<time>2022-05-25T12:25:18Z</time>
</trkpt>
<trkpt lat="48.23941" lon="10.901682">
<ele>546.975</ele>
<time>2022-05-25T12:25:19Z</time>
</trkpt>
<trkpt lat="48.239361" lon="10.901675">
<ele>546.975</ele>
<time>2022-05-25T12:25:20Z</time>
</trkpt>
<trkpt lat="48.239319" lon="10.901667">
<ele>546.975</ele>
<time>2022-05-25T12:25:21Z</time>
</trkpt>
<trkpt lat="48.239273" lon="10.901656">
<ele>546.975</ele>
<time>2022-05-25T12:25:22Z</time>
</trkpt>
<trkpt lat="48.239227" lon="10.901651">
<ele>546.976</ele>
<time>2022-05-25T12:25:23Z</time>
</trkpt>
<trkpt lat="48.239185" lon="10.901649">
<ele>546.975</ele>
<time>2022-05-25T12:25:24Z</time>
</trkpt>
<trkpt lat="48.23914" lon="10.901642">
<ele>546.975</ele>
<time>2022-05-25T12:25:25Z</time>
</trkpt>
<trkpt lat="48.239094" lon="10.901637">
<ele>546.975</ele>
<time>2022-05-25T12:25:26Z</time>
</trkpt>
<trkpt lat="48.239052" lon="10.901635">
<ele>546.975</ele>
<time>2022-05-25T12:25:27Z</time>
</trkpt>
<trkpt lat="48.239002" lon="10.901633">
<ele>546.975</ele>
<time>2022-05-25T12:25:28Z</time>
</trkpt>
<trkpt lat="48.23896" lon="10.901633">
<ele>546.975</ele>
<time>2022-05-25T12:25:29Z</time>
</trkpt>
<trkpt lat="48.238914" lon="10.901638">
<ele>546.975</ele>
<time>2022-05-25T12:25:30Z</time>
</trkpt>
<trkpt lat="48.238865" lon="10.901644">
<ele>546.975</ele>
<time>2022-05-25T12:25:31Z</time>
</trkpt>
<trkpt lat="48.238823" lon="10.901649">
<ele>546.975</ele>
<time>2022-05-25T12:25:32Z</time>
</trkpt>
<trkpt lat="48.238777" lon="10.901658">
<ele>546.976</ele>
<time>2022-05-25T12:25:33Z</time>
</trkpt>
<trkpt lat="48.238731" lon="10.901669">
<ele>546.975</ele>
<time>2022-05-25T12:25:34Z</time>
</trkpt>
<trkpt lat="48.238686" lon="10.901677">
<ele>546.975</ele>
<time>2022-05-25T12:25:35Z</time>
</trkpt>
<trkpt lat="48.238636" lon="10.901688">
<ele>546.975</ele>
<time>2022-05-25T12:25:36Z</time>
</trkpt>
<trkpt lat="48.238594" lon="10.901698">
<ele>546.975</ele>
<time>2022-05-25T12:25:37Z</time>
</trkpt>
<trkpt lat="48.238548" lon="10.9017">
<ele>546.975</ele>
<time>2022-05-25T12:25:38Z</time>
</trkpt>
<trkpt lat="48.238506" lon="10.901695">
<ele>546.975</ele>
<time>2022-05-25T12:25:39Z</time>
</trkpt>
<trkpt lat="48.238468" lon="10.901686">
<ele>546.975</ele>
<time>2022-05-25T12:25:40Z</time>
</trkpt>
<trkpt lat="48.238426" lon="10.901675">
<ele>546.975</ele>
<time>2022-05-25T12:25:41Z</time>
</trkpt>
<trkpt lat="48.238388" lon="10.901662">
<ele>546.975</ele>
<time>2022-05-25T12:25:42Z</time>
</trkpt>
<trkpt lat="48.238354" lon="10.901646">
<ele>546.975</ele>
<time>2022-05-25T12:25:43Z</time>
</trkpt>
<trkpt lat="48.238323" lon="10.901631">
<ele>546.975</ele>
<time>2022-05-25T12:25:44Z</time>
</trkpt>
<trkpt lat="48.238293" lon="10.90162">
<ele>546.975</ele>
<time>2022-05-25T12:25:45Z</time>
</trkpt>
<trkpt lat="48.238262" lon="10.901606">
<ele>546.975</ele>
<time>2022-05-25T12:25:46Z</time>
</trkpt>
<trkpt lat="48.238239" lon="10.901593">
<ele>546.976</ele>
<time>2022-05-25T12:25:47Z</time>
</trkpt>
<trkpt lat="48.238213" lon="10.901581">
<ele>546.975</ele>
<time>2022-05-25T12:25:48Z</time>
</trkpt>
<trkpt lat="48.238194" lon="10.901567">
<ele>546.975</ele>
<time>2022-05-25T12:25:49Z</time>
</trkpt>
<trkpt lat="48.238174" lon="10.90156">
<ele>546.975</ele>
<time>2022-05-25T12:25:50Z</time>
</trkpt>
<trkpt lat="48.238152" lon="10.901564">
<ele>546.975</ele>
<time>2022-05-25T12:25:51Z</time>
</trkpt>
<trkpt lat="48.238132" lon="10.901573">
<ele>546.975</ele>
<time>2022-05-25T12:25:52Z</time>
</trkpt>
<trkpt lat="48.238117" lon="10.901595">
<ele>546.976</ele>
<time>2022-05-25T12:25:53Z</time>
</trkpt>
<trkpt lat="48.23811" lon="10.901623">
<ele>546.975</ele>
<time>2022-05-25T12:25:54Z</time>
</trkpt>
<trkpt lat="48.238098" lon="10.901658">
<ele>546.975</ele>
<time>2022-05-25T12:25:55Z</time>
</trkpt>
<trkpt lat="48.238091" lon="10.901696">
<ele>546.975</ele>
<time>2022-05-25T12:25:56Z</time>
</trkpt>
<trkpt lat="48.238087" lon="10.901735">
<ele>546.975</ele>
<time>2022-05-25T12:25:57Z</time>
</trkpt>
<trkpt lat="48.238083" lon="10.901773">
<ele>546.975</ele>
<time>2022-05-25T12:25:58Z</time>
</trkpt>
<trkpt lat="48.238075" lon="10.90181">
<ele>546.975</ele>
<time>2022-05-25T12:25:59Z</time>
</trkpt>
<trkpt lat="48.238068" lon="10.901849">
<ele>546.975</ele>
<time>2022-05-25T12:26:00Z</time>
</trkpt>
<trkpt lat="48.238064" lon="10.901882">
<ele>546.975</ele>
<time>2022-05-25T12:26:01Z</time>
</trkpt>
<trkpt lat="48.238052" lon="10.901914">
<ele>546.975</ele>
<time>2022-05-25T12:26:02Z</time>
</trkpt>
<trkpt lat="48.238041" lon="10.901947">
<ele>546.975</ele>
<time>2022-05-25T12:26:03Z</time>
</trkpt>
<trkpt lat="48.238029" lon="10.901978">
<ele>546.976</ele>
<time>2022-05-25T12:26:04Z</time>
</trkpt>
<trkpt lat="48.238018" lon="10.902008">
<ele>546.975</ele>
<time>2022-05-25T12:26:05Z</time>
</trkpt>
<trkpt lat="48.23801" lon="10.902037">
<ele>546.976</ele>
<time>2022-05-25T12:26:06Z</time>
</trkpt>
<trkpt lat="48.237999" lon="10.902071">
<ele>546.976</ele>
<time>2022-05-25T12:26:07Z</time>
</trkpt>
<trkpt lat="48.237988" lon="10.902102">
<ele>546.976</ele>
<time>2022-05-25T12:26:08Z</time>
</trkpt>
<trkpt lat="48.237976" lon="10.902138">
<ele>546.976</ele>
<time>2022-05-25T12:26:09Z</time>
</trkpt>
<trkpt lat="48.237961" lon="10.902168">
<ele>546.976</ele>
<time>2022-05-25T12:26:10Z</time>
</trkpt>
<trkpt lat="48.237949" lon="10.902201">
<ele>546.975</ele>
<time>2022-05-25T12:26:11Z</time>
</trkpt>
<trkpt lat="48.237934" lon="10.902232">
<ele>546.975</ele>
<time>2022-05-25T12:26:12Z</time>
</trkpt>
<trkpt lat="48.237919" lon="10.902258">
<ele>546.976</ele>
<time>2022-05-25T12:26:13Z</time>
</trkpt>
<trkpt lat="48.237907" lon="10.902282">
<ele>546.975</ele>
<time>2022-05-25T12:26:14Z</time>
</trkpt>
<trkpt lat="48.237888" lon="10.90231">
<ele>546.75</ele>
<time>2022-05-25T12:26:15Z</time>
</trkpt>
<trkpt lat="48.237869" lon="10.902351">
<ele>546.567</ele>
<time>2022-05-25T12:26:16Z</time>
</trkpt>
<trkpt lat="48.237854" lon="10.902387">
<ele>546.424</ele>
<time>2022-05-25T12:26:17Z</time>
</trkpt>
<trkpt lat="48.237843" lon="10.90242">
<ele>546.317</ele>
<time>2022-05-25T12:26:18Z</time>
</trkpt>
<trkpt lat="48.237827" lon="10.902458">
<ele>546.248</ele>
<time>2022-05-25T12:26:19Z</time>
</trkpt>
<trkpt lat="48.23782" lon="10.902498">
<ele>546.171</ele>
<time>2022-05-25T12:26:20Z</time>
</trkpt>
<trkpt lat="48.237808" lon="10.902536">
<ele>546.124</ele>
<time>2022-05-25T12:26:21Z</time>
</trkpt>
<trkpt lat="48.237797" lon="10.902565">
<ele>546.104</ele>
<time>2022-05-25T12:26:22Z</time>
</trkpt>
<trkpt lat="48.237789" lon="10.902591">
<ele>546.104</ele>
<time>2022-05-25T12:26:23Z</time>
</trkpt>
<trkpt lat="48.237785" lon="10.902614">
<ele>546.104</ele>
<time>2022-05-25T12:26:24Z</time>
</trkpt>
<trkpt lat="48.237774" lon="10.902645">
<ele>546.104</ele>
<time>2022-05-25T12:26:25Z</time>
</trkpt>
<trkpt lat="48.23777" lon="10.902675">
<ele>546.104</ele>
<time>2022-05-25T12:26:26Z</time>
</trkpt>
<trkpt lat="48.237755" lon="10.902722">
<ele>546.104</ele>
<time>2022-05-25T12:26:27Z</time>
</trkpt>
<trkpt lat="48.237743" lon="10.902762">
<ele>546.104</ele>
<time>2022-05-25T12:26:28Z</time>
</trkpt>
<trkpt lat="48.237732" lon="10.902799">
<ele>546.104</ele>
<time>2022-05-25T12:26:29Z</time>
</trkpt>
<trkpt lat="48.237728" lon="10.902817">
<ele>546.104</ele>
<time>2022-05-25T12:26:30Z</time>
</trkpt>
<trkpt lat="48.237724" lon="10.902823">
<ele>546.104</ele>
<time>2022-05-25T12:26:31Z</time>
</trkpt>
<trkpt lat="48.237724" lon="10.902835">
<ele>546.104</ele>
<time>2022-05-25T12:26:32Z</time>
</trkpt>
<trkpt lat="48.237698" lon="10.902946">
<ele>546.104</ele>
<time>2022-05-25T12:27:19Z</time>
</trkpt>
<trkpt lat="48.237698" lon="10.902966">
<ele>546.104</ele>
<time>2022-05-25T12:27:20Z</time>
</trkpt>
<trkpt lat="48.237701" lon="10.90299">
<ele>546.104</ele>
<time>2022-05-25T12:27:21Z</time>
</trkpt>
<trkpt lat="48.237701" lon="10.90302">
<ele>546.104</ele>
<time>2022-05-25T12:27:22Z</time>
</trkpt>
<trkpt lat="48.237701" lon="10.903053">
<ele>546.104</ele>
<time>2022-05-25T12:27:23Z</time>
</trkpt>
<trkpt lat="48.237701" lon="10.903083">
<ele>546.104</ele>
<time>2022-05-25T12:27:24Z</time>
</trkpt>
<trkpt lat="48.237701" lon="10.903118">
<ele>546.104</ele>
<time>2022-05-25T12:27:25Z</time>
</trkpt>
<trkpt lat="48.237701" lon="10.903153">
<ele>546.104</ele>
<time>2022-05-25T12:27:26Z</time>
</trkpt>
<trkpt lat="48.237705" lon="10.903192">
<ele>546.104</ele>
<time>2022-05-25T12:27:27Z</time>
</trkpt>
<trkpt lat="48.237713" lon="10.903234">
<ele>546.104</ele>
<time>2022-05-25T12:27:28Z</time>
</trkpt>
<trkpt lat="48.237713" lon="10.903275">
<ele>546.104</ele>
<time>2022-05-25T12:27:29Z</time>
</trkpt>
<trkpt lat="48.237717" lon="10.903318">
<ele>546.104</ele>
<time>2022-05-25T12:27:30Z</time>
</trkpt>
<trkpt lat="48.237717" lon="10.903359">
<ele>546.104</ele>
<time>2022-05-25T12:27:31Z</time>
</trkpt>
<trkpt lat="48.237724" lon="10.903403">
<ele>546.104</ele>
<time>2022-05-25T12:27:32Z</time>
</trkpt>
<trkpt lat="48.237728" lon="10.903448">
<ele>546.104</ele>
<time>2022-05-25T12:27:33Z</time>
</trkpt>
<trkpt lat="48.237751" lon="10.90349">
<ele>546.104</ele>
<time>2022-05-25T12:27:34Z</time>
</trkpt>
<trkpt lat="48.23777" lon="10.903527">
<ele>546.104</ele>
<time>2022-05-25T12:27:35Z</time>
</trkpt>
<trkpt lat="48.237782" lon="10.903568">
<ele>546.104</ele>
<time>2022-05-25T12:27:36Z</time>
</trkpt>
<trkpt lat="48.237801" lon="10.90361">
<ele>546.104</ele>
<time>2022-05-25T12:27:37Z</time>
</trkpt>
<trkpt lat="48.237812" lon="10.903655">
<ele>546.104</ele>
<time>2022-05-25T12:27:38Z</time>
</trkpt>
<trkpt lat="48.237823" lon="10.903693">
<ele>546.104</ele>
<time>2022-05-25T12:27:39Z</time>
</trkpt>
<trkpt lat="48.237827" lon="10.903728">
<ele>546.104</ele>
<time>2022-05-25T12:27:40Z</time>
</trkpt>
<trkpt lat="48.237835" lon="10.903758">
<ele>546.104</ele>
<time>2022-05-25T12:27:41Z</time>
</trkpt>
<trkpt lat="48.237843" lon="10.903785">
<ele>546.309</ele>
<time>2022-05-25T12:27:42Z</time>
</trkpt>
<trkpt lat="48.237846" lon="10.903813">
<ele>546.475</ele>
<time>2022-05-25T12:27:43Z</time>
</trkpt>
<trkpt lat="48.237846" lon="10.903845">
<ele>546.606</ele>
<time>2022-05-25T12:27:44Z</time>
</trkpt>
<trkpt lat="48.23785" lon="10.903875">
<ele>546.7</ele>
<time>2022-05-25T12:27:45Z</time>
</trkpt>
<trkpt lat="48.237846" lon="10.9039">
<ele>546.808</ele>
<time>2022-05-25T12:27:46Z</time>
</trkpt>
<trkpt lat="48.237846" lon="10.903921">
<ele>546.894</ele>
<time>2022-05-25T12:27:47Z</time>
</trkpt>
<trkpt lat="48.23785" lon="10.90393">
<ele>546.949</ele>
<time>2022-05-25T12:27:48Z</time>
</trkpt>
<trkpt lat="48.23785" lon="10.903935">
<ele>546.975</ele>
<time>2022-05-25T12:27:49Z</time>
</trkpt>
<trkpt lat="48.237854" lon="10.90394">
<ele>546.975</ele>
<time>2022-05-25T12:27:50Z</time>
</trkpt>
<trkpt lat="48.237839" lon="10.904037">
<ele>546.975</ele>
<time>2022-05-25T12:33:32Z</time>
</trkpt>
<trkpt lat="48.237835" lon="10.904058">
<ele>546.975</ele>
<time>2022-05-25T12:33:33Z</time>
</trkpt>
<trkpt lat="48.237835" lon="10.904097">
<ele>546.976</ele>
<time>2022-05-25T12:33:34Z</time>
</trkpt>
<trkpt lat="48.237831" lon="10.904135">
<ele>546.976</ele>
<time>2022-05-25T12:33:35Z</time>
</trkpt>
<trkpt lat="48.237827" lon="10.904181">
<ele>546.976</ele>
<time>2022-05-25T12:33:36Z</time>
</trkpt>
<trkpt lat="48.237823" lon="10.904233">
<ele>546.976</ele>
<time>2022-05-25T12:33:37Z</time>
</trkpt>
<trkpt lat="48.237812" lon="10.904296">
<ele>546.975</ele>
<time>2022-05-25T12:33:38Z</time>
</trkpt>
<trkpt lat="48.237804" lon="10.904366">
<ele>546.976</ele>
<time>2022-05-25T12:33:39Z</time>
</trkpt>
<trkpt lat="48.237797" lon="10.90444">
<ele>546.975</ele>
<time>2022-05-25T12:33:40Z</time>
</trkpt>
<trkpt lat="48.237789" lon="10.904522">
<ele>546.975</ele>
<time>2022-05-25T12:33:41Z</time>
</trkpt>
<trkpt lat="48.237789" lon="10.904598">
<ele>546.976</ele>
<time>2022-05-25T12:33:42Z</time>
</trkpt>
<trkpt lat="48.237785" lon="10.904674">
<ele>546.975</ele>
<time>2022-05-25T12:33:43Z</time>
</trkpt>
<trkpt lat="48.237778" lon="10.904747">
<ele>546.975</ele>
<time>2022-05-25T12:33:44Z</time>
</trkpt>
<trkpt lat="48.237762" lon="10.904819">
<ele>546.975</ele>
<time>2022-05-25T12:33:45Z</time>
</trkpt>
<trkpt lat="48.237751" lon="10.904893">
<ele>546.975</ele>
<time>2022-05-25T12:33:46Z</time>
</trkpt>
<trkpt lat="48.23774" lon="10.904968">
<ele>546.975</ele>
<time>2022-05-25T12:33:47Z</time>
</trkpt>
<trkpt lat="48.237728" lon="10.905045">
<ele>546.975</ele>
<time>2022-05-25T12:33:48Z</time>
</trkpt>
<trkpt lat="48.237717" lon="10.905126">
<ele>546.976</ele>
<time>2022-05-25T12:33:49Z</time>
</trkpt>
<trkpt lat="48.237705" lon="10.905205">
<ele>546.975</ele>
<time>2022-05-25T12:33:50Z</time>
</trkpt>
<trkpt lat="48.237694" lon="10.905285">
<ele>546.975</ele>
<time>2022-05-25T12:33:51Z</time>
</trkpt>
<trkpt lat="48.237686" lon="10.905365">
<ele>546.976</ele>
<time>2022-05-25T12:33:52Z</time>
</trkpt>
<trkpt lat="48.237679" lon="10.905444">
<ele>546.975</ele>
<time>2022-05-25T12:33:53Z</time>
</trkpt>
<trkpt lat="48.237667" lon="10.905525">
<ele>546.975</ele>
<time>2022-05-25T12:33:54Z</time>
</trkpt>
<trkpt lat="48.237659" lon="10.905605">
<ele>546.975</ele>
<time>2022-05-25T12:33:55Z</time>
</trkpt>
<trkpt lat="48.237652" lon="10.905684">
<ele>546.975</ele>
<time>2022-05-25T12:33:56Z</time>
</trkpt>
<trkpt lat="48.23764" lon="10.90576">
<ele>546.975</ele>
<time>2022-05-25T12:33:57Z</time>
</trkpt>
<trkpt lat="48.237629" lon="10.905835">
<ele>546.975</ele>
<time>2022-05-25T12:33:58Z</time>
</trkpt>
<trkpt lat="48.237621" lon="10.90591">
<ele>546.975</ele>
<time>2022-05-25T12:33:59Z</time>
</trkpt>
<trkpt lat="48.23761" lon="10.905985">
<ele>546.975</ele>
<time>2022-05-25T12:34:00Z</time>
</trkpt>
<trkpt lat="48.237598" lon="10.90606">
<ele>546.976</ele>
<time>2022-05-25T12:34:01Z</time>
</trkpt>
<trkpt lat="48.237595" lon="10.906134">
<ele>546.975</ele>
<time>2022-05-25T12:34:02Z</time>
</trkpt>
<trkpt lat="48.237583" lon="10.906205">
<ele>546.975</ele>
<time>2022-05-25T12:34:03Z</time>
</trkpt>
<trkpt lat="48.237576" lon="10.906277">
<ele>546.976</ele>
<time>2022-05-25T12:34:04Z</time>
</trkpt>
<trkpt lat="48.237564" lon="10.906347">
<ele>546.975</ele>
<time>2022-05-25T12:34:05Z</time>
</trkpt>
<trkpt lat="48.23756" lon="10.906415">
<ele>546.975</ele>
<time>2022-05-25T12:34:06Z</time>
</trkpt>
<trkpt lat="48.237549" lon="10.906482">
<ele>546.975</ele>
<time>2022-05-25T12:34:07Z</time>
</trkpt>
<trkpt lat="48.237541" lon="10.906549">
<ele>546.975</ele>
<time>2022-05-25T12:34:08Z</time>
</trkpt>
<trkpt lat="48.237534" lon="10.906617">
<ele>546.975</ele>
<time>2022-05-25T12:34:09Z</time>
</trkpt>
<trkpt lat="48.23753" lon="10.906685">
<ele>546.975</ele>
<time>2022-05-25T12:34:10Z</time>
</trkpt>
<trkpt lat="48.237522" lon="10.906752">
<ele>546.975</ele>
<time>2022-05-25T12:34:11Z</time>
</trkpt>
<trkpt lat="48.237511" lon="10.90682">
<ele>546.976</ele>
<time>2022-05-25T12:34:12Z</time>
</trkpt>
<trkpt lat="48.237503" lon="10.906892">
<ele>546.975</ele>
<time>2022-05-25T12:34:13Z</time>
</trkpt>
<trkpt lat="48.237495" lon="10.90696">
<ele>546.975</ele>
<time>2022-05-25T12:34:14Z</time>
</trkpt>
<trkpt lat="48.237488" lon="10.907026">
<ele>546.976</ele>
<time>2022-05-25T12:34:15Z</time>
</trkpt>
<trkpt lat="48.23748" lon="10.907095">
<ele>546.975</ele>
<time>2022-05-25T12:34:16Z</time>
</trkpt>
<trkpt lat="48.237473" lon="10.907162">
<ele>546.975</ele>
<time>2022-05-25T12:34:17Z</time>
</trkpt>
<trkpt lat="48.237465" lon="10.907229">
<ele>546.975</ele>
<time>2022-05-25T12:34:18Z</time>
</trkpt>
<trkpt lat="48.237457" lon="10.9073">
<ele>546.975</ele>
<time>2022-05-25T12:34:19Z</time>
</trkpt>
<trkpt lat="48.237446" lon="10.907372">
<ele>546.975</ele>
<time>2022-05-25T12:34:20Z</time>
</trkpt>
<trkpt lat="48.237438" lon="10.907445">
<ele>546.975</ele>
<time>2022-05-25T12:34:21Z</time>
</trkpt>
<trkpt lat="48.237431" lon="10.907516">
<ele>546.975</ele>
<time>2022-05-25T12:34:22Z</time>
</trkpt>
<trkpt lat="48.237423" lon="10.907588">
<ele>546.975</ele>
<time>2022-05-25T12:34:23Z</time>
</trkpt>
<trkpt lat="48.237415" lon="10.90766">
<ele>546.975</ele>
<time>2022-05-25T12:34:24Z</time>
</trkpt>
<trkpt lat="48.237408" lon="10.90773">
<ele>546.975</ele>
<time>2022-05-25T12:34:25Z</time>
</trkpt>
<trkpt lat="48.2374" lon="10.9078">
<ele>546.975</ele>
<time>2022-05-25T12:34:26Z</time>
</trkpt>
<trkpt lat="48.237392" lon="10.90787">
<ele>546.975</ele>
<time>2022-05-25T12:34:27Z</time>
</trkpt>
<trkpt lat="48.237385" lon="10.907942">
<ele>546.975</ele>
<time>2022-05-25T12:34:28Z</time>
</trkpt>
<trkpt lat="48.237373" lon="10.908011">
<ele>546.975</ele>
<time>2022-05-25T12:34:29Z</time>
</trkpt>
<trkpt lat="48.237366" lon="10.908087">
<ele>546.975</ele>
<time>2022-05-25T12:34:30Z</time>
</trkpt>
<trkpt lat="48.237366" lon="10.908158">
<ele>546.975</ele>
<time>2022-05-25T12:34:31Z</time>
</trkpt>
<trkpt lat="48.237358" lon="10.908232">
<ele>546.975</ele>
<time>2022-05-25T12:34:32Z</time>
</trkpt>
<trkpt lat="48.237343" lon="10.908305">
<ele>546.975</ele>
<time>2022-05-25T12:34:33Z</time>
</trkpt>
<trkpt lat="48.237335" lon="10.908377">
<ele>546.975</ele>
<time>2022-05-25T12:34:34Z</time>
</trkpt>
<trkpt lat="48.237324" lon="10.908448">
<ele>546.975</ele>
<time>2022-05-25T12:34:35Z</time>
</trkpt>
<trkpt lat="48.237316" lon="10.908517">
<ele>546.976</ele>
<time>2022-05-25T12:34:36Z</time>
</trkpt>
<trkpt lat="48.237309" lon="10.908583">
<ele>546.975</ele>
<time>2022-05-25T12:34:37Z</time>
</trkpt>
<trkpt lat="48.237301" lon="10.908653">
<ele>546.975</ele>
<time>2022-05-25T12:34:38Z</time>
</trkpt>
<trkpt lat="48.237293" lon="10.908725">
<ele>546.976</ele>
<time>2022-05-25T12:34:39Z</time>
</trkpt>
<trkpt lat="48.237282" lon="10.908794">
<ele>546.975</ele>
<time>2022-05-25T12:34:40Z</time>
</trkpt>
<trkpt lat="48.237267" lon="10.908867">
<ele>546.976</ele>
<time>2022-05-25T12:34:41Z</time>
</trkpt>
<trkpt lat="48.237263" lon="10.908937">
<ele>546.976</ele>
<time>2022-05-25T12:34:42Z</time>
</trkpt>
<trkpt lat="48.237255" lon="10.90901">
<ele>546.975</ele>
<time>2022-05-25T12:34:43Z</time>
</trkpt>
<trkpt lat="48.237247" lon="10.909083">
<ele>546.976</ele>
<time>2022-05-25T12:34:44Z</time>
</trkpt>
<trkpt lat="48.237236" lon="10.909159">
<ele>546.975</ele>
<time>2022-05-25T12:34:45Z</time>
</trkpt>
<trkpt lat="48.237228" lon="10.909234">
<ele>546.975</ele>
<time>2022-05-25T12:34:46Z</time>
</trkpt>
<trkpt lat="48.237221" lon="10.909306">
<ele>546.975</ele>
<time>2022-05-25T12:34:47Z</time>
</trkpt>
<trkpt lat="48.237209" lon="10.909377">
<ele>546.975</ele>
<time>2022-05-25T12:34:48Z</time>
</trkpt>
<trkpt lat="48.237202" lon="10.909448">
<ele>546.975</ele>
<time>2022-05-25T12:34:49Z</time>
</trkpt>
<trkpt lat="48.237194" lon="10.909519">
<ele>546.975</ele>
<time>2022-05-25T12:34:50Z</time>
</trkpt>
<trkpt lat="48.23719" lon="10.90959">
<ele>546.975</ele>
<time>2022-05-25T12:34:51Z</time>
</trkpt>
<trkpt lat="48.237183" lon="10.909661">
<ele>546.975</ele>
<time>2022-05-25T12:34:52Z</time>
</trkpt>
<trkpt lat="48.237171" lon="10.909731">
<ele>546.975</ele>
<time>2022-05-25T12:34:53Z</time>
</trkpt>
<trkpt lat="48.237167" lon="10.909801">
<ele>546.975</ele>
<time>2022-05-25T12:34:54Z</time>
</trkpt>
<trkpt lat="48.23716" lon="10.909875">
<ele>546.975</ele>
<time>2022-05-25T12:34:55Z</time>
</trkpt>
<trkpt lat="48.237152" lon="10.909948">
<ele>546.976</ele>
<time>2022-05-25T12:34:56Z</time>
</trkpt>
<trkpt lat="48.237144" lon="10.91002">
<ele>546.975</ele>
<time>2022-05-25T12:34:57Z</time>
</trkpt>
<trkpt lat="48.237137" lon="10.910093">
<ele>546.976</ele>
<time>2022-05-25T12:34:58Z</time>
</trkpt>
<trkpt lat="48.237129" lon="10.910163">
<ele>546.975</ele>
<time>2022-05-25T12:34:59Z</time>
</trkpt>
<trkpt lat="48.237118" lon="10.910235">
<ele>546.975</ele>
<time>2022-05-25T12:35:00Z</time>
</trkpt>
<trkpt lat="48.237106" lon="10.910303">
<ele>546.975</ele>
<time>2022-05-25T12:35:01Z</time>
</trkpt>
<trkpt lat="48.237099" lon="10.910376">
<ele>546.975</ele>
<time>2022-05-25T12:35:02Z</time>
</trkpt>
<trkpt lat="48.237091" lon="10.91045">
<ele>546.975</ele>
<time>2022-05-25T12:35:03Z</time>
</trkpt>
<trkpt lat="48.237083" lon="10.910522">
<ele>546.976</ele>
<time>2022-05-25T12:35:04Z</time>
</trkpt>
<trkpt lat="48.237076" lon="10.910594">
<ele>546.975</ele>
<time>2022-05-25T12:35:05Z</time>
</trkpt>
<trkpt lat="48.237072" lon="10.910666">
<ele>546.976</ele>
<time>2022-05-25T12:35:06Z</time>
</trkpt>
<trkpt lat="48.237061" lon="10.91074">
<ele>546.975</ele>
<time>2022-05-25T12:35:07Z</time>
</trkpt>
<trkpt lat="48.237053" lon="10.910811">
<ele>546.976</ele>
<time>2022-05-25T12:35:08Z</time>
</trkpt>
<trkpt lat="48.237045" lon="10.910887">
<ele>546.975</ele>
<time>2022-05-25T12:35:09Z</time>
</trkpt>
<trkpt lat="48.237041" lon="10.910962">
<ele>546.975</ele>
<time>2022-05-25T12:35:10Z</time>
</trkpt>
<trkpt lat="48.237038" lon="10.911038">
<ele>546.975</ele>
<time>2022-05-25T12:35:11Z</time>
</trkpt>
<trkpt lat="48.23703" lon="10.911117">
<ele>546.976</ele>
<time>2022-05-25T12:35:12Z</time>
</trkpt>
<trkpt lat="48.237026" lon="10.911193">
<ele>546.976</ele>
<time>2022-05-25T12:35:13Z</time>
</trkpt>
<trkpt lat="48.237022" lon="10.911273">
<ele>546.975</ele>
<time>2022-05-25T12:35:14Z</time>
</trkpt>
<trkpt lat="48.237022" lon="10.911352">
<ele>546.976</ele>
<time>2022-05-25T12:35:15Z</time>
</trkpt>
<trkpt lat="48.237022" lon="10.911431">
<ele>546.975</ele>
<time>2022-05-25T12:35:16Z</time>
</trkpt>
<trkpt lat="48.237026" lon="10.91151">
<ele>546.976</ele>
<time>2022-05-25T12:35:17Z</time>
</trkpt>
<trkpt lat="48.23703" lon="10.911589">
<ele>546.975</ele>
<time>2022-05-25T12:35:18Z</time>
</trkpt>
<trkpt lat="48.237041" lon="10.911669">
<ele>546.976</ele>
<time>2022-05-25T12:35:19Z</time>
</trkpt>
<trkpt lat="48.237049" lon="10.911744">
<ele>546.975</ele>
<time>2022-05-25T12:35:20Z</time>
</trkpt>
<trkpt lat="48.237061" lon="10.911823">
<ele>546.975</ele>
<time>2022-05-25T12:35:21Z</time>
</trkpt>
<trkpt lat="48.237072" lon="10.911901">
<ele>546.744</ele>
<time>2022-05-25T12:35:22Z</time>
</trkpt>
<trkpt lat="48.237087" lon="10.911981">
<ele>546.562</ele>
<time>2022-05-25T12:35:23Z</time>
</trkpt>
<trkpt lat="48.237106" lon="10.912054">
<ele>546.427</ele>
<time>2022-05-25T12:35:24Z</time>
</trkpt>
<trkpt lat="48.237118" lon="10.912127">
<ele>546.321</ele>
<time>2022-05-25T12:35:25Z</time>
</trkpt>
<trkpt lat="48.237137" lon="10.912205">
<ele>546.249</ele>
<time>2022-05-25T12:35:26Z</time>
</trkpt>
<trkpt lat="48.23716" lon="10.912282">
<ele>546.175</ele>
<time>2022-05-25T12:35:27Z</time>
</trkpt>
<trkpt lat="48.237179" lon="10.91235">
<ele>546.127</ele>
<time>2022-05-25T12:35:28Z</time>
</trkpt>
<trkpt lat="48.237198" lon="10.912415">
<ele>546.104</ele>
<time>2022-05-25T12:35:29Z</time>
</trkpt>
<trkpt lat="48.237213" lon="10.912485">
<ele>546.104</ele>
<time>2022-05-25T12:35:30Z</time>
</trkpt>
<trkpt lat="48.237232" lon="10.912553">
<ele>546.104</ele>
<time>2022-05-25T12:35:31Z</time>
</trkpt>
<trkpt lat="48.237247" lon="10.912621">
<ele>546.104</ele>
<time>2022-05-25T12:35:32Z</time>
</trkpt>
<trkpt lat="48.237267" lon="10.91269">
<ele>546.104</ele>
<time>2022-05-25T12:35:33Z</time>
</trkpt>
<trkpt lat="48.23727" lon="10.912764">
<ele>546.104</ele>
<time>2022-05-25T12:35:34Z</time>
</trkpt>
<trkpt lat="48.237278" lon="10.91284">
<ele>546.104</ele>
<time>2022-05-25T12:35:35Z</time>
</trkpt>
<trkpt lat="48.237282" lon="10.912922">
<ele>546.104</ele>
<time>2022-05-25T12:35:36Z</time>
</trkpt>
<trkpt lat="48.237282" lon="10.913005">
<ele>546.104</ele>
<time>2022-05-25T12:35:37Z</time>
</trkpt>
<trkpt lat="48.237289" lon="10.913085">
<ele>546.104</ele>
<time>2022-05-25T12:35:38Z</time>
</trkpt>
<trkpt lat="48.237293" lon="10.913162">
<ele>546.104</ele>
<time>2022-05-25T12:35:39Z</time>
</trkpt>
<trkpt lat="48.237301" lon="10.913239">
<ele>546.104</ele>
<time>2022-05-25T12:35:40Z</time>
</trkpt>
<trkpt lat="48.237301" lon="10.913318">
<ele>546.104</ele>
<time>2022-05-25T12:35:41Z</time>
</trkpt>
<trkpt lat="48.237305" lon="10.913395">
<ele>546.104</ele>
<time>2022-05-25T12:35:42Z</time>
</trkpt>
<trkpt lat="48.237305" lon="10.91347">
<ele>546.104</ele>
<time>2022-05-25T12:35:43Z</time>
</trkpt>
<trkpt lat="48.237309" lon="10.913546">
<ele>546.104</ele>
<time>2022-05-25T12:35:44Z</time>
</trkpt>
<trkpt lat="48.237312" lon="10.913622">
<ele>546.104</ele>
<time>2022-05-25T12:35:45Z</time>
</trkpt>
<trkpt lat="48.237316" lon="10.9137">
<ele>546.104</ele>
<time>2022-05-25T12:35:46Z</time>
</trkpt>
<trkpt lat="48.237316" lon="10.913776">
<ele>546.104</ele>
<time>2022-05-25T12:35:47Z</time>
</trkpt>
<trkpt lat="48.237316" lon="10.913856">
<ele>546.104</ele>
<time>2022-05-25T12:35:48Z</time>
</trkpt>
<trkpt lat="48.237316" lon="10.913932">
<ele>546.104</ele>
<time>2022-05-25T12:35:49Z</time>
</trkpt>
<trkpt lat="48.237312" lon="10.914007">
<ele>546.104</ele>
<time>2022-05-25T12:35:50Z</time>
</trkpt>
<trkpt lat="48.237312" lon="10.914083">
<ele>546.104</ele>
<time>2022-05-25T12:35:51Z</time>
</trkpt>
<trkpt lat="48.237309" lon="10.914157">
<ele>546.104</ele>
<time>2022-05-25T12:35:52Z</time>
</trkpt>
<trkpt lat="48.237301" lon="10.91423">
<ele>546.104</ele>
<time>2022-05-25T12:35:53Z</time>
</trkpt>
<trkpt lat="48.237293" lon="10.914304">
<ele>546.104</ele>
<time>2022-05-25T12:35:54Z</time>
</trkpt>
<trkpt lat="48.237286" lon="10.91438">
<ele>546.104</ele>
<time>2022-05-25T12:35:55Z</time>
</trkpt>
<trkpt lat="48.237278" lon="10.914454">
<ele>546.104</ele>
<time>2022-05-25T12:35:56Z</time>
</trkpt>
<trkpt lat="48.237274" lon="10.914529">
<ele>546.104</ele>
<time>2022-05-25T12:35:57Z</time>
</trkpt>
<trkpt lat="48.237267" lon="10.914605">
<ele>546.104</ele>
<time>2022-05-25T12:35:58Z</time>
</trkpt>
<trkpt lat="48.237267" lon="10.914681">
<ele>546.104</ele>
<time>2022-05-25T12:35:59Z</time>
</trkpt>
<trkpt lat="48.237259" lon="10.914761">
<ele>546.104</ele>
<time>2022-05-25T12:36:00Z</time>
</trkpt>
<trkpt lat="48.237251" lon="10.914837">
<ele>546.104</ele>
<time>2022-05-25T12:36:01Z</time>
</trkpt>
<trkpt lat="48.237247" lon="10.914915">
<ele>546.104</ele>
<time>2022-05-25T12:36:02Z</time>
</trkpt>
<trkpt lat="48.23724" lon="10.914989">
<ele>546.104</ele>
<time>2022-05-25T12:36:03Z</time>
</trkpt>
<trkpt lat="48.237236" lon="10.915067">
<ele>546.104</ele>
<time>2022-05-25T12:36:04Z</time>
</trkpt>
<trkpt lat="48.237228" lon="10.91514">
<ele>546.104</ele>
<time>2022-05-25T12:36:05Z</time>
</trkpt>
<trkpt lat="48.237217" lon="10.915209">
<ele>546.104</ele>
<time>2022-05-25T12:36:06Z</time>
</trkpt>
<trkpt lat="48.237202" lon="10.915275">
<ele>546.311</ele>
<time>2022-05-25T12:36:07Z</time>
</trkpt>
<trkpt lat="48.237194" lon="10.915343">
<ele>546.486</ele>
<time>2022-05-25T12:36:08Z</time>
</trkpt>
<trkpt lat="48.23719" lon="10.915408">
<ele>546.632</ele>
<time>2022-05-25T12:36:09Z</time>
</trkpt>
<trkpt lat="48.237183" lon="10.915475">
<ele>546.749</ele>
<time>2022-05-25T12:36:10Z</time>
</trkpt>
<trkpt lat="48.237179" lon="10.915546">
<ele>546.842</ele>
<time>2022-05-25T12:36:11Z</time>
</trkpt>
<trkpt lat="48.237179" lon="10.915618">
<ele>546.909</ele>
<time>2022-05-25T12:36:12Z</time>
</trkpt>
<trkpt lat="48.237175" lon="10.915689">
<ele>546.954</ele>
<time>2022-05-25T12:36:13Z</time>
</trkpt>
<trkpt lat="48.237171" lon="10.915758">
<ele>546.976</ele>
<time>2022-05-25T12:36:14Z</time>
</trkpt>
<trkpt lat="48.237167" lon="10.915833">
<ele>546.975</ele>
<time>2022-05-25T12:36:15Z</time>
</trkpt>
<trkpt lat="48.23716" lon="10.915917">
<ele>546.975</ele>
<time>2022-05-25T12:36:16Z</time>
</trkpt>
<trkpt lat="48.23716" lon="10.915997">
<ele>546.976</ele>
<time>2022-05-25T12:36:17Z</time>
</trkpt>
<trkpt lat="48.237148" lon="10.916073">
<ele>546.975</ele>
<time>2022-05-25T12:36:18Z</time>
</trkpt>
<trkpt lat="48.237141" lon="10.916154">
<ele>546.976</ele>
<time>2022-05-25T12:36:19Z</time>
</trkpt>
<trkpt lat="48.237133" lon="10.916236">
<ele>546.975</ele>
<time>2022-05-25T12:36:20Z</time>
</trkpt>
<trkpt lat="48.237118" lon="10.916308">
<ele>546.975</ele>
<time>2022-05-25T12:36:21Z</time>
</trkpt>
<trkpt lat="48.237106" lon="10.916385">
<ele>546.975</ele>
<time>2022-05-25T12:36:22Z</time>
</trkpt>
<trkpt lat="48.237106" lon="10.916462">
<ele>546.975</ele>
<time>2022-05-25T12:36:23Z</time>
</trkpt>
<trkpt lat="48.237106" lon="10.916538">
<ele>546.976</ele>
<time>2022-05-25T12:36:24Z</time>
</trkpt>
<trkpt lat="48.237103" lon="10.916615">
<ele>546.975</ele>
<time>2022-05-25T12:36:25Z</time>
</trkpt>
<trkpt lat="48.237099" lon="10.916687">
<ele>546.975</ele>
<time>2022-05-25T12:36:26Z</time>
</trkpt>
<trkpt lat="48.237087" lon="10.916766">
<ele>546.975</ele>
<time>2022-05-25T12:36:27Z</time>
</trkpt>
<trkpt lat="48.237076" lon="10.916837">
<ele>546.975</ele>
<time>2022-05-25T12:36:28Z</time>
</trkpt>
<trkpt lat="48.237064" lon="10.916903">
<ele>546.975</ele>
<time>2022-05-25T12:36:29Z</time>
</trkpt>
<trkpt lat="48.237053" lon="10.91698">
<ele>546.975</ele>
<time>2022-05-25T12:36:30Z</time>
</trkpt>
<trkpt lat="48.237041" lon="10.917055">
<ele>546.975</ele>
<time>2022-05-25T12:36:31Z</time>
</trkpt>
<trkpt lat="48.237034" lon="10.917127">
<ele>546.975</ele>
<time>2022-05-25T12:36:32Z</time>
</trkpt>
<trkpt lat="48.237026" lon="10.917195">
<ele>546.975</ele>
<time>2022-05-25T12:36:33Z</time>
</trkpt>
<trkpt lat="48.237015" lon="10.917265">
<ele>546.975</ele>
<time>2022-05-25T12:36:34Z</time>
</trkpt>
<trkpt lat="48.237007" lon="10.917345">
<ele>546.975</ele>
<time>2022-05-25T12:36:35Z</time>
</trkpt>
<trkpt lat="48.237003" lon="10.917418">
<ele>546.975</ele>
<time>2022-05-25T12:36:36Z</time>
</trkpt>
<trkpt lat="48.237" lon="10.917485">
<ele>546.975</ele>
<time>2022-05-25T12:36:37Z</time>
</trkpt>
<trkpt lat="48.236996" lon="10.917547">
<ele>546.975</ele>
<time>2022-05-25T12:36:38Z</time>
</trkpt>
<trkpt lat="48.236984" lon="10.917631">
<ele>546.975</ele>
<time>2022-05-25T12:36:39Z</time>
</trkpt>
<trkpt lat="48.236973" lon="10.917719">
<ele>546.976</ele>
<time>2022-05-25T12:36:40Z</time>
</trkpt>
<trkpt lat="48.236965" lon="10.917799">
<ele>546.976</ele>
<time>2022-05-25T12:36:41Z</time>
</trkpt>
<trkpt lat="48.236954" lon="10.917874">
<ele>546.975</ele>
<time>2022-05-25T12:36:42Z</time>
</trkpt>
<trkpt lat="48.236946" lon="10.917953">
<ele>546.975</ele>
<time>2022-05-25T12:36:43Z</time>
</trkpt>
<trkpt lat="48.236942" lon="10.918027">
<ele>546.975</ele>
<time>2022-05-25T12:36:44Z</time>
</trkpt>
<trkpt lat="48.236935" lon="10.918103">
<ele>546.975</ele>
<time>2022-05-25T12:36:45Z</time>
</trkpt>
<trkpt lat="48.236927" lon="10.918179">
<ele>546.975</ele>
<time>2022-05-25T12:36:46Z</time>
</trkpt>
<trkpt lat="48.236916" lon="10.918252">
<ele>546.975</ele>
<time>2022-05-25T12:36:47Z</time>
</trkpt>
<trkpt lat="48.236908" lon="10.918333">
<ele>546.975</ele>
<time>2022-05-25T12:36:48Z</time>
</trkpt>
<trkpt lat="48.236904" lon="10.918411">
<ele>546.975</ele>
<time>2022-05-25T12:36:49Z</time>
</trkpt>
<trkpt lat="48.2369" lon="10.918485">
<ele>546.975</ele>
<time>2022-05-25T12:36:50Z</time>
</trkpt>
<trkpt lat="48.236893" lon="10.918555">
<ele>546.976</ele>
<time>2022-05-25T12:36:51Z</time>
</trkpt>
<trkpt lat="48.236881" lon="10.918627">
<ele>546.976</ele>
<time>2022-05-25T12:36:52Z</time>
</trkpt>
<trkpt lat="48.236874" lon="10.918696">
<ele>546.975</ele>
<time>2022-05-25T12:36:53Z</time>
</trkpt>
<trkpt lat="48.236862" lon="10.91877">
<ele>546.975</ele>
<time>2022-05-25T12:36:54Z</time>
</trkpt>
<trkpt lat="48.236851" lon="10.91884">
<ele>546.975</ele>
<time>2022-05-25T12:36:55Z</time>
</trkpt>
<trkpt lat="48.236843" lon="10.918912">
<ele>546.975</ele>
<time>2022-05-25T12:36:56Z</time>
</trkpt>
<trkpt lat="48.236843" lon="10.918983">
<ele>546.975</ele>
<time>2022-05-25T12:36:57Z</time>
</trkpt>
<trkpt lat="48.236835" lon="10.91906">
<ele>546.976</ele>
<time>2022-05-25T12:36:58Z</time>
</trkpt>
<trkpt lat="48.23682" lon="10.91914">
<ele>546.975</ele>
<time>2022-05-25T12:36:59Z</time>
</trkpt>
<trkpt lat="48.236813" lon="10.91922">
<ele>546.975</ele>
<time>2022-05-25T12:37:00Z</time>
</trkpt>
<trkpt lat="48.236801" lon="10.919295">
<ele>546.975</ele>
<time>2022-05-25T12:37:01Z</time>
</trkpt>
<trkpt lat="48.236786" lon="10.919365">
<ele>546.975</ele>
<time>2022-05-25T12:37:02Z</time>
</trkpt>
<trkpt lat="48.236778" lon="10.919434">
<ele>546.975</ele>
<time>2022-05-25T12:37:03Z</time>
</trkpt>
<trkpt lat="48.236774" lon="10.919506">
<ele>546.975</ele>
<time>2022-05-25T12:37:04Z</time>
</trkpt>
<trkpt lat="48.236763" lon="10.919581">
<ele>546.976</ele>
<time>2022-05-25T12:37:05Z</time>
</trkpt>
<trkpt lat="48.236748" lon="10.919653">
<ele>546.975</ele>
<time>2022-05-25T12:37:06Z</time>
</trkpt>
<trkpt lat="48.236736" lon="10.919724">
<ele>546.975</ele>
<time>2022-05-25T12:37:07Z</time>
</trkpt>
<trkpt lat="48.236729" lon="10.919797">
<ele>546.975</ele>
<time>2022-05-25T12:37:08Z</time>
</trkpt>
<trkpt lat="48.236725" lon="10.919867">
<ele>546.975</ele>
<time>2022-05-25T12:37:09Z</time>
</trkpt>
<trkpt lat="48.236717" lon="10.919936">
<ele>546.976</ele>
<time>2022-05-25T12:37:10Z</time>
</trkpt>
<trkpt lat="48.236713" lon="10.920005">
<ele>546.975</ele>
<time>2022-05-25T12:37:11Z</time>
</trkpt>
<trkpt lat="48.236713" lon="10.92007">
<ele>546.976</ele>
<time>2022-05-25T12:37:12Z</time>
</trkpt>
<trkpt lat="48.23671" lon="10.920147">
<ele>546.976</ele>
<time>2022-05-25T12:37:13Z</time>
</trkpt>
<trkpt lat="48.236698" lon="10.920225">
<ele>546.975</ele>
<time>2022-05-25T12:37:14Z</time>
</trkpt>
<trkpt lat="48.236694" lon="10.9203">
<ele>546.975</ele>
<time>2022-05-25T12:37:15Z</time>
</trkpt>
<trkpt lat="48.236687" lon="10.92037">
<ele>546.976</ele>
<time>2022-05-25T12:37:16Z</time>
</trkpt>
<trkpt lat="48.236679" lon="10.920439">
<ele>546.975</ele>
<time>2022-05-25T12:37:17Z</time>
</trkpt>
<trkpt lat="48.236664" lon="10.920508">
<ele>546.976</ele>
<time>2022-05-25T12:37:18Z</time>
</trkpt>
<trkpt lat="48.236656" lon="10.92058">
<ele>546.975</ele>
<time>2022-05-25T12:37:19Z</time>
</trkpt>
<trkpt lat="48.236645" lon="10.920652">
<ele>546.976</ele>
<time>2022-05-25T12:37:20Z</time>
</trkpt>
<trkpt lat="48.236633" lon="10.920724">
<ele>546.976</ele>
<time>2022-05-25T12:37:21Z</time>
</trkpt>
<trkpt lat="48.236622" lon="10.920796">
<ele>546.976</ele>
<time>2022-05-25T12:37:22Z</time>
</trkpt>
<trkpt lat="48.236614" lon="10.920864">
<ele>546.975</ele>
<time>2022-05-25T12:37:23Z</time>
</trkpt>
<trkpt lat="48.236603" lon="10.920934">
<ele>546.975</ele>
<time>2022-05-25T12:37:24Z</time>
</trkpt>
<trkpt lat="48.236591" lon="10.921002">
<ele>546.975</ele>
<time>2022-05-25T12:37:25Z</time>
</trkpt>
<trkpt lat="48.236584" lon="10.921072">
<ele>546.975</ele>
<time>2022-05-25T12:37:26Z</time>
</trkpt>
<trkpt lat="48.23658" lon="10.921142">
<ele>546.975</ele>
<time>2022-05-25T12:37:27Z</time>
</trkpt>
<trkpt lat="48.236572" lon="10.921213">
<ele>546.975</ele>
<time>2022-05-25T12:37:28Z</time>
</trkpt>
<trkpt lat="48.236572" lon="10.921279">
<ele>546.975</ele>
<time>2022-05-25T12:37:29Z</time>
</trkpt>
<trkpt lat="48.236568" lon="10.921342">
<ele>546.976</ele>
<time>2022-05-25T12:37:30Z</time>
</trkpt>
<trkpt lat="48.236561" lon="10.921405">
<ele>546.975</ele>
<time>2022-05-25T12:37:31Z</time>
</trkpt>
<trkpt lat="48.236549" lon="10.921474">
<ele>546.975</ele>
<time>2022-05-25T12:37:32Z</time>
</trkpt>
<trkpt lat="48.236546" lon="10.921545">
<ele>546.975</ele>
<time>2022-05-25T12:37:33Z</time>
</trkpt>
<trkpt lat="48.236538" lon="10.92162">
<ele>546.975</ele>
<time>2022-05-25T12:37:34Z</time>
</trkpt>
<trkpt lat="48.236534" lon="10.921687">
<ele>546.976</ele>
<time>2022-05-25T12:37:35Z</time>
</trkpt>
<trkpt lat="48.23653" lon="10.921761">
<ele>546.975</ele>
<time>2022-05-25T12:37:36Z</time>
</trkpt>
<trkpt lat="48.236526" lon="10.921839">
<ele>546.975</ele>
<time>2022-05-25T12:37:37Z</time>
</trkpt>
<trkpt lat="48.236519" lon="10.921908">
<ele>546.976</ele>
<time>2022-05-25T12:37:38Z</time>
</trkpt>
<trkpt lat="48.236511" lon="10.921977">
<ele>546.975</ele>
<time>2022-05-25T12:37:39Z</time>
</trkpt>
<trkpt lat="48.2365" lon="10.922046">
<ele>546.975</ele>
<time>2022-05-25T12:37:40Z</time>
</trkpt>
<trkpt lat="48.236515" lon="10.922107">
<ele>546.975</ele>
<time>2022-05-25T12:37:41Z</time>
</trkpt>
<trkpt lat="48.236519" lon="10.922169">
<ele>546.975</ele>
<time>2022-05-25T12:37:42Z</time>
</trkpt>
<trkpt lat="48.236511" lon="10.922218">
<ele>546.975</ele>
<time>2022-05-25T12:37:43Z</time>
</trkpt>
<trkpt lat="48.236504" lon="10.922274">
<ele>546.975</ele>
<time>2022-05-25T12:37:44Z</time>
</trkpt>
<trkpt lat="48.236496" lon="10.922333">
<ele>546.975</ele>
<time>2022-05-25T12:37:45Z</time>
</trkpt>
<trkpt lat="48.236496" lon="10.922392">
<ele>546.79</ele>
<time>2022-05-25T12:37:46Z</time>
</trkpt>
<trkpt lat="48.2365" lon="10.922445">
<ele>546.611</ele>
<time>2022-05-25T12:37:47Z</time>
</trkpt>
<trkpt lat="48.236519" lon="10.92249">
<ele>546.46</ele>
<time>2022-05-25T12:37:48Z</time>
</trkpt>
<trkpt lat="48.236549" lon="10.922513">
<ele>546.335</ele>
<time>2022-05-25T12:37:49Z</time>
</trkpt>
<trkpt lat="48.236584" lon="10.922525">
<ele>546.237</ele>
<time>2022-05-25T12:37:50Z</time>
</trkpt>
<trkpt lat="48.236629" lon="10.922532">
<ele>546.165</ele>
<time>2022-05-25T12:37:51Z</time>
</trkpt>
<trkpt lat="48.236671" lon="10.922538">
<ele>546.124</ele>
<time>2022-05-25T12:37:52Z</time>
</trkpt>
<trkpt lat="48.236713" lon="10.922552">
<ele>546.104</ele>
<time>2022-05-25T12:37:53Z</time>
</trkpt>
<trkpt lat="48.236759" lon="10.922567">
<ele>546.104</ele>
<time>2022-05-25T12:37:54Z</time>
</trkpt>
<trkpt lat="48.236805" lon="10.922584">
<ele>546.104</ele>
<time>2022-05-25T12:37:55Z</time>
</trkpt>
<trkpt lat="48.236847" lon="10.922604">
<ele>546.104</ele>
<time>2022-05-25T12:37:56Z</time>
</trkpt>
<trkpt lat="48.236897" lon="10.922626">
<ele>546.104</ele>
<time>2022-05-25T12:37:57Z</time>
</trkpt>
<trkpt lat="48.236942" lon="10.922651">
<ele>546.104</ele>
<time>2022-05-25T12:37:58Z</time>
</trkpt>
<trkpt lat="48.236992" lon="10.922676">
<ele>546.104</ele>
<time>2022-05-25T12:37:59Z</time>
</trkpt>
<trkpt lat="48.237041" lon="10.922704">
<ele>546.104</ele>
<time>2022-05-25T12:38:00Z</time>
</trkpt>
<trkpt lat="48.237083" lon="10.922735">
<ele>546.104</ele>
<time>2022-05-25T12:38:01Z</time>
</trkpt>
<trkpt lat="48.237129" lon="10.922771">
<ele>546.104</ele>
<time>2022-05-25T12:38:02Z</time>
</trkpt>
<trkpt lat="48.237175" lon="10.922807">
<ele>546.104</ele>
<time>2022-05-25T12:38:03Z</time>
</trkpt>
<trkpt lat="48.237221" lon="10.922844">
<ele>546.104</ele>
<time>2022-05-25T12:38:04Z</time>
</trkpt>
<trkpt lat="48.237267" lon="10.922883">
<ele>546.104</ele>
<time>2022-05-25T12:38:05Z</time>
</trkpt>
<trkpt lat="48.237312" lon="10.922927">
<ele>546.104</ele>
<time>2022-05-25T12:38:06Z</time>
</trkpt>
<trkpt lat="48.237354" lon="10.922972">
<ele>546.104</ele>
<time>2022-05-25T12:38:07Z</time>
</trkpt>
<trkpt lat="48.237396" lon="10.92302">
<ele>546.104</ele>
<time>2022-05-25T12:38:08Z</time>
</trkpt>
<trkpt lat="48.237434" lon="10.92307">
<ele>546.104</ele>
<time>2022-05-25T12:38:09Z</time>
</trkpt>
<trkpt lat="48.237473" lon="10.92312">
<ele>546.104</ele>
<time>2022-05-25T12:38:10Z</time>
</trkpt>
<trkpt lat="48.237507" lon="10.923173">
<ele>546.104</ele>
<time>2022-05-25T12:38:11Z</time>
</trkpt>
<trkpt lat="48.237537" lon="10.923228">
<ele>546.104</ele>
<time>2022-05-25T12:38:12Z</time>
</trkpt>
<trkpt lat="48.237564" lon="10.923285">
<ele>546.104</ele>
<time>2022-05-25T12:38:13Z</time>
</trkpt>
<trkpt lat="48.237595" lon="10.92335">
<ele>546.104</ele>
<time>2022-05-25T12:38:14Z</time>
</trkpt>
<trkpt lat="48.237617" lon="10.923418">
<ele>546.104</ele>
<time>2022-05-25T12:38:15Z</time>
</trkpt>
<trkpt lat="48.23764" lon="10.923489">
<ele>546.104</ele>
<time>2022-05-25T12:38:16Z</time>
</trkpt>
<trkpt lat="48.237659" lon="10.923558">
<ele>546.104</ele>
<time>2022-05-25T12:38:17Z</time>
</trkpt>
<trkpt lat="48.237671" lon="10.923628">
<ele>546.104</ele>
<time>2022-05-25T12:38:18Z</time>
</trkpt>
<trkpt lat="48.237682" lon="10.923701">
<ele>546.104</ele>
<time>2022-05-25T12:38:19Z</time>
</trkpt>
<trkpt lat="48.237694" lon="10.923775">
<ele>546.104</ele>
<time>2022-05-25T12:38:20Z</time>
</trkpt>
<trkpt lat="48.237705" lon="10.923852">
<ele>546.104</ele>
<time>2022-05-25T12:38:21Z</time>
</trkpt>
<trkpt lat="48.237724" lon="10.923925">
<ele>546.104</ele>
<time>2022-05-25T12:38:22Z</time>
</trkpt>
<trkpt lat="48.23774" lon="10.923997">
<ele>546.104</ele>
<time>2022-05-25T12:38:23Z</time>
</trkpt>
<trkpt lat="48.237759" lon="10.924066">
<ele>545.864</ele>
<time>2022-05-25T12:38:24Z</time>
</trkpt>
<trkpt lat="48.237774" lon="10.924133">
<ele>545.674</ele>
<time>2022-05-25T12:38:25Z</time>
</trkpt>
<trkpt lat="48.237793" lon="10.9242">
<ele>545.544</ele>
<time>2022-05-25T12:38:26Z</time>
</trkpt>
<trkpt lat="48.237808" lon="10.924265">
<ele>545.406</ele>
<time>2022-05-25T12:38:27Z</time>
</trkpt>
<trkpt lat="48.237823" lon="10.924334">
<ele>545.351</ele>
<time>2022-05-25T12:38:28Z</time>
</trkpt>
<trkpt lat="48.237827" lon="10.924405">
<ele>545.518</ele>
<time>2022-05-25T12:38:29Z</time>
</trkpt>
<trkpt lat="48.237831" lon="10.924474">
<ele>545.665</ele>
<time>2022-05-25T12:38:30Z</time>
</trkpt>
<trkpt lat="48.237831" lon="10.924545">
<ele>545.771</ele>
<time>2022-05-25T12:38:31Z</time>
</trkpt>
<trkpt lat="48.237827" lon="10.924617">
<ele>546.135</ele>
<time>2022-05-25T12:38:32Z</time>
</trkpt>
<trkpt lat="48.237823" lon="10.92469">
<ele>546.408</ele>
<time>2022-05-25T12:38:33Z</time>
</trkpt>
<trkpt lat="48.23782" lon="10.924761">
<ele>546.573</ele>
<time>2022-05-25T12:38:34Z</time>
</trkpt>
<trkpt lat="48.237808" lon="10.924829">
<ele>546.951</ele>
<time>2022-05-25T12:38:35Z</time>
</trkpt>
<trkpt lat="48.237793" lon="10.924895">
<ele>547.231</ele>
<time>2022-05-25T12:38:36Z</time>
</trkpt>
<trkpt lat="48.237778" lon="10.92496">
<ele>547.706</ele>
<time>2022-05-25T12:38:37Z</time>
</trkpt>
<trkpt lat="48.237759" lon="10.925021">
<ele>548.087</ele>
<time>2022-05-25T12:38:38Z</time>
</trkpt>
<trkpt lat="48.237736" lon="10.925079">
<ele>548.328</ele>
<time>2022-05-25T12:38:39Z</time>
</trkpt>
<trkpt lat="48.237717" lon="10.925138">
<ele>548.758</ele>
<time>2022-05-25T12:38:40Z</time>
</trkpt>
<trkpt lat="48.237694" lon="10.925192">
<ele>549.093</ele>
<time>2022-05-25T12:38:41Z</time>
</trkpt>
<trkpt lat="48.237671" lon="10.925241">
<ele>549.346</ele>
<time>2022-05-25T12:38:42Z</time>
</trkpt>
<trkpt lat="48.237656" lon="10.925284">
<ele>549.514</ele>
<time>2022-05-25T12:38:43Z</time>
</trkpt>
<trkpt lat="48.237637" lon="10.925326">
<ele>549.614</ele>
<time>2022-05-25T12:38:44Z</time>
</trkpt>
<trkpt lat="48.237621" lon="10.925368">
<ele>549.925</ele>
<time>2022-05-25T12:38:45Z</time>
</trkpt>
<trkpt lat="48.237606" lon="10.92541">
<ele>550.151</ele>
<time>2022-05-25T12:38:46Z</time>
</trkpt>
<trkpt lat="48.237595" lon="10.92545">
<ele>550.357</ele>
<time>2022-05-25T12:38:47Z</time>
</trkpt>
<trkpt lat="48.237579" lon="10.92549">
<ele>550.506</ele>
<time>2022-05-25T12:38:48Z</time>
</trkpt>
<trkpt lat="48.237568" lon="10.925529">
<ele>550.629</ele>
<time>2022-05-25T12:38:49Z</time>
</trkpt>
<trkpt lat="48.237556" lon="10.925571">
<ele>550.721</ele>
<time>2022-05-25T12:38:50Z</time>
</trkpt>
<trkpt lat="48.237545" lon="10.925613">
<ele>550.782</ele>
<time>2022-05-25T12:38:51Z</time>
</trkpt>
<trkpt lat="48.237537" lon="10.925657">
<ele>550.81</ele>
<time>2022-05-25T12:38:52Z</time>
</trkpt>
<trkpt lat="48.23753" lon="10.925698">
<ele>550.81</ele>
<time>2022-05-25T12:38:53Z</time>
</trkpt>
<trkpt lat="48.237518" lon="10.925738">
<ele>550.81</ele>
<time>2022-05-25T12:38:54Z</time>
</trkpt>
<trkpt lat="48.237507" lon="10.925772">
<ele>550.81</ele>
<time>2022-05-25T12:38:55Z</time>
</trkpt>
<trkpt lat="48.237495" lon="10.925804">
<ele>550.81</ele>
<time>2022-05-25T12:38:56Z</time>
</trkpt>
<trkpt lat="48.237495" lon="10.925837">
<ele>550.81</ele>
<time>2022-05-25T12:38:57Z</time>
</trkpt>
<trkpt lat="48.237492" lon="10.925872">
<ele>550.81</ele>
<time>2022-05-25T12:38:58Z</time>
</trkpt>
<trkpt lat="48.237488" lon="10.925905">
<ele>550.81</ele>
<time>2022-05-25T12:38:59Z</time>
</trkpt>
<trkpt lat="48.237488" lon="10.925939">
<ele>550.81</ele>
<time>2022-05-25T12:39:00Z</time>
</trkpt>
<trkpt lat="48.237484" lon="10.925974">
<ele>550.81</ele>
<time>2022-05-25T12:39:01Z</time>
</trkpt>
<trkpt lat="48.23748" lon="10.926008">
<ele>550.81</ele>
<time>2022-05-25T12:39:02Z</time>
</trkpt>
<trkpt lat="48.23748" lon="10.926045">
<ele>550.81</ele>
<time>2022-05-25T12:39:03Z</time>
</trkpt>
<trkpt lat="48.23748" lon="10.926081">
<ele>550.81</ele>
<time>2022-05-25T12:39:04Z</time>
</trkpt>
<trkpt lat="48.237476" lon="10.926112">
<ele>550.81</ele>
<time>2022-05-25T12:39:05Z</time>
</trkpt>
<trkpt lat="48.237476" lon="10.926142">
<ele>550.81</ele>
<time>2022-05-25T12:39:06Z</time>
</trkpt>
<trkpt lat="48.237473" lon="10.926173">
<ele>550.81</ele>
<time>2022-05-25T12:39:07Z</time>
</trkpt>
<trkpt lat="48.237469" lon="10.926203">
<ele>550.81</ele>
<time>2022-05-25T12:39:08Z</time>
</trkpt>
<trkpt lat="48.237469" lon="10.926233">
<ele>550.81</ele>
<time>2022-05-25T12:39:09Z</time>
</trkpt>
<trkpt lat="48.237469" lon="10.926261">
<ele>550.81</ele>
<time>2022-05-25T12:39:10Z</time>
</trkpt>
<trkpt lat="48.237465" lon="10.926287">
<ele>550.81</ele>
<time>2022-05-25T12:39:11Z</time>
</trkpt>
<trkpt lat="48.237461" lon="10.926307">
<ele>550.81</ele>
<time>2022-05-25T12:39:12Z</time>
</trkpt>
<trkpt lat="48.237453" lon="10.926327">
<ele>550.81</ele>
<time>2022-05-25T12:39:13Z</time>
</trkpt>
<trkpt lat="48.237446" lon="10.92635">
<ele>550.81</ele>
<time>2022-05-25T12:39:14Z</time>
</trkpt>
<trkpt lat="48.237446" lon="10.926373">
<ele>550.81</ele>
<time>2022-05-25T12:39:15Z</time>
</trkpt>
<trkpt lat="48.237442" lon="10.926397">
<ele>550.81</ele>
<time>2022-05-25T12:39:16Z</time>
</trkpt>
<trkpt lat="48.237438" lon="10.926422">
<ele>550.81</ele>
<time>2022-05-25T12:39:17Z</time>
</trkpt>
<trkpt lat="48.237438" lon="10.926443">
<ele>550.81</ele>
<time>2022-05-25T12:39:18Z</time>
</trkpt>
<trkpt lat="48.237434" lon="10.926458">
<ele>550.81</ele>
<time>2022-05-25T12:39:19Z</time>
</trkpt>
<trkpt lat="48.237431" lon="10.926467">
<ele>550.81</ele>
<time>2022-05-25T12:39:20Z</time>
</trkpt>
<trkpt lat="48.237431" lon="10.92647">
<ele>550.81</ele>
<time>2022-05-25T12:39:21Z</time>
</trkpt>
<trkpt lat="48.237431" lon="10.926472">
<ele>550.81</ele>
<time>2022-05-25T12:39:23Z</time>
</trkpt>
<trkpt lat="48.237442" lon="10.926492">
<ele>550.81</ele>
<time>2022-05-25T12:45:21Z</time>
</trkpt>
<trkpt lat="48.237446" lon="10.926508">
<ele>550.81</ele>
<time>2022-05-25T12:45:22Z</time>
</trkpt>
<trkpt lat="48.237446" lon="10.926523">
<ele>550.81</ele>
<time>2022-05-25T12:45:23Z</time>
</trkpt>
<trkpt lat="48.23745" lon="10.926548">
<ele>550.81</ele>
<time>2022-05-25T12:45:24Z</time>
</trkpt>
<trkpt lat="48.237446" lon="10.926585">
<ele>550.81</ele>
<time>2022-05-25T12:45:25Z</time>
</trkpt>
<trkpt lat="48.237438" lon="10.926623">
<ele>550.81</ele>
<time>2022-05-25T12:45:26Z</time>
</trkpt>
<trkpt lat="48.237434" lon="10.926663">
<ele>550.81</ele>
<time>2022-05-25T12:45:27Z</time>
</trkpt>
<trkpt lat="48.237431" lon="10.926707">
<ele>550.81</ele>
<time>2022-05-25T12:45:28Z</time>
</trkpt>
<trkpt lat="48.237427" lon="10.926749">
<ele>550.81</ele>
<time>2022-05-25T12:45:29Z</time>
</trkpt>
<trkpt lat="48.237419" lon="10.926791">
<ele>550.81</ele>
<time>2022-05-25T12:45:30Z</time>
</trkpt>
<trkpt lat="48.237411" lon="10.926837">
<ele>550.81</ele>
<time>2022-05-25T12:45:31Z</time>
</trkpt>
<trkpt lat="48.2374" lon="10.926884">
<ele>550.81</ele>
<time>2022-05-25T12:45:32Z</time>
</trkpt>
<trkpt lat="48.2374" lon="10.926929">
<ele>550.81</ele>
<time>2022-05-25T12:45:33Z</time>
</trkpt>
<trkpt lat="48.237392" lon="10.92698">
<ele>550.81</ele>
<time>2022-05-25T12:45:34Z</time>
</trkpt>
<trkpt lat="48.237389" lon="10.92703">
<ele>550.81</ele>
<time>2022-05-25T12:45:35Z</time>
</trkpt>
<trkpt lat="48.237381" lon="10.92708">
<ele>550.81</ele>
<time>2022-05-25T12:45:36Z</time>
</trkpt>
<trkpt lat="48.237373" lon="10.927132">
<ele>550.81</ele>
<time>2022-05-25T12:45:37Z</time>
</trkpt>
<trkpt lat="48.237366" lon="10.92718">
<ele>550.81</ele>
<time>2022-05-25T12:45:38Z</time>
</trkpt>
<trkpt lat="48.237358" lon="10.927227">
<ele>550.81</ele>
<time>2022-05-25T12:45:39Z</time>
</trkpt>
<trkpt lat="48.237354" lon="10.927271">
<ele>550.81</ele>
<time>2022-05-25T12:45:40Z</time>
</trkpt>
<trkpt lat="48.23735" lon="10.927319">
<ele>550.81</ele>
<time>2022-05-25T12:45:41Z</time>
</trkpt>
<trkpt lat="48.237343" lon="10.927369">
<ele>550.81</ele>
<time>2022-05-25T12:45:42Z</time>
</trkpt>
<trkpt lat="48.237335" lon="10.927418">
<ele>550.81</ele>
<time>2022-05-25T12:45:43Z</time>
</trkpt>
<trkpt lat="48.237335" lon="10.927468">
<ele>550.81</ele>
<time>2022-05-25T12:45:44Z</time>
</trkpt>
<trkpt lat="48.237328" lon="10.927516">
<ele>550.81</ele>
<time>2022-05-25T12:45:45Z</time>
</trkpt>
<trkpt lat="48.237324" lon="10.927564">
<ele>550.81</ele>
<time>2022-05-25T12:45:46Z</time>
</trkpt>
<trkpt lat="48.237316" lon="10.92761">
<ele>550.81</ele>
<time>2022-05-25T12:45:47Z</time>
</trkpt>
<trkpt lat="48.237305" lon="10.927656">
<ele>550.81</ele>
<time>2022-05-25T12:45:48Z</time>
</trkpt>
<trkpt lat="48.237297" lon="10.927703">
<ele>550.81</ele>
<time>2022-05-25T12:45:49Z</time>
</trkpt>
<trkpt lat="48.237282" lon="10.927752">
<ele>550.81</ele>
<time>2022-05-25T12:45:50Z</time>
</trkpt>
<trkpt lat="48.23727" lon="10.927803">
<ele>550.81</ele>
<time>2022-05-25T12:45:51Z</time>
</trkpt>
<trkpt lat="48.237259" lon="10.927857">
<ele>550.81</ele>
<time>2022-05-25T12:45:52Z</time>
</trkpt>
<trkpt lat="48.23724" lon="10.927908">
<ele>550.81</ele>
<time>2022-05-25T12:45:53Z</time>
</trkpt>
<trkpt lat="48.237217" lon="10.927963">
<ele>550.81</ele>
<time>2022-05-25T12:45:54Z</time>
</trkpt>
<trkpt lat="48.23719" lon="10.92802">
<ele>550.81</ele>
<time>2022-05-25T12:45:55Z</time>
</trkpt>
<trkpt lat="48.23716" lon="10.928083">
<ele>550.81</ele>
<time>2022-05-25T12:45:56Z</time>
</trkpt>
<trkpt lat="48.237125" lon="10.928146">
<ele>550.81</ele>
<time>2022-05-25T12:45:57Z</time>
</trkpt>
<trkpt lat="48.237083" lon="10.928205">
<ele>550.539</ele>
<time>2022-05-25T12:45:58Z</time>
</trkpt>
<trkpt lat="48.237038" lon="10.928257">
<ele>550.342</ele>
<time>2022-05-25T12:45:59Z</time>
</trkpt>
<trkpt lat="48.236984" lon="10.928304">
<ele>550.2</ele>
<time>2022-05-25T12:46:00Z</time>
</trkpt>
<trkpt lat="48.236927" lon="10.928347">
<ele>550.103</ele>
<time>2022-05-25T12:46:01Z</time>
</trkpt>
<trkpt lat="48.23687" lon="10.928387">
<ele>550.05</ele>
<time>2022-05-25T12:46:02Z</time>
</trkpt>
<trkpt lat="48.236805" lon="10.92842">
<ele>549.753</ele>
<time>2022-05-25T12:46:03Z</time>
</trkpt>
<trkpt lat="48.236736" lon="10.928444">
<ele>549.547</ele>
<time>2022-05-25T12:46:04Z</time>
</trkpt>
<trkpt lat="48.236668" lon="10.928458">
<ele>549.365</ele>
<time>2022-05-25T12:46:05Z</time>
</trkpt>
<trkpt lat="48.236595" lon="10.928469">
<ele>548.98</ele>
<time>2022-05-25T12:46:06Z</time>
</trkpt>
<trkpt lat="48.236523" lon="10.928473">
<ele>548.679</ele>
<time>2022-05-25T12:46:07Z</time>
</trkpt>
<trkpt lat="48.236454" lon="10.928472">
<ele>548.445</ele>
<time>2022-05-25T12:46:08Z</time>
</trkpt>
<trkpt lat="48.236385" lon="10.928463">
<ele>548.274</ele>
<time>2022-05-25T12:46:09Z</time>
</trkpt>
<trkpt lat="48.23632" lon="10.928451">
<ele>548.156</ele>
<time>2022-05-25T12:46:10Z</time>
</trkpt>
<trkpt lat="48.236256" lon="10.92843">
<ele>548.047</ele>
<time>2022-05-25T12:46:11Z</time>
</trkpt>
<trkpt lat="48.236191" lon="10.928407">
<ele>548.024</ele>
<time>2022-05-25T12:46:12Z</time>
</trkpt>
<trkpt lat="48.236126" lon="10.928385">
<ele>548.021</ele>
<time>2022-05-25T12:46:13Z</time>
</trkpt>
<trkpt lat="48.236069" lon="10.92836">
<ele>548.021</ele>
<time>2022-05-25T12:46:14Z</time>
</trkpt>
<trkpt lat="48.236012" lon="10.928329">
<ele>548.021</ele>
<time>2022-05-25T12:46:15Z</time>
</trkpt>
<trkpt lat="48.235962" lon="10.928295">
<ele>548.021</ele>
<time>2022-05-25T12:46:16Z</time>
</trkpt>
<trkpt lat="48.235912" lon="10.92826">
<ele>548.021</ele>
<time>2022-05-25T12:46:17Z</time>
</trkpt>
<trkpt lat="48.235867" lon="10.928225">
<ele>548.021</ele>
<time>2022-05-25T12:46:18Z</time>
</trkpt>
<trkpt lat="48.235821" lon="10.92819">
<ele>548.021</ele>
<time>2022-05-25T12:46:19Z</time>
</trkpt>
<trkpt lat="48.235775" lon="10.928159">
<ele>548.021</ele>
<time>2022-05-25T12:46:20Z</time>
</trkpt>
<trkpt lat="48.235733" lon="10.928128">
<ele>548.021</ele>
<time>2022-05-25T12:46:21Z</time>
</trkpt>
<trkpt lat="48.235683" lon="10.928108">
<ele>548.021</ele>
<time>2022-05-25T12:46:22Z</time>
</trkpt>
<trkpt lat="48.235638" lon="10.928106">
<ele>548.021</ele>
<time>2022-05-25T12:46:23Z</time>
</trkpt>
<trkpt lat="48.235603" lon="10.928125">
<ele>548.021</ele>
<time>2022-05-25T12:46:24Z</time>
</trkpt>
<trkpt lat="48.235573" lon="10.92817">
<ele>548.021</ele>
<time>2022-05-25T12:46:25Z</time>
</trkpt>
<trkpt lat="48.235546" lon="10.928233">
<ele>548.021</ele>
<time>2022-05-25T12:46:26Z</time>
</trkpt>
<trkpt lat="48.235527" lon="10.9283">
<ele>548.021</ele>
<time>2022-05-25T12:46:27Z</time>
</trkpt>
<trkpt lat="48.235508" lon="10.928365">
<ele>547.78</ele>
<time>2022-05-25T12:46:28Z</time>
</trkpt>
<trkpt lat="48.235497" lon="10.928427">
<ele>547.587</ele>
<time>2022-05-25T12:46:29Z</time>
</trkpt>
<trkpt lat="48.235477" lon="10.928492">
<ele>547.441</ele>
<time>2022-05-25T12:46:30Z</time>
</trkpt>
<trkpt lat="48.235458" lon="10.928555">
<ele>547.326</ele>
<time>2022-05-25T12:46:31Z</time>
</trkpt>
<trkpt lat="48.235443" lon="10.928618">
<ele>547.253</ele>
<time>2022-05-25T12:46:32Z</time>
</trkpt>
<trkpt lat="48.235432" lon="10.928685">
<ele>547.21</ele>
<time>2022-05-25T12:46:33Z</time>
</trkpt>
<trkpt lat="48.235413" lon="10.928759">
<ele>547.175</ele>
<time>2022-05-25T12:46:34Z</time>
</trkpt>
<trkpt lat="48.235397" lon="10.928836">
<ele>547.149</ele>
<time>2022-05-25T12:46:35Z</time>
</trkpt>
<trkpt lat="48.235378" lon="10.928913">
<ele>547.149</ele>
<time>2022-05-25T12:46:36Z</time>
</trkpt>
<trkpt lat="48.235363" lon="10.92899">
<ele>547.149</ele>
<time>2022-05-25T12:46:37Z</time>
</trkpt>
<trkpt lat="48.235359" lon="10.92906">
<ele>547.149</ele>
<time>2022-05-25T12:46:38Z</time>
</trkpt>
<trkpt lat="48.235344" lon="10.929135">
<ele>547.149</ele>
<time>2022-05-25T12:46:39Z</time>
</trkpt>
<trkpt lat="48.235332" lon="10.929207">
<ele>547.149</ele>
<time>2022-05-25T12:46:40Z</time>
</trkpt>
<trkpt lat="48.235313" lon="10.929282">
<ele>547.149</ele>
<time>2022-05-25T12:46:41Z</time>
</trkpt>
<trkpt lat="48.235291" lon="10.929359">
<ele>547.149</ele>
<time>2022-05-25T12:46:42Z</time>
</trkpt>
<trkpt lat="48.23526" lon="10.92943">
<ele>547.149</ele>
<time>2022-05-25T12:46:43Z</time>
</trkpt>
<trkpt lat="48.235233" lon="10.929496">
<ele>547.149</ele>
<time>2022-05-25T12:46:44Z</time>
</trkpt>
<trkpt lat="48.235207" lon="10.929559">
<ele>547.149</ele>
<time>2022-05-25T12:46:45Z</time>
</trkpt>
<trkpt lat="48.235176" lon="10.929613">
<ele>547.149</ele>
<time>2022-05-25T12:46:46Z</time>
</trkpt>
<trkpt lat="48.235134" lon="10.92965">
<ele>547.149</ele>
<time>2022-05-25T12:46:47Z</time>
</trkpt>
<trkpt lat="48.235092" lon="10.929667">
<ele>547.149</ele>
<time>2022-05-25T12:46:48Z</time>
</trkpt>
<trkpt lat="48.235046" lon="10.929668">
<ele>547.149</ele>
<time>2022-05-25T12:46:49Z</time>
</trkpt>
<trkpt lat="48.235001" lon="10.929664">
<ele>547.149</ele>
<time>2022-05-25T12:46:50Z</time>
</trkpt>
<trkpt lat="48.234955" lon="10.929659">
<ele>547.149</ele>
<time>2022-05-25T12:46:51Z</time>
</trkpt>
<trkpt lat="48.234905" lon="10.929648">
<ele>547.149</ele>
<time>2022-05-25T12:46:52Z</time>
</trkpt>
<trkpt lat="48.234856" lon="10.929635">
<ele>547.149</ele>
<time>2022-05-25T12:46:53Z</time>
</trkpt>
<trkpt lat="48.234806" lon="10.929618">
<ele>547.149</ele>
<time>2022-05-25T12:46:54Z</time>
</trkpt>
<trkpt lat="48.234756" lon="10.929602">
<ele>547.149</ele>
<time>2022-05-25T12:46:55Z</time>
</trkpt>
<trkpt lat="48.234699" lon="10.929586">
<ele>547.149</ele>
<time>2022-05-25T12:46:56Z</time>
</trkpt>
<trkpt lat="48.23465" lon="10.929571">
<ele>547.149</ele>
<time>2022-05-25T12:46:57Z</time>
</trkpt>
<trkpt lat="48.234596" lon="10.929562">
<ele>547.149</ele>
<time>2022-05-25T12:46:58Z</time>
</trkpt>
<trkpt lat="48.234539" lon="10.92955">
<ele>547.149</ele>
<time>2022-05-25T12:46:59Z</time>
</trkpt>
<trkpt lat="48.234482" lon="10.929538">
<ele>547.149</ele>
<time>2022-05-25T12:47:00Z</time>
</trkpt>
<trkpt lat="48.234425" lon="10.929528">
<ele>547.149</ele>
<time>2022-05-25T12:47:01Z</time>
</trkpt>
<trkpt lat="48.234364" lon="10.929519">
<ele>547.149</ele>
<time>2022-05-25T12:47:02Z</time>
</trkpt>
<trkpt lat="48.234303" lon="10.929503">
<ele>547.149</ele>
<time>2022-05-25T12:47:03Z</time>
</trkpt>
<trkpt lat="48.234245" lon="10.929492">
<ele>547.149</ele>
<time>2022-05-25T12:47:04Z</time>
</trkpt>
<trkpt lat="48.234188" lon="10.929482">
<ele>547.149</ele>
<time>2022-05-25T12:47:05Z</time>
</trkpt>
<trkpt lat="48.234127" lon="10.929468">
<ele>547.149</ele>
<time>2022-05-25T12:47:06Z</time>
</trkpt>
<trkpt lat="48.234074" lon="10.929454">
<ele>547.149</ele>
<time>2022-05-25T12:47:07Z</time>
</trkpt>
<trkpt lat="48.234016" lon="10.929439">
<ele>547.149</ele>
<time>2022-05-25T12:47:08Z</time>
</trkpt>
<trkpt lat="48.233963" lon="10.929427">
<ele>547.149</ele>
<time>2022-05-25T12:47:09Z</time>
</trkpt>
<trkpt lat="48.23391" lon="10.929414">
<ele>547.149</ele>
<time>2022-05-25T12:47:10Z</time>
</trkpt>
<trkpt lat="48.233852" lon="10.929399">
<ele>547.149</ele>
<time>2022-05-25T12:47:11Z</time>
</trkpt>
<trkpt lat="48.233803" lon="10.929383">
<ele>547.149</ele>
<time>2022-05-25T12:47:12Z</time>
</trkpt>
<trkpt lat="48.233753" lon="10.929368">
<ele>547.149</ele>
<time>2022-05-25T12:47:13Z</time>
</trkpt>
<trkpt lat="48.233704" lon="10.929352">
<ele>547.149</ele>
<time>2022-05-25T12:47:14Z</time>
</trkpt>
<trkpt lat="48.23365" lon="10.92934">
<ele>547.149</ele>
<time>2022-05-25T12:47:15Z</time>
</trkpt>
<trkpt lat="48.233601" lon="10.929328">
<ele>547.149</ele>
<time>2022-05-25T12:47:16Z</time>
</trkpt>
<trkpt lat="48.233551" lon="10.929316">
<ele>547.149</ele>
<time>2022-05-25T12:47:17Z</time>
</trkpt>
<trkpt lat="48.233501" lon="10.9293">
<ele>547.149</ele>
<time>2022-05-25T12:47:18Z</time>
</trkpt>
<trkpt lat="48.233452" lon="10.929287">
<ele>547.149</ele>
<time>2022-05-25T12:47:19Z</time>
</trkpt>
<trkpt lat="48.233406" lon="10.929276">
<ele>547.149</ele>
<time>2022-05-25T12:47:20Z</time>
</trkpt>
<trkpt lat="48.233356" lon="10.929261">
<ele>547.149</ele>
<time>2022-05-25T12:47:21Z</time>
</trkpt>
<trkpt lat="48.233307" lon="10.929245">
<ele>547.149</ele>
<time>2022-05-25T12:47:22Z</time>
</trkpt>
<trkpt lat="48.233257" lon="10.929232">
<ele>547.149</ele>
<time>2022-05-25T12:47:23Z</time>
</trkpt>
<trkpt lat="48.233212" lon="10.929218">
<ele>547.149</ele>
<time>2022-05-25T12:47:24Z</time>
</trkpt>
<trkpt lat="48.233162" lon="10.929207">
<ele>547.149</ele>
<time>2022-05-25T12:47:25Z</time>
</trkpt>
<trkpt lat="48.233109" lon="10.929196">
<ele>547.149</ele>
<time>2022-05-25T12:47:26Z</time>
</trkpt>
<trkpt lat="48.233063" lon="10.929186">
<ele>547.149</ele>
<time>2022-05-25T12:47:27Z</time>
</trkpt>
<trkpt lat="48.233013" lon="10.929173">
<ele>547.149</ele>
<time>2022-05-25T12:47:28Z</time>
</trkpt>
<trkpt lat="48.232964" lon="10.929156">
<ele>547.149</ele>
<time>2022-05-25T12:47:29Z</time>
</trkpt>
<trkpt lat="48.232918" lon="10.929142">
<ele>547.149</ele>
<time>2022-05-25T12:47:30Z</time>
</trkpt>
<trkpt lat="48.232868" lon="10.929132">
<ele>547.149</ele>
<time>2022-05-25T12:47:31Z</time>
</trkpt>
<trkpt lat="48.232819" lon="10.929121">
<ele>547.149</ele>
<time>2022-05-25T12:47:32Z</time>
</trkpt>
<trkpt lat="48.232769" lon="10.929112">
<ele>547.149</ele>
<time>2022-05-25T12:47:33Z</time>
</trkpt>
<trkpt lat="48.232719" lon="10.9291">
<ele>547.343</ele>
<time>2022-05-25T12:47:34Z</time>
</trkpt>
<trkpt lat="48.23267" lon="10.929087">
<ele>547.528</ele>
<time>2022-05-25T12:47:35Z</time>
</trkpt>
<trkpt lat="48.232624" lon="10.929073">
<ele>547.678</ele>
<time>2022-05-25T12:47:36Z</time>
</trkpt>
<trkpt lat="48.232574" lon="10.929065">
<ele>547.801</ele>
<time>2022-05-25T12:47:37Z</time>
</trkpt>
<trkpt lat="48.232521" lon="10.929051">
<ele>547.893</ele>
<time>2022-05-25T12:47:38Z</time>
</trkpt>
<trkpt lat="48.232471" lon="10.929037">
<ele>547.958</ele>
<time>2022-05-25T12:47:39Z</time>
</trkpt>
<trkpt lat="48.232418" lon="10.929022">
<ele>548</ele>
<time>2022-05-25T12:47:40Z</time>
</trkpt>
<trkpt lat="48.232368" lon="10.929009">
<ele>548.021</ele>
<time>2022-05-25T12:47:41Z</time>
</trkpt>
<trkpt lat="48.232315" lon="10.928999">
<ele>548.021</ele>
<time>2022-05-25T12:47:42Z</time>
</trkpt>
<trkpt lat="48.232265" lon="10.928985">
<ele>548.021</ele>
<time>2022-05-25T12:47:43Z</time>
</trkpt>
<trkpt lat="48.232216" lon="10.92897">
<ele>548.021</ele>
<time>2022-05-25T12:47:44Z</time>
</trkpt>
<trkpt lat="48.232162" lon="10.928957">
<ele>548.021</ele>
<time>2022-05-25T12:47:45Z</time>
</trkpt>
<trkpt lat="48.232117" lon="10.928943">
<ele>548.021</ele>
<time>2022-05-25T12:47:46Z</time>
</trkpt>
<trkpt lat="48.232067" lon="10.928932">
<ele>548.021</ele>
<time>2022-05-25T12:47:47Z</time>
</trkpt>
<trkpt lat="48.232018" lon="10.928922">
<ele>548.021</ele>
<time>2022-05-25T12:47:48Z</time>
</trkpt>
<trkpt lat="48.231968" lon="10.928911">
<ele>548.021</ele>
<time>2022-05-25T12:47:49Z</time>
</trkpt>
<trkpt lat="48.231918" lon="10.928897">
<ele>548.021</ele>
<time>2022-05-25T12:47:50Z</time>
</trkpt>
<trkpt lat="48.231865" lon="10.928884">
<ele>548.021</ele>
<time>2022-05-25T12:47:51Z</time>
</trkpt>
<trkpt lat="48.231819" lon="10.928868">
<ele>548.021</ele>
<time>2022-05-25T12:47:52Z</time>
</trkpt>
<trkpt lat="48.231766" lon="10.928855">
<ele>548.021</ele>
<time>2022-05-25T12:47:53Z</time>
</trkpt>
<trkpt lat="48.23172" lon="10.928842">
<ele>548.235</ele>
<time>2022-05-25T12:47:54Z</time>
</trkpt>
<trkpt lat="48.23167" lon="10.928828">
<ele>548.436</ele>
<time>2022-05-25T12:47:55Z</time>
</trkpt>
<trkpt lat="48.231625" lon="10.928815">
<ele>548.599</ele>
<time>2022-05-25T12:47:56Z</time>
</trkpt>
<trkpt lat="48.231575" lon="10.928803">
<ele>548.733</ele>
<time>2022-05-25T12:47:57Z</time>
</trkpt>
<trkpt lat="48.231529" lon="10.928788">
<ele>548.834</ele>
<time>2022-05-25T12:47:58Z</time>
</trkpt>
<trkpt lat="48.23148" lon="10.928773">
<ele>548.908</ele>
<time>2022-05-25T12:47:59Z</time>
</trkpt>
<trkpt lat="48.23143" lon="10.928761">
<ele>548.957</ele>
<time>2022-05-25T12:48:00Z</time>
</trkpt>
<trkpt lat="48.231377" lon="10.928746">
<ele>548.979</ele>
<time>2022-05-25T12:48:01Z</time>
</trkpt>
<trkpt lat="48.231327" lon="10.928733">
<ele>548.979</ele>
<time>2022-05-25T12:48:02Z</time>
</trkpt>
<trkpt lat="48.231274" lon="10.928719">
<ele>548.979</ele>
<time>2022-05-25T12:48:03Z</time>
</trkpt>
<trkpt lat="48.23122" lon="10.928705">
<ele>548.979</ele>
<time>2022-05-25T12:48:04Z</time>
</trkpt>
<trkpt lat="48.231171" lon="10.928692">
<ele>548.979</ele>
<time>2022-05-25T12:48:05Z</time>
</trkpt>
<trkpt lat="48.231121" lon="10.928681">
<ele>548.979</ele>
<time>2022-05-25T12:48:06Z</time>
</trkpt>
<trkpt lat="48.231075" lon="10.928672">
<ele>548.979</ele>
<time>2022-05-25T12:48:07Z</time>
</trkpt>
<trkpt lat="48.231022" lon="10.928661">
<ele>548.979</ele>
<time>2022-05-25T12:48:08Z</time>
</trkpt>
<trkpt lat="48.230976" lon="10.928648">
<ele>548.979</ele>
<time>2022-05-25T12:48:09Z</time>
</trkpt>
<trkpt lat="48.230927" lon="10.928633">
<ele>548.979</ele>
<time>2022-05-25T12:48:10Z</time>
</trkpt>
<trkpt lat="48.230877" lon="10.92862">
<ele>548.979</ele>
<time>2022-05-25T12:48:11Z</time>
</trkpt>
<trkpt lat="48.230827" lon="10.928608">
<ele>548.979</ele>
<time>2022-05-25T12:48:12Z</time>
</trkpt>
<trkpt lat="48.230782" lon="10.928595">
<ele>548.979</ele>
<time>2022-05-25T12:48:13Z</time>
</trkpt>
<trkpt lat="48.230728" lon="10.92858">
<ele>548.979</ele>
<time>2022-05-25T12:48:14Z</time>
</trkpt>
<trkpt lat="48.230679" lon="10.928568">
<ele>548.979</ele>
<time>2022-05-25T12:48:15Z</time>
</trkpt>
<trkpt lat="48.230625" lon="10.928555">
<ele>548.979</ele>
<time>2022-05-25T12:48:16Z</time>
</trkpt>
<trkpt lat="48.230576" lon="10.92854">
<ele>548.979</ele>
<time>2022-05-25T12:48:17Z</time>
</trkpt>
<trkpt lat="48.230522" lon="10.928528">
<ele>548.979</ele>
<time>2022-05-25T12:48:18Z</time>
</trkpt>
<trkpt lat="48.230473" lon="10.928515">
<ele>548.979</ele>
<time>2022-05-25T12:48:19Z</time>
</trkpt>
<trkpt lat="48.230423" lon="10.928501">
<ele>548.979</ele>
<time>2022-05-25T12:48:20Z</time>
</trkpt>
<trkpt lat="48.23037" lon="10.928487">
<ele>548.979</ele>
<time>2022-05-25T12:48:21Z</time>
</trkpt>
<trkpt lat="48.23032" lon="10.928473">
<ele>548.979</ele>
<time>2022-05-25T12:48:22Z</time>
</trkpt>
<trkpt lat="48.230267" lon="10.928458">
<ele>548.979</ele>
<time>2022-05-25T12:48:23Z</time>
</trkpt>
<trkpt lat="48.230221" lon="10.928444">
<ele>548.979</ele>
<time>2022-05-25T12:48:24Z</time>
</trkpt>
<trkpt lat="48.230164" lon="10.928429">
<ele>548.979</ele>
<time>2022-05-25T12:48:25Z</time>
</trkpt>
<trkpt lat="48.230118" lon="10.928415">
<ele>548.979</ele>
<time>2022-05-25T12:48:26Z</time>
</trkpt>
<trkpt lat="48.230064" lon="10.9284">
<ele>548.979</ele>
<time>2022-05-25T12:48:27Z</time>
</trkpt>
<trkpt lat="48.230019" lon="10.928385">
<ele>548.979</ele>
<time>2022-05-25T12:48:28Z</time>
</trkpt>
<trkpt lat="48.229965" lon="10.928373">
<ele>548.979</ele>
<time>2022-05-25T12:48:29Z</time>
</trkpt>
<trkpt lat="48.229919" lon="10.928362">
<ele>548.979</ele>
<time>2022-05-25T12:48:30Z</time>
</trkpt>
<trkpt lat="48.22987" lon="10.928347">
<ele>548.979</ele>
<time>2022-05-25T12:48:31Z</time>
</trkpt>
<trkpt lat="48.229816" lon="10.928331">
<ele>548.979</ele>
<time>2022-05-25T12:48:32Z</time>
</trkpt>
<trkpt lat="48.229771" lon="10.928316">
<ele>548.979</ele>
<time>2022-05-25T12:48:33Z</time>
</trkpt>
<trkpt lat="48.229717" lon="10.928302">
<ele>548.979</ele>
<time>2022-05-25T12:48:34Z</time>
</trkpt>
<trkpt lat="48.229671" lon="10.928288">
<ele>548.979</ele>
<time>2022-05-25T12:48:35Z</time>
</trkpt>
<trkpt lat="48.229618" lon="10.928275">
<ele>548.979</ele>
<time>2022-05-25T12:48:36Z</time>
</trkpt>
<trkpt lat="48.229568" lon="10.92826">
<ele>548.979</ele>
<time>2022-05-25T12:48:37Z</time>
</trkpt>
<trkpt lat="48.229515" lon="10.928246">
<ele>548.979</ele>
<time>2022-05-25T12:48:38Z</time>
</trkpt>
<trkpt lat="48.229465" lon="10.928233">
<ele>548.979</ele>
<time>2022-05-25T12:48:39Z</time>
</trkpt>
<trkpt lat="48.229412" lon="10.928222">
<ele>548.979</ele>
<time>2022-05-25T12:48:40Z</time>
</trkpt>
<trkpt lat="48.229362" lon="10.928209">
<ele>548.979</ele>
<time>2022-05-25T12:48:41Z</time>
</trkpt>
<trkpt lat="48.229309" lon="10.928197">
<ele>548.979</ele>
<time>2022-05-25T12:48:42Z</time>
</trkpt>
<trkpt lat="48.229256" lon="10.928184">
<ele>548.979</ele>
<time>2022-05-25T12:48:43Z</time>
</trkpt>
<trkpt lat="48.22921" lon="10.928172">
<ele>548.979</ele>
<time>2022-05-25T12:48:44Z</time>
</trkpt>
<trkpt lat="48.229156" lon="10.928159">
<ele>548.979</ele>
<time>2022-05-25T12:48:45Z</time>
</trkpt>
<trkpt lat="48.229111" lon="10.928146">
<ele>548.979</ele>
<time>2022-05-25T12:48:46Z</time>
</trkpt>
<trkpt lat="48.229057" lon="10.928134">
<ele>548.979</ele>
<time>2022-05-25T12:48:47Z</time>
</trkpt>
<trkpt lat="48.229008" lon="10.92812">
<ele>548.979</ele>
<time>2022-05-25T12:48:48Z</time>
</trkpt>
<trkpt lat="48.228958" lon="10.928106">
<ele>548.979</ele>
<time>2022-05-25T12:48:49Z</time>
</trkpt>
<trkpt lat="48.228909" lon="10.928094">
<ele>548.979</ele>
<time>2022-05-25T12:48:50Z</time>
</trkpt>
<trkpt lat="48.228859" lon="10.928082">
<ele>548.979</ele>
<time>2022-05-25T12:48:51Z</time>
</trkpt>
<trkpt lat="48.228809" lon="10.928069">
<ele>548.979</ele>
<time>2022-05-25T12:48:52Z</time>
</trkpt>
<trkpt lat="48.22876" lon="10.928057">
<ele>548.979</ele>
<time>2022-05-25T12:48:53Z</time>
</trkpt>
<trkpt lat="48.22871" lon="10.928043">
<ele>548.979</ele>
<time>2022-05-25T12:48:54Z</time>
</trkpt>
<trkpt lat="48.228661" lon="10.92803">
<ele>548.979</ele>
<time>2022-05-25T12:48:55Z</time>
</trkpt>
<trkpt lat="48.228611" lon="10.928015">
<ele>548.979</ele>
<time>2022-05-25T12:48:56Z</time>
</trkpt>
<trkpt lat="48.228565" lon="10.928001">
<ele>548.979</ele>
<time>2022-05-25T12:48:57Z</time>
</trkpt>
<trkpt lat="48.228512" lon="10.927987">
<ele>548.979</ele>
<time>2022-05-25T12:48:58Z</time>
</trkpt>
<trkpt lat="48.228462" lon="10.927972">
<ele>548.979</ele>
<time>2022-05-25T12:48:59Z</time>
</trkpt>
<trkpt lat="48.228413" lon="10.92796">
<ele>548.979</ele>
<time>2022-05-25T12:49:00Z</time>
</trkpt>
<trkpt lat="48.228363" lon="10.927948">
<ele>548.979</ele>
<time>2022-05-25T12:49:01Z</time>
</trkpt>
<trkpt lat="48.22831" lon="10.927937">
<ele>548.979</ele>
<time>2022-05-25T12:49:02Z</time>
</trkpt>
<trkpt lat="48.228264" lon="10.927922">
<ele>548.979</ele>
<time>2022-05-25T12:49:03Z</time>
</trkpt>
<trkpt lat="48.22821" lon="10.927912">
<ele>548.979</ele>
<time>2022-05-25T12:49:04Z</time>
</trkpt>
<trkpt lat="48.228161" lon="10.927898">
<ele>548.979</ele>
<time>2022-05-25T12:49:05Z</time>
</trkpt>
<trkpt lat="48.228111" lon="10.927885">
<ele>548.979</ele>
<time>2022-05-25T12:49:06Z</time>
</trkpt>
<trkpt lat="48.228065" lon="10.92787">
<ele>548.979</ele>
<time>2022-05-25T12:49:07Z</time>
</trkpt>
<trkpt lat="48.228016" lon="10.927858">
<ele>548.979</ele>
<time>2022-05-25T12:49:08Z</time>
</trkpt>
<trkpt lat="48.22797" lon="10.927843">
<ele>548.979</ele>
<time>2022-05-25T12:49:09Z</time>
</trkpt>
<trkpt lat="48.227921" lon="10.92783">
<ele>548.979</ele>
<time>2022-05-25T12:49:10Z</time>
</trkpt>
<trkpt lat="48.227871" lon="10.927817">
<ele>549.222</ele>
<time>2022-05-25T12:49:11Z</time>
</trkpt>
<trkpt lat="48.227821" lon="10.927805">
<ele>549.415</ele>
<time>2022-05-25T12:49:12Z</time>
</trkpt>
<trkpt lat="48.227776" lon="10.927792">
<ele>549.568</ele>
<time>2022-05-25T12:49:13Z</time>
</trkpt>
<trkpt lat="48.227726" lon="10.92778">
<ele>549.672</ele>
<time>2022-05-25T12:49:14Z</time>
</trkpt>
<trkpt lat="48.22768" lon="10.927768">
<ele>549.783</ele>
<time>2022-05-25T12:49:15Z</time>
</trkpt>
<trkpt lat="48.227631" lon="10.927758">
<ele>549.863</ele>
<time>2022-05-25T12:49:16Z</time>
</trkpt>
<trkpt lat="48.227585" lon="10.927745">
<ele>549.913</ele>
<time>2022-05-25T12:49:17Z</time>
</trkpt>
<trkpt lat="48.227531" lon="10.927732">
<ele>549.938</ele>
<time>2022-05-25T12:49:18Z</time>
</trkpt>
<trkpt lat="48.227486" lon="10.927719">
<ele>549.938</ele>
<time>2022-05-25T12:49:19Z</time>
</trkpt>
<trkpt lat="48.227436" lon="10.927707">
<ele>549.938</ele>
<time>2022-05-25T12:49:20Z</time>
</trkpt>
<trkpt lat="48.227386" lon="10.927694">
<ele>549.938</ele>
<time>2022-05-25T12:49:21Z</time>
</trkpt>
<trkpt lat="48.227337" lon="10.927684">
<ele>549.938</ele>
<time>2022-05-25T12:49:22Z</time>
</trkpt>
<trkpt lat="48.227291" lon="10.927671">
<ele>549.938</ele>
<time>2022-05-25T12:49:23Z</time>
</trkpt>
<trkpt lat="48.227238" lon="10.927658">
<ele>549.938</ele>
<time>2022-05-25T12:49:24Z</time>
</trkpt>
<trkpt lat="48.227188" lon="10.927646">
<ele>549.938</ele>
<time>2022-05-25T12:49:25Z</time>
</trkpt>
<trkpt lat="48.227135" lon="10.927633">
<ele>549.938</ele>
<time>2022-05-25T12:49:26Z</time>
</trkpt>
<trkpt lat="48.227085" lon="10.927618">
<ele>549.938</ele>
<time>2022-05-25T12:49:27Z</time>
</trkpt>
<trkpt lat="48.227032" lon="10.927605">
<ele>549.938</ele>
<time>2022-05-25T12:49:28Z</time>
</trkpt>
<trkpt lat="48.226982" lon="10.927589">
<ele>549.938</ele>
<time>2022-05-25T12:49:29Z</time>
</trkpt>
<trkpt lat="48.226933" lon="10.927575">
<ele>549.938</ele>
<time>2022-05-25T12:49:30Z</time>
</trkpt>
<trkpt lat="48.226883" lon="10.92756">
<ele>549.938</ele>
<time>2022-05-25T12:49:31Z</time>
</trkpt>
<trkpt lat="48.226833" lon="10.927549">
<ele>549.938</ele>
<time>2022-05-25T12:49:32Z</time>
</trkpt>
<trkpt lat="48.22678" lon="10.927539">
<ele>549.938</ele>
<time>2022-05-25T12:49:33Z</time>
</trkpt>
<trkpt lat="48.226734" lon="10.927526">
<ele>549.938</ele>
<time>2022-05-25T12:49:34Z</time>
</trkpt>
<trkpt lat="48.226681" lon="10.927512">
<ele>549.938</ele>
<time>2022-05-25T12:49:35Z</time>
</trkpt>
<trkpt lat="48.226635" lon="10.9275">
<ele>549.938</ele>
<time>2022-05-25T12:49:36Z</time>
</trkpt>
<trkpt lat="48.226585" lon="10.927486">
<ele>549.938</ele>
<time>2022-05-25T12:49:37Z</time>
</trkpt>
<trkpt lat="48.22654" lon="10.927472">
<ele>549.938</ele>
<time>2022-05-25T12:49:38Z</time>
</trkpt>
<trkpt lat="48.226486" lon="10.927459">
<ele>549.938</ele>
<time>2022-05-25T12:49:39Z</time>
</trkpt>
<trkpt lat="48.226437" lon="10.927444">
<ele>549.938</ele>
<time>2022-05-25T12:49:40Z</time>
</trkpt>
<trkpt lat="48.226387" lon="10.92743">
<ele>549.938</ele>
<time>2022-05-25T12:49:41Z</time>
</trkpt>
<trkpt lat="48.226337" lon="10.927417">
<ele>549.938</ele>
<time>2022-05-25T12:49:42Z</time>
</trkpt>
<trkpt lat="48.226288" lon="10.927407">
<ele>549.938</ele>
<time>2022-05-25T12:49:43Z</time>
</trkpt>
<trkpt lat="48.226238" lon="10.927395">
<ele>549.938</ele>
<time>2022-05-25T12:49:44Z</time>
</trkpt>
<trkpt lat="48.226189" lon="10.927382">
<ele>549.938</ele>
<time>2022-05-25T12:49:45Z</time>
</trkpt>
<trkpt lat="48.226139" lon="10.92737">
<ele>549.938</ele>
<time>2022-05-25T12:49:46Z</time>
</trkpt>
<trkpt lat="48.226089" lon="10.927357">
<ele>549.938</ele>
<time>2022-05-25T12:49:47Z</time>
</trkpt>
<trkpt lat="48.226044" lon="10.927343">
<ele>549.938</ele>
<time>2022-05-25T12:49:48Z</time>
</trkpt>
<trkpt lat="48.22599" lon="10.92733">
<ele>549.938</ele>
<time>2022-05-25T12:49:49Z</time>
</trkpt>
<trkpt lat="48.225941" lon="10.927317">
<ele>549.938</ele>
<time>2022-05-25T12:49:50Z</time>
</trkpt>
<trkpt lat="48.225891" lon="10.927304">
<ele>549.938</ele>
<time>2022-05-25T12:49:51Z</time>
</trkpt>
<trkpt lat="48.225842" lon="10.927294">
<ele>549.938</ele>
<time>2022-05-25T12:49:52Z</time>
</trkpt>
<trkpt lat="48.225792" lon="10.927281">
<ele>549.938</ele>
<time>2022-05-25T12:49:53Z</time>
</trkpt>
<trkpt lat="48.225742" lon="10.927271">
<ele>549.938</ele>
<time>2022-05-25T12:49:54Z</time>
</trkpt>
<trkpt lat="48.225693" lon="10.927258">
<ele>549.938</ele>
<time>2022-05-25T12:49:55Z</time>
</trkpt>
<trkpt lat="48.225639" lon="10.927246">
<ele>549.938</ele>
<time>2022-05-25T12:49:56Z</time>
</trkpt>
<trkpt lat="48.22559" lon="10.927232">
<ele>549.938</ele>
<time>2022-05-25T12:49:57Z</time>
</trkpt>
<trkpt lat="48.22554" lon="10.927218">
<ele>549.938</ele>
<time>2022-05-25T12:49:58Z</time>
</trkpt>
<trkpt lat="48.225494" lon="10.927205">
<ele>549.938</ele>
<time>2022-05-25T12:49:59Z</time>
</trkpt>
<trkpt lat="48.225441" lon="10.92719">
<ele>549.938</ele>
<time>2022-05-25T12:50:00Z</time>
</trkpt>
<trkpt lat="48.225395" lon="10.927178">
<ele>549.938</ele>
<time>2022-05-25T12:50:01Z</time>
</trkpt>
<trkpt lat="48.225342" lon="10.927166">
<ele>549.938</ele>
<time>2022-05-25T12:50:02Z</time>
</trkpt>
<trkpt lat="48.225292" lon="10.927155">
<ele>549.938</ele>
<time>2022-05-25T12:50:03Z</time>
</trkpt>
<trkpt lat="48.225243" lon="10.927141">
<ele>549.938</ele>
<time>2022-05-25T12:50:04Z</time>
</trkpt>
<trkpt lat="48.225193" lon="10.927129">
<ele>549.938</ele>
<time>2022-05-25T12:50:05Z</time>
</trkpt>
<trkpt lat="48.225143" lon="10.927118">
<ele>549.938</ele>
<time>2022-05-25T12:50:06Z</time>
</trkpt>
<trkpt lat="48.225094" lon="10.927107">
<ele>549.938</ele>
<time>2022-05-25T12:50:07Z</time>
</trkpt>
<trkpt lat="48.225044" lon="10.927094">
<ele>549.938</ele>
<time>2022-05-25T12:50:08Z</time>
</trkpt>
<trkpt lat="48.224995" lon="10.927082">
<ele>549.938</ele>
<time>2022-05-25T12:50:09Z</time>
</trkpt>
<trkpt lat="48.224945" lon="10.927068">
<ele>549.938</ele>
<time>2022-05-25T12:50:10Z</time>
</trkpt>
<trkpt lat="48.224899" lon="10.927055">
<ele>549.938</ele>
<time>2022-05-25T12:50:11Z</time>
</trkpt>
<trkpt lat="48.22485" lon="10.927042">
<ele>549.938</ele>
<time>2022-05-25T12:50:12Z</time>
</trkpt>
<trkpt lat="48.2248" lon="10.927027">
<ele>549.938</ele>
<time>2022-05-25T12:50:13Z</time>
</trkpt>
<trkpt lat="48.224751" lon="10.927015">
<ele>549.938</ele>
<time>2022-05-25T12:50:14Z</time>
</trkpt>
<trkpt lat="48.224697" lon="10.927002">
<ele>549.938</ele>
<time>2022-05-25T12:50:15Z</time>
</trkpt>
<trkpt lat="48.224651" lon="10.926989">
<ele>549.938</ele>
<time>2022-05-25T12:50:16Z</time>
</trkpt>
<trkpt lat="48.224598" lon="10.926975">
<ele>550.193</ele>
<time>2022-05-25T12:50:17Z</time>
</trkpt>
<trkpt lat="48.224552" lon="10.926961">
<ele>550.386</ele>
<time>2022-05-25T12:50:18Z</time>
</trkpt>
<trkpt lat="48.224499" lon="10.926949">
<ele>550.534</ele>
<time>2022-05-25T12:50:19Z</time>
</trkpt>
<trkpt lat="48.224449" lon="10.926935">
<ele>550.642</ele>
<time>2022-05-25T12:50:20Z</time>
</trkpt>
<trkpt lat="48.224396" lon="10.92692">
<ele>550.719</ele>
<time>2022-05-25T12:50:21Z</time>
</trkpt>
<trkpt lat="48.22435" lon="10.926904">
<ele>550.767</ele>
<time>2022-05-25T12:50:22Z</time>
</trkpt>
<trkpt lat="48.224297" lon="10.926889">
<ele>550.789</ele>
<time>2022-05-25T12:50:23Z</time>
</trkpt>
<trkpt lat="48.224247" lon="10.926875">
<ele>550.81</ele>
<time>2022-05-25T12:50:24Z</time>
</trkpt>
<trkpt lat="48.224197" lon="10.926862">
<ele>550.81</ele>
<time>2022-05-25T12:50:25Z</time>
</trkpt>
<trkpt lat="48.224152" lon="10.926848">
<ele>550.81</ele>
<time>2022-05-25T12:50:26Z</time>
</trkpt>
<trkpt lat="48.224102" lon="10.926833">
<ele>550.81</ele>
<time>2022-05-25T12:50:27Z</time>
</trkpt>
<trkpt lat="48.224052" lon="10.926816">
<ele>550.81</ele>
<time>2022-05-25T12:50:28Z</time>
</trkpt>
<trkpt lat="48.223999" lon="10.926802">
<ele>550.81</ele>
<time>2022-05-25T12:50:29Z</time>
</trkpt>
<trkpt lat="48.223953" lon="10.92679">
<ele>550.81</ele>
<time>2022-05-25T12:50:30Z</time>
</trkpt>
<trkpt lat="48.223904" lon="10.926777">
<ele>550.81</ele>
<time>2022-05-25T12:50:31Z</time>
</trkpt>
<trkpt lat="48.22385" lon="10.926764">
<ele>550.81</ele>
<time>2022-05-25T12:50:32Z</time>
</trkpt>
<trkpt lat="48.223801" lon="10.926749">
<ele>550.81</ele>
<time>2022-05-25T12:50:33Z</time>
</trkpt>
<trkpt lat="48.223751" lon="10.926739">
<ele>550.81</ele>
<time>2022-05-25T12:50:34Z</time>
</trkpt>
<trkpt lat="48.223698" lon="10.926726">
<ele>550.81</ele>
<time>2022-05-25T12:50:35Z</time>
</trkpt>
<trkpt lat="48.223644" lon="10.926715">
<ele>550.81</ele>
<time>2022-05-25T12:50:36Z</time>
</trkpt>
<trkpt lat="48.223591" lon="10.926702">
<ele>550.81</ele>
<time>2022-05-25T12:50:37Z</time>
</trkpt>
<trkpt lat="48.223541" lon="10.926688">
<ele>550.81</ele>
<time>2022-05-25T12:50:38Z</time>
</trkpt>
<trkpt lat="48.223488" lon="10.926674">
<ele>550.81</ele>
<time>2022-05-25T12:50:39Z</time>
</trkpt>
<trkpt lat="48.223438" lon="10.926659">
<ele>550.81</ele>
<time>2022-05-25T12:50:40Z</time>
</trkpt>
<trkpt lat="48.223389" lon="10.926643">
<ele>550.81</ele>
<time>2022-05-25T12:50:41Z</time>
</trkpt>
<trkpt lat="48.223343" lon="10.92663">
<ele>550.81</ele>
<time>2022-05-25T12:50:42Z</time>
</trkpt>
<trkpt lat="48.223293" lon="10.926617">
<ele>550.81</ele>
<time>2022-05-25T12:50:43Z</time>
</trkpt>
<trkpt lat="48.223248" lon="10.926603">
<ele>550.81</ele>
<time>2022-05-25T12:50:44Z</time>
</trkpt>
<trkpt lat="48.223194" lon="10.92659">
<ele>550.81</ele>
<time>2022-05-25T12:50:45Z</time>
</trkpt>
<trkpt lat="48.223145" lon="10.926577">
<ele>550.81</ele>
<time>2022-05-25T12:50:46Z</time>
</trkpt>
<trkpt lat="48.223091" lon="10.926565">
<ele>550.81</ele>
<time>2022-05-25T12:50:47Z</time>
</trkpt>
<trkpt lat="48.223042" lon="10.926554">
<ele>550.81</ele>
<time>2022-05-25T12:50:48Z</time>
</trkpt>
<trkpt lat="48.222988" lon="10.926539">
<ele>550.81</ele>
<time>2022-05-25T12:50:49Z</time>
</trkpt>
<trkpt lat="48.222939" lon="10.926523">
<ele>550.81</ele>
<time>2022-05-25T12:50:50Z</time>
</trkpt>
<trkpt lat="48.222889" lon="10.926508">
<ele>550.81</ele>
<time>2022-05-25T12:50:51Z</time>
</trkpt>
<trkpt lat="48.222839" lon="10.926497">
<ele>550.81</ele>
<time>2022-05-25T12:50:52Z</time>
</trkpt>
<trkpt lat="48.22279" lon="10.926485">
<ele>550.81</ele>
<time>2022-05-25T12:50:53Z</time>
</trkpt>
<trkpt lat="48.222736" lon="10.926472">
<ele>550.81</ele>
<time>2022-05-25T12:50:54Z</time>
</trkpt>
<trkpt lat="48.222687" lon="10.926456">
<ele>550.81</ele>
<time>2022-05-25T12:50:55Z</time>
</trkpt>
<trkpt lat="48.222637" lon="10.926443">
<ele>550.81</ele>
<time>2022-05-25T12:50:56Z</time>
</trkpt>
<trkpt lat="48.222584" lon="10.926432">
<ele>550.81</ele>
<time>2022-05-25T12:50:57Z</time>
</trkpt>
<trkpt lat="48.222534" lon="10.92642">
<ele>550.81</ele>
<time>2022-05-25T12:50:58Z</time>
</trkpt>
<trkpt lat="48.222485" lon="10.926405">
<ele>550.81</ele>
<time>2022-05-25T12:50:59Z</time>
</trkpt>
<trkpt lat="48.222435" lon="10.926392">
<ele>550.81</ele>
<time>2022-05-25T12:51:00Z</time>
</trkpt>
<trkpt lat="48.222378" lon="10.92638">
<ele>550.81</ele>
<time>2022-05-25T12:51:01Z</time>
</trkpt>
<trkpt lat="48.222328" lon="10.926366">
<ele>550.81</ele>
<time>2022-05-25T12:51:02Z</time>
</trkpt>
<trkpt lat="48.222275" lon="10.926353">
<ele>550.81</ele>
<time>2022-05-25T12:51:03Z</time>
</trkpt>
<trkpt lat="48.222221" lon="10.92634">
<ele>550.81</ele>
<time>2022-05-25T12:51:04Z</time>
</trkpt>
<trkpt lat="48.222172" lon="10.926327">
<ele>550.81</ele>
<time>2022-05-25T12:51:05Z</time>
</trkpt>
<trkpt lat="48.222115" lon="10.926313">
<ele>550.81</ele>
<time>2022-05-25T12:51:06Z</time>
</trkpt>
<trkpt lat="48.222065" lon="10.926298">
<ele>550.81</ele>
<time>2022-05-25T12:51:07Z</time>
</trkpt>
<trkpt lat="48.222015" lon="10.926285">
<ele>550.81</ele>
<time>2022-05-25T12:51:08Z</time>
</trkpt>
<trkpt lat="48.221966" lon="10.926271">
<ele>550.81</ele>
<time>2022-05-25T12:51:09Z</time>
</trkpt>
<trkpt lat="48.221912" lon="10.926259">
<ele>550.81</ele>
<time>2022-05-25T12:51:10Z</time>
</trkpt>
<trkpt lat="48.221863" lon="10.926244">
<ele>550.81</ele>
<time>2022-05-25T12:51:11Z</time>
</trkpt>
<trkpt lat="48.221809" lon="10.926231">
<ele>550.81</ele>
<time>2022-05-25T12:51:12Z</time>
</trkpt>
<trkpt lat="48.221752" lon="10.92622">
<ele>550.81</ele>
<time>2022-05-25T12:51:13Z</time>
</trkpt>
<trkpt lat="48.221703" lon="10.926207">
<ele>550.81</ele>
<time>2022-05-25T12:51:14Z</time>
</trkpt>
<trkpt lat="48.221653" lon="10.926193">
<ele>550.81</ele>
<time>2022-05-25T12:51:15Z</time>
</trkpt>
<trkpt lat="48.2216" lon="10.926179">
<ele>550.81</ele>
<time>2022-05-25T12:51:16Z</time>
</trkpt>
<trkpt lat="48.221546" lon="10.926163">
<ele>550.81</ele>
<time>2022-05-25T12:51:17Z</time>
</trkpt>
<trkpt lat="48.221497" lon="10.92615">
<ele>550.81</ele>
<time>2022-05-25T12:51:18Z</time>
</trkpt>
<trkpt lat="48.221443" lon="10.926135">
<ele>551.071</ele>
<time>2022-05-25T12:51:19Z</time>
</trkpt>
<trkpt lat="48.22139" lon="10.926122">
<ele>551.273</ele>
<time>2022-05-25T12:51:20Z</time>
</trkpt>
<trkpt lat="48.22134" lon="10.926106">
<ele>551.429</ele>
<time>2022-05-25T12:51:21Z</time>
</trkpt>
<trkpt lat="48.221291" lon="10.926093">
<ele>551.546</ele>
<time>2022-05-25T12:51:22Z</time>
</trkpt>
<trkpt lat="48.221237" lon="10.926081">
<ele>551.627</ele>
<time>2022-05-25T12:51:23Z</time>
</trkpt>
<trkpt lat="48.221184" lon="10.926066">
<ele>551.688</ele>
<time>2022-05-25T12:51:24Z</time>
</trkpt>
<trkpt lat="48.22113" lon="10.926055">
<ele>551.742</ele>
<time>2022-05-25T12:51:25Z</time>
</trkpt>
<trkpt lat="48.221085" lon="10.926042">
<ele>551.768</ele>
<time>2022-05-25T12:51:26Z</time>
</trkpt>
<trkpt lat="48.221031" lon="10.926028">
<ele>551.768</ele>
<time>2022-05-25T12:51:27Z</time>
</trkpt>
<trkpt lat="48.220982" lon="10.926014">
<ele>551.768</ele>
<time>2022-05-25T12:51:28Z</time>
</trkpt>
<trkpt lat="48.220936" lon="10.925995">
<ele>551.768</ele>
<time>2022-05-25T12:51:29Z</time>
</trkpt>
<trkpt lat="48.220882" lon="10.925981">
<ele>551.768</ele>
<time>2022-05-25T12:51:30Z</time>
</trkpt>
<trkpt lat="48.220833" lon="10.925968">
<ele>551.768</ele>
<time>2022-05-25T12:51:31Z</time>
</trkpt>
<trkpt lat="48.220779" lon="10.925957">
<ele>551.768</ele>
<time>2022-05-25T12:51:32Z</time>
</trkpt>
<trkpt lat="48.22073" lon="10.925943">
<ele>551.768</ele>
<time>2022-05-25T12:51:33Z</time>
</trkpt>
<trkpt lat="48.220676" lon="10.925926">
<ele>551.768</ele>
<time>2022-05-25T12:51:34Z</time>
</trkpt>
<trkpt lat="48.220627" lon="10.92591">
<ele>551.768</ele>
<time>2022-05-25T12:51:35Z</time>
</trkpt>
<trkpt lat="48.220577" lon="10.925894">
<ele>551.768</ele>
<time>2022-05-25T12:51:36Z</time>
</trkpt>
<trkpt lat="48.220528" lon="10.925877">
<ele>551.768</ele>
<time>2022-05-25T12:51:37Z</time>
</trkpt>
<trkpt lat="48.220478" lon="10.925861">
<ele>551.768</ele>
<time>2022-05-25T12:51:38Z</time>
</trkpt>
<trkpt lat="48.220425" lon="10.925846">
<ele>551.768</ele>
<time>2022-05-25T12:51:39Z</time>
</trkpt>
<trkpt lat="48.220379" lon="10.92583">
<ele>551.768</ele>
<time>2022-05-25T12:51:40Z</time>
</trkpt>
<trkpt lat="48.220325" lon="10.925813">
<ele>551.768</ele>
<time>2022-05-25T12:51:41Z</time>
</trkpt>
<trkpt lat="48.220276" lon="10.925797">
<ele>551.768</ele>
<time>2022-05-25T12:51:42Z</time>
</trkpt>
<trkpt lat="48.220222" lon="10.925779">
<ele>551.768</ele>
<time>2022-05-25T12:51:43Z</time>
</trkpt>
<trkpt lat="48.220173" lon="10.925765">
<ele>551.982</ele>
<time>2022-05-25T12:51:44Z</time>
</trkpt>
<trkpt lat="48.220119" lon="10.92575">
<ele>552.184</ele>
<time>2022-05-25T12:51:45Z</time>
</trkpt>
<trkpt lat="48.22007" lon="10.925735">
<ele>552.351</ele>
<time>2022-05-25T12:51:46Z</time>
</trkpt>
<trkpt lat="48.22002" lon="10.925718">
<ele>552.483</ele>
<time>2022-05-25T12:51:47Z</time>
</trkpt>
<trkpt lat="48.219971" lon="10.925703">
<ele>552.584</ele>
<time>2022-05-25T12:51:48Z</time>
</trkpt>
<trkpt lat="48.219921" lon="10.925687">
<ele>552.657</ele>
<time>2022-05-25T12:51:49Z</time>
</trkpt>
<trkpt lat="48.219868" lon="10.92567">
<ele>552.704</ele>
<time>2022-05-25T12:51:50Z</time>
</trkpt>
<trkpt lat="48.219818" lon="10.925653">
<ele>552.727</ele>
<time>2022-05-25T12:51:51Z</time>
</trkpt>
<trkpt lat="48.219765" lon="10.925636">
<ele>552.727</ele>
<time>2022-05-25T12:51:52Z</time>
</trkpt>
<trkpt lat="48.219719" lon="10.925622">
<ele>552.727</ele>
<time>2022-05-25T12:51:53Z</time>
</trkpt>
<trkpt lat="48.219666" lon="10.925603">
<ele>552.727</ele>
<time>2022-05-25T12:51:54Z</time>
</trkpt>
<trkpt lat="48.219612" lon="10.925584">
<ele>552.727</ele>
<time>2022-05-25T12:51:55Z</time>
</trkpt>
<trkpt lat="48.219566" lon="10.925563">
<ele>552.727</ele>
<time>2022-05-25T12:51:56Z</time>
</trkpt>
<trkpt lat="48.219513" lon="10.925542">
<ele>552.727</ele>
<time>2022-05-25T12:51:57Z</time>
</trkpt>
<trkpt lat="48.219463" lon="10.92552">
<ele>552.727</ele>
<time>2022-05-25T12:51:58Z</time>
</trkpt>
<trkpt lat="48.21941" lon="10.925498">
<ele>552.727</ele>
<time>2022-05-25T12:51:59Z</time>
</trkpt>
<trkpt lat="48.219364" lon="10.925477">
<ele>552.727</ele>
<time>2022-05-25T12:52:00Z</time>
</trkpt>
<trkpt lat="48.219311" lon="10.925453">
<ele>552.727</ele>
<time>2022-05-25T12:52:01Z</time>
</trkpt>
<trkpt lat="48.219265" lon="10.925431">
<ele>552.727</ele>
<time>2022-05-25T12:52:02Z</time>
</trkpt>
<trkpt lat="48.219215" lon="10.925408">
<ele>552.727</ele>
<time>2022-05-25T12:52:03Z</time>
</trkpt>
<trkpt lat="48.219166" lon="10.925382">
<ele>552.727</ele>
<time>2022-05-25T12:52:04Z</time>
</trkpt>
<trkpt lat="48.219116" lon="10.925356">
<ele>552.727</ele>
<time>2022-05-25T12:52:05Z</time>
</trkpt>
<trkpt lat="48.21907" lon="10.92533">
<ele>552.727</ele>
<time>2022-05-25T12:52:06Z</time>
</trkpt>
<trkpt lat="48.219021" lon="10.925305">
<ele>552.727</ele>
<time>2022-05-25T12:52:07Z</time>
</trkpt>
<trkpt lat="48.218971" lon="10.925282">
<ele>552.727</ele>
<time>2022-05-25T12:52:08Z</time>
</trkpt>
<trkpt lat="48.218922" lon="10.925255">
<ele>552.727</ele>
<time>2022-05-25T12:52:09Z</time>
</trkpt>
<trkpt lat="48.218876" lon="10.925232">
<ele>552.727</ele>
<time>2022-05-25T12:52:10Z</time>
</trkpt>
<trkpt lat="48.218822" lon="10.925207">
<ele>552.727</ele>
<time>2022-05-25T12:52:11Z</time>
</trkpt>
<trkpt lat="48.218777" lon="10.925179">
<ele>552.727</ele>
<time>2022-05-25T12:52:12Z</time>
</trkpt>
<trkpt lat="48.218731" lon="10.925148">
<ele>552.727</ele>
<time>2022-05-25T12:52:13Z</time>
</trkpt>
<trkpt lat="48.218681" lon="10.925119">
<ele>552.727</ele>
<time>2022-05-25T12:52:14Z</time>
</trkpt>
<trkpt lat="48.218632" lon="10.925092">
<ele>552.727</ele>
<time>2022-05-25T12:52:15Z</time>
</trkpt>
<trkpt lat="48.218586" lon="10.925063">
<ele>552.727</ele>
<time>2022-05-25T12:52:16Z</time>
</trkpt>
<trkpt lat="48.218536" lon="10.925037">
<ele>552.727</ele>
<time>2022-05-25T12:52:17Z</time>
</trkpt>
<trkpt lat="48.218491" lon="10.925008">
<ele>552.727</ele>
<time>2022-05-25T12:52:18Z</time>
</trkpt>
<trkpt lat="48.218441" lon="10.924981">
<ele>552.727</ele>
<time>2022-05-25T12:52:19Z</time>
</trkpt>
<trkpt lat="48.218395" lon="10.924952">
<ele>552.727</ele>
<time>2022-05-25T12:52:20Z</time>
</trkpt>
<trkpt lat="48.218349" lon="10.924922">
<ele>552.727</ele>
<time>2022-05-25T12:52:21Z</time>
</trkpt>
<trkpt lat="48.2183" lon="10.924891">
<ele>552.727</ele>
<time>2022-05-25T12:52:22Z</time>
</trkpt>
<trkpt lat="48.218258" lon="10.924862">
<ele>552.727</ele>
<time>2022-05-25T12:52:23Z</time>
</trkpt>
<trkpt lat="48.218208" lon="10.92483">
<ele>552.727</ele>
<time>2022-05-25T12:52:24Z</time>
</trkpt>
<trkpt lat="48.218163" lon="10.924798">
<ele>552.727</ele>
<time>2022-05-25T12:52:25Z</time>
</trkpt>
<trkpt lat="48.218121" lon="10.924765">
<ele>552.727</ele>
<time>2022-05-25T12:52:26Z</time>
</trkpt>
<trkpt lat="48.218071" lon="10.924735">
<ele>552.727</ele>
<time>2022-05-25T12:52:27Z</time>
</trkpt>
<trkpt lat="48.218025" lon="10.924704">
<ele>552.727</ele>
<time>2022-05-25T12:52:28Z</time>
</trkpt>
<trkpt lat="48.217934" lon="10.92464">
<ele>553.007</ele>
<time>2022-05-25T12:52:30Z</time>
</trkpt>
<trkpt lat="48.217888" lon="10.924608">
<ele>553.217</ele>
<time>2022-05-25T12:52:31Z</time>
</trkpt>
<trkpt lat="48.217838" lon="10.924579">
<ele>553.371</ele>
<time>2022-05-25T12:52:32Z</time>
</trkpt>
<trkpt lat="48.217796" lon="10.924547">
<ele>553.485</ele>
<time>2022-05-25T12:52:33Z</time>
</trkpt>
<trkpt lat="48.217751" lon="10.924514">
<ele>553.56</ele>
<time>2022-05-25T12:52:34Z</time>
</trkpt>
<trkpt lat="48.217705" lon="10.92448">
<ele>553.616</ele>
<time>2022-05-25T12:52:35Z</time>
</trkpt>
<trkpt lat="48.217655" lon="10.924447">
<ele>553.664</ele>
<time>2022-05-25T12:52:36Z</time>
</trkpt>
<trkpt lat="48.217609" lon="10.924415">
<ele>553.686</ele>
<time>2022-05-25T12:52:37Z</time>
</trkpt>
<trkpt lat="48.217564" lon="10.924379">
<ele>553.686</ele>
<time>2022-05-25T12:52:38Z</time>
</trkpt>
<trkpt lat="48.217514" lon="10.924345">
<ele>553.686</ele>
<time>2022-05-25T12:52:39Z</time>
</trkpt>
<trkpt lat="48.217472" lon="10.924312">
<ele>553.686</ele>
<time>2022-05-25T12:52:40Z</time>
</trkpt>
<trkpt lat="48.217422" lon="10.924275">
<ele>553.686</ele>
<time>2022-05-25T12:52:41Z</time>
</trkpt>
<trkpt lat="48.217377" lon="10.92424">
<ele>553.686</ele>
<time>2022-05-25T12:52:42Z</time>
</trkpt>
<trkpt lat="48.217331" lon="10.924207">
<ele>553.686</ele>
<time>2022-05-25T12:52:43Z</time>
</trkpt>
<trkpt lat="48.217285" lon="10.924173">
<ele>553.686</ele>
<time>2022-05-25T12:52:44Z</time>
</trkpt>
<trkpt lat="48.217236" lon="10.92414">
<ele>553.686</ele>
<time>2022-05-25T12:52:45Z</time>
</trkpt>
<trkpt lat="48.21719" lon="10.924109">
<ele>553.686</ele>
<time>2022-05-25T12:52:46Z</time>
</trkpt>
<trkpt lat="48.217144" lon="10.924078">
<ele>553.686</ele>
<time>2022-05-25T12:52:47Z</time>
</trkpt>
<trkpt lat="48.217094" lon="10.924048">
<ele>553.686</ele>
<time>2022-05-25T12:52:48Z</time>
</trkpt>
<trkpt lat="48.217049" lon="10.924019">
<ele>553.686</ele>
<time>2022-05-25T12:52:49Z</time>
</trkpt>
<trkpt lat="48.216999" lon="10.923986">
<ele>553.686</ele>
<time>2022-05-25T12:52:50Z</time>
</trkpt>
<trkpt lat="48.216953" lon="10.923955">
<ele>553.686</ele>
<time>2022-05-25T12:52:51Z</time>
</trkpt>
<trkpt lat="48.216908" lon="10.923923">
<ele>553.686</ele>
<time>2022-05-25T12:52:52Z</time>
</trkpt>
<trkpt lat="48.216862" lon="10.923892">
<ele>553.686</ele>
<time>2022-05-25T12:52:53Z</time>
</trkpt>
<trkpt lat="48.216812" lon="10.923863">
<ele>553.686</ele>
<time>2022-05-25T12:52:54Z</time>
</trkpt>
<trkpt lat="48.216766" lon="10.923835">
<ele>553.686</ele>
<time>2022-05-25T12:52:55Z</time>
</trkpt>
<trkpt lat="48.216721" lon="10.923808">
<ele>553.686</ele>
<time>2022-05-25T12:52:56Z</time>
</trkpt>
<trkpt lat="48.216667" lon="10.923782">
<ele>553.686</ele>
<time>2022-05-25T12:52:57Z</time>
</trkpt>
<trkpt lat="48.216621" lon="10.923755">
<ele>553.686</ele>
<time>2022-05-25T12:52:58Z</time>
</trkpt>
<trkpt lat="48.216572" lon="10.92373">
<ele>553.686</ele>
<time>2022-05-25T12:52:59Z</time>
</trkpt>
<trkpt lat="48.216522" lon="10.923705">
<ele>553.686</ele>
<time>2022-05-25T12:53:00Z</time>
</trkpt>
<trkpt lat="48.216473" lon="10.923678">
<ele>553.686</ele>
<time>2022-05-25T12:53:01Z</time>
</trkpt>
<trkpt lat="48.216423" lon="10.923655">
<ele>553.686</ele>
<time>2022-05-25T12:53:02Z</time>
</trkpt>
<trkpt lat="48.21637" lon="10.923632">
<ele>553.686</ele>
<time>2022-05-25T12:53:03Z</time>
</trkpt>
<trkpt lat="48.21632" lon="10.923607">
<ele>553.686</ele>
<time>2022-05-25T12:53:04Z</time>
</trkpt>
<trkpt lat="48.21627" lon="10.923581">
<ele>553.686</ele>
<time>2022-05-25T12:53:05Z</time>
</trkpt>
<trkpt lat="48.216221" lon="10.92356">
<ele>553.686</ele>
<time>2022-05-25T12:53:06Z</time>
</trkpt>
<trkpt lat="48.216171" lon="10.923538">
<ele>553.686</ele>
<time>2022-05-25T12:53:07Z</time>
</trkpt>
<trkpt lat="48.216118" lon="10.923518">
<ele>553.686</ele>
<time>2022-05-25T12:53:08Z</time>
</trkpt>
<trkpt lat="48.216068" lon="10.923497">
<ele>553.686</ele>
<time>2022-05-25T12:53:09Z</time>
</trkpt>
<trkpt lat="48.216019" lon="10.923474">
<ele>553.686</ele>
<time>2022-05-25T12:53:10Z</time>
</trkpt>
<trkpt lat="48.215965" lon="10.923453">
<ele>553.686</ele>
<time>2022-05-25T12:53:11Z</time>
</trkpt>
<trkpt lat="48.215916" lon="10.923435">
<ele>553.686</ele>
<time>2022-05-25T12:53:12Z</time>
</trkpt>
<trkpt lat="48.215862" lon="10.923418">
<ele>553.686</ele>
<time>2022-05-25T12:53:13Z</time>
</trkpt>
<trkpt lat="48.215816" lon="10.923406">
<ele>553.686</ele>
<time>2022-05-25T12:53:14Z</time>
</trkpt>
<trkpt lat="48.215759" lon="10.923393">
<ele>553.686</ele>
<time>2022-05-25T12:53:15Z</time>
</trkpt>
<trkpt lat="48.21571" lon="10.923378">
<ele>553.686</ele>
<time>2022-05-25T12:53:16Z</time>
</trkpt>
<trkpt lat="48.215656" lon="10.923364">
<ele>553.686</ele>
<time>2022-05-25T12:53:17Z</time>
</trkpt>
<trkpt lat="48.215607" lon="10.923345">
<ele>553.686</ele>
<time>2022-05-25T12:53:18Z</time>
</trkpt>
<trkpt lat="48.215557" lon="10.92333">
<ele>553.686</ele>
<time>2022-05-25T12:53:19Z</time>
</trkpt>
<trkpt lat="48.215508" lon="10.923313">
<ele>553.686</ele>
<time>2022-05-25T12:53:20Z</time>
</trkpt>
<trkpt lat="48.215458" lon="10.923301">
<ele>553.686</ele>
<time>2022-05-25T12:53:21Z</time>
</trkpt>
<trkpt lat="48.215401" lon="10.923285">
<ele>553.686</ele>
<time>2022-05-25T12:53:22Z</time>
</trkpt>
<trkpt lat="48.215351" lon="10.923269">
<ele>553.686</ele>
<time>2022-05-25T12:53:23Z</time>
</trkpt>
<trkpt lat="48.215298" lon="10.923255">
<ele>553.686</ele>
<time>2022-05-25T12:53:24Z</time>
</trkpt>
<trkpt lat="48.215248" lon="10.923238">
<ele>553.686</ele>
<time>2022-05-25T12:53:25Z</time>
</trkpt>
<trkpt lat="48.215199" lon="10.923223">
<ele>553.686</ele>
<time>2022-05-25T12:53:26Z</time>
</trkpt>
<trkpt lat="48.215141" lon="10.923206">
<ele>553.686</ele>
<time>2022-05-25T12:53:27Z</time>
</trkpt>
<trkpt lat="48.215092" lon="10.92319">
<ele>553.686</ele>
<time>2022-05-25T12:53:28Z</time>
</trkpt>
<trkpt lat="48.215038" lon="10.923173">
<ele>553.686</ele>
<time>2022-05-25T12:53:29Z</time>
</trkpt>
<trkpt lat="48.214989" lon="10.923157">
<ele>553.686</ele>
<time>2022-05-25T12:53:30Z</time>
</trkpt>
<trkpt lat="48.214935" lon="10.92314">
<ele>553.686</ele>
<time>2022-05-25T12:53:31Z</time>
</trkpt>
<trkpt lat="48.214882" lon="10.923123">
<ele>553.686</ele>
<time>2022-05-25T12:53:32Z</time>
</trkpt>
<trkpt lat="48.214836" lon="10.923106">
<ele>553.686</ele>
<time>2022-05-25T12:53:33Z</time>
</trkpt>
<trkpt lat="48.214783" lon="10.923092">
<ele>553.686</ele>
<time>2022-05-25T12:53:34Z</time>
</trkpt>
<trkpt lat="48.214733" lon="10.923077">
<ele>553.686</ele>
<time>2022-05-25T12:53:35Z</time>
</trkpt>
<trkpt lat="48.214684" lon="10.923061">
<ele>553.895</ele>
<time>2022-05-25T12:53:36Z</time>
</trkpt>
<trkpt lat="48.214638" lon="10.923047">
<ele>554.071</ele>
<time>2022-05-25T12:53:37Z</time>
</trkpt>
<trkpt lat="48.214592" lon="10.92303">
<ele>554.216</ele>
<time>2022-05-25T12:53:38Z</time>
</trkpt>
<trkpt lat="48.214554" lon="10.923014">
<ele>554.334</ele>
<time>2022-05-25T12:53:39Z</time>
</trkpt>
<trkpt lat="48.214512" lon="10.923">
<ele>554.425</ele>
<time>2022-05-25T12:53:40Z</time>
</trkpt>
<trkpt lat="48.21447" lon="10.922985">
<ele>554.492</ele>
<time>2022-05-25T12:53:41Z</time>
</trkpt>
<trkpt lat="48.214417" lon="10.922968">
<ele>554.536</ele>
<time>2022-05-25T12:53:42Z</time>
</trkpt>
<trkpt lat="48.214363" lon="10.922956">
<ele>554.558</ele>
<time>2022-05-25T12:53:43Z</time>
</trkpt>
<trkpt lat="48.214314" lon="10.922945">
<ele>554.558</ele>
<time>2022-05-25T12:53:44Z</time>
</trkpt>
<trkpt lat="48.214256" lon="10.92293">
<ele>554.558</ele>
<time>2022-05-25T12:53:45Z</time>
</trkpt>
<trkpt lat="48.214207" lon="10.922914">
<ele>554.558</ele>
<time>2022-05-25T12:53:46Z</time>
</trkpt>
<trkpt lat="48.214153" lon="10.922894">
<ele>554.558</ele>
<time>2022-05-25T12:53:47Z</time>
</trkpt>
<trkpt lat="48.214096" lon="10.92288">
<ele>554.558</ele>
<time>2022-05-25T12:53:48Z</time>
</trkpt>
<trkpt lat="48.214043" lon="10.922863">
<ele>554.558</ele>
<time>2022-05-25T12:53:49Z</time>
</trkpt>
<trkpt lat="48.213989" lon="10.922847">
<ele>554.558</ele>
<time>2022-05-25T12:53:50Z</time>
</trkpt>
<trkpt lat="48.21394" lon="10.922832">
<ele>554.558</ele>
<time>2022-05-25T12:53:51Z</time>
</trkpt>
<trkpt lat="48.213886" lon="10.922816">
<ele>554.558</ele>
<time>2022-05-25T12:53:52Z</time>
</trkpt>
<trkpt lat="48.213833" lon="10.922804">
<ele>554.558</ele>
<time>2022-05-25T12:53:53Z</time>
</trkpt>
<trkpt lat="48.213783" lon="10.92279">
<ele>554.558</ele>
<time>2022-05-25T12:53:54Z</time>
</trkpt>
<trkpt lat="48.21373" lon="10.922779">
<ele>554.769</ele>
<time>2022-05-25T12:53:55Z</time>
</trkpt>
<trkpt lat="48.21368" lon="10.922765">
<ele>554.97</ele>
<time>2022-05-25T12:53:56Z</time>
</trkpt>
<trkpt lat="48.213631" lon="10.92275">
<ele>555.135</ele>
<time>2022-05-25T12:53:57Z</time>
</trkpt>
<trkpt lat="48.213581" lon="10.922733">
<ele>555.271</ele>
<time>2022-05-25T12:53:58Z</time>
</trkpt>
<trkpt lat="48.213528" lon="10.922716">
<ele>555.371</ele>
<time>2022-05-25T12:53:59Z</time>
</trkpt>
<trkpt lat="48.213474" lon="10.9227">
<ele>555.447</ele>
<time>2022-05-25T12:54:00Z</time>
</trkpt>
<trkpt lat="48.213421" lon="10.922685">
<ele>555.494</ele>
<time>2022-05-25T12:54:01Z</time>
</trkpt>
<trkpt lat="48.213367" lon="10.92267">
<ele>555.517</ele>
<time>2022-05-25T12:54:02Z</time>
</trkpt>
<trkpt lat="48.213314" lon="10.922655">
<ele>555.517</ele>
<time>2022-05-25T12:54:03Z</time>
</trkpt>
<trkpt lat="48.213264" lon="10.92264">
<ele>555.517</ele>
<time>2022-05-25T12:54:04Z</time>
</trkpt>
<trkpt lat="48.213207" lon="10.92262">
<ele>555.517</ele>
<time>2022-05-25T12:54:05Z</time>
</trkpt>
<trkpt lat="48.213158" lon="10.922604">
<ele>555.517</ele>
<time>2022-05-25T12:54:06Z</time>
</trkpt>
<trkpt lat="48.213108" lon="10.922584">
<ele>555.517</ele>
<time>2022-05-25T12:54:07Z</time>
</trkpt>
<trkpt lat="48.213051" lon="10.922568">
<ele>555.517</ele>
<time>2022-05-25T12:54:08Z</time>
</trkpt>
<trkpt lat="48.213001" lon="10.922553">
<ele>555.517</ele>
<time>2022-05-25T12:54:09Z</time>
</trkpt>
<trkpt lat="48.212948" lon="10.922538">
<ele>555.517</ele>
<time>2022-05-25T12:54:10Z</time>
</trkpt>
<trkpt lat="48.212898" lon="10.922522">
<ele>555.517</ele>
<time>2022-05-25T12:54:11Z</time>
</trkpt>
<trkpt lat="48.212849" lon="10.922504">
<ele>555.517</ele>
<time>2022-05-25T12:54:12Z</time>
</trkpt>
<trkpt lat="48.212791" lon="10.922492">
<ele>555.517</ele>
<time>2022-05-25T12:54:13Z</time>
</trkpt>
<trkpt lat="48.212746" lon="10.92248">
<ele>555.517</ele>
<time>2022-05-25T12:54:14Z</time>
</trkpt>
<trkpt lat="48.212688" lon="10.92247">
<ele>555.517</ele>
<time>2022-05-25T12:54:15Z</time>
</trkpt>
<trkpt lat="48.212639" lon="10.922457">
<ele>555.517</ele>
<time>2022-05-25T12:54:16Z</time>
</trkpt>
<trkpt lat="48.212589" lon="10.922441">
<ele>555.517</ele>
<time>2022-05-25T12:54:17Z</time>
</trkpt>
<trkpt lat="48.21254" lon="10.922427">
<ele>555.517</ele>
<time>2022-05-25T12:54:18Z</time>
</trkpt>
<trkpt lat="48.21249" lon="10.92241">
<ele>555.517</ele>
<time>2022-05-25T12:54:19Z</time>
</trkpt>
<trkpt lat="48.212444" lon="10.922394">
<ele>555.517</ele>
<time>2022-05-25T12:54:20Z</time>
</trkpt>
<trkpt lat="48.212395" lon="10.922377">
<ele>555.517</ele>
<time>2022-05-25T12:54:21Z</time>
</trkpt>
<trkpt lat="48.212341" lon="10.922363">
<ele>555.517</ele>
<time>2022-05-25T12:54:22Z</time>
</trkpt>
<trkpt lat="48.212296" lon="10.92235">
<ele>555.517</ele>
<time>2022-05-25T12:54:23Z</time>
</trkpt>
<trkpt lat="48.212242" lon="10.922337">
<ele>555.517</ele>
<time>2022-05-25T12:54:24Z</time>
</trkpt>
<trkpt lat="48.212196" lon="10.922323">
<ele>555.517</ele>
<time>2022-05-25T12:54:25Z</time>
</trkpt>
<trkpt lat="48.212143" lon="10.922308">
<ele>555.517</ele>
<time>2022-05-25T12:54:26Z</time>
</trkpt>
<trkpt lat="48.212093" lon="10.922295">
<ele>555.517</ele>
<time>2022-05-25T12:54:27Z</time>
</trkpt>
<trkpt lat="48.212044" lon="10.922278">
<ele>555.517</ele>
<time>2022-05-25T12:54:28Z</time>
</trkpt>
<trkpt lat="48.211998" lon="10.922265">
<ele>555.517</ele>
<time>2022-05-25T12:54:29Z</time>
</trkpt>
<trkpt lat="48.211948" lon="10.922252">
<ele>555.517</ele>
<time>2022-05-25T12:54:30Z</time>
</trkpt>
<trkpt lat="48.211899" lon="10.92224">
<ele>555.517</ele>
<time>2022-05-25T12:54:31Z</time>
</trkpt>
<trkpt lat="48.211849" lon="10.922225">
<ele>555.517</ele>
<time>2022-05-25T12:54:32Z</time>
</trkpt>
<trkpt lat="48.2118" lon="10.92221">
<ele>555.517</ele>
<time>2022-05-25T12:54:33Z</time>
</trkpt>
<trkpt lat="48.21175" lon="10.922196">
<ele>555.517</ele>
<time>2022-05-25T12:54:34Z</time>
</trkpt>
<trkpt lat="48.211704" lon="10.922182">
<ele>555.517</ele>
<time>2022-05-25T12:54:35Z</time>
</trkpt>
<trkpt lat="48.211651" lon="10.922167">
<ele>555.517</ele>
<time>2022-05-25T12:54:36Z</time>
</trkpt>
<trkpt lat="48.211601" lon="10.922151">
<ele>555.517</ele>
<time>2022-05-25T12:54:37Z</time>
</trkpt>
<trkpt lat="48.211552" lon="10.922135">
<ele>555.517</ele>
<time>2022-05-25T12:54:38Z</time>
</trkpt>
<trkpt lat="48.211502" lon="10.92212">
<ele>555.517</ele>
<time>2022-05-25T12:54:39Z</time>
</trkpt>
<trkpt lat="48.211449" lon="10.922105">
<ele>555.517</ele>
<time>2022-05-25T12:54:40Z</time>
</trkpt>
<trkpt lat="48.211399" lon="10.92209">
<ele>555.517</ele>
<time>2022-05-25T12:54:41Z</time>
</trkpt>
<trkpt lat="48.211349" lon="10.922077">
<ele>555.517</ele>
<time>2022-05-25T12:54:42Z</time>
</trkpt>
<trkpt lat="48.211296" lon="10.922063">
<ele>555.517</ele>
<time>2022-05-25T12:54:43Z</time>
</trkpt>
<trkpt lat="48.211243" lon="10.922051">
<ele>555.517</ele>
<time>2022-05-25T12:54:44Z</time>
</trkpt>
<trkpt lat="48.211193" lon="10.922038">
<ele>555.517</ele>
<time>2022-05-25T12:54:45Z</time>
</trkpt>
<trkpt lat="48.211143" lon="10.922023">
<ele>555.517</ele>
<time>2022-05-25T12:54:46Z</time>
</trkpt>
<trkpt lat="48.21109" lon="10.922007">
<ele>555.517</ele>
<time>2022-05-25T12:54:47Z</time>
</trkpt>
<trkpt lat="48.211044" lon="10.921991">
<ele>555.517</ele>
<time>2022-05-25T12:54:48Z</time>
</trkpt>
<trkpt lat="48.210995" lon="10.921978">
<ele>555.517</ele>
<time>2022-05-25T12:54:49Z</time>
</trkpt>
<trkpt lat="48.210945" lon="10.921964">
<ele>555.517</ele>
<time>2022-05-25T12:54:50Z</time>
</trkpt>
<trkpt lat="48.210896" lon="10.921949">
<ele>555.517</ele>
<time>2022-05-25T12:54:51Z</time>
</trkpt>
<trkpt lat="48.21085" lon="10.921939">
<ele>555.517</ele>
<time>2022-05-25T12:54:52Z</time>
</trkpt>
<trkpt lat="48.210804" lon="10.921928">
<ele>555.517</ele>
<time>2022-05-25T12:54:53Z</time>
</trkpt>
<trkpt lat="48.210754" lon="10.921913">
<ele>555.517</ele>
<time>2022-05-25T12:54:54Z</time>
</trkpt>
<trkpt lat="48.210705" lon="10.921897">
<ele>555.517</ele>
<time>2022-05-25T12:54:55Z</time>
</trkpt>
<trkpt lat="48.210659" lon="10.92188">
<ele>555.517</ele>
<time>2022-05-25T12:54:56Z</time>
</trkpt>
<trkpt lat="48.210606" lon="10.921865">
<ele>555.517</ele>
<time>2022-05-25T12:54:57Z</time>
</trkpt>
<trkpt lat="48.210556" lon="10.921851">
<ele>555.517</ele>
<time>2022-05-25T12:54:58Z</time>
</trkpt>
<trkpt lat="48.210506" lon="10.921839">
<ele>555.517</ele>
<time>2022-05-25T12:54:59Z</time>
</trkpt>
<trkpt lat="48.210457" lon="10.921826">
<ele>555.517</ele>
<time>2022-05-25T12:55:00Z</time>
</trkpt>
<trkpt lat="48.210403" lon="10.921813">
<ele>555.517</ele>
<time>2022-05-25T12:55:01Z</time>
</trkpt>
<trkpt lat="48.210358" lon="10.921799">
<ele>555.517</ele>
<time>2022-05-25T12:55:02Z</time>
</trkpt>
<trkpt lat="48.210308" lon="10.921785">
<ele>555.517</ele>
<time>2022-05-25T12:55:03Z</time>
</trkpt>
<trkpt lat="48.210258" lon="10.921769">
<ele>555.517</ele>
<time>2022-05-25T12:55:04Z</time>
</trkpt>
<trkpt lat="48.210209" lon="10.921753">
<ele>555.517</ele>
<time>2022-05-25T12:55:05Z</time>
</trkpt>
<trkpt lat="48.210159" lon="10.921737">
<ele>555.517</ele>
<time>2022-05-25T12:55:06Z</time>
</trkpt>
<trkpt lat="48.21011" lon="10.921721">
<ele>555.517</ele>
<time>2022-05-25T12:55:07Z</time>
</trkpt>
<trkpt lat="48.21006" lon="10.921708">
<ele>555.517</ele>
<time>2022-05-25T12:55:08Z</time>
</trkpt>
<trkpt lat="48.210014" lon="10.921697">
<ele>555.517</ele>
<time>2022-05-25T12:55:09Z</time>
</trkpt>
<trkpt lat="48.209965" lon="10.921685">
<ele>555.517</ele>
<time>2022-05-25T12:55:10Z</time>
</trkpt>
<trkpt lat="48.209915" lon="10.921672">
<ele>555.517</ele>
<time>2022-05-25T12:55:11Z</time>
</trkpt>
<trkpt lat="48.209869" lon="10.921659">
<ele>555.517</ele>
<time>2022-05-25T12:55:12Z</time>
</trkpt>
<trkpt lat="48.20982" lon="10.921643">
<ele>555.517</ele>
<time>2022-05-25T12:55:13Z</time>
</trkpt>
<trkpt lat="48.209766" lon="10.92163">
<ele>555.517</ele>
<time>2022-05-25T12:55:14Z</time>
</trkpt>
<trkpt lat="48.209721" lon="10.921615">
<ele>555.517</ele>
<time>2022-05-25T12:55:15Z</time>
</trkpt>
<trkpt lat="48.209667" lon="10.921599">
<ele>555.517</ele>
<time>2022-05-25T12:55:16Z</time>
</trkpt>
<trkpt lat="48.209621" lon="10.921585">
<ele>555.517</ele>
<time>2022-05-25T12:55:17Z</time>
</trkpt>
<trkpt lat="48.209568" lon="10.92157">
<ele>555.517</ele>
<time>2022-05-25T12:55:18Z</time>
</trkpt>
<trkpt lat="48.209518" lon="10.921556">
<ele>555.517</ele>
<time>2022-05-25T12:55:19Z</time>
</trkpt>
<trkpt lat="48.209465" lon="10.92154">
<ele>555.517</ele>
<time>2022-05-25T12:55:20Z</time>
</trkpt>
<trkpt lat="48.209419" lon="10.921524">
<ele>555.517</ele>
<time>2022-05-25T12:55:21Z</time>
</trkpt>
<trkpt lat="48.209362" lon="10.921507">
<ele>555.517</ele>
<time>2022-05-25T12:55:22Z</time>
</trkpt>
<trkpt lat="48.209316" lon="10.921491">
<ele>555.517</ele>
<time>2022-05-25T12:55:23Z</time>
</trkpt>
<trkpt lat="48.209263" lon="10.921475">
<ele>555.517</ele>
<time>2022-05-25T12:55:24Z</time>
</trkpt>
<trkpt lat="48.209213" lon="10.921458">
<ele>555.517</ele>
<time>2022-05-25T12:55:25Z</time>
</trkpt>
<trkpt lat="48.209167" lon="10.921443">
<ele>555.517</ele>
<time>2022-05-25T12:55:26Z</time>
</trkpt>
<trkpt lat="48.209114" lon="10.921428">
<ele>555.517</ele>
<time>2022-05-25T12:55:27Z</time>
</trkpt>
<trkpt lat="48.209068" lon="10.921415">
<ele>555.517</ele>
<time>2022-05-25T12:55:28Z</time>
</trkpt>
<trkpt lat="48.209011" lon="10.921398">
<ele>555.517</ele>
<time>2022-05-25T12:55:29Z</time>
</trkpt>
<trkpt lat="48.208965" lon="10.921382">
<ele>555.517</ele>
<time>2022-05-25T12:55:30Z</time>
</trkpt>
<trkpt lat="48.208916" lon="10.921369">
<ele>555.517</ele>
<time>2022-05-25T12:55:31Z</time>
</trkpt>
<trkpt lat="48.208866" lon="10.921353">
<ele>555.517</ele>
<time>2022-05-25T12:55:32Z</time>
</trkpt>
<trkpt lat="48.208813" lon="10.921338">
<ele>555.517</ele>
<time>2022-05-25T12:55:33Z</time>
</trkpt>
<trkpt lat="48.208767" lon="10.921325">
<ele>555.517</ele>
<time>2022-05-25T12:55:34Z</time>
</trkpt>
<trkpt lat="48.208714" lon="10.921312">
<ele>555.517</ele>
<time>2022-05-25T12:55:35Z</time>
</trkpt>
<trkpt lat="48.208664" lon="10.921297">
<ele>555.517</ele>
<time>2022-05-25T12:55:36Z</time>
</trkpt>
<trkpt lat="48.208611" lon="10.921282">
<ele>555.517</ele>
<time>2022-05-25T12:55:37Z</time>
</trkpt>
<trkpt lat="48.208561" lon="10.921267">
<ele>555.517</ele>
<time>2022-05-25T12:55:38Z</time>
</trkpt>
<trkpt lat="48.208515" lon="10.921255">
<ele>555.517</ele>
<time>2022-05-25T12:55:39Z</time>
</trkpt>
<trkpt lat="48.208462" lon="10.92124">
<ele>555.517</ele>
<time>2022-05-25T12:55:40Z</time>
</trkpt>
<trkpt lat="48.208416" lon="10.921225">
<ele>555.517</ele>
<time>2022-05-25T12:55:41Z</time>
</trkpt>
<trkpt lat="48.20837" lon="10.921212">
<ele>555.517</ele>
<time>2022-05-25T12:55:42Z</time>
</trkpt>
<trkpt lat="48.208321" lon="10.921197">
<ele>555.517</ele>
<time>2022-05-25T12:55:43Z</time>
</trkpt>
<trkpt lat="48.208275" lon="10.921183">
<ele>555.517</ele>
<time>2022-05-25T12:55:44Z</time>
</trkpt>
<trkpt lat="48.208229" lon="10.921174">
<ele>555.517</ele>
<time>2022-05-25T12:55:45Z</time>
</trkpt>
<trkpt lat="48.208183" lon="10.921162">
<ele>555.517</ele>
<time>2022-05-25T12:55:46Z</time>
</trkpt>
<trkpt lat="48.208134" lon="10.92115">
<ele>555.517</ele>
<time>2022-05-25T12:55:47Z</time>
</trkpt>
<trkpt lat="48.208092" lon="10.921137">
<ele>555.517</ele>
<time>2022-05-25T12:55:48Z</time>
</trkpt>
<trkpt lat="48.208046" lon="10.921125">
<ele>555.517</ele>
<time>2022-05-25T12:55:49Z</time>
</trkpt>
<trkpt lat="48.208004" lon="10.921113">
<ele>555.517</ele>
<time>2022-05-25T12:55:50Z</time>
</trkpt>
<trkpt lat="48.207962" lon="10.921103">
<ele>555.517</ele>
<time>2022-05-25T12:55:51Z</time>
</trkpt>
<trkpt lat="48.207924" lon="10.921095">
<ele>555.517</ele>
<time>2022-05-25T12:55:52Z</time>
</trkpt>
<trkpt lat="48.207878" lon="10.921088">
<ele>555.517</ele>
<time>2022-05-25T12:55:53Z</time>
</trkpt>
<trkpt lat="48.207829" lon="10.921075">
<ele>555.517</ele>
<time>2022-05-25T12:55:54Z</time>
</trkpt>
<trkpt lat="48.207794" lon="10.921072">
<ele>555.517</ele>
<time>2022-05-25T12:55:55Z</time>
</trkpt>
<trkpt lat="48.20776" lon="10.92108">
<ele>555.517</ele>
<time>2022-05-25T12:55:56Z</time>
</trkpt>
<trkpt lat="48.207733" lon="10.921093">
<ele>555.517</ele>
<time>2022-05-25T12:55:57Z</time>
</trkpt>
<trkpt lat="48.207714" lon="10.921117">
<ele>555.517</ele>
<time>2022-05-25T12:55:58Z</time>
</trkpt>
<trkpt lat="48.207706" lon="10.921141">
<ele>555.517</ele>
<time>2022-05-25T12:55:59Z</time>
</trkpt>
<trkpt lat="48.207703" lon="10.921166">
<ele>555.517</ele>
<time>2022-05-25T12:56:00Z</time>
</trkpt>
<trkpt lat="48.207699" lon="10.921207">
<ele>555.517</ele>
<time>2022-05-25T12:56:01Z</time>
</trkpt>
<trkpt lat="48.207699" lon="10.921256">
<ele>555.517</ele>
<time>2022-05-25T12:56:02Z</time>
</trkpt>
<trkpt lat="48.207699" lon="10.921307">
<ele>555.517</ele>
<time>2022-05-25T12:56:03Z</time>
</trkpt>
<trkpt lat="48.207706" lon="10.921371">
<ele>555.517</ele>
<time>2022-05-25T12:56:04Z</time>
</trkpt>
<trkpt lat="48.20771" lon="10.921435">
<ele>555.517</ele>
<time>2022-05-25T12:56:05Z</time>
</trkpt>
<trkpt lat="48.20771" lon="10.9215">
<ele>555.517</ele>
<time>2022-05-25T12:56:06Z</time>
</trkpt>
<trkpt lat="48.207718" lon="10.921566">
<ele>555.517</ele>
<time>2022-05-25T12:56:07Z</time>
</trkpt>
<trkpt lat="48.207718" lon="10.921637">
<ele>555.517</ele>
<time>2022-05-25T12:56:08Z</time>
</trkpt>
<trkpt lat="48.207714" lon="10.921708">
<ele>555.517</ele>
<time>2022-05-25T12:56:09Z</time>
</trkpt>
<trkpt lat="48.20771" lon="10.921782">
<ele>555.517</ele>
<time>2022-05-25T12:56:10Z</time>
</trkpt>
<trkpt lat="48.207706" lon="10.921859">
<ele>555.517</ele>
<time>2022-05-25T12:56:11Z</time>
</trkpt>
<trkpt lat="48.207699" lon="10.921928">
<ele>555.517</ele>
<time>2022-05-25T12:56:12Z</time>
</trkpt>
<trkpt lat="48.207695" lon="10.921997">
<ele>555.517</ele>
<time>2022-05-25T12:56:13Z</time>
</trkpt>
<trkpt lat="48.207687" lon="10.922062">
<ele>555.517</ele>
<time>2022-05-25T12:56:14Z</time>
</trkpt>
<trkpt lat="48.207684" lon="10.92213">
<ele>555.517</ele>
<time>2022-05-25T12:56:15Z</time>
</trkpt>
<trkpt lat="48.207676" lon="10.922194">
<ele>555.517</ele>
<time>2022-05-25T12:56:16Z</time>
</trkpt>
<trkpt lat="48.207668" lon="10.922265">
<ele>555.517</ele>
<time>2022-05-25T12:56:17Z</time>
</trkpt>
<trkpt lat="48.207653" lon="10.92233">
<ele>555.517</ele>
<time>2022-05-25T12:56:18Z</time>
</trkpt>
<trkpt lat="48.207642" lon="10.922392">
<ele>555.517</ele>
<time>2022-05-25T12:56:19Z</time>
</trkpt>
<trkpt lat="48.20763" lon="10.922462">
<ele>555.517</ele>
<time>2022-05-25T12:56:20Z</time>
</trkpt>
<trkpt lat="48.207615" lon="10.922532">
<ele>555.517</ele>
<time>2022-05-25T12:56:21Z</time>
</trkpt>
<trkpt lat="48.2076" lon="10.922604">
<ele>555.517</ele>
<time>2022-05-25T12:56:22Z</time>
</trkpt>
<trkpt lat="48.207584" lon="10.92268">
<ele>555.517</ele>
<time>2022-05-25T12:56:23Z</time>
</trkpt>
<trkpt lat="48.207569" lon="10.922755">
<ele>555.517</ele>
<time>2022-05-25T12:56:24Z</time>
</trkpt>
<trkpt lat="48.207554" lon="10.922832">
<ele>555.517</ele>
<time>2022-05-25T12:56:25Z</time>
</trkpt>
<trkpt lat="48.207535" lon="10.922907">
<ele>555.517</ele>
<time>2022-05-25T12:56:26Z</time>
</trkpt>
<trkpt lat="48.207516" lon="10.92298">
<ele>555.517</ele>
<time>2022-05-25T12:56:27Z</time>
</trkpt>
<trkpt lat="48.207497" lon="10.923054">
<ele>555.517</ele>
<time>2022-05-25T12:56:28Z</time>
</trkpt>
<trkpt lat="48.207474" lon="10.923125">
<ele>555.517</ele>
<time>2022-05-25T12:56:29Z</time>
</trkpt>
<trkpt lat="48.207451" lon="10.92319">
<ele>555.517</ele>
<time>2022-05-25T12:56:30Z</time>
</trkpt>
<trkpt lat="48.207428" lon="10.923255">
<ele>555.517</ele>
<time>2022-05-25T12:56:31Z</time>
</trkpt>
<trkpt lat="48.207401" lon="10.923318">
<ele>555.76</ele>
<time>2022-05-25T12:56:32Z</time>
</trkpt>
<trkpt lat="48.207375" lon="10.923378">
<ele>555.952</ele>
<time>2022-05-25T12:56:33Z</time>
</trkpt>
<trkpt lat="48.20734" lon="10.923439">
<ele>556.102</ele>
<time>2022-05-25T12:56:34Z</time>
</trkpt>
<trkpt lat="48.207306" lon="10.923493">
<ele>556.205</ele>
<time>2022-05-25T12:56:35Z</time>
</trkpt>
<trkpt lat="48.207268" lon="10.923545">
<ele>556.317</ele>
<time>2022-05-25T12:56:36Z</time>
</trkpt>
<trkpt lat="48.207233" lon="10.923588">
<ele>556.399</ele>
<time>2022-05-25T12:56:37Z</time>
</trkpt>
<trkpt lat="48.207203" lon="10.923623">
<ele>556.452</ele>
<time>2022-05-25T12:56:38Z</time>
</trkpt>
<trkpt lat="48.207172" lon="10.923658">
<ele>556.476</ele>
<time>2022-05-25T12:56:39Z</time>
</trkpt>
<trkpt lat="48.207142" lon="10.923695">
<ele>556.476</ele>
<time>2022-05-25T12:56:40Z</time>
</trkpt>
<trkpt lat="48.207111" lon="10.923732">
<ele>556.476</ele>
<time>2022-05-25T12:56:41Z</time>
</trkpt>
<trkpt lat="48.207081" lon="10.923766">
<ele>556.476</ele>
<time>2022-05-25T12:56:42Z</time>
</trkpt>
<trkpt lat="48.20705" lon="10.923799">
<ele>556.476</ele>
<time>2022-05-25T12:56:43Z</time>
</trkpt>
<trkpt lat="48.207024" lon="10.923837">
<ele>556.476</ele>
<time>2022-05-25T12:56:44Z</time>
</trkpt>
<trkpt lat="48.206985" lon="10.923883">
<ele>556.476</ele>
<time>2022-05-25T12:56:45Z</time>
</trkpt>
<trkpt lat="48.206955" lon="10.923923">
<ele>556.476</ele>
<time>2022-05-25T12:56:46Z</time>
</trkpt>
<trkpt lat="48.206921" lon="10.923963">
<ele>556.476</ele>
<time>2022-05-25T12:56:47Z</time>
</trkpt>
<trkpt lat="48.206886" lon="10.92401">
<ele>556.476</ele>
<time>2022-05-25T12:56:48Z</time>
</trkpt>
<trkpt lat="48.206844" lon="10.924051">
<ele>556.476</ele>
<time>2022-05-25T12:56:49Z</time>
</trkpt>
<trkpt lat="48.206799" lon="10.924093">
<ele>556.729</ele>
<time>2022-05-25T12:56:50Z</time>
</trkpt>
<trkpt lat="48.206753" lon="10.924136">
<ele>556.925</ele>
<time>2022-05-25T12:56:51Z</time>
</trkpt>
<trkpt lat="48.206711" lon="10.924185">
<ele>557.062</ele>
<time>2022-05-25T12:56:52Z</time>
</trkpt>
<trkpt lat="48.206669" lon="10.924231">
<ele>557.158</ele>
<time>2022-05-25T12:56:53Z</time>
</trkpt>
<trkpt lat="48.206623" lon="10.92428">
<ele>557.235</ele>
<time>2022-05-25T12:56:54Z</time>
</trkpt>
<trkpt lat="48.206573" lon="10.924334">
<ele>557.283</ele>
<time>2022-05-25T12:56:55Z</time>
</trkpt>
<trkpt lat="48.206532" lon="10.924378">
<ele>557.327</ele>
<time>2022-05-25T12:56:56Z</time>
</trkpt>
<trkpt lat="48.206486" lon="10.924435">
<ele>557.348</ele>
<time>2022-05-25T12:56:57Z</time>
</trkpt>
<trkpt lat="48.20644" lon="10.924482">
<ele>557.348</ele>
<time>2022-05-25T12:56:58Z</time>
</trkpt>
<trkpt lat="48.206394" lon="10.92453">
<ele>557.348</ele>
<time>2022-05-25T12:56:59Z</time>
</trkpt>
<trkpt lat="48.206356" lon="10.924583">
<ele>557.348</ele>
<time>2022-05-25T12:57:00Z</time>
</trkpt>
<trkpt lat="48.20631" lon="10.924637">
<ele>557.348</ele>
<time>2022-05-25T12:57:01Z</time>
</trkpt>
<trkpt lat="48.206264" lon="10.924688">
<ele>557.349</ele>
<time>2022-05-25T12:57:02Z</time>
</trkpt>
<trkpt lat="48.206219" lon="10.924736">
<ele>557.348</ele>
<time>2022-05-25T12:57:03Z</time>
</trkpt>
<trkpt lat="48.206173" lon="10.924784">
<ele>557.348</ele>
<time>2022-05-25T12:57:04Z</time>
</trkpt>
<trkpt lat="48.206135" lon="10.924829">
<ele>557.348</ele>
<time>2022-05-25T12:57:05Z</time>
</trkpt>
<trkpt lat="48.206085" lon="10.924871">
<ele>557.348</ele>
<time>2022-05-25T12:57:06Z</time>
</trkpt>
<trkpt lat="48.206047" lon="10.924916">
<ele>557.349</ele>
<time>2022-05-25T12:57:07Z</time>
</trkpt>
<trkpt lat="48.206013" lon="10.924969">
<ele>557.348</ele>
<time>2022-05-25T12:57:08Z</time>
</trkpt>
<trkpt lat="48.205982" lon="10.925021">
<ele>557.348</ele>
<time>2022-05-25T12:57:09Z</time>
</trkpt>
<trkpt lat="48.205956" lon="10.925078">
<ele>557.348</ele>
<time>2022-05-25T12:57:10Z</time>
</trkpt>
<trkpt lat="48.205936" lon="10.92514">
<ele>557.348</ele>
<time>2022-05-25T12:57:11Z</time>
</trkpt>
<trkpt lat="48.205914" lon="10.925205">
<ele>557.348</ele>
<time>2022-05-25T12:57:12Z</time>
</trkpt>
<trkpt lat="48.205894" lon="10.925279">
<ele>557.349</ele>
<time>2022-05-25T12:57:13Z</time>
</trkpt>
<trkpt lat="48.205883" lon="10.925355">
<ele>557.349</ele>
<time>2022-05-25T12:57:14Z</time>
</trkpt>
<trkpt lat="48.205872" lon="10.925428">
<ele>557.113</ele>
<time>2022-05-25T12:57:15Z</time>
</trkpt>
<trkpt lat="48.205868" lon="10.92551">
<ele>556.887</ele>
<time>2022-05-25T12:57:16Z</time>
</trkpt>
<trkpt lat="48.205853" lon="10.925589">
<ele>556.702</ele>
<time>2022-05-25T12:57:17Z</time>
</trkpt>
<trkpt lat="48.205845" lon="10.925658">
<ele>556.559</ele>
<time>2022-05-25T12:57:18Z</time>
</trkpt>
<trkpt lat="48.205837" lon="10.925734">
<ele>556.452</ele>
<time>2022-05-25T12:57:19Z</time>
</trkpt>
<trkpt lat="48.205826" lon="10.925817">
<ele>556.376</ele>
<time>2022-05-25T12:57:20Z</time>
</trkpt>
<trkpt lat="48.205811" lon="10.92589">
<ele>556.327</ele>
<time>2022-05-25T12:57:21Z</time>
</trkpt>
<trkpt lat="48.205799" lon="10.92596">
<ele>556.302</ele>
<time>2022-05-25T12:57:22Z</time>
</trkpt>
<trkpt lat="48.20578" lon="10.92604">
<ele>556.302</ele>
<time>2022-05-25T12:57:23Z</time>
</trkpt>
<trkpt lat="48.205761" lon="10.926108">
<ele>556.302</ele>
<time>2022-05-25T12:57:24Z</time>
</trkpt>
<trkpt lat="48.205742" lon="10.926179">
<ele>556.302</ele>
<time>2022-05-25T12:57:25Z</time>
</trkpt>
<trkpt lat="48.205715" lon="10.926247">
<ele>556.302</ele>
<time>2022-05-25T12:57:26Z</time>
</trkpt>
<trkpt lat="48.205696" lon="10.926318">
<ele>556.302</ele>
<time>2022-05-25T12:57:27Z</time>
</trkpt>
<trkpt lat="48.205677" lon="10.926392">
<ele>556.302</ele>
<time>2022-05-25T12:57:28Z</time>
</trkpt>
<trkpt lat="48.205658" lon="10.926456">
<ele>556.302</ele>
<time>2022-05-25T12:57:29Z</time>
</trkpt>
<trkpt lat="48.205643" lon="10.92652">
<ele>556.302</ele>
<time>2022-05-25T12:57:30Z</time>
</trkpt>
<trkpt lat="48.205624" lon="10.926579">
<ele>556.302</ele>
<time>2022-05-25T12:57:31Z</time>
</trkpt>
<trkpt lat="48.205605" lon="10.926643">
<ele>556.302</ele>
<time>2022-05-25T12:57:32Z</time>
</trkpt>
<trkpt lat="48.205582" lon="10.92671">
<ele>556.302</ele>
<time>2022-05-25T12:57:33Z</time>
</trkpt>
<trkpt lat="48.205547" lon="10.926772">
<ele>556.302</ele>
<time>2022-05-25T12:57:34Z</time>
</trkpt>
<trkpt lat="48.205521" lon="10.926847">
<ele>556.302</ele>
<time>2022-05-25T12:57:35Z</time>
</trkpt>
<trkpt lat="48.205498" lon="10.92692">
<ele>556.302</ele>
<time>2022-05-25T12:57:36Z</time>
</trkpt>
<trkpt lat="48.205471" lon="10.926991">
<ele>556.302</ele>
<time>2022-05-25T12:57:37Z</time>
</trkpt>
<trkpt lat="48.205448" lon="10.927059">
<ele>556.302</ele>
<time>2022-05-25T12:57:38Z</time>
</trkpt>
<trkpt lat="48.205421" lon="10.92713">
<ele>556.302</ele>
<time>2022-05-25T12:57:39Z</time>
</trkpt>
<trkpt lat="48.205399" lon="10.927192">
<ele>556.302</ele>
<time>2022-05-25T12:57:40Z</time>
</trkpt>
<trkpt lat="48.205376" lon="10.927255">
<ele>556.302</ele>
<time>2022-05-25T12:57:41Z</time>
</trkpt>
<trkpt lat="48.205349" lon="10.927327">
<ele>556.302</ele>
<time>2022-05-25T12:57:42Z</time>
</trkpt>
<trkpt lat="48.205322" lon="10.927393">
<ele>556.302</ele>
<time>2022-05-25T12:57:43Z</time>
</trkpt>
<trkpt lat="48.205299" lon="10.92746">
<ele>556.302</ele>
<time>2022-05-25T12:57:44Z</time>
</trkpt>
<trkpt lat="48.205273" lon="10.927528">
<ele>556.302</ele>
<time>2022-05-25T12:57:45Z</time>
</trkpt>
<trkpt lat="48.205246" lon="10.927597">
<ele>556.302</ele>
<time>2022-05-25T12:57:46Z</time>
</trkpt>
<trkpt lat="48.205219" lon="10.927665">
<ele>556.302</ele>
<time>2022-05-25T12:57:47Z</time>
</trkpt>
<trkpt lat="48.205189" lon="10.927727">
<ele>556.302</ele>
<time>2022-05-25T12:57:48Z</time>
</trkpt>
<trkpt lat="48.205158" lon="10.927785">
<ele>556.302</ele>
<time>2022-05-25T12:57:49Z</time>
</trkpt>
<trkpt lat="48.205124" lon="10.927836">
<ele>556.302</ele>
<time>2022-05-25T12:57:50Z</time>
</trkpt>
<trkpt lat="48.205093" lon="10.927887">
<ele>556.302</ele>
<time>2022-05-25T12:57:51Z</time>
</trkpt>
<trkpt lat="48.205059" lon="10.927937">
<ele>556.302</ele>
<time>2022-05-25T12:57:52Z</time>
</trkpt>
<trkpt lat="48.205025" lon="10.927992">
<ele>556.302</ele>
<time>2022-05-25T12:57:53Z</time>
</trkpt>
<trkpt lat="48.204975" lon="10.92804">
<ele>556.302</ele>
<time>2022-05-25T12:57:54Z</time>
</trkpt>
<trkpt lat="48.204929" lon="10.928092">
<ele>556.302</ele>
<time>2022-05-25T12:57:55Z</time>
</trkpt>
<trkpt lat="48.204895" lon="10.92814">
<ele>556.302</ele>
<time>2022-05-25T12:57:56Z</time>
</trkpt>
<trkpt lat="48.204872" lon="10.9282">
<ele>556.302</ele>
<time>2022-05-25T12:57:57Z</time>
</trkpt>
<trkpt lat="48.204845" lon="10.928258">
<ele>556.302</ele>
<time>2022-05-25T12:57:58Z</time>
</trkpt>
<trkpt lat="48.204815" lon="10.928312">
<ele>556.302</ele>
<time>2022-05-25T12:57:59Z</time>
</trkpt>
<trkpt lat="48.204777" lon="10.928356">
<ele>556.302</ele>
<time>2022-05-25T12:58:00Z</time>
</trkpt>
<trkpt lat="48.204735" lon="10.92839">
<ele>556.302</ele>
<time>2022-05-25T12:58:01Z</time>
</trkpt>
<trkpt lat="48.204693" lon="10.928404">
<ele>556.302</ele>
<time>2022-05-25T12:58:02Z</time>
</trkpt>
<trkpt lat="48.204647" lon="10.928409">
<ele>556.302</ele>
<time>2022-05-25T12:58:03Z</time>
</trkpt>
<trkpt lat="48.204605" lon="10.928405">
<ele>556.302</ele>
<time>2022-05-25T12:58:04Z</time>
</trkpt>
<trkpt lat="48.204559" lon="10.928402">
<ele>556.302</ele>
<time>2022-05-25T12:58:05Z</time>
</trkpt>
<trkpt lat="48.204514" lon="10.9284">
<ele>556.302</ele>
<time>2022-05-25T12:58:06Z</time>
</trkpt>
<trkpt lat="48.204472" lon="10.928395">
<ele>556.302</ele>
<time>2022-05-25T12:58:07Z</time>
</trkpt>
<trkpt lat="48.204422" lon="10.92839">
<ele>556.302</ele>
<time>2022-05-25T12:58:08Z</time>
</trkpt>
<trkpt lat="48.204376" lon="10.928383">
<ele>556.302</ele>
<time>2022-05-25T12:58:09Z</time>
</trkpt>
<trkpt lat="48.20433" lon="10.928383">
<ele>556.302</ele>
<time>2022-05-25T12:58:10Z</time>
</trkpt>
<trkpt lat="48.204281" lon="10.92838">
<ele>556.302</ele>
<time>2022-05-25T12:58:11Z</time>
</trkpt>
<trkpt lat="48.204239" lon="10.928375">
<ele>556.302</ele>
<time>2022-05-25T12:58:12Z</time>
</trkpt>
<trkpt lat="48.204189" lon="10.928371">
<ele>556.302</ele>
<time>2022-05-25T12:58:13Z</time>
</trkpt>
<trkpt lat="48.204144" lon="10.928365">
<ele>556.302</ele>
<time>2022-05-25T12:58:14Z</time>
</trkpt>
<trkpt lat="48.204102" lon="10.928356">
<ele>556.302</ele>
<time>2022-05-25T12:58:15Z</time>
</trkpt>
<trkpt lat="48.204056" lon="10.928342">
<ele>556.302</ele>
<time>2022-05-25T12:58:16Z</time>
</trkpt>
<trkpt lat="48.204014" lon="10.928325">
<ele>556.302</ele>
<time>2022-05-25T12:58:17Z</time>
</trkpt>
<trkpt lat="48.203968" lon="10.928307">
<ele>556.302</ele>
<time>2022-05-25T12:58:18Z</time>
</trkpt>
<trkpt lat="48.203922" lon="10.928291">
<ele>556.302</ele>
<time>2022-05-25T12:58:19Z</time>
</trkpt>
<trkpt lat="48.203876" lon="10.928277">
<ele>556.302</ele>
<time>2022-05-25T12:58:20Z</time>
</trkpt>
<trkpt lat="48.203831" lon="10.928258">
<ele>556.302</ele>
<time>2022-05-25T12:58:21Z</time>
</trkpt>
<trkpt lat="48.203785" lon="10.928242">
<ele>556.302</ele>
<time>2022-05-25T12:58:22Z</time>
</trkpt>
<trkpt lat="48.203739" lon="10.928226">
<ele>556.302</ele>
<time>2022-05-25T12:58:23Z</time>
</trkpt>
<trkpt lat="48.203693" lon="10.928211">
<ele>556.302</ele>
<time>2022-05-25T12:58:24Z</time>
</trkpt>
<trkpt lat="48.203655" lon="10.928195">
<ele>556.302</ele>
<time>2022-05-25T12:58:25Z</time>
</trkpt>
<trkpt lat="48.203609" lon="10.92818">
<ele>556.302</ele>
<time>2022-05-25T12:58:26Z</time>
</trkpt>
<trkpt lat="48.203564" lon="10.928167">
<ele>556.302</ele>
<time>2022-05-25T12:58:27Z</time>
</trkpt>
<trkpt lat="48.203522" lon="10.928151">
<ele>556.302</ele>
<time>2022-05-25T12:58:28Z</time>
</trkpt>
<trkpt lat="48.20348" lon="10.928139">
<ele>556.302</ele>
<time>2022-05-25T12:58:29Z</time>
</trkpt>
<trkpt lat="48.203438" lon="10.928123">
<ele>556.302</ele>
<time>2022-05-25T12:58:30Z</time>
</trkpt>
<trkpt lat="48.203403" lon="10.928106">
<ele>556.302</ele>
<time>2022-05-25T12:58:31Z</time>
</trkpt>
<trkpt lat="48.203369" lon="10.928092">
<ele>556.302</ele>
<time>2022-05-25T12:58:32Z</time>
</trkpt>
<trkpt lat="48.203331" lon="10.928083">
<ele>556.302</ele>
<time>2022-05-25T12:58:33Z</time>
</trkpt>
<trkpt lat="48.203297" lon="10.928063">
<ele>556.302</ele>
<time>2022-05-25T12:58:34Z</time>
</trkpt>
<trkpt lat="48.203262" lon="10.928043">
<ele>556.302</ele>
<time>2022-05-25T12:58:35Z</time>
</trkpt>
<trkpt lat="48.203228" lon="10.928029">
<ele>556.302</ele>
<time>2022-05-25T12:58:36Z</time>
</trkpt>
<trkpt lat="48.203194" lon="10.928027">
<ele>556.302</ele>
<time>2022-05-25T12:58:37Z</time>
</trkpt>
<trkpt lat="48.203159" lon="10.928021">
<ele>556.302</ele>
<time>2022-05-25T12:58:38Z</time>
</trkpt>
<trkpt lat="48.203125" lon="10.928013">
<ele>556.302</ele>
<time>2022-05-25T12:58:39Z</time>
</trkpt>
<trkpt lat="48.203091" lon="10.927999">
<ele>556.302</ele>
<time>2022-05-25T12:58:40Z</time>
</trkpt>
<trkpt lat="48.203056" lon="10.927992">
<ele>556.302</ele>
<time>2022-05-25T12:58:41Z</time>
</trkpt>
<trkpt lat="48.203018" lon="10.927987">
<ele>556.302</ele>
<time>2022-05-25T12:58:42Z</time>
</trkpt>
<trkpt lat="48.20298" lon="10.927975">
<ele>556.302</ele>
<time>2022-05-25T12:58:43Z</time>
</trkpt>
<trkpt lat="48.202942" lon="10.927957">
<ele>556.302</ele>
<time>2022-05-25T12:58:44Z</time>
</trkpt>
<trkpt lat="48.202904" lon="10.927941">
<ele>556.302</ele>
<time>2022-05-25T12:58:45Z</time>
</trkpt>
<trkpt lat="48.202866" lon="10.92792">
<ele>556.302</ele>
<time>2022-05-25T12:58:46Z</time>
</trkpt>
<trkpt lat="48.202824" lon="10.927898">
<ele>556.302</ele>
<time>2022-05-25T12:58:47Z</time>
</trkpt>
<trkpt lat="48.202782" lon="10.927878">
<ele>556.302</ele>
<time>2022-05-25T12:58:48Z</time>
</trkpt>
<trkpt lat="48.202744" lon="10.927861">
<ele>556.302</ele>
<time>2022-05-25T12:58:49Z</time>
</trkpt>
<trkpt lat="48.202698" lon="10.927845">
<ele>556.302</ele>
<time>2022-05-25T12:58:50Z</time>
</trkpt>
<trkpt lat="48.202652" lon="10.92783">
<ele>556.302</ele>
<time>2022-05-25T12:58:51Z</time>
</trkpt>
<trkpt lat="48.20261" lon="10.927814">
<ele>556.302</ele>
<time>2022-05-25T12:58:52Z</time>
</trkpt>
<trkpt lat="48.20256" lon="10.927796">
<ele>556.302</ele>
<time>2022-05-25T12:58:53Z</time>
</trkpt>
<trkpt lat="48.202515" lon="10.92778">
<ele>556.302</ele>
<time>2022-05-25T12:58:54Z</time>
</trkpt>
<trkpt lat="48.202477" lon="10.927761">
<ele>556.302</ele>
<time>2022-05-25T12:58:55Z</time>
</trkpt>
<trkpt lat="48.202438" lon="10.92774">
<ele>556.302</ele>
<time>2022-05-25T12:58:56Z</time>
</trkpt>
<trkpt lat="48.2024" lon="10.927719">
<ele>556.302</ele>
<time>2022-05-25T12:58:57Z</time>
</trkpt>
<trkpt lat="48.202362" lon="10.927694">
<ele>556.302</ele>
<time>2022-05-25T12:58:58Z</time>
</trkpt>
<trkpt lat="48.202324" lon="10.92767">
<ele>556.302</ele>
<time>2022-05-25T12:58:59Z</time>
</trkpt>
<trkpt lat="48.202286" lon="10.927647">
<ele>556.556</ele>
<time>2022-05-25T12:59:00Z</time>
</trkpt>
<trkpt lat="48.202248" lon="10.927623">
<ele>556.756</ele>
<time>2022-05-25T12:59:01Z</time>
</trkpt>
<trkpt lat="48.202209" lon="10.927602">
<ele>556.916</ele>
<time>2022-05-25T12:59:02Z</time>
</trkpt>
<trkpt lat="48.202168" lon="10.927579">
<ele>557.041</ele>
<time>2022-05-25T12:59:03Z</time>
</trkpt>
<trkpt lat="48.202129" lon="10.927558">
<ele>557.124</ele>
<time>2022-05-25T12:59:04Z</time>
</trkpt>
<trkpt lat="48.202091" lon="10.92753">
<ele>557.185</ele>
<time>2022-05-25T12:59:05Z</time>
</trkpt>
<trkpt lat="48.202049" lon="10.927504">
<ele>557.236</ele>
<time>2022-05-25T12:59:06Z</time>
</trkpt>
<trkpt lat="48.202003" lon="10.92748">
<ele>557.261</ele>
<time>2022-05-25T12:59:07Z</time>
</trkpt>
<trkpt lat="48.201965" lon="10.927455">
<ele>557.261</ele>
<time>2022-05-25T12:59:08Z</time>
</trkpt>
<trkpt lat="48.201927" lon="10.927428">
<ele>557.261</ele>
<time>2022-05-25T12:59:09Z</time>
</trkpt>
<trkpt lat="48.201897" lon="10.927399">
<ele>557.261</ele>
<time>2022-05-25T12:59:10Z</time>
</trkpt>
<trkpt lat="48.201862" lon="10.927367">
<ele>557.261</ele>
<time>2022-05-25T12:59:11Z</time>
</trkpt>
<trkpt lat="48.201828" lon="10.927332">
<ele>557.261</ele>
<time>2022-05-25T12:59:12Z</time>
</trkpt>
<trkpt lat="48.20179" lon="10.927297">
<ele>557.261</ele>
<time>2022-05-25T12:59:13Z</time>
</trkpt>
<trkpt lat="48.201756" lon="10.927257">
<ele>557.261</ele>
<time>2022-05-25T12:59:14Z</time>
</trkpt>
<trkpt lat="48.201717" lon="10.927215">
<ele>557.261</ele>
<time>2022-05-25T12:59:15Z</time>
</trkpt>
<trkpt lat="48.201691" lon="10.927165">
<ele>557.261</ele>
<time>2022-05-25T12:59:16Z</time>
</trkpt>
<trkpt lat="48.20166" lon="10.927105">
<ele>557.261</ele>
<time>2022-05-25T12:59:17Z</time>
</trkpt>
<trkpt lat="48.201633" lon="10.927047">
<ele>557.261</ele>
<time>2022-05-25T12:59:18Z</time>
</trkpt>
<trkpt lat="48.201607" lon="10.926987">
<ele>557.261</ele>
<time>2022-05-25T12:59:19Z</time>
</trkpt>
<trkpt lat="48.201588" lon="10.926931">
<ele>557.261</ele>
<time>2022-05-25T12:59:20Z</time>
</trkpt>
<trkpt lat="48.201576" lon="10.926875">
<ele>557.261</ele>
<time>2022-05-25T12:59:21Z</time>
</trkpt>
<trkpt lat="48.201565" lon="10.926815">
<ele>557.261</ele>
<time>2022-05-25T12:59:22Z</time>
</trkpt>
<trkpt lat="48.201557" lon="10.926755">
<ele>557.261</ele>
<time>2022-05-25T12:59:23Z</time>
</trkpt>
<trkpt lat="48.20155" lon="10.926695">
<ele>557.261</ele>
<time>2022-05-25T12:59:24Z</time>
</trkpt>
<trkpt lat="48.20155" lon="10.926632">
<ele>557.261</ele>
<time>2022-05-25T12:59:25Z</time>
</trkpt>
<trkpt lat="48.20155" lon="10.926569">
<ele>557.261</ele>
<time>2022-05-25T12:59:26Z</time>
</trkpt>
<trkpt lat="48.201538" lon="10.926503">
<ele>557.261</ele>
<time>2022-05-25T12:59:27Z</time>
</trkpt>
<trkpt lat="48.201523" lon="10.926447">
<ele>557.261</ele>
<time>2022-05-25T12:59:28Z</time>
</trkpt>
<trkpt lat="48.201504" lon="10.926395">
<ele>557.261</ele>
<time>2022-05-25T12:59:29Z</time>
</trkpt>
<trkpt lat="48.201477" lon="10.926347">
<ele>557.261</ele>
<time>2022-05-25T12:59:30Z</time>
</trkpt>
<trkpt lat="48.201439" lon="10.926313">
<ele>557.261</ele>
<time>2022-05-25T12:59:31Z</time>
</trkpt>
<trkpt lat="48.201397" lon="10.9263">
<ele>557.261</ele>
<time>2022-05-25T12:59:32Z</time>
</trkpt>
<trkpt lat="48.201344" lon="10.9263">
<ele>557.261</ele>
<time>2022-05-25T12:59:33Z</time>
</trkpt>
<trkpt lat="48.201298" lon="10.92631">
<ele>557.261</ele>
<time>2022-05-25T12:59:34Z</time>
</trkpt>
<trkpt lat="48.201252" lon="10.926324">
<ele>557.261</ele>
<time>2022-05-25T12:59:35Z</time>
</trkpt>
<trkpt lat="48.20121" lon="10.926333">
<ele>557.261</ele>
<time>2022-05-25T12:59:36Z</time>
</trkpt>
<trkpt lat="48.201164" lon="10.926342">
<ele>557.261</ele>
<time>2022-05-25T12:59:37Z</time>
</trkpt>
<trkpt lat="48.201118" lon="10.926347">
<ele>557.261</ele>
<time>2022-05-25T12:59:38Z</time>
</trkpt>
<trkpt lat="48.201077" lon="10.926349">
<ele>557.261</ele>
<time>2022-05-25T12:59:39Z</time>
</trkpt>
<trkpt lat="48.201035" lon="10.926357">
<ele>557.261</ele>
<time>2022-05-25T12:59:40Z</time>
</trkpt>
<trkpt lat="48.200993" lon="10.926364">
<ele>557.261</ele>
<time>2022-05-25T12:59:41Z</time>
</trkpt>
<trkpt lat="48.200947" lon="10.92637">
<ele>557.261</ele>
<time>2022-05-25T12:59:42Z</time>
</trkpt>
<trkpt lat="48.200901" lon="10.926378">
<ele>557.261</ele>
<time>2022-05-25T12:59:43Z</time>
</trkpt>
<trkpt lat="48.200851" lon="10.926394">
<ele>557.261</ele>
<time>2022-05-25T12:59:44Z</time>
</trkpt>
<trkpt lat="48.200809" lon="10.926394">
<ele>557.477</ele>
<time>2022-05-25T12:59:45Z</time>
</trkpt>
<trkpt lat="48.200764" lon="10.926394">
<ele>557.682</ele>
<time>2022-05-25T12:59:46Z</time>
</trkpt>
<trkpt lat="48.200718" lon="10.926394">
<ele>557.849</ele>
<time>2022-05-25T12:59:47Z</time>
</trkpt>
<trkpt lat="48.200672" lon="10.926399">
<ele>557.981</ele>
<time>2022-05-25T12:59:48Z</time>
</trkpt>
<trkpt lat="48.200626" lon="10.926397">
<ele>558.079</ele>
<time>2022-05-25T12:59:49Z</time>
</trkpt>
<trkpt lat="48.200584" lon="10.926394">
<ele>558.15</ele>
<time>2022-05-25T12:59:50Z</time>
</trkpt>
<trkpt lat="48.200535" lon="10.926395">
<ele>558.197</ele>
<time>2022-05-25T12:59:51Z</time>
</trkpt>
<trkpt lat="48.200485" lon="10.926394">
<ele>558.22</ele>
<time>2022-05-25T12:59:52Z</time>
</trkpt>
<trkpt lat="48.200436" lon="10.926385">
<ele>558.22</ele>
<time>2022-05-25T12:59:53Z</time>
</trkpt>
<trkpt lat="48.20039" lon="10.926372">
<ele>558.22</ele>
<time>2022-05-25T12:59:54Z</time>
</trkpt>
<trkpt lat="48.20034" lon="10.926358">
<ele>558.22</ele>
<time>2022-05-25T12:59:55Z</time>
</trkpt>
<trkpt lat="48.200298" lon="10.926347">
<ele>558.22</ele>
<time>2022-05-25T12:59:56Z</time>
</trkpt>
<trkpt lat="48.200253" lon="10.926332">
<ele>558.221</ele>
<time>2022-05-25T12:59:57Z</time>
</trkpt>
<trkpt lat="48.200207" lon="10.926322">
<ele>558.22</ele>
<time>2022-05-25T12:59:58Z</time>
</trkpt>
<trkpt lat="48.200165" lon="10.92631">
<ele>558.221</ele>
<time>2022-05-25T12:59:59Z</time>
</trkpt>
<trkpt lat="48.200123" lon="10.926289">
<ele>558.22</ele>
<time>2022-05-25T13:00:00Z</time>
</trkpt>
<trkpt lat="48.200081" lon="10.926265">
<ele>558.22</ele>
<time>2022-05-25T13:00:01Z</time>
</trkpt>
<trkpt lat="48.200039" lon="10.926244">
<ele>558.22</ele>
<time>2022-05-25T13:00:02Z</time>
</trkpt>
<trkpt lat="48.199993" lon="10.926213">
<ele>558.22</ele>
<time>2022-05-25T13:00:03Z</time>
</trkpt>
<trkpt lat="48.199947" lon="10.926187">
<ele>558.22</ele>
<time>2022-05-25T13:00:04Z</time>
</trkpt>
<trkpt lat="48.199905" lon="10.92616">
<ele>558.22</ele>
<time>2022-05-25T13:00:05Z</time>
</trkpt>
<trkpt lat="48.199863" lon="10.926133">
<ele>558.22</ele>
<time>2022-05-25T13:00:06Z</time>
</trkpt>
<trkpt lat="48.199821" lon="10.926106">
<ele>558.221</ele>
<time>2022-05-25T13:00:07Z</time>
</trkpt>
<trkpt lat="48.19978" lon="10.926084">
<ele>558.221</ele>
<time>2022-05-25T13:00:08Z</time>
</trkpt>
<trkpt lat="48.199738" lon="10.926064">
<ele>558.22</ele>
<time>2022-05-25T13:00:09Z</time>
</trkpt>
<trkpt lat="48.199688" lon="10.926044">
<ele>558.221</ele>
<time>2022-05-25T13:00:10Z</time>
</trkpt>
<trkpt lat="48.199646" lon="10.926022">
<ele>558.221</ele>
<time>2022-05-25T13:00:11Z</time>
</trkpt>
<trkpt lat="48.199604" lon="10.926">
<ele>558.22</ele>
<time>2022-05-25T13:00:12Z</time>
</trkpt>
<trkpt lat="48.199551" lon="10.925979">
<ele>558.22</ele>
<time>2022-05-25T13:00:13Z</time>
</trkpt>
<trkpt lat="48.199505" lon="10.925957">
<ele>558.22</ele>
<time>2022-05-25T13:00:14Z</time>
</trkpt>
<trkpt lat="48.199451" lon="10.925941">
<ele>558.221</ele>
<time>2022-05-25T13:00:15Z</time>
</trkpt>
<trkpt lat="48.199402" lon="10.92593">
<ele>558.22</ele>
<time>2022-05-25T13:00:16Z</time>
</trkpt>
<trkpt lat="48.199352" lon="10.925921">
<ele>558.221</ele>
<time>2022-05-25T13:00:17Z</time>
</trkpt>
<trkpt lat="48.199303" lon="10.92592">
<ele>558.22</ele>
<time>2022-05-25T13:00:18Z</time>
</trkpt>
<trkpt lat="48.199253" lon="10.92593">
<ele>558.22</ele>
<time>2022-05-25T13:00:19Z</time>
</trkpt>
<trkpt lat="48.199203" lon="10.925951">
<ele>558.22</ele>
<time>2022-05-25T13:00:20Z</time>
</trkpt>
<trkpt lat="48.199158" lon="10.925975">
<ele>558.22</ele>
<time>2022-05-25T13:00:21Z</time>
</trkpt>
<trkpt lat="48.199116" lon="10.925993">
<ele>558.22</ele>
<time>2022-05-25T13:00:22Z</time>
</trkpt>
<trkpt lat="48.199066" lon="10.926016">
<ele>558.221</ele>
<time>2022-05-25T13:00:23Z</time>
</trkpt>
<trkpt lat="48.199024" lon="10.926039">
<ele>558.22</ele>
<time>2022-05-25T13:00:24Z</time>
</trkpt>
<trkpt lat="48.198982" lon="10.926068">
<ele>558.22</ele>
<time>2022-05-25T13:00:25Z</time>
</trkpt>
<trkpt lat="48.19894" lon="10.926097">
<ele>558.448</ele>
<time>2022-05-25T13:00:26Z</time>
</trkpt>
<trkpt lat="48.198898" lon="10.926123">
<ele>558.644</ele>
<time>2022-05-25T13:00:27Z</time>
</trkpt>
<trkpt lat="48.198856" lon="10.926147">
<ele>558.806</ele>
<time>2022-05-25T13:00:28Z</time>
</trkpt>
<trkpt lat="48.198811" lon="10.92617">
<ele>558.936</ele>
<time>2022-05-25T13:00:29Z</time>
</trkpt>
<trkpt lat="48.198769" lon="10.926195">
<ele>559.036</ele>
<time>2022-05-25T13:00:30Z</time>
</trkpt>
<trkpt lat="48.19873" lon="10.926225">
<ele>559.109</ele>
<time>2022-05-25T13:00:31Z</time>
</trkpt>
<trkpt lat="48.198692" lon="10.926255">
<ele>559.157</ele>
<time>2022-05-25T13:00:32Z</time>
</trkpt>
<trkpt lat="48.198654" lon="10.926287">
<ele>559.18</ele>
<time>2022-05-25T13:00:33Z</time>
</trkpt>
<trkpt lat="48.198612" lon="10.92632">
<ele>559.18</ele>
<time>2022-05-25T13:00:34Z</time>
</trkpt>
<trkpt lat="48.19857" lon="10.926349">
<ele>559.18</ele>
<time>2022-05-25T13:00:35Z</time>
</trkpt>
<trkpt lat="48.198532" lon="10.926378">
<ele>559.18</ele>
<time>2022-05-25T13:00:36Z</time>
</trkpt>
<trkpt lat="48.198494" lon="10.926412">
<ele>559.18</ele>
<time>2022-05-25T13:00:37Z</time>
</trkpt>
<trkpt lat="48.19846" lon="10.926448">
<ele>559.18</ele>
<time>2022-05-25T13:00:38Z</time>
</trkpt>
<trkpt lat="48.198425" lon="10.926485">
<ele>559.18</ele>
<time>2022-05-25T13:00:39Z</time>
</trkpt>
<trkpt lat="48.198387" lon="10.926525">
<ele>559.18</ele>
<time>2022-05-25T13:00:40Z</time>
</trkpt>
<trkpt lat="48.198353" lon="10.926563">
<ele>559.18</ele>
<time>2022-05-25T13:00:41Z</time>
</trkpt>
<trkpt lat="48.198318" lon="10.926602">
<ele>559.18</ele>
<time>2022-05-25T13:00:42Z</time>
</trkpt>
<trkpt lat="48.198284" lon="10.926641">
<ele>559.18</ele>
<time>2022-05-25T13:00:43Z</time>
</trkpt>
<trkpt lat="48.198254" lon="10.926678">
<ele>559.18</ele>
<time>2022-05-25T13:00:44Z</time>
</trkpt>
<trkpt lat="48.198219" lon="10.926718">
<ele>559.18</ele>
<time>2022-05-25T13:00:45Z</time>
</trkpt>
<trkpt lat="48.198189" lon="10.92676">
<ele>559.18</ele>
<time>2022-05-25T13:00:46Z</time>
</trkpt>
<trkpt lat="48.198154" lon="10.926806">
<ele>559.18</ele>
<time>2022-05-25T13:00:47Z</time>
</trkpt>
<trkpt lat="48.198124" lon="10.926851">
<ele>559.18</ele>
<time>2022-05-25T13:00:48Z</time>
</trkpt>
<trkpt lat="48.19809" lon="10.926904">
<ele>559.18</ele>
<time>2022-05-25T13:00:49Z</time>
</trkpt>
<trkpt lat="48.198063" lon="10.926952">
<ele>559.18</ele>
<time>2022-05-25T13:00:50Z</time>
</trkpt>
<trkpt lat="48.198021" lon="10.927">
<ele>559.18</ele>
<time>2022-05-25T13:00:51Z</time>
</trkpt>
<trkpt lat="48.19799" lon="10.927049">
<ele>559.18</ele>
<time>2022-05-25T13:00:52Z</time>
</trkpt>
<trkpt lat="48.197956" lon="10.927101">
<ele>559.18</ele>
<time>2022-05-25T13:00:53Z</time>
</trkpt>
<trkpt lat="48.197922" lon="10.927154">
<ele>559.18</ele>
<time>2022-05-25T13:00:54Z</time>
</trkpt>
<trkpt lat="48.197887" lon="10.927201">
<ele>559.18</ele>
<time>2022-05-25T13:00:55Z</time>
</trkpt>
<trkpt lat="48.197853" lon="10.92725">
<ele>559.18</ele>
<time>2022-05-25T13:00:56Z</time>
</trkpt>
<trkpt lat="48.197811" lon="10.927292">
<ele>559.18</ele>
<time>2022-05-25T13:00:57Z</time>
</trkpt>
<trkpt lat="48.197769" lon="10.927332">
<ele>559.18</ele>
<time>2022-05-25T13:00:58Z</time>
</trkpt>
<trkpt lat="48.197727" lon="10.927375">
<ele>559.18</ele>
<time>2022-05-25T13:00:59Z</time>
</trkpt>
<trkpt lat="48.197689" lon="10.927418">
<ele>559.18</ele>
<time>2022-05-25T13:01:00Z</time>
</trkpt>
<trkpt lat="48.197655" lon="10.927457">
<ele>559.18</ele>
<time>2022-05-25T13:01:01Z</time>
</trkpt>
<trkpt lat="48.197613" lon="10.9275">
<ele>559.18</ele>
<time>2022-05-25T13:01:02Z</time>
</trkpt>
<trkpt lat="48.197571" lon="10.927539">
<ele>559.18</ele>
<time>2022-05-25T13:01:03Z</time>
</trkpt>
<trkpt lat="48.197525" lon="10.927575">
<ele>559.18</ele>
<time>2022-05-25T13:01:04Z</time>
</trkpt>
<trkpt lat="48.197483" lon="10.927605">
<ele>559.18</ele>
<time>2022-05-25T13:01:05Z</time>
</trkpt>
<trkpt lat="48.197445" lon="10.927629">
<ele>559.18</ele>
<time>2022-05-25T13:01:07Z</time>
</trkpt>
<trkpt lat="48.197353" lon="10.927675">
<ele>559.18</ele>
<time>2022-05-25T13:01:08Z</time>
</trkpt>
<trkpt lat="48.197308" lon="10.927696">
<ele>559.18</ele>
<time>2022-05-25T13:01:09Z</time>
</trkpt>
<trkpt lat="48.197266" lon="10.927715">
<ele>559.18</ele>
<time>2022-05-25T13:01:10Z</time>
</trkpt>
<trkpt lat="48.197227" lon="10.927733">
<ele>559.18</ele>
<time>2022-05-25T13:01:11Z</time>
</trkpt>
<trkpt lat="48.197186" lon="10.927758">
<ele>559.18</ele>
<time>2022-05-25T13:01:12Z</time>
</trkpt>
<trkpt lat="48.197147" lon="10.927792">
<ele>559.18</ele>
<time>2022-05-25T13:01:13Z</time>
</trkpt>
<trkpt lat="48.197113" lon="10.927834">
<ele>559.18</ele>
<time>2022-05-25T13:01:14Z</time>
</trkpt>
<trkpt lat="48.197086" lon="10.927883">
<ele>559.18</ele>
<time>2022-05-25T13:01:15Z</time>
</trkpt>
<trkpt lat="48.197063" lon="10.927941">
<ele>559.18</ele>
<time>2022-05-25T13:01:16Z</time>
</trkpt>
<trkpt lat="48.197037" lon="10.928004">
<ele>559.18</ele>
<time>2022-05-25T13:01:17Z</time>
</trkpt>
<trkpt lat="48.197018" lon="10.928077">
<ele>559.18</ele>
<time>2022-05-25T13:01:18Z</time>
</trkpt>
<trkpt lat="48.196999" lon="10.928146">
<ele>559.18</ele>
<time>2022-05-25T13:01:19Z</time>
</trkpt>
<trkpt lat="48.196976" lon="10.928222">
<ele>559.18</ele>
<time>2022-05-25T13:01:20Z</time>
</trkpt>
<trkpt lat="48.196957" lon="10.928288">
<ele>559.18</ele>
<time>2022-05-25T13:01:21Z</time>
</trkpt>
<trkpt lat="48.196941" lon="10.928355">
<ele>559.18</ele>
<time>2022-05-25T13:01:22Z</time>
</trkpt>
<trkpt lat="48.196922" lon="10.92842">
<ele>559.18</ele>
<time>2022-05-25T13:01:23Z</time>
</trkpt>
<trkpt lat="48.196899" lon="10.928487">
<ele>559.18</ele>
<time>2022-05-25T13:01:24Z</time>
</trkpt>
<trkpt lat="48.196877" lon="10.928549">
<ele>559.18</ele>
<time>2022-05-25T13:01:25Z</time>
</trkpt>
<trkpt lat="48.196861" lon="10.928603">
<ele>559.18</ele>
<time>2022-05-25T13:01:26Z</time>
</trkpt>
<trkpt lat="48.196835" lon="10.928652">
<ele>559.18</ele>
<time>2022-05-25T13:01:27Z</time>
</trkpt>
<trkpt lat="48.196812" lon="10.928689">
<ele>559.18</ele>
<time>2022-05-25T13:01:28Z</time>
</trkpt>
<trkpt lat="48.196777" lon="10.92872">
<ele>559.18</ele>
<time>2022-05-25T13:01:29Z</time>
</trkpt>
<trkpt lat="48.196747" lon="10.928741">
<ele>559.18</ele>
<time>2022-05-25T13:01:30Z</time>
</trkpt>
<trkpt lat="48.196709" lon="10.928754">
<ele>559.18</ele>
<time>2022-05-25T13:01:31Z</time>
</trkpt>
<trkpt lat="48.196678" lon="10.928761">
<ele>559.18</ele>
<time>2022-05-25T13:01:32Z</time>
</trkpt>
<trkpt lat="48.196636" lon="10.928765">
<ele>559.18</ele>
<time>2022-05-25T13:01:33Z</time>
</trkpt>
<trkpt lat="48.196598" lon="10.928763">
<ele>559.18</ele>
<time>2022-05-25T13:01:34Z</time>
</trkpt>
<trkpt lat="48.196552" lon="10.928754">
<ele>559.18</ele>
<time>2022-05-25T13:01:35Z</time>
</trkpt>
<trkpt lat="48.196518" lon="10.928743">
<ele>559.18</ele>
<time>2022-05-25T13:01:36Z</time>
</trkpt>
<trkpt lat="48.19648" lon="10.928731">
<ele>559.18</ele>
<time>2022-05-25T13:01:37Z</time>
</trkpt>
<trkpt lat="48.196438" lon="10.928719">
<ele>559.18</ele>
<time>2022-05-25T13:01:38Z</time>
</trkpt>
<trkpt lat="48.196396" lon="10.928712">
<ele>559.18</ele>
<time>2022-05-25T13:01:39Z</time>
</trkpt>
<trkpt lat="48.196354" lon="10.928699">
<ele>559.18</ele>
<time>2022-05-25T13:01:40Z</time>
</trkpt>
<trkpt lat="48.196316" lon="10.928692">
<ele>559.18</ele>
<time>2022-05-25T13:01:41Z</time>
</trkpt>
<trkpt lat="48.19627" lon="10.928679">
<ele>559.18</ele>
<time>2022-05-25T13:01:42Z</time>
</trkpt>
<trkpt lat="48.196224" lon="10.92866">
<ele>559.18</ele>
<time>2022-05-25T13:01:43Z</time>
</trkpt>
<trkpt lat="48.196186" lon="10.928641">
<ele>559.18</ele>
<time>2022-05-25T13:01:44Z</time>
</trkpt>
<trkpt lat="48.19614" lon="10.928628">
<ele>559.18</ele>
<time>2022-05-25T13:01:45Z</time>
</trkpt>
<trkpt lat="48.196098" lon="10.928616">
<ele>559.18</ele>
<time>2022-05-25T13:01:46Z</time>
</trkpt>
<trkpt lat="48.196056" lon="10.928601">
<ele>559.18</ele>
<time>2022-05-25T13:01:47Z</time>
</trkpt>
<trkpt lat="48.196014" lon="10.928587">
<ele>559.18</ele>
<time>2022-05-25T13:01:48Z</time>
</trkpt>
<trkpt lat="48.195976" lon="10.928572">
<ele>559.425</ele>
<time>2022-05-25T13:01:49Z</time>
</trkpt>
<trkpt lat="48.19593" lon="10.928558">
<ele>559.609</ele>
<time>2022-05-25T13:01:50Z</time>
</trkpt>
<trkpt lat="48.195896" lon="10.928549">
<ele>559.753</ele>
<time>2022-05-25T13:01:51Z</time>
</trkpt>
<trkpt lat="48.195854" lon="10.928534">
<ele>559.865</ele>
<time>2022-05-25T13:01:52Z</time>
</trkpt>
<trkpt lat="48.195812" lon="10.928515">
<ele>559.922</ele>
<time>2022-05-25T13:01:53Z</time>
</trkpt>
<trkpt lat="48.19577" lon="10.928498">
<ele>560.211</ele>
<time>2022-05-25T13:01:54Z</time>
</trkpt>
<trkpt lat="48.195732" lon="10.928477">
<ele>560.427</ele>
<time>2022-05-25T13:01:55Z</time>
</trkpt>
<trkpt lat="48.195702" lon="10.928454">
<ele>560.622</ele>
<time>2022-05-25T13:01:56Z</time>
</trkpt>
<trkpt lat="48.195667" lon="10.928423">
<ele>560.758</ele>
<time>2022-05-25T13:01:57Z</time>
</trkpt>
<trkpt lat="48.195637" lon="10.928388">
<ele>560.862</ele>
<time>2022-05-25T13:01:58Z</time>
</trkpt>
<trkpt lat="48.195602" lon="10.928353">
<ele>560.94</ele>
<time>2022-05-25T13:01:59Z</time>
</trkpt>
<trkpt lat="48.195568" lon="10.928314">
<ele>560.988</ele>
<time>2022-05-25T13:02:00Z</time>
</trkpt>
<trkpt lat="48.195534" lon="10.928273">
<ele>561.012</ele>
<time>2022-05-25T13:02:01Z</time>
</trkpt>
<trkpt lat="48.195503" lon="10.928235">
<ele>561.012</ele>
<time>2022-05-25T13:02:02Z</time>
</trkpt>
<trkpt lat="48.195473" lon="10.9282">
<ele>561.012</ele>
<time>2022-05-25T13:02:03Z</time>
</trkpt>
<trkpt lat="48.195442" lon="10.928168">
<ele>561.012</ele>
<time>2022-05-25T13:02:04Z</time>
</trkpt>
<trkpt lat="48.195412" lon="10.92814">
<ele>561.012</ele>
<time>2022-05-25T13:02:05Z</time>
</trkpt>
<trkpt lat="48.195381" lon="10.928117">
<ele>561.012</ele>
<time>2022-05-25T13:02:06Z</time>
</trkpt>
<trkpt lat="48.195354" lon="10.928106">
<ele>561.012</ele>
<time>2022-05-25T13:02:07Z</time>
</trkpt>
<trkpt lat="48.195324" lon="10.928111">
<ele>561.012</ele>
<time>2022-05-25T13:02:08Z</time>
</trkpt>
<trkpt lat="48.195293" lon="10.928132">
<ele>561.012</ele>
<time>2022-05-25T13:02:09Z</time>
</trkpt>
<trkpt lat="48.195263" lon="10.92815">
<ele>561.012</ele>
<time>2022-05-25T13:02:10Z</time>
</trkpt>
<trkpt lat="48.195232" lon="10.928157">
<ele>561.012</ele>
<time>2022-05-25T13:02:11Z</time>
</trkpt>
<trkpt lat="48.195198" lon="10.928157">
<ele>561.012</ele>
<time>2022-05-25T13:02:12Z</time>
</trkpt>
<trkpt lat="48.195156" lon="10.928159">
<ele>561.012</ele>
<time>2022-05-25T13:02:13Z</time>
</trkpt>
<trkpt lat="48.195122" lon="10.928155">
<ele>561.012</ele>
<time>2022-05-25T13:02:14Z</time>
</trkpt>
<trkpt lat="48.195084" lon="10.92815">
<ele>561.012</ele>
<time>2022-05-25T13:02:15Z</time>
</trkpt>
<trkpt lat="48.195045" lon="10.928139">
<ele>561.012</ele>
<time>2022-05-25T13:02:16Z</time>
</trkpt>
<trkpt lat="48.195015" lon="10.92812">
<ele>561.012</ele>
<time>2022-05-25T13:02:17Z</time>
</trkpt>
<trkpt lat="48.194981" lon="10.928103">
<ele>561.012</ele>
<time>2022-05-25T13:02:18Z</time>
</trkpt>
<trkpt lat="48.194946" lon="10.928085">
<ele>561.012</ele>
<time>2022-05-25T13:02:19Z</time>
</trkpt>
<trkpt lat="48.194904" lon="10.928069">
<ele>561.012</ele>
<time>2022-05-25T13:02:20Z</time>
</trkpt>
<trkpt lat="48.194866" lon="10.928052">
<ele>561.012</ele>
<time>2022-05-25T13:02:21Z</time>
</trkpt>
<trkpt lat="48.194828" lon="10.928035">
<ele>561.012</ele>
<time>2022-05-25T13:02:22Z</time>
</trkpt>
<trkpt lat="48.19479" lon="10.928019">
<ele>561.012</ele>
<time>2022-05-25T13:02:23Z</time>
</trkpt>
<trkpt lat="48.194752" lon="10.928001">
<ele>561.012</ele>
<time>2022-05-25T13:02:24Z</time>
</trkpt>
<trkpt lat="48.194717" lon="10.927987">
<ele>561.012</ele>
<time>2022-05-25T13:02:25Z</time>
</trkpt>
<trkpt lat="48.194683" lon="10.927972">
<ele>561.012</ele>
<time>2022-05-25T13:02:26Z</time>
</trkpt>
<trkpt lat="48.194649" lon="10.92796">
<ele>561.012</ele>
<time>2022-05-25T13:02:27Z</time>
</trkpt>
<trkpt lat="48.194611" lon="10.927945">
<ele>561.012</ele>
<time>2022-05-25T13:02:28Z</time>
</trkpt>
<trkpt lat="48.194576" lon="10.927929">
<ele>561.012</ele>
<time>2022-05-25T13:02:29Z</time>
</trkpt>
<trkpt lat="48.194542" lon="10.927914">
<ele>561.012</ele>
<time>2022-05-25T13:02:30Z</time>
</trkpt>
<trkpt lat="48.194511" lon="10.927896">
<ele>561.012</ele>
<time>2022-05-25T13:02:31Z</time>
</trkpt>
<trkpt lat="48.194481" lon="10.927872">
<ele>561.012</ele>
<time>2022-05-25T13:02:32Z</time>
</trkpt>
<trkpt lat="48.194447" lon="10.927845">
<ele>561.012</ele>
<time>2022-05-25T13:02:33Z</time>
</trkpt>
<trkpt lat="48.194405" lon="10.927815">
<ele>561.012</ele>
<time>2022-05-25T13:02:34Z</time>
</trkpt>
<trkpt lat="48.19437" lon="10.927785">
<ele>561.012</ele>
<time>2022-05-25T13:02:35Z</time>
</trkpt>
<trkpt lat="48.194336" lon="10.927751">
<ele>561.012</ele>
<time>2022-05-25T13:02:36Z</time>
</trkpt>
<trkpt lat="48.194302" lon="10.927715">
<ele>561.012</ele>
<time>2022-05-25T13:02:37Z</time>
</trkpt>
<trkpt lat="48.19426" lon="10.927686">
<ele>561.012</ele>
<time>2022-05-25T13:02:38Z</time>
</trkpt>
<trkpt lat="48.194229" lon="10.927663">
<ele>561.012</ele>
<time>2022-05-25T13:02:39Z</time>
</trkpt>
<trkpt lat="48.194202" lon="10.927649">
<ele>561.012</ele>
<time>2022-05-25T13:02:40Z</time>
</trkpt>
<trkpt lat="48.194172" lon="10.927631">
<ele>561.012</ele>
<time>2022-05-25T13:02:41Z</time>
</trkpt>
<trkpt lat="48.194145" lon="10.92761">
<ele>561.012</ele>
<time>2022-05-25T13:02:42Z</time>
</trkpt>
<trkpt lat="48.194118" lon="10.927593">
<ele>561.012</ele>
<time>2022-05-25T13:02:43Z</time>
</trkpt>
<trkpt lat="48.194092" lon="10.927565">
<ele>561.012</ele>
<time>2022-05-25T13:02:44Z</time>
</trkpt>
<trkpt lat="48.194065" lon="10.927544">
<ele>561.012</ele>
<time>2022-05-25T13:02:45Z</time>
</trkpt>
<trkpt lat="48.194027" lon="10.927528">
<ele>561.012</ele>
<time>2022-05-25T13:02:46Z</time>
</trkpt>
<trkpt lat="48.193989" lon="10.92752">
<ele>561.012</ele>
<time>2022-05-25T13:02:47Z</time>
</trkpt>
<trkpt lat="48.193947" lon="10.927507">
<ele>561.012</ele>
<time>2022-05-25T13:02:48Z</time>
</trkpt>
<trkpt lat="48.193913" lon="10.927488">
<ele>561.296</ele>
<time>2022-05-25T13:02:49Z</time>
</trkpt>
<trkpt lat="48.193874" lon="10.927468">
<ele>561.509</ele>
<time>2022-05-25T13:02:50Z</time>
</trkpt>
<trkpt lat="48.193836" lon="10.927455">
<ele>561.665</ele>
<time>2022-05-25T13:02:51Z</time>
</trkpt>
<trkpt lat="48.193798" lon="10.927442">
<ele>561.779</ele>
<time>2022-05-25T13:02:52Z</time>
</trkpt>
<trkpt lat="48.19376" lon="10.92743">
<ele>561.859</ele>
<time>2022-05-25T13:02:53Z</time>
</trkpt>
<trkpt lat="48.193714" lon="10.92742">
<ele>561.905</ele>
<time>2022-05-25T13:02:54Z</time>
</trkpt>
<trkpt lat="48.193676" lon="10.927408">
<ele>561.945</ele>
<time>2022-05-25T13:02:55Z</time>
</trkpt>
<trkpt lat="48.193638" lon="10.927392">
<ele>561.972</ele>
<time>2022-05-25T13:02:56Z</time>
</trkpt>
<trkpt lat="48.193607" lon="10.927373">
<ele>561.972</ele>
<time>2022-05-25T13:02:57Z</time>
</trkpt>
<trkpt lat="48.193565" lon="10.927357">
<ele>561.972</ele>
<time>2022-05-25T13:02:58Z</time>
</trkpt>
<trkpt lat="48.193516" lon="10.927343">
<ele>561.972</ele>
<time>2022-05-25T13:02:59Z</time>
</trkpt>
<trkpt lat="48.193451" lon="10.92733">
<ele>561.972</ele>
<time>2022-05-25T13:03:00Z</time>
</trkpt>
<trkpt lat="48.19339" lon="10.927313">
<ele>561.972</ele>
<time>2022-05-25T13:03:01Z</time>
</trkpt>
<trkpt lat="48.193336" lon="10.927304">
<ele>561.972</ele>
<time>2022-05-25T13:03:02Z</time>
</trkpt>
<trkpt lat="48.193264" lon="10.927288">
<ele>561.972</ele>
<time>2022-05-25T13:03:03Z</time>
</trkpt>
<trkpt lat="48.193203" lon="10.927271">
<ele>561.971</ele>
<time>2022-05-25T13:03:04Z</time>
</trkpt>
<trkpt lat="48.193138" lon="10.927252">
<ele>561.972</ele>
<time>2022-05-25T13:03:05Z</time>
</trkpt>
<trkpt lat="48.193081" lon="10.927232">
<ele>561.972</ele>
<time>2022-05-25T13:03:06Z</time>
</trkpt>
<trkpt lat="48.19302" lon="10.927206">
<ele>561.972</ele>
<time>2022-05-25T13:03:07Z</time>
</trkpt>
<trkpt lat="48.192963" lon="10.927183">
<ele>561.971</ele>
<time>2022-05-25T13:03:08Z</time>
</trkpt>
<trkpt lat="48.192898" lon="10.92716">
<ele>561.971</ele>
<time>2022-05-25T13:03:09Z</time>
</trkpt>
<trkpt lat="48.192844" lon="10.927147">
<ele>561.972</ele>
<time>2022-05-25T13:03:10Z</time>
</trkpt>
<trkpt lat="48.192783" lon="10.927136">
<ele>561.972</ele>
<time>2022-05-25T13:03:11Z</time>
</trkpt>
<trkpt lat="48.192726" lon="10.927127">
<ele>561.972</ele>
<time>2022-05-25T13:03:12Z</time>
</trkpt>
<trkpt lat="48.192669" lon="10.927114">
<ele>561.971</ele>
<time>2022-05-25T13:03:13Z</time>
</trkpt>
<trkpt lat="48.192608" lon="10.927107">
<ele>561.971</ele>
<time>2022-05-25T13:03:14Z</time>
</trkpt>
<trkpt lat="48.192554" lon="10.927103">
<ele>561.971</ele>
<time>2022-05-25T13:03:15Z</time>
</trkpt>
<trkpt lat="48.192497" lon="10.9271">
<ele>561.971</ele>
<time>2022-05-25T13:03:16Z</time>
</trkpt>
<trkpt lat="48.19244" lon="10.927098">
<ele>561.972</ele>
<time>2022-05-25T13:03:17Z</time>
</trkpt>
<trkpt lat="48.192387" lon="10.927094">
<ele>561.972</ele>
<time>2022-05-25T13:03:18Z</time>
</trkpt>
<trkpt lat="48.192337" lon="10.927092">
<ele>561.972</ele>
<time>2022-05-25T13:03:19Z</time>
</trkpt>
<trkpt lat="48.192287" lon="10.927089">
<ele>561.972</ele>
<time>2022-05-25T13:03:20Z</time>
</trkpt>
<trkpt lat="48.192234" lon="10.927083">
<ele>561.972</ele>
<time>2022-05-25T13:03:21Z</time>
</trkpt>
<trkpt lat="48.192184" lon="10.927082">
<ele>561.972</ele>
<time>2022-05-25T13:03:22Z</time>
</trkpt>
<trkpt lat="48.192135" lon="10.927087">
<ele>561.972</ele>
<time>2022-05-25T13:03:23Z</time>
</trkpt>
<trkpt lat="48.192085" lon="10.927091">
<ele>561.972</ele>
<time>2022-05-25T13:03:24Z</time>
</trkpt>
<trkpt lat="48.192039" lon="10.927089">
<ele>561.972</ele>
<time>2022-05-25T13:03:25Z</time>
</trkpt>
<trkpt lat="48.191986" lon="10.927089">
<ele>561.972</ele>
<time>2022-05-25T13:03:26Z</time>
</trkpt>
<trkpt lat="48.19194" lon="10.927085">
<ele>561.972</ele>
<time>2022-05-25T13:03:27Z</time>
</trkpt>
<trkpt lat="48.191883" lon="10.927085">
<ele>561.972</ele>
<time>2022-05-25T13:03:28Z</time>
</trkpt>
<trkpt lat="48.19183" lon="10.927083">
<ele>561.972</ele>
<time>2022-05-25T13:03:29Z</time>
</trkpt>
<trkpt lat="48.19178" lon="10.927083">
<ele>561.972</ele>
<time>2022-05-25T13:03:30Z</time>
</trkpt>
<trkpt lat="48.191723" lon="10.927083">
<ele>561.971</ele>
<time>2022-05-25T13:03:31Z</time>
</trkpt>
<trkpt lat="48.191673" lon="10.927089">
<ele>561.972</ele>
<time>2022-05-25T13:03:32Z</time>
</trkpt>
<trkpt lat="48.19162" lon="10.927094">
<ele>561.972</ele>
<time>2022-05-25T13:03:33Z</time>
</trkpt>
<trkpt lat="48.19157" lon="10.927103">
<ele>561.971</ele>
<time>2022-05-25T13:03:34Z</time>
</trkpt>
<trkpt lat="48.191517" lon="10.927107">
<ele>561.972</ele>
<time>2022-05-25T13:03:35Z</time>
</trkpt>
<trkpt lat="48.191463" lon="10.92711">
<ele>561.971</ele>
<time>2022-05-25T13:03:36Z</time>
</trkpt>
<trkpt lat="48.19141" lon="10.927107">
<ele>561.972</ele>
<time>2022-05-25T13:03:37Z</time>
</trkpt>
<trkpt lat="48.191364" lon="10.927101">
<ele>561.971</ele>
<time>2022-05-25T13:03:38Z</time>
</trkpt>
<trkpt lat="48.191311" lon="10.927098">
<ele>561.972</ele>
<time>2022-05-25T13:03:39Z</time>
</trkpt>
<trkpt lat="48.191261" lon="10.927096">
<ele>561.971</ele>
<time>2022-05-25T13:03:40Z</time>
</trkpt>
<trkpt lat="48.191208" lon="10.927096">
<ele>561.972</ele>
<time>2022-05-25T13:03:41Z</time>
</trkpt>
<trkpt lat="48.191162" lon="10.927098">
<ele>561.971</ele>
<time>2022-05-25T13:03:42Z</time>
</trkpt>
<trkpt lat="48.191109" lon="10.927101">
<ele>561.972</ele>
<time>2022-05-25T13:03:43Z</time>
</trkpt>
<trkpt lat="48.191063" lon="10.927103">
<ele>562.182</ele>
<time>2022-05-25T13:03:44Z</time>
</trkpt>
<trkpt lat="48.19101" lon="10.927101">
<ele>562.334</ele>
<time>2022-05-25T13:03:45Z</time>
</trkpt>
<trkpt lat="48.190956" lon="10.927098">
<ele>562.491</ele>
<time>2022-05-25T13:03:46Z</time>
</trkpt>
<trkpt lat="48.190903" lon="10.927094">
<ele>562.615</ele>
<time>2022-05-25T13:03:47Z</time>
</trkpt>
<trkpt lat="48.190849" lon="10.927091">
<ele>562.711</ele>
<time>2022-05-25T13:03:48Z</time>
</trkpt>
<trkpt lat="48.1908" lon="10.927083">
<ele>562.779</ele>
<time>2022-05-25T13:03:49Z</time>
</trkpt>
<trkpt lat="48.19075" lon="10.927078">
<ele>562.824</ele>
<time>2022-05-25T13:03:50Z</time>
</trkpt>
<trkpt lat="48.190697" lon="10.927076">
<ele>562.844</ele>
<time>2022-05-25T13:03:51Z</time>
</trkpt>
<trkpt lat="48.190647" lon="10.927075">
<ele>562.844</ele>
<time>2022-05-25T13:03:52Z</time>
</trkpt>
<trkpt lat="48.190598" lon="10.927072">
<ele>562.844</ele>
<time>2022-05-25T13:03:53Z</time>
</trkpt>
<trkpt lat="48.190548" lon="10.927067">
<ele>562.844</ele>
<time>2022-05-25T13:03:54Z</time>
</trkpt>
<trkpt lat="48.190495" lon="10.927063">
<ele>562.844</ele>
<time>2022-05-25T13:03:55Z</time>
</trkpt>
<trkpt lat="48.190445" lon="10.927059">
<ele>562.844</ele>
<time>2022-05-25T13:03:56Z</time>
</trkpt>
<trkpt lat="48.190392" lon="10.927053">
<ele>562.844</ele>
<time>2022-05-25T13:03:57Z</time>
</trkpt>
<trkpt lat="48.190342" lon="10.927051">
<ele>562.844</ele>
<time>2022-05-25T13:03:58Z</time>
</trkpt>
<trkpt lat="48.190289" lon="10.927045">
<ele>562.844</ele>
<time>2022-05-25T13:03:59Z</time>
</trkpt>
<trkpt lat="48.190243" lon="10.927042">
<ele>562.844</ele>
<time>2022-05-25T13:04:00Z</time>
</trkpt>
<trkpt lat="48.190193" lon="10.927036">
<ele>562.844</ele>
<time>2022-05-25T13:04:01Z</time>
</trkpt>
<trkpt lat="48.19014" lon="10.92703">
<ele>562.844</ele>
<time>2022-05-25T13:04:02Z</time>
</trkpt>
<trkpt lat="48.190094" lon="10.927024">
<ele>562.844</ele>
<time>2022-05-25T13:04:03Z</time>
</trkpt>
<trkpt lat="48.190041" lon="10.92702">
<ele>562.844</ele>
<time>2022-05-25T13:04:04Z</time>
</trkpt>
<trkpt lat="48.189991" lon="10.927015">
<ele>562.844</ele>
<time>2022-05-25T13:04:05Z</time>
</trkpt>
<trkpt lat="48.189938" lon="10.927007">
<ele>562.844</ele>
<time>2022-05-25T13:04:06Z</time>
</trkpt>
<trkpt lat="48.189888" lon="10.927">
<ele>562.844</ele>
<time>2022-05-25T13:04:07Z</time>
</trkpt>
<trkpt lat="48.189838" lon="10.926998">
<ele>562.844</ele>
<time>2022-05-25T13:04:08Z</time>
</trkpt>
<trkpt lat="48.189793" lon="10.926996">
<ele>562.844</ele>
<time>2022-05-25T13:04:09Z</time>
</trkpt>
<trkpt lat="48.189743" lon="10.926989">
<ele>562.844</ele>
<time>2022-05-25T13:04:10Z</time>
</trkpt>
<trkpt lat="48.189693" lon="10.92698">
<ele>562.844</ele>
<time>2022-05-25T13:04:11Z</time>
</trkpt>
<trkpt lat="48.189644" lon="10.926967">
<ele>562.844</ele>
<time>2022-05-25T13:04:12Z</time>
</trkpt>
<trkpt lat="48.189598" lon="10.926956">
<ele>562.844</ele>
<time>2022-05-25T13:04:13Z</time>
</trkpt>
<trkpt lat="48.189548" lon="10.926952">
<ele>562.844</ele>
<time>2022-05-25T13:04:14Z</time>
</trkpt>
<trkpt lat="48.189503" lon="10.926944">
<ele>562.844</ele>
<time>2022-05-25T13:04:15Z</time>
</trkpt>
<trkpt lat="48.189457" lon="10.926929">
<ele>562.844</ele>
<time>2022-05-25T13:04:16Z</time>
</trkpt>
<trkpt lat="48.189411" lon="10.926919">
<ele>562.844</ele>
<time>2022-05-25T13:04:17Z</time>
</trkpt>
<trkpt lat="48.189365" lon="10.92691">
<ele>562.844</ele>
<time>2022-05-25T13:04:18Z</time>
</trkpt>
<trkpt lat="48.189312" lon="10.926907">
<ele>562.844</ele>
<time>2022-05-25T13:04:19Z</time>
</trkpt>
<trkpt lat="48.189266" lon="10.926898">
<ele>562.844</ele>
<time>2022-05-25T13:04:20Z</time>
</trkpt>
<trkpt lat="48.189213" lon="10.926889">
<ele>562.844</ele>
<time>2022-05-25T13:04:21Z</time>
</trkpt>
<trkpt lat="48.189159" lon="10.926882">
<ele>562.844</ele>
<time>2022-05-25T13:04:22Z</time>
</trkpt>
<trkpt lat="48.189114" lon="10.92687">
<ele>562.844</ele>
<time>2022-05-25T13:04:23Z</time>
</trkpt>
<trkpt lat="48.18906" lon="10.92686">
<ele>562.844</ele>
<time>2022-05-25T13:04:24Z</time>
</trkpt>
<trkpt lat="48.189011" lon="10.926851">
<ele>562.844</ele>
<time>2022-05-25T13:04:25Z</time>
</trkpt>
<trkpt lat="48.188957" lon="10.926844">
<ele>562.844</ele>
<time>2022-05-25T13:04:26Z</time>
</trkpt>
<trkpt lat="48.188908" lon="10.926833">
<ele>562.844</ele>
<time>2022-05-25T13:04:27Z</time>
</trkpt>
<trkpt lat="48.188858" lon="10.926826">
<ele>562.844</ele>
<time>2022-05-25T13:04:28Z</time>
</trkpt>
<trkpt lat="48.188812" lon="10.926825">
<ele>562.844</ele>
<time>2022-05-25T13:04:29Z</time>
</trkpt>
<trkpt lat="48.188763" lon="10.926825">
<ele>562.844</ele>
<time>2022-05-25T13:04:30Z</time>
</trkpt>
<trkpt lat="48.188717" lon="10.926822">
<ele>562.844</ele>
<time>2022-05-25T13:04:31Z</time>
</trkpt>
<trkpt lat="48.188667" lon="10.926814">
<ele>562.844</ele>
<time>2022-05-25T13:04:32Z</time>
</trkpt>
<trkpt lat="48.188622" lon="10.926802">
<ele>562.844</ele>
<time>2022-05-25T13:04:33Z</time>
</trkpt>
<trkpt lat="48.188572" lon="10.926791">
<ele>562.844</ele>
<time>2022-05-25T13:04:34Z</time>
</trkpt>
<trkpt lat="48.188526" lon="10.926785">
<ele>562.844</ele>
<time>2022-05-25T13:04:35Z</time>
</trkpt>
<trkpt lat="48.188477" lon="10.926782">
<ele>562.844</ele>
<time>2022-05-25T13:04:36Z</time>
</trkpt>
<trkpt lat="48.188431" lon="10.926777">
<ele>562.844</ele>
<time>2022-05-25T13:04:37Z</time>
</trkpt>
<trkpt lat="48.188385" lon="10.92677">
<ele>562.844</ele>
<time>2022-05-25T13:04:38Z</time>
</trkpt>
<trkpt lat="48.188339" lon="10.92676">
<ele>562.844</ele>
<time>2022-05-25T13:04:39Z</time>
</trkpt>
<trkpt lat="48.188297" lon="10.926748">
<ele>562.844</ele>
<time>2022-05-25T13:04:40Z</time>
</trkpt>
<trkpt lat="48.188248" lon="10.926735">
<ele>562.844</ele>
<time>2022-05-25T13:04:41Z</time>
</trkpt>
<trkpt lat="48.188202" lon="10.926715">
<ele>562.844</ele>
<time>2022-05-25T13:04:42Z</time>
</trkpt>
<trkpt lat="48.188152" lon="10.92669">
<ele>562.844</ele>
<time>2022-05-25T13:04:43Z</time>
</trkpt>
<trkpt lat="48.188107" lon="10.926661">
<ele>562.844</ele>
<time>2022-05-25T13:04:44Z</time>
</trkpt>
<trkpt lat="48.188061" lon="10.926632">
<ele>562.844</ele>
<time>2022-05-25T13:04:45Z</time>
</trkpt>
<trkpt lat="48.188015" lon="10.926603">
<ele>562.844</ele>
<time>2022-05-25T13:04:46Z</time>
</trkpt>
<trkpt lat="48.187977" lon="10.926579">
<ele>562.844</ele>
<time>2022-05-25T13:04:47Z</time>
</trkpt>
<trkpt lat="48.187935" lon="10.926545">
<ele>562.844</ele>
<time>2022-05-25T13:04:48Z</time>
</trkpt>
<trkpt lat="48.187893" lon="10.926515">
<ele>562.844</ele>
<time>2022-05-25T13:04:49Z</time>
</trkpt>
<trkpt lat="48.187843" lon="10.926481">
<ele>562.845</ele>
<time>2022-05-25T13:04:50Z</time>
</trkpt>
<trkpt lat="48.18779" lon="10.926443">
<ele>562.844</ele>
<time>2022-05-25T13:04:51Z</time>
</trkpt>
<trkpt lat="48.18774" lon="10.926403">
<ele>562.844</ele>
<time>2022-05-25T13:04:52Z</time>
</trkpt>
<trkpt lat="48.187691" lon="10.926362">
<ele>562.844</ele>
<time>2022-05-25T13:04:53Z</time>
</trkpt>
<trkpt lat="48.187641" lon="10.92632">
<ele>562.844</ele>
<time>2022-05-25T13:04:54Z</time>
</trkpt>
<trkpt lat="48.187592" lon="10.926278">
<ele>562.844</ele>
<time>2022-05-25T13:04:55Z</time>
</trkpt>
<trkpt lat="48.187546" lon="10.926235">
<ele>562.844</ele>
<time>2022-05-25T13:04:56Z</time>
</trkpt>
<trkpt lat="48.1875" lon="10.926189">
<ele>562.844</ele>
<time>2022-05-25T13:04:57Z</time>
</trkpt>
<trkpt lat="48.187454" lon="10.92615">
<ele>562.844</ele>
<time>2022-05-25T13:04:58Z</time>
</trkpt>
<trkpt lat="48.187408" lon="10.926105">
<ele>562.844</ele>
<time>2022-05-25T13:04:59Z</time>
</trkpt>
<trkpt lat="48.187366" lon="10.926051">
<ele>562.844</ele>
<time>2022-05-25T13:05:00Z</time>
</trkpt>
<trkpt lat="48.187325" lon="10.926">
<ele>562.844</ele>
<time>2022-05-25T13:05:01Z</time>
</trkpt>
<trkpt lat="48.187283" lon="10.925951">
<ele>562.844</ele>
<time>2022-05-25T13:05:02Z</time>
</trkpt>
<trkpt lat="48.187241" lon="10.925901">
<ele>562.844</ele>
<time>2022-05-25T13:05:03Z</time>
</trkpt>
<trkpt lat="48.187199" lon="10.925855">
<ele>562.844</ele>
<time>2022-05-25T13:05:04Z</time>
</trkpt>
<trkpt lat="48.187157" lon="10.925808">
<ele>562.844</ele>
<time>2022-05-25T13:05:05Z</time>
</trkpt>
<trkpt lat="48.187111" lon="10.925767">
<ele>562.844</ele>
<time>2022-05-25T13:05:06Z</time>
</trkpt>
<trkpt lat="48.187065" lon="10.925729">
<ele>562.844</ele>
<time>2022-05-25T13:05:07Z</time>
</trkpt>
<trkpt lat="48.187023" lon="10.925692">
<ele>562.844</ele>
<time>2022-05-25T13:05:08Z</time>
</trkpt>
<trkpt lat="48.186977" lon="10.925653">
<ele>562.845</ele>
<time>2022-05-25T13:05:09Z</time>
</trkpt>
<trkpt lat="48.186932" lon="10.925615">
<ele>562.844</ele>
<time>2022-05-25T13:05:10Z</time>
</trkpt>
<trkpt lat="48.18689" lon="10.925578">
<ele>562.845</ele>
<time>2022-05-25T13:05:11Z</time>
</trkpt>
<trkpt lat="48.186844" lon="10.925538">
<ele>562.844</ele>
<time>2022-05-25T13:05:12Z</time>
</trkpt>
<trkpt lat="48.186802" lon="10.9255">
<ele>563.083</ele>
<time>2022-05-25T13:05:13Z</time>
</trkpt>
<trkpt lat="48.186756" lon="10.92546">
<ele>563.274</ele>
<time>2022-05-25T13:05:14Z</time>
</trkpt>
<trkpt lat="48.18671" lon="10.925419">
<ele>563.406</ele>
<time>2022-05-25T13:05:15Z</time>
</trkpt>
<trkpt lat="48.186668" lon="10.925377">
<ele>563.546</ele>
<time>2022-05-25T13:05:16Z</time>
</trkpt>
<trkpt lat="48.186623" lon="10.925333">
<ele>563.652</ele>
<time>2022-05-25T13:05:17Z</time>
</trkpt>
<trkpt lat="48.186577" lon="10.925295">
<ele>563.732</ele>
<time>2022-05-25T13:05:18Z</time>
</trkpt>
<trkpt lat="48.186531" lon="10.925257">
<ele>563.78</ele>
<time>2022-05-25T13:05:19Z</time>
</trkpt>
<trkpt lat="48.186485" lon="10.925218">
<ele>563.804</ele>
<time>2022-05-25T13:05:20Z</time>
</trkpt>
<trkpt lat="48.186443" lon="10.925179">
<ele>563.804</ele>
<time>2022-05-25T13:05:21Z</time>
</trkpt>
<trkpt lat="48.186398" lon="10.925142">
<ele>563.804</ele>
<time>2022-05-25T13:05:22Z</time>
</trkpt>
<trkpt lat="48.186348" lon="10.925111">
<ele>563.804</ele>
<time>2022-05-25T13:05:23Z</time>
</trkpt>
<trkpt lat="48.186306" lon="10.925076">
<ele>563.804</ele>
<time>2022-05-25T13:05:24Z</time>
</trkpt>
<trkpt lat="48.186253" lon="10.92504">
<ele>563.804</ele>
<time>2022-05-25T13:05:25Z</time>
</trkpt>
<trkpt lat="48.186207" lon="10.925005">
<ele>563.804</ele>
<time>2022-05-25T13:05:26Z</time>
</trkpt>
<trkpt lat="48.186153" lon="10.924973">
<ele>563.804</ele>
<time>2022-05-25T13:05:27Z</time>
</trkpt>
<trkpt lat="48.186104" lon="10.924945">
<ele>563.804</ele>
<time>2022-05-25T13:05:28Z</time>
</trkpt>
<trkpt lat="48.18605" lon="10.924918">
<ele>563.804</ele>
<time>2022-05-25T13:05:29Z</time>
</trkpt>
<trkpt lat="48.186005" lon="10.924893">
<ele>563.804</ele>
<time>2022-05-25T13:05:30Z</time>
</trkpt>
<trkpt lat="48.185955" lon="10.924871">
<ele>563.804</ele>
<time>2022-05-25T13:05:31Z</time>
</trkpt>
<trkpt lat="48.185909" lon="10.92485">
<ele>563.804</ele>
<time>2022-05-25T13:05:32Z</time>
</trkpt>
<trkpt lat="48.185871" lon="10.92483">
<ele>563.804</ele>
<time>2022-05-25T13:05:33Z</time>
</trkpt>
<trkpt lat="48.185833" lon="10.924809">
<ele>563.804</ele>
<time>2022-05-25T13:05:34Z</time>
</trkpt>
<trkpt lat="48.185799" lon="10.924795">
<ele>564.061</ele>
<time>2022-05-25T13:05:35Z</time>
</trkpt>
<trkpt lat="48.18576" lon="10.924782">
<ele>564.303</ele>
<time>2022-05-25T13:05:36Z</time>
</trkpt>
<trkpt lat="48.185726" lon="10.924768">
<ele>564.508</ele>
<time>2022-05-25T13:05:37Z</time>
</trkpt>
<trkpt lat="48.185677" lon="10.924755">
<ele>564.681</ele>
<time>2022-05-25T13:05:38Z</time>
</trkpt>
<trkpt lat="48.185631" lon="10.924738">
<ele>564.823</ele>
<time>2022-05-25T13:05:39Z</time>
</trkpt>
<trkpt lat="48.185589" lon="10.92472">
<ele>564.928</ele>
<time>2022-05-25T13:05:40Z</time>
</trkpt>
<trkpt lat="48.185547" lon="10.9247">
<ele>564.997</ele>
<time>2022-05-25T13:05:41Z</time>
</trkpt>
<trkpt lat="48.185501" lon="10.924679">
<ele>565.026</ele>
<time>2022-05-25T13:05:42Z</time>
</trkpt>
<trkpt lat="48.185459" lon="10.924657">
<ele>565.026</ele>
<time>2022-05-25T13:05:43Z</time>
</trkpt>
<trkpt lat="48.18541" lon="10.924635">
<ele>565.026</ele>
<time>2022-05-25T13:05:44Z</time>
</trkpt>
<trkpt lat="48.185368" lon="10.924614">
<ele>565.026</ele>
<time>2022-05-25T13:05:45Z</time>
</trkpt>
<trkpt lat="48.185333" lon="10.924585">
<ele>565.026</ele>
<time>2022-05-25T13:05:46Z</time>
</trkpt>
<trkpt lat="48.185295" lon="10.924562">
<ele>565.026</ele>
<time>2022-05-25T13:05:47Z</time>
</trkpt>
<trkpt lat="48.185265" lon="10.924545">
<ele>565.026</ele>
<time>2022-05-25T13:05:48Z</time>
</trkpt>
<trkpt lat="48.185234" lon="10.92453">
<ele>565.026</ele>
<time>2022-05-25T13:05:49Z</time>
</trkpt>
<trkpt lat="48.1852" lon="10.92452">
<ele>565.026</ele>
<time>2022-05-25T13:05:50Z</time>
</trkpt>
<trkpt lat="48.185162" lon="10.924505">
<ele>565.026</ele>
<time>2022-05-25T13:05:51Z</time>
</trkpt>
<trkpt lat="48.185123" lon="10.924493">
<ele>565.026</ele>
<time>2022-05-25T13:05:52Z</time>
</trkpt>
<trkpt lat="48.185078" lon="10.924477">
<ele>565.026</ele>
<time>2022-05-25T13:05:53Z</time>
</trkpt>
<trkpt lat="48.185032" lon="10.924457">
<ele>565.026</ele>
<time>2022-05-25T13:05:54Z</time>
</trkpt>
<trkpt lat="48.184986" lon="10.92444">
<ele>565.026</ele>
<time>2022-05-25T13:05:55Z</time>
</trkpt>
<trkpt lat="48.184944" lon="10.924425">
<ele>565.026</ele>
<time>2022-05-25T13:05:56Z</time>
</trkpt>
<trkpt lat="48.184898" lon="10.924417">
<ele>565.026</ele>
<time>2022-05-25T13:05:57Z</time>
</trkpt>
<trkpt lat="48.184853" lon="10.924398">
<ele>565.026</ele>
<time>2022-05-25T13:05:58Z</time>
</trkpt>
<trkpt lat="48.184807" lon="10.924381">
<ele>565.305</ele>
<time>2022-05-25T13:05:59Z</time>
</trkpt>
<trkpt lat="48.184761" lon="10.92436">
<ele>565.514</ele>
<time>2022-05-25T13:06:00Z</time>
</trkpt>
<trkpt lat="48.184704" lon="10.924338">
<ele>565.669</ele>
<time>2022-05-25T13:06:01Z</time>
</trkpt>
<trkpt lat="48.18465" lon="10.92432">
<ele>565.786</ele>
<time>2022-05-25T13:06:02Z</time>
</trkpt>
<trkpt lat="48.184605" lon="10.924302">
<ele>565.871</ele>
<time>2022-05-25T13:06:03Z</time>
</trkpt>
<trkpt lat="48.184555" lon="10.924276">
<ele>565.922</ele>
<time>2022-05-25T13:06:04Z</time>
</trkpt>
<trkpt lat="48.184505" lon="10.924255">
<ele>565.96</ele>
<time>2022-05-25T13:06:05Z</time>
</trkpt>
<trkpt lat="48.184456" lon="10.924231">
<ele>565.986</ele>
<time>2022-05-25T13:06:06Z</time>
</trkpt>
<trkpt lat="48.184414" lon="10.924204">
<ele>565.986</ele>
<time>2022-05-25T13:06:07Z</time>
</trkpt>
<trkpt lat="48.184364" lon="10.924169">
<ele>565.986</ele>
<time>2022-05-25T13:06:08Z</time>
</trkpt>
<trkpt lat="48.184322" lon="10.92413">
<ele>565.986</ele>
<time>2022-05-25T13:06:09Z</time>
</trkpt>
<trkpt lat="48.184284" lon="10.924093">
<ele>565.986</ele>
<time>2022-05-25T13:06:10Z</time>
</trkpt>
<trkpt lat="48.184235" lon="10.924059">
<ele>565.986</ele>
<time>2022-05-25T13:06:11Z</time>
</trkpt>
<trkpt lat="48.184193" lon="10.924024">
<ele>565.986</ele>
<time>2022-05-25T13:06:12Z</time>
</trkpt>
<trkpt lat="48.184147" lon="10.923975">
<ele>565.986</ele>
<time>2022-05-25T13:06:13Z</time>
</trkpt>
<trkpt lat="48.184097" lon="10.923921">
<ele>565.986</ele>
<time>2022-05-25T13:06:14Z</time>
</trkpt>
<trkpt lat="48.184052" lon="10.923863">
<ele>565.986</ele>
<time>2022-05-25T13:06:15Z</time>
</trkpt>
<trkpt lat="48.184006" lon="10.923807">
<ele>565.986</ele>
<time>2022-05-25T13:06:16Z</time>
</trkpt>
<trkpt lat="48.183964" lon="10.923759">
<ele>565.986</ele>
<time>2022-05-25T13:06:17Z</time>
</trkpt>
<trkpt lat="48.183922" lon="10.923716">
<ele>565.986</ele>
<time>2022-05-25T13:06:18Z</time>
</trkpt>
<trkpt lat="48.183872" lon="10.923676">
<ele>565.986</ele>
<time>2022-05-25T13:06:19Z</time>
</trkpt>
<trkpt lat="48.18383" lon="10.923632">
<ele>565.986</ele>
<time>2022-05-25T13:06:20Z</time>
</trkpt>
<trkpt lat="48.183784" lon="10.923585">
<ele>565.986</ele>
<time>2022-05-25T13:06:21Z</time>
</trkpt>
<trkpt lat="48.183739" lon="10.923533">
<ele>565.765</ele>
<time>2022-05-25T13:06:22Z</time>
</trkpt>
<trkpt lat="48.183693" lon="10.923478">
<ele>565.587</ele>
<time>2022-05-25T13:06:23Z</time>
</trkpt>
<trkpt lat="48.183643" lon="10.923424">
<ele>565.447</ele>
<time>2022-05-25T13:06:24Z</time>
</trkpt>
<trkpt lat="48.183601" lon="10.923368">
<ele>565.352</ele>
<time>2022-05-25T13:06:25Z</time>
</trkpt>
<trkpt lat="48.183559" lon="10.923313">
<ele>565.251</ele>
<time>2022-05-25T13:06:26Z</time>
</trkpt>
<trkpt lat="48.183521" lon="10.923262">
<ele>565.18</ele>
<time>2022-05-25T13:06:27Z</time>
</trkpt>
<trkpt lat="48.183475" lon="10.923215">
<ele>565.134</ele>
<time>2022-05-25T13:06:28Z</time>
</trkpt>
<trkpt lat="48.183441" lon="10.923168">
<ele>565.113</ele>
<time>2022-05-25T13:06:29Z</time>
</trkpt>
<trkpt lat="48.183403" lon="10.923123">
<ele>565.113</ele>
<time>2022-05-25T13:06:30Z</time>
</trkpt>
<trkpt lat="48.183369" lon="10.923081">
<ele>565.113</ele>
<time>2022-05-25T13:06:31Z</time>
</trkpt>
<trkpt lat="48.183331" lon="10.923037">
<ele>565.113</ele>
<time>2022-05-25T13:06:32Z</time>
</trkpt>
<trkpt lat="48.183292" lon="10.922992">
<ele>565.113</ele>
<time>2022-05-25T13:06:33Z</time>
</trkpt>
<trkpt lat="48.183254" lon="10.922953">
<ele>565.113</ele>
<time>2022-05-25T13:06:34Z</time>
</trkpt>
<trkpt lat="48.18322" lon="10.922914">
<ele>565.113</ele>
<time>2022-05-25T13:06:35Z</time>
</trkpt>
<trkpt lat="48.183186" lon="10.922873">
<ele>565.113</ele>
<time>2022-05-25T13:06:36Z</time>
</trkpt>
<trkpt lat="48.183151" lon="10.92284">
<ele>565.113</ele>
<time>2022-05-25T13:06:37Z</time>
</trkpt>
<trkpt lat="48.183117" lon="10.922811">
<ele>565.113</ele>
<time>2022-05-25T13:06:38Z</time>
</trkpt>
<trkpt lat="48.183086" lon="10.922771">
<ele>565.113</ele>
<time>2022-05-25T13:06:39Z</time>
</trkpt>
<trkpt lat="48.183052" lon="10.922729">
<ele>565.113</ele>
<time>2022-05-25T13:06:40Z</time>
</trkpt>
<trkpt lat="48.183014" lon="10.922687">
<ele>565.113</ele>
<time>2022-05-25T13:06:41Z</time>
</trkpt>
<trkpt lat="48.18298" lon="10.922643">
<ele>565.113</ele>
<time>2022-05-25T13:06:42Z</time>
</trkpt>
<trkpt lat="48.182941" lon="10.922604">
<ele>565.113</ele>
<time>2022-05-25T13:06:43Z</time>
</trkpt>
<trkpt lat="48.182903" lon="10.922562">
<ele>565.113</ele>
<time>2022-05-25T13:06:44Z</time>
</trkpt>
<trkpt lat="48.182865" lon="10.922517">
<ele>565.113</ele>
<time>2022-05-25T13:06:45Z</time>
</trkpt>
<trkpt lat="48.182838" lon="10.922468">
<ele>565.113</ele>
<time>2022-05-25T13:06:46Z</time>
</trkpt>
<trkpt lat="48.182812" lon="10.922427">
<ele>565.113</ele>
<time>2022-05-25T13:06:47Z</time>
</trkpt>
<trkpt lat="48.182789" lon="10.922396">
<ele>565.113</ele>
<time>2022-05-25T13:06:48Z</time>
</trkpt>
<trkpt lat="48.182758" lon="10.922366">
<ele>565.113</ele>
<time>2022-05-25T13:06:49Z</time>
</trkpt>
<trkpt lat="48.182724" lon="10.922343">
<ele>565.113</ele>
<time>2022-05-25T13:06:50Z</time>
</trkpt>
<trkpt lat="48.18269" lon="10.922316">
<ele>565.113</ele>
<time>2022-05-25T13:06:51Z</time>
</trkpt>
<trkpt lat="48.182659" lon="10.922278">
<ele>565.113</ele>
<time>2022-05-25T13:06:52Z</time>
</trkpt>
<trkpt lat="48.182625" lon="10.922242">
<ele>565.113</ele>
<time>2022-05-25T13:06:53Z</time>
</trkpt>
<trkpt lat="48.182587" lon="10.922214">
<ele>565.113</ele>
<time>2022-05-25T13:06:54Z</time>
</trkpt>
<trkpt lat="48.182552" lon="10.922185">
<ele>565.113</ele>
<time>2022-05-25T13:06:55Z</time>
</trkpt>
<trkpt lat="48.18251" lon="10.922153">
<ele>565.113</ele>
<time>2022-05-25T13:06:56Z</time>
</trkpt>
<trkpt lat="48.182476" lon="10.922109">
<ele>565.113</ele>
<time>2022-05-25T13:06:57Z</time>
</trkpt>
<trkpt lat="48.182434" lon="10.922067">
<ele>565.113</ele>
<time>2022-05-25T13:06:58Z</time>
</trkpt>
<trkpt lat="48.182388" lon="10.92203">
<ele>565.113</ele>
<time>2022-05-25T13:06:59Z</time>
</trkpt>
<trkpt lat="48.182343" lon="10.921988">
<ele>565.113</ele>
<time>2022-05-25T13:07:00Z</time>
</trkpt>
<trkpt lat="48.182304" lon="10.921965">
<ele>565.113</ele>
<time>2022-05-25T13:07:01Z</time>
</trkpt>
<trkpt lat="48.182266" lon="10.921924">
<ele>565.113</ele>
<time>2022-05-25T13:07:02Z</time>
</trkpt>
<trkpt lat="48.18222" lon="10.921885">
<ele>565.113</ele>
<time>2022-05-25T13:07:03Z</time>
</trkpt>
<trkpt lat="48.182178" lon="10.92184">
<ele>565.113</ele>
<time>2022-05-25T13:07:04Z</time>
</trkpt>
<trkpt lat="48.182137" lon="10.921804">
<ele>565.113</ele>
<time>2022-05-25T13:07:05Z</time>
</trkpt>
<trkpt lat="48.182095" lon="10.921771">
<ele>565.113</ele>
<time>2022-05-25T13:07:06Z</time>
</trkpt>
<trkpt lat="48.182053" lon="10.921727">
<ele>565.113</ele>
<time>2022-05-25T13:07:07Z</time>
</trkpt>
<trkpt lat="48.182011" lon="10.92169">
<ele>565.113</ele>
<time>2022-05-25T13:07:08Z</time>
</trkpt>
<trkpt lat="48.181976" lon="10.921647">
<ele>565.113</ele>
<time>2022-05-25T13:07:09Z</time>
</trkpt>
<trkpt lat="48.181946" lon="10.921601">
<ele>565.113</ele>
<time>2022-05-25T13:07:10Z</time>
</trkpt>
<trkpt lat="48.181911" lon="10.921563">
<ele>565.113</ele>
<time>2022-05-25T13:07:11Z</time>
</trkpt>
<trkpt lat="48.181877" lon="10.921538">
<ele>565.113</ele>
<time>2022-05-25T13:07:12Z</time>
</trkpt>
<trkpt lat="48.181847" lon="10.921512">
<ele>565.113</ele>
<time>2022-05-25T13:07:13Z</time>
</trkpt>
<trkpt lat="48.181812" lon="10.921489">
<ele>565.314</ele>
<time>2022-05-25T13:07:14Z</time>
</trkpt>
<trkpt lat="48.181755" lon="10.92144">
<ele>565.463</ele>
<time>2022-05-25T13:07:15Z</time>
</trkpt>
<trkpt lat="48.181702" lon="10.921393">
<ele>565.629</ele>
<time>2022-05-25T13:07:16Z</time>
</trkpt>
<trkpt lat="48.181652" lon="10.921367">
<ele>565.76</ele>
<time>2022-05-25T13:07:17Z</time>
</trkpt>
<trkpt lat="48.181602" lon="10.921331">
<ele>565.86</ele>
<time>2022-05-25T13:07:18Z</time>
</trkpt>
<trkpt lat="48.181553" lon="10.921288">
<ele>565.93</ele>
<time>2022-05-25T13:07:19Z</time>
</trkpt>
<trkpt lat="48.181496" lon="10.92124">
<ele>565.967</ele>
<time>2022-05-25T13:07:20Z</time>
</trkpt>
<trkpt lat="48.181458" lon="10.921207">
<ele>566.231</ele>
<time>2022-05-25T13:07:21Z</time>
</trkpt>
<trkpt lat="48.181423" lon="10.921177">
<ele>566.44</ele>
<time>2022-05-25T13:07:22Z</time>
</trkpt>
<trkpt lat="48.181393" lon="10.92115">
<ele>566.576</ele>
<time>2022-05-25T13:07:23Z</time>
</trkpt>
<trkpt lat="48.181358" lon="10.921122">
<ele>566.69</ele>
<time>2022-05-25T13:07:24Z</time>
</trkpt>
<trkpt lat="48.181313" lon="10.921102">
<ele>566.781</ele>
<time>2022-05-25T13:07:25Z</time>
</trkpt>
<trkpt lat="48.181267" lon="10.92108">
<ele>566.859</ele>
<time>2022-05-25T13:07:26Z</time>
</trkpt>
<trkpt lat="48.181225" lon="10.921052">
<ele>566.915</ele>
<time>2022-05-25T13:07:27Z</time>
</trkpt>
<trkpt lat="48.181187" lon="10.921015">
<ele>566.946</ele>
<time>2022-05-25T13:07:28Z</time>
</trkpt>
<trkpt lat="48.181156" lon="10.92097">
<ele>566.946</ele>
<time>2022-05-25T13:07:29Z</time>
</trkpt>
<trkpt lat="48.181129" lon="10.920935">
<ele>566.946</ele>
<time>2022-05-25T13:07:30Z</time>
</trkpt>
<trkpt lat="48.181107" lon="10.920903">
<ele>566.946</ele>
<time>2022-05-25T13:07:31Z</time>
</trkpt>
<trkpt lat="48.181076" lon="10.92087">
<ele>566.946</ele>
<time>2022-05-25T13:07:32Z</time>
</trkpt>
<trkpt lat="48.181038" lon="10.920816">
<ele>566.946</ele>
<time>2022-05-25T13:07:33Z</time>
</trkpt>
<trkpt lat="48.181" lon="10.920755">
<ele>566.712</ele>
<time>2022-05-25T13:07:34Z</time>
</trkpt>
<trkpt lat="48.180965" lon="10.920693">
<ele>566.545</ele>
<time>2022-05-25T13:07:35Z</time>
</trkpt>
<trkpt lat="48.180927" lon="10.920635">
<ele>566.358</ele>
<time>2022-05-25T13:07:36Z</time>
</trkpt>
<trkpt lat="48.180893" lon="10.920573">
<ele>566.21</ele>
<time>2022-05-25T13:07:37Z</time>
</trkpt>
<trkpt lat="48.180866" lon="10.920506">
<ele>566.1</ele>
<time>2022-05-25T13:07:38Z</time>
</trkpt>
<trkpt lat="48.180824" lon="10.920444">
<ele>566.038</ele>
<time>2022-05-25T13:07:39Z</time>
</trkpt>
<trkpt lat="48.18079" lon="10.920365">
<ele>566.003</ele>
<time>2022-05-25T13:07:40Z</time>
</trkpt>
<trkpt lat="48.180752" lon="10.920294">
<ele>565.986</ele>
<time>2022-05-25T13:07:41Z</time>
</trkpt>
<trkpt lat="48.180714" lon="10.92023">
<ele>565.986</ele>
<time>2022-05-25T13:07:42Z</time>
</trkpt>
<trkpt lat="48.180668" lon="10.920162">
<ele>565.986</ele>
<time>2022-05-25T13:07:43Z</time>
</trkpt>
<trkpt lat="48.18063" lon="10.920108">
<ele>565.986</ele>
<time>2022-05-25T13:07:44Z</time>
</trkpt>
<trkpt lat="48.180592" lon="10.92005">
<ele>565.986</ele>
<time>2022-05-25T13:07:45Z</time>
</trkpt>
<trkpt lat="48.180557" lon="10.92">
<ele>565.986</ele>
<time>2022-05-25T13:07:46Z</time>
</trkpt>
<trkpt lat="48.180527" lon="10.919944">
<ele>565.986</ele>
<time>2022-05-25T13:07:47Z</time>
</trkpt>
<trkpt lat="48.180496" lon="10.919888">
<ele>565.986</ele>
<time>2022-05-25T13:07:48Z</time>
</trkpt>
<trkpt lat="48.180458" lon="10.919822">
<ele>565.749</ele>
<time>2022-05-25T13:07:49Z</time>
</trkpt>
<trkpt lat="48.180431" lon="10.919766">
<ele>565.561</ele>
<time>2022-05-25T13:07:50Z</time>
</trkpt>
<trkpt lat="48.180397" lon="10.91971">
<ele>565.415</ele>
<time>2022-05-25T13:07:51Z</time>
</trkpt>
<trkpt lat="48.180347" lon="10.919632">
<ele>565.295</ele>
<time>2022-05-25T13:07:52Z</time>
</trkpt>
<trkpt lat="48.180313" lon="10.919565">
<ele>565.22</ele>
<time>2022-05-25T13:07:53Z</time>
</trkpt>
<trkpt lat="48.180279" lon="10.919508">
<ele>565.17</ele>
<time>2022-05-25T13:07:54Z</time>
</trkpt>
<trkpt lat="48.180252" lon="10.919462">
<ele>565.136</ele>
<time>2022-05-25T13:07:55Z</time>
</trkpt>
<trkpt lat="48.180233" lon="10.919422">
<ele>565.113</ele>
<time>2022-05-25T13:07:56Z</time>
</trkpt>
<trkpt lat="48.180218" lon="10.919387">
<ele>565.113</ele>
<time>2022-05-25T13:07:57Z</time>
</trkpt>
<trkpt lat="48.180199" lon="10.919352">
<ele>565.113</ele>
<time>2022-05-25T13:07:58Z</time>
</trkpt>
<trkpt lat="48.18018" lon="10.919313">
<ele>565.113</ele>
<time>2022-05-25T13:07:59Z</time>
</trkpt>
<trkpt lat="48.180157" lon="10.919278">
<ele>565.113</ele>
<time>2022-05-25T13:08:00Z</time>
</trkpt>
<trkpt lat="48.180126" lon="10.91923">
<ele>565.113</ele>
<time>2022-05-25T13:08:01Z</time>
</trkpt>
<trkpt lat="48.180084" lon="10.919168">
<ele>565.113</ele>
<time>2022-05-25T13:08:02Z</time>
</trkpt>
<trkpt lat="48.180058" lon="10.919121">
<ele>565.113</ele>
<time>2022-05-25T13:08:03Z</time>
</trkpt>
<trkpt lat="48.180023" lon="10.919065">
<ele>565.113</ele>
<time>2022-05-25T13:08:04Z</time>
</trkpt>
<trkpt lat="48.179996" lon="10.919017">
<ele>565.113</ele>
<time>2022-05-25T13:08:05Z</time>
</trkpt>
<trkpt lat="48.17997" lon="10.918966">
<ele>565.113</ele>
<time>2022-05-25T13:08:06Z</time>
</trkpt>
<trkpt lat="48.179962" lon="10.918925">
<ele>565.113</ele>
<time>2022-05-25T13:08:07Z</time>
</trkpt>
<trkpt lat="48.179951" lon="10.918883">
<ele>565.113</ele>
<time>2022-05-25T13:08:08Z</time>
</trkpt>
<trkpt lat="48.179924" lon="10.918845">
<ele>565.113</ele>
<time>2022-05-25T13:08:09Z</time>
</trkpt>
<trkpt lat="48.179905" lon="10.918795">
<ele>565.113</ele>
<time>2022-05-25T13:08:10Z</time>
</trkpt>
<trkpt lat="48.179886" lon="10.918756">
<ele>565.113</ele>
<time>2022-05-25T13:08:11Z</time>
</trkpt>
<trkpt lat="48.179859" lon="10.918718">
<ele>565.113</ele>
<time>2022-05-25T13:08:12Z</time>
</trkpt>
<trkpt lat="48.179832" lon="10.918683">
<ele>565.113</ele>
<time>2022-05-25T13:08:13Z</time>
</trkpt>
<trkpt lat="48.17981" lon="10.91865">
<ele>565.113</ele>
<time>2022-05-25T13:08:14Z</time>
</trkpt>
<trkpt lat="48.17979" lon="10.918616">
<ele>565.113</ele>
<time>2022-05-25T13:08:15Z</time>
</trkpt>
<trkpt lat="48.179756" lon="10.918582">
<ele>565.113</ele>
<time>2022-05-25T13:08:16Z</time>
</trkpt>
<trkpt lat="48.179718" lon="10.918545">
<ele>565.113</ele>
<time>2022-05-25T13:08:17Z</time>
</trkpt>
<trkpt lat="48.179695" lon="10.918518">
<ele>565.113</ele>
<time>2022-05-25T13:08:18Z</time>
</trkpt>
<trkpt lat="48.179676" lon="10.91849">
<ele>565.113</ele>
<time>2022-05-25T13:08:19Z</time>
</trkpt>
<trkpt lat="48.179661" lon="10.918459">
<ele>565.113</ele>
<time>2022-05-25T13:08:20Z</time>
</trkpt>
<trkpt lat="48.179638" lon="10.918424">
<ele>565.113</ele>
<time>2022-05-25T13:08:21Z</time>
</trkpt>
<trkpt lat="48.179619" lon="10.918388">
<ele>565.113</ele>
<time>2022-05-25T13:08:22Z</time>
</trkpt>
<trkpt lat="48.179585" lon="10.91836">
<ele>565.113</ele>
<time>2022-05-25T13:08:23Z</time>
</trkpt>
<trkpt lat="48.17955" lon="10.918314">
<ele>565.113</ele>
<time>2022-05-25T13:08:24Z</time>
</trkpt>
<trkpt lat="48.179508" lon="10.918277">
<ele>565.113</ele>
<time>2022-05-25T13:08:25Z</time>
</trkpt>
<trkpt lat="48.179474" lon="10.918243">
<ele>565.113</ele>
<time>2022-05-25T13:08:26Z</time>
</trkpt>
<trkpt lat="48.179382" lon="10.918191">
<ele>565.113</ele>
<time>2022-05-25T13:08:27Z</time>
</trkpt>
<trkpt lat="48.179325" lon="10.918147">
<ele>565.113</ele>
<time>2022-05-25T13:08:28Z</time>
</trkpt>
<trkpt lat="48.179287" lon="10.91811">
<ele>565.113</ele>
<time>2022-05-25T13:08:29Z</time>
</trkpt>
<trkpt lat="48.179218" lon="10.91807">
<ele>565.113</ele>
<time>2022-05-25T13:08:30Z</time>
</trkpt>
<trkpt lat="48.179161" lon="10.918036">
<ele>565.113</ele>
<time>2022-05-25T13:08:31Z</time>
</trkpt>
<trkpt lat="48.179119" lon="10.91801">
<ele>565.113</ele>
<time>2022-05-25T13:08:32Z</time>
</trkpt>
<trkpt lat="48.179077" lon="10.917979">
<ele>565.113</ele>
<time>2022-05-25T13:08:33Z</time>
</trkpt>
<trkpt lat="48.179028" lon="10.917947">
<ele>565.113</ele>
<time>2022-05-25T13:08:34Z</time>
</trkpt>
<trkpt lat="48.178982" lon="10.917937">
<ele>565.113</ele>
<time>2022-05-25T13:08:35Z</time>
</trkpt>
<trkpt lat="48.178936" lon="10.917927">
<ele>565.113</ele>
<time>2022-05-25T13:08:36Z</time>
</trkpt>
<trkpt lat="48.178898" lon="10.917906">
<ele>565.113</ele>
<time>2022-05-25T13:08:37Z</time>
</trkpt>
<trkpt lat="48.178848" lon="10.917818">
<ele>565.113</ele>
<time>2022-05-25T13:08:38Z</time>
</trkpt>
<trkpt lat="48.178814" lon="10.917785">
<ele>565.113</ele>
<time>2022-05-25T13:08:39Z</time>
</trkpt>
<trkpt lat="48.178783" lon="10.917766">
<ele>565.113</ele>
<time>2022-05-25T13:08:40Z</time>
</trkpt>
<trkpt lat="48.178749" lon="10.917742">
<ele>565.113</ele>
<time>2022-05-25T13:08:41Z</time>
</trkpt>
<trkpt lat="48.178719" lon="10.917728">
<ele>565.113</ele>
<time>2022-05-25T13:08:42Z</time>
</trkpt>
<trkpt lat="48.178692" lon="10.917713">
<ele>565.113</ele>
<time>2022-05-25T13:08:43Z</time>
</trkpt>
<trkpt lat="48.178665" lon="10.917684">
<ele>565.113</ele>
<time>2022-05-25T13:08:44Z</time>
</trkpt>
<trkpt lat="48.178635" lon="10.917659">
<ele>565.113</ele>
<time>2022-05-25T13:08:45Z</time>
</trkpt>
<trkpt lat="48.178604" lon="10.917653">
<ele>565.113</ele>
<time>2022-05-25T13:08:46Z</time>
</trkpt>
<trkpt lat="48.178581" lon="10.917665">
<ele>565.113</ele>
<time>2022-05-25T13:08:47Z</time>
</trkpt>
<trkpt lat="48.178555" lon="10.91767">
<ele>565.113</ele>
<time>2022-05-25T13:08:48Z</time>
</trkpt>
<trkpt lat="48.178528" lon="10.91767">
<ele>565.113</ele>
<time>2022-05-25T13:08:49Z</time>
</trkpt>
<trkpt lat="48.178505" lon="10.917668">
<ele>565.113</ele>
<time>2022-05-25T13:08:50Z</time>
</trkpt>
<trkpt lat="48.178486" lon="10.917666">
<ele>565.113</ele>
<time>2022-05-25T13:08:51Z</time>
</trkpt>
<trkpt lat="48.178463" lon="10.917663">
<ele>565.113</ele>
<time>2022-05-25T13:08:52Z</time>
</trkpt>
<trkpt lat="48.178455" lon="10.917659">
<ele>565.113</ele>
<time>2022-05-25T13:08:53Z</time>
</trkpt>
<trkpt lat="48.178444" lon="10.917648">
<ele>565.113</ele>
<time>2022-05-25T13:08:54Z</time>
</trkpt>
<trkpt lat="48.178444" lon="10.917645">
<ele>565.113</ele>
<time>2022-05-25T13:08:55Z</time>
</trkpt>
<trkpt lat="48.178425" lon="10.917648">
<ele>565.113</ele>
<time>2022-05-25T13:09:10Z</time>
</trkpt>
<trkpt lat="48.178417" lon="10.917659">
<ele>565.113</ele>
<time>2022-05-25T13:09:11Z</time>
</trkpt>
<trkpt lat="48.178406" lon="10.917668">
<ele>565.113</ele>
<time>2022-05-25T13:09:12Z</time>
</trkpt>
<trkpt lat="48.178391" lon="10.91768">
<ele>565.113</ele>
<time>2022-05-25T13:09:13Z</time>
</trkpt>
<trkpt lat="48.178383" lon="10.917686">
<ele>565.113</ele>
<time>2022-05-25T13:09:14Z</time>
</trkpt>
<trkpt lat="48.178375" lon="10.917694">
<ele>565.113</ele>
<time>2022-05-25T13:09:15Z</time>
</trkpt>
<trkpt lat="48.178368" lon="10.917694">
<ele>565.113</ele>
<time>2022-05-25T13:09:16Z</time>
</trkpt>
<trkpt lat="48.178364" lon="10.917696">
<ele>565.113</ele>
<time>2022-05-25T13:09:17Z</time>
</trkpt>
<trkpt lat="48.178356" lon="10.917695">
<ele>565.113</ele>
<time>2022-05-25T13:09:18Z</time>
</trkpt>
<trkpt lat="48.178295" lon="10.917698">
<ele>565.113</ele>
<time>2022-05-25T13:09:38Z</time>
</trkpt>
<trkpt lat="48.178291" lon="10.917695">
<ele>565.113</ele>
<time>2022-05-25T13:09:39Z</time>
</trkpt>
<trkpt lat="48.178291" lon="10.91769">
<ele>565.113</ele>
<time>2022-05-25T13:09:40Z</time>
</trkpt>
<trkpt lat="48.178284" lon="10.917692">
<ele>565.113</ele>
<time>2022-05-25T13:10:25Z</time>
</trkpt>
<trkpt lat="48.178276" lon="10.9177">
<ele>565.136</ele>
<time>2022-05-25T13:10:26Z</time>
</trkpt>
<trkpt lat="48.178268" lon="10.91771">
<ele>565.152</ele>
<time>2022-05-25T13:10:27Z</time>
</trkpt>
<trkpt lat="48.178261" lon="10.917727">
<ele>565.164</ele>
<time>2022-05-25T13:10:28Z</time>
</trkpt>
<trkpt lat="48.178246" lon="10.91774">
<ele>565.171</ele>
<time>2022-05-25T13:10:29Z</time>
</trkpt>
<trkpt lat="48.178226" lon="10.917755">
<ele>565.195</ele>
<time>2022-05-25T13:10:30Z</time>
</trkpt>
<trkpt lat="48.178207" lon="10.917775">
<ele>565.198</ele>
<time>2022-05-25T13:10:31Z</time>
</trkpt>
<trkpt lat="48.178185" lon="10.917797">
<ele>565.2</ele>
<time>2022-05-25T13:10:32Z</time>
</trkpt>
<trkpt lat="48.178162" lon="10.917822">
<ele>565.2</ele>
<time>2022-05-25T13:10:33Z</time>
</trkpt>
<trkpt lat="48.178131" lon="10.917836">
<ele>565.2</ele>
<time>2022-05-25T13:10:34Z</time>
</trkpt>
<trkpt lat="48.178104" lon="10.917858">
<ele>565.2</ele>
<time>2022-05-25T13:10:35Z</time>
</trkpt>
<trkpt lat="48.178078" lon="10.91788">
<ele>565.2</ele>
<time>2022-05-25T13:10:36Z</time>
</trkpt>
<trkpt lat="48.178047" lon="10.917906">
<ele>565.2</ele>
<time>2022-05-25T13:10:37Z</time>
</trkpt>
<trkpt lat="48.17802" lon="10.917939">
<ele>565.444</ele>
<time>2022-05-25T13:10:38Z</time>
</trkpt>
<trkpt lat="48.17799" lon="10.917969">
<ele>565.618</ele>
<time>2022-05-25T13:10:39Z</time>
</trkpt>
<trkpt lat="48.177959" lon="10.917998">
<ele>565.757</ele>
<time>2022-05-25T13:10:40Z</time>
</trkpt>
<trkpt lat="48.177929" lon="10.918032">
<ele>565.845</ele>
<time>2022-05-25T13:10:41Z</time>
</trkpt>
<trkpt lat="48.177902" lon="10.918065">
<ele>565.945</ele>
<time>2022-05-25T13:10:42Z</time>
</trkpt>
<trkpt lat="48.177872" lon="10.918097">
<ele>566.012</ele>
<time>2022-05-25T13:10:43Z</time>
</trkpt>
<trkpt lat="48.177845" lon="10.918126">
<ele>566.052</ele>
<time>2022-05-25T13:10:44Z</time>
</trkpt>
<trkpt lat="48.177822" lon="10.918157">
<ele>566.073</ele>
<time>2022-05-25T13:10:45Z</time>
</trkpt>
<trkpt lat="48.177792" lon="10.918188">
<ele>566.073</ele>
<time>2022-05-25T13:10:46Z</time>
</trkpt>
<trkpt lat="48.177757" lon="10.91822">
<ele>566.073</ele>
<time>2022-05-25T13:10:47Z</time>
</trkpt>
<trkpt lat="48.177731" lon="10.918252">
<ele>566.073</ele>
<time>2022-05-25T13:10:48Z</time>
</trkpt>
<trkpt lat="48.1777" lon="10.918283">
<ele>566.073</ele>
<time>2022-05-25T13:10:49Z</time>
</trkpt>
<trkpt lat="48.177673" lon="10.918314">
<ele>566.073</ele>
<time>2022-05-25T13:10:50Z</time>
</trkpt>
<trkpt lat="48.177639" lon="10.91834">
<ele>566.073</ele>
<time>2022-05-25T13:10:51Z</time>
</trkpt>
<trkpt lat="48.177612" lon="10.918342">
<ele>566.073</ele>
<time>2022-05-25T13:10:52Z</time>
</trkpt>
<trkpt lat="48.177589" lon="10.918324">
<ele>566.073</ele>
<time>2022-05-25T13:10:53Z</time>
</trkpt>
<trkpt lat="48.177574" lon="10.918303">
<ele>566.073</ele>
<time>2022-05-25T13:10:54Z</time>
</trkpt>
<trkpt lat="48.177547" lon="10.918289">
<ele>566.073</ele>
<time>2022-05-25T13:10:55Z</time>
</trkpt>
<trkpt lat="48.177517" lon="10.918293">
<ele>566.073</ele>
<time>2022-05-25T13:10:56Z</time>
</trkpt>
<trkpt lat="48.177486" lon="10.918312">
<ele>566.073</ele>
<time>2022-05-25T13:10:57Z</time>
</trkpt>
<trkpt lat="48.177456" lon="10.918342">
<ele>566.073</ele>
<time>2022-05-25T13:10:58Z</time>
</trkpt>
<trkpt lat="48.177425" lon="10.918371">
<ele>566.073</ele>
<time>2022-05-25T13:10:59Z</time>
</trkpt>
<trkpt lat="48.177399" lon="10.918398">
<ele>566.073</ele>
<time>2022-05-25T13:11:00Z</time>
</trkpt>
<trkpt lat="48.177372" lon="10.918427">
<ele>566.073</ele>
<time>2022-05-25T13:11:01Z</time>
</trkpt>
<trkpt lat="48.177338" lon="10.918452">
<ele>566.073</ele>
<time>2022-05-25T13:11:02Z</time>
</trkpt>
<trkpt lat="48.177303" lon="10.918469">
<ele>566.073</ele>
<time>2022-05-25T13:11:03Z</time>
</trkpt>
<trkpt lat="48.177265" lon="10.91849">
<ele>566.073</ele>
<time>2022-05-25T13:11:04Z</time>
</trkpt>
<trkpt lat="48.177231" lon="10.918518">
<ele>566.073</ele>
<time>2022-05-25T13:11:05Z</time>
</trkpt>
<trkpt lat="48.177193" lon="10.918549">
<ele>566.073</ele>
<time>2022-05-25T13:11:06Z</time>
</trkpt>
<trkpt lat="48.177166" lon="10.91858">
<ele>566.073</ele>
<time>2022-05-25T13:11:07Z</time>
</trkpt>
<trkpt lat="48.177135" lon="10.91861">
<ele>566.073</ele>
<time>2022-05-25T13:11:08Z</time>
</trkpt>
<trkpt lat="48.177105" lon="10.91864">
<ele>566.073</ele>
<time>2022-05-25T13:11:09Z</time>
</trkpt>
<trkpt lat="48.177074" lon="10.918672">
<ele>566.073</ele>
<time>2022-05-25T13:11:10Z</time>
</trkpt>
<trkpt lat="48.17704" lon="10.918705">
<ele>566.073</ele>
<time>2022-05-25T13:11:11Z</time>
</trkpt>
<trkpt lat="48.177006" lon="10.918741">
<ele>566.073</ele>
<time>2022-05-25T13:11:12Z</time>
</trkpt>
<trkpt lat="48.176971" lon="10.918783">
<ele>566.073</ele>
<time>2022-05-25T13:11:13Z</time>
</trkpt>
<trkpt lat="48.176937" lon="10.918821">
<ele>566.073</ele>
<time>2022-05-25T13:11:14Z</time>
</trkpt>
<trkpt lat="48.176903" lon="10.918853">
<ele>566.074</ele>
<time>2022-05-25T13:11:15Z</time>
</trkpt>
<trkpt lat="48.176868" lon="10.918884">
<ele>566.073</ele>
<time>2022-05-25T13:11:16Z</time>
</trkpt>
<trkpt lat="48.176834" lon="10.918917">
<ele>566.073</ele>
<time>2022-05-25T13:11:17Z</time>
</trkpt>
<trkpt lat="48.176792" lon="10.918951">
<ele>566.073</ele>
<time>2022-05-25T13:11:18Z</time>
</trkpt>
<trkpt lat="48.176762" lon="10.918986">
<ele>566.073</ele>
<time>2022-05-25T13:11:19Z</time>
</trkpt>
<trkpt lat="48.17672" lon="10.919024">
<ele>566.309</ele>
<time>2022-05-25T13:11:20Z</time>
</trkpt>
<trkpt lat="48.176682" lon="10.919062">
<ele>566.476</ele>
<time>2022-05-25T13:11:21Z</time>
</trkpt>
<trkpt lat="48.176636" lon="10.919095">
<ele>566.654</ele>
<time>2022-05-25T13:11:22Z</time>
</trkpt>
<trkpt lat="48.176598" lon="10.919129">
<ele>566.793</ele>
<time>2022-05-25T13:11:23Z</time>
</trkpt>
<trkpt lat="48.176556" lon="10.91916">
<ele>566.894</ele>
<time>2022-05-25T13:11:24Z</time>
</trkpt>
<trkpt lat="48.176521" lon="10.919193">
<ele>566.964</ele>
<time>2022-05-25T13:11:25Z</time>
</trkpt>
<trkpt lat="48.176487" lon="10.919226">
<ele>567.01</ele>
<time>2022-05-25T13:11:26Z</time>
</trkpt>
<trkpt lat="48.176449" lon="10.919259">
<ele>567.033</ele>
<time>2022-05-25T13:11:27Z</time>
</trkpt>
<trkpt lat="48.176414" lon="10.919291">
<ele>567.033</ele>
<time>2022-05-25T13:11:28Z</time>
</trkpt>
<trkpt lat="48.176373" lon="10.919325">
<ele>567.033</ele>
<time>2022-05-25T13:11:29Z</time>
</trkpt>
<trkpt lat="48.176338" lon="10.919358">
<ele>567.033</ele>
<time>2022-05-25T13:11:30Z</time>
</trkpt>
<trkpt lat="48.176304" lon="10.919392">
<ele>567.033</ele>
<time>2022-05-25T13:11:31Z</time>
</trkpt>
<trkpt lat="48.176266" lon="10.919427">
<ele>567.033</ele>
<time>2022-05-25T13:11:32Z</time>
</trkpt>
<trkpt lat="48.176231" lon="10.91946">
<ele>567.322</ele>
<time>2022-05-25T13:11:33Z</time>
</trkpt>
<trkpt lat="48.176193" lon="10.919496">
<ele>567.544</ele>
<time>2022-05-25T13:11:34Z</time>
</trkpt>
<trkpt lat="48.176159" lon="10.91953">
<ele>567.708</ele>
<time>2022-05-25T13:11:35Z</time>
</trkpt>
<trkpt lat="48.176128" lon="10.919565">
<ele>567.828</ele>
<time>2022-05-25T13:11:36Z</time>
</trkpt>
<trkpt lat="48.176094" lon="10.919599">
<ele>567.911</ele>
<time>2022-05-25T13:11:37Z</time>
</trkpt>
<trkpt lat="48.17606" lon="10.919635">
<ele>567.964</ele>
<time>2022-05-25T13:11:38Z</time>
</trkpt>
<trkpt lat="48.176025" lon="10.91967">
<ele>567.994</ele>
<time>2022-05-25T13:11:39Z</time>
</trkpt>
<trkpt lat="48.175991" lon="10.9197">
<ele>567.994</ele>
<time>2022-05-25T13:11:40Z</time>
</trkpt>
<trkpt lat="48.175957" lon="10.919728">
<ele>567.994</ele>
<time>2022-05-25T13:11:41Z</time>
</trkpt>
<trkpt lat="48.175922" lon="10.919758">
<ele>567.994</ele>
<time>2022-05-25T13:11:42Z</time>
</trkpt>
<trkpt lat="48.175888" lon="10.919789">
<ele>567.994</ele>
<time>2022-05-25T13:11:43Z</time>
</trkpt>
<trkpt lat="48.17585" lon="10.919822">
<ele>567.994</ele>
<time>2022-05-25T13:11:44Z</time>
</trkpt>
<trkpt lat="48.175808" lon="10.91985">
<ele>567.994</ele>
<time>2022-05-25T13:11:45Z</time>
</trkpt>
<trkpt lat="48.175751" lon="10.919884">
<ele>567.994</ele>
<time>2022-05-25T13:11:46Z</time>
</trkpt>
<trkpt lat="48.175701" lon="10.919922">
<ele>567.994</ele>
<time>2022-05-25T13:11:47Z</time>
</trkpt>
<trkpt lat="48.175644" lon="10.919959">
<ele>567.721</ele>
<time>2022-05-25T13:11:48Z</time>
</trkpt>
<trkpt lat="48.175587" lon="10.919993">
<ele>567.513</ele>
<time>2022-05-25T13:11:49Z</time>
</trkpt>
<trkpt lat="48.175526" lon="10.920034">
<ele>567.397</ele>
<time>2022-05-25T13:11:50Z</time>
</trkpt>
<trkpt lat="48.175476" lon="10.92008">
<ele>567.015</ele>
<time>2022-05-25T13:11:51Z</time>
</trkpt>
<trkpt lat="48.175423" lon="10.920122">
<ele>566.692</ele>
<time>2022-05-25T13:11:52Z</time>
</trkpt>
<trkpt lat="48.175373" lon="10.92016">
<ele>566.455</ele>
<time>2022-05-25T13:11:53Z</time>
</trkpt>
<trkpt lat="48.17532" lon="10.9202">
<ele>566.276</ele>
<time>2022-05-25T13:11:54Z</time>
</trkpt>
<trkpt lat="48.175262" lon="10.920238">
<ele>566.144</ele>
<time>2022-05-25T13:11:55Z</time>
</trkpt>
<trkpt lat="48.175205" lon="10.920277">
<ele>566.065</ele>
<time>2022-05-25T13:11:56Z</time>
</trkpt>
<trkpt lat="48.175137" lon="10.920308">
<ele>566.012</ele>
<time>2022-05-25T13:11:57Z</time>
</trkpt>
<trkpt lat="48.175079" lon="10.920339">
<ele>565.986</ele>
<time>2022-05-25T13:11:58Z</time>
</trkpt>
<trkpt lat="48.175026" lon="10.920367">
<ele>565.986</ele>
<time>2022-05-25T13:11:59Z</time>
</trkpt>
<trkpt lat="48.174969" lon="10.920395">
<ele>565.986</ele>
<time>2022-05-25T13:12:00Z</time>
</trkpt>
<trkpt lat="48.174911" lon="10.920424">
<ele>565.986</ele>
<time>2022-05-25T13:12:01Z</time>
</trkpt>
<trkpt lat="48.174862" lon="10.920445">
<ele>565.986</ele>
<time>2022-05-25T13:12:02Z</time>
</trkpt>
<trkpt lat="48.174812" lon="10.920468">
<ele>565.986</ele>
<time>2022-05-25T13:12:03Z</time>
</trkpt>
<trkpt lat="48.174767" lon="10.920491">
<ele>565.986</ele>
<time>2022-05-25T13:12:04Z</time>
</trkpt>
<trkpt lat="48.174717" lon="10.920515">
<ele>565.986</ele>
<time>2022-05-25T13:12:05Z</time>
</trkpt>
<trkpt lat="48.174675" lon="10.920542">
<ele>565.986</ele>
<time>2022-05-25T13:12:06Z</time>
</trkpt>
<trkpt lat="48.174637" lon="10.920573">
<ele>565.986</ele>
<time>2022-05-25T13:12:07Z</time>
</trkpt>
<trkpt lat="48.174599" lon="10.920602">
<ele>565.986</ele>
<time>2022-05-25T13:12:08Z</time>
</trkpt>
<trkpt lat="48.174561" lon="10.920635">
<ele>565.986</ele>
<time>2022-05-25T13:12:09Z</time>
</trkpt>
<trkpt lat="48.17453" lon="10.920673">
<ele>565.986</ele>
<time>2022-05-25T13:12:10Z</time>
</trkpt>
<trkpt lat="48.174503" lon="10.920707">
<ele>565.986</ele>
<time>2022-05-25T13:12:11Z</time>
</trkpt>
<trkpt lat="48.174473" lon="10.92074">
<ele>565.986</ele>
<time>2022-05-25T13:12:12Z</time>
</trkpt>
<trkpt lat="48.174438" lon="10.920775">
<ele>565.986</ele>
<time>2022-05-25T13:12:13Z</time>
</trkpt>
<trkpt lat="48.1744" lon="10.92081">
<ele>565.986</ele>
<time>2022-05-25T13:12:14Z</time>
</trkpt>
<trkpt lat="48.174362" lon="10.920845">
<ele>565.986</ele>
<time>2022-05-25T13:12:15Z</time>
</trkpt>
<trkpt lat="48.174324" lon="10.920881">
<ele>565.986</ele>
<time>2022-05-25T13:12:16Z</time>
</trkpt>
<trkpt lat="48.174286" lon="10.92092">
<ele>565.986</ele>
<time>2022-05-25T13:12:17Z</time>
</trkpt>
<trkpt lat="48.174244" lon="10.920952">
<ele>565.986</ele>
<time>2022-05-25T13:12:18Z</time>
</trkpt>
<trkpt lat="48.174206" lon="10.920985">
<ele>565.986</ele>
<time>2022-05-25T13:12:19Z</time>
</trkpt>
<trkpt lat="48.174152" lon="10.921027">
<ele>565.986</ele>
<time>2022-05-25T13:12:20Z</time>
</trkpt>
<trkpt lat="48.174118" lon="10.921063">
<ele>565.986</ele>
<time>2022-05-25T13:12:21Z</time>
</trkpt>
<trkpt lat="48.174088" lon="10.921107">
<ele>565.986</ele>
<time>2022-05-25T13:12:22Z</time>
</trkpt>
<trkpt lat="48.174057" lon="10.921162">
<ele>565.986</ele>
<time>2022-05-25T13:12:23Z</time>
</trkpt>
<trkpt lat="48.174023" lon="10.921228">
<ele>565.986</ele>
<time>2022-05-25T13:12:24Z</time>
</trkpt>
<trkpt lat="48.173996" lon="10.921288">
<ele>565.986</ele>
<time>2022-05-25T13:12:25Z</time>
</trkpt>
<trkpt lat="48.173973" lon="10.921351">
<ele>565.986</ele>
<time>2022-05-25T13:12:26Z</time>
</trkpt>
<trkpt lat="48.173943" lon="10.921413">
<ele>565.986</ele>
<time>2022-05-25T13:12:27Z</time>
</trkpt>
<trkpt lat="48.173916" lon="10.921467">
<ele>565.986</ele>
<time>2022-05-25T13:12:28Z</time>
</trkpt>
<trkpt lat="48.173893" lon="10.921514">
<ele>565.986</ele>
<time>2022-05-25T13:12:29Z</time>
</trkpt>
<trkpt lat="48.173866" lon="10.92156">
<ele>565.986</ele>
<time>2022-05-25T13:12:30Z</time>
</trkpt>
<trkpt lat="48.17384" lon="10.921605">
<ele>565.986</ele>
<time>2022-05-25T13:12:31Z</time>
</trkpt>
<trkpt lat="48.173817" lon="10.921656">
<ele>565.986</ele>
<time>2022-05-25T13:12:32Z</time>
</trkpt>
<trkpt lat="48.173794" lon="10.921704">
<ele>565.986</ele>
<time>2022-05-25T13:12:33Z</time>
</trkpt>
<trkpt lat="48.173779" lon="10.921757">
<ele>565.986</ele>
<time>2022-05-25T13:12:34Z</time>
</trkpt>
<trkpt lat="48.173759" lon="10.921804">
<ele>565.986</ele>
<time>2022-05-25T13:12:35Z</time>
</trkpt>
<trkpt lat="48.173737" lon="10.921842">
<ele>565.986</ele>
<time>2022-05-25T13:12:36Z</time>
</trkpt>
<trkpt lat="48.17371" lon="10.92188">
<ele>565.986</ele>
<time>2022-05-25T13:12:37Z</time>
</trkpt>
<trkpt lat="48.173687" lon="10.921926">
<ele>565.986</ele>
<time>2022-05-25T13:12:38Z</time>
</trkpt>
<trkpt lat="48.173653" lon="10.921975">
<ele>565.986</ele>
<time>2022-05-25T13:12:39Z</time>
</trkpt>
<trkpt lat="48.173626" lon="10.922022">
<ele>565.986</ele>
<time>2022-05-25T13:12:40Z</time>
</trkpt>
<trkpt lat="48.173599" lon="10.922073">
<ele>565.986</ele>
<time>2022-05-25T13:12:41Z</time>
</trkpt>
<trkpt lat="48.173565" lon="10.922127">
<ele>565.986</ele>
<time>2022-05-25T13:12:42Z</time>
</trkpt>
<trkpt lat="48.173527" lon="10.922182">
<ele>565.986</ele>
<time>2022-05-25T13:12:43Z</time>
</trkpt>
<trkpt lat="48.173496" lon="10.922235">
<ele>565.986</ele>
<time>2022-05-25T13:12:44Z</time>
</trkpt>
<trkpt lat="48.17347" lon="10.922283">
<ele>565.986</ele>
<time>2022-05-25T13:12:45Z</time>
</trkpt>
<trkpt lat="48.173439" lon="10.922318">
<ele>565.986</ele>
<time>2022-05-25T13:12:46Z</time>
</trkpt>
<trkpt lat="48.173409" lon="10.922363">
<ele>565.986</ele>
<time>2022-05-25T13:12:47Z</time>
</trkpt>
<trkpt lat="48.173378" lon="10.92241">
<ele>565.986</ele>
<time>2022-05-25T13:12:48Z</time>
</trkpt>
<trkpt lat="48.173351" lon="10.922462">
<ele>565.986</ele>
<time>2022-05-25T13:12:49Z</time>
</trkpt>
<trkpt lat="48.173332" lon="10.922499">
<ele>565.986</ele>
<time>2022-05-25T13:12:50Z</time>
</trkpt>
<trkpt lat="48.173306" lon="10.922542">
<ele>565.986</ele>
<time>2022-05-25T13:12:51Z</time>
</trkpt>
<trkpt lat="48.173283" lon="10.922564">
<ele>565.986</ele>
<time>2022-05-25T13:12:52Z</time>
</trkpt>
<trkpt lat="48.17326" lon="10.922588">
<ele>565.986</ele>
<time>2022-05-25T13:12:53Z</time>
</trkpt>
<trkpt lat="48.173237" lon="10.922622">
<ele>565.986</ele>
<time>2022-05-25T13:12:54Z</time>
</trkpt>
<trkpt lat="48.173218" lon="10.922666">
<ele>566.238</ele>
<time>2022-05-25T13:12:55Z</time>
</trkpt>
<trkpt lat="48.173206" lon="10.922713">
<ele>566.443</ele>
<time>2022-05-25T13:12:56Z</time>
</trkpt>
<trkpt lat="48.173199" lon="10.922751">
<ele>566.605</ele>
<time>2022-05-25T13:12:57Z</time>
</trkpt>
<trkpt lat="48.17318" lon="10.922802">
<ele>566.741</ele>
<time>2022-05-25T13:12:58Z</time>
</trkpt>
<trkpt lat="48.173168" lon="10.922844">
<ele>566.821</ele>
<time>2022-05-25T13:12:59Z</time>
</trkpt>
<trkpt lat="48.173145" lon="10.9229">
<ele>566.887</ele>
<time>2022-05-25T13:13:00Z</time>
</trkpt>
<trkpt lat="48.173126" lon="10.922958">
<ele>566.923</ele>
<time>2022-05-25T13:13:01Z</time>
</trkpt>
<trkpt lat="48.1731" lon="10.923022">
<ele>566.946</ele>
<time>2022-05-25T13:13:02Z</time>
</trkpt>
<trkpt lat="48.173077" lon="10.92309">
<ele>566.946</ele>
<time>2022-05-25T13:13:03Z</time>
</trkpt>
<trkpt lat="48.173061" lon="10.923154">
<ele>566.946</ele>
<time>2022-05-25T13:13:04Z</time>
</trkpt>
<trkpt lat="48.173042" lon="10.923215">
<ele>566.946</ele>
<time>2022-05-25T13:13:05Z</time>
</trkpt>
<trkpt lat="48.173027" lon="10.923285">
<ele>566.946</ele>
<time>2022-05-25T13:13:06Z</time>
</trkpt>
<trkpt lat="48.173008" lon="10.923353">
<ele>566.946</ele>
<time>2022-05-25T13:13:07Z</time>
</trkpt>
<trkpt lat="48.172989" lon="10.923404">
<ele>566.946</ele>
<time>2022-05-25T13:13:08Z</time>
</trkpt>
<trkpt lat="48.172962" lon="10.92345">
<ele>566.946</ele>
<time>2022-05-25T13:13:09Z</time>
</trkpt>
<trkpt lat="48.172935" lon="10.923493">
<ele>566.946</ele>
<time>2022-05-25T13:13:10Z</time>
</trkpt>
<trkpt lat="48.172913" lon="10.923535">
<ele>567.171</ele>
<time>2022-05-25T13:13:11Z</time>
</trkpt>
<trkpt lat="48.172886" lon="10.923569">
<ele>567.371</ele>
<time>2022-05-25T13:13:12Z</time>
</trkpt>
<trkpt lat="48.172863" lon="10.923603">
<ele>567.746</ele>
<time>2022-05-25T13:13:13Z</time>
</trkpt>
<trkpt lat="48.172836" lon="10.92364">
<ele>568.058</ele>
<time>2022-05-25T13:13:14Z</time>
</trkpt>
<trkpt lat="48.172813" lon="10.923676">
<ele>568.291</ele>
<time>2022-05-25T13:13:15Z</time>
</trkpt>
<trkpt lat="48.172794" lon="10.923717">
<ele>568.779</ele>
<time>2022-05-25T13:13:16Z</time>
</trkpt>
<trkpt lat="48.172768" lon="10.923755">
<ele>569.145</ele>
<time>2022-05-25T13:13:17Z</time>
</trkpt>
<trkpt lat="48.172749" lon="10.923803">
<ele>569.43</ele>
<time>2022-05-25T13:13:18Z</time>
</trkpt>
<trkpt lat="48.172726" lon="10.923848">
<ele>569.663</ele>
<time>2022-05-25T13:13:19Z</time>
</trkpt>
<trkpt lat="48.172699" lon="10.923885">
<ele>569.765</ele>
<time>2022-05-25T13:13:20Z</time>
</trkpt>
<trkpt lat="48.172668" lon="10.923925">
<ele>569.83</ele>
<time>2022-05-25T13:13:21Z</time>
</trkpt>
<trkpt lat="48.172638" lon="10.92397">
<ele>569.886</ele>
<time>2022-05-25T13:13:22Z</time>
</trkpt>
<trkpt lat="48.172604" lon="10.92401">
<ele>569.915</ele>
<time>2022-05-25T13:13:23Z</time>
</trkpt>
<trkpt lat="48.172569" lon="10.924048">
<ele>569.915</ele>
<time>2022-05-25T13:13:24Z</time>
</trkpt>
<trkpt lat="48.172531" lon="10.924088">
<ele>569.915</ele>
<time>2022-05-25T13:13:25Z</time>
</trkpt>
<trkpt lat="48.172493" lon="10.92413">
<ele>569.915</ele>
<time>2022-05-25T13:13:26Z</time>
</trkpt>
<trkpt lat="48.172455" lon="10.924171">
<ele>569.915</ele>
<time>2022-05-25T13:13:27Z</time>
</trkpt>
<trkpt lat="48.172417" lon="10.924212">
<ele>569.915</ele>
<time>2022-05-25T13:13:28Z</time>
</trkpt>
<trkpt lat="48.172379" lon="10.924252">
<ele>569.915</ele>
<time>2022-05-25T13:13:29Z</time>
</trkpt>
<trkpt lat="48.172333" lon="10.92429">
<ele>569.915</ele>
<time>2022-05-25T13:13:30Z</time>
</trkpt>
<trkpt lat="48.172298" lon="10.924332">
<ele>569.915</ele>
<time>2022-05-25T13:13:31Z</time>
</trkpt>
<trkpt lat="48.17226" lon="10.924372">
<ele>569.915</ele>
<time>2022-05-25T13:13:32Z</time>
</trkpt>
<trkpt lat="48.172226" lon="10.924417">
<ele>569.915</ele>
<time>2022-05-25T13:13:33Z</time>
</trkpt>
<trkpt lat="48.172192" lon="10.924459">
<ele>569.915</ele>
<time>2022-05-25T13:13:34Z</time>
</trkpt>
<trkpt lat="48.172157" lon="10.9245">
<ele>569.915</ele>
<time>2022-05-25T13:13:35Z</time>
</trkpt>
<trkpt lat="48.172127" lon="10.924543">
<ele>569.915</ele>
<time>2022-05-25T13:13:36Z</time>
</trkpt>
<trkpt lat="48.172096" lon="10.924591">
<ele>569.915</ele>
<time>2022-05-25T13:13:37Z</time>
</trkpt>
<trkpt lat="48.172062" lon="10.92464">
<ele>569.915</ele>
<time>2022-05-25T13:13:38Z</time>
</trkpt>
<trkpt lat="48.172028" lon="10.924687">
<ele>569.915</ele>
<time>2022-05-25T13:13:39Z</time>
</trkpt>
<trkpt lat="48.171993" lon="10.924733">
<ele>569.915</ele>
<time>2022-05-25T13:13:40Z</time>
</trkpt>
<trkpt lat="48.171963" lon="10.92478">
<ele>569.72</ele>
<time>2022-05-25T13:13:41Z</time>
</trkpt>
<trkpt lat="48.171928" lon="10.924827">
<ele>569.534</ele>
<time>2022-05-25T13:13:42Z</time>
</trkpt>
<trkpt lat="48.171898" lon="10.924871">
<ele>569.384</ele>
<time>2022-05-25T13:13:43Z</time>
</trkpt>
<trkpt lat="48.171867" lon="10.924911">
<ele>569.264</ele>
<time>2022-05-25T13:13:44Z</time>
</trkpt>
<trkpt lat="48.171841" lon="10.924952">
<ele>569.175</ele>
<time>2022-05-25T13:13:45Z</time>
</trkpt>
<trkpt lat="48.17181" lon="10.924992">
<ele>569.108</ele>
<time>2022-05-25T13:13:46Z</time>
</trkpt>
<trkpt lat="48.17178" lon="10.92503">
<ele>569.063</ele>
<time>2022-05-25T13:13:47Z</time>
</trkpt>
<trkpt lat="48.171753" lon="10.925076">
<ele>569.041</ele>
<time>2022-05-25T13:13:48Z</time>
</trkpt>
<trkpt lat="48.17173" lon="10.92513">
<ele>569.041</ele>
<time>2022-05-25T13:13:49Z</time>
</trkpt>
<trkpt lat="48.171707" lon="10.925177">
<ele>569.041</ele>
<time>2022-05-25T13:13:50Z</time>
</trkpt>
<trkpt lat="48.171677" lon="10.925223">
<ele>569.041</ele>
<time>2022-05-25T13:13:51Z</time>
</trkpt>
<trkpt lat="48.171642" lon="10.925266">
<ele>569.041</ele>
<time>2022-05-25T13:13:52Z</time>
</trkpt>
<trkpt lat="48.171612" lon="10.925314">
<ele>569.041</ele>
<time>2022-05-25T13:13:53Z</time>
</trkpt>
<trkpt lat="48.171585" lon="10.925354">
<ele>569.041</ele>
<time>2022-05-25T13:13:54Z</time>
</trkpt>
<trkpt lat="48.171562" lon="10.925404">
<ele>569.041</ele>
<time>2022-05-25T13:13:55Z</time>
</trkpt>
<trkpt lat="48.171535" lon="10.925453">
<ele>569.041</ele>
<time>2022-05-25T13:13:56Z</time>
</trkpt>
<trkpt lat="48.171505" lon="10.925505">
<ele>569.041</ele>
<time>2022-05-25T13:13:57Z</time>
</trkpt>
<trkpt lat="48.171474" lon="10.925555">
<ele>569.041</ele>
<time>2022-05-25T13:13:58Z</time>
</trkpt>
<trkpt lat="48.17144" lon="10.925607">
<ele>569.041</ele>
<time>2022-05-25T13:13:59Z</time>
</trkpt>
<trkpt lat="48.171406" lon="10.925657">
<ele>569.041</ele>
<time>2022-05-25T13:14:00Z</time>
</trkpt>
<trkpt lat="48.171368" lon="10.925703">
<ele>569.041</ele>
<time>2022-05-25T13:14:01Z</time>
</trkpt>
<trkpt lat="48.171333" lon="10.925754">
<ele>569.041</ele>
<time>2022-05-25T13:14:02Z</time>
</trkpt>
<trkpt lat="48.171299" lon="10.9258">
<ele>569.041</ele>
<time>2022-05-25T13:14:03Z</time>
</trkpt>
<trkpt lat="48.171257" lon="10.925844">
<ele>569.041</ele>
<time>2022-05-25T13:14:04Z</time>
</trkpt>
<trkpt lat="48.171219" lon="10.925888">
<ele>569.041</ele>
<time>2022-05-25T13:14:05Z</time>
</trkpt>
<trkpt lat="48.171185" lon="10.92593">
<ele>569.041</ele>
<time>2022-05-25T13:14:06Z</time>
</trkpt>
<trkpt lat="48.17115" lon="10.925968">
<ele>569.041</ele>
<time>2022-05-25T13:14:07Z</time>
</trkpt>
<trkpt lat="48.171108" lon="10.926003">
<ele>569.041</ele>
<time>2022-05-25T13:14:08Z</time>
</trkpt>
<trkpt lat="48.171066" lon="10.926032">
<ele>569.041</ele>
<time>2022-05-25T13:14:09Z</time>
</trkpt>
<trkpt lat="48.171028" lon="10.926053">
<ele>569.041</ele>
<time>2022-05-25T13:14:10Z</time>
</trkpt>
<trkpt lat="48.170986" lon="10.926077">
<ele>569.041</ele>
<time>2022-05-25T13:14:11Z</time>
</trkpt>
<trkpt lat="48.170929" lon="10.926102">
<ele>569.041</ele>
<time>2022-05-25T13:14:12Z</time>
</trkpt>
<trkpt lat="48.170883" lon="10.926125">
<ele>569.041</ele>
<time>2022-05-25T13:14:13Z</time>
</trkpt>
<trkpt lat="48.170826" lon="10.926148">
<ele>569.041</ele>
<time>2022-05-25T13:14:14Z</time>
</trkpt>
<trkpt lat="48.17078" lon="10.926165">
<ele>569.041</ele>
<time>2022-05-25T13:14:15Z</time>
</trkpt>
<trkpt lat="48.170731" lon="10.926177">
<ele>569.041</ele>
<time>2022-05-25T13:14:16Z</time>
</trkpt>
<trkpt lat="48.170681" lon="10.926182">
<ele>569.041</ele>
<time>2022-05-25T13:14:17Z</time>
</trkpt>
<trkpt lat="48.170631" lon="10.926182">
<ele>569.041</ele>
<time>2022-05-25T13:14:18Z</time>
</trkpt>
<trkpt lat="48.170578" lon="10.92618">
<ele>569.041</ele>
<time>2022-05-25T13:14:19Z</time>
</trkpt>
<trkpt lat="48.170532" lon="10.926179">
<ele>569.041</ele>
<time>2022-05-25T13:14:20Z</time>
</trkpt>
<trkpt lat="48.170483" lon="10.926173">
<ele>569.041</ele>
<time>2022-05-25T13:14:21Z</time>
</trkpt>
<trkpt lat="48.170433" lon="10.926167">
<ele>569.041</ele>
<time>2022-05-25T13:14:22Z</time>
</trkpt>
<trkpt lat="48.170383" lon="10.92616">
<ele>569.041</ele>
<time>2022-05-25T13:14:23Z</time>
</trkpt>
<trkpt lat="48.170334" lon="10.926154">
<ele>569.041</ele>
<time>2022-05-25T13:14:24Z</time>
</trkpt>
<trkpt lat="48.170284" lon="10.926148">
<ele>569.041</ele>
<time>2022-05-25T13:14:25Z</time>
</trkpt>
<trkpt lat="48.170235" lon="10.926138">
<ele>569.041</ele>
<time>2022-05-25T13:14:26Z</time>
</trkpt>
<trkpt lat="48.170181" lon="10.92613">
<ele>569.041</ele>
<time>2022-05-25T13:14:27Z</time>
</trkpt>
<trkpt lat="48.170132" lon="10.926122">
<ele>569.041</ele>
<time>2022-05-25T13:14:28Z</time>
</trkpt>
<trkpt lat="48.170082" lon="10.926115">
<ele>569.041</ele>
<time>2022-05-25T13:14:29Z</time>
</trkpt>
<trkpt lat="48.170029" lon="10.92611">
<ele>569.041</ele>
<time>2022-05-25T13:14:30Z</time>
</trkpt>
<trkpt lat="48.169979" lon="10.926105">
<ele>569.041</ele>
<time>2022-05-25T13:14:31Z</time>
</trkpt>
<trkpt lat="48.169926" lon="10.9261">
<ele>569.041</ele>
<time>2022-05-25T13:14:32Z</time>
</trkpt>
<trkpt lat="48.169876" lon="10.9261">
<ele>569.041</ele>
<time>2022-05-25T13:14:33Z</time>
</trkpt>
<trkpt lat="48.169823" lon="10.9261">
<ele>569.041</ele>
<time>2022-05-25T13:14:34Z</time>
</trkpt>
<trkpt lat="48.169773" lon="10.926105">
<ele>569.041</ele>
<time>2022-05-25T13:14:35Z</time>
</trkpt>
<trkpt lat="48.16972" lon="10.926115">
<ele>569.041</ele>
<time>2022-05-25T13:14:36Z</time>
</trkpt>
<trkpt lat="48.16967" lon="10.92613">
<ele>569.041</ele>
<time>2022-05-25T13:14:37Z</time>
</trkpt>
<trkpt lat="48.169621" lon="10.926146">
<ele>569.041</ele>
<time>2022-05-25T13:14:38Z</time>
</trkpt>
<trkpt lat="48.169571" lon="10.92616">
<ele>569.041</ele>
<time>2022-05-25T13:14:39Z</time>
</trkpt>
<trkpt lat="48.169521" lon="10.926179">
<ele>569.041</ele>
<time>2022-05-25T13:14:40Z</time>
</trkpt>
<trkpt lat="48.169472" lon="10.926198">
<ele>569.041</ele>
<time>2022-05-25T13:14:41Z</time>
</trkpt>
<trkpt lat="48.169422" lon="10.926219">
<ele>569.041</ele>
<time>2022-05-25T13:14:42Z</time>
</trkpt>
<trkpt lat="48.169373" lon="10.926242">
<ele>569.041</ele>
<time>2022-05-25T13:14:43Z</time>
</trkpt>
<trkpt lat="48.169327" lon="10.926269">
<ele>569.041</ele>
<time>2022-05-25T13:14:44Z</time>
</trkpt>
<trkpt lat="48.169277" lon="10.926293">
<ele>569.041</ele>
<time>2022-05-25T13:14:45Z</time>
</trkpt>
<trkpt lat="48.169231" lon="10.926317">
<ele>569.041</ele>
<time>2022-05-25T13:14:46Z</time>
</trkpt>
<trkpt lat="48.169186" lon="10.926342">
<ele>569.041</ele>
<time>2022-05-25T13:14:47Z</time>
</trkpt>
<trkpt lat="48.16914" lon="10.926368">
<ele>569.041</ele>
<time>2022-05-25T13:14:48Z</time>
</trkpt>
<trkpt lat="48.169094" lon="10.926392">
<ele>569.041</ele>
<time>2022-05-25T13:14:49Z</time>
</trkpt>
<trkpt lat="48.169044" lon="10.926416">
<ele>569.041</ele>
<time>2022-05-25T13:14:50Z</time>
</trkpt>
<trkpt lat="48.169003" lon="10.926443">
<ele>569.041</ele>
<time>2022-05-25T13:14:51Z</time>
</trkpt>
<trkpt lat="48.168961" lon="10.926472">
<ele>569.041</ele>
<time>2022-05-25T13:14:52Z</time>
</trkpt>
<trkpt lat="48.168911" lon="10.9265">
<ele>569.041</ele>
<time>2022-05-25T13:14:53Z</time>
</trkpt>
<trkpt lat="48.168873" lon="10.926529">
<ele>569.041</ele>
<time>2022-05-25T13:14:54Z</time>
</trkpt>
<trkpt lat="48.168827" lon="10.926558">
<ele>569.041</ele>
<time>2022-05-25T13:14:55Z</time>
</trkpt>
<trkpt lat="48.168777" lon="10.926588">
<ele>569.041</ele>
<time>2022-05-25T13:14:56Z</time>
</trkpt>
<trkpt lat="48.168736" lon="10.926621">
<ele>569.041</ele>
<time>2022-05-25T13:14:57Z</time>
</trkpt>
<trkpt lat="48.16869" lon="10.926655">
<ele>569.041</ele>
<time>2022-05-25T13:14:58Z</time>
</trkpt>
<trkpt lat="48.168644" lon="10.926688">
<ele>569.041</ele>
<time>2022-05-25T13:14:59Z</time>
</trkpt>
<trkpt lat="48.168602" lon="10.926726">
<ele>569.041</ele>
<time>2022-05-25T13:15:00Z</time>
</trkpt>
<trkpt lat="48.168556" lon="10.926765">
<ele>569.041</ele>
<time>2022-05-25T13:15:01Z</time>
</trkpt>
<trkpt lat="48.168514" lon="10.926802">
<ele>569.041</ele>
<time>2022-05-25T13:15:02Z</time>
</trkpt>
<trkpt lat="48.168468" lon="10.92684">
<ele>569.041</ele>
<time>2022-05-25T13:15:03Z</time>
</trkpt>
<trkpt lat="48.168423" lon="10.926877">
<ele>569.041</ele>
<time>2022-05-25T13:15:04Z</time>
</trkpt>
<trkpt lat="48.168381" lon="10.926917">
<ele>569.041</ele>
<time>2022-05-25T13:15:05Z</time>
</trkpt>
<trkpt lat="48.168339" lon="10.926956">
<ele>569.041</ele>
<time>2022-05-25T13:15:06Z</time>
</trkpt>
<trkpt lat="48.168293" lon="10.927">
<ele>569.041</ele>
<time>2022-05-25T13:15:07Z</time>
</trkpt>
<trkpt lat="48.168251" lon="10.927042">
<ele>569.041</ele>
<time>2022-05-25T13:15:08Z</time>
</trkpt>
<trkpt lat="48.168209" lon="10.927083">
<ele>569.041</ele>
<time>2022-05-25T13:15:09Z</time>
</trkpt>
<trkpt lat="48.168167" lon="10.927125">
<ele>569.041</ele>
<time>2022-05-25T13:15:10Z</time>
</trkpt>
<trkpt lat="48.168125" lon="10.927168">
<ele>569.255</ele>
<time>2022-05-25T13:15:11Z</time>
</trkpt>
<trkpt lat="48.168083" lon="10.92721">
<ele>569.457</ele>
<time>2022-05-25T13:15:12Z</time>
</trkpt>
<trkpt lat="48.168041" lon="10.927252">
<ele>569.623</ele>
<time>2022-05-25T13:15:13Z</time>
</trkpt>
<trkpt lat="48.167995" lon="10.927294">
<ele>569.756</ele>
<time>2022-05-25T13:15:14Z</time>
</trkpt>
<trkpt lat="48.167957" lon="10.927338">
<ele>569.858</ele>
<time>2022-05-25T13:15:15Z</time>
</trkpt>
<trkpt lat="48.167912" lon="10.927383">
<ele>569.931</ele>
<time>2022-05-25T13:15:16Z</time>
</trkpt>
<trkpt lat="48.16787" lon="10.927428">
<ele>569.979</ele>
<time>2022-05-25T13:15:17Z</time>
</trkpt>
<trkpt lat="48.167828" lon="10.927472">
<ele>570.002</ele>
<time>2022-05-25T13:15:18Z</time>
</trkpt>
<trkpt lat="48.167789" lon="10.927515">
<ele>570.002</ele>
<time>2022-05-25T13:15:19Z</time>
</trkpt>
<trkpt lat="48.167744" lon="10.927558">
<ele>570.002</ele>
<time>2022-05-25T13:15:20Z</time>
</trkpt>
<trkpt lat="48.167702" lon="10.9276">
<ele>570.002</ele>
<time>2022-05-25T13:15:21Z</time>
</trkpt>
<trkpt lat="48.167664" lon="10.927646">
<ele>570.002</ele>
<time>2022-05-25T13:15:22Z</time>
</trkpt>
<trkpt lat="48.167622" lon="10.927688">
<ele>570.002</ele>
<time>2022-05-25T13:15:23Z</time>
</trkpt>
<trkpt lat="48.16758" lon="10.92773">
<ele>570.002</ele>
<time>2022-05-25T13:15:24Z</time>
</trkpt>
<trkpt lat="48.167534" lon="10.927772">
<ele>570.002</ele>
<time>2022-05-25T13:15:25Z</time>
</trkpt>
<trkpt lat="48.167496" lon="10.927815">
<ele>570.002</ele>
<time>2022-05-25T13:15:26Z</time>
</trkpt>
<trkpt lat="48.16745" lon="10.92786">
<ele>570.002</ele>
<time>2022-05-25T13:15:27Z</time>
</trkpt>
<trkpt lat="48.167408" lon="10.927905">
<ele>570.002</ele>
<time>2022-05-25T13:15:28Z</time>
</trkpt>
<trkpt lat="48.16737" lon="10.92795">
<ele>570.002</ele>
<time>2022-05-25T13:15:29Z</time>
</trkpt>
<trkpt lat="48.167324" lon="10.927994">
<ele>570.002</ele>
<time>2022-05-25T13:15:30Z</time>
</trkpt>
<trkpt lat="48.167282" lon="10.928035">
<ele>570.002</ele>
<time>2022-05-25T13:15:31Z</time>
</trkpt>
<trkpt lat="48.16724" lon="10.928077">
<ele>570.002</ele>
<time>2022-05-25T13:15:32Z</time>
</trkpt>
<trkpt lat="48.167198" lon="10.928119">
<ele>570.002</ele>
<time>2022-05-25T13:15:33Z</time>
</trkpt>
<trkpt lat="48.167156" lon="10.92816">
<ele>570.002</ele>
<time>2022-05-25T13:15:34Z</time>
</trkpt>
<trkpt lat="48.16711" lon="10.928202">
<ele>570.002</ele>
<time>2022-05-25T13:15:35Z</time>
</trkpt>
<trkpt lat="48.167072" lon="10.928243">
<ele>570.002</ele>
<time>2022-05-25T13:15:36Z</time>
</trkpt>
<trkpt lat="48.16703" lon="10.928285">
<ele>570.002</ele>
<time>2022-05-25T13:15:37Z</time>
</trkpt>
<trkpt lat="48.166988" lon="10.928325">
<ele>570.002</ele>
<time>2022-05-25T13:15:38Z</time>
</trkpt>
<trkpt lat="48.166946" lon="10.928367">
<ele>570.002</ele>
<time>2022-05-25T13:15:39Z</time>
</trkpt>
<trkpt lat="48.166908" lon="10.928409">
<ele>570.002</ele>
<time>2022-05-25T13:15:40Z</time>
</trkpt>
<trkpt lat="48.166866" lon="10.928452">
<ele>570.002</ele>
<time>2022-05-25T13:15:41Z</time>
</trkpt>
<trkpt lat="48.166821" lon="10.928494">
<ele>570.002</ele>
<time>2022-05-25T13:15:42Z</time>
</trkpt>
<trkpt lat="48.166782" lon="10.928538">
<ele>570.002</ele>
<time>2022-05-25T13:15:43Z</time>
</trkpt>
<trkpt lat="48.166737" lon="10.928582">
<ele>570.002</ele>
<time>2022-05-25T13:15:44Z</time>
</trkpt>
<trkpt lat="48.166691" lon="10.928625">
<ele>570.002</ele>
<time>2022-05-25T13:15:45Z</time>
</trkpt>
<trkpt lat="48.166653" lon="10.928668">
<ele>570.002</ele>
<time>2022-05-25T13:15:46Z</time>
</trkpt>
<trkpt lat="48.166607" lon="10.92871">
<ele>570.002</ele>
<time>2022-05-25T13:15:47Z</time>
</trkpt>
<trkpt lat="48.166565" lon="10.928755">
<ele>570.002</ele>
<time>2022-05-25T13:15:48Z</time>
</trkpt>
<trkpt lat="48.166523" lon="10.928799">
<ele>570.002</ele>
<time>2022-05-25T13:15:49Z</time>
</trkpt>
<trkpt lat="48.166477" lon="10.928842">
<ele>570.002</ele>
<time>2022-05-25T13:15:50Z</time>
</trkpt>
<trkpt lat="48.166431" lon="10.928884">
<ele>570.002</ele>
<time>2022-05-25T13:15:51Z</time>
</trkpt>
<trkpt lat="48.166389" lon="10.928926">
<ele>570.002</ele>
<time>2022-05-25T13:15:52Z</time>
</trkpt>
<trkpt lat="48.16634" lon="10.928972">
<ele>570.002</ele>
<time>2022-05-25T13:15:53Z</time>
</trkpt>
<trkpt lat="48.166298" lon="10.929013">
<ele>570.002</ele>
<time>2022-05-25T13:15:54Z</time>
</trkpt>
<trkpt lat="48.166252" lon="10.929053">
<ele>570.002</ele>
<time>2022-05-25T13:15:55Z</time>
</trkpt>
<trkpt lat="48.166203" lon="10.929091">
<ele>570.002</ele>
<time>2022-05-25T13:15:56Z</time>
</trkpt>
<trkpt lat="48.166161" lon="10.929133">
<ele>570.002</ele>
<time>2022-05-25T13:15:57Z</time>
</trkpt>
<trkpt lat="48.166111" lon="10.929173">
<ele>570.002</ele>
<time>2022-05-25T13:15:58Z</time>
</trkpt>
<trkpt lat="48.166065" lon="10.929215">
<ele>570.002</ele>
<time>2022-05-25T13:15:59Z</time>
</trkpt>
<trkpt lat="48.166019" lon="10.929256">
<ele>570.002</ele>
<time>2022-05-25T13:16:00Z</time>
</trkpt>
<trkpt lat="48.165974" lon="10.929296">
<ele>570.002</ele>
<time>2022-05-25T13:16:01Z</time>
</trkpt>
<trkpt lat="48.165932" lon="10.929337">
<ele>570.214</ele>
<time>2022-05-25T13:16:02Z</time>
</trkpt>
<trkpt lat="48.165886" lon="10.929377">
<ele>570.391</ele>
<time>2022-05-25T13:16:03Z</time>
</trkpt>
<trkpt lat="48.16584" lon="10.929419">
<ele>570.537</ele>
<time>2022-05-25T13:16:04Z</time>
</trkpt>
<trkpt lat="48.165794" lon="10.929461">
<ele>570.654</ele>
<time>2022-05-25T13:16:05Z</time>
</trkpt>
<trkpt lat="48.165749" lon="10.929503">
<ele>570.746</ele>
<time>2022-05-25T13:16:06Z</time>
</trkpt>
<trkpt lat="48.165707" lon="10.92955">
<ele>570.812</ele>
<time>2022-05-25T13:16:07Z</time>
</trkpt>
<trkpt lat="48.165665" lon="10.929595">
<ele>570.855</ele>
<time>2022-05-25T13:16:08Z</time>
</trkpt>
<trkpt lat="48.165623" lon="10.929642">
<ele>570.875</ele>
<time>2022-05-25T13:16:09Z</time>
</trkpt>
<trkpt lat="48.165581" lon="10.92969">
<ele>570.875</ele>
<time>2022-05-25T13:16:10Z</time>
</trkpt>
<trkpt lat="48.165546" lon="10.929739">
<ele>570.875</ele>
<time>2022-05-25T13:16:11Z</time>
</trkpt>
<trkpt lat="48.165504" lon="10.929785">
<ele>570.875</ele>
<time>2022-05-25T13:16:12Z</time>
</trkpt>
<trkpt lat="48.165466" lon="10.929835">
<ele>570.875</ele>
<time>2022-05-25T13:16:13Z</time>
</trkpt>
<trkpt lat="48.165428" lon="10.929885">
<ele>570.875</ele>
<time>2022-05-25T13:16:14Z</time>
</trkpt>
<trkpt lat="48.16539" lon="10.929935">
<ele>570.875</ele>
<time>2022-05-25T13:16:15Z</time>
</trkpt>
<trkpt lat="48.165356" lon="10.929986">
<ele>570.875</ele>
<time>2022-05-25T13:16:16Z</time>
</trkpt>
<trkpt lat="48.165318" lon="10.930038">
<ele>570.875</ele>
<time>2022-05-25T13:16:17Z</time>
</trkpt>
<trkpt lat="48.165283" lon="10.930091">
<ele>570.875</ele>
<time>2022-05-25T13:16:18Z</time>
</trkpt>
<trkpt lat="48.165253" lon="10.930147">
<ele>570.875</ele>
<time>2022-05-25T13:16:19Z</time>
</trkpt>
<trkpt lat="48.165215" lon="10.930203">
<ele>570.875</ele>
<time>2022-05-25T13:16:20Z</time>
</trkpt>
<trkpt lat="48.16518" lon="10.930259">
<ele>570.875</ele>
<time>2022-05-25T13:16:21Z</time>
</trkpt>
<trkpt lat="48.165146" lon="10.930317">
<ele>570.875</ele>
<time>2022-05-25T13:16:22Z</time>
</trkpt>
<trkpt lat="48.165108" lon="10.930373">
<ele>570.875</ele>
<time>2022-05-25T13:16:23Z</time>
</trkpt>
<trkpt lat="48.165073" lon="10.93043">
<ele>570.875</ele>
<time>2022-05-25T13:16:24Z</time>
</trkpt>
<trkpt lat="48.165039" lon="10.93049">
<ele>570.875</ele>
<time>2022-05-25T13:16:25Z</time>
</trkpt>
<trkpt lat="48.165005" lon="10.930548">
<ele>570.875</ele>
<time>2022-05-25T13:16:26Z</time>
</trkpt>
<trkpt lat="48.16497" lon="10.930607">
<ele>570.875</ele>
<time>2022-05-25T13:16:27Z</time>
</trkpt>
<trkpt lat="48.164936" lon="10.930665">
<ele>571.12</ele>
<time>2022-05-25T13:16:28Z</time>
</trkpt>
<trkpt lat="48.164909" lon="10.930723">
<ele>571.313</ele>
<time>2022-05-25T13:16:29Z</time>
</trkpt>
<trkpt lat="48.164875" lon="10.930783">
<ele>571.463</ele>
<time>2022-05-25T13:16:30Z</time>
</trkpt>
<trkpt lat="48.164848" lon="10.930843">
<ele>571.567</ele>
<time>2022-05-25T13:16:31Z</time>
</trkpt>
<trkpt lat="48.164814" lon="10.930905">
<ele>571.678</ele>
<time>2022-05-25T13:16:32Z</time>
</trkpt>
<trkpt lat="48.164783" lon="10.930963">
<ele>571.758</ele>
<time>2022-05-25T13:16:33Z</time>
</trkpt>
<trkpt lat="48.164749" lon="10.931026">
<ele>571.811</ele>
<time>2022-05-25T13:16:34Z</time>
</trkpt>
<trkpt lat="48.164719" lon="10.931087">
<ele>571.836</ele>
<time>2022-05-25T13:16:35Z</time>
</trkpt>
<trkpt lat="48.164684" lon="10.93115">
<ele>571.836</ele>
<time>2022-05-25T13:16:36Z</time>
</trkpt>
<trkpt lat="48.16465" lon="10.931211">
<ele>571.836</ele>
<time>2022-05-25T13:16:37Z</time>
</trkpt>
<trkpt lat="48.164616" lon="10.931278">
<ele>571.836</ele>
<time>2022-05-25T13:16:38Z</time>
</trkpt>
<trkpt lat="48.164581" lon="10.931343">
<ele>571.836</ele>
<time>2022-05-25T13:16:39Z</time>
</trkpt>
<trkpt lat="48.164547" lon="10.931411">
<ele>571.836</ele>
<time>2022-05-25T13:16:40Z</time>
</trkpt>
<trkpt lat="48.164516" lon="10.931476">
<ele>571.836</ele>
<time>2022-05-25T13:16:41Z</time>
</trkpt>
<trkpt lat="48.164478" lon="10.931535">
<ele>571.836</ele>
<time>2022-05-25T13:16:42Z</time>
</trkpt>
<trkpt lat="48.164444" lon="10.931591">
<ele>571.836</ele>
<time>2022-05-25T13:16:43Z</time>
</trkpt>
<trkpt lat="48.164406" lon="10.931643">
<ele>571.836</ele>
<time>2022-05-25T13:16:44Z</time>
</trkpt>
<trkpt lat="48.164368" lon="10.931691">
<ele>571.836</ele>
<time>2022-05-25T13:16:45Z</time>
</trkpt>
<trkpt lat="48.164326" lon="10.931737">
<ele>571.836</ele>
<time>2022-05-25T13:16:46Z</time>
</trkpt>
<trkpt lat="48.16428" lon="10.931775">
<ele>571.836</ele>
<time>2022-05-25T13:16:47Z</time>
</trkpt>
<trkpt lat="48.164238" lon="10.931811">
<ele>571.836</ele>
<time>2022-05-25T13:16:48Z</time>
</trkpt>
<trkpt lat="48.164188" lon="10.931845">
<ele>571.836</ele>
<time>2022-05-25T13:16:49Z</time>
</trkpt>
<trkpt lat="48.164143" lon="10.931875">
<ele>571.836</ele>
<time>2022-05-25T13:16:50Z</time>
</trkpt>
<trkpt lat="48.164093" lon="10.9319">
<ele>571.836</ele>
<time>2022-05-25T13:16:51Z</time>
</trkpt>
<trkpt lat="48.164047" lon="10.931927">
<ele>571.836</ele>
<time>2022-05-25T13:16:52Z</time>
</trkpt>
<trkpt lat="48.163998" lon="10.931952">
<ele>571.836</ele>
<time>2022-05-25T13:16:53Z</time>
</trkpt>
<trkpt lat="48.163948" lon="10.931974">
<ele>571.836</ele>
<time>2022-05-25T13:16:54Z</time>
</trkpt>
<trkpt lat="48.163895" lon="10.932">
<ele>571.836</ele>
<time>2022-05-25T13:16:55Z</time>
</trkpt>
<trkpt lat="48.163849" lon="10.932023">
<ele>571.836</ele>
<time>2022-05-25T13:16:56Z</time>
</trkpt>
<trkpt lat="48.163799" lon="10.932047">
<ele>572.09</ele>
<time>2022-05-25T13:16:57Z</time>
</trkpt>
<trkpt lat="48.16375" lon="10.932073">
<ele>572.29</ele>
<time>2022-05-25T13:16:58Z</time>
</trkpt>
<trkpt lat="48.163696" lon="10.932102">
<ele>572.441</ele>
<time>2022-05-25T13:16:59Z</time>
</trkpt>
<trkpt lat="48.163651" lon="10.932129">
<ele>572.557</ele>
<time>2022-05-25T13:17:00Z</time>
</trkpt>
<trkpt lat="48.163601" lon="10.932158">
<ele>572.637</ele>
<time>2022-05-25T13:17:01Z</time>
</trkpt>
<trkpt lat="48.163555" lon="10.932188">
<ele>572.718</ele>
<time>2022-05-25T13:17:02Z</time>
</trkpt>
<trkpt lat="48.163509" lon="10.93222">
<ele>572.771</ele>
<time>2022-05-25T13:17:03Z</time>
</trkpt>
<trkpt lat="48.163464" lon="10.932253">
<ele>572.796</ele>
<time>2022-05-25T13:17:04Z</time>
</trkpt>
<trkpt lat="48.163422" lon="10.932286">
<ele>572.796</ele>
<time>2022-05-25T13:17:05Z</time>
</trkpt>
<trkpt lat="48.163376" lon="10.932318">
<ele>572.796</ele>
<time>2022-05-25T13:17:06Z</time>
</trkpt>
<trkpt lat="48.16333" lon="10.932351">
<ele>572.796</ele>
<time>2022-05-25T13:17:07Z</time>
</trkpt>
<trkpt lat="48.163284" lon="10.932386">
<ele>572.796</ele>
<time>2022-05-25T13:17:08Z</time>
</trkpt>
<trkpt lat="48.163239" lon="10.932423">
<ele>572.796</ele>
<time>2022-05-25T13:17:09Z</time>
</trkpt>
<trkpt lat="48.163197" lon="10.932456">
<ele>572.796</ele>
<time>2022-05-25T13:17:10Z</time>
</trkpt>
<trkpt lat="48.163151" lon="10.932491">
<ele>572.796</ele>
<time>2022-05-25T13:17:11Z</time>
</trkpt>
<trkpt lat="48.163105" lon="10.932527">
<ele>572.796</ele>
<time>2022-05-25T13:17:12Z</time>
</trkpt>
<trkpt lat="48.163059" lon="10.932561">
<ele>572.796</ele>
<time>2022-05-25T13:17:13Z</time>
</trkpt>
<trkpt lat="48.163013" lon="10.932598">
<ele>572.796</ele>
<time>2022-05-25T13:17:14Z</time>
</trkpt>
<trkpt lat="48.162968" lon="10.932633">
<ele>572.796</ele>
<time>2022-05-25T13:17:15Z</time>
</trkpt>
<trkpt lat="48.162918" lon="10.932668">
<ele>572.796</ele>
<time>2022-05-25T13:17:16Z</time>
</trkpt>
<trkpt lat="48.162872" lon="10.932705">
<ele>572.796</ele>
<time>2022-05-25T13:17:17Z</time>
</trkpt>
<trkpt lat="48.162827" lon="10.932741">
<ele>572.796</ele>
<time>2022-05-25T13:17:18Z</time>
</trkpt>
<trkpt lat="48.162777" lon="10.93278">
<ele>572.796</ele>
<time>2022-05-25T13:17:19Z</time>
</trkpt>
<trkpt lat="48.162735" lon="10.932817">
<ele>572.796</ele>
<time>2022-05-25T13:17:20Z</time>
</trkpt>
<trkpt lat="48.162685" lon="10.932854">
<ele>572.796</ele>
<time>2022-05-25T13:17:21Z</time>
</trkpt>
<trkpt lat="48.16264" lon="10.932888">
<ele>572.796</ele>
<time>2022-05-25T13:17:22Z</time>
</trkpt>
<trkpt lat="48.16259" lon="10.932921">
<ele>572.796</ele>
<time>2022-05-25T13:17:23Z</time>
</trkpt>
<trkpt lat="48.162544" lon="10.932957">
<ele>572.796</ele>
<time>2022-05-25T13:17:24Z</time>
</trkpt>
<trkpt lat="48.162495" lon="10.932992">
<ele>572.796</ele>
<time>2022-05-25T13:17:25Z</time>
</trkpt>
<trkpt lat="48.162449" lon="10.933028">
<ele>572.796</ele>
<time>2022-05-25T13:17:26Z</time>
</trkpt>
<trkpt lat="48.162403" lon="10.933065">
<ele>572.796</ele>
<time>2022-05-25T13:17:27Z</time>
</trkpt>
<trkpt lat="48.162354" lon="10.933102">
<ele>572.796</ele>
<time>2022-05-25T13:17:28Z</time>
</trkpt>
<trkpt lat="48.162312" lon="10.933137">
<ele>572.796</ele>
<time>2022-05-25T13:17:29Z</time>
</trkpt>
<trkpt lat="48.162266" lon="10.933175">
<ele>572.796</ele>
<time>2022-05-25T13:17:30Z</time>
</trkpt>
<trkpt lat="48.16222" lon="10.933213">
<ele>572.796</ele>
<time>2022-05-25T13:17:31Z</time>
</trkpt>
<trkpt lat="48.162182" lon="10.933253">
<ele>572.796</ele>
<time>2022-05-25T13:17:32Z</time>
</trkpt>
<trkpt lat="48.162136" lon="10.933293">
<ele>572.796</ele>
<time>2022-05-25T13:17:33Z</time>
</trkpt>
<trkpt lat="48.16209" lon="10.933336">
<ele>572.796</ele>
<time>2022-05-25T13:17:34Z</time>
</trkpt>
<trkpt lat="48.162052" lon="10.93338">
<ele>572.796</ele>
<time>2022-05-25T13:17:35Z</time>
</trkpt>
<trkpt lat="48.162006" lon="10.933424">
<ele>572.796</ele>
<time>2022-05-25T13:17:36Z</time>
</trkpt>
<trkpt lat="48.161961" lon="10.933465">
<ele>572.796</ele>
<time>2022-05-25T13:17:37Z</time>
</trkpt>
<trkpt lat="48.161922" lon="10.933506">
<ele>572.796</ele>
<time>2022-05-25T13:17:38Z</time>
</trkpt>
<trkpt lat="48.161877" lon="10.933547">
<ele>572.796</ele>
<time>2022-05-25T13:17:39Z</time>
</trkpt>
<trkpt lat="48.161831" lon="10.933588">
<ele>572.796</ele>
<time>2022-05-25T13:17:40Z</time>
</trkpt>
<trkpt lat="48.161793" lon="10.93363">
<ele>572.796</ele>
<time>2022-05-25T13:17:41Z</time>
</trkpt>
<trkpt lat="48.161747" lon="10.933672">
<ele>572.796</ele>
<time>2022-05-25T13:17:42Z</time>
</trkpt>
<trkpt lat="48.161701" lon="10.933715">
<ele>572.796</ele>
<time>2022-05-25T13:17:43Z</time>
</trkpt>
<trkpt lat="48.161659" lon="10.933759">
<ele>572.796</ele>
<time>2022-05-25T13:17:44Z</time>
</trkpt>
<trkpt lat="48.161613" lon="10.933802">
<ele>572.796</ele>
<time>2022-05-25T13:17:45Z</time>
</trkpt>
<trkpt lat="48.161568" lon="10.933846">
<ele>572.796</ele>
<time>2022-05-25T13:17:46Z</time>
</trkpt>
<trkpt lat="48.161526" lon="10.933888">
<ele>572.796</ele>
<time>2022-05-25T13:17:47Z</time>
</trkpt>
<trkpt lat="48.16148" lon="10.933929">
<ele>572.796</ele>
<time>2022-05-25T13:17:48Z</time>
</trkpt>
<trkpt lat="48.161438" lon="10.933971">
<ele>572.796</ele>
<time>2022-05-25T13:17:49Z</time>
</trkpt>
<trkpt lat="48.161392" lon="10.934011">
<ele>572.796</ele>
<time>2022-05-25T13:17:50Z</time>
</trkpt>
<trkpt lat="48.161346" lon="10.934053">
<ele>572.796</ele>
<time>2022-05-25T13:17:51Z</time>
</trkpt>
<trkpt lat="48.161304" lon="10.934093">
<ele>572.796</ele>
<time>2022-05-25T13:17:52Z</time>
</trkpt>
<trkpt lat="48.161259" lon="10.934134">
<ele>572.796</ele>
<time>2022-05-25T13:17:53Z</time>
</trkpt>
<trkpt lat="48.161213" lon="10.934175">
<ele>572.796</ele>
<time>2022-05-25T13:17:54Z</time>
</trkpt>
<trkpt lat="48.161175" lon="10.934214">
<ele>572.796</ele>
<time>2022-05-25T13:17:55Z</time>
</trkpt>
<trkpt lat="48.161125" lon="10.934252">
<ele>572.796</ele>
<time>2022-05-25T13:17:56Z</time>
</trkpt>
<trkpt lat="48.161079" lon="10.934292">
<ele>572.796</ele>
<time>2022-05-25T13:17:57Z</time>
</trkpt>
<trkpt lat="48.161037" lon="10.934332">
<ele>572.796</ele>
<time>2022-05-25T13:17:58Z</time>
</trkpt>
<trkpt lat="48.160992" lon="10.934371">
<ele>572.796</ele>
<time>2022-05-25T13:17:59Z</time>
</trkpt>
<trkpt lat="48.16095" lon="10.934411">
<ele>572.796</ele>
<time>2022-05-25T13:18:00Z</time>
</trkpt>
<trkpt lat="48.160904" lon="10.93445">
<ele>572.99</ele>
<time>2022-05-25T13:18:01Z</time>
</trkpt>
<trkpt lat="48.160858" lon="10.934486">
<ele>573.174</ele>
<time>2022-05-25T13:18:02Z</time>
</trkpt>
<trkpt lat="48.16082" lon="10.934525">
<ele>573.325</ele>
<time>2022-05-25T13:18:03Z</time>
</trkpt>
<trkpt lat="48.16077" lon="10.934562">
<ele>573.445</ele>
<time>2022-05-25T13:18:04Z</time>
</trkpt>
<trkpt lat="48.160728" lon="10.934598">
<ele>573.538</ele>
<time>2022-05-25T13:18:05Z</time>
</trkpt>
<trkpt lat="48.160686" lon="10.934637">
<ele>573.605</ele>
<time>2022-05-25T13:18:06Z</time>
</trkpt>
<trkpt lat="48.160641" lon="10.934673">
<ele>573.649</ele>
<time>2022-05-25T13:18:07Z</time>
</trkpt>
<trkpt lat="48.160599" lon="10.934711">
<ele>573.67</ele>
<time>2022-05-25T13:18:08Z</time>
</trkpt>
<trkpt lat="48.160557" lon="10.934747">
<ele>573.67</ele>
<time>2022-05-25T13:18:09Z</time>
</trkpt>
<trkpt lat="48.160515" lon="10.934786">
<ele>573.67</ele>
<time>2022-05-25T13:18:10Z</time>
</trkpt>
<trkpt lat="48.160469" lon="10.93482">
<ele>573.67</ele>
<time>2022-05-25T13:18:11Z</time>
</trkpt>
<trkpt lat="48.160427" lon="10.934857">
<ele>573.67</ele>
<time>2022-05-25T13:18:12Z</time>
</trkpt>
<trkpt lat="48.160385" lon="10.934895">
<ele>573.67</ele>
<time>2022-05-25T13:18:13Z</time>
</trkpt>
<trkpt lat="48.160339" lon="10.934933">
<ele>573.67</ele>
<time>2022-05-25T13:18:14Z</time>
</trkpt>
<trkpt lat="48.160297" lon="10.934972">
<ele>573.67</ele>
<time>2022-05-25T13:18:15Z</time>
</trkpt>
<trkpt lat="48.160255" lon="10.935012">
<ele>573.67</ele>
<time>2022-05-25T13:18:16Z</time>
</trkpt>
<trkpt lat="48.160206" lon="10.935048">
<ele>573.67</ele>
<time>2022-05-25T13:18:17Z</time>
</trkpt>
<trkpt lat="48.160168" lon="10.935087">
<ele>573.67</ele>
<time>2022-05-25T13:18:18Z</time>
</trkpt>
<trkpt lat="48.160126" lon="10.935125">
<ele>573.67</ele>
<time>2022-05-25T13:18:19Z</time>
</trkpt>
<trkpt lat="48.16008" lon="10.935165">
<ele>573.67</ele>
<time>2022-05-25T13:18:20Z</time>
</trkpt>
<trkpt lat="48.160038" lon="10.935205">
<ele>573.67</ele>
<time>2022-05-25T13:18:21Z</time>
</trkpt>
<trkpt lat="48.159996" lon="10.935246">
<ele>573.67</ele>
<time>2022-05-25T13:18:22Z</time>
</trkpt>
<trkpt lat="48.159954" lon="10.935288">
<ele>573.955</ele>
<time>2022-05-25T13:18:23Z</time>
</trkpt>
<trkpt lat="48.159908" lon="10.935327">
<ele>574.18</ele>
<time>2022-05-25T13:18:24Z</time>
</trkpt>
<trkpt lat="48.15987" lon="10.935367">
<ele>574.344</ele>
<time>2022-05-25T13:18:25Z</time>
</trkpt>
<trkpt lat="48.159828" lon="10.935407">
<ele>574.467</ele>
<time>2022-05-25T13:18:26Z</time>
</trkpt>
<trkpt lat="48.159786" lon="10.93545">
<ele>574.552</ele>
<time>2022-05-25T13:18:27Z</time>
</trkpt>
<trkpt lat="48.159744" lon="10.935492">
<ele>574.602</ele>
<time>2022-05-25T13:18:28Z</time>
</trkpt>
<trkpt lat="48.159706" lon="10.935534">
<ele>574.627</ele>
<time>2022-05-25T13:18:29Z</time>
</trkpt>
<trkpt lat="48.159664" lon="10.935576">
<ele>574.631</ele>
<time>2022-05-25T13:18:30Z</time>
</trkpt>
<trkpt lat="48.159626" lon="10.935622">
<ele>574.631</ele>
<time>2022-05-25T13:18:31Z</time>
</trkpt>
<trkpt lat="48.159584" lon="10.935663">
<ele>574.631</ele>
<time>2022-05-25T13:18:32Z</time>
</trkpt>
<trkpt lat="48.159546" lon="10.935706">
<ele>574.631</ele>
<time>2022-05-25T13:18:33Z</time>
</trkpt>
<trkpt lat="48.159508" lon="10.935754">
<ele>574.631</ele>
<time>2022-05-25T13:18:34Z</time>
</trkpt>
<trkpt lat="48.15947" lon="10.9358">
<ele>574.631</ele>
<time>2022-05-25T13:18:35Z</time>
</trkpt>
<trkpt lat="48.159431" lon="10.935848">
<ele>574.631</ele>
<time>2022-05-25T13:18:36Z</time>
</trkpt>
<trkpt lat="48.159397" lon="10.935899">
<ele>574.93</ele>
<time>2022-05-25T13:18:37Z</time>
</trkpt>
<trkpt lat="48.159363" lon="10.93595">
<ele>575.164</ele>
<time>2022-05-25T13:18:38Z</time>
</trkpt>
<trkpt lat="48.159325" lon="10.936004">
<ele>575.345</ele>
<time>2022-05-25T13:18:39Z</time>
</trkpt>
<trkpt lat="48.159294" lon="10.936058">
<ele>575.484</ele>
<time>2022-05-25T13:18:40Z</time>
</trkpt>
<trkpt lat="48.15926" lon="10.936113">
<ele>575.576</ele>
<time>2022-05-25T13:18:41Z</time>
</trkpt>
<trkpt lat="48.159225" lon="10.936167">
<ele>575.673</ele>
<time>2022-05-25T13:18:42Z</time>
</trkpt>
<trkpt lat="48.159187" lon="10.93622">
<ele>575.737</ele>
<time>2022-05-25T13:18:43Z</time>
</trkpt>
<trkpt lat="48.159157" lon="10.936274">
<ele>575.767</ele>
<time>2022-05-25T13:18:44Z</time>
</trkpt>
<trkpt lat="48.159122" lon="10.936328">
<ele>575.767</ele>
<time>2022-05-25T13:18:45Z</time>
</trkpt>
<trkpt lat="48.159092" lon="10.936383">
<ele>575.767</ele>
<time>2022-05-25T13:18:46Z</time>
</trkpt>
<trkpt lat="48.159061" lon="10.936439">
<ele>575.767</ele>
<time>2022-05-25T13:18:47Z</time>
</trkpt>
<trkpt lat="48.159027" lon="10.936493">
<ele>575.767</ele>
<time>2022-05-25T13:18:48Z</time>
</trkpt>
<trkpt lat="48.159" lon="10.936546">
<ele>575.767</ele>
<time>2022-05-25T13:18:49Z</time>
</trkpt>
<trkpt lat="48.158966" lon="10.9366">
<ele>575.767</ele>
<time>2022-05-25T13:18:50Z</time>
</trkpt>
<trkpt lat="48.158936" lon="10.936655">
<ele>575.767</ele>
<time>2022-05-25T13:18:51Z</time>
</trkpt>
<trkpt lat="48.158905" lon="10.936708">
<ele>575.767</ele>
<time>2022-05-25T13:18:52Z</time>
</trkpt>
<trkpt lat="48.158875" lon="10.936762">
<ele>575.767</ele>
<time>2022-05-25T13:18:53Z</time>
</trkpt>
<trkpt lat="48.158844" lon="10.936813">
<ele>575.767</ele>
<time>2022-05-25T13:18:54Z</time>
</trkpt>
<trkpt lat="48.15881" lon="10.936865">
<ele>575.767</ele>
<time>2022-05-25T13:18:55Z</time>
</trkpt>
<trkpt lat="48.158783" lon="10.936918">
<ele>575.767</ele>
<time>2022-05-25T13:18:56Z</time>
</trkpt>
<trkpt lat="48.158752" lon="10.936974">
<ele>575.767</ele>
<time>2022-05-25T13:18:57Z</time>
</trkpt>
<trkpt lat="48.158722" lon="10.937028">
<ele>575.767</ele>
<time>2022-05-25T13:18:58Z</time>
</trkpt>
<trkpt lat="48.158688" lon="10.937082">
<ele>575.767</ele>
<time>2022-05-25T13:18:59Z</time>
</trkpt>
<trkpt lat="48.158657" lon="10.937135">
<ele>575.767</ele>
<time>2022-05-25T13:19:00Z</time>
</trkpt>
<trkpt lat="48.158627" lon="10.93719">
<ele>575.767</ele>
<time>2022-05-25T13:19:01Z</time>
</trkpt>
<trkpt lat="48.158596" lon="10.937243">
<ele>575.767</ele>
<time>2022-05-25T13:19:02Z</time>
</trkpt>
<trkpt lat="48.158562" lon="10.9373">
<ele>575.767</ele>
<time>2022-05-25T13:19:03Z</time>
</trkpt>
<trkpt lat="48.158531" lon="10.937353">
<ele>575.767</ele>
<time>2022-05-25T13:19:04Z</time>
</trkpt>
<trkpt lat="48.158501" lon="10.937408">
<ele>575.767</ele>
<time>2022-05-25T13:19:05Z</time>
</trkpt>
<trkpt lat="48.15847" lon="10.937462">
<ele>575.767</ele>
<time>2022-05-25T13:19:06Z</time>
</trkpt>
<trkpt lat="48.158436" lon="10.937516">
<ele>575.767</ele>
<time>2022-05-25T13:19:07Z</time>
</trkpt>
<trkpt lat="48.158405" lon="10.937572">
<ele>575.767</ele>
<time>2022-05-25T13:19:08Z</time>
</trkpt>
<trkpt lat="48.158371" lon="10.937629">
<ele>575.767</ele>
<time>2022-05-25T13:19:09Z</time>
</trkpt>
<trkpt lat="48.15834" lon="10.937683">
<ele>575.767</ele>
<time>2022-05-25T13:19:10Z</time>
</trkpt>
<trkpt lat="48.15831" lon="10.937737">
<ele>575.981</ele>
<time>2022-05-25T13:19:11Z</time>
</trkpt>
<trkpt lat="48.158276" lon="10.937788">
<ele>576.183</ele>
<time>2022-05-25T13:19:12Z</time>
</trkpt>
<trkpt lat="48.158245" lon="10.937841">
<ele>576.348</ele>
<time>2022-05-25T13:19:13Z</time>
</trkpt>
<trkpt lat="48.158215" lon="10.937897">
<ele>576.479</ele>
<time>2022-05-25T13:19:14Z</time>
</trkpt>
<trkpt lat="48.158188" lon="10.937952">
<ele>576.565</ele>
<time>2022-05-25T13:19:15Z</time>
</trkpt>
<trkpt lat="48.158157" lon="10.938004">
<ele>576.857</ele>
<time>2022-05-25T13:19:16Z</time>
</trkpt>
<trkpt lat="48.158127" lon="10.938059">
<ele>577.089</ele>
<time>2022-05-25T13:19:17Z</time>
</trkpt>
<trkpt lat="48.1581" lon="10.93811">
<ele>577.263</ele>
<time>2022-05-25T13:19:18Z</time>
</trkpt>
<trkpt lat="48.158073" lon="10.938162">
<ele>577.399</ele>
<time>2022-05-25T13:19:19Z</time>
</trkpt>
<trkpt lat="48.158047" lon="10.938215">
<ele>577.456</ele>
<time>2022-05-25T13:19:20Z</time>
</trkpt>
<trkpt lat="48.158016" lon="10.93827">
<ele>577.74</ele>
<time>2022-05-25T13:19:21Z</time>
</trkpt>
<trkpt lat="48.15799" lon="10.938323">
<ele>577.989</ele>
<time>2022-05-25T13:19:22Z</time>
</trkpt>
<trkpt lat="48.157967" lon="10.938378">
<ele>578.18</ele>
<time>2022-05-25T13:19:23Z</time>
</trkpt>
<trkpt lat="48.15794" lon="10.938434">
<ele>578.314</ele>
<time>2022-05-25T13:19:24Z</time>
</trkpt>
<trkpt lat="48.157913" lon="10.938486">
<ele>578.401</ele>
<time>2022-05-25T13:19:25Z</time>
</trkpt>
<trkpt lat="48.157883" lon="10.938542">
<ele>578.762</ele>
<time>2022-05-25T13:19:26Z</time>
</trkpt>
<trkpt lat="48.15786" lon="10.938597">
<ele>579.047</ele>
<time>2022-05-25T13:19:27Z</time>
</trkpt>
<trkpt lat="48.157833" lon="10.93865">
<ele>579.262</ele>
<time>2022-05-25T13:19:28Z</time>
</trkpt>
<trkpt lat="48.157806" lon="10.938705">
<ele>579.406</ele>
<time>2022-05-25T13:19:29Z</time>
</trkpt>
<trkpt lat="48.15778" lon="10.93876">
<ele>579.749</ele>
<time>2022-05-25T13:19:30Z</time>
</trkpt>
<trkpt lat="48.157753" lon="10.938817">
<ele>580.004</ele>
<time>2022-05-25T13:19:31Z</time>
</trkpt>
<trkpt lat="48.15773" lon="10.938869">
<ele>580.24</ele>
<time>2022-05-25T13:19:32Z</time>
</trkpt>
<trkpt lat="48.157703" lon="10.938924">
<ele>580.408</ele>
<time>2022-05-25T13:19:33Z</time>
</trkpt>
<trkpt lat="48.157681" lon="10.938974">
<ele>580.513</ele>
<time>2022-05-25T13:19:34Z</time>
</trkpt>
<trkpt lat="48.157654" lon="10.939029">
<ele>580.589</ele>
<time>2022-05-25T13:19:35Z</time>
</trkpt>
<trkpt lat="48.157627" lon="10.939078">
<ele>580.638</ele>
<time>2022-05-25T13:19:36Z</time>
</trkpt>
<trkpt lat="48.1576" lon="10.93913">
<ele>580.66</ele>
<time>2022-05-25T13:19:37Z</time>
</trkpt>
<trkpt lat="48.157578" lon="10.939175">
<ele>580.66</ele>
<time>2022-05-25T13:19:38Z</time>
</trkpt>
<trkpt lat="48.157551" lon="10.939227">
<ele>580.66</ele>
<time>2022-05-25T13:19:39Z</time>
</trkpt>
<trkpt lat="48.157524" lon="10.939274">
<ele>580.661</ele>
<time>2022-05-25T13:19:40Z</time>
</trkpt>
<trkpt lat="48.157494" lon="10.93932">
<ele>580.66</ele>
<time>2022-05-25T13:19:41Z</time>
</trkpt>
<trkpt lat="48.157467" lon="10.93937">
<ele>580.66</ele>
<time>2022-05-25T13:19:42Z</time>
</trkpt>
<trkpt lat="48.15744" lon="10.93942">
<ele>580.66</ele>
<time>2022-05-25T13:19:43Z</time>
</trkpt>
<trkpt lat="48.157413" lon="10.939472">
<ele>580.66</ele>
<time>2022-05-25T13:19:44Z</time>
</trkpt>
<trkpt lat="48.157387" lon="10.939519">
<ele>580.661</ele>
<time>2022-05-25T13:19:45Z</time>
</trkpt>
<trkpt lat="48.157364" lon="10.939565">
<ele>580.921</ele>
<time>2022-05-25T13:19:46Z</time>
</trkpt>
<trkpt lat="48.157333" lon="10.939611">
<ele>581.124</ele>
<time>2022-05-25T13:19:47Z</time>
</trkpt>
<trkpt lat="48.157307" lon="10.939653">
<ele>581.282</ele>
<time>2022-05-25T13:19:48Z</time>
</trkpt>
<trkpt lat="48.157276" lon="10.9397">
<ele>581.396</ele>
<time>2022-05-25T13:19:49Z</time>
</trkpt>
<trkpt lat="48.157246" lon="10.93975">
<ele>581.478</ele>
<time>2022-05-25T13:19:50Z</time>
</trkpt>
<trkpt lat="48.157215" lon="10.939799">
<ele>581.539</ele>
<time>2022-05-25T13:19:51Z</time>
</trkpt>
<trkpt lat="48.157185" lon="10.939852">
<ele>581.594</ele>
<time>2022-05-25T13:19:52Z</time>
</trkpt>
<trkpt lat="48.15715" lon="10.9399">
<ele>581.622</ele>
<time>2022-05-25T13:19:53Z</time>
</trkpt>
<trkpt lat="48.15712" lon="10.939952">
<ele>581.622</ele>
<time>2022-05-25T13:19:54Z</time>
</trkpt>
<trkpt lat="48.157082" lon="10.940011">
<ele>581.622</ele>
<time>2022-05-25T13:19:55Z</time>
</trkpt>
<trkpt lat="48.157047" lon="10.940067">
<ele>581.622</ele>
<time>2022-05-25T13:19:56Z</time>
</trkpt>
<trkpt lat="48.157013" lon="10.940118">
<ele>581.622</ele>
<time>2022-05-25T13:19:57Z</time>
</trkpt>
<trkpt lat="48.156975" lon="10.940172">
<ele>581.622</ele>
<time>2022-05-25T13:19:58Z</time>
</trkpt>
<trkpt lat="48.15694" lon="10.940229">
<ele>581.622</ele>
<time>2022-05-25T13:19:59Z</time>
</trkpt>
<trkpt lat="48.15691" lon="10.940288">
<ele>581.622</ele>
<time>2022-05-25T13:20:00Z</time>
</trkpt>
<trkpt lat="48.156876" lon="10.940347">
<ele>581.622</ele>
<time>2022-05-25T13:20:01Z</time>
</trkpt>
<trkpt lat="48.156853" lon="10.940409">
<ele>581.622</ele>
<time>2022-05-25T13:20:02Z</time>
</trkpt>
<trkpt lat="48.15683" lon="10.940466">
<ele>581.622</ele>
<time>2022-05-25T13:20:03Z</time>
</trkpt>
<trkpt lat="48.156799" lon="10.940531">
<ele>581.345</ele>
<time>2022-05-25T13:20:04Z</time>
</trkpt>
<trkpt lat="48.156765" lon="10.940605">
<ele>581.127</ele>
<time>2022-05-25T13:20:05Z</time>
</trkpt>
<trkpt lat="48.156723" lon="10.940675">
<ele>580.963</ele>
<time>2022-05-25T13:20:06Z</time>
</trkpt>
<trkpt lat="48.156677" lon="10.940751">
<ele>580.867</ele>
<time>2022-05-25T13:20:07Z</time>
</trkpt>
<trkpt lat="48.156639" lon="10.94082">
<ele>580.509</ele>
<time>2022-05-25T13:20:08Z</time>
</trkpt>
<trkpt lat="48.156605" lon="10.940885">
<ele>580.252</ele>
<time>2022-05-25T13:20:09Z</time>
</trkpt>
<trkpt lat="48.156567" lon="10.94096">
<ele>580.064</ele>
<time>2022-05-25T13:20:10Z</time>
</trkpt>
<trkpt lat="48.156528" lon="10.941027">
<ele>579.945</ele>
<time>2022-05-25T13:20:11Z</time>
</trkpt>
<trkpt lat="48.15649" lon="10.941082">
<ele>579.847</ele>
<time>2022-05-25T13:20:12Z</time>
</trkpt>
<trkpt lat="48.156448" lon="10.941138">
<ele>579.775</ele>
<time>2022-05-25T13:20:13Z</time>
</trkpt>
<trkpt lat="48.156406" lon="10.941201">
<ele>579.724</ele>
<time>2022-05-25T13:20:14Z</time>
</trkpt>
<trkpt lat="48.156357" lon="10.941247">
<ele>579.699</ele>
<time>2022-05-25T13:20:15Z</time>
</trkpt>
<trkpt lat="48.156315" lon="10.941299">
<ele>579.699</ele>
<time>2022-05-25T13:20:16Z</time>
</trkpt>
<trkpt lat="48.156281" lon="10.941357">
<ele>579.699</ele>
<time>2022-05-25T13:20:17Z</time>
</trkpt>
<trkpt lat="48.156246" lon="10.94141">
<ele>579.699</ele>
<time>2022-05-25T13:20:18Z</time>
</trkpt>
<trkpt lat="48.156212" lon="10.941467">
<ele>579.699</ele>
<time>2022-05-25T13:20:19Z</time>
</trkpt>
<trkpt lat="48.156174" lon="10.94152">
<ele>579.989</ele>
<time>2022-05-25T13:20:20Z</time>
</trkpt>
<trkpt lat="48.156151" lon="10.941576">
<ele>580.197</ele>
<time>2022-05-25T13:20:21Z</time>
</trkpt>
<trkpt lat="48.15612" lon="10.941635">
<ele>580.406</ele>
<time>2022-05-25T13:20:22Z</time>
</trkpt>
<trkpt lat="48.15609" lon="10.941685">
<ele>580.588</ele>
<time>2022-05-25T13:20:23Z</time>
</trkpt>
<trkpt lat="48.156059" lon="10.941735">
<ele>580.724</ele>
<time>2022-05-25T13:20:24Z</time>
</trkpt>
<trkpt lat="48.156025" lon="10.941787">
<ele>580.828</ele>
<time>2022-05-25T13:20:25Z</time>
</trkpt>
<trkpt lat="48.155994" lon="10.941836">
<ele>580.892</ele>
<time>2022-05-25T13:20:26Z</time>
</trkpt>
<trkpt lat="48.155968" lon="10.941882">
<ele>580.922</ele>
<time>2022-05-25T13:20:27Z</time>
</trkpt>
<trkpt lat="48.155937" lon="10.941928">
<ele>580.922</ele>
<time>2022-05-25T13:20:28Z</time>
</trkpt>
<trkpt lat="48.15591" lon="10.941974">
<ele>581.135</ele>
<time>2022-05-25T13:20:29Z</time>
</trkpt>
<trkpt lat="48.155884" lon="10.94203">
<ele>581.306</ele>
<time>2022-05-25T13:20:30Z</time>
</trkpt>
<trkpt lat="48.155869" lon="10.942097">
<ele>581.427</ele>
<time>2022-05-25T13:20:31Z</time>
</trkpt>
<trkpt lat="48.155846" lon="10.942145">
<ele>581.555</ele>
<time>2022-05-25T13:20:32Z</time>
</trkpt>
<trkpt lat="48.155827" lon="10.942204">
<ele>581.656</ele>
<time>2022-05-25T13:20:33Z</time>
</trkpt>
<trkpt lat="48.155804" lon="10.942253">
<ele>581.729</ele>
<time>2022-05-25T13:20:34Z</time>
</trkpt>
<trkpt lat="48.155788" lon="10.942311">
<ele>581.773</ele>
<time>2022-05-25T13:20:35Z</time>
</trkpt>
<trkpt lat="48.155766" lon="10.94236">
<ele>582.027</ele>
<time>2022-05-25T13:20:36Z</time>
</trkpt>
<trkpt lat="48.155743" lon="10.942409">
<ele>582.256</ele>
<time>2022-05-25T13:20:37Z</time>
</trkpt>
<trkpt lat="48.155731" lon="10.942456">
<ele>582.408</ele>
<time>2022-05-25T13:20:38Z</time>
</trkpt>
<trkpt lat="48.155708" lon="10.942511">
<ele>582.528</ele>
<time>2022-05-25T13:20:39Z</time>
</trkpt>
<trkpt lat="48.155689" lon="10.942569">
<ele>582.595</ele>
<time>2022-05-25T13:20:40Z</time>
</trkpt>
<trkpt lat="48.15567" lon="10.942632">
<ele>582.867</ele>
<time>2022-05-25T13:20:41Z</time>
</trkpt>
<trkpt lat="48.155651" lon="10.942691">
<ele>583.119</ele>
<time>2022-05-25T13:20:42Z</time>
</trkpt>
<trkpt lat="48.155636" lon="10.942748">
<ele>583.294</ele>
<time>2022-05-25T13:20:43Z</time>
</trkpt>
<trkpt lat="48.155632" lon="10.942803">
<ele>583.418</ele>
<time>2022-05-25T13:20:44Z</time>
</trkpt>
<trkpt lat="48.155632" lon="10.942861">
<ele>583.496</ele>
<time>2022-05-25T13:20:45Z</time>
</trkpt>
<trkpt lat="48.155636" lon="10.942915">
<ele>583.8</ele>
<time>2022-05-25T13:20:46Z</time>
</trkpt>
<trkpt lat="48.155636" lon="10.942971">
<ele>584.028</ele>
<time>2022-05-25T13:20:47Z</time>
</trkpt>
<trkpt lat="48.155643" lon="10.943026">
<ele>584.179</ele>
<time>2022-05-25T13:20:48Z</time>
</trkpt>
<trkpt lat="48.155651" lon="10.943074">
<ele>584.59</ele>
<time>2022-05-25T13:20:49Z</time>
</trkpt>
<trkpt lat="48.155659" lon="10.943122">
<ele>584.851</ele>
<time>2022-05-25T13:20:50Z</time>
</trkpt>
<trkpt lat="48.155666" lon="10.943162">
<ele>585.322</ele>
<time>2022-05-25T13:20:51Z</time>
</trkpt>
<trkpt lat="48.155678" lon="10.9432">
<ele>585.726</ele>
<time>2022-05-25T13:20:52Z</time>
</trkpt>
<trkpt lat="48.155697" lon="10.943233">
<ele>586.03</ele>
<time>2022-05-25T13:20:53Z</time>
</trkpt>
<trkpt lat="48.155716" lon="10.943275">
<ele>586.227</ele>
<time>2022-05-25T13:20:54Z</time>
</trkpt>
<trkpt lat="48.155731" lon="10.943316">
<ele>586.629</ele>
<time>2022-05-25T13:20:55Z</time>
</trkpt>
<trkpt lat="48.15575" lon="10.943352">
<ele>586.944</ele>
<time>2022-05-25T13:20:56Z</time>
</trkpt>
<trkpt lat="48.155769" lon="10.943384">
<ele>587.168</ele>
<time>2022-05-25T13:20:57Z</time>
</trkpt>
<trkpt lat="48.155792" lon="10.943414">
<ele>587.331</ele>
<time>2022-05-25T13:20:58Z</time>
</trkpt>
<trkpt lat="48.155815" lon="10.943443">
<ele>587.438</ele>
<time>2022-05-25T13:20:59Z</time>
</trkpt>
<trkpt lat="48.15583" lon="10.943474">
<ele>587.706</ele>
<time>2022-05-25T13:21:00Z</time>
</trkpt>
<trkpt lat="48.155849" lon="10.943506">
<ele>587.907</ele>
<time>2022-05-25T13:21:01Z</time>
</trkpt>
<trkpt lat="48.155865" lon="10.943535">
<ele>588.076</ele>
<time>2022-05-25T13:21:02Z</time>
</trkpt>
<trkpt lat="48.155884" lon="10.943563">
<ele>588.204</ele>
<time>2022-05-25T13:21:03Z</time>
</trkpt>
<trkpt lat="48.155895" lon="10.943595">
<ele>588.306</ele>
<time>2022-05-25T13:21:04Z</time>
</trkpt>
<trkpt lat="48.155914" lon="10.943627">
<ele>588.368</ele>
<time>2022-05-25T13:21:05Z</time>
</trkpt>
<trkpt lat="48.15593" lon="10.943659">
<ele>588.666</ele>
<time>2022-05-25T13:21:06Z</time>
</trkpt>
<trkpt lat="48.155941" lon="10.94369">
<ele>588.903</ele>
<time>2022-05-25T13:21:07Z</time>
</trkpt>
<trkpt lat="48.155956" lon="10.943722">
<ele>589.121</ele>
<time>2022-05-25T13:21:08Z</time>
</trkpt>
<trkpt lat="48.155983" lon="10.943745">
<ele>589.25</ele>
<time>2022-05-25T13:21:09Z</time>
</trkpt>
<trkpt lat="48.156002" lon="10.94376">
<ele>589.34</ele>
<time>2022-05-25T13:21:10Z</time>
</trkpt>
<trkpt lat="48.156033" lon="10.943776">
<ele>589.405</ele>
<time>2022-05-25T13:21:11Z</time>
</trkpt>
<trkpt lat="48.156055" lon="10.943797">
<ele>589.465</ele>
<time>2022-05-25T13:21:12Z</time>
</trkpt>
<trkpt lat="48.156071" lon="10.943824">
<ele>589.493</ele>
<time>2022-05-25T13:21:13Z</time>
</trkpt>
<trkpt lat="48.15609" lon="10.943855">
<ele>589.777</ele>
<time>2022-05-25T13:21:14Z</time>
</trkpt>
<trkpt lat="48.156113" lon="10.943885">
<ele>589.99</ele>
<time>2022-05-25T13:21:15Z</time>
</trkpt>
<trkpt lat="48.156132" lon="10.943916">
<ele>590.157</ele>
<time>2022-05-25T13:21:16Z</time>
</trkpt>
<trkpt lat="48.156155" lon="10.943954">
<ele>590.269</ele>
<time>2022-05-25T13:21:17Z</time>
</trkpt>
<trkpt lat="48.156174" lon="10.94399">
<ele>590.356</ele>
<time>2022-05-25T13:21:18Z</time>
</trkpt>
<trkpt lat="48.156197" lon="10.94403">
<ele>590.408</ele>
<time>2022-05-25T13:21:19Z</time>
</trkpt>
<trkpt lat="48.156227" lon="10.944067">
<ele>590.437</ele>
<time>2022-05-25T13:21:20Z</time>
</trkpt>
<trkpt lat="48.15625" lon="10.944107">
<ele>590.455</ele>
<time>2022-05-25T13:21:21Z</time>
</trkpt>
<trkpt lat="48.156269" lon="10.944143">
<ele>590.455</ele>
<time>2022-05-25T13:21:22Z</time>
</trkpt>
<trkpt lat="48.156288" lon="10.944175">
<ele>590.455</ele>
<time>2022-05-25T13:21:23Z</time>
</trkpt>
<trkpt lat="48.156315" lon="10.94421">
<ele>590.455</ele>
<time>2022-05-25T13:21:24Z</time>
</trkpt>
<trkpt lat="48.156338" lon="10.944247">
<ele>590.455</ele>
<time>2022-05-25T13:21:25Z</time>
</trkpt>
<trkpt lat="48.156353" lon="10.944288">
<ele>590.455</ele>
<time>2022-05-25T13:21:26Z</time>
</trkpt>
<trkpt lat="48.156376" lon="10.944329">
<ele>590.729</ele>
<time>2022-05-25T13:21:27Z</time>
</trkpt>
<trkpt lat="48.156391" lon="10.944371">
<ele>590.944</ele>
<time>2022-05-25T13:21:28Z</time>
</trkpt>
<trkpt lat="48.156414" lon="10.944419">
<ele>591.118</ele>
<time>2022-05-25T13:21:29Z</time>
</trkpt>
<trkpt lat="48.156433" lon="10.944464">
<ele>591.251</ele>
<time>2022-05-25T13:21:30Z</time>
</trkpt>
<trkpt lat="48.156448" lon="10.944511">
<ele>591.336</ele>
<time>2022-05-25T13:21:31Z</time>
</trkpt>
<trkpt lat="48.156471" lon="10.944562">
<ele>591.419</ele>
<time>2022-05-25T13:21:32Z</time>
</trkpt>
<trkpt lat="48.15649" lon="10.944613">
<ele>591.479</ele>
<time>2022-05-25T13:21:33Z</time>
</trkpt>
<trkpt lat="48.156513" lon="10.944662">
<ele>591.505</ele>
<time>2022-05-25T13:21:34Z</time>
</trkpt>
<trkpt lat="48.156532" lon="10.944712">
<ele>591.505</ele>
<time>2022-05-25T13:21:35Z</time>
</trkpt>
<trkpt lat="48.156551" lon="10.944763">
<ele>591.505</ele>
<time>2022-05-25T13:21:36Z</time>
</trkpt>
<trkpt lat="48.156574" lon="10.944817">
<ele>591.505</ele>
<time>2022-05-25T13:21:37Z</time>
</trkpt>
<trkpt lat="48.15659" lon="10.94487">
<ele>591.505</ele>
<time>2022-05-25T13:21:38Z</time>
</trkpt>
<trkpt lat="48.156612" lon="10.944921">
<ele>591.505</ele>
<time>2022-05-25T13:21:39Z</time>
</trkpt>
<trkpt lat="48.156643" lon="10.944972">
<ele>591.505</ele>
<time>2022-05-25T13:21:40Z</time>
</trkpt>
<trkpt lat="48.156673" lon="10.945017">
<ele>591.505</ele>
<time>2022-05-25T13:21:41Z</time>
</trkpt>
<trkpt lat="48.156704" lon="10.94506">
<ele>591.505</ele>
<time>2022-05-25T13:21:42Z</time>
</trkpt>
<trkpt lat="48.156734" lon="10.945102">
<ele>591.505</ele>
<time>2022-05-25T13:21:43Z</time>
</trkpt>
<trkpt lat="48.156769" lon="10.945144">
<ele>591.505</ele>
<time>2022-05-25T13:21:44Z</time>
</trkpt>
<trkpt lat="48.156807" lon="10.945187">
<ele>591.505</ele>
<time>2022-05-25T13:21:45Z</time>
</trkpt>
<trkpt lat="48.156841" lon="10.945226">
<ele>591.505</ele>
<time>2022-05-25T13:21:46Z</time>
</trkpt>
<trkpt lat="48.156879" lon="10.945265">
<ele>591.505</ele>
<time>2022-05-25T13:21:47Z</time>
</trkpt>
<trkpt lat="48.156918" lon="10.945301">
<ele>591.505</ele>
<time>2022-05-25T13:21:48Z</time>
</trkpt>
<trkpt lat="48.156948" lon="10.945341">
<ele>591.505</ele>
<time>2022-05-25T13:21:49Z</time>
</trkpt>
<trkpt lat="48.156982" lon="10.945381">
<ele>591.505</ele>
<time>2022-05-25T13:21:50Z</time>
</trkpt>
<trkpt lat="48.157017" lon="10.945421">
<ele>591.505</ele>
<time>2022-05-25T13:21:51Z</time>
</trkpt>
<trkpt lat="48.157051" lon="10.945458">
<ele>591.505</ele>
<time>2022-05-25T13:21:52Z</time>
</trkpt>
<trkpt lat="48.157082" lon="10.945495">
<ele>591.505</ele>
<time>2022-05-25T13:21:53Z</time>
</trkpt>
<trkpt lat="48.157112" lon="10.945534">
<ele>591.505</ele>
<time>2022-05-25T13:21:54Z</time>
</trkpt>
<trkpt lat="48.157139" lon="10.94557">
<ele>591.505</ele>
<time>2022-05-25T13:21:55Z</time>
</trkpt>
<trkpt lat="48.157162" lon="10.945613">
<ele>591.505</ele>
<time>2022-05-25T13:21:56Z</time>
</trkpt>
<trkpt lat="48.157177" lon="10.945663">
<ele>591.505</ele>
<time>2022-05-25T13:21:57Z</time>
</trkpt>
<trkpt lat="48.157188" lon="10.945707">
<ele>591.505</ele>
<time>2022-05-25T13:21:58Z</time>
</trkpt>
<trkpt lat="48.157196" lon="10.945745">
<ele>591.505</ele>
<time>2022-05-25T13:21:59Z</time>
</trkpt>
<trkpt lat="48.1572" lon="10.94578">
<ele>591.505</ele>
<time>2022-05-25T13:22:00Z</time>
</trkpt>
<trkpt lat="48.157204" lon="10.945808">
<ele>591.505</ele>
<time>2022-05-25T13:22:01Z</time>
</trkpt>
<trkpt lat="48.157204" lon="10.945827">
<ele>591.505</ele>
<time>2022-05-25T13:22:02Z</time>
</trkpt>
<trkpt lat="48.157204" lon="10.945831">
<ele>591.505</ele>
<time>2022-05-25T13:22:03Z</time>
</trkpt>
<trkpt lat="48.1572" lon="10.945853">
<ele>591.505</ele>
<time>2022-05-25T13:22:22Z</time>
</trkpt>
<trkpt lat="48.157204" lon="10.945856">
<ele>591.505</ele>
<time>2022-05-25T13:22:23Z</time>
</trkpt>
<trkpt lat="48.157204" lon="10.94586">
<ele>591.505</ele>
<time>2022-05-25T13:22:24Z</time>
</trkpt>
<trkpt lat="48.157196" lon="10.945863">
<ele>591.505</ele>
<time>2022-05-25T13:24:34Z</time>
</trkpt>
<trkpt lat="48.157192" lon="10.945863">
<ele>591.659</ele>
<time>2022-05-25T13:24:37Z</time>
</trkpt>
<trkpt lat="48.157196" lon="10.945886">
<ele>591.832</ele>
<time>2022-05-25T13:24:51Z</time>
</trkpt>
<trkpt lat="48.1572" lon="10.945889">
<ele>591.965</ele>
<time>2022-05-25T13:24:52Z</time>
</trkpt>
<trkpt lat="48.1572" lon="10.94589">
<ele>592.055</ele>
<time>2022-05-25T13:24:53Z</time>
</trkpt>
<trkpt lat="48.157196" lon="10.94589">
<ele>592.221</ele>
<time>2022-05-25T13:24:54Z</time>
</trkpt>
<trkpt lat="48.157192" lon="10.94592">
<ele>592.265</ele>
<time>2022-05-25T13:26:02Z</time>
</trkpt>
<trkpt lat="48.157192" lon="10.94594">
<ele>592.287</ele>
<time>2022-05-25T13:26:03Z</time>
</trkpt>
<trkpt lat="48.157188" lon="10.945963">
<ele>592.293</ele>
<time>2022-05-25T13:26:04Z</time>
</trkpt>
<trkpt lat="48.157185" lon="10.945995">
<ele>592.293</ele>
<time>2022-05-25T13:26:05Z</time>
</trkpt>
<trkpt lat="48.157181" lon="10.946032">
<ele>592.293</ele>
<time>2022-05-25T13:26:06Z</time>
</trkpt>
<trkpt lat="48.157177" lon="10.94607">
<ele>592.293</ele>
<time>2022-05-25T13:26:07Z</time>
</trkpt>
<trkpt lat="48.157173" lon="10.946105">
<ele>592.293</ele>
<time>2022-05-25T13:26:08Z</time>
</trkpt>
<trkpt lat="48.157166" lon="10.946141">
<ele>592.293</ele>
<time>2022-05-25T13:26:09Z</time>
</trkpt>
<trkpt lat="48.157162" lon="10.946181">
<ele>592.293</ele>
<time>2022-05-25T13:26:10Z</time>
</trkpt>
<trkpt lat="48.157154" lon="10.94622">
<ele>592.293</ele>
<time>2022-05-25T13:26:11Z</time>
</trkpt>
<trkpt lat="48.157146" lon="10.946259">
<ele>592.293</ele>
<time>2022-05-25T13:26:12Z</time>
</trkpt>
<trkpt lat="48.157139" lon="10.946299">
<ele>592.293</ele>
<time>2022-05-25T13:26:13Z</time>
</trkpt>
<trkpt lat="48.157135" lon="10.946342">
<ele>592.293</ele>
<time>2022-05-25T13:26:14Z</time>
</trkpt>
<trkpt lat="48.157127" lon="10.946386">
<ele>592.293</ele>
<time>2022-05-25T13:26:15Z</time>
</trkpt>
<trkpt lat="48.157116" lon="10.946433">
<ele>592.293</ele>
<time>2022-05-25T13:26:16Z</time>
</trkpt>
<trkpt lat="48.157104" lon="10.946485">
<ele>592.293</ele>
<time>2022-05-25T13:26:17Z</time>
</trkpt>
<trkpt lat="48.157097" lon="10.946538">
<ele>592.293</ele>
<time>2022-05-25T13:26:18Z</time>
</trkpt>
<trkpt lat="48.157085" lon="10.946593">
<ele>592.293</ele>
<time>2022-05-25T13:26:19Z</time>
</trkpt>
<trkpt lat="48.157074" lon="10.946647">
<ele>592.292</ele>
<time>2022-05-25T13:26:20Z</time>
</trkpt>
<trkpt lat="48.157066" lon="10.946701">
<ele>592.293</ele>
<time>2022-05-25T13:26:21Z</time>
</trkpt>
<trkpt lat="48.157055" lon="10.946755">
<ele>592.293</ele>
<time>2022-05-25T13:26:22Z</time>
</trkpt>
<trkpt lat="48.157043" lon="10.94681">
<ele>592.293</ele>
<time>2022-05-25T13:26:23Z</time>
</trkpt>
<trkpt lat="48.157036" lon="10.946866">
<ele>592.293</ele>
<time>2022-05-25T13:26:24Z</time>
</trkpt>
<trkpt lat="48.157024" lon="10.946925">
<ele>592.293</ele>
<time>2022-05-25T13:26:25Z</time>
</trkpt>
<trkpt lat="48.157013" lon="10.946985">
<ele>592.293</ele>
<time>2022-05-25T13:26:26Z</time>
</trkpt>
<trkpt lat="48.157005" lon="10.947044">
<ele>592.293</ele>
<time>2022-05-25T13:26:27Z</time>
</trkpt>
<trkpt lat="48.156998" lon="10.947105">
<ele>592.293</ele>
<time>2022-05-25T13:26:28Z</time>
</trkpt>
<trkpt lat="48.156982" lon="10.947162">
<ele>592.293</ele>
<time>2022-05-25T13:26:29Z</time>
</trkpt>
<trkpt lat="48.156971" lon="10.947218">
<ele>592.293</ele>
<time>2022-05-25T13:26:30Z</time>
</trkpt>
<trkpt lat="48.156963" lon="10.947277">
<ele>592.293</ele>
<time>2022-05-25T13:26:31Z</time>
</trkpt>
<trkpt lat="48.156952" lon="10.947337">
<ele>592.293</ele>
<time>2022-05-25T13:26:32Z</time>
</trkpt>
<trkpt lat="48.15694" lon="10.947398">
<ele>592.293</ele>
<time>2022-05-25T13:26:33Z</time>
</trkpt>
<trkpt lat="48.156933" lon="10.947458">
<ele>592.293</ele>
<time>2022-05-25T13:26:34Z</time>
</trkpt>
<trkpt lat="48.156921" lon="10.947518">
<ele>592.293</ele>
<time>2022-05-25T13:26:35Z</time>
</trkpt>
<trkpt lat="48.15691" lon="10.947581">
<ele>592.293</ele>
<time>2022-05-25T13:26:36Z</time>
</trkpt>
<trkpt lat="48.156902" lon="10.947645">
<ele>592.293</ele>
<time>2022-05-25T13:26:37Z</time>
</trkpt>
<trkpt lat="48.156891" lon="10.947706">
<ele>592.53</ele>
<time>2022-05-25T13:26:38Z</time>
</trkpt>
<trkpt lat="48.156879" lon="10.947769">
<ele>592.698</ele>
<time>2022-05-25T13:26:39Z</time>
</trkpt>
<trkpt lat="48.156868" lon="10.94783">
<ele>592.868</ele>
<time>2022-05-25T13:26:40Z</time>
</trkpt>
<trkpt lat="48.156857" lon="10.94789">
<ele>593.004</ele>
<time>2022-05-25T13:26:41Z</time>
</trkpt>
<trkpt lat="48.156845" lon="10.947951">
<ele>593.109</ele>
<time>2022-05-25T13:26:42Z</time>
</trkpt>
<trkpt lat="48.156837" lon="10.948014">
<ele>593.184</ele>
<time>2022-05-25T13:26:43Z</time>
</trkpt>
<trkpt lat="48.156826" lon="10.948078">
<ele>593.231</ele>
<time>2022-05-25T13:26:44Z</time>
</trkpt>
<trkpt lat="48.156811" lon="10.948145">
<ele>593.255</ele>
<time>2022-05-25T13:26:45Z</time>
</trkpt>
<trkpt lat="48.156803" lon="10.948212">
<ele>593.255</ele>
<time>2022-05-25T13:26:46Z</time>
</trkpt>
<trkpt lat="48.156792" lon="10.94828">
<ele>593.255</ele>
<time>2022-05-25T13:26:47Z</time>
</trkpt>
<trkpt lat="48.156784" lon="10.948348">
<ele>593.255</ele>
<time>2022-05-25T13:26:48Z</time>
</trkpt>
<trkpt lat="48.156776" lon="10.948417">
<ele>593.255</ele>
<time>2022-05-25T13:26:49Z</time>
</trkpt>
<trkpt lat="48.156765" lon="10.948485">
<ele>593.255</ele>
<time>2022-05-25T13:26:50Z</time>
</trkpt>
<trkpt lat="48.156754" lon="10.94855">
<ele>593.546</ele>
<time>2022-05-25T13:26:51Z</time>
</trkpt>
<trkpt lat="48.156742" lon="10.948617">
<ele>593.766</ele>
<time>2022-05-25T13:26:52Z</time>
</trkpt>
<trkpt lat="48.156734" lon="10.948682">
<ele>593.934</ele>
<time>2022-05-25T13:26:53Z</time>
</trkpt>
<trkpt lat="48.156719" lon="10.948748">
<ele>594.052</ele>
<time>2022-05-25T13:26:54Z</time>
</trkpt>
<trkpt lat="48.156708" lon="10.948812">
<ele>594.141</ele>
<time>2022-05-25T13:26:55Z</time>
</trkpt>
<trkpt lat="48.156693" lon="10.948877">
<ele>594.193</ele>
<time>2022-05-25T13:26:56Z</time>
</trkpt>
<trkpt lat="48.156677" lon="10.94894">
<ele>594.213</ele>
<time>2022-05-25T13:26:57Z</time>
</trkpt>
<trkpt lat="48.156666" lon="10.949005">
<ele>594.218</ele>
<time>2022-05-25T13:26:58Z</time>
</trkpt>
<trkpt lat="48.156647" lon="10.949068">
<ele>594.218</ele>
<time>2022-05-25T13:26:59Z</time>
</trkpt>
<trkpt lat="48.156635" lon="10.949133">
<ele>594.218</ele>
<time>2022-05-25T13:27:00Z</time>
</trkpt>
<trkpt lat="48.156616" lon="10.949198">
<ele>594.218</ele>
<time>2022-05-25T13:27:01Z</time>
</trkpt>
<trkpt lat="48.156597" lon="10.949262">
<ele>594.218</ele>
<time>2022-05-25T13:27:02Z</time>
</trkpt>
<trkpt lat="48.156582" lon="10.949326">
<ele>594.218</ele>
<time>2022-05-25T13:27:03Z</time>
</trkpt>
<trkpt lat="48.156559" lon="10.949389">
<ele>594.218</ele>
<time>2022-05-25T13:27:04Z</time>
</trkpt>
<trkpt lat="48.15654" lon="10.949453">
<ele>594.218</ele>
<time>2022-05-25T13:27:05Z</time>
</trkpt>
<trkpt lat="48.156517" lon="10.949516">
<ele>594.467</ele>
<time>2022-05-25T13:27:06Z</time>
</trkpt>
<trkpt lat="48.156502" lon="10.94958">
<ele>594.662</ele>
<time>2022-05-25T13:27:07Z</time>
</trkpt>
<trkpt lat="48.156483" lon="10.949643">
<ele>594.812</ele>
<time>2022-05-25T13:27:08Z</time>
</trkpt>
<trkpt lat="48.15646" lon="10.949707">
<ele>594.914</ele>
<time>2022-05-25T13:27:09Z</time>
</trkpt>
<trkpt lat="48.156441" lon="10.949772">
<ele>595.025</ele>
<time>2022-05-25T13:27:10Z</time>
</trkpt>
<trkpt lat="48.156422" lon="10.949839">
<ele>595.105</ele>
<time>2022-05-25T13:27:11Z</time>
</trkpt>
<trkpt lat="48.156403" lon="10.949904">
<ele>595.156</ele>
<time>2022-05-25T13:27:12Z</time>
</trkpt>
<trkpt lat="48.156384" lon="10.949971">
<ele>595.18</ele>
<time>2022-05-25T13:27:13Z</time>
</trkpt>
<trkpt lat="48.156372" lon="10.95004">
<ele>595.18</ele>
<time>2022-05-25T13:27:14Z</time>
</trkpt>
<trkpt lat="48.156353" lon="10.950108">
<ele>595.18</ele>
<time>2022-05-25T13:27:15Z</time>
</trkpt>
<trkpt lat="48.156342" lon="10.950176">
<ele>595.18</ele>
<time>2022-05-25T13:27:16Z</time>
</trkpt>
<trkpt lat="48.156322" lon="10.950243">
<ele>595.18</ele>
<time>2022-05-25T13:27:17Z</time>
</trkpt>
<trkpt lat="48.156311" lon="10.950309">
<ele>595.18</ele>
<time>2022-05-25T13:27:18Z</time>
</trkpt>
<trkpt lat="48.156296" lon="10.950376">
<ele>595.181</ele>
<time>2022-05-25T13:27:19Z</time>
</trkpt>
<trkpt lat="48.156281" lon="10.950443">
<ele>595.18</ele>
<time>2022-05-25T13:27:20Z</time>
</trkpt>
<trkpt lat="48.156265" lon="10.950512">
<ele>595.18</ele>
<time>2022-05-25T13:27:21Z</time>
</trkpt>
<trkpt lat="48.15625" lon="10.950582">
<ele>595.18</ele>
<time>2022-05-25T13:27:22Z</time>
</trkpt>
<trkpt lat="48.156235" lon="10.950654">
<ele>595.18</ele>
<time>2022-05-25T13:27:23Z</time>
</trkpt>
<trkpt lat="48.156223" lon="10.950727">
<ele>595.18</ele>
<time>2022-05-25T13:27:24Z</time>
</trkpt>
<trkpt lat="48.156204" lon="10.9508">
<ele>595.18</ele>
<time>2022-05-25T13:27:25Z</time>
</trkpt>
<trkpt lat="48.156189" lon="10.950876">
<ele>595.18</ele>
<time>2022-05-25T13:27:26Z</time>
</trkpt>
<trkpt lat="48.156174" lon="10.950952">
<ele>595.18</ele>
<time>2022-05-25T13:27:27Z</time>
</trkpt>
<trkpt lat="48.156158" lon="10.951025">
<ele>595.181</ele>
<time>2022-05-25T13:27:28Z</time>
</trkpt>
<trkpt lat="48.156143" lon="10.951098">
<ele>595.18</ele>
<time>2022-05-25T13:27:29Z</time>
</trkpt>
<trkpt lat="48.156128" lon="10.951172">
<ele>595.18</ele>
<time>2022-05-25T13:27:30Z</time>
</trkpt>
<trkpt lat="48.156113" lon="10.951247">
<ele>595.18</ele>
<time>2022-05-25T13:27:31Z</time>
</trkpt>
<trkpt lat="48.156094" lon="10.951321">
<ele>595.18</ele>
<time>2022-05-25T13:27:32Z</time>
</trkpt>
<trkpt lat="48.156082" lon="10.951391">
<ele>595.18</ele>
<time>2022-05-25T13:27:33Z</time>
</trkpt>
<trkpt lat="48.156063" lon="10.951465">
<ele>595.18</ele>
<time>2022-05-25T13:27:34Z</time>
</trkpt>
<trkpt lat="48.156052" lon="10.951533">
<ele>595.18</ele>
<time>2022-05-25T13:27:35Z</time>
</trkpt>
<trkpt lat="48.156029" lon="10.951603">
<ele>595.18</ele>
<time>2022-05-25T13:27:36Z</time>
</trkpt>
<trkpt lat="48.156013" lon="10.951672">
<ele>595.18</ele>
<time>2022-05-25T13:27:37Z</time>
</trkpt>
<trkpt lat="48.155994" lon="10.951738">
<ele>595.18</ele>
<time>2022-05-25T13:27:38Z</time>
</trkpt>
<trkpt lat="48.155972" lon="10.951807">
<ele>595.18</ele>
<time>2022-05-25T13:27:39Z</time>
</trkpt>
<trkpt lat="48.155949" lon="10.951876">
<ele>595.18</ele>
<time>2022-05-25T13:27:40Z</time>
</trkpt>
<trkpt lat="48.155926" lon="10.951943">
<ele>595.18</ele>
<time>2022-05-25T13:27:41Z</time>
</trkpt>
<trkpt lat="48.155903" lon="10.952014">
<ele>595.18</ele>
<time>2022-05-25T13:27:42Z</time>
</trkpt>
<trkpt lat="48.155884" lon="10.952084">
<ele>595.18</ele>
<time>2022-05-25T13:27:43Z</time>
</trkpt>
<trkpt lat="48.155857" lon="10.952152">
<ele>595.18</ele>
<time>2022-05-25T13:27:44Z</time>
</trkpt>
<trkpt lat="48.15583" lon="10.95222">
<ele>595.18</ele>
<time>2022-05-25T13:27:45Z</time>
</trkpt>
<trkpt lat="48.155804" lon="10.952291">
<ele>595.18</ele>
<time>2022-05-25T13:27:46Z</time>
</trkpt>
<trkpt lat="48.155777" lon="10.952357">
<ele>595.18</ele>
<time>2022-05-25T13:27:47Z</time>
</trkpt>
<trkpt lat="48.15575" lon="10.952425">
<ele>595.395</ele>
<time>2022-05-25T13:27:48Z</time>
</trkpt>
<trkpt lat="48.155727" lon="10.952494">
<ele>595.547</ele>
<time>2022-05-25T13:27:49Z</time>
</trkpt>
<trkpt lat="48.155701" lon="10.952561">
<ele>595.702</ele>
<time>2022-05-25T13:27:50Z</time>
</trkpt>
<trkpt lat="48.15567" lon="10.952628">
<ele>595.826</ele>
<time>2022-05-25T13:27:51Z</time>
</trkpt>
<trkpt lat="48.155643" lon="10.952695">
<ele>595.921</ele>
<time>2022-05-25T13:27:52Z</time>
</trkpt>
<trkpt lat="48.155617" lon="10.952762">
<ele>595.99</ele>
<time>2022-05-25T13:27:53Z</time>
</trkpt>
<trkpt lat="48.15559" lon="10.95283">
<ele>596.034</ele>
<time>2022-05-25T13:27:54Z</time>
</trkpt>
<trkpt lat="48.155563" lon="10.9529">
<ele>596.056</ele>
<time>2022-05-25T13:27:55Z</time>
</trkpt>
<trkpt lat="48.155537" lon="10.95297">
<ele>596.056</ele>
<time>2022-05-25T13:27:56Z</time>
</trkpt>
<trkpt lat="48.15551" lon="10.953038">
<ele>596.056</ele>
<time>2022-05-25T13:27:57Z</time>
</trkpt>
<trkpt lat="48.155487" lon="10.953105">
<ele>596.056</ele>
<time>2022-05-25T13:27:58Z</time>
</trkpt>
<trkpt lat="48.15546" lon="10.953173">
<ele>596.056</ele>
<time>2022-05-25T13:27:59Z</time>
</trkpt>
<trkpt lat="48.155434" lon="10.953238">
<ele>596.056</ele>
<time>2022-05-25T13:28:00Z</time>
</trkpt>
<trkpt lat="48.155407" lon="10.953303">
<ele>596.056</ele>
<time>2022-05-25T13:28:01Z</time>
</trkpt>
<trkpt lat="48.155376" lon="10.953368">
<ele>596.056</ele>
<time>2022-05-25T13:28:02Z</time>
</trkpt>
<trkpt lat="48.15535" lon="10.953433">
<ele>596.056</ele>
<time>2022-05-25T13:28:03Z</time>
</trkpt>
<trkpt lat="48.155323" lon="10.953493">
<ele>596.056</ele>
<time>2022-05-25T13:28:04Z</time>
</trkpt>
<trkpt lat="48.155293" lon="10.953553">
<ele>596.056</ele>
<time>2022-05-25T13:28:05Z</time>
</trkpt>
<trkpt lat="48.155266" lon="10.953615">
<ele>596.056</ele>
<time>2022-05-25T13:28:06Z</time>
</trkpt>
<trkpt lat="48.155235" lon="10.953673">
<ele>596.056</ele>
<time>2022-05-25T13:28:07Z</time>
</trkpt>
<trkpt lat="48.155209" lon="10.953733">
<ele>596.309</ele>
<time>2022-05-25T13:28:08Z</time>
</trkpt>
<trkpt lat="48.155178" lon="10.953796">
<ele>596.491</ele>
<time>2022-05-25T13:28:09Z</time>
</trkpt>
<trkpt lat="48.15514" lon="10.953856">
<ele>596.679</ele>
<time>2022-05-25T13:28:10Z</time>
</trkpt>
<trkpt lat="48.155102" lon="10.953917">
<ele>596.831</ele>
<time>2022-05-25T13:28:11Z</time>
</trkpt>
<trkpt lat="48.15506" lon="10.953973">
<ele>596.949</ele>
<time>2022-05-25T13:28:12Z</time>
</trkpt>
<trkpt lat="48.155022" lon="10.954032">
<ele>597.03</ele>
<time>2022-05-25T13:28:13Z</time>
</trkpt>
<trkpt lat="48.154984" lon="10.954092">
<ele>597.082</ele>
<time>2022-05-25T13:28:14Z</time>
</trkpt>
<trkpt lat="48.154949" lon="10.954151">
<ele>597.107</ele>
<time>2022-05-25T13:28:15Z</time>
</trkpt>
<trkpt lat="48.154911" lon="10.954209">
<ele>597.107</ele>
<time>2022-05-25T13:28:16Z</time>
</trkpt>
<trkpt lat="48.154869" lon="10.954267">
<ele>597.106</ele>
<time>2022-05-25T13:28:17Z</time>
</trkpt>
<trkpt lat="48.154831" lon="10.954323">
<ele>597.107</ele>
<time>2022-05-25T13:28:18Z</time>
</trkpt>
<trkpt lat="48.154793" lon="10.954379">
<ele>597.107</ele>
<time>2022-05-25T13:28:19Z</time>
</trkpt>
<trkpt lat="48.154755" lon="10.954432">
<ele>597.107</ele>
<time>2022-05-25T13:28:20Z</time>
</trkpt>
<trkpt lat="48.154713" lon="10.954484">
<ele>597.107</ele>
<time>2022-05-25T13:28:21Z</time>
</trkpt>
<trkpt lat="48.154675" lon="10.954536">
<ele>597.107</ele>
<time>2022-05-25T13:28:22Z</time>
</trkpt>
<trkpt lat="48.154636" lon="10.954593">
<ele>596.864</ele>
<time>2022-05-25T13:28:23Z</time>
</trkpt>
<trkpt lat="48.154598" lon="10.954652">
<ele>596.673</ele>
<time>2022-05-25T13:28:24Z</time>
</trkpt>
<trkpt lat="48.15456" lon="10.954706">
<ele>596.523</ele>
<time>2022-05-25T13:28:25Z</time>
</trkpt>
<trkpt lat="48.154514" lon="10.954762">
<ele>596.415</ele>
<time>2022-05-25T13:28:26Z</time>
</trkpt>
<trkpt lat="48.154472" lon="10.954815">
<ele>596.343</ele>
<time>2022-05-25T13:28:27Z</time>
</trkpt>
<trkpt lat="48.15443" lon="10.95487">
<ele>596.293</ele>
<time>2022-05-25T13:28:28Z</time>
</trkpt>
<trkpt lat="48.154388" lon="10.954926">
<ele>596.255</ele>
<time>2022-05-25T13:28:29Z</time>
</trkpt>
<trkpt lat="48.154346" lon="10.954983">
<ele>596.231</ele>
<time>2022-05-25T13:28:30Z</time>
</trkpt>
<trkpt lat="48.154305" lon="10.955042">
<ele>596.231</ele>
<time>2022-05-25T13:28:31Z</time>
</trkpt>
<trkpt lat="48.154266" lon="10.955098">
<ele>596.231</ele>
<time>2022-05-25T13:28:32Z</time>
</trkpt>
<trkpt lat="48.154228" lon="10.955154">
<ele>596.231</ele>
<time>2022-05-25T13:28:33Z</time>
</trkpt>
<trkpt lat="48.15419" lon="10.955214">
<ele>596.231</ele>
<time>2022-05-25T13:28:34Z</time>
</trkpt>
<trkpt lat="48.154148" lon="10.95527">
<ele>596.231</ele>
<time>2022-05-25T13:28:35Z</time>
</trkpt>
<trkpt lat="48.15411" lon="10.95533">
<ele>596.231</ele>
<time>2022-05-25T13:28:36Z</time>
</trkpt>
<trkpt lat="48.154072" lon="10.955387">
<ele>596.231</ele>
<time>2022-05-25T13:28:37Z</time>
</trkpt>
<trkpt lat="48.154037" lon="10.955445">
<ele>596.231</ele>
<time>2022-05-25T13:28:38Z</time>
</trkpt>
<trkpt lat="48.153999" lon="10.955503">
<ele>596.231</ele>
<time>2022-05-25T13:28:39Z</time>
</trkpt>
<trkpt lat="48.153961" lon="10.955564">
<ele>596.231</ele>
<time>2022-05-25T13:28:40Z</time>
</trkpt>
<trkpt lat="48.153927" lon="10.955622">
<ele>596.231</ele>
<time>2022-05-25T13:28:41Z</time>
</trkpt>
<trkpt lat="48.153889" lon="10.955683">
<ele>596.231</ele>
<time>2022-05-25T13:28:42Z</time>
</trkpt>
<trkpt lat="48.153854" lon="10.955747">
<ele>596.231</ele>
<time>2022-05-25T13:28:43Z</time>
</trkpt>
<trkpt lat="48.153824" lon="10.955812">
<ele>596.231</ele>
<time>2022-05-25T13:28:44Z</time>
</trkpt>
<trkpt lat="48.153793" lon="10.955878">
<ele>596.231</ele>
<time>2022-05-25T13:28:45Z</time>
</trkpt>
<trkpt lat="48.153763" lon="10.955945">
<ele>596.231</ele>
<time>2022-05-25T13:28:46Z</time>
</trkpt>
<trkpt lat="48.153732" lon="10.956014">
<ele>596.231</ele>
<time>2022-05-25T13:28:47Z</time>
</trkpt>
<trkpt lat="48.153706" lon="10.956083">
<ele>596.231</ele>
<time>2022-05-25T13:28:48Z</time>
</trkpt>
<trkpt lat="48.153679" lon="10.956156">
<ele>596.231</ele>
<time>2022-05-25T13:28:49Z</time>
</trkpt>
<trkpt lat="48.153652" lon="10.956227">
<ele>596.231</ele>
<time>2022-05-25T13:28:50Z</time>
</trkpt>
<trkpt lat="48.153625" lon="10.9563">
<ele>596.231</ele>
<time>2022-05-25T13:28:51Z</time>
</trkpt>
<trkpt lat="48.153599" lon="10.956371">
<ele>596.231</ele>
<time>2022-05-25T13:28:52Z</time>
</trkpt>
<trkpt lat="48.153576" lon="10.956443">
<ele>596.231</ele>
<time>2022-05-25T13:28:53Z</time>
</trkpt>
<trkpt lat="48.153549" lon="10.956514">
<ele>596.231</ele>
<time>2022-05-25T13:28:54Z</time>
</trkpt>
<trkpt lat="48.153519" lon="10.956588">
<ele>596.231</ele>
<time>2022-05-25T13:28:55Z</time>
</trkpt>
<trkpt lat="48.153496" lon="10.95666">
<ele>596.231</ele>
<time>2022-05-25T13:28:56Z</time>
</trkpt>
<trkpt lat="48.153469" lon="10.956734">
<ele>596.231</ele>
<time>2022-05-25T13:28:57Z</time>
</trkpt>
<trkpt lat="48.153442" lon="10.956805">
<ele>596.231</ele>
<time>2022-05-25T13:28:58Z</time>
</trkpt>
<trkpt lat="48.153412" lon="10.956879">
<ele>596.231</ele>
<time>2022-05-25T13:28:59Z</time>
</trkpt>
<trkpt lat="48.153385" lon="10.956954">
<ele>596.231</ele>
<time>2022-05-25T13:29:00Z</time>
</trkpt>
<trkpt lat="48.153355" lon="10.957027">
<ele>596.231</ele>
<time>2022-05-25T13:29:01Z</time>
</trkpt>
<trkpt lat="48.153324" lon="10.957099">
<ele>596.231</ele>
<time>2022-05-25T13:29:02Z</time>
</trkpt>
<trkpt lat="48.153294" lon="10.95717">
<ele>596.231</ele>
<time>2022-05-25T13:29:03Z</time>
</trkpt>
<trkpt lat="48.153259" lon="10.957239">
<ele>596.231</ele>
<time>2022-05-25T13:29:04Z</time>
</trkpt>
<trkpt lat="48.153229" lon="10.957312">
<ele>596.231</ele>
<time>2022-05-25T13:29:05Z</time>
</trkpt>
<trkpt lat="48.153198" lon="10.957381">
<ele>596.231</ele>
<time>2022-05-25T13:29:06Z</time>
</trkpt>
<trkpt lat="48.153168" lon="10.95745">
<ele>596.231</ele>
<time>2022-05-25T13:29:07Z</time>
</trkpt>
<trkpt lat="48.153133" lon="10.957518">
<ele>596.231</ele>
<time>2022-05-25T13:29:08Z</time>
</trkpt>
<trkpt lat="48.153099" lon="10.957583">
<ele>596.231</ele>
<time>2022-05-25T13:29:09Z</time>
</trkpt>
<trkpt lat="48.153065" lon="10.95765">
<ele>596.231</ele>
<time>2022-05-25T13:29:10Z</time>
</trkpt>
<trkpt lat="48.15303" lon="10.957715">
<ele>596.231</ele>
<time>2022-05-25T13:29:11Z</time>
</trkpt>
<trkpt lat="48.152996" lon="10.957778">
<ele>596.231</ele>
<time>2022-05-25T13:29:12Z</time>
</trkpt>
<trkpt lat="48.152962" lon="10.957843">
<ele>596.231</ele>
<time>2022-05-25T13:29:13Z</time>
</trkpt>
<trkpt lat="48.152927" lon="10.957907">
<ele>596.231</ele>
<time>2022-05-25T13:29:14Z</time>
</trkpt>
<trkpt lat="48.152889" lon="10.95797">
<ele>596.231</ele>
<time>2022-05-25T13:29:15Z</time>
</trkpt>
<trkpt lat="48.152851" lon="10.958032">
<ele>596.231</ele>
<time>2022-05-25T13:29:16Z</time>
</trkpt>
<trkpt lat="48.152809" lon="10.958092">
<ele>596.231</ele>
<time>2022-05-25T13:29:17Z</time>
</trkpt>
<trkpt lat="48.152771" lon="10.95815">
<ele>596.231</ele>
<time>2022-05-25T13:29:18Z</time>
</trkpt>
<trkpt lat="48.152733" lon="10.95821">
<ele>596.231</ele>
<time>2022-05-25T13:29:19Z</time>
</trkpt>
<trkpt lat="48.152691" lon="10.958268">
<ele>596.231</ele>
<time>2022-05-25T13:29:20Z</time>
</trkpt>
<trkpt lat="48.152649" lon="10.958324">
<ele>596.231</ele>
<time>2022-05-25T13:29:21Z</time>
</trkpt>
<trkpt lat="48.152603" lon="10.958384">
<ele>596.231</ele>
<time>2022-05-25T13:29:22Z</time>
</trkpt>
<trkpt lat="48.152565" lon="10.958438">
<ele>596.231</ele>
<time>2022-05-25T13:29:23Z</time>
</trkpt>
<trkpt lat="48.152523" lon="10.958495">
<ele>596.231</ele>
<time>2022-05-25T13:29:24Z</time>
</trkpt>
<trkpt lat="48.152477" lon="10.958553">
<ele>596.231</ele>
<time>2022-05-25T13:29:25Z</time>
</trkpt>
<trkpt lat="48.152439" lon="10.95861">
<ele>595.984</ele>
<time>2022-05-25T13:29:26Z</time>
</trkpt>
<trkpt lat="48.152401" lon="10.958666">
<ele>595.79</ele>
<time>2022-05-25T13:29:27Z</time>
</trkpt>
<trkpt lat="48.152355" lon="10.958723">
<ele>595.64</ele>
<time>2022-05-25T13:29:28Z</time>
</trkpt>
<trkpt lat="48.152313" lon="10.95878">
<ele>595.536</ele>
<time>2022-05-25T13:29:29Z</time>
</trkpt>
<trkpt lat="48.152271" lon="10.958836">
<ele>595.425</ele>
<time>2022-05-25T13:29:30Z</time>
</trkpt>
<trkpt lat="48.152225" lon="10.95889">
<ele>595.344</ele>
<time>2022-05-25T13:29:31Z</time>
</trkpt>
<trkpt lat="48.152184" lon="10.958944">
<ele>595.293</ele>
<time>2022-05-25T13:29:32Z</time>
</trkpt>
<trkpt lat="48.152142" lon="10.959002">
<ele>595.268</ele>
<time>2022-05-25T13:29:33Z</time>
</trkpt>
<trkpt lat="48.1521" lon="10.959058">
<ele>595.268</ele>
<time>2022-05-25T13:29:34Z</time>
</trkpt>
<trkpt lat="48.152058" lon="10.959115">
<ele>595.268</ele>
<time>2022-05-25T13:29:35Z</time>
</trkpt>
<trkpt lat="48.15202" lon="10.959171">
<ele>595.268</ele>
<time>2022-05-25T13:29:36Z</time>
</trkpt>
<trkpt lat="48.151981" lon="10.959229">
<ele>595.268</ele>
<time>2022-05-25T13:29:37Z</time>
</trkpt>
<trkpt lat="48.151943" lon="10.959287">
<ele>595.268</ele>
<time>2022-05-25T13:29:38Z</time>
</trkpt>
<trkpt lat="48.151905" lon="10.959345">
<ele>595.268</ele>
<time>2022-05-25T13:29:39Z</time>
</trkpt>
<trkpt lat="48.151867" lon="10.959407">
<ele>595.268</ele>
<time>2022-05-25T13:29:40Z</time>
</trkpt>
<trkpt lat="48.151833" lon="10.959468">
<ele>595.268</ele>
<time>2022-05-25T13:29:41Z</time>
</trkpt>
<trkpt lat="48.151794" lon="10.959529">
<ele>595.268</ele>
<time>2022-05-25T13:29:42Z</time>
</trkpt>
<trkpt lat="48.15176" lon="10.95959">
<ele>595.268</ele>
<time>2022-05-25T13:29:43Z</time>
</trkpt>
<trkpt lat="48.151726" lon="10.959652">
<ele>595.268</ele>
<time>2022-05-25T13:29:44Z</time>
</trkpt>
<trkpt lat="48.151691" lon="10.959713">
<ele>595.268</ele>
<time>2022-05-25T13:29:45Z</time>
</trkpt>
<trkpt lat="48.151661" lon="10.959774">
<ele>595.268</ele>
<time>2022-05-25T13:29:46Z</time>
</trkpt>
<trkpt lat="48.15163" lon="10.959837">
<ele>595.268</ele>
<time>2022-05-25T13:29:47Z</time>
</trkpt>
<trkpt lat="48.151596" lon="10.959898">
<ele>595.268</ele>
<time>2022-05-25T13:29:48Z</time>
</trkpt>
<trkpt lat="48.151569" lon="10.959958">
<ele>595.268</ele>
<time>2022-05-25T13:29:49Z</time>
</trkpt>
<trkpt lat="48.151539" lon="10.960019">
<ele>595.478</ele>
<time>2022-05-25T13:29:50Z</time>
</trkpt>
<trkpt lat="48.151512" lon="10.960078">
<ele>595.654</ele>
<time>2022-05-25T13:29:51Z</time>
</trkpt>
<trkpt lat="48.151489" lon="10.960138">
<ele>595.801</ele>
<time>2022-05-25T13:29:52Z</time>
</trkpt>
<trkpt lat="48.151463" lon="10.960196">
<ele>595.919</ele>
<time>2022-05-25T13:29:53Z</time>
</trkpt>
<trkpt lat="48.151432" lon="10.960252">
<ele>596.012</ele>
<time>2022-05-25T13:29:54Z</time>
</trkpt>
<trkpt lat="48.151413" lon="10.960313">
<ele>596.078</ele>
<time>2022-05-25T13:29:55Z</time>
</trkpt>
<trkpt lat="48.151394" lon="10.960377">
<ele>596.122</ele>
<time>2022-05-25T13:29:56Z</time>
</trkpt>
<trkpt lat="48.151371" lon="10.960444">
<ele>596.144</ele>
<time>2022-05-25T13:29:57Z</time>
</trkpt>
<trkpt lat="48.15136" lon="10.960516">
<ele>596.144</ele>
<time>2022-05-25T13:29:58Z</time>
</trkpt>
<trkpt lat="48.151344" lon="10.960588">
<ele>596.144</ele>
<time>2022-05-25T13:29:59Z</time>
</trkpt>
<trkpt lat="48.151329" lon="10.960662">
<ele>596.144</ele>
<time>2022-05-25T13:30:00Z</time>
</trkpt>
<trkpt lat="48.151318" lon="10.960736">
<ele>596.144</ele>
<time>2022-05-25T13:30:01Z</time>
</trkpt>
<trkpt lat="48.15131" lon="10.960814">
<ele>596.144</ele>
<time>2022-05-25T13:30:02Z</time>
</trkpt>
<trkpt lat="48.151306" lon="10.960892">
<ele>596.144</ele>
<time>2022-05-25T13:30:03Z</time>
</trkpt>
<trkpt lat="48.151302" lon="10.96097">
<ele>596.144</ele>
<time>2022-05-25T13:30:04Z</time>
</trkpt>
<trkpt lat="48.151306" lon="10.96105">
<ele>596.144</ele>
<time>2022-05-25T13:30:05Z</time>
</trkpt>
<trkpt lat="48.15131" lon="10.961132">
<ele>596.395</ele>
<time>2022-05-25T13:30:06Z</time>
</trkpt>
<trkpt lat="48.151318" lon="10.961211">
<ele>596.591</ele>
<time>2022-05-25T13:30:07Z</time>
</trkpt>
<trkpt lat="48.151329" lon="10.961291">
<ele>596.741</ele>
<time>2022-05-25T13:30:08Z</time>
</trkpt>
<trkpt lat="48.151337" lon="10.961371">
<ele>596.843</ele>
<time>2022-05-25T13:30:09Z</time>
</trkpt>
<trkpt lat="48.151348" lon="10.961452">
<ele>596.953</ele>
<time>2022-05-25T13:30:10Z</time>
</trkpt>
<trkpt lat="48.151363" lon="10.961528">
<ele>597.032</ele>
<time>2022-05-25T13:30:11Z</time>
</trkpt>
<trkpt lat="48.151375" lon="10.961605">
<ele>597.083</ele>
<time>2022-05-25T13:30:12Z</time>
</trkpt>
<trkpt lat="48.15139" lon="10.961685">
<ele>597.107</ele>
<time>2022-05-25T13:30:13Z</time>
</trkpt>
<trkpt lat="48.151402" lon="10.961762">
<ele>597.107</ele>
<time>2022-05-25T13:30:14Z</time>
</trkpt>
<trkpt lat="48.151417" lon="10.96184">
<ele>597.107</ele>
<time>2022-05-25T13:30:15Z</time>
</trkpt>
<trkpt lat="48.151428" lon="10.961918">
<ele>597.107</ele>
<time>2022-05-25T13:30:16Z</time>
</trkpt>
<trkpt lat="48.151443" lon="10.961999">
<ele>597.107</ele>
<time>2022-05-25T13:30:17Z</time>
</trkpt>
<trkpt lat="48.151459" lon="10.962076">
<ele>597.107</ele>
<time>2022-05-25T13:30:18Z</time>
</trkpt>
<trkpt lat="48.15147" lon="10.962154">
<ele>597.107</ele>
<time>2022-05-25T13:30:19Z</time>
</trkpt>
<trkpt lat="48.151485" lon="10.962235">
<ele>597.107</ele>
<time>2022-05-25T13:30:20Z</time>
</trkpt>
<trkpt lat="48.151497" lon="10.962317">
<ele>597.107</ele>
<time>2022-05-25T13:30:21Z</time>
</trkpt>
<trkpt lat="48.151512" lon="10.962399">
<ele>597.107</ele>
<time>2022-05-25T13:30:22Z</time>
</trkpt>
<trkpt lat="48.151527" lon="10.962481">
<ele>597.107</ele>
<time>2022-05-25T13:30:23Z</time>
</trkpt>
<trkpt lat="48.151543" lon="10.962562">
<ele>597.107</ele>
<time>2022-05-25T13:30:24Z</time>
</trkpt>
<trkpt lat="48.151558" lon="10.962644">
<ele>597.107</ele>
<time>2022-05-25T13:30:25Z</time>
</trkpt>
<trkpt lat="48.151566" lon="10.962727">
<ele>597.107</ele>
<time>2022-05-25T13:30:26Z</time>
</trkpt>
<trkpt lat="48.151581" lon="10.962808">
<ele>597.107</ele>
<time>2022-05-25T13:30:27Z</time>
</trkpt>
<trkpt lat="48.151592" lon="10.96289">
<ele>597.107</ele>
<time>2022-05-25T13:30:28Z</time>
</trkpt>
<trkpt lat="48.151608" lon="10.962974">
<ele>597.107</ele>
<time>2022-05-25T13:30:29Z</time>
</trkpt>
<trkpt lat="48.151623" lon="10.963057">
<ele>597.107</ele>
<time>2022-05-25T13:30:30Z</time>
</trkpt>
<trkpt lat="48.151634" lon="10.96314">
<ele>597.107</ele>
<time>2022-05-25T13:30:31Z</time>
</trkpt>
<trkpt lat="48.151646" lon="10.963222">
<ele>597.107</ele>
<time>2022-05-25T13:30:32Z</time>
</trkpt>
<trkpt lat="48.151657" lon="10.963304">
<ele>597.107</ele>
<time>2022-05-25T13:30:33Z</time>
</trkpt>
<trkpt lat="48.151665" lon="10.963384">
<ele>597.107</ele>
<time>2022-05-25T13:30:34Z</time>
</trkpt>
<trkpt lat="48.15168" lon="10.963467">
<ele>597.107</ele>
<time>2022-05-25T13:30:35Z</time>
</trkpt>
<trkpt lat="48.151691" lon="10.963548">
<ele>597.107</ele>
<time>2022-05-25T13:30:36Z</time>
</trkpt>
<trkpt lat="48.151703" lon="10.963627">
<ele>597.107</ele>
<time>2022-05-25T13:30:37Z</time>
</trkpt>
<trkpt lat="48.151714" lon="10.963707">
<ele>597.107</ele>
<time>2022-05-25T13:30:38Z</time>
</trkpt>
<trkpt lat="48.151722" lon="10.963786">
<ele>597.107</ele>
<time>2022-05-25T13:30:39Z</time>
</trkpt>
<trkpt lat="48.151733" lon="10.963865">
<ele>597.107</ele>
<time>2022-05-25T13:30:40Z</time>
</trkpt>
<trkpt lat="48.151749" lon="10.963948">
<ele>597.107</ele>
<time>2022-05-25T13:30:41Z</time>
</trkpt>
<trkpt lat="48.15176" lon="10.964028">
<ele>597.107</ele>
<time>2022-05-25T13:30:42Z</time>
</trkpt>
<trkpt lat="48.151775" lon="10.964108">
<ele>597.107</ele>
<time>2022-05-25T13:30:43Z</time>
</trkpt>
<trkpt lat="48.151787" lon="10.96419">
<ele>597.107</ele>
<time>2022-05-25T13:30:44Z</time>
</trkpt>
<trkpt lat="48.151798" lon="10.964273">
<ele>597.107</ele>
<time>2022-05-25T13:30:45Z</time>
</trkpt>
<trkpt lat="48.151814" lon="10.964355">
<ele>596.881</ele>
<time>2022-05-25T13:30:46Z</time>
</trkpt>
<trkpt lat="48.151829" lon="10.964442">
<ele>596.701</ele>
<time>2022-05-25T13:30:47Z</time>
</trkpt>
<trkpt lat="48.151848" lon="10.964526">
<ele>596.564</ele>
<time>2022-05-25T13:30:48Z</time>
</trkpt>
<trkpt lat="48.151855" lon="10.964616">
<ele>596.473</ele>
<time>2022-05-25T13:30:49Z</time>
</trkpt>
<trkpt lat="48.151871" lon="10.964702">
<ele>596.37</ele>
<time>2022-05-25T13:30:50Z</time>
</trkpt>
<trkpt lat="48.151886" lon="10.964788">
<ele>596.298</ele>
<time>2022-05-25T13:30:51Z</time>
</trkpt>
<trkpt lat="48.151901" lon="10.96488">
<ele>596.252</ele>
<time>2022-05-25T13:30:52Z</time>
</trkpt>
<trkpt lat="48.151917" lon="10.96497">
<ele>596.231</ele>
<time>2022-05-25T13:30:53Z</time>
</trkpt>
<trkpt lat="48.151932" lon="10.965062">
<ele>596.231</ele>
<time>2022-05-25T13:30:54Z</time>
</trkpt>
<trkpt lat="48.151947" lon="10.965155">
<ele>596.231</ele>
<time>2022-05-25T13:30:55Z</time>
</trkpt>
<trkpt lat="48.151958" lon="10.965248">
<ele>596.231</ele>
<time>2022-05-25T13:30:56Z</time>
</trkpt>
<trkpt lat="48.151978" lon="10.965343">
<ele>596.231</ele>
<time>2022-05-25T13:30:57Z</time>
</trkpt>
<trkpt lat="48.151989" lon="10.965437">
<ele>596.231</ele>
<time>2022-05-25T13:30:58Z</time>
</trkpt>
<trkpt lat="48.152008" lon="10.965531">
<ele>596.015</ele>
<time>2022-05-25T13:30:59Z</time>
</trkpt>
<trkpt lat="48.152016" lon="10.96563">
<ele>595.811</ele>
<time>2022-05-25T13:31:00Z</time>
</trkpt>
<trkpt lat="48.152031" lon="10.965733">
<ele>595.643</ele>
<time>2022-05-25T13:31:01Z</time>
</trkpt>
<trkpt lat="48.152046" lon="10.965837">
<ele>595.511</ele>
<time>2022-05-25T13:31:02Z</time>
</trkpt>
<trkpt lat="48.152054" lon="10.965941">
<ele>595.409</ele>
<time>2022-05-25T13:31:03Z</time>
</trkpt>
<trkpt lat="48.152069" lon="10.966048">
<ele>595.346</ele>
<time>2022-05-25T13:31:04Z</time>
</trkpt>
<trkpt lat="48.152081" lon="10.966158">
<ele>595.053</ele>
<time>2022-05-25T13:31:05Z</time>
</trkpt>
<trkpt lat="48.152092" lon="10.96627">
<ele>594.827</ele>
<time>2022-05-25T13:31:06Z</time>
</trkpt>
<trkpt lat="48.1521" lon="10.966382">
<ele>594.651</ele>
<time>2022-05-25T13:31:07Z</time>
</trkpt>
<trkpt lat="48.152107" lon="10.966496">
<ele>594.566</ele>
<time>2022-05-25T13:31:08Z</time>
</trkpt>
<trkpt lat="48.152115" lon="10.96661">
<ele>594.245</ele>
<time>2022-05-25T13:31:09Z</time>
</trkpt>
<trkpt lat="48.152119" lon="10.966723">
<ele>593.959</ele>
<time>2022-05-25T13:31:10Z</time>
</trkpt>
<trkpt lat="48.152126" lon="10.966835">
<ele>593.742</ele>
<time>2022-05-25T13:31:11Z</time>
</trkpt>
<trkpt lat="48.15213" lon="10.966947">
<ele>593.587</ele>
<time>2022-05-25T13:31:12Z</time>
</trkpt>
<trkpt lat="48.15213" lon="10.967058">
<ele>593.486</ele>
<time>2022-05-25T13:31:13Z</time>
</trkpt>
<trkpt lat="48.152134" lon="10.967168">
<ele>593.413</ele>
<time>2022-05-25T13:31:14Z</time>
</trkpt>
<trkpt lat="48.152134" lon="10.967277">
<ele>593.366</ele>
<time>2022-05-25T13:31:15Z</time>
</trkpt>
<trkpt lat="48.152138" lon="10.967385">
<ele>593.343</ele>
<time>2022-05-25T13:31:16Z</time>
</trkpt>
<trkpt lat="48.152138" lon="10.967492">
<ele>593.343</ele>
<time>2022-05-25T13:31:17Z</time>
</trkpt>
<trkpt lat="48.152142" lon="10.967595">
<ele>593.343</ele>
<time>2022-05-25T13:31:18Z</time>
</trkpt>
<trkpt lat="48.152145" lon="10.967698">
<ele>593.343</ele>
<time>2022-05-25T13:31:19Z</time>
</trkpt>
<trkpt lat="48.152145" lon="10.9678">
<ele>593.343</ele>
<time>2022-05-25T13:31:20Z</time>
</trkpt>
<trkpt lat="48.152145" lon="10.967896">
<ele>593.343</ele>
<time>2022-05-25T13:31:21Z</time>
</trkpt>
<trkpt lat="48.152145" lon="10.967992">
<ele>593.343</ele>
<time>2022-05-25T13:31:22Z</time>
</trkpt>
<trkpt lat="48.152145" lon="10.968081">
<ele>593.343</ele>
<time>2022-05-25T13:31:23Z</time>
</trkpt>
<trkpt lat="48.152149" lon="10.968167">
<ele>593.343</ele>
<time>2022-05-25T13:31:24Z</time>
</trkpt>
<trkpt lat="48.152153" lon="10.96825">
<ele>593.343</ele>
<time>2022-05-25T13:31:25Z</time>
</trkpt>
<trkpt lat="48.152157" lon="10.968332">
<ele>593.343</ele>
<time>2022-05-25T13:31:26Z</time>
</trkpt>
<trkpt lat="48.152161" lon="10.968413">
<ele>593.343</ele>
<time>2022-05-25T13:31:27Z</time>
</trkpt>
<trkpt lat="48.152168" lon="10.968492">
<ele>593.343</ele>
<time>2022-05-25T13:31:28Z</time>
</trkpt>
<trkpt lat="48.152172" lon="10.968569">
<ele>593.343</ele>
<time>2022-05-25T13:31:29Z</time>
</trkpt>
<trkpt lat="48.152176" lon="10.968643">
<ele>593.343</ele>
<time>2022-05-25T13:31:30Z</time>
</trkpt>
<trkpt lat="48.15218" lon="10.96872">
<ele>593.622</ele>
<time>2022-05-25T13:31:31Z</time>
</trkpt>
<trkpt lat="48.152187" lon="10.9688">
<ele>593.845</ele>
<time>2022-05-25T13:31:32Z</time>
</trkpt>
<trkpt lat="48.152191" lon="10.96888">
<ele>594.015</ele>
<time>2022-05-25T13:31:33Z</time>
</trkpt>
<trkpt lat="48.152199" lon="10.968962">
<ele>594.137</ele>
<time>2022-05-25T13:31:34Z</time>
</trkpt>
<trkpt lat="48.152203" lon="10.969045">
<ele>594.224</ele>
<time>2022-05-25T13:31:35Z</time>
</trkpt>
<trkpt lat="48.15221" lon="10.969129">
<ele>594.277</ele>
<time>2022-05-25T13:31:36Z</time>
</trkpt>
<trkpt lat="48.152218" lon="10.969209">
<ele>594.302</ele>
<time>2022-05-25T13:31:37Z</time>
</trkpt>
<trkpt lat="48.152225" lon="10.969292">
<ele>594.305</ele>
<time>2022-05-25T13:31:38Z</time>
</trkpt>
<trkpt lat="48.152233" lon="10.969374">
<ele>594.305</ele>
<time>2022-05-25T13:31:39Z</time>
</trkpt>
<trkpt lat="48.152241" lon="10.969457">
<ele>594.541</ele>
<time>2022-05-25T13:31:40Z</time>
</trkpt>
<trkpt lat="48.152245" lon="10.96954">
<ele>594.738</ele>
<time>2022-05-25T13:31:41Z</time>
</trkpt>
<trkpt lat="48.152252" lon="10.969622">
<ele>594.898</ele>
<time>2022-05-25T13:31:42Z</time>
</trkpt>
<trkpt lat="48.152256" lon="10.969703">
<ele>595.027</ele>
<time>2022-05-25T13:31:43Z</time>
</trkpt>
<trkpt lat="48.152264" lon="10.969783">
<ele>595.127</ele>
<time>2022-05-25T13:31:44Z</time>
</trkpt>
<trkpt lat="48.152271" lon="10.96986">
<ele>595.2</ele>
<time>2022-05-25T13:31:45Z</time>
</trkpt>
<trkpt lat="48.152275" lon="10.969937">
<ele>595.245</ele>
<time>2022-05-25T13:31:46Z</time>
</trkpt>
<trkpt lat="48.152287" lon="10.970015">
<ele>595.268</ele>
<time>2022-05-25T13:31:47Z</time>
</trkpt>
<trkpt lat="48.152298" lon="10.970093">
<ele>595.268</ele>
<time>2022-05-25T13:31:48Z</time>
</trkpt>
<trkpt lat="48.152309" lon="10.970172">
<ele>595.268</ele>
<time>2022-05-25T13:31:49Z</time>
</trkpt>
<trkpt lat="48.152317" lon="10.970252">
<ele>595.268</ele>
<time>2022-05-25T13:31:50Z</time>
</trkpt>
<trkpt lat="48.152325" lon="10.970329">
<ele>595.268</ele>
<time>2022-05-25T13:31:51Z</time>
</trkpt>
<trkpt lat="48.152332" lon="10.970408">
<ele>595.268</ele>
<time>2022-05-25T13:31:52Z</time>
</trkpt>
<trkpt lat="48.152344" lon="10.970484">
<ele>595.268</ele>
<time>2022-05-25T13:31:53Z</time>
</trkpt>
<trkpt lat="48.152348" lon="10.97056">
<ele>595.268</ele>
<time>2022-05-25T13:31:54Z</time>
</trkpt>
<trkpt lat="48.152359" lon="10.970635">
<ele>595.268</ele>
<time>2022-05-25T13:31:55Z</time>
</trkpt>
<trkpt lat="48.152367" lon="10.970712">
<ele>595.268</ele>
<time>2022-05-25T13:31:56Z</time>
</trkpt>
<trkpt lat="48.152374" lon="10.970788">
<ele>595.268</ele>
<time>2022-05-25T13:31:57Z</time>
</trkpt>
<trkpt lat="48.152386" lon="10.970868">
<ele>595.268</ele>
<time>2022-05-25T13:31:58Z</time>
</trkpt>
<trkpt lat="48.152397" lon="10.970945">
<ele>595.268</ele>
<time>2022-05-25T13:31:59Z</time>
</trkpt>
<trkpt lat="48.152405" lon="10.971028">
<ele>595.268</ele>
<time>2022-05-25T13:32:00Z</time>
</trkpt>
<trkpt lat="48.152412" lon="10.971113">
<ele>595.268</ele>
<time>2022-05-25T13:32:01Z</time>
</trkpt>
<trkpt lat="48.152424" lon="10.971196">
<ele>595.268</ele>
<time>2022-05-25T13:32:02Z</time>
</trkpt>
<trkpt lat="48.152435" lon="10.97128">
<ele>595.268</ele>
<time>2022-05-25T13:32:03Z</time>
</trkpt>
<trkpt lat="48.152443" lon="10.971364">
<ele>595.268</ele>
<time>2022-05-25T13:32:04Z</time>
</trkpt>
<trkpt lat="48.152451" lon="10.97145">
<ele>595.009</ele>
<time>2022-05-25T13:32:05Z</time>
</trkpt>
<trkpt lat="48.152462" lon="10.971534">
<ele>594.812</ele>
<time>2022-05-25T13:32:06Z</time>
</trkpt>
<trkpt lat="48.152473" lon="10.971618">
<ele>594.656</ele>
<time>2022-05-25T13:32:07Z</time>
</trkpt>
<trkpt lat="48.152481" lon="10.9717">
<ele>594.545</ele>
<time>2022-05-25T13:32:08Z</time>
</trkpt>
<trkpt lat="48.152496" lon="10.971784">
<ele>594.466</ele>
<time>2022-05-25T13:32:09Z</time>
</trkpt>
<trkpt lat="48.152504" lon="10.971869">
<ele>594.383</ele>
<time>2022-05-25T13:32:10Z</time>
</trkpt>
<trkpt lat="48.152515" lon="10.971955">
<ele>594.33</ele>
<time>2022-05-25T13:32:11Z</time>
</trkpt>
<trkpt lat="48.152527" lon="10.97204">
<ele>594.305</ele>
<time>2022-05-25T13:32:12Z</time>
</trkpt>
<trkpt lat="48.152538" lon="10.972125">
<ele>594.305</ele>
<time>2022-05-25T13:32:13Z</time>
</trkpt>
<trkpt lat="48.152546" lon="10.97221">
<ele>594.305</ele>
<time>2022-05-25T13:32:14Z</time>
</trkpt>
<trkpt lat="48.152561" lon="10.972293">
<ele>594.051</ele>
<time>2022-05-25T13:32:15Z</time>
</trkpt>
<trkpt lat="48.152573" lon="10.972377">
<ele>593.852</ele>
<time>2022-05-25T13:32:16Z</time>
</trkpt>
<trkpt lat="48.152584" lon="10.972465">
<ele>593.7</ele>
<time>2022-05-25T13:32:17Z</time>
</trkpt>
<trkpt lat="48.152596" lon="10.972552">
<ele>593.584</ele>
<time>2022-05-25T13:32:18Z</time>
</trkpt>
<trkpt lat="48.152603" lon="10.972638">
<ele>593.504</ele>
<time>2022-05-25T13:32:19Z</time>
</trkpt>
<trkpt lat="48.152615" lon="10.972724">
<ele>593.423</ele>
<time>2022-05-25T13:32:20Z</time>
</trkpt>
<trkpt lat="48.15263" lon="10.972812">
<ele>593.154</ele>
<time>2022-05-25T13:32:21Z</time>
</trkpt>
<trkpt lat="48.152637" lon="10.972898">
<ele>592.949</ele>
<time>2022-05-25T13:32:22Z</time>
</trkpt>
<trkpt lat="48.152649" lon="10.972988">
<ele>592.725</ele>
<time>2022-05-25T13:32:23Z</time>
</trkpt>
<trkpt lat="48.152664" lon="10.973076">
<ele>592.615</ele>
<time>2022-05-25T13:32:24Z</time>
</trkpt>
<trkpt lat="48.152672" lon="10.973164">
<ele>592.537</ele>
<time>2022-05-25T13:32:25Z</time>
</trkpt>
<trkpt lat="48.152683" lon="10.973244">
<ele>592.489</ele>
<time>2022-05-25T13:32:26Z</time>
</trkpt>
<trkpt lat="48.152699" lon="10.97332">
<ele>592.467</ele>
<time>2022-05-25T13:32:27Z</time>
</trkpt>
<trkpt lat="48.15271" lon="10.973392">
<ele>592.467</ele>
<time>2022-05-25T13:32:28Z</time>
</trkpt>
<trkpt lat="48.152721" lon="10.973458">
<ele>592.467</ele>
<time>2022-05-25T13:32:29Z</time>
</trkpt>
<trkpt lat="48.152729" lon="10.973525">
<ele>592.467</ele>
<time>2022-05-25T13:32:30Z</time>
</trkpt>
<trkpt lat="48.152733" lon="10.973598">
<ele>592.467</ele>
<time>2022-05-25T13:32:31Z</time>
</trkpt>
<trkpt lat="48.15274" lon="10.973663">
<ele>592.467</ele>
<time>2022-05-25T13:32:32Z</time>
</trkpt>
<trkpt lat="48.152748" lon="10.973737">
<ele>592.467</ele>
<time>2022-05-25T13:32:33Z</time>
</trkpt>
<trkpt lat="48.152752" lon="10.973813">
<ele>592.467</ele>
<time>2022-05-25T13:32:34Z</time>
</trkpt>
<trkpt lat="48.15276" lon="10.973893">
<ele>592.467</ele>
<time>2022-05-25T13:32:35Z</time>
</trkpt>
<trkpt lat="48.152767" lon="10.973973">
<ele>592.467</ele>
<time>2022-05-25T13:32:36Z</time>
</trkpt>
<trkpt lat="48.152775" lon="10.974054">
<ele>592.467</ele>
<time>2022-05-25T13:32:37Z</time>
</trkpt>
<trkpt lat="48.152775" lon="10.974128">
<ele>592.467</ele>
<time>2022-05-25T13:32:38Z</time>
</trkpt>
<trkpt lat="48.152779" lon="10.974203">
<ele>592.467</ele>
<time>2022-05-25T13:32:39Z</time>
</trkpt>
<trkpt lat="48.152771" lon="10.974274">
<ele>592.467</ele>
<time>2022-05-25T13:32:40Z</time>
</trkpt>
<trkpt lat="48.152767" lon="10.974339">
<ele>592.467</ele>
<time>2022-05-25T13:32:41Z</time>
</trkpt>
<trkpt lat="48.15276" lon="10.974404">
<ele>592.467</ele>
<time>2022-05-25T13:32:42Z</time>
</trkpt>
<trkpt lat="48.152752" lon="10.974467">
<ele>592.467</ele>
<time>2022-05-25T13:32:43Z</time>
</trkpt>
<trkpt lat="48.152744" lon="10.974525">
<ele>592.467</ele>
<time>2022-05-25T13:32:44Z</time>
</trkpt>
<trkpt lat="48.152737" lon="10.974582">
<ele>592.467</ele>
<time>2022-05-25T13:32:45Z</time>
</trkpt>
<trkpt lat="48.152733" lon="10.974641">
<ele>592.467</ele>
<time>2022-05-25T13:32:46Z</time>
</trkpt>
<trkpt lat="48.152733" lon="10.974695">
<ele>592.467</ele>
<time>2022-05-25T13:32:47Z</time>
</trkpt>
<trkpt lat="48.152729" lon="10.974738">
<ele>592.467</ele>
<time>2022-05-25T13:32:48Z</time>
</trkpt>
<trkpt lat="48.152725" lon="10.974779">
<ele>592.467</ele>
<time>2022-05-25T13:32:49Z</time>
</trkpt>
<trkpt lat="48.152718" lon="10.974815">
<ele>592.467</ele>
<time>2022-05-25T13:32:50Z</time>
</trkpt>
<trkpt lat="48.152706" lon="10.974853">
<ele>592.467</ele>
<time>2022-05-25T13:32:51Z</time>
</trkpt>
<trkpt lat="48.152691" lon="10.974892">
<ele>592.467</ele>
<time>2022-05-25T13:32:52Z</time>
</trkpt>
<trkpt lat="48.152668" lon="10.974925">
<ele>592.467</ele>
<time>2022-05-25T13:32:53Z</time>
</trkpt>
<trkpt lat="48.15263" lon="10.974949">
<ele>592.467</ele>
<time>2022-05-25T13:32:54Z</time>
</trkpt>
<trkpt lat="48.152596" lon="10.974974">
<ele>592.467</ele>
<time>2022-05-25T13:32:55Z</time>
</trkpt>
<trkpt lat="48.152554" lon="10.975001">
<ele>592.467</ele>
<time>2022-05-25T13:32:56Z</time>
</trkpt>
<trkpt lat="48.152515" lon="10.975032">
<ele>592.467</ele>
<time>2022-05-25T13:32:57Z</time>
</trkpt>
<trkpt lat="48.152473" lon="10.975066">
<ele>592.467</ele>
<time>2022-05-25T13:32:58Z</time>
</trkpt>
<trkpt lat="48.152435" lon="10.975101">
<ele>592.467</ele>
<time>2022-05-25T13:32:59Z</time>
</trkpt>
<trkpt lat="48.15239" lon="10.975142">
<ele>592.211</ele>
<time>2022-05-25T13:33:00Z</time>
</trkpt>
<trkpt lat="48.152344" lon="10.975188">
<ele>592.011</ele>
<time>2022-05-25T13:33:01Z</time>
</trkpt>
<trkpt lat="48.152306" lon="10.97524">
<ele>591.852</ele>
<time>2022-05-25T13:33:02Z</time>
</trkpt>
<trkpt lat="48.152264" lon="10.975295">
<ele>591.727</ele>
<time>2022-05-25T13:33:03Z</time>
</trkpt>
<trkpt lat="48.152218" lon="10.975353">
<ele>591.654</ele>
<time>2022-05-25T13:33:04Z</time>
</trkpt>
<trkpt lat="48.15218" lon="10.975407">
<ele>591.331</ele>
<time>2022-05-25T13:33:05Z</time>
</trkpt>
<trkpt lat="48.152142" lon="10.975471">
<ele>591.083</ele>
<time>2022-05-25T13:33:06Z</time>
</trkpt>
<trkpt lat="48.1521" lon="10.975537">
<ele>590.901</ele>
<time>2022-05-25T13:33:07Z</time>
</trkpt>
<trkpt lat="48.152058" lon="10.975611">
<ele>590.803</ele>
<time>2022-05-25T13:33:08Z</time>
</trkpt>
<trkpt lat="48.152012" lon="10.975684">
<ele>590.5</ele>
<time>2022-05-25T13:33:09Z</time>
</trkpt>
<trkpt lat="48.151958" lon="10.975757">
<ele>590.247</ele>
<time>2022-05-25T13:33:10Z</time>
</trkpt>
<trkpt lat="48.151905" lon="10.975828">
<ele>589.783</ele>
<time>2022-05-25T13:33:11Z</time>
</trkpt>
<trkpt lat="48.151848" lon="10.975896">
<ele>589.429</ele>
<time>2022-05-25T13:33:12Z</time>
</trkpt>
<trkpt lat="48.151791" lon="10.97598">
<ele>589.217</ele>
<time>2022-05-25T13:33:13Z</time>
</trkpt>
<trkpt lat="48.15173" lon="10.976064">
<ele>588.737</ele>
<time>2022-05-25T13:33:14Z</time>
</trkpt>
<trkpt lat="48.151661" lon="10.976143">
<ele>588.419</ele>
<time>2022-05-25T13:33:15Z</time>
</trkpt>
<trkpt lat="48.151592" lon="10.976222">
<ele>587.885</ele>
<time>2022-05-25T13:33:16Z</time>
</trkpt>
<trkpt lat="48.15152" lon="10.976287">
<ele>587.487</ele>
<time>2022-05-25T13:33:17Z</time>
</trkpt>
<trkpt lat="48.151447" lon="10.97634">
<ele>586.985</ele>
<time>2022-05-25T13:33:18Z</time>
</trkpt>
<trkpt lat="48.151375" lon="10.976397">
<ele>586.619</ele>
<time>2022-05-25T13:33:19Z</time>
</trkpt>
<trkpt lat="48.151314" lon="10.976449">
<ele>586.3</ele>
<time>2022-05-25T13:33:20Z</time>
</trkpt>
<trkpt lat="48.15126" lon="10.976517">
<ele>585.839</ele>
<time>2022-05-25T13:33:21Z</time>
</trkpt>
<trkpt lat="48.151207" lon="10.9766">
<ele>585.493</ele>
<time>2022-05-25T13:33:22Z</time>
</trkpt>
<trkpt lat="48.151161" lon="10.976686">
<ele>585.266</ele>
<time>2022-05-25T13:33:23Z</time>
</trkpt>
<trkpt lat="48.151127" lon="10.976764">
<ele>584.829</ele>
<time>2022-05-25T13:33:24Z</time>
</trkpt>
<trkpt lat="48.1511" lon="10.976851">
<ele>584.482</ele>
<time>2022-05-25T13:33:25Z</time>
</trkpt>
<trkpt lat="48.151073" lon="10.976937">
<ele>584.162</ele>
<time>2022-05-25T13:33:26Z</time>
</trkpt>
<trkpt lat="48.151054" lon="10.977013">
<ele>583.763</ele>
<time>2022-05-25T13:33:27Z</time>
</trkpt>
<trkpt lat="48.151039" lon="10.977077">
<ele>583.481</ele>
<time>2022-05-25T13:33:28Z</time>
</trkpt>
<trkpt lat="48.151031" lon="10.97713">
<ele>583.273</ele>
<time>2022-05-25T13:33:29Z</time>
</trkpt>
<trkpt lat="48.151016" lon="10.977177">
<ele>583.083</ele>
<time>2022-05-25T13:33:30Z</time>
</trkpt>
<trkpt lat="48.151005" lon="10.97722">
<ele>582.734</ele>
<time>2022-05-25T13:33:31Z</time>
</trkpt>
<trkpt lat="48.150982" lon="10.977252">
<ele>582.467</ele>
<time>2022-05-25T13:33:32Z</time>
</trkpt>
<trkpt lat="48.150963" lon="10.977279">
<ele>582.258</ele>
<time>2022-05-25T13:33:33Z</time>
</trkpt>
<trkpt lat="48.15094" lon="10.977308">
<ele>582.089</ele>
<time>2022-05-25T13:33:34Z</time>
</trkpt>
<trkpt lat="48.150913" lon="10.977346">
<ele>581.904</ele>
<time>2022-05-25T13:33:35Z</time>
</trkpt>
<trkpt lat="48.150898" lon="10.977398">
<ele>581.833</ele>
<time>2022-05-25T13:33:36Z</time>
</trkpt>
<trkpt lat="48.150902" lon="10.977452">
<ele>581.803</ele>
<time>2022-05-25T13:33:37Z</time>
</trkpt>
<trkpt lat="48.150925" lon="10.9775">
<ele>581.797</ele>
<time>2022-05-25T13:33:38Z</time>
</trkpt>
<trkpt lat="48.150955" lon="10.977534">
<ele>581.593</ele>
<time>2022-05-25T13:33:39Z</time>
</trkpt>
<trkpt lat="48.15099" lon="10.977562">
<ele>581.397</ele>
<time>2022-05-25T13:33:40Z</time>
</trkpt>
<trkpt lat="48.151028" lon="10.977587">
<ele>581.246</ele>
<time>2022-05-25T13:33:41Z</time>
</trkpt>
<trkpt lat="48.151062" lon="10.977625">
<ele>581.135</ele>
<time>2022-05-25T13:33:42Z</time>
</trkpt>
<trkpt lat="48.151093" lon="10.977669">
<ele>581.048</ele>
<time>2022-05-25T13:33:43Z</time>
</trkpt>
<trkpt lat="48.151131" lon="10.977715">
<ele>580.983</ele>
<time>2022-05-25T13:33:44Z</time>
</trkpt>
<trkpt lat="48.151161" lon="10.977767">
<ele>580.941</ele>
<time>2022-05-25T13:33:45Z</time>
</trkpt>
<trkpt lat="48.151192" lon="10.977821">
<ele>580.922</ele>
<time>2022-05-25T13:33:46Z</time>
</trkpt>
<trkpt lat="48.151218" lon="10.977877">
<ele>580.922</ele>
<time>2022-05-25T13:33:47Z</time>
</trkpt>
<trkpt lat="48.151249" lon="10.977937">
<ele>580.922</ele>
<time>2022-05-25T13:33:48Z</time>
</trkpt>
<trkpt lat="48.151272" lon="10.978004">
<ele>580.922</ele>
<time>2022-05-25T13:33:49Z</time>
</trkpt>
<trkpt lat="48.151299" lon="10.97807">
<ele>580.922</ele>
<time>2022-05-25T13:33:50Z</time>
</trkpt>
<trkpt lat="48.151318" lon="10.97814">
<ele>580.922</ele>
<time>2022-05-25T13:33:51Z</time>
</trkpt>
<trkpt lat="48.151333" lon="10.978215">
<ele>580.922</ele>
<time>2022-05-25T13:33:52Z</time>
</trkpt>
<trkpt lat="48.151337" lon="10.978293">
<ele>580.922</ele>
<time>2022-05-25T13:33:53Z</time>
</trkpt>
<trkpt lat="48.151337" lon="10.978368">
<ele>580.922</ele>
<time>2022-05-25T13:33:54Z</time>
</trkpt>
<trkpt lat="48.151329" lon="10.978443">
<ele>580.922</ele>
<time>2022-05-25T13:33:55Z</time>
</trkpt>
<trkpt lat="48.151306" lon="10.978515">
<ele>580.922</ele>
<time>2022-05-25T13:33:56Z</time>
</trkpt>
<trkpt lat="48.151291" lon="10.978578">
<ele>580.922</ele>
<time>2022-05-25T13:33:57Z</time>
</trkpt>
<trkpt lat="48.151264" lon="10.978642">
<ele>580.922</ele>
<time>2022-05-25T13:33:58Z</time>
</trkpt>
<trkpt lat="48.151241" lon="10.97871">
<ele>580.922</ele>
<time>2022-05-25T13:33:59Z</time>
</trkpt>
<trkpt lat="48.151218" lon="10.978781">
<ele>580.922</ele>
<time>2022-05-25T13:34:00Z</time>
</trkpt>
<trkpt lat="48.151199" lon="10.978846">
<ele>580.922</ele>
<time>2022-05-25T13:34:01Z</time>
</trkpt>
<trkpt lat="48.151176" lon="10.978907">
<ele>580.922</ele>
<time>2022-05-25T13:34:02Z</time>
</trkpt>
<trkpt lat="48.151157" lon="10.97897">
<ele>580.922</ele>
<time>2022-05-25T13:34:03Z</time>
</trkpt>
<trkpt lat="48.151134" lon="10.97904">
<ele>580.922</ele>
<time>2022-05-25T13:34:04Z</time>
</trkpt>
<trkpt lat="48.151108" lon="10.97911">
<ele>581.154</ele>
<time>2022-05-25T13:34:05Z</time>
</trkpt>
<trkpt lat="48.151089" lon="10.979181">
<ele>581.337</ele>
<time>2022-05-25T13:34:06Z</time>
</trkpt>
<trkpt lat="48.15107" lon="10.979248">
<ele>581.445</ele>
<time>2022-05-25T13:34:07Z</time>
</trkpt>
<trkpt lat="48.151051" lon="10.979317">
<ele>581.797</ele>
<time>2022-05-25T13:34:08Z</time>
</trkpt>
<trkpt lat="48.151031" lon="10.97938">
<ele>582.061</ele>
<time>2022-05-25T13:34:09Z</time>
</trkpt>
<trkpt lat="48.151009" lon="10.979439">
<ele>582.294</ele>
<time>2022-05-25T13:34:10Z</time>
</trkpt>
<trkpt lat="48.150997" lon="10.979497">
<ele>582.701</ele>
<time>2022-05-25T13:34:11Z</time>
</trkpt>
<trkpt lat="48.150974" lon="10.979551">
<ele>583.014</ele>
<time>2022-05-25T13:34:12Z</time>
</trkpt>
<trkpt lat="48.150959" lon="10.979609">
<ele>583.22</ele>
<time>2022-05-25T13:34:13Z</time>
</trkpt>
<trkpt lat="48.150944" lon="10.979663">
<ele>583.619</ele>
<time>2022-05-25T13:34:14Z</time>
</trkpt>
<trkpt lat="48.150932" lon="10.979717">
<ele>583.934</ele>
<time>2022-05-25T13:34:15Z</time>
</trkpt>
<trkpt lat="48.150917" lon="10.97977">
<ele>584.209</ele>
<time>2022-05-25T13:34:16Z</time>
</trkpt>
<trkpt lat="48.150906" lon="10.979828">
<ele>584.613</ele>
<time>2022-05-25T13:34:17Z</time>
</trkpt>
<trkpt lat="48.150894" lon="10.979885">
<ele>584.914</ele>
<time>2022-05-25T13:34:18Z</time>
</trkpt>
<trkpt lat="48.150887" lon="10.979943">
<ele>585.125</ele>
<time>2022-05-25T13:34:19Z</time>
</trkpt>
<trkpt lat="48.150875" lon="10.980002">
<ele>585.566</ele>
<time>2022-05-25T13:34:20Z</time>
</trkpt>
<trkpt lat="48.15086" lon="10.980057">
<ele>585.907</ele>
<time>2022-05-25T13:34:21Z</time>
</trkpt>
<trkpt lat="48.150848" lon="10.980108">
<ele>586.158</ele>
<time>2022-05-25T13:34:22Z</time>
</trkpt>
<trkpt lat="48.150837" lon="10.980162">
<ele>586.342</ele>
<time>2022-05-25T13:34:23Z</time>
</trkpt>
<trkpt lat="48.150822" lon="10.980216">
<ele>586.465</ele>
<time>2022-05-25T13:34:24Z</time>
</trkpt>
<trkpt lat="48.15081" lon="10.980275">
<ele>586.524</ele>
<time>2022-05-25T13:34:25Z</time>
</trkpt>
<trkpt lat="48.150803" lon="10.980331">
<ele>586.813</ele>
<time>2022-05-25T13:34:26Z</time>
</trkpt>
<trkpt lat="48.150791" lon="10.980388">
<ele>587.035</ele>
<time>2022-05-25T13:34:27Z</time>
</trkpt>
<trkpt lat="48.15078" lon="10.980447">
<ele>587.198</ele>
<time>2022-05-25T13:34:28Z</time>
</trkpt>
<trkpt lat="48.150772" lon="10.980501">
<ele>587.304</ele>
<time>2022-05-25T13:34:29Z</time>
</trkpt>
<trkpt lat="48.150761" lon="10.980558">
<ele>587.417</ele>
<time>2022-05-25T13:34:30Z</time>
</trkpt>
<trkpt lat="48.150753" lon="10.980615">
<ele>587.489</ele>
<time>2022-05-25T13:34:31Z</time>
</trkpt>
<trkpt lat="48.150745" lon="10.980668">
<ele>587.753</ele>
<time>2022-05-25T13:34:32Z</time>
</trkpt>
<trkpt lat="48.150734" lon="10.980721">
<ele>587.955</ele>
<time>2022-05-25T13:34:33Z</time>
</trkpt>
<trkpt lat="48.150723" lon="10.980777">
<ele>588.161</ele>
<time>2022-05-25T13:34:34Z</time>
</trkpt>
<trkpt lat="48.150711" lon="10.980828">
<ele>588.269</ele>
<time>2022-05-25T13:34:35Z</time>
</trkpt>
<trkpt lat="48.150707" lon="10.980885">
<ele>588.346</ele>
<time>2022-05-25T13:34:36Z</time>
</trkpt>
<trkpt lat="48.150696" lon="10.980942">
<ele>588.4</ele>
<time>2022-05-25T13:34:37Z</time>
</trkpt>
<trkpt lat="48.150684" lon="10.980997">
<ele>588.422</ele>
<time>2022-05-25T13:34:38Z</time>
</trkpt>
<trkpt lat="48.150677" lon="10.981055">
<ele>588.443</ele>
<time>2022-05-25T13:34:39Z</time>
</trkpt>
<trkpt lat="48.150661" lon="10.981118">
<ele>588.443</ele>
<time>2022-05-25T13:34:40Z</time>
</trkpt>
<trkpt lat="48.15065" lon="10.981184">
<ele>588.443</ele>
<time>2022-05-25T13:34:41Z</time>
</trkpt>
<trkpt lat="48.150639" lon="10.981252">
<ele>588.443</ele>
<time>2022-05-25T13:34:42Z</time>
</trkpt>
<trkpt lat="48.150623" lon="10.981324">
<ele>588.443</ele>
<time>2022-05-25T13:34:43Z</time>
</trkpt>
<trkpt lat="48.150612" lon="10.9814">
<ele>588.191</ele>
<time>2022-05-25T13:34:44Z</time>
</trkpt>
<trkpt lat="48.150593" lon="10.981483">
<ele>587.996</ele>
<time>2022-05-25T13:34:45Z</time>
</trkpt>
<trkpt lat="48.150581" lon="10.981573">
<ele>587.888</ele>
<time>2022-05-25T13:34:46Z</time>
</trkpt>
<trkpt lat="48.150558" lon="10.981668">
<ele>587.487</ele>
<time>2022-05-25T13:34:47Z</time>
</trkpt>
<trkpt lat="48.150539" lon="10.981765">
<ele>587.237</ele>
<time>2022-05-25T13:34:48Z</time>
</trkpt>
<trkpt lat="48.15052" lon="10.981856">
<ele>586.76</ele>
<time>2022-05-25T13:34:49Z</time>
</trkpt>
<trkpt lat="48.150505" lon="10.981952">
<ele>586.383</ele>
<time>2022-05-25T13:34:50Z</time>
</trkpt>
<trkpt lat="48.150482" lon="10.982047">
<ele>585.87</ele>
<time>2022-05-25T13:34:51Z</time>
</trkpt>
<trkpt lat="48.150459" lon="10.982137">
<ele>585.209</ele>
<time>2022-05-25T13:34:52Z</time>
</trkpt>
<trkpt lat="48.15044" lon="10.982229">
<ele>584.763</ele>
<time>2022-05-25T13:34:53Z</time>
</trkpt>
<trkpt lat="48.150417" lon="10.98232">
<ele>584.143</ele>
<time>2022-05-25T13:34:54Z</time>
</trkpt>
<trkpt lat="48.150394" lon="10.982413">
<ele>583.675</ele>
<time>2022-05-25T13:34:55Z</time>
</trkpt>
<trkpt lat="48.150379" lon="10.982508">
<ele>583.366</ele>
<time>2022-05-25T13:34:56Z</time>
</trkpt>
<trkpt lat="48.150364" lon="10.982603">
<ele>582.801</ele>
<time>2022-05-25T13:34:57Z</time>
</trkpt>
<trkpt lat="48.150364" lon="10.982707">
<ele>582.493</ele>
<time>2022-05-25T13:34:58Z</time>
</trkpt>
<trkpt lat="48.150375" lon="10.982801">
<ele>582.27</ele>
<time>2022-05-25T13:34:59Z</time>
</trkpt>
<trkpt lat="48.150394" lon="10.982888">
<ele>582.078</ele>
<time>2022-05-25T13:35:00Z</time>
</trkpt>
<trkpt lat="48.150421" lon="10.982973">
<ele>581.948</ele>
<time>2022-05-25T13:35:01Z</time>
</trkpt>
<trkpt lat="48.150452" lon="10.983055">
<ele>581.87</ele>
<time>2022-05-25T13:35:02Z</time>
</trkpt>
<trkpt lat="48.150475" lon="10.983136">
<ele>581.821</ele>
<time>2022-05-25T13:35:03Z</time>
</trkpt>
<trkpt lat="48.150505" lon="10.983213">
<ele>581.797</ele>
<time>2022-05-25T13:35:04Z</time>
</trkpt>
<trkpt lat="48.150528" lon="10.983288">
<ele>581.797</ele>
<time>2022-05-25T13:35:05Z</time>
</trkpt>
<trkpt lat="48.150551" lon="10.983361">
<ele>581.797</ele>
<time>2022-05-25T13:35:06Z</time>
</trkpt>
<trkpt lat="48.150581" lon="10.983435">
<ele>581.797</ele>
<time>2022-05-25T13:35:07Z</time>
</trkpt>
<trkpt lat="48.1506" lon="10.98351">
<ele>581.797</ele>
<time>2022-05-25T13:35:08Z</time>
</trkpt>
<trkpt lat="48.150623" lon="10.983582">
<ele>581.797</ele>
<time>2022-05-25T13:35:09Z</time>
</trkpt>
<trkpt lat="48.150646" lon="10.983654">
<ele>581.797</ele>
<time>2022-05-25T13:35:10Z</time>
</trkpt>
<trkpt lat="48.150661" lon="10.98372">
<ele>581.797</ele>
<time>2022-05-25T13:35:11Z</time>
</trkpt>
<trkpt lat="48.150681" lon="10.983788">
<ele>581.797</ele>
<time>2022-05-25T13:35:12Z</time>
</trkpt>
<trkpt lat="48.150703" lon="10.983857">
<ele>581.797</ele>
<time>2022-05-25T13:35:13Z</time>
</trkpt>
<trkpt lat="48.150719" lon="10.983925">
<ele>581.797</ele>
<time>2022-05-25T13:35:14Z</time>
</trkpt>
<trkpt lat="48.150738" lon="10.983992">
<ele>581.797</ele>
<time>2022-05-25T13:35:15Z</time>
</trkpt>
<trkpt lat="48.150753" lon="10.984058">
<ele>581.797</ele>
<time>2022-05-25T13:35:16Z</time>
</trkpt>
<trkpt lat="48.150776" lon="10.984119">
<ele>581.797</ele>
<time>2022-05-25T13:35:17Z</time>
</trkpt>
<trkpt lat="48.150791" lon="10.984179">
<ele>581.797</ele>
<time>2022-05-25T13:35:18Z</time>
</trkpt>
<trkpt lat="48.150803" lon="10.984235">
<ele>581.797</ele>
<time>2022-05-25T13:35:19Z</time>
</trkpt>
<trkpt lat="48.150806" lon="10.984293">
<ele>581.797</ele>
<time>2022-05-25T13:35:20Z</time>
</trkpt>
<trkpt lat="48.150795" lon="10.984348">
<ele>581.797</ele>
<time>2022-05-25T13:35:21Z</time>
</trkpt>
<trkpt lat="48.150772" lon="10.984404">
<ele>581.797</ele>
<time>2022-05-25T13:35:22Z</time>
</trkpt>
<trkpt lat="48.150742" lon="10.984458">
<ele>581.797</ele>
<time>2022-05-25T13:35:23Z</time>
</trkpt>
<trkpt lat="48.150703" lon="10.98451">
<ele>581.797</ele>
<time>2022-05-25T13:35:24Z</time>
</trkpt>
<trkpt lat="48.150658" lon="10.984557">
<ele>581.797</ele>
<time>2022-05-25T13:35:25Z</time>
</trkpt>
<trkpt lat="48.150612" lon="10.984605">
<ele>581.797</ele>
<time>2022-05-25T13:35:26Z</time>
</trkpt>
<trkpt lat="48.150558" lon="10.984649">
<ele>581.797</ele>
<time>2022-05-25T13:35:27Z</time>
</trkpt>
<trkpt lat="48.150509" lon="10.984694">
<ele>581.797</ele>
<time>2022-05-25T13:35:28Z</time>
</trkpt>
<trkpt lat="48.150455" lon="10.984735">
<ele>581.797</ele>
<time>2022-05-25T13:35:29Z</time>
</trkpt>
<trkpt lat="48.150406" lon="10.984775">
<ele>581.797</ele>
<time>2022-05-25T13:35:30Z</time>
</trkpt>
<trkpt lat="48.150352" lon="10.984808">
<ele>581.797</ele>
<time>2022-05-25T13:35:31Z</time>
</trkpt>
<trkpt lat="48.150307" lon="10.984843">
<ele>581.797</ele>
<time>2022-05-25T13:35:32Z</time>
</trkpt>
<trkpt lat="48.150257" lon="10.984879">
<ele>581.797</ele>
<time>2022-05-25T13:35:33Z</time>
</trkpt>
<trkpt lat="48.150208" lon="10.984918">
<ele>582.056</ele>
<time>2022-05-25T13:35:34Z</time>
</trkpt>
<trkpt lat="48.150158" lon="10.984951">
<ele>582.258</ele>
<time>2022-05-25T13:35:35Z</time>
</trkpt>
<trkpt lat="48.150112" lon="10.984982">
<ele>582.413</ele>
<time>2022-05-25T13:35:36Z</time>
</trkpt>
<trkpt lat="48.150063" lon="10.985016">
<ele>582.528</ele>
<time>2022-05-25T13:35:37Z</time>
</trkpt>
<trkpt lat="48.150021" lon="10.985048">
<ele>582.614</ele>
<time>2022-05-25T13:35:38Z</time>
</trkpt>
<trkpt lat="48.149971" lon="10.985084">
<ele>582.678</ele>
<time>2022-05-25T13:35:39Z</time>
</trkpt>
<trkpt lat="48.149929" lon="10.985115">
<ele>582.732</ele>
<time>2022-05-25T13:35:40Z</time>
</trkpt>
<trkpt lat="48.149883" lon="10.985144">
<ele>582.758</ele>
<time>2022-05-25T13:35:41Z</time>
</trkpt>
<trkpt lat="48.149841" lon="10.985171">
<ele>582.758</ele>
<time>2022-05-25T13:35:42Z</time>
</trkpt>
<trkpt lat="48.149815" lon="10.985186">
<ele>582.758</ele>
<time>2022-05-25T13:35:43Z</time>
</trkpt>
<trkpt lat="48.149799" lon="10.985195">
<ele>582.758</ele>
<time>2022-05-25T13:35:44Z</time>
</trkpt>
<trkpt lat="48.149799" lon="10.9852">
<ele>582.758</ele>
<time>2022-05-25T13:35:45Z</time>
</trkpt>
<trkpt lat="48.149796" lon="10.985196">
<ele>582.758</ele>
<time>2022-05-25T13:35:46Z</time>
</trkpt>
<trkpt lat="48.149788" lon="10.985198">
<ele>582.758</ele>
<time>2022-05-25T13:35:47Z</time>
</trkpt>
<trkpt lat="48.149776" lon="10.985219">
<ele>582.758</ele>
<time>2022-05-25T13:35:58Z</time>
</trkpt>
<trkpt lat="48.149773" lon="10.985223">
<ele>582.758</ele>
<time>2022-05-25T13:35:59Z</time>
</trkpt>
<trkpt lat="48.149773" lon="10.985225">
<ele>582.758</ele>
<time>2022-05-25T13:36:00Z</time>
</trkpt>
<trkpt lat="48.149765" lon="10.985233">
<ele>582.758</ele>
<time>2022-05-25T13:36:01Z</time>
</trkpt>
<trkpt lat="48.149757" lon="10.985244">
<ele>582.758</ele>
<time>2022-05-25T13:36:02Z</time>
</trkpt>
<trkpt lat="48.149746" lon="10.985257">
<ele>582.758</ele>
<time>2022-05-25T13:36:03Z</time>
</trkpt>
<trkpt lat="48.149731" lon="10.985271">
<ele>582.758</ele>
<time>2022-05-25T13:36:04Z</time>
</trkpt>
<trkpt lat="48.149708" lon="10.985285">
<ele>582.758</ele>
<time>2022-05-25T13:36:05Z</time>
</trkpt>
<trkpt lat="48.149689" lon="10.9853">
<ele>582.758</ele>
<time>2022-05-25T13:36:06Z</time>
</trkpt>
<trkpt lat="48.14967" lon="10.985313">
<ele>582.758</ele>
<time>2022-05-25T13:36:07Z</time>
</trkpt>
<trkpt lat="48.149651" lon="10.985326">
<ele>582.758</ele>
<time>2022-05-25T13:36:08Z</time>
</trkpt>
<trkpt lat="48.149628" lon="10.985334">
<ele>582.758</ele>
<time>2022-05-25T13:36:09Z</time>
</trkpt>
<trkpt lat="48.149609" lon="10.985352">
<ele>582.758</ele>
<time>2022-05-25T13:36:10Z</time>
</trkpt>
<trkpt lat="48.14959" lon="10.985372">
<ele>582.758</ele>
<time>2022-05-25T13:36:11Z</time>
</trkpt>
<trkpt lat="48.149567" lon="10.985394">
<ele>582.758</ele>
<time>2022-05-25T13:36:12Z</time>
</trkpt>
<trkpt lat="48.149544" lon="10.985412">
<ele>582.758</ele>
<time>2022-05-25T13:36:13Z</time>
</trkpt>
<trkpt lat="48.149525" lon="10.985427">
<ele>582.758</ele>
<time>2022-05-25T13:36:14Z</time>
</trkpt>
<trkpt lat="48.149502" lon="10.985441">
<ele>582.758</ele>
<time>2022-05-25T13:36:15Z</time>
</trkpt>
<trkpt lat="48.149479" lon="10.985456">
<ele>582.758</ele>
<time>2022-05-25T13:36:16Z</time>
</trkpt>
<trkpt lat="48.149464" lon="10.985465">
<ele>582.758</ele>
<time>2022-05-25T13:36:17Z</time>
</trkpt>
<trkpt lat="48.149445" lon="10.985478">
<ele>582.758</ele>
<time>2022-05-25T13:36:18Z</time>
</trkpt>
<trkpt lat="48.149426" lon="10.985496">
<ele>582.758</ele>
<time>2022-05-25T13:36:19Z</time>
</trkpt>
<trkpt lat="48.149406" lon="10.98551">
<ele>582.758</ele>
<time>2022-05-25T13:36:20Z</time>
</trkpt>
<trkpt lat="48.149384" lon="10.985529">
<ele>582.758</ele>
<time>2022-05-25T13:36:21Z</time>
</trkpt>
<trkpt lat="48.149357" lon="10.985554">
<ele>582.758</ele>
<time>2022-05-25T13:36:22Z</time>
</trkpt>
<trkpt lat="48.149334" lon="10.985583">
<ele>582.758</ele>
<time>2022-05-25T13:36:23Z</time>
</trkpt>
<trkpt lat="48.149311" lon="10.985611">
<ele>582.758</ele>
<time>2022-05-25T13:36:24Z</time>
</trkpt>
<trkpt lat="48.149281" lon="10.985635">
<ele>582.758</ele>
<time>2022-05-25T13:36:25Z</time>
</trkpt>
<trkpt lat="48.149254" lon="10.985659">
<ele>582.758</ele>
<time>2022-05-25T13:36:26Z</time>
</trkpt>
<trkpt lat="48.149227" lon="10.985678">
<ele>582.758</ele>
<time>2022-05-25T13:36:27Z</time>
</trkpt>
<trkpt lat="48.149197" lon="10.985695">
<ele>582.758</ele>
<time>2022-05-25T13:36:28Z</time>
</trkpt>
<trkpt lat="48.149166" lon="10.98571">
<ele>582.758</ele>
<time>2022-05-25T13:36:29Z</time>
</trkpt>
<trkpt lat="48.149136" lon="10.985725">
<ele>582.758</ele>
<time>2022-05-25T13:36:30Z</time>
</trkpt>
<trkpt lat="48.149101" lon="10.985744">
<ele>582.758</ele>
<time>2022-05-25T13:36:31Z</time>
</trkpt>
<trkpt lat="48.149071" lon="10.985764">
<ele>582.758</ele>
<time>2022-05-25T13:36:32Z</time>
</trkpt>
<trkpt lat="48.14904" lon="10.985781">
<ele>582.758</ele>
<time>2022-05-25T13:36:33Z</time>
</trkpt>
<trkpt lat="48.14901" lon="10.985802">
<ele>582.758</ele>
<time>2022-05-25T13:36:34Z</time>
</trkpt>
<trkpt lat="48.148983" lon="10.985825">
<ele>582.758</ele>
<time>2022-05-25T13:36:35Z</time>
</trkpt>
<trkpt lat="48.148952" lon="10.985847">
<ele>582.758</ele>
<time>2022-05-25T13:36:36Z</time>
</trkpt>
<trkpt lat="48.148926" lon="10.985868">
<ele>582.758</ele>
<time>2022-05-25T13:36:37Z</time>
</trkpt>
<trkpt lat="48.148899" lon="10.985884">
<ele>582.758</ele>
<time>2022-05-25T13:36:38Z</time>
</trkpt>
<trkpt lat="48.148876" lon="10.985898">
<ele>582.758</ele>
<time>2022-05-25T13:36:39Z</time>
</trkpt>
<trkpt lat="48.148853" lon="10.985915">
<ele>582.758</ele>
<time>2022-05-25T13:36:40Z</time>
</trkpt>
<trkpt lat="48.14883" lon="10.985931">
<ele>582.758</ele>
<time>2022-05-25T13:36:41Z</time>
</trkpt>
<trkpt lat="48.148811" lon="10.98595">
<ele>582.758</ele>
<time>2022-05-25T13:36:42Z</time>
</trkpt>
<trkpt lat="48.148788" lon="10.985969">
<ele>582.758</ele>
<time>2022-05-25T13:36:43Z</time>
</trkpt>
<trkpt lat="48.148773" lon="10.985987">
<ele>582.758</ele>
<time>2022-05-25T13:36:44Z</time>
</trkpt>
<trkpt lat="48.148754" lon="10.986002">
<ele>582.758</ele>
<time>2022-05-25T13:36:45Z</time>
</trkpt>
<trkpt lat="48.148735" lon="10.986015">
<ele>582.758</ele>
<time>2022-05-25T13:36:46Z</time>
</trkpt>
<trkpt lat="48.148724" lon="10.986027">
<ele>582.758</ele>
<time>2022-05-25T13:36:47Z</time>
</trkpt>
<trkpt lat="48.148716" lon="10.986038">
<ele>582.758</ele>
<time>2022-05-25T13:36:48Z</time>
</trkpt>
<trkpt lat="48.148716" lon="10.986042">
<ele>582.758</ele>
<time>2022-05-25T13:36:49Z</time>
</trkpt>
<trkpt lat="48.148716" lon="10.98604">
<ele>582.758</ele>
<time>2022-05-25T13:36:50Z</time>
</trkpt>
<trkpt lat="48.148716" lon="10.986038">
<ele>582.758</ele>
<time>2022-05-25T13:36:51Z</time>
</trkpt>
<trkpt lat="48.148708" lon="10.986063">
<ele>582.758</ele>
<time>2022-05-25T13:36:58Z</time>
</trkpt>
<trkpt lat="48.148705" lon="10.98608">
<ele>582.758</ele>
<time>2022-05-25T13:36:59Z</time>
</trkpt>
<trkpt lat="48.148693" lon="10.986101">
<ele>582.758</ele>
<time>2022-05-25T13:37:00Z</time>
</trkpt>
<trkpt lat="48.148685" lon="10.986135">
<ele>582.758</ele>
<time>2022-05-25T13:37:01Z</time>
</trkpt>
<trkpt lat="48.14867" lon="10.986175">
<ele>582.758</ele>
<time>2022-05-25T13:37:02Z</time>
</trkpt>
<trkpt lat="48.148659" lon="10.986215">
<ele>582.758</ele>
<time>2022-05-25T13:37:03Z</time>
</trkpt>
<trkpt lat="48.148643" lon="10.986257">
<ele>582.758</ele>
<time>2022-05-25T13:37:04Z</time>
</trkpt>
<trkpt lat="48.148624" lon="10.9863">
<ele>582.758</ele>
<time>2022-05-25T13:37:05Z</time>
</trkpt>
<trkpt lat="48.148609" lon="10.98635">
<ele>582.758</ele>
<time>2022-05-25T13:37:06Z</time>
</trkpt>
<trkpt lat="48.148594" lon="10.986401">
<ele>582.758</ele>
<time>2022-05-25T13:37:07Z</time>
</trkpt>
<trkpt lat="48.148575" lon="10.986446">
<ele>582.758</ele>
<time>2022-05-25T13:37:08Z</time>
</trkpt>
<trkpt lat="48.148556" lon="10.986495">
<ele>582.758</ele>
<time>2022-05-25T13:37:09Z</time>
</trkpt>
<trkpt lat="48.148537" lon="10.986546">
<ele>582.758</ele>
<time>2022-05-25T13:37:10Z</time>
</trkpt>
<trkpt lat="48.148518" lon="10.986595">
<ele>582.758</ele>
<time>2022-05-25T13:37:11Z</time>
</trkpt>
<trkpt lat="48.148502" lon="10.98665">
<ele>582.758</ele>
<time>2022-05-25T13:37:12Z</time>
</trkpt>
<trkpt lat="48.148487" lon="10.986705">
<ele>582.758</ele>
<time>2022-05-25T13:37:13Z</time>
</trkpt>
<trkpt lat="48.148468" lon="10.98676">
<ele>582.975</ele>
<time>2022-05-25T13:37:14Z</time>
</trkpt>
<trkpt lat="48.148453" lon="10.986817">
<ele>583.128</ele>
<time>2022-05-25T13:37:15Z</time>
</trkpt>
<trkpt lat="48.148434" lon="10.986876">
<ele>583.287</ele>
<time>2022-05-25T13:37:16Z</time>
</trkpt>
<trkpt lat="48.148418" lon="10.986935">
<ele>583.41</ele>
<time>2022-05-25T13:37:17Z</time>
</trkpt>
<trkpt lat="48.148399" lon="10.986996">
<ele>583.504</ele>
<time>2022-05-25T13:37:18Z</time>
</trkpt>
<trkpt lat="48.148384" lon="10.987055">
<ele>583.57</ele>
<time>2022-05-25T13:37:19Z</time>
</trkpt>
<trkpt lat="48.148365" lon="10.987115">
<ele>583.612</ele>
<time>2022-05-25T13:37:20Z</time>
</trkpt>
<trkpt lat="48.14835" lon="10.987173">
<ele>583.633</ele>
<time>2022-05-25T13:37:21Z</time>
</trkpt>
<trkpt lat="48.148331" lon="10.987233">
<ele>583.633</ele>
<time>2022-05-25T13:37:22Z</time>
</trkpt>
<trkpt lat="48.148312" lon="10.987293">
<ele>583.633</ele>
<time>2022-05-25T13:37:23Z</time>
</trkpt>
<trkpt lat="48.148296" lon="10.987353">
<ele>583.633</ele>
<time>2022-05-25T13:37:24Z</time>
</trkpt>
<trkpt lat="48.148273" lon="10.987413">
<ele>583.633</ele>
<time>2022-05-25T13:37:26Z</time>
</trkpt>
<trkpt lat="48.148239" lon="10.987523">
<ele>583.633</ele>
<time>2022-05-25T13:37:27Z</time>
</trkpt>
<trkpt lat="48.148228" lon="10.987576">
<ele>583.633</ele>
<time>2022-05-25T13:37:28Z</time>
</trkpt>
<trkpt lat="48.148209" lon="10.987626">
<ele>583.633</ele>
<time>2022-05-25T13:37:29Z</time>
</trkpt>
<trkpt lat="48.148197" lon="10.987675">
<ele>583.633</ele>
<time>2022-05-25T13:37:30Z</time>
</trkpt>
<trkpt lat="48.148182" lon="10.987717">
<ele>583.633</ele>
<time>2022-05-25T13:37:31Z</time>
</trkpt>
<trkpt lat="48.14817" lon="10.987757">
<ele>583.633</ele>
<time>2022-05-25T13:37:32Z</time>
</trkpt>
<trkpt lat="48.148159" lon="10.987797">
<ele>583.633</ele>
<time>2022-05-25T13:37:33Z</time>
</trkpt>
<trkpt lat="48.148148" lon="10.987836">
<ele>583.633</ele>
<time>2022-05-25T13:37:34Z</time>
</trkpt>
<trkpt lat="48.148136" lon="10.987877">
<ele>583.633</ele>
<time>2022-05-25T13:37:35Z</time>
</trkpt>
<trkpt lat="48.148125" lon="10.987918">
<ele>583.633</ele>
<time>2022-05-25T13:37:36Z</time>
</trkpt>
<trkpt lat="48.148109" lon="10.98796">
<ele>583.633</ele>
<time>2022-05-25T13:37:37Z</time>
</trkpt>
<trkpt lat="48.148102" lon="10.987997">
<ele>583.633</ele>
<time>2022-05-25T13:37:38Z</time>
</trkpt>
<trkpt lat="48.148087" lon="10.988035">
<ele>583.633</ele>
<time>2022-05-25T13:37:39Z</time>
</trkpt>
<trkpt lat="48.148075" lon="10.988075">
<ele>583.633</ele>
<time>2022-05-25T13:37:40Z</time>
</trkpt>
<trkpt lat="48.148064" lon="10.988114">
<ele>583.633</ele>
<time>2022-05-25T13:37:41Z</time>
</trkpt>
<trkpt lat="48.148048" lon="10.98816">
<ele>583.633</ele>
<time>2022-05-25T13:37:42Z</time>
</trkpt>
<trkpt lat="48.148037" lon="10.988212">
<ele>583.633</ele>
<time>2022-05-25T13:37:43Z</time>
</trkpt>
<trkpt lat="48.148022" lon="10.988261">
<ele>583.633</ele>
<time>2022-05-25T13:37:44Z</time>
</trkpt>
<trkpt lat="48.148006" lon="10.988307">
<ele>583.633</ele>
<time>2022-05-25T13:37:45Z</time>
</trkpt>
<trkpt lat="48.147995" lon="10.98835">
<ele>583.633</ele>
<time>2022-05-25T13:37:46Z</time>
</trkpt>
<trkpt lat="48.14798" lon="10.988397">
<ele>583.633</ele>
<time>2022-05-25T13:37:47Z</time>
</trkpt>
<trkpt lat="48.147964" lon="10.988443">
<ele>583.633</ele>
<time>2022-05-25T13:37:48Z</time>
</trkpt>
<trkpt lat="48.147945" lon="10.988492">
<ele>583.633</ele>
<time>2022-05-25T13:37:49Z</time>
</trkpt>
<trkpt lat="48.147938" lon="10.988544">
<ele>583.633</ele>
<time>2022-05-25T13:37:50Z</time>
</trkpt>
<trkpt lat="48.147919" lon="10.988595">
<ele>583.633</ele>
<time>2022-05-25T13:37:51Z</time>
</trkpt>
<trkpt lat="48.147907" lon="10.988648">
<ele>583.633</ele>
<time>2022-05-25T13:37:52Z</time>
</trkpt>
<trkpt lat="48.147888" lon="10.9887">
<ele>583.633</ele>
<time>2022-05-25T13:37:53Z</time>
</trkpt>
<trkpt lat="48.147873" lon="10.988753">
<ele>583.633</ele>
<time>2022-05-25T13:37:54Z</time>
</trkpt>
<trkpt lat="48.14785" lon="10.98881">
<ele>583.633</ele>
<time>2022-05-25T13:37:55Z</time>
</trkpt>
<trkpt lat="48.147835" lon="10.988863">
<ele>583.633</ele>
<time>2022-05-25T13:37:56Z</time>
</trkpt>
<trkpt lat="48.147816" lon="10.98892">
<ele>583.633</ele>
<time>2022-05-25T13:37:57Z</time>
</trkpt>
<trkpt lat="48.1478" lon="10.988974">
<ele>583.633</ele>
<time>2022-05-25T13:37:58Z</time>
</trkpt>
<trkpt lat="48.147778" lon="10.98903">
<ele>583.908</ele>
<time>2022-05-25T13:37:59Z</time>
</trkpt>
<trkpt lat="48.147766" lon="10.989087">
<ele>584.116</ele>
<time>2022-05-25T13:38:00Z</time>
</trkpt>
<trkpt lat="48.147747" lon="10.989145">
<ele>584.274</ele>
<time>2022-05-25T13:38:01Z</time>
</trkpt>
<trkpt lat="48.147732" lon="10.989202">
<ele>584.394</ele>
<time>2022-05-25T13:38:02Z</time>
</trkpt>
<trkpt lat="48.147713" lon="10.989259">
<ele>584.475</ele>
<time>2022-05-25T13:38:03Z</time>
</trkpt>
<trkpt lat="48.14769" lon="10.989313">
<ele>584.527</ele>
<time>2022-05-25T13:38:04Z</time>
</trkpt>
<trkpt lat="48.147675" lon="10.989369">
<ele>584.568</ele>
<time>2022-05-25T13:38:05Z</time>
</trkpt>
<trkpt lat="48.147655" lon="10.989427">
<ele>584.595</ele>
<time>2022-05-25T13:38:06Z</time>
</trkpt>
<trkpt lat="48.14764" lon="10.989485">
<ele>584.595</ele>
<time>2022-05-25T13:38:07Z</time>
</trkpt>
<trkpt lat="48.147621" lon="10.989543">
<ele>584.595</ele>
<time>2022-05-25T13:38:08Z</time>
</trkpt>
<trkpt lat="48.147606" lon="10.989602">
<ele>584.595</ele>
<time>2022-05-25T13:38:09Z</time>
</trkpt>
<trkpt lat="48.147587" lon="10.989661">
<ele>584.595</ele>
<time>2022-05-25T13:38:10Z</time>
</trkpt>
<trkpt lat="48.147572" lon="10.989725">
<ele>584.595</ele>
<time>2022-05-25T13:38:11Z</time>
</trkpt>
<trkpt lat="48.147552" lon="10.989788">
<ele>584.595</ele>
<time>2022-05-25T13:38:12Z</time>
</trkpt>
<trkpt lat="48.147537" lon="10.989852">
<ele>584.595</ele>
<time>2022-05-25T13:38:13Z</time>
</trkpt>
<trkpt lat="48.147518" lon="10.989917">
<ele>584.595</ele>
<time>2022-05-25T13:38:14Z</time>
</trkpt>
<trkpt lat="48.147495" lon="10.989979">
<ele>584.595</ele>
<time>2022-05-25T13:38:15Z</time>
</trkpt>
<trkpt lat="48.147472" lon="10.990042">
<ele>584.595</ele>
<time>2022-05-25T13:38:16Z</time>
</trkpt>
<trkpt lat="48.147453" lon="10.990105">
<ele>584.595</ele>
<time>2022-05-25T13:38:17Z</time>
</trkpt>
<trkpt lat="48.147434" lon="10.990168">
<ele>584.595</ele>
<time>2022-05-25T13:38:18Z</time>
</trkpt>
<trkpt lat="48.147419" lon="10.990233">
<ele>584.595</ele>
<time>2022-05-25T13:38:19Z</time>
</trkpt>
<trkpt lat="48.147396" lon="10.990297">
<ele>584.595</ele>
<time>2022-05-25T13:38:20Z</time>
</trkpt>
<trkpt lat="48.147381" lon="10.990362">
<ele>584.595</ele>
<time>2022-05-25T13:38:21Z</time>
</trkpt>
<trkpt lat="48.147354" lon="10.990427">
<ele>584.595</ele>
<time>2022-05-25T13:38:22Z</time>
</trkpt>
<trkpt lat="48.147335" lon="10.990492">
<ele>584.595</ele>
<time>2022-05-25T13:38:23Z</time>
</trkpt>
<trkpt lat="48.147316" lon="10.990555">
<ele>584.595</ele>
<time>2022-05-25T13:38:24Z</time>
</trkpt>
<trkpt lat="48.147293" lon="10.99062">
<ele>584.595</ele>
<time>2022-05-25T13:38:25Z</time>
</trkpt>
<trkpt lat="48.147274" lon="10.990684">
<ele>584.595</ele>
<time>2022-05-25T13:38:26Z</time>
</trkpt>
<trkpt lat="48.147255" lon="10.990748">
<ele>584.595</ele>
<time>2022-05-25T13:38:27Z</time>
</trkpt>
<trkpt lat="48.147232" lon="10.990813">
<ele>584.595</ele>
<time>2022-05-25T13:38:28Z</time>
</trkpt>
<trkpt lat="48.147213" lon="10.990878">
<ele>584.595</ele>
<time>2022-05-25T13:38:29Z</time>
</trkpt>
<trkpt lat="48.147194" lon="10.990941">
<ele>584.595</ele>
<time>2022-05-25T13:38:30Z</time>
</trkpt>
<trkpt lat="48.147175" lon="10.991006">
<ele>584.595</ele>
<time>2022-05-25T13:38:31Z</time>
</trkpt>
<trkpt lat="48.147156" lon="10.991072">
<ele>584.595</ele>
<time>2022-05-25T13:38:32Z</time>
</trkpt>
<trkpt lat="48.147129" lon="10.991138">
<ele>584.595</ele>
<time>2022-05-25T13:38:33Z</time>
</trkpt>
<trkpt lat="48.147114" lon="10.991205">
<ele>584.595</ele>
<time>2022-05-25T13:38:34Z</time>
</trkpt>
<trkpt lat="48.147095" lon="10.991272">
<ele>584.595</ele>
<time>2022-05-25T13:38:35Z</time>
</trkpt>
<trkpt lat="48.147068" lon="10.991339">
<ele>584.595</ele>
<time>2022-05-25T13:38:36Z</time>
</trkpt>
<trkpt lat="48.147049" lon="10.991405">
<ele>584.595</ele>
<time>2022-05-25T13:38:37Z</time>
</trkpt>
<trkpt lat="48.14703" lon="10.991473">
<ele>584.595</ele>
<time>2022-05-25T13:38:38Z</time>
</trkpt>
<trkpt lat="48.147007" lon="10.99154">
<ele>584.595</ele>
<time>2022-05-25T13:38:39Z</time>
</trkpt>
<trkpt lat="48.146988" lon="10.991607">
<ele>584.595</ele>
<time>2022-05-25T13:38:40Z</time>
</trkpt>
<trkpt lat="48.146965" lon="10.991674">
<ele>584.595</ele>
<time>2022-05-25T13:38:41Z</time>
</trkpt>
<trkpt lat="48.146946" lon="10.991741">
<ele>584.595</ele>
<time>2022-05-25T13:38:42Z</time>
</trkpt>
<trkpt lat="48.146923" lon="10.991808">
<ele>584.595</ele>
<time>2022-05-25T13:38:43Z</time>
</trkpt>
<trkpt lat="48.146904" lon="10.991873">
<ele>584.595</ele>
<time>2022-05-25T13:38:44Z</time>
</trkpt>
<trkpt lat="48.146889" lon="10.991939">
<ele>584.595</ele>
<time>2022-05-25T13:38:45Z</time>
</trkpt>
<trkpt lat="48.146866" lon="10.992003">
<ele>584.595</ele>
<time>2022-05-25T13:38:46Z</time>
</trkpt>
<trkpt lat="48.146847" lon="10.99207">
<ele>584.595</ele>
<time>2022-05-25T13:38:47Z</time>
</trkpt>
<trkpt lat="48.146832" lon="10.992137">
<ele>584.595</ele>
<time>2022-05-25T13:38:48Z</time>
</trkpt>
<trkpt lat="48.146816" lon="10.992202">
<ele>584.595</ele>
<time>2022-05-25T13:38:49Z</time>
</trkpt>
<trkpt lat="48.146801" lon="10.99227">
<ele>584.854</ele>
<time>2022-05-25T13:38:50Z</time>
</trkpt>
<trkpt lat="48.146786" lon="10.992338">
<ele>585.058</ele>
<time>2022-05-25T13:38:51Z</time>
</trkpt>
<trkpt lat="48.14677" lon="10.992407">
<ele>585.216</ele>
<time>2022-05-25T13:38:52Z</time>
</trkpt>
<trkpt lat="48.146755" lon="10.992475">
<ele>585.334</ele>
<time>2022-05-25T13:38:53Z</time>
</trkpt>
<trkpt lat="48.14674" lon="10.992543">
<ele>585.415</ele>
<time>2022-05-25T13:38:54Z</time>
</trkpt>
<trkpt lat="48.146725" lon="10.992613">
<ele>585.476</ele>
<time>2022-05-25T13:38:55Z</time>
</trkpt>
<trkpt lat="48.146709" lon="10.992685">
<ele>585.531</ele>
<time>2022-05-25T13:38:56Z</time>
</trkpt>
<trkpt lat="48.146698" lon="10.992757">
<ele>585.557</ele>
<time>2022-05-25T13:38:57Z</time>
</trkpt>
<trkpt lat="48.146687" lon="10.992828">
<ele>585.557</ele>
<time>2022-05-25T13:38:58Z</time>
</trkpt>
<trkpt lat="48.146671" lon="10.992898">
<ele>585.557</ele>
<time>2022-05-25T13:38:59Z</time>
</trkpt>
<trkpt lat="48.146656" lon="10.992969">
<ele>585.557</ele>
<time>2022-05-25T13:39:00Z</time>
</trkpt>
<trkpt lat="48.146637" lon="10.99304">
<ele>585.557</ele>
<time>2022-05-25T13:39:01Z</time>
</trkpt>
<trkpt lat="48.146626" lon="10.99311">
<ele>585.557</ele>
<time>2022-05-25T13:39:02Z</time>
</trkpt>
<trkpt lat="48.146603" lon="10.993178">
<ele>585.557</ele>
<time>2022-05-25T13:39:03Z</time>
</trkpt>
<trkpt lat="48.146576" lon="10.993243">
<ele>585.557</ele>
<time>2022-05-25T13:39:04Z</time>
</trkpt>
<trkpt lat="48.146545" lon="10.993303">
<ele>585.557</ele>
<time>2022-05-25T13:39:05Z</time>
</trkpt>
<trkpt lat="48.146507" lon="10.993359">
<ele>585.557</ele>
<time>2022-05-25T13:39:06Z</time>
</trkpt>
<trkpt lat="48.146465" lon="10.993402">
<ele>585.556</ele>
<time>2022-05-25T13:39:07Z</time>
</trkpt>
<trkpt lat="48.146416" lon="10.99344">
<ele>585.556</ele>
<time>2022-05-25T13:39:08Z</time>
</trkpt>
<trkpt lat="48.146374" lon="10.993473">
<ele>585.557</ele>
<time>2022-05-25T13:39:09Z</time>
</trkpt>
<trkpt lat="48.146328" lon="10.993504">
<ele>585.557</ele>
<time>2022-05-25T13:39:10Z</time>
</trkpt>
<trkpt lat="48.146278" lon="10.993533">
<ele>585.557</ele>
<time>2022-05-25T13:39:11Z</time>
</trkpt>
<trkpt lat="48.146233" lon="10.993566">
<ele>585.557</ele>
<time>2022-05-25T13:39:12Z</time>
</trkpt>
<trkpt lat="48.146191" lon="10.993602">
<ele>585.556</ele>
<time>2022-05-25T13:39:13Z</time>
</trkpt>
<trkpt lat="48.146149" lon="10.99364">
<ele>585.556</ele>
<time>2022-05-25T13:39:14Z</time>
</trkpt>
<trkpt lat="48.146107" lon="10.993679">
<ele>585.557</ele>
<time>2022-05-25T13:39:15Z</time>
</trkpt>
<trkpt lat="48.146061" lon="10.993716">
<ele>585.557</ele>
<time>2022-05-25T13:39:16Z</time>
</trkpt>
<trkpt lat="48.146019" lon="10.993754">
<ele>585.556</ele>
<time>2022-05-25T13:39:17Z</time>
</trkpt>
<trkpt lat="48.145981" lon="10.99379">
<ele>585.557</ele>
<time>2022-05-25T13:39:18Z</time>
</trkpt>
<trkpt lat="48.145939" lon="10.993825">
<ele>585.557</ele>
<time>2022-05-25T13:39:19Z</time>
</trkpt>
<trkpt lat="48.145897" lon="10.993861">
<ele>585.557</ele>
<time>2022-05-25T13:39:20Z</time>
</trkpt>
<trkpt lat="48.145859" lon="10.993896">
<ele>585.557</ele>
<time>2022-05-25T13:39:21Z</time>
</trkpt>
<trkpt lat="48.145821" lon="10.993933">
<ele>585.557</ele>
<time>2022-05-25T13:39:22Z</time>
</trkpt>
<trkpt lat="48.145782" lon="10.993966">
<ele>585.557</ele>
<time>2022-05-25T13:39:23Z</time>
</trkpt>
<trkpt lat="48.145741" lon="10.993999">
<ele>585.557</ele>
<time>2022-05-25T13:39:24Z</time>
</trkpt>
<trkpt lat="48.145706" lon="10.994033">
<ele>585.557</ele>
<time>2022-05-25T13:39:25Z</time>
</trkpt>
<trkpt lat="48.145664" lon="10.994066">
<ele>585.556</ele>
<time>2022-05-25T13:39:26Z</time>
</trkpt>
<trkpt lat="48.14563" lon="10.9941">
<ele>585.556</ele>
<time>2022-05-25T13:39:27Z</time>
</trkpt>
<trkpt lat="48.145596" lon="10.994134">
<ele>585.557</ele>
<time>2022-05-25T13:39:28Z</time>
</trkpt>
<trkpt lat="48.145557" lon="10.994165">
<ele>585.557</ele>
<time>2022-05-25T13:39:29Z</time>
</trkpt>
<trkpt lat="48.145515" lon="10.994199">
<ele>585.557</ele>
<time>2022-05-25T13:39:30Z</time>
</trkpt>
<trkpt lat="48.145481" lon="10.99423">
<ele>585.556</ele>
<time>2022-05-25T13:39:31Z</time>
</trkpt>
<trkpt lat="48.145439" lon="10.994262">
<ele>585.557</ele>
<time>2022-05-25T13:39:32Z</time>
</trkpt>
<trkpt lat="48.145405" lon="10.994293">
<ele>585.557</ele>
<time>2022-05-25T13:39:33Z</time>
</trkpt>
<trkpt lat="48.145367" lon="10.994325">
<ele>585.557</ele>
<time>2022-05-25T13:39:34Z</time>
</trkpt>
<trkpt lat="48.145332" lon="10.994358">
<ele>585.556</ele>
<time>2022-05-25T13:39:35Z</time>
</trkpt>
<trkpt lat="48.145294" lon="10.994393">
<ele>585.556</ele>
<time>2022-05-25T13:39:36Z</time>
</trkpt>
<trkpt lat="48.145256" lon="10.994427">
<ele>585.556</ele>
<time>2022-05-25T13:39:37Z</time>
</trkpt>
<trkpt lat="48.145218" lon="10.994458">
<ele>585.557</ele>
<time>2022-05-25T13:39:38Z</time>
</trkpt>
<trkpt lat="48.145176" lon="10.994492">
<ele>585.556</ele>
<time>2022-05-25T13:39:39Z</time>
</trkpt>
<trkpt lat="48.145142" lon="10.994521">
<ele>585.557</ele>
<time>2022-05-25T13:39:40Z</time>
</trkpt>
<trkpt lat="48.145103" lon="10.994552">
<ele>585.556</ele>
<time>2022-05-25T13:39:41Z</time>
</trkpt>
<trkpt lat="48.145069" lon="10.994584">
<ele>585.557</ele>
<time>2022-05-25T13:39:42Z</time>
</trkpt>
<trkpt lat="48.145031" lon="10.994614">
<ele>585.557</ele>
<time>2022-05-25T13:39:43Z</time>
</trkpt>
<trkpt lat="48.144997" lon="10.994645">
<ele>585.557</ele>
<time>2022-05-25T13:39:44Z</time>
</trkpt>
<trkpt lat="48.144958" lon="10.994675">
<ele>585.557</ele>
<time>2022-05-25T13:39:45Z</time>
</trkpt>
<trkpt lat="48.14492" lon="10.994706">
<ele>585.556</ele>
<time>2022-05-25T13:39:46Z</time>
</trkpt>
<trkpt lat="48.144882" lon="10.994739">
<ele>585.557</ele>
<time>2022-05-25T13:39:47Z</time>
</trkpt>
<trkpt lat="48.144844" lon="10.994768">
<ele>585.557</ele>
<time>2022-05-25T13:39:48Z</time>
</trkpt>
<trkpt lat="48.14481" lon="10.994796">
<ele>585.557</ele>
<time>2022-05-25T13:39:49Z</time>
</trkpt>
<trkpt lat="48.144772" lon="10.994829">
<ele>585.557</ele>
<time>2022-05-25T13:39:50Z</time>
</trkpt>
<trkpt lat="48.144733" lon="10.994862">
<ele>585.557</ele>
<time>2022-05-25T13:39:51Z</time>
</trkpt>
<trkpt lat="48.144695" lon="10.994895">
<ele>585.556</ele>
<time>2022-05-25T13:39:52Z</time>
</trkpt>
<trkpt lat="48.144657" lon="10.994926">
<ele>585.557</ele>
<time>2022-05-25T13:39:53Z</time>
</trkpt>
<trkpt lat="48.144615" lon="10.994957">
<ele>585.557</ele>
<time>2022-05-25T13:39:54Z</time>
</trkpt>
<trkpt lat="48.144581" lon="10.994987">
<ele>585.557</ele>
<time>2022-05-25T13:39:55Z</time>
</trkpt>
<trkpt lat="48.144539" lon="10.995018">
<ele>585.557</ele>
<time>2022-05-25T13:39:56Z</time>
</trkpt>
<trkpt lat="48.144501" lon="10.995051">
<ele>585.557</ele>
<time>2022-05-25T13:39:57Z</time>
</trkpt>
<trkpt lat="48.144466" lon="10.995087">
<ele>585.557</ele>
<time>2022-05-25T13:39:58Z</time>
</trkpt>
<trkpt lat="48.144424" lon="10.995123">
<ele>585.557</ele>
<time>2022-05-25T13:39:59Z</time>
</trkpt>
<trkpt lat="48.144386" lon="10.995156">
<ele>585.557</ele>
<time>2022-05-25T13:40:00Z</time>
</trkpt>
<trkpt lat="48.144348" lon="10.99519">
<ele>585.557</ele>
<time>2022-05-25T13:40:01Z</time>
</trkpt>
<trkpt lat="48.14431" lon="10.995221">
<ele>585.556</ele>
<time>2022-05-25T13:40:02Z</time>
</trkpt>
<trkpt lat="48.144268" lon="10.995253">
<ele>585.557</ele>
<time>2022-05-25T13:40:03Z</time>
</trkpt>
<trkpt lat="48.14423" lon="10.995288">
<ele>585.557</ele>
<time>2022-05-25T13:40:04Z</time>
</trkpt>
<trkpt lat="48.144192" lon="10.995321">
<ele>585.557</ele>
<time>2022-05-25T13:40:05Z</time>
</trkpt>
<trkpt lat="48.144154" lon="10.995355">
<ele>585.557</ele>
<time>2022-05-25T13:40:06Z</time>
</trkpt>
<trkpt lat="48.144115" lon="10.995387">
<ele>585.557</ele>
<time>2022-05-25T13:40:07Z</time>
</trkpt>
<trkpt lat="48.144073" lon="10.99542">
<ele>585.557</ele>
<time>2022-05-25T13:40:08Z</time>
</trkpt>
<trkpt lat="48.144035" lon="10.995457">
<ele>585.557</ele>
<time>2022-05-25T13:40:09Z</time>
</trkpt>
<trkpt lat="48.143997" lon="10.995491">
<ele>585.556</ele>
<time>2022-05-25T13:40:10Z</time>
</trkpt>
<trkpt lat="48.143963" lon="10.995523">
<ele>585.557</ele>
<time>2022-05-25T13:40:11Z</time>
</trkpt>
<trkpt lat="48.143925" lon="10.995555">
<ele>585.557</ele>
<time>2022-05-25T13:40:12Z</time>
</trkpt>
<trkpt lat="48.143887" lon="10.995588">
<ele>585.556</ele>
<time>2022-05-25T13:40:13Z</time>
</trkpt>
<trkpt lat="48.143845" lon="10.995622">
<ele>585.557</ele>
<time>2022-05-25T13:40:14Z</time>
</trkpt>
<trkpt lat="48.143806" lon="10.995659">
<ele>585.557</ele>
<time>2022-05-25T13:40:15Z</time>
</trkpt>
<trkpt lat="48.143768" lon="10.995693">
<ele>585.812</ele>
<time>2022-05-25T13:40:16Z</time>
</trkpt>
<trkpt lat="48.143734" lon="10.995728">
<ele>586.027</ele>
<time>2022-05-25T13:40:17Z</time>
</trkpt>
<trkpt lat="48.143696" lon="10.995764">
<ele>586.205</ele>
<time>2022-05-25T13:40:18Z</time>
</trkpt>
<trkpt lat="48.143658" lon="10.995797">
<ele>586.345</ele>
<time>2022-05-25T13:40:19Z</time>
</trkpt>
<trkpt lat="48.14362" lon="10.995831">
<ele>586.453</ele>
<time>2022-05-25T13:40:20Z</time>
</trkpt>
<trkpt lat="48.143578" lon="10.995865">
<ele>586.531</ele>
<time>2022-05-25T13:40:21Z</time>
</trkpt>
<trkpt lat="48.143539" lon="10.9959">
<ele>586.581</ele>
<time>2022-05-25T13:40:22Z</time>
</trkpt>
<trkpt lat="48.143501" lon="10.995935">
<ele>586.606</ele>
<time>2022-05-25T13:40:23Z</time>
</trkpt>
<trkpt lat="48.143463" lon="10.99597">
<ele>586.606</ele>
<time>2022-05-25T13:40:24Z</time>
</trkpt>
<trkpt lat="48.143421" lon="10.996005">
<ele>586.606</ele>
<time>2022-05-25T13:40:25Z</time>
</trkpt>
<trkpt lat="48.143383" lon="10.99604">
<ele>586.606</ele>
<time>2022-05-25T13:40:26Z</time>
</trkpt>
<trkpt lat="48.143345" lon="10.996077">
<ele>586.606</ele>
<time>2022-05-25T13:40:27Z</time>
</trkpt>
<trkpt lat="48.143307" lon="10.996112">
<ele>586.606</ele>
<time>2022-05-25T13:40:28Z</time>
</trkpt>
<trkpt lat="48.143265" lon="10.996147">
<ele>586.606</ele>
<time>2022-05-25T13:40:29Z</time>
</trkpt>
<trkpt lat="48.143223" lon="10.996181">
<ele>586.606</ele>
<time>2022-05-25T13:40:30Z</time>
</trkpt>
<trkpt lat="48.143185" lon="10.996212">
<ele>586.606</ele>
<time>2022-05-25T13:40:31Z</time>
</trkpt>
<trkpt lat="48.143147" lon="10.996243">
<ele>586.606</ele>
<time>2022-05-25T13:40:32Z</time>
</trkpt>
<trkpt lat="48.143105" lon="10.996277">
<ele>586.606</ele>
<time>2022-05-25T13:40:33Z</time>
</trkpt>
<trkpt lat="48.143063" lon="10.99631">
<ele>586.606</ele>
<time>2022-05-25T13:40:34Z</time>
</trkpt>
<trkpt lat="48.143017" lon="10.996342">
<ele>586.606</ele>
<time>2022-05-25T13:40:35Z</time>
</trkpt>
<trkpt lat="48.142982" lon="10.996377">
<ele>586.606</ele>
<time>2022-05-25T13:40:36Z</time>
</trkpt>
<trkpt lat="48.142941" lon="10.99641">
<ele>586.606</ele>
<time>2022-05-25T13:40:37Z</time>
</trkpt>
<trkpt lat="48.142902" lon="10.996443">
<ele>586.606</ele>
<time>2022-05-25T13:40:38Z</time>
</trkpt>
<trkpt lat="48.14286" lon="10.996475">
<ele>586.606</ele>
<time>2022-05-25T13:40:39Z</time>
</trkpt>
<trkpt lat="48.142822" lon="10.996501">
<ele>586.606</ele>
<time>2022-05-25T13:40:40Z</time>
</trkpt>
<trkpt lat="48.142784" lon="10.996533">
<ele>586.606</ele>
<time>2022-05-25T13:40:41Z</time>
</trkpt>
<trkpt lat="48.142742" lon="10.996567">
<ele>586.606</ele>
<time>2022-05-25T13:40:42Z</time>
</trkpt>
<trkpt lat="48.142708" lon="10.9966">
<ele>586.606</ele>
<time>2022-05-25T13:40:43Z</time>
</trkpt>
<trkpt lat="48.14267" lon="10.996634">
<ele>586.606</ele>
<time>2022-05-25T13:40:44Z</time>
</trkpt>
<trkpt lat="48.142635" lon="10.996665">
<ele>586.606</ele>
<time>2022-05-25T13:40:45Z</time>
</trkpt>
<trkpt lat="48.142597" lon="10.996696">
<ele>586.606</ele>
<time>2022-05-25T13:40:46Z</time>
</trkpt>
<trkpt lat="48.142563" lon="10.996725">
<ele>586.606</ele>
<time>2022-05-25T13:40:47Z</time>
</trkpt>
<trkpt lat="48.142525" lon="10.996757">
<ele>586.606</ele>
<time>2022-05-25T13:40:48Z</time>
</trkpt>
<trkpt lat="48.14249" lon="10.996786">
<ele>586.919</ele>
<time>2022-05-25T13:40:49Z</time>
</trkpt>
<trkpt lat="48.142452" lon="10.996817">
<ele>587.17</ele>
<time>2022-05-25T13:40:50Z</time>
</trkpt>
<trkpt lat="48.142414" lon="10.996847">
<ele>587.362</ele>
<time>2022-05-25T13:40:51Z</time>
</trkpt>
<trkpt lat="48.142376" lon="10.996877">
<ele>587.501</ele>
<time>2022-05-25T13:40:52Z</time>
</trkpt>
<trkpt lat="48.142342" lon="10.996907">
<ele>587.596</ele>
<time>2022-05-25T13:40:53Z</time>
</trkpt>
<trkpt lat="48.142307" lon="10.996935">
<ele>587.662</ele>
<time>2022-05-25T13:40:54Z</time>
</trkpt>
<trkpt lat="48.142269" lon="10.996964">
<ele>587.711</ele>
<time>2022-05-25T13:40:55Z</time>
</trkpt>
<trkpt lat="48.142235" lon="10.996993">
<ele>587.743</ele>
<time>2022-05-25T13:40:56Z</time>
</trkpt>
<trkpt lat="48.142197" lon="10.997023">
<ele>587.743</ele>
<time>2022-05-25T13:40:57Z</time>
</trkpt>
<trkpt lat="48.142162" lon="10.997055">
<ele>587.743</ele>
<time>2022-05-25T13:40:58Z</time>
</trkpt>
<trkpt lat="48.142124" lon="10.997088">
<ele>587.743</ele>
<time>2022-05-25T13:40:59Z</time>
</trkpt>
<trkpt lat="48.142086" lon="10.997122">
<ele>587.743</ele>
<time>2022-05-25T13:41:00Z</time>
</trkpt>
<trkpt lat="48.142048" lon="10.997155">
<ele>587.743</ele>
<time>2022-05-25T13:41:01Z</time>
</trkpt>
<trkpt lat="48.14201" lon="10.997187">
<ele>587.743</ele>
<time>2022-05-25T13:41:02Z</time>
</trkpt>
<trkpt lat="48.141972" lon="10.99722">
<ele>587.743</ele>
<time>2022-05-25T13:41:03Z</time>
</trkpt>
<trkpt lat="48.141933" lon="10.997252">
<ele>587.743</ele>
<time>2022-05-25T13:41:04Z</time>
</trkpt>
<trkpt lat="48.141895" lon="10.997283">
<ele>587.743</ele>
<time>2022-05-25T13:41:05Z</time>
</trkpt>
<trkpt lat="48.141853" lon="10.997316">
<ele>587.743</ele>
<time>2022-05-25T13:41:06Z</time>
</trkpt>
<trkpt lat="48.141819" lon="10.99735">
<ele>587.743</ele>
<time>2022-05-25T13:41:07Z</time>
</trkpt>
<trkpt lat="48.141781" lon="10.997385">
<ele>587.743</ele>
<time>2022-05-25T13:41:08Z</time>
</trkpt>
<trkpt lat="48.141743" lon="10.997418">
<ele>587.743</ele>
<time>2022-05-25T13:41:09Z</time>
</trkpt>
<trkpt lat="48.141697" lon="10.997452">
<ele>587.743</ele>
<time>2022-05-25T13:41:10Z</time>
</trkpt>
<trkpt lat="48.141655" lon="10.997483">
<ele>587.743</ele>
<time>2022-05-25T13:41:11Z</time>
</trkpt>
<trkpt lat="48.141613" lon="10.997513">
<ele>587.743</ele>
<time>2022-05-25T13:41:12Z</time>
</trkpt>
<trkpt lat="48.141571" lon="10.997546">
<ele>587.743</ele>
<time>2022-05-25T13:41:13Z</time>
</trkpt>
<trkpt lat="48.141525" lon="10.997581">
<ele>587.743</ele>
<time>2022-05-25T13:41:14Z</time>
</trkpt>
<trkpt lat="48.141487" lon="10.997614">
<ele>587.743</ele>
<time>2022-05-25T13:41:15Z</time>
</trkpt>
<trkpt lat="48.141445" lon="10.997645">
<ele>587.743</ele>
<time>2022-05-25T13:41:16Z</time>
</trkpt>
<trkpt lat="48.141403" lon="10.997679">
<ele>587.743</ele>
<time>2022-05-25T13:41:17Z</time>
</trkpt>
<trkpt lat="48.141357" lon="10.99771">
<ele>587.743</ele>
<time>2022-05-25T13:41:18Z</time>
</trkpt>
<trkpt lat="48.141319" lon="10.99774">
<ele>587.743</ele>
<time>2022-05-25T13:41:19Z</time>
</trkpt>
<trkpt lat="48.141277" lon="10.99777">
<ele>587.743</ele>
<time>2022-05-25T13:41:20Z</time>
</trkpt>
<trkpt lat="48.141235" lon="10.997798">
<ele>587.743</ele>
<time>2022-05-25T13:41:21Z</time>
</trkpt>
<trkpt lat="48.141193" lon="10.997828">
<ele>587.743</ele>
<time>2022-05-25T13:41:22Z</time>
</trkpt>
<trkpt lat="48.141155" lon="10.997859">
<ele>587.743</ele>
<time>2022-05-25T13:41:23Z</time>
</trkpt>
<trkpt lat="48.141117" lon="10.997887">
<ele>587.743</ele>
<time>2022-05-25T13:41:24Z</time>
</trkpt>
<trkpt lat="48.141071" lon="10.997915">
<ele>587.743</ele>
<time>2022-05-25T13:41:25Z</time>
</trkpt>
<trkpt lat="48.141029" lon="10.997943">
<ele>587.743</ele>
<time>2022-05-25T13:41:26Z</time>
</trkpt>
<trkpt lat="48.140991" lon="10.997972">
<ele>587.743</ele>
<time>2022-05-25T13:41:27Z</time>
</trkpt>
<trkpt lat="48.140953" lon="10.998001">
<ele>587.743</ele>
<time>2022-05-25T13:41:28Z</time>
</trkpt>
<trkpt lat="48.140911" lon="10.998032">
<ele>587.743</ele>
<time>2022-05-25T13:41:29Z</time>
</trkpt>
<trkpt lat="48.140865" lon="10.99806">
<ele>587.743</ele>
<time>2022-05-25T13:41:30Z</time>
</trkpt>
<trkpt lat="48.140831" lon="10.998089">
<ele>587.743</ele>
<time>2022-05-25T13:41:31Z</time>
</trkpt>
<trkpt lat="48.140789" lon="10.998116">
<ele>587.743</ele>
<time>2022-05-25T13:41:32Z</time>
</trkpt>
<trkpt lat="48.140751" lon="10.998143">
<ele>587.743</ele>
<time>2022-05-25T13:41:33Z</time>
</trkpt>
<trkpt lat="48.140709" lon="10.998172">
<ele>587.743</ele>
<time>2022-05-25T13:41:34Z</time>
</trkpt>
<trkpt lat="48.140671" lon="10.998199">
<ele>587.743</ele>
<time>2022-05-25T13:41:35Z</time>
</trkpt>
<trkpt lat="48.140629" lon="10.998225">
<ele>587.743</ele>
<time>2022-05-25T13:41:36Z</time>
</trkpt>
<trkpt lat="48.140591" lon="10.998252">
<ele>587.743</ele>
<time>2022-05-25T13:41:37Z</time>
</trkpt>
<trkpt lat="48.140549" lon="10.998281">
<ele>587.743</ele>
<time>2022-05-25T13:41:38Z</time>
</trkpt>
<trkpt lat="48.140507" lon="10.99831">
<ele>587.743</ele>
<time>2022-05-25T13:41:39Z</time>
</trkpt>
<trkpt lat="48.140469" lon="10.998341">
<ele>587.743</ele>
<time>2022-05-25T13:41:40Z</time>
</trkpt>
<trkpt lat="48.140427" lon="10.99837">
<ele>587.743</ele>
<time>2022-05-25T13:41:41Z</time>
</trkpt>
<trkpt lat="48.140388" lon="10.998399">
<ele>587.743</ele>
<time>2022-05-25T13:41:42Z</time>
</trkpt>
<trkpt lat="48.140347" lon="10.998426">
<ele>587.743</ele>
<time>2022-05-25T13:41:43Z</time>
</trkpt>
<trkpt lat="48.140308" lon="10.998456">
<ele>587.743</ele>
<time>2022-05-25T13:41:44Z</time>
</trkpt>
<trkpt lat="48.14027" lon="10.998488">
<ele>587.743</ele>
<time>2022-05-25T13:41:45Z</time>
</trkpt>
<trkpt lat="48.140224" lon="10.99852">
<ele>587.743</ele>
<time>2022-05-25T13:41:46Z</time>
</trkpt>
<trkpt lat="48.140186" lon="10.99855">
<ele>588.084</ele>
<time>2022-05-25T13:41:47Z</time>
</trkpt>
<trkpt lat="48.140148" lon="10.998584">
<ele>588.346</ele>
<time>2022-05-25T13:41:48Z</time>
</trkpt>
<trkpt lat="48.14011" lon="10.998615">
<ele>588.544</ele>
<time>2022-05-25T13:41:49Z</time>
</trkpt>
<trkpt lat="48.140068" lon="10.998649">
<ele>588.695</ele>
<time>2022-05-25T13:41:50Z</time>
</trkpt>
<trkpt lat="48.140026" lon="10.998676">
<ele>588.786</ele>
<time>2022-05-25T13:41:51Z</time>
</trkpt>
<trkpt lat="48.139988" lon="10.998703">
<ele>588.852</ele>
<time>2022-05-25T13:41:52Z</time>
</trkpt>
<trkpt lat="48.13995" lon="10.998729">
<ele>588.88</ele>
<time>2022-05-25T13:41:53Z</time>
</trkpt>
<trkpt lat="48.139912" lon="10.998755">
<ele>588.88</ele>
<time>2022-05-25T13:41:54Z</time>
</trkpt>
<trkpt lat="48.139874" lon="10.99878">
<ele>588.88</ele>
<time>2022-05-25T13:41:55Z</time>
</trkpt>
<trkpt lat="48.139832" lon="10.998805">
<ele>588.88</ele>
<time>2022-05-25T13:41:56Z</time>
</trkpt>
<trkpt lat="48.13979" lon="10.998832">
<ele>588.88</ele>
<time>2022-05-25T13:41:57Z</time>
</trkpt>
<trkpt lat="48.139751" lon="10.99886">
<ele>588.88</ele>
<time>2022-05-25T13:41:58Z</time>
</trkpt>
<trkpt lat="48.139709" lon="10.998887">
<ele>588.88</ele>
<time>2022-05-25T13:41:59Z</time>
</trkpt>
<trkpt lat="48.139668" lon="10.998915">
<ele>588.88</ele>
<time>2022-05-25T13:42:00Z</time>
</trkpt>
<trkpt lat="48.139629" lon="10.998941">
<ele>588.88</ele>
<time>2022-05-25T13:42:01Z</time>
</trkpt>
<trkpt lat="48.139591" lon="10.99897">
<ele>588.88</ele>
<time>2022-05-25T13:42:02Z</time>
</trkpt>
<trkpt lat="48.139549" lon="10.998999">
<ele>588.88</ele>
<time>2022-05-25T13:42:03Z</time>
</trkpt>
<trkpt lat="48.139511" lon="10.999023">
<ele>588.88</ele>
<time>2022-05-25T13:42:04Z</time>
</trkpt>
<trkpt lat="48.139469" lon="10.999048">
<ele>588.88</ele>
<time>2022-05-25T13:42:05Z</time>
</trkpt>
<trkpt lat="48.139431" lon="10.999075">
<ele>588.88</ele>
<time>2022-05-25T13:42:06Z</time>
</trkpt>
<trkpt lat="48.139389" lon="10.999104">
<ele>588.88</ele>
<time>2022-05-25T13:42:07Z</time>
</trkpt>
<trkpt lat="48.139351" lon="10.999132">
<ele>588.88</ele>
<time>2022-05-25T13:42:08Z</time>
</trkpt>
<trkpt lat="48.139313" lon="10.999158">
<ele>588.88</ele>
<time>2022-05-25T13:42:09Z</time>
</trkpt>
<trkpt lat="48.139271" lon="10.999181">
<ele>588.88</ele>
<time>2022-05-25T13:42:10Z</time>
</trkpt>
<trkpt lat="48.139236" lon="10.999207">
<ele>588.88</ele>
<time>2022-05-25T13:42:11Z</time>
</trkpt>
<trkpt lat="48.139191" lon="10.99923">
<ele>588.88</ele>
<time>2022-05-25T13:42:12Z</time>
</trkpt>
<trkpt lat="48.139153" lon="10.999254">
<ele>588.88</ele>
<time>2022-05-25T13:42:13Z</time>
</trkpt>
<trkpt lat="48.139111" lon="10.99928">
<ele>588.88</ele>
<time>2022-05-25T13:42:14Z</time>
</trkpt>
<trkpt lat="48.139072" lon="10.999307">
<ele>588.88</ele>
<time>2022-05-25T13:42:15Z</time>
</trkpt>
<trkpt lat="48.139034" lon="10.999335">
<ele>588.88</ele>
<time>2022-05-25T13:42:16Z</time>
</trkpt>
<trkpt lat="48.138996" lon="10.999363">
<ele>588.88</ele>
<time>2022-05-25T13:42:17Z</time>
</trkpt>
<trkpt lat="48.138958" lon="10.999389">
<ele>588.88</ele>
<time>2022-05-25T13:42:18Z</time>
</trkpt>
<trkpt lat="48.13892" lon="10.999415">
<ele>588.88</ele>
<time>2022-05-25T13:42:19Z</time>
</trkpt>
<trkpt lat="48.138882" lon="10.999442">
<ele>588.88</ele>
<time>2022-05-25T13:42:20Z</time>
</trkpt>
<trkpt lat="48.138844" lon="10.999466">
<ele>588.88</ele>
<time>2022-05-25T13:42:21Z</time>
</trkpt>
<trkpt lat="48.138809" lon="10.999495">
<ele>588.88</ele>
<time>2022-05-25T13:42:22Z</time>
</trkpt>
<trkpt lat="48.138767" lon="10.999522">
<ele>588.88</ele>
<time>2022-05-25T13:42:23Z</time>
</trkpt>
<trkpt lat="48.138733" lon="10.999547">
<ele>588.88</ele>
<time>2022-05-25T13:42:24Z</time>
</trkpt>
<trkpt lat="48.138695" lon="10.999575">
<ele>588.88</ele>
<time>2022-05-25T13:42:25Z</time>
</trkpt>
<trkpt lat="48.13866" lon="10.999601">
<ele>588.88</ele>
<time>2022-05-25T13:42:26Z</time>
</trkpt>
<trkpt lat="48.138622" lon="10.999627">
<ele>588.88</ele>
<time>2022-05-25T13:42:27Z</time>
</trkpt>
<trkpt lat="48.138584" lon="10.999654">
<ele>588.88</ele>
<time>2022-05-25T13:42:28Z</time>
</trkpt>
<trkpt lat="48.138515" lon="10.99971">
<ele>588.88</ele>
<time>2022-05-25T13:42:30Z</time>
</trkpt>
<trkpt lat="48.138481" lon="10.999735">
<ele>588.88</ele>
<time>2022-05-25T13:42:31Z</time>
</trkpt>
<trkpt lat="48.138443" lon="10.999759">
<ele>588.88</ele>
<time>2022-05-25T13:42:32Z</time>
</trkpt>
<trkpt lat="48.138405" lon="10.999784">
<ele>588.88</ele>
<time>2022-05-25T13:42:33Z</time>
</trkpt>
<trkpt lat="48.138367" lon="10.999811">
<ele>588.88</ele>
<time>2022-05-25T13:42:34Z</time>
</trkpt>
<trkpt lat="48.138329" lon="10.999841">
<ele>588.88</ele>
<time>2022-05-25T13:42:35Z</time>
</trkpt>
<trkpt lat="48.13829" lon="10.999866">
<ele>588.88</ele>
<time>2022-05-25T13:42:36Z</time>
</trkpt>
<trkpt lat="48.138256" lon="10.999891">
<ele>588.88</ele>
<time>2022-05-25T13:42:37Z</time>
</trkpt>
<trkpt lat="48.138214" lon="10.999922">
<ele>588.88</ele>
<time>2022-05-25T13:42:38Z</time>
</trkpt>
<trkpt lat="48.138176" lon="10.999948">
<ele>588.88</ele>
<time>2022-05-25T13:42:39Z</time>
</trkpt>
<trkpt lat="48.138134" lon="10.999975">
<ele>588.88</ele>
<time>2022-05-25T13:42:40Z</time>
</trkpt>
<trkpt lat="48.138096" lon="11.000002">
<ele>588.88</ele>
<time>2022-05-25T13:42:41Z</time>
</trkpt>
<trkpt lat="48.138058" lon="11.00003">
<ele>588.88</ele>
<time>2022-05-25T13:42:42Z</time>
</trkpt>
<trkpt lat="48.138016" lon="11.00006">
<ele>589.13</ele>
<time>2022-05-25T13:42:43Z</time>
</trkpt>
<trkpt lat="48.137974" lon="11.000086">
<ele>589.326</ele>
<time>2022-05-25T13:42:44Z</time>
</trkpt>
<trkpt lat="48.137932" lon="11.000115">
<ele>589.476</ele>
<time>2022-05-25T13:42:45Z</time>
</trkpt>
<trkpt lat="48.137894" lon="11.000143">
<ele>589.576</ele>
<time>2022-05-25T13:42:46Z</time>
</trkpt>
<trkpt lat="48.137856" lon="11.00017">
<ele>589.689</ele>
<time>2022-05-25T13:42:47Z</time>
</trkpt>
<trkpt lat="48.137817" lon="11.000196">
<ele>589.767</ele>
<time>2022-05-25T13:42:48Z</time>
</trkpt>
<trkpt lat="48.137779" lon="11.000224">
<ele>589.818</ele>
<time>2022-05-25T13:42:49Z</time>
</trkpt>
<trkpt lat="48.137737" lon="11.00025">
<ele>589.842</ele>
<time>2022-05-25T13:42:50Z</time>
</trkpt>
<trkpt lat="48.137699" lon="11.000275">
<ele>589.842</ele>
<time>2022-05-25T13:42:51Z</time>
</trkpt>
<trkpt lat="48.137661" lon="11.000303">
<ele>589.842</ele>
<time>2022-05-25T13:42:52Z</time>
</trkpt>
<trkpt lat="48.137619" lon="11.000333">
<ele>589.842</ele>
<time>2022-05-25T13:42:53Z</time>
</trkpt>
<trkpt lat="48.137581" lon="11.000362">
<ele>589.842</ele>
<time>2022-05-25T13:42:54Z</time>
</trkpt>
<trkpt lat="48.137543" lon="11.000387">
<ele>589.842</ele>
<time>2022-05-25T13:42:55Z</time>
</trkpt>
<trkpt lat="48.137505" lon="11.000413">
<ele>589.842</ele>
<time>2022-05-25T13:42:56Z</time>
</trkpt>
<trkpt lat="48.137466" lon="11.00044">
<ele>589.842</ele>
<time>2022-05-25T13:42:57Z</time>
</trkpt>
<trkpt lat="48.137428" lon="11.000471">
<ele>589.842</ele>
<time>2022-05-25T13:42:58Z</time>
</trkpt>
<trkpt lat="48.13739" lon="11.000504">
<ele>589.842</ele>
<time>2022-05-25T13:42:59Z</time>
</trkpt>
<trkpt lat="48.137352" lon="11.00053">
<ele>589.842</ele>
<time>2022-05-25T13:43:00Z</time>
</trkpt>
<trkpt lat="48.137314" lon="11.000559">
<ele>589.842</ele>
<time>2022-05-25T13:43:01Z</time>
</trkpt>
<trkpt lat="48.137276" lon="11.00059">
<ele>589.842</ele>
<time>2022-05-25T13:43:02Z</time>
</trkpt>
<trkpt lat="48.13723" lon="11.000618">
<ele>589.843</ele>
<time>2022-05-25T13:43:03Z</time>
</trkpt>
<trkpt lat="48.137188" lon="11.000647">
<ele>589.842</ele>
<time>2022-05-25T13:43:04Z</time>
</trkpt>
<trkpt lat="48.13715" lon="11.000675">
<ele>589.842</ele>
<time>2022-05-25T13:43:05Z</time>
</trkpt>
<trkpt lat="48.137104" lon="11.000704">
<ele>589.842</ele>
<time>2022-05-25T13:43:06Z</time>
</trkpt>
<trkpt lat="48.137062" lon="11.000733">
<ele>589.842</ele>
<time>2022-05-25T13:43:07Z</time>
</trkpt>
<trkpt lat="48.13702" lon="11.000762">
<ele>589.842</ele>
<time>2022-05-25T13:43:08Z</time>
</trkpt>
<trkpt lat="48.136982" lon="11.000792">
<ele>589.842</ele>
<time>2022-05-25T13:43:09Z</time>
</trkpt>
<trkpt lat="48.136936" lon="11.000819">
<ele>589.842</ele>
<time>2022-05-25T13:43:10Z</time>
</trkpt>
<trkpt lat="48.136898" lon="11.000849">
<ele>589.843</ele>
<time>2022-05-25T13:43:11Z</time>
</trkpt>
<trkpt lat="48.136856" lon="11.00088">
<ele>589.842</ele>
<time>2022-05-25T13:43:12Z</time>
</trkpt>
<trkpt lat="48.136818" lon="11.000914">
<ele>589.842</ele>
<time>2022-05-25T13:43:13Z</time>
</trkpt>
<trkpt lat="48.13678" lon="11.000941">
<ele>589.842</ele>
<time>2022-05-25T13:43:14Z</time>
</trkpt>
<trkpt lat="48.136738" lon="11.000968">
<ele>589.843</ele>
<time>2022-05-25T13:43:15Z</time>
</trkpt>
<trkpt lat="48.136692" lon="11.000997">
<ele>589.842</ele>
<time>2022-05-25T13:43:16Z</time>
</trkpt>
<trkpt lat="48.136654" lon="11.001025">
<ele>589.842</ele>
<time>2022-05-25T13:43:17Z</time>
</trkpt>
<trkpt lat="48.136612" lon="11.001054">
<ele>589.842</ele>
<time>2022-05-25T13:43:18Z</time>
</trkpt>
<trkpt lat="48.136566" lon="11.001083">
<ele>589.842</ele>
<time>2022-05-25T13:43:19Z</time>
</trkpt>
<trkpt lat="48.136528" lon="11.001113">
<ele>589.842</ele>
<time>2022-05-25T13:43:20Z</time>
</trkpt>
<trkpt lat="48.136482" lon="11.001142">
<ele>589.842</ele>
<time>2022-05-25T13:43:21Z</time>
</trkpt>
<trkpt lat="48.13644" lon="11.001171">
<ele>589.842</ele>
<time>2022-05-25T13:43:22Z</time>
</trkpt>
<trkpt lat="48.136398" lon="11.0012">
<ele>589.842</ele>
<time>2022-05-25T13:43:23Z</time>
</trkpt>
<trkpt lat="48.13636" lon="11.00123">
<ele>589.842</ele>
<time>2022-05-25T13:43:24Z</time>
</trkpt>
<trkpt lat="48.136318" lon="11.00126">
<ele>589.842</ele>
<time>2022-05-25T13:43:25Z</time>
</trkpt>
<trkpt lat="48.136272" lon="11.001292">
<ele>589.842</ele>
<time>2022-05-25T13:43:26Z</time>
</trkpt>
<trkpt lat="48.136238" lon="11.00132">
<ele>589.842</ele>
<time>2022-05-25T13:43:27Z</time>
</trkpt>
<trkpt lat="48.136192" lon="11.001349">
<ele>589.842</ele>
<time>2022-05-25T13:43:28Z</time>
</trkpt>
<trkpt lat="48.13615" lon="11.001378">
<ele>590.094</ele>
<time>2022-05-25T13:43:29Z</time>
</trkpt>
<trkpt lat="48.136108" lon="11.001407">
<ele>590.294</ele>
<time>2022-05-25T13:43:30Z</time>
</trkpt>
<trkpt lat="48.13607" lon="11.001439">
<ele>590.44</ele>
<time>2022-05-25T13:43:31Z</time>
</trkpt>
<trkpt lat="48.136024" lon="11.001471">
<ele>590.548</ele>
<time>2022-05-25T13:43:32Z</time>
</trkpt>
<trkpt lat="48.135983" lon="11.001498">
<ele>590.627</ele>
<time>2022-05-25T13:43:33Z</time>
</trkpt>
<trkpt lat="48.135944" lon="11.001529">
<ele>590.671</ele>
<time>2022-05-25T13:43:34Z</time>
</trkpt>
<trkpt lat="48.135906" lon="11.001556">
<ele>590.698</ele>
<time>2022-05-25T13:43:35Z</time>
</trkpt>
<trkpt lat="48.135864" lon="11.001585">
<ele>590.718</ele>
<time>2022-05-25T13:43:36Z</time>
</trkpt>
<trkpt lat="48.135822" lon="11.00161">
<ele>590.718</ele>
<time>2022-05-25T13:43:37Z</time>
</trkpt>
<trkpt lat="48.135784" lon="11.001637">
<ele>590.718</ele>
<time>2022-05-25T13:43:38Z</time>
</trkpt>
<trkpt lat="48.13575" lon="11.001665">
<ele>590.718</ele>
<time>2022-05-25T13:43:39Z</time>
</trkpt>
<trkpt lat="48.135708" lon="11.001697">
<ele>590.718</ele>
<time>2022-05-25T13:43:40Z</time>
</trkpt>
<trkpt lat="48.13567" lon="11.001726">
<ele>590.718</ele>
<time>2022-05-25T13:43:41Z</time>
</trkpt>
<trkpt lat="48.135628" lon="11.001757">
<ele>590.718</ele>
<time>2022-05-25T13:43:42Z</time>
</trkpt>
<trkpt lat="48.135586" lon="11.001787">
<ele>590.718</ele>
<time>2022-05-25T13:43:43Z</time>
</trkpt>
<trkpt lat="48.135551" lon="11.001814">
<ele>590.718</ele>
<time>2022-05-25T13:43:44Z</time>
</trkpt>
<trkpt lat="48.135509" lon="11.001838">
<ele>590.718</ele>
<time>2022-05-25T13:43:45Z</time>
</trkpt>
<trkpt lat="48.135475" lon="11.001863">
<ele>590.718</ele>
<time>2022-05-25T13:43:46Z</time>
</trkpt>
<trkpt lat="48.135445" lon="11.001888">
<ele>590.718</ele>
<time>2022-05-25T13:43:47Z</time>
</trkpt>
<trkpt lat="48.13541" lon="11.001917">
<ele>590.718</ele>
<time>2022-05-25T13:43:48Z</time>
</trkpt>
<trkpt lat="48.135376" lon="11.001942">
<ele>590.718</ele>
<time>2022-05-25T13:43:49Z</time>
</trkpt>
<trkpt lat="48.135345" lon="11.001966">
<ele>590.718</ele>
<time>2022-05-25T13:43:50Z</time>
</trkpt>
<trkpt lat="48.135307" lon="11.001992">
<ele>590.718</ele>
<time>2022-05-25T13:43:51Z</time>
</trkpt>
<trkpt lat="48.135269" lon="11.002017">
<ele>590.718</ele>
<time>2022-05-25T13:43:52Z</time>
</trkpt>
<trkpt lat="48.135227" lon="11.002042">
<ele>590.718</ele>
<time>2022-05-25T13:43:53Z</time>
</trkpt>
<trkpt lat="48.135193" lon="11.00207">
<ele>590.718</ele>
<time>2022-05-25T13:43:54Z</time>
</trkpt>
<trkpt lat="48.135151" lon="11.002099">
<ele>590.718</ele>
<time>2022-05-25T13:43:55Z</time>
</trkpt>
<trkpt lat="48.135113" lon="11.002129">
<ele>590.718</ele>
<time>2022-05-25T13:43:56Z</time>
</trkpt>
<trkpt lat="48.135071" lon="11.002155">
<ele>590.718</ele>
<time>2022-05-25T13:43:57Z</time>
</trkpt>
<trkpt lat="48.135033" lon="11.002181">
<ele>591.044</ele>
<time>2022-05-25T13:43:58Z</time>
</trkpt>
<trkpt lat="48.134991" lon="11.002209">
<ele>591.284</ele>
<time>2022-05-25T13:43:59Z</time>
</trkpt>
<trkpt lat="48.134949" lon="11.002235">
<ele>591.464</ele>
<time>2022-05-25T13:44:00Z</time>
</trkpt>
<trkpt lat="48.134907" lon="11.002262">
<ele>591.595</ele>
<time>2022-05-25T13:44:01Z</time>
</trkpt>
<trkpt lat="48.134869" lon="11.002292">
<ele>591.687</ele>
<time>2022-05-25T13:44:02Z</time>
</trkpt>
<trkpt lat="48.13483" lon="11.002319">
<ele>591.742</ele>
<time>2022-05-25T13:44:03Z</time>
</trkpt>
<trkpt lat="48.134792" lon="11.00235">
<ele>591.768</ele>
<time>2022-05-25T13:44:04Z</time>
</trkpt>
<trkpt lat="48.134754" lon="11.002378">
<ele>591.768</ele>
<time>2022-05-25T13:44:05Z</time>
</trkpt>
<trkpt lat="48.134716" lon="11.002405">
<ele>591.767</ele>
<time>2022-05-25T13:44:06Z</time>
</trkpt>
<trkpt lat="48.134674" lon="11.002432">
<ele>591.768</ele>
<time>2022-05-25T13:44:07Z</time>
</trkpt>
<trkpt lat="48.134636" lon="11.002457">
<ele>591.768</ele>
<time>2022-05-25T13:44:08Z</time>
</trkpt>
<trkpt lat="48.13459" lon="11.002485">
<ele>591.768</ele>
<time>2022-05-25T13:44:09Z</time>
</trkpt>
<trkpt lat="48.134552" lon="11.002515">
<ele>591.768</ele>
<time>2022-05-25T13:44:10Z</time>
</trkpt>
<trkpt lat="48.13451" lon="11.002543">
<ele>591.768</ele>
<time>2022-05-25T13:44:11Z</time>
</trkpt>
<trkpt lat="48.134472" lon="11.002575">
<ele>591.768</ele>
<time>2022-05-25T13:44:12Z</time>
</trkpt>
<trkpt lat="48.13443" lon="11.002606">
<ele>591.768</ele>
<time>2022-05-25T13:44:13Z</time>
</trkpt>
<trkpt lat="48.134384" lon="11.002637">
<ele>591.768</ele>
<time>2022-05-25T13:44:14Z</time>
</trkpt>
<trkpt lat="48.134346" lon="11.002669">
<ele>591.768</ele>
<time>2022-05-25T13:44:15Z</time>
</trkpt>
<trkpt lat="48.134304" lon="11.002707">
<ele>591.768</ele>
<time>2022-05-25T13:44:16Z</time>
</trkpt>
<trkpt lat="48.134274" lon="11.002753">
<ele>591.768</ele>
<time>2022-05-25T13:44:17Z</time>
</trkpt>
<trkpt lat="48.134247" lon="11.00281">
<ele>591.768</ele>
<time>2022-05-25T13:44:18Z</time>
</trkpt>
<trkpt lat="48.134232" lon="11.002876">
<ele>591.768</ele>
<time>2022-05-25T13:44:19Z</time>
</trkpt>
<trkpt lat="48.13422" lon="11.002945">
<ele>591.768</ele>
<time>2022-05-25T13:44:20Z</time>
</trkpt>
<trkpt lat="48.134216" lon="11.003016">
<ele>591.768</ele>
<time>2022-05-25T13:44:21Z</time>
</trkpt>
<trkpt lat="48.134205" lon="11.003086">
<ele>591.768</ele>
<time>2022-05-25T13:44:22Z</time>
</trkpt>
<trkpt lat="48.134182" lon="11.003151">
<ele>591.768</ele>
<time>2022-05-25T13:44:23Z</time>
</trkpt>
<trkpt lat="48.134155" lon="11.003203">
<ele>591.768</ele>
<time>2022-05-25T13:44:24Z</time>
</trkpt>
<trkpt lat="48.134117" lon="11.003243">
<ele>591.768</ele>
<time>2022-05-25T13:44:25Z</time>
</trkpt>
<trkpt lat="48.134079" lon="11.003272">
<ele>591.768</ele>
<time>2022-05-25T13:44:26Z</time>
</trkpt>
<trkpt lat="48.134041" lon="11.003297">
<ele>591.768</ele>
<time>2022-05-25T13:44:27Z</time>
</trkpt>
<trkpt lat="48.133999" lon="11.003322">
<ele>591.768</ele>
<time>2022-05-25T13:44:28Z</time>
</trkpt>
<trkpt lat="48.133957" lon="11.003346">
<ele>592.038</ele>
<time>2022-05-25T13:44:29Z</time>
</trkpt>
<trkpt lat="48.133923" lon="11.003375">
<ele>592.255</ele>
<time>2022-05-25T13:44:30Z</time>
</trkpt>
<trkpt lat="48.133884" lon="11.003403">
<ele>592.42</ele>
<time>2022-05-25T13:44:31Z</time>
</trkpt>
<trkpt lat="48.133842" lon="11.003428">
<ele>592.544</ele>
<time>2022-05-25T13:44:32Z</time>
</trkpt>
<trkpt lat="48.133801" lon="11.003453">
<ele>592.629</ele>
<time>2022-05-25T13:44:33Z</time>
</trkpt>
<trkpt lat="48.133759" lon="11.003478">
<ele>592.684</ele>
<time>2022-05-25T13:44:34Z</time>
</trkpt>
<trkpt lat="48.133724" lon="11.003507">
<ele>592.708</ele>
<time>2022-05-25T13:44:35Z</time>
</trkpt>
<trkpt lat="48.133678" lon="11.003536">
<ele>592.73</ele>
<time>2022-05-25T13:44:36Z</time>
</trkpt>
<trkpt lat="48.13364" lon="11.003568">
<ele>592.73</ele>
<time>2022-05-25T13:44:37Z</time>
</trkpt>
<trkpt lat="48.133606" lon="11.0036">
<ele>592.73</ele>
<time>2022-05-25T13:44:38Z</time>
</trkpt>
<trkpt lat="48.133568" lon="11.003629">
<ele>592.73</ele>
<time>2022-05-25T13:44:39Z</time>
</trkpt>
<trkpt lat="48.133533" lon="11.003655">
<ele>592.73</ele>
<time>2022-05-25T13:44:40Z</time>
</trkpt>
<trkpt lat="48.133495" lon="11.003685">
<ele>592.73</ele>
<time>2022-05-25T13:44:41Z</time>
</trkpt>
<trkpt lat="48.133457" lon="11.00371">
<ele>592.73</ele>
<time>2022-05-25T13:44:42Z</time>
</trkpt>
<trkpt lat="48.133419" lon="11.003737">
<ele>592.73</ele>
<time>2022-05-25T13:44:43Z</time>
</trkpt>
<trkpt lat="48.133377" lon="11.003763">
<ele>592.73</ele>
<time>2022-05-25T13:44:44Z</time>
</trkpt>
<trkpt lat="48.133339" lon="11.003792">
<ele>592.73</ele>
<time>2022-05-25T13:44:45Z</time>
</trkpt>
<trkpt lat="48.133305" lon="11.003819">
<ele>592.73</ele>
<time>2022-05-25T13:44:46Z</time>
</trkpt>
<trkpt lat="48.133266" lon="11.003846">
<ele>592.73</ele>
<time>2022-05-25T13:44:47Z</time>
</trkpt>
<trkpt lat="48.133228" lon="11.003876">
<ele>592.73</ele>
<time>2022-05-25T13:44:48Z</time>
</trkpt>
<trkpt lat="48.13319" lon="11.003907">
<ele>592.73</ele>
<time>2022-05-25T13:44:49Z</time>
</trkpt>
<trkpt lat="48.133148" lon="11.003939">
<ele>592.73</ele>
<time>2022-05-25T13:44:50Z</time>
</trkpt>
<trkpt lat="48.13311" lon="11.003968">
<ele>592.73</ele>
<time>2022-05-25T13:44:51Z</time>
</trkpt>
<trkpt lat="48.133076" lon="11.003998">
<ele>592.73</ele>
<time>2022-05-25T13:44:52Z</time>
</trkpt>
<trkpt lat="48.13303" lon="11.00403">
<ele>592.73</ele>
<time>2022-05-25T13:44:53Z</time>
</trkpt>
<trkpt lat="48.132988" lon="11.00406">
<ele>592.73</ele>
<time>2022-05-25T13:44:54Z</time>
</trkpt>
<trkpt lat="48.13295" lon="11.004088">
<ele>592.73</ele>
<time>2022-05-25T13:44:55Z</time>
</trkpt>
<trkpt lat="48.132912" lon="11.004115">
<ele>592.73</ele>
<time>2022-05-25T13:44:56Z</time>
</trkpt>
<trkpt lat="48.132881" lon="11.004138">
<ele>592.73</ele>
<time>2022-05-25T13:44:57Z</time>
</trkpt>
<trkpt lat="48.132847" lon="11.004163">
<ele>592.73</ele>
<time>2022-05-25T13:44:58Z</time>
</trkpt>
<trkpt lat="48.132812" lon="11.00419">
<ele>592.73</ele>
<time>2022-05-25T13:44:59Z</time>
</trkpt>
<trkpt lat="48.132782" lon="11.004215">
<ele>592.73</ele>
<time>2022-05-25T13:45:00Z</time>
</trkpt>
<trkpt lat="48.132748" lon="11.00424">
<ele>592.73</ele>
<time>2022-05-25T13:45:01Z</time>
</trkpt>
<trkpt lat="48.132713" lon="11.004267">
<ele>592.73</ele>
<time>2022-05-25T13:45:02Z</time>
</trkpt>
<trkpt lat="48.132675" lon="11.004295">
<ele>592.73</ele>
<time>2022-05-25T13:45:03Z</time>
</trkpt>
<trkpt lat="48.132633" lon="11.004324">
<ele>592.73</ele>
<time>2022-05-25T13:45:04Z</time>
</trkpt>
<trkpt lat="48.132595" lon="11.004354">
<ele>592.73</ele>
<time>2022-05-25T13:45:05Z</time>
</trkpt>
<trkpt lat="48.132561" lon="11.004383">
<ele>592.73</ele>
<time>2022-05-25T13:45:06Z</time>
</trkpt>
<trkpt lat="48.132523" lon="11.00441">
<ele>592.73</ele>
<time>2022-05-25T13:45:07Z</time>
</trkpt>
<trkpt lat="48.132488" lon="11.004438">
<ele>592.73</ele>
<time>2022-05-25T13:45:08Z</time>
</trkpt>
<trkpt lat="48.132446" lon="11.004467">
<ele>592.73</ele>
<time>2022-05-25T13:45:09Z</time>
</trkpt>
<trkpt lat="48.132412" lon="11.004497">
<ele>592.73</ele>
<time>2022-05-25T13:45:10Z</time>
</trkpt>
<trkpt lat="48.132378" lon="11.004521">
<ele>592.73</ele>
<time>2022-05-25T13:45:11Z</time>
</trkpt>
<trkpt lat="48.132343" lon="11.00455">
<ele>593.023</ele>
<time>2022-05-25T13:45:12Z</time>
</trkpt>
<trkpt lat="48.132309" lon="11.004577">
<ele>593.26</ele>
<time>2022-05-25T13:45:13Z</time>
</trkpt>
<trkpt lat="48.132275" lon="11.004607">
<ele>593.439</ele>
<time>2022-05-25T13:45:14Z</time>
</trkpt>
<trkpt lat="48.132236" lon="11.004637">
<ele>593.576</ele>
<time>2022-05-25T13:45:15Z</time>
</trkpt>
<trkpt lat="48.132202" lon="11.004665">
<ele>593.67</ele>
<time>2022-05-25T13:45:16Z</time>
</trkpt>
<trkpt lat="48.132164" lon="11.004691">
<ele>593.771</ele>
<time>2022-05-25T13:45:17Z</time>
</trkpt>
<trkpt lat="48.13213" lon="11.004718">
<ele>593.836</ele>
<time>2022-05-25T13:45:18Z</time>
</trkpt>
<trkpt lat="48.132092" lon="11.004748">
<ele>593.868</ele>
<time>2022-05-25T13:45:19Z</time>
</trkpt>
<trkpt lat="48.132053" lon="11.004779">
<ele>593.868</ele>
<time>2022-05-25T13:45:20Z</time>
</trkpt>
<trkpt lat="48.132015" lon="11.004807">
<ele>593.868</ele>
<time>2022-05-25T13:45:21Z</time>
</trkpt>
<trkpt lat="48.131981" lon="11.004838">
<ele>593.868</ele>
<time>2022-05-25T13:45:22Z</time>
</trkpt>
<trkpt lat="48.131943" lon="11.004869">
<ele>593.868</ele>
<time>2022-05-25T13:45:23Z</time>
</trkpt>
<trkpt lat="48.131908" lon="11.004896">
<ele>593.868</ele>
<time>2022-05-25T13:45:24Z</time>
</trkpt>
<trkpt lat="48.131878" lon="11.004925">
<ele>593.868</ele>
<time>2022-05-25T13:45:25Z</time>
</trkpt>
<trkpt lat="48.131847" lon="11.004953">
<ele>593.868</ele>
<time>2022-05-25T13:45:26Z</time>
</trkpt>
<trkpt lat="48.131817" lon="11.004978">
<ele>593.868</ele>
<time>2022-05-25T13:45:27Z</time>
</trkpt>
<trkpt lat="48.13179" lon="11.005003">
<ele>593.868</ele>
<time>2022-05-25T13:45:28Z</time>
</trkpt>
<trkpt lat="48.131763" lon="11.005027">
<ele>593.868</ele>
<time>2022-05-25T13:45:29Z</time>
</trkpt>
<trkpt lat="48.131737" lon="11.005049">
<ele>593.868</ele>
<time>2022-05-25T13:45:30Z</time>
</trkpt>
<trkpt lat="48.131714" lon="11.00507">
<ele>593.868</ele>
<time>2022-05-25T13:45:31Z</time>
</trkpt>
<trkpt lat="48.131702" lon="11.005095">
<ele>593.868</ele>
<time>2022-05-25T13:45:32Z</time>
</trkpt>
<trkpt lat="48.131695" lon="11.005123">
<ele>593.868</ele>
<time>2022-05-25T13:45:33Z</time>
</trkpt>
<trkpt lat="48.131695" lon="11.005157">
<ele>593.868</ele>
<time>2022-05-25T13:45:34Z</time>
</trkpt>
<trkpt lat="48.131706" lon="11.005194">
<ele>593.868</ele>
<time>2022-05-25T13:45:35Z</time>
</trkpt>
<trkpt lat="48.131721" lon="11.005234">
<ele>593.868</ele>
<time>2022-05-25T13:45:36Z</time>
</trkpt>
<trkpt lat="48.131744" lon="11.005272">
<ele>593.868</ele>
<time>2022-05-25T13:45:37Z</time>
</trkpt>
<trkpt lat="48.131775" lon="11.00531">
<ele>594.182</ele>
<time>2022-05-25T13:45:38Z</time>
</trkpt>
<trkpt lat="48.131805" lon="11.005351">
<ele>594.43</ele>
<time>2022-05-25T13:45:39Z</time>
</trkpt>
<trkpt lat="48.13184" lon="11.005395">
<ele>594.601</ele>
<time>2022-05-25T13:45:40Z</time>
</trkpt>
<trkpt lat="48.131874" lon="11.005439">
<ele>594.708</ele>
<time>2022-05-25T13:45:41Z</time>
</trkpt>
<trkpt lat="48.131912" lon="11.005481">
<ele>594.771</ele>
<time>2022-05-25T13:45:42Z</time>
</trkpt>
<trkpt lat="48.131947" lon="11.00552">
<ele>594.808</ele>
<time>2022-05-25T13:45:43Z</time>
</trkpt>
<trkpt lat="48.131985" lon="11.005562">
<ele>594.825</ele>
<time>2022-05-25T13:45:44Z</time>
</trkpt>
<trkpt lat="48.132023" lon="11.005605">
<ele>594.83</ele>
<time>2022-05-25T13:45:45Z</time>
</trkpt>
<trkpt lat="48.132061" lon="11.005649">
<ele>594.83</ele>
<time>2022-05-25T13:45:46Z</time>
</trkpt>
<trkpt lat="48.132095" lon="11.005693">
<ele>594.83</ele>
<time>2022-05-25T13:45:47Z</time>
</trkpt>
<trkpt lat="48.132133" lon="11.005738">
<ele>594.83</ele>
<time>2022-05-25T13:45:48Z</time>
</trkpt>
<trkpt lat="48.132175" lon="11.005783">
<ele>594.83</ele>
<time>2022-05-25T13:45:49Z</time>
</trkpt>
<trkpt lat="48.132217" lon="11.005825">
<ele>594.831</ele>
<time>2022-05-25T13:45:50Z</time>
</trkpt>
<trkpt lat="48.132259" lon="11.00587">
<ele>594.83</ele>
<time>2022-05-25T13:45:51Z</time>
</trkpt>
<trkpt lat="48.132298" lon="11.005917">
<ele>594.831</ele>
<time>2022-05-25T13:45:52Z</time>
</trkpt>
<trkpt lat="48.132339" lon="11.005959">
<ele>594.83</ele>
<time>2022-05-25T13:45:53Z</time>
</trkpt>
<trkpt lat="48.132381" lon="11.005995">
<ele>594.83</ele>
<time>2022-05-25T13:45:54Z</time>
</trkpt>
<trkpt lat="48.132423" lon="11.006032">
<ele>594.831</ele>
<time>2022-05-25T13:45:55Z</time>
</trkpt>
<trkpt lat="48.132462" lon="11.006072">
<ele>594.831</ele>
<time>2022-05-25T13:45:56Z</time>
</trkpt>
<trkpt lat="48.132504" lon="11.006109">
<ele>594.83</ele>
<time>2022-05-25T13:45:57Z</time>
</trkpt>
<trkpt lat="48.132545" lon="11.006146">
<ele>594.83</ele>
<time>2022-05-25T13:45:58Z</time>
</trkpt>
<trkpt lat="48.132587" lon="11.00618">
<ele>594.831</ele>
<time>2022-05-25T13:45:59Z</time>
</trkpt>
<trkpt lat="48.132626" lon="11.006213">
<ele>594.83</ele>
<time>2022-05-25T13:46:00Z</time>
</trkpt>
<trkpt lat="48.132668" lon="11.006242">
<ele>594.83</ele>
<time>2022-05-25T13:46:01Z</time>
</trkpt>
<trkpt lat="48.13271" lon="11.006272">
<ele>594.578</ele>
<time>2022-05-25T13:46:02Z</time>
</trkpt>
<trkpt lat="48.132748" lon="11.006302">
<ele>594.382</ele>
<time>2022-05-25T13:46:03Z</time>
</trkpt>
<trkpt lat="48.13279" lon="11.006329">
<ele>594.227</ele>
<time>2022-05-25T13:46:04Z</time>
</trkpt>
<trkpt lat="48.132828" lon="11.006354">
<ele>594.113</ele>
<time>2022-05-25T13:46:05Z</time>
</trkpt>
<trkpt lat="48.132854" lon="11.006386">
<ele>594.031</ele>
<time>2022-05-25T13:46:06Z</time>
</trkpt>
<trkpt lat="48.13287" lon="11.006427">
<ele>593.948</ele>
<time>2022-05-25T13:46:07Z</time>
</trkpt>
<trkpt lat="48.132866" lon="11.006472">
<ele>593.895</ele>
<time>2022-05-25T13:46:08Z</time>
</trkpt>
<trkpt lat="48.132847" lon="11.00651">
<ele>593.868</ele>
<time>2022-05-25T13:46:09Z</time>
</trkpt>
<trkpt lat="48.132816" lon="11.006543">
<ele>593.868</ele>
<time>2022-05-25T13:46:10Z</time>
</trkpt>
<trkpt lat="48.13279" lon="11.006578">
<ele>593.868</ele>
<time>2022-05-25T13:46:11Z</time>
</trkpt>
<trkpt lat="48.132763" lon="11.006612">
<ele>593.868</ele>
<time>2022-05-25T13:46:12Z</time>
</trkpt>
<trkpt lat="48.132736" lon="11.006641">
<ele>593.868</ele>
<time>2022-05-25T13:46:13Z</time>
</trkpt>
<trkpt lat="48.13271" lon="11.006675">
<ele>593.868</ele>
<time>2022-05-25T13:46:14Z</time>
</trkpt>
<trkpt lat="48.132683" lon="11.006712">
<ele>593.868</ele>
<time>2022-05-25T13:46:15Z</time>
</trkpt>
<trkpt lat="48.132652" lon="11.00675">
<ele>593.868</ele>
<time>2022-05-25T13:46:16Z</time>
</trkpt>
<trkpt lat="48.132629" lon="11.00679">
<ele>593.868</ele>
<time>2022-05-25T13:46:17Z</time>
</trkpt>
<trkpt lat="48.132599" lon="11.006832">
<ele>593.868</ele>
<time>2022-05-25T13:46:18Z</time>
</trkpt>
<trkpt lat="48.132568" lon="11.006874">
<ele>593.868</ele>
<time>2022-05-25T13:46:19Z</time>
</trkpt>
<trkpt lat="48.132538" lon="11.006915">
<ele>593.868</ele>
<time>2022-05-25T13:46:20Z</time>
</trkpt>
<trkpt lat="48.132507" lon="11.006956">
<ele>593.868</ele>
<time>2022-05-25T13:46:21Z</time>
</trkpt>
<trkpt lat="48.132481" lon="11.007006">
<ele>593.868</ele>
<time>2022-05-25T13:46:22Z</time>
</trkpt>
<trkpt lat="48.132446" lon="11.007053">
<ele>593.868</ele>
<time>2022-05-25T13:46:23Z</time>
</trkpt>
<trkpt lat="48.132416" lon="11.0071">
<ele>593.868</ele>
<time>2022-05-25T13:46:24Z</time>
</trkpt>
<trkpt lat="48.132381" lon="11.007147">
<ele>593.868</ele>
<time>2022-05-25T13:46:25Z</time>
</trkpt>
<trkpt lat="48.132347" lon="11.00719">
<ele>593.868</ele>
<time>2022-05-25T13:46:26Z</time>
</trkpt>
<trkpt lat="48.132313" lon="11.007235">
<ele>593.868</ele>
<time>2022-05-25T13:46:27Z</time>
</trkpt>
<trkpt lat="48.132282" lon="11.00728">
<ele>593.868</ele>
<time>2022-05-25T13:46:28Z</time>
</trkpt>
<trkpt lat="48.132248" lon="11.007325">
<ele>593.868</ele>
<time>2022-05-25T13:46:29Z</time>
</trkpt>
<trkpt lat="48.132217" lon="11.007368">
<ele>593.868</ele>
<time>2022-05-25T13:46:30Z</time>
</trkpt>
<trkpt lat="48.132187" lon="11.007412">
<ele>593.868</ele>
<time>2022-05-25T13:46:31Z</time>
</trkpt>
<trkpt lat="48.132156" lon="11.007455">
<ele>593.868</ele>
<time>2022-05-25T13:46:32Z</time>
</trkpt>
<trkpt lat="48.13213" lon="11.007501">
<ele>593.868</ele>
<time>2022-05-25T13:46:33Z</time>
</trkpt>
<trkpt lat="48.132095" lon="11.007545">
<ele>593.868</ele>
<time>2022-05-25T13:46:34Z</time>
</trkpt>
<trkpt lat="48.132065" lon="11.007592">
<ele>593.868</ele>
<time>2022-05-25T13:46:35Z</time>
</trkpt>
<trkpt lat="48.13203" lon="11.00764">
<ele>593.868</ele>
<time>2022-05-25T13:46:36Z</time>
</trkpt>
<trkpt lat="48.131996" lon="11.007687">
<ele>593.868</ele>
<time>2022-05-25T13:46:37Z</time>
</trkpt>
<trkpt lat="48.131958" lon="11.007735">
<ele>593.868</ele>
<time>2022-05-25T13:46:38Z</time>
</trkpt>
<trkpt lat="48.131924" lon="11.00778">
<ele>593.868</ele>
<time>2022-05-25T13:46:39Z</time>
</trkpt>
<trkpt lat="48.131886" lon="11.007829">
<ele>593.868</ele>
<time>2022-05-25T13:46:40Z</time>
</trkpt>
<trkpt lat="48.131851" lon="11.007877">
<ele>593.868</ele>
<time>2022-05-25T13:46:41Z</time>
</trkpt>
<trkpt lat="48.131813" lon="11.007923">
<ele>593.868</ele>
<time>2022-05-25T13:46:42Z</time>
</trkpt>
<trkpt lat="48.131775" lon="11.00797">
<ele>593.868</ele>
<time>2022-05-25T13:46:43Z</time>
</trkpt>
<trkpt lat="48.131737" lon="11.008018">
<ele>593.868</ele>
<time>2022-05-25T13:46:44Z</time>
</trkpt>
<trkpt lat="48.131706" lon="11.008065">
<ele>593.868</ele>
<time>2022-05-25T13:46:45Z</time>
</trkpt>
<trkpt lat="48.131668" lon="11.008114">
<ele>593.868</ele>
<time>2022-05-25T13:46:46Z</time>
</trkpt>
<trkpt lat="48.13163" lon="11.008162">
<ele>593.868</ele>
<time>2022-05-25T13:46:47Z</time>
</trkpt>
<trkpt lat="48.131596" lon="11.00821">
<ele>593.868</ele>
<time>2022-05-25T13:46:48Z</time>
</trkpt>
<trkpt lat="48.131557" lon="11.008261">
<ele>593.868</ele>
<time>2022-05-25T13:46:49Z</time>
</trkpt>
<trkpt lat="48.131523" lon="11.008311">
<ele>593.868</ele>
<time>2022-05-25T13:46:50Z</time>
</trkpt>
<trkpt lat="48.131485" lon="11.00836">
<ele>593.868</ele>
<time>2022-05-25T13:46:51Z</time>
</trkpt>
<trkpt lat="48.131451" lon="11.008408">
<ele>593.868</ele>
<time>2022-05-25T13:46:52Z</time>
</trkpt>
<trkpt lat="48.131413" lon="11.008456">
<ele>594.114</ele>
<time>2022-05-25T13:46:53Z</time>
</trkpt>
<trkpt lat="48.131378" lon="11.008504">
<ele>594.309</ele>
<time>2022-05-25T13:46:54Z</time>
</trkpt>
<trkpt lat="48.131348" lon="11.00855">
<ele>594.458</ele>
<time>2022-05-25T13:46:55Z</time>
</trkpt>
<trkpt lat="48.131313" lon="11.0086">
<ele>594.562</ele>
<time>2022-05-25T13:46:56Z</time>
</trkpt>
<trkpt lat="48.131279" lon="11.008649">
<ele>594.672</ele>
<time>2022-05-25T13:46:57Z</time>
</trkpt>
<trkpt lat="48.131248" lon="11.008697">
<ele>594.753</ele>
<time>2022-05-25T13:46:58Z</time>
</trkpt>
<trkpt lat="48.131214" lon="11.008745">
<ele>594.805</ele>
<time>2022-05-25T13:46:59Z</time>
</trkpt>
<trkpt lat="48.131176" lon="11.008791">
<ele>594.83</ele>
<time>2022-05-25T13:47:00Z</time>
</trkpt>
<trkpt lat="48.131142" lon="11.008837">
<ele>594.831</ele>
<time>2022-05-25T13:47:01Z</time>
</trkpt>
<trkpt lat="48.131104" lon="11.008883">
<ele>594.831</ele>
<time>2022-05-25T13:47:02Z</time>
</trkpt>
<trkpt lat="48.131069" lon="11.008929">
<ele>594.83</ele>
<time>2022-05-25T13:47:03Z</time>
</trkpt>
<trkpt lat="48.131035" lon="11.008977">
<ele>594.83</ele>
<time>2022-05-25T13:47:04Z</time>
</trkpt>
<trkpt lat="48.130997" lon="11.009026">
<ele>594.83</ele>
<time>2022-05-25T13:47:05Z</time>
</trkpt>
<trkpt lat="48.130959" lon="11.009071">
<ele>594.83</ele>
<time>2022-05-25T13:47:06Z</time>
</trkpt>
<trkpt lat="48.130924" lon="11.009115">
<ele>594.831</ele>
<time>2022-05-25T13:47:07Z</time>
</trkpt>
<trkpt lat="48.13089" lon="11.00916">
<ele>594.831</ele>
<time>2022-05-25T13:47:08Z</time>
</trkpt>
<trkpt lat="48.130856" lon="11.009206">
<ele>594.831</ele>
<time>2022-05-25T13:47:09Z</time>
</trkpt>
<trkpt lat="48.130821" lon="11.009254">
<ele>594.83</ele>
<time>2022-05-25T13:47:10Z</time>
</trkpt>
<trkpt lat="48.130783" lon="11.0093">
<ele>594.83</ele>
<time>2022-05-25T13:47:11Z</time>
</trkpt>
<trkpt lat="48.130749" lon="11.009348">
<ele>594.83</ele>
<time>2022-05-25T13:47:12Z</time>
</trkpt>
<trkpt lat="48.130711" lon="11.009394">
<ele>594.83</ele>
<time>2022-05-25T13:47:13Z</time>
</trkpt>
<trkpt lat="48.130672" lon="11.00944">
<ele>594.83</ele>
<time>2022-05-25T13:47:14Z</time>
</trkpt>
<trkpt lat="48.130634" lon="11.009488">
<ele>594.83</ele>
<time>2022-05-25T13:47:15Z</time>
</trkpt>
<trkpt lat="48.1306" lon="11.009535">
<ele>594.83</ele>
<time>2022-05-25T13:47:16Z</time>
</trkpt>
<trkpt lat="48.130562" lon="11.009583">
<ele>594.831</ele>
<time>2022-05-25T13:47:17Z</time>
</trkpt>
<trkpt lat="48.130527" lon="11.009633">
<ele>594.83</ele>
<time>2022-05-25T13:47:18Z</time>
</trkpt>
<trkpt lat="48.130486" lon="11.009684">
<ele>595.112</ele>
<time>2022-05-25T13:47:19Z</time>
</trkpt>
<trkpt lat="48.130447" lon="11.009735">
<ele>595.33</ele>
<time>2022-05-25T13:47:20Z</time>
</trkpt>
<trkpt lat="48.130405" lon="11.009789">
<ele>595.495</ele>
<time>2022-05-25T13:47:21Z</time>
</trkpt>
<trkpt lat="48.130367" lon="11.00984">
<ele>595.614</ele>
<time>2022-05-25T13:47:22Z</time>
</trkpt>
<trkpt lat="48.130333" lon="11.009891">
<ele>595.697</ele>
<time>2022-05-25T13:47:23Z</time>
</trkpt>
<trkpt lat="48.130295" lon="11.009938">
<ele>595.748</ele>
<time>2022-05-25T13:47:24Z</time>
</trkpt>
<trkpt lat="48.130257" lon="11.009985">
<ele>595.771</ele>
<time>2022-05-25T13:47:25Z</time>
</trkpt>
<trkpt lat="48.130222" lon="11.01003">
<ele>595.793</ele>
<time>2022-05-25T13:47:26Z</time>
</trkpt>
<trkpt lat="48.130184" lon="11.010077">
<ele>595.793</ele>
<time>2022-05-25T13:47:27Z</time>
</trkpt>
<trkpt lat="48.130146" lon="11.010123">
<ele>595.793</ele>
<time>2022-05-25T13:47:28Z</time>
</trkpt>
<trkpt lat="48.130112" lon="11.010172">
<ele>595.793</ele>
<time>2022-05-25T13:47:29Z</time>
</trkpt>
<trkpt lat="48.130077" lon="11.010218">
<ele>595.793</ele>
<time>2022-05-25T13:47:30Z</time>
</trkpt>
<trkpt lat="48.130039" lon="11.010265">
<ele>595.793</ele>
<time>2022-05-25T13:47:31Z</time>
</trkpt>
<trkpt lat="48.130001" lon="11.010315">
<ele>595.793</ele>
<time>2022-05-25T13:47:32Z</time>
</trkpt>
<trkpt lat="48.129967" lon="11.010365">
<ele>595.793</ele>
<time>2022-05-25T13:47:33Z</time>
</trkpt>
<trkpt lat="48.129929" lon="11.010413">
<ele>595.793</ele>
<time>2022-05-25T13:47:34Z</time>
</trkpt>
<trkpt lat="48.12989" lon="11.010463">
<ele>595.793</ele>
<time>2022-05-25T13:47:35Z</time>
</trkpt>
<trkpt lat="48.129852" lon="11.010511">
<ele>595.793</ele>
<time>2022-05-25T13:47:36Z</time>
</trkpt>
<trkpt lat="48.129818" lon="11.010562">
<ele>595.793</ele>
<time>2022-05-25T13:47:37Z</time>
</trkpt>
<trkpt lat="48.129784" lon="11.010618">
<ele>595.793</ele>
<time>2022-05-25T13:47:38Z</time>
</trkpt>
<trkpt lat="48.129753" lon="11.010673">
<ele>595.793</ele>
<time>2022-05-25T13:47:39Z</time>
</trkpt>
<trkpt lat="48.129723" lon="11.010732">
<ele>595.793</ele>
<time>2022-05-25T13:47:40Z</time>
</trkpt>
<trkpt lat="48.129688" lon="11.010787">
<ele>595.793</ele>
<time>2022-05-25T13:47:41Z</time>
</trkpt>
<trkpt lat="48.129654" lon="11.010843">
<ele>595.793</ele>
<time>2022-05-25T13:47:42Z</time>
</trkpt>
<trkpt lat="48.12962" lon="11.010897">
<ele>595.793</ele>
<time>2022-05-25T13:47:43Z</time>
</trkpt>
<trkpt lat="48.129585" lon="11.010953">
<ele>595.793</ele>
<time>2022-05-25T13:47:44Z</time>
</trkpt>
<trkpt lat="48.129555" lon="11.011007">
<ele>595.793</ele>
<time>2022-05-25T13:47:45Z</time>
</trkpt>
<trkpt lat="48.12952" lon="11.011062">
<ele>595.988</ele>
<time>2022-05-25T13:47:46Z</time>
</trkpt>
<trkpt lat="48.12949" lon="11.011115">
<ele>596.172</ele>
<time>2022-05-25T13:47:47Z</time>
</trkpt>
<trkpt lat="48.129456" lon="11.011168">
<ele>596.321</ele>
<time>2022-05-25T13:47:48Z</time>
</trkpt>
<trkpt lat="48.129429" lon="11.011224">
<ele>596.442</ele>
<time>2022-05-25T13:47:49Z</time>
</trkpt>
<trkpt lat="48.129398" lon="11.01128">
<ele>596.535</ele>
<time>2022-05-25T13:47:50Z</time>
</trkpt>
<trkpt lat="48.129364" lon="11.011333">
<ele>596.604</ele>
<time>2022-05-25T13:47:51Z</time>
</trkpt>
<trkpt lat="48.129337" lon="11.011385">
<ele>596.647</ele>
<time>2022-05-25T13:47:52Z</time>
</trkpt>
<trkpt lat="48.129307" lon="11.011436">
<ele>596.669</ele>
<time>2022-05-25T13:47:53Z</time>
</trkpt>
<trkpt lat="48.129276" lon="11.011488">
<ele>596.669</ele>
<time>2022-05-25T13:47:54Z</time>
</trkpt>
<trkpt lat="48.129246" lon="11.011537">
<ele>596.669</ele>
<time>2022-05-25T13:47:55Z</time>
</trkpt>
<trkpt lat="48.129215" lon="11.011586">
<ele>596.669</ele>
<time>2022-05-25T13:47:56Z</time>
</trkpt>
<trkpt lat="48.129185" lon="11.011641">
<ele>596.669</ele>
<time>2022-05-25T13:47:57Z</time>
</trkpt>
<trkpt lat="48.12915" lon="11.011695">
<ele>596.669</ele>
<time>2022-05-25T13:47:58Z</time>
</trkpt>
<trkpt lat="48.12912" lon="11.011748">
<ele>596.669</ele>
<time>2022-05-25T13:47:59Z</time>
</trkpt>
<trkpt lat="48.129086" lon="11.011806">
<ele>596.669</ele>
<time>2022-05-25T13:48:00Z</time>
</trkpt>
<trkpt lat="48.129055" lon="11.01186">
<ele>596.669</ele>
<time>2022-05-25T13:48:01Z</time>
</trkpt>
<trkpt lat="48.129021" lon="11.011917">
<ele>596.669</ele>
<time>2022-05-25T13:48:02Z</time>
</trkpt>
<trkpt lat="48.128986" lon="11.01197">
<ele>596.669</ele>
<time>2022-05-25T13:48:03Z</time>
</trkpt>
<trkpt lat="48.128952" lon="11.012024">
<ele>596.669</ele>
<time>2022-05-25T13:48:04Z</time>
</trkpt>
<trkpt lat="48.128922" lon="11.012076">
<ele>596.669</ele>
<time>2022-05-25T13:48:05Z</time>
</trkpt>
<trkpt lat="48.128891" lon="11.012132">
<ele>596.669</ele>
<time>2022-05-25T13:48:06Z</time>
</trkpt>
<trkpt lat="48.12886" lon="11.012185">
<ele>596.669</ele>
<time>2022-05-25T13:48:07Z</time>
</trkpt>
<trkpt lat="48.12883" lon="11.012237">
<ele>596.669</ele>
<time>2022-05-25T13:48:08Z</time>
</trkpt>
<trkpt lat="48.128799" lon="11.012288">
<ele>596.669</ele>
<time>2022-05-25T13:48:09Z</time>
</trkpt>
<trkpt lat="48.128765" lon="11.012344">
<ele>596.669</ele>
<time>2022-05-25T13:48:10Z</time>
</trkpt>
<trkpt lat="48.128735" lon="11.012401">
<ele>596.669</ele>
<time>2022-05-25T13:48:11Z</time>
</trkpt>
<trkpt lat="48.1287" lon="11.012455">
<ele>596.669</ele>
<time>2022-05-25T13:48:12Z</time>
</trkpt>
<trkpt lat="48.128666" lon="11.01251">
<ele>596.669</ele>
<time>2022-05-25T13:48:13Z</time>
</trkpt>
<trkpt lat="48.128632" lon="11.012565">
<ele>596.669</ele>
<time>2022-05-25T13:48:14Z</time>
</trkpt>
<trkpt lat="48.128597" lon="11.012621">
<ele>596.669</ele>
<time>2022-05-25T13:48:15Z</time>
</trkpt>
<trkpt lat="48.128563" lon="11.01268">
<ele>596.669</ele>
<time>2022-05-25T13:48:16Z</time>
</trkpt>
<trkpt lat="48.128529" lon="11.012736">
<ele>596.669</ele>
<time>2022-05-25T13:48:17Z</time>
</trkpt>
<trkpt lat="48.128498" lon="11.012793">
<ele>596.669</ele>
<time>2022-05-25T13:48:18Z</time>
</trkpt>
<trkpt lat="48.12846" lon="11.01285">
<ele>596.669</ele>
<time>2022-05-25T13:48:19Z</time>
</trkpt>
<trkpt lat="48.128429" lon="11.012905">
<ele>596.669</ele>
<time>2022-05-25T13:48:20Z</time>
</trkpt>
<trkpt lat="48.128395" lon="11.012962">
<ele>596.932</ele>
<time>2022-05-25T13:48:21Z</time>
</trkpt>
<trkpt lat="48.128365" lon="11.013019">
<ele>597.136</ele>
<time>2022-05-25T13:48:22Z</time>
</trkpt>
<trkpt lat="48.12833" lon="11.013077">
<ele>597.291</ele>
<time>2022-05-25T13:48:23Z</time>
</trkpt>
<trkpt lat="48.128296" lon="11.013132">
<ele>597.405</ele>
<time>2022-05-25T13:48:24Z</time>
</trkpt>
<trkpt lat="48.128262" lon="11.01319">
<ele>597.49</ele>
<time>2022-05-25T13:48:25Z</time>
</trkpt>
<trkpt lat="48.128231" lon="11.013248">
<ele>597.552</ele>
<time>2022-05-25T13:48:26Z</time>
</trkpt>
<trkpt lat="48.128197" lon="11.013306">
<ele>597.605</ele>
<time>2022-05-25T13:48:27Z</time>
</trkpt>
<trkpt lat="48.128166" lon="11.01336">
<ele>597.632</ele>
<time>2022-05-25T13:48:28Z</time>
</trkpt>
<trkpt lat="48.128128" lon="11.013415">
<ele>597.632</ele>
<time>2022-05-25T13:48:29Z</time>
</trkpt>
<trkpt lat="48.128094" lon="11.01347">
<ele>597.632</ele>
<time>2022-05-25T13:48:30Z</time>
</trkpt>
<trkpt lat="48.128059" lon="11.013526">
<ele>597.632</ele>
<time>2022-05-25T13:48:31Z</time>
</trkpt>
<trkpt lat="48.128029" lon="11.013583">
<ele>597.632</ele>
<time>2022-05-25T13:48:32Z</time>
</trkpt>
<trkpt lat="48.127995" lon="11.013641">
<ele>597.632</ele>
<time>2022-05-25T13:48:33Z</time>
</trkpt>
<trkpt lat="48.127964" lon="11.013697">
<ele>597.632</ele>
<time>2022-05-25T13:48:34Z</time>
</trkpt>
<trkpt lat="48.12793" lon="11.013754">
<ele>597.632</ele>
<time>2022-05-25T13:48:35Z</time>
</trkpt>
<trkpt lat="48.127895" lon="11.013808">
<ele>597.632</ele>
<time>2022-05-25T13:48:36Z</time>
</trkpt>
<trkpt lat="48.127865" lon="11.013865">
<ele>597.632</ele>
<time>2022-05-25T13:48:37Z</time>
</trkpt>
<trkpt lat="48.127831" lon="11.013917">
<ele>597.632</ele>
<time>2022-05-25T13:48:38Z</time>
</trkpt>
<trkpt lat="48.1278" lon="11.01397">
<ele>597.632</ele>
<time>2022-05-25T13:48:39Z</time>
</trkpt>
<trkpt lat="48.127766" lon="11.014027">
<ele>597.632</ele>
<time>2022-05-25T13:48:40Z</time>
</trkpt>
<trkpt lat="48.127735" lon="11.014083">
<ele>597.632</ele>
<time>2022-05-25T13:48:41Z</time>
</trkpt>
<trkpt lat="48.127697" lon="11.014142">
<ele>597.632</ele>
<time>2022-05-25T13:48:42Z</time>
</trkpt>
<trkpt lat="48.127666" lon="11.0142">
<ele>597.632</ele>
<time>2022-05-25T13:48:43Z</time>
</trkpt>
<trkpt lat="48.127632" lon="11.014259">
<ele>597.632</ele>
<time>2022-05-25T13:48:44Z</time>
</trkpt>
<trkpt lat="48.127598" lon="11.014318">
<ele>597.632</ele>
<time>2022-05-25T13:48:45Z</time>
</trkpt>
<trkpt lat="48.127563" lon="11.014377">
<ele>597.632</ele>
<time>2022-05-25T13:48:46Z</time>
</trkpt>
<trkpt lat="48.127533" lon="11.014433">
<ele>597.632</ele>
<time>2022-05-25T13:48:47Z</time>
</trkpt>
<trkpt lat="48.127499" lon="11.014492">
<ele>597.632</ele>
<time>2022-05-25T13:48:48Z</time>
</trkpt>
<trkpt lat="48.127464" lon="11.014548">
<ele>597.632</ele>
<time>2022-05-25T13:48:49Z</time>
</trkpt>
<trkpt lat="48.12743" lon="11.014606">
<ele>597.632</ele>
<time>2022-05-25T13:48:50Z</time>
</trkpt>
<trkpt lat="48.127399" lon="11.014666">
<ele>597.632</ele>
<time>2022-05-25T13:48:51Z</time>
</trkpt>
<trkpt lat="48.127361" lon="11.01472">
<ele>597.632</ele>
<time>2022-05-25T13:48:52Z</time>
</trkpt>
<trkpt lat="48.127331" lon="11.014778">
<ele>597.632</ele>
<time>2022-05-25T13:48:53Z</time>
</trkpt>
<trkpt lat="48.127293" lon="11.014838">
<ele>597.632</ele>
<time>2022-05-25T13:48:54Z</time>
</trkpt>
<trkpt lat="48.127262" lon="11.014894">
<ele>597.632</ele>
<time>2022-05-25T13:48:55Z</time>
</trkpt>
<trkpt lat="48.127228" lon="11.01495">
<ele>597.632</ele>
<time>2022-05-25T13:48:56Z</time>
</trkpt>
<trkpt lat="48.127193" lon="11.015007">
<ele>597.632</ele>
<time>2022-05-25T13:48:57Z</time>
</trkpt>
<trkpt lat="48.127155" lon="11.015063">
<ele>597.632</ele>
<time>2022-05-25T13:48:58Z</time>
</trkpt>
<trkpt lat="48.127121" lon="11.015121">
<ele>597.632</ele>
<time>2022-05-25T13:48:59Z</time>
</trkpt>
<trkpt lat="48.127087" lon="11.015179">
<ele>597.632</ele>
<time>2022-05-25T13:49:00Z</time>
</trkpt>
<trkpt lat="48.127052" lon="11.015233">
<ele>597.893</ele>
<time>2022-05-25T13:49:01Z</time>
</trkpt>
<trkpt lat="48.127018" lon="11.015292">
<ele>598.097</ele>
<time>2022-05-25T13:49:02Z</time>
</trkpt>
<trkpt lat="48.126984" lon="11.01535">
<ele>598.255</ele>
<time>2022-05-25T13:49:03Z</time>
</trkpt>
<trkpt lat="48.126945" lon="11.015407">
<ele>598.371</ele>
<time>2022-05-25T13:49:04Z</time>
</trkpt>
<trkpt lat="48.126915" lon="11.015457">
<ele>598.454</ele>
<time>2022-05-25T13:49:05Z</time>
</trkpt>
<trkpt lat="48.126881" lon="11.015508">
<ele>598.515</ele>
<time>2022-05-25T13:49:06Z</time>
</trkpt>
<trkpt lat="48.126846" lon="11.015565">
<ele>598.569</ele>
<time>2022-05-25T13:49:07Z</time>
</trkpt>
<trkpt lat="48.126816" lon="11.015625">
<ele>598.595</ele>
<time>2022-05-25T13:49:08Z</time>
</trkpt>
<trkpt lat="48.126781" lon="11.015686">
<ele>598.595</ele>
<time>2022-05-25T13:49:09Z</time>
</trkpt>
<trkpt lat="48.126747" lon="11.015749">
<ele>598.595</ele>
<time>2022-05-25T13:49:10Z</time>
</trkpt>
<trkpt lat="48.126713" lon="11.015808">
<ele>598.595</ele>
<time>2022-05-25T13:49:11Z</time>
</trkpt>
<trkpt lat="48.126678" lon="11.01587">
<ele>598.595</ele>
<time>2022-05-25T13:49:12Z</time>
</trkpt>
<trkpt lat="48.126644" lon="11.01593">
<ele>598.595</ele>
<time>2022-05-25T13:49:13Z</time>
</trkpt>
<trkpt lat="48.126606" lon="11.015988">
<ele>598.595</ele>
<time>2022-05-25T13:49:14Z</time>
</trkpt>
<trkpt lat="48.126572" lon="11.016047">
<ele>598.595</ele>
<time>2022-05-25T13:49:15Z</time>
</trkpt>
<trkpt lat="48.126537" lon="11.016107">
<ele>598.595</ele>
<time>2022-05-25T13:49:16Z</time>
</trkpt>
<trkpt lat="48.126503" lon="11.016166">
<ele>598.595</ele>
<time>2022-05-25T13:49:17Z</time>
</trkpt>
<trkpt lat="48.126469" lon="11.016222">
<ele>598.595</ele>
<time>2022-05-25T13:49:18Z</time>
</trkpt>
<trkpt lat="48.126434" lon="11.016274">
<ele>598.595</ele>
<time>2022-05-25T13:49:19Z</time>
</trkpt>
<trkpt lat="48.126404" lon="11.01633">
<ele>598.595</ele>
<time>2022-05-25T13:49:20Z</time>
</trkpt>
<trkpt lat="48.126369" lon="11.016386">
<ele>598.595</ele>
<time>2022-05-25T13:49:21Z</time>
</trkpt>
<trkpt lat="48.126335" lon="11.016443">
<ele>598.595</ele>
<time>2022-05-25T13:49:22Z</time>
</trkpt>
<trkpt lat="48.126305" lon="11.0165">
<ele>598.595</ele>
<time>2022-05-25T13:49:23Z</time>
</trkpt>
<trkpt lat="48.12627" lon="11.016558">
<ele>598.595</ele>
<time>2022-05-25T13:49:24Z</time>
</trkpt>
<trkpt lat="48.126236" lon="11.016614">
<ele>598.595</ele>
<time>2022-05-25T13:49:25Z</time>
</trkpt>
<trkpt lat="48.126205" lon="11.016668">
<ele>598.595</ele>
<time>2022-05-25T13:49:26Z</time>
</trkpt>
<trkpt lat="48.126167" lon="11.016724">
<ele>598.595</ele>
<time>2022-05-25T13:49:27Z</time>
</trkpt>
<trkpt lat="48.126137" lon="11.01678">
<ele>598.595</ele>
<time>2022-05-25T13:49:28Z</time>
</trkpt>
<trkpt lat="48.126102" lon="11.016834">
<ele>598.595</ele>
<time>2022-05-25T13:49:29Z</time>
</trkpt>
<trkpt lat="48.126072" lon="11.016891">
<ele>598.595</ele>
<time>2022-05-25T13:49:30Z</time>
</trkpt>
<trkpt lat="48.126038" lon="11.016945">
<ele>598.595</ele>
<time>2022-05-25T13:49:31Z</time>
</trkpt>
<trkpt lat="48.126007" lon="11.016998">
<ele>598.595</ele>
<time>2022-05-25T13:49:32Z</time>
</trkpt>
<trkpt lat="48.125977" lon="11.017052">
<ele>598.595</ele>
<time>2022-05-25T13:49:33Z</time>
</trkpt>
<trkpt lat="48.125946" lon="11.017103">
<ele>598.595</ele>
<time>2022-05-25T13:49:34Z</time>
</trkpt>
<trkpt lat="48.125919" lon="11.017155">
<ele>598.595</ele>
<time>2022-05-25T13:49:35Z</time>
</trkpt>
<trkpt lat="48.125893" lon="11.017205">
<ele>598.595</ele>
<time>2022-05-25T13:49:36Z</time>
</trkpt>
<trkpt lat="48.125866" lon="11.017253">
<ele>598.595</ele>
<time>2022-05-25T13:49:37Z</time>
</trkpt>
<trkpt lat="48.125835" lon="11.017302">
<ele>598.595</ele>
<time>2022-05-25T13:49:38Z</time>
</trkpt>
<trkpt lat="48.125809" lon="11.017351">
<ele>598.595</ele>
<time>2022-05-25T13:49:39Z</time>
</trkpt>
<trkpt lat="48.125782" lon="11.017406">
<ele>598.595</ele>
<time>2022-05-25T13:49:40Z</time>
</trkpt>
<trkpt lat="48.125759" lon="11.01746">
<ele>598.595</ele>
<time>2022-05-25T13:49:41Z</time>
</trkpt>
<trkpt lat="48.125732" lon="11.017513">
<ele>598.595</ele>
<time>2022-05-25T13:49:42Z</time>
</trkpt>
<trkpt lat="48.125706" lon="11.01757">
<ele>598.595</ele>
<time>2022-05-25T13:49:43Z</time>
</trkpt>
<trkpt lat="48.125683" lon="11.017627">
<ele>598.815</ele>
<time>2022-05-25T13:49:44Z</time>
</trkpt>
<trkpt lat="48.12566" lon="11.017683">
<ele>598.989</ele>
<time>2022-05-25T13:49:45Z</time>
</trkpt>
<trkpt lat="48.125633" lon="11.017739">
<ele>599.109</ele>
<time>2022-05-25T13:49:46Z</time>
</trkpt>
<trkpt lat="48.125607" lon="11.017794">
<ele>599.237</ele>
<time>2022-05-25T13:49:47Z</time>
</trkpt>
<trkpt lat="48.125584" lon="11.017846">
<ele>599.334</ele>
<time>2022-05-25T13:49:48Z</time>
</trkpt>
<trkpt lat="48.125546" lon="11.01795">
<ele>599.405</ele>
<time>2022-05-25T13:49:50Z</time>
</trkpt>
<trkpt lat="48.125523" lon="11.017995">
<ele>599.45</ele>
<time>2022-05-25T13:49:51Z</time>
</trkpt>
<trkpt lat="48.1255" lon="11.018042">
<ele>599.471</ele>
<time>2022-05-25T13:49:52Z</time>
</trkpt>
<trkpt lat="48.125477" lon="11.018085">
<ele>599.471</ele>
<time>2022-05-25T13:49:53Z</time>
</trkpt>
<trkpt lat="48.125458" lon="11.018128">
<ele>599.471</ele>
<time>2022-05-25T13:49:54Z</time>
</trkpt>
<trkpt lat="48.125443" lon="11.018167">
<ele>599.471</ele>
<time>2022-05-25T13:49:55Z</time>
</trkpt>
<trkpt lat="48.125423" lon="11.018207">
<ele>599.471</ele>
<time>2022-05-25T13:49:56Z</time>
</trkpt>
<trkpt lat="48.125404" lon="11.018249">
<ele>599.471</ele>
<time>2022-05-25T13:49:57Z</time>
</trkpt>
<trkpt lat="48.125385" lon="11.018289">
<ele>599.471</ele>
<time>2022-05-25T13:49:58Z</time>
</trkpt>
<trkpt lat="48.125366" lon="11.018332">
<ele>599.471</ele>
<time>2022-05-25T13:49:59Z</time>
</trkpt>
<trkpt lat="48.125343" lon="11.018373">
<ele>599.471</ele>
<time>2022-05-25T13:50:00Z</time>
</trkpt>
<trkpt lat="48.12532" lon="11.018415">
<ele>599.471</ele>
<time>2022-05-25T13:50:01Z</time>
</trkpt>
<trkpt lat="48.125305" lon="11.018458">
<ele>599.471</ele>
<time>2022-05-25T13:50:02Z</time>
</trkpt>
<trkpt lat="48.125282" lon="11.018503">
<ele>599.471</ele>
<time>2022-05-25T13:50:03Z</time>
</trkpt>
<trkpt lat="48.125259" lon="11.018545">
<ele>599.471</ele>
<time>2022-05-25T13:50:04Z</time>
</trkpt>
<trkpt lat="48.12524" lon="11.018587">
<ele>599.713</ele>
<time>2022-05-25T13:50:05Z</time>
</trkpt>
<trkpt lat="48.125217" lon="11.01863">
<ele>599.906</ele>
<time>2022-05-25T13:50:06Z</time>
</trkpt>
<trkpt lat="48.125198" lon="11.018674">
<ele>600.034</ele>
<time>2022-05-25T13:50:07Z</time>
</trkpt>
<trkpt lat="48.125179" lon="11.01872">
<ele>600.176</ele>
<time>2022-05-25T13:50:08Z</time>
</trkpt>
<trkpt lat="48.125153" lon="11.018766">
<ele>600.284</ele>
<time>2022-05-25T13:50:09Z</time>
</trkpt>
<trkpt lat="48.12513" lon="11.018813">
<ele>600.361</ele>
<time>2022-05-25T13:50:10Z</time>
</trkpt>
<trkpt lat="48.125111" lon="11.01886">
<ele>600.41</ele>
<time>2022-05-25T13:50:11Z</time>
</trkpt>
<trkpt lat="48.125088" lon="11.018909">
<ele>600.434</ele>
<time>2022-05-25T13:50:12Z</time>
</trkpt>
<trkpt lat="48.125061" lon="11.018956">
<ele>600.434</ele>
<time>2022-05-25T13:50:13Z</time>
</trkpt>
<trkpt lat="48.125042" lon="11.019007">
<ele>600.434</ele>
<time>2022-05-25T13:50:14Z</time>
</trkpt>
<trkpt lat="48.125019" lon="11.019056">
<ele>600.434</ele>
<time>2022-05-25T13:50:15Z</time>
</trkpt>
<trkpt lat="48.124992" lon="11.019105">
<ele>600.434</ele>
<time>2022-05-25T13:50:16Z</time>
</trkpt>
<trkpt lat="48.124973" lon="11.019156">
<ele>600.65</ele>
<time>2022-05-25T13:50:17Z</time>
</trkpt>
<trkpt lat="48.12495" lon="11.019205">
<ele>600.853</ele>
<time>2022-05-25T13:50:18Z</time>
</trkpt>
<trkpt lat="48.124924" lon="11.019258">
<ele>601.02</ele>
<time>2022-05-25T13:50:19Z</time>
</trkpt>
<trkpt lat="48.124905" lon="11.019312">
<ele>601.132</ele>
<time>2022-05-25T13:50:20Z</time>
</trkpt>
<trkpt lat="48.124889" lon="11.019367">
<ele>601.479</ele>
<time>2022-05-25T13:50:21Z</time>
</trkpt>
<trkpt lat="48.12487" lon="11.019422">
<ele>601.756</ele>
<time>2022-05-25T13:50:22Z</time>
</trkpt>
<trkpt lat="48.124859" lon="11.019476">
<ele>601.967</ele>
<time>2022-05-25T13:50:23Z</time>
</trkpt>
<trkpt lat="48.124844" lon="11.019533">
<ele>602.095</ele>
<time>2022-05-25T13:50:24Z</time>
</trkpt>
<trkpt lat="48.124836" lon="11.019593">
<ele>602.467</ele>
<time>2022-05-25T13:50:25Z</time>
</trkpt>
<trkpt lat="48.124825" lon="11.019651">
<ele>602.714</ele>
<time>2022-05-25T13:50:26Z</time>
</trkpt>
<trkpt lat="48.124809" lon="11.019711">
<ele>602.891</ele>
<time>2022-05-25T13:50:27Z</time>
</trkpt>
<trkpt lat="48.124798" lon="11.01977">
<ele>603.297</ele>
<time>2022-05-25T13:50:28Z</time>
</trkpt>
<trkpt lat="48.12479" lon="11.019828">
<ele>603.605</ele>
<time>2022-05-25T13:50:29Z</time>
</trkpt>
<trkpt lat="48.124779" lon="11.019883">
<ele>603.846</ele>
<time>2022-05-25T13:50:30Z</time>
</trkpt>
<trkpt lat="48.124771" lon="11.019938">
<ele>603.997</ele>
<time>2022-05-25T13:50:31Z</time>
</trkpt>
<trkpt lat="48.124763" lon="11.019994">
<ele>604.383</ele>
<time>2022-05-25T13:50:32Z</time>
</trkpt>
<trkpt lat="48.124756" lon="11.020046">
<ele>604.672</ele>
<time>2022-05-25T13:50:33Z</time>
</trkpt>
<trkpt lat="48.124748" lon="11.020101">
<ele>604.9</ele>
<time>2022-05-25T13:50:34Z</time>
</trkpt>
<trkpt lat="48.124741" lon="11.020157">
<ele>605.038</ele>
<time>2022-05-25T13:50:35Z</time>
</trkpt>
<trkpt lat="48.124737" lon="11.020215">
<ele>605.395</ele>
<time>2022-05-25T13:50:36Z</time>
</trkpt>
<trkpt lat="48.124729" lon="11.020272">
<ele>605.649</ele>
<time>2022-05-25T13:50:37Z</time>
</trkpt>
<trkpt lat="48.124725" lon="11.020329">
<ele>605.885</ele>
<time>2022-05-25T13:50:38Z</time>
</trkpt>
<trkpt lat="48.124722" lon="11.020383">
<ele>606.052</ele>
<time>2022-05-25T13:50:39Z</time>
</trkpt>
<trkpt lat="48.124714" lon="11.020442">
<ele>606.145</ele>
<time>2022-05-25T13:50:40Z</time>
</trkpt>
<trkpt lat="48.124706" lon="11.0205">
<ele>606.464</ele>
<time>2022-05-25T13:50:41Z</time>
</trkpt>
<trkpt lat="48.124699" lon="11.020559">
<ele>606.714</ele>
<time>2022-05-25T13:50:42Z</time>
</trkpt>
<trkpt lat="48.124695" lon="11.02062">
<ele>606.899</ele>
<time>2022-05-25T13:50:43Z</time>
</trkpt>
<trkpt lat="48.124687" lon="11.020681">
<ele>607.062</ele>
<time>2022-05-25T13:50:44Z</time>
</trkpt>
<trkpt lat="48.124683" lon="11.020743">
<ele>607.15</ele>
<time>2022-05-25T13:50:45Z</time>
</trkpt>
<trkpt lat="48.124676" lon="11.020804">
<ele>607.189</ele>
<time>2022-05-25T13:50:46Z</time>
</trkpt>
<trkpt lat="48.124668" lon="11.020866">
<ele>607.44</ele>
<time>2022-05-25T13:50:47Z</time>
</trkpt>
<trkpt lat="48.124664" lon="11.020928">
<ele>607.65</ele>
<time>2022-05-25T13:50:48Z</time>
</trkpt>
<trkpt lat="48.12466" lon="11.020991">
<ele>607.801</ele>
<time>2022-05-25T13:50:49Z</time>
</trkpt>
<trkpt lat="48.124657" lon="11.021051">
<ele>607.921</ele>
<time>2022-05-25T13:50:50Z</time>
</trkpt>
<trkpt lat="48.124653" lon="11.02111">
<ele>608.013</ele>
<time>2022-05-25T13:50:51Z</time>
</trkpt>
<trkpt lat="48.124649" lon="11.021171">
<ele>608.079</ele>
<time>2022-05-25T13:50:52Z</time>
</trkpt>
<trkpt lat="48.124649" lon="11.021228">
<ele>608.119</ele>
<time>2022-05-25T13:50:53Z</time>
</trkpt>
<trkpt lat="48.124649" lon="11.021286">
<ele>608.375</ele>
<time>2022-05-25T13:50:54Z</time>
</trkpt>
<trkpt lat="48.124649" lon="11.021345">
<ele>608.579</ele>
<time>2022-05-25T13:50:55Z</time>
</trkpt>
<trkpt lat="48.124649" lon="11.021403">
<ele>608.731</ele>
<time>2022-05-25T13:50:56Z</time>
</trkpt>
<trkpt lat="48.124649" lon="11.021463">
<ele>608.835</ele>
<time>2022-05-25T13:50:57Z</time>
</trkpt>
<trkpt lat="48.124653" lon="11.021522">
<ele>608.95</ele>
<time>2022-05-25T13:50:58Z</time>
</trkpt>
<trkpt lat="48.124653" lon="11.021578">
<ele>609.031</ele>
<time>2022-05-25T13:50:59Z</time>
</trkpt>
<trkpt lat="48.124653" lon="11.021635">
<ele>609.083</ele>
<time>2022-05-25T13:51:00Z</time>
</trkpt>
<trkpt lat="48.124653" lon="11.021688">
<ele>609.108</ele>
<time>2022-05-25T13:51:01Z</time>
</trkpt>
<trkpt lat="48.124657" lon="11.021743">
<ele>609.108</ele>
<time>2022-05-25T13:51:02Z</time>
</trkpt>
<trkpt lat="48.124664" lon="11.021797">
<ele>609.357</ele>
<time>2022-05-25T13:51:03Z</time>
</trkpt>
<trkpt lat="48.124664" lon="11.02185">
<ele>609.556</ele>
<time>2022-05-25T13:51:04Z</time>
</trkpt>
<trkpt lat="48.124668" lon="11.021902">
<ele>609.709</ele>
<time>2022-05-25T13:51:05Z</time>
</trkpt>
<trkpt lat="48.124668" lon="11.021952">
<ele>609.799</ele>
<time>2022-05-25T13:51:06Z</time>
</trkpt>
<trkpt lat="48.124672" lon="11.022">
<ele>610.099</ele>
<time>2022-05-25T13:51:07Z</time>
</trkpt>
<trkpt lat="48.12468" lon="11.02205">
<ele>610.364</ele>
<time>2022-05-25T13:51:08Z</time>
</trkpt>
<trkpt lat="48.124683" lon="11.022101">
<ele>610.571</ele>
<time>2022-05-25T13:51:09Z</time>
</trkpt>
<trkpt lat="48.124691" lon="11.022152">
<ele>610.699</ele>
<time>2022-05-25T13:51:10Z</time>
</trkpt>
<trkpt lat="48.124695" lon="11.022203">
<ele>611.035</ele>
<time>2022-05-25T13:51:11Z</time>
</trkpt>
<trkpt lat="48.124695" lon="11.022257">
<ele>611.308</ele>
<time>2022-05-25T13:51:12Z</time>
</trkpt>
<trkpt lat="48.124699" lon="11.02231">
<ele>611.522</ele>
<time>2022-05-25T13:51:13Z</time>
</trkpt>
<trkpt lat="48.124702" lon="11.022361">
<ele>611.676</ele>
<time>2022-05-25T13:51:14Z</time>
</trkpt>
<trkpt lat="48.124706" lon="11.022409">
<ele>611.771</ele>
<time>2022-05-25T13:51:15Z</time>
</trkpt>
<trkpt lat="48.12471" lon="11.022458">
<ele>612.069</ele>
<time>2022-05-25T13:51:16Z</time>
</trkpt>
<trkpt lat="48.124714" lon="11.022507">
<ele>612.286</ele>
<time>2022-05-25T13:51:17Z</time>
</trkpt>
<trkpt lat="48.12471" lon="11.022552">
<ele>612.482</ele>
<time>2022-05-25T13:51:18Z</time>
</trkpt>
<trkpt lat="48.124695" lon="11.022592">
<ele>612.616</ele>
<time>2022-05-25T13:51:19Z</time>
</trkpt>
<trkpt lat="48.124672" lon="11.022623">
<ele>612.722</ele>
<time>2022-05-25T13:51:20Z</time>
</trkpt>
<trkpt lat="48.124641" lon="11.022648">
<ele>612.801</ele>
<time>2022-05-25T13:51:21Z</time>
</trkpt>
<trkpt lat="48.124611" lon="11.022672">
<ele>612.853</ele>
<time>2022-05-25T13:51:22Z</time>
</trkpt>
<trkpt lat="48.12458" lon="11.022694">
<ele>612.877</ele>
<time>2022-05-25T13:51:23Z</time>
</trkpt>
<trkpt lat="48.12455" lon="11.022719">
<ele>612.877</ele>
<time>2022-05-25T13:51:24Z</time>
</trkpt>
<trkpt lat="48.124519" lon="11.022746">
<ele>612.877</ele>
<time>2022-05-25T13:51:25Z</time>
</trkpt>
<trkpt lat="48.124485" lon="11.022777">
<ele>612.877</ele>
<time>2022-05-25T13:51:26Z</time>
</trkpt>
<trkpt lat="48.124451" lon="11.02281">
<ele>612.877</ele>
<time>2022-05-25T13:51:27Z</time>
</trkpt>
<trkpt lat="48.124416" lon="11.022843">
<ele>612.878</ele>
<time>2022-05-25T13:51:28Z</time>
</trkpt>
<trkpt lat="48.124386" lon="11.022879">
<ele>612.878</ele>
<time>2022-05-25T13:51:29Z</time>
</trkpt>
<trkpt lat="48.124359" lon="11.022919">
<ele>612.877</ele>
<time>2022-05-25T13:51:30Z</time>
</trkpt>
<trkpt lat="48.124336" lon="11.022964">
<ele>612.878</ele>
<time>2022-05-25T13:51:31Z</time>
</trkpt>
<trkpt lat="48.124313" lon="11.023008">
<ele>612.877</ele>
<time>2022-05-25T13:51:32Z</time>
</trkpt>
<trkpt lat="48.12429" lon="11.02305">
<ele>612.877</ele>
<time>2022-05-25T13:51:33Z</time>
</trkpt>
<trkpt lat="48.124264" lon="11.023094">
<ele>612.878</ele>
<time>2022-05-25T13:51:34Z</time>
</trkpt>
<trkpt lat="48.124233" lon="11.023149">
<ele>612.877</ele>
<time>2022-05-25T13:51:35Z</time>
</trkpt>
<trkpt lat="48.124207" lon="11.023203">
<ele>612.877</ele>
<time>2022-05-25T13:51:36Z</time>
</trkpt>
<trkpt lat="48.124195" lon="11.023265">
<ele>612.877</ele>
<time>2022-05-25T13:51:37Z</time>
</trkpt>
<trkpt lat="48.124184" lon="11.023327">
<ele>612.877</ele>
<time>2022-05-25T13:51:38Z</time>
</trkpt>
<trkpt lat="48.124176" lon="11.023392">
<ele>612.877</ele>
<time>2022-05-25T13:51:39Z</time>
</trkpt>
<trkpt lat="48.124176" lon="11.02346">
<ele>612.878</ele>
<time>2022-05-25T13:51:40Z</time>
</trkpt>
<trkpt lat="48.124172" lon="11.023528">
<ele>612.877</ele>
<time>2022-05-25T13:51:41Z</time>
</trkpt>
<trkpt lat="48.124172" lon="11.023597">
<ele>612.878</ele>
<time>2022-05-25T13:51:42Z</time>
</trkpt>
<trkpt lat="48.124176" lon="11.02366">
<ele>612.877</ele>
<time>2022-05-25T13:51:43Z</time>
</trkpt>
<trkpt lat="48.12418" lon="11.023726">
<ele>612.877</ele>
<time>2022-05-25T13:51:44Z</time>
</trkpt>
<trkpt lat="48.124187" lon="11.02379">
<ele>612.877</ele>
<time>2022-05-25T13:51:45Z</time>
</trkpt>
<trkpt lat="48.124195" lon="11.023852">
<ele>612.878</ele>
<time>2022-05-25T13:51:46Z</time>
</trkpt>
<trkpt lat="48.124199" lon="11.023915">
<ele>612.877</ele>
<time>2022-05-25T13:51:47Z</time>
</trkpt>
<trkpt lat="48.124203" lon="11.023978">
<ele>612.877</ele>
<time>2022-05-25T13:51:48Z</time>
</trkpt>
<trkpt lat="48.124207" lon="11.024041">
<ele>612.878</ele>
<time>2022-05-25T13:51:49Z</time>
</trkpt>
<trkpt lat="48.12421" lon="11.024108">
<ele>612.877</ele>
<time>2022-05-25T13:51:50Z</time>
</trkpt>
<trkpt lat="48.124214" lon="11.024175">
<ele>612.877</ele>
<time>2022-05-25T13:51:51Z</time>
</trkpt>
<trkpt lat="48.124218" lon="11.024239">
<ele>612.877</ele>
<time>2022-05-25T13:51:52Z</time>
</trkpt>
<trkpt lat="48.124222" lon="11.024305">
<ele>612.878</ele>
<time>2022-05-25T13:51:53Z</time>
</trkpt>
<trkpt lat="48.124222" lon="11.024368">
<ele>612.877</ele>
<time>2022-05-25T13:51:54Z</time>
</trkpt>
<trkpt lat="48.124226" lon="11.024431">
<ele>612.877</ele>
<time>2022-05-25T13:51:55Z</time>
</trkpt>
<trkpt lat="48.124229" lon="11.024495">
<ele>612.877</ele>
<time>2022-05-25T13:51:56Z</time>
</trkpt>
<trkpt lat="48.124233" lon="11.024558">
<ele>612.877</ele>
<time>2022-05-25T13:51:57Z</time>
</trkpt>
<trkpt lat="48.124233" lon="11.024618">
<ele>612.877</ele>
<time>2022-05-25T13:51:58Z</time>
</trkpt>
<trkpt lat="48.124233" lon="11.024678">
<ele>612.877</ele>
<time>2022-05-25T13:51:59Z</time>
</trkpt>
<trkpt lat="48.124222" lon="11.024736">
<ele>612.877</ele>
<time>2022-05-25T13:52:00Z</time>
</trkpt>
<trkpt lat="48.12421" lon="11.024796">
<ele>612.877</ele>
<time>2022-05-25T13:52:01Z</time>
</trkpt>
<trkpt lat="48.124199" lon="11.02485">
<ele>612.877</ele>
<time>2022-05-25T13:52:02Z</time>
</trkpt>
<trkpt lat="48.124184" lon="11.024902">
<ele>613.172</ele>
<time>2022-05-25T13:52:03Z</time>
</trkpt>
<trkpt lat="48.124172" lon="11.024955">
<ele>613.406</ele>
<time>2022-05-25T13:52:04Z</time>
</trkpt>
<trkpt lat="48.124157" lon="11.025007">
<ele>613.587</ele>
<time>2022-05-25T13:52:05Z</time>
</trkpt>
<trkpt lat="48.124142" lon="11.025062">
<ele>613.728</ele>
<time>2022-05-25T13:52:06Z</time>
</trkpt>
<trkpt lat="48.124134" lon="11.02512">
<ele>613.824</ele>
<time>2022-05-25T13:52:07Z</time>
</trkpt>
<trkpt lat="48.124126" lon="11.025179">
<ele>613.923</ele>
<time>2022-05-25T13:52:08Z</time>
</trkpt>
<trkpt lat="48.124119" lon="11.025237">
<ele>613.986</ele>
<time>2022-05-25T13:52:09Z</time>
</trkpt>
<trkpt lat="48.124111" lon="11.025293">
<ele>614.017</ele>
<time>2022-05-25T13:52:10Z</time>
</trkpt>
<trkpt lat="48.124111" lon="11.025347">
<ele>614.017</ele>
<time>2022-05-25T13:52:11Z</time>
</trkpt>
<trkpt lat="48.124111" lon="11.025398">
<ele>614.017</ele>
<time>2022-05-25T13:52:12Z</time>
</trkpt>
<trkpt lat="48.124111" lon="11.025452">
<ele>614.017</ele>
<time>2022-05-25T13:52:13Z</time>
</trkpt>
<trkpt lat="48.124123" lon="11.025503">
<ele>614.017</ele>
<time>2022-05-25T13:52:14Z</time>
</trkpt>
<trkpt lat="48.124138" lon="11.025556">
<ele>614.251</ele>
<time>2022-05-25T13:52:15Z</time>
</trkpt>
<trkpt lat="48.124153" lon="11.025603">
<ele>614.442</ele>
<time>2022-05-25T13:52:16Z</time>
</trkpt>
<trkpt lat="48.124172" lon="11.025648">
<ele>614.575</ele>
<time>2022-05-25T13:52:17Z</time>
</trkpt>
<trkpt lat="48.124191" lon="11.025695">
<ele>614.719</ele>
<time>2022-05-25T13:52:18Z</time>
</trkpt>
<trkpt lat="48.124207" lon="11.025742">
<ele>614.831</ele>
<time>2022-05-25T13:52:19Z</time>
</trkpt>
<trkpt lat="48.124222" lon="11.025788">
<ele>614.909</ele>
<time>2022-05-25T13:52:20Z</time>
</trkpt>
<trkpt lat="48.124241" lon="11.025835">
<ele>614.958</ele>
<time>2022-05-25T13:52:21Z</time>
</trkpt>
<trkpt lat="48.124252" lon="11.025883">
<ele>614.982</ele>
<time>2022-05-25T13:52:22Z</time>
</trkpt>
<trkpt lat="48.124271" lon="11.025931">
<ele>615.213</ele>
<time>2022-05-25T13:52:23Z</time>
</trkpt>
<trkpt lat="48.124279" lon="11.025982">
<ele>615.393</ele>
<time>2022-05-25T13:52:24Z</time>
</trkpt>
<trkpt lat="48.124302" lon="11.02603">
<ele>615.533</ele>
<time>2022-05-25T13:52:25Z</time>
</trkpt>
<trkpt lat="48.12431" lon="11.026078">
<ele>615.64</ele>
<time>2022-05-25T13:52:26Z</time>
</trkpt>
<trkpt lat="48.124321" lon="11.026128">
<ele>615.714</ele>
<time>2022-05-25T13:52:27Z</time>
</trkpt>
<trkpt lat="48.124329" lon="11.026176">
<ele>615.789</ele>
<time>2022-05-25T13:52:28Z</time>
</trkpt>
<trkpt lat="48.124332" lon="11.026224">
<ele>615.836</ele>
<time>2022-05-25T13:52:29Z</time>
</trkpt>
<trkpt lat="48.124336" lon="11.026272">
<ele>615.859</ele>
<time>2022-05-25T13:52:30Z</time>
</trkpt>
<trkpt lat="48.124336" lon="11.026319">
<ele>615.859</ele>
<time>2022-05-25T13:52:31Z</time>
</trkpt>
<trkpt lat="48.124336" lon="11.026363">
<ele>616.138</ele>
<time>2022-05-25T13:52:32Z</time>
</trkpt>
<trkpt lat="48.124336" lon="11.02641">
<ele>616.359</ele>
<time>2022-05-25T13:52:33Z</time>
</trkpt>
<trkpt lat="48.124329" lon="11.026452">
<ele>616.528</ele>
<time>2022-05-25T13:52:34Z</time>
</trkpt>
<trkpt lat="48.124313" lon="11.02649">
<ele>616.661</ele>
<time>2022-05-25T13:52:35Z</time>
</trkpt>
<trkpt lat="48.124298" lon="11.026526">
<ele>616.752</ele>
<time>2022-05-25T13:52:36Z</time>
</trkpt>
<trkpt lat="48.124275" lon="11.02655">
<ele>616.822</ele>
<time>2022-05-25T13:52:37Z</time>
</trkpt>
<trkpt lat="48.124252" lon="11.026562">
<ele>616.881</ele>
<time>2022-05-25T13:52:38Z</time>
</trkpt>
<trkpt lat="48.124226" lon="11.026574">
<ele>617.158</ele>
<time>2022-05-25T13:52:39Z</time>
</trkpt>
<trkpt lat="48.124203" lon="11.026585">
<ele>617.456</ele>
<time>2022-05-25T13:52:40Z</time>
</trkpt>
<trkpt lat="48.124176" lon="11.026591">
<ele>617.639</ele>
<time>2022-05-25T13:52:41Z</time>
</trkpt>
<trkpt lat="48.124149" lon="11.026595">
<ele>617.78</ele>
<time>2022-05-25T13:52:42Z</time>
</trkpt>
<trkpt lat="48.124126" lon="11.026602">
<ele>617.875</ele>
<time>2022-05-25T13:52:43Z</time>
</trkpt>
<trkpt lat="48.1241" lon="11.026607">
<ele>617.935</ele>
<time>2022-05-25T13:52:44Z</time>
</trkpt>
<trkpt lat="48.124073" lon="11.026609">
<ele>617.965</ele>
<time>2022-05-25T13:52:45Z</time>
</trkpt>
<trkpt lat="48.124046" lon="11.026615">
<ele>617.965</ele>
<time>2022-05-25T13:52:46Z</time>
</trkpt>
<trkpt lat="48.124016" lon="11.026623">
<ele>617.965</ele>
<time>2022-05-25T13:52:47Z</time>
</trkpt>
<trkpt lat="48.123993" lon="11.026631">
<ele>617.965</ele>
<time>2022-05-25T13:52:48Z</time>
</trkpt>
<trkpt lat="48.123962" lon="11.026631">
<ele>618.345</ele>
<time>2022-05-25T13:52:49Z</time>
</trkpt>
<trkpt lat="48.123932" lon="11.02663">
<ele>618.629</ele>
<time>2022-05-25T13:52:50Z</time>
</trkpt>
<trkpt lat="48.123905" lon="11.026637">
<ele>618.837</ele>
<time>2022-05-25T13:52:51Z</time>
</trkpt>
<trkpt lat="48.123882" lon="11.026647">
<ele>618.988</ele>
<time>2022-05-25T13:52:52Z</time>
</trkpt>
<trkpt lat="48.123852" lon="11.026653">
<ele>619.09</ele>
<time>2022-05-25T13:52:53Z</time>
</trkpt>
<trkpt lat="48.123825" lon="11.026658">
<ele>619.154</ele>
<time>2022-05-25T13:52:54Z</time>
</trkpt>
<trkpt lat="48.123798" lon="11.026665">
<ele>619.193</ele>
<time>2022-05-25T13:52:55Z</time>
</trkpt>
<trkpt lat="48.123775" lon="11.02667">
<ele>619.193</ele>
<time>2022-05-25T13:52:56Z</time>
</trkpt>
<trkpt lat="48.123741" lon="11.026681">
<ele>619.422</ele>
<time>2022-05-25T13:52:57Z</time>
</trkpt>
<trkpt lat="48.123718" lon="11.026689">
<ele>619.644</ele>
<time>2022-05-25T13:52:58Z</time>
</trkpt>
<trkpt lat="48.123692" lon="11.026705">
<ele>619.829</ele>
<time>2022-05-25T13:52:59Z</time>
</trkpt>
<trkpt lat="48.123672" lon="11.026718">
<ele>619.956</ele>
<time>2022-05-25T13:53:00Z</time>
</trkpt>
<trkpt lat="48.123653" lon="11.026738">
<ele>620.301</ele>
<time>2022-05-25T13:53:01Z</time>
</trkpt>
<trkpt lat="48.123631" lon="11.026756">
<ele>620.585</ele>
<time>2022-05-25T13:53:02Z</time>
</trkpt>
<trkpt lat="48.123611" lon="11.026772">
<ele>620.799</ele>
<time>2022-05-25T13:53:03Z</time>
</trkpt>
<trkpt lat="48.123589" lon="11.026788">
<ele>620.954</ele>
<time>2022-05-25T13:53:04Z</time>
</trkpt>
<trkpt lat="48.123569" lon="11.026794">
<ele>621.069</ele>
<time>2022-05-25T13:53:05Z</time>
</trkpt>
<trkpt lat="48.123554" lon="11.026788">
<ele>621.135</ele>
<time>2022-05-25T13:53:06Z</time>
</trkpt>
<trkpt lat="48.123535" lon="11.026769">
<ele>621.181</ele>
<time>2022-05-25T13:53:07Z</time>
</trkpt>
<trkpt lat="48.123524" lon="11.026746">
<ele>621.211</ele>
<time>2022-05-25T13:53:08Z</time>
</trkpt>
<trkpt lat="48.123524" lon="11.026723">
<ele>621.211</ele>
<time>2022-05-25T13:53:09Z</time>
</trkpt>
<trkpt lat="48.123516" lon="11.0267">
<ele>621.211</ele>
<time>2022-05-25T13:53:10Z</time>
</trkpt>
<trkpt lat="48.123512" lon="11.026679">
<ele>621.211</ele>
<time>2022-05-25T13:53:11Z</time>
</trkpt>
<trkpt lat="48.123501" lon="11.026658">
<ele>621.211</ele>
<time>2022-05-25T13:53:12Z</time>
</trkpt>
<trkpt lat="48.123493" lon="11.026639">
<ele>621.211</ele>
<time>2022-05-25T13:53:13Z</time>
</trkpt>
<trkpt lat="48.123489" lon="11.026618">
<ele>621.211</ele>
<time>2022-05-25T13:53:14Z</time>
</trkpt>
<trkpt lat="48.123478" lon="11.026591">
<ele>621.211</ele>
<time>2022-05-25T13:53:15Z</time>
</trkpt>
<trkpt lat="48.12347" lon="11.026564">
<ele>621.211</ele>
<time>2022-05-25T13:53:16Z</time>
</trkpt>
<trkpt lat="48.123459" lon="11.026533">
<ele>621.211</ele>
<time>2022-05-25T13:53:17Z</time>
</trkpt>
<trkpt lat="48.123451" lon="11.026502">
<ele>621.211</ele>
<time>2022-05-25T13:53:18Z</time>
</trkpt>
<trkpt lat="48.12344" lon="11.026477">
<ele>621.211</ele>
<time>2022-05-25T13:53:19Z</time>
</trkpt>
<trkpt lat="48.123428" lon="11.026452">
<ele>621.211</ele>
<time>2022-05-25T13:53:20Z</time>
</trkpt>
<trkpt lat="48.123421" lon="11.026425">
<ele>621.211</ele>
<time>2022-05-25T13:53:21Z</time>
</trkpt>
<trkpt lat="48.123405" lon="11.026397">
<ele>621.211</ele>
<time>2022-05-25T13:53:22Z</time>
</trkpt>
<trkpt lat="48.123394" lon="11.026375">
<ele>621.211</ele>
<time>2022-05-25T13:53:23Z</time>
</trkpt>
<trkpt lat="48.123383" lon="11.026352">
<ele>621.211</ele>
<time>2022-05-25T13:53:24Z</time>
</trkpt>
<trkpt lat="48.123367" lon="11.02632">
<ele>621.211</ele>
<time>2022-05-25T13:53:25Z</time>
</trkpt>
<trkpt lat="48.123367" lon="11.026292">
<ele>621.211</ele>
<time>2022-05-25T13:53:26Z</time>
</trkpt>
<trkpt lat="48.12336" lon="11.026261">
<ele>621.211</ele>
<time>2022-05-25T13:53:27Z</time>
</trkpt>
<trkpt lat="48.123337" lon="11.026228">
<ele>621.211</ele>
<time>2022-05-25T13:53:28Z</time>
</trkpt>
<trkpt lat="48.123314" lon="11.026192">
<ele>621.211</ele>
<time>2022-05-25T13:53:29Z</time>
</trkpt>
<trkpt lat="48.123291" lon="11.026151">
<ele>621.211</ele>
<time>2022-05-25T13:53:30Z</time>
</trkpt>
<trkpt lat="48.12326" lon="11.026107">
<ele>620.928</ele>
<time>2022-05-25T13:53:31Z</time>
</trkpt>
<trkpt lat="48.123234" lon="11.026061">
<ele>620.728</ele>
<time>2022-05-25T13:53:32Z</time>
</trkpt>
<trkpt lat="48.123215" lon="11.026011">
<ele>620.583</ele>
<time>2022-05-25T13:53:33Z</time>
</trkpt>
<trkpt lat="48.123196" lon="11.025967">
<ele>620.48</ele>
<time>2022-05-25T13:53:34Z</time>
</trkpt>
<trkpt lat="48.123173" lon="11.02592">
<ele>620.428</ele>
<time>2022-05-25T13:53:35Z</time>
</trkpt>
<trkpt lat="48.123154" lon="11.025872">
<ele>620.386</ele>
<time>2022-05-25T13:53:36Z</time>
</trkpt>
<trkpt lat="48.123127" lon="11.02582">
<ele>620.355</ele>
<time>2022-05-25T13:53:37Z</time>
</trkpt>
<trkpt lat="48.1231" lon="11.025774">
<ele>620.075</ele>
<time>2022-05-25T13:53:38Z</time>
</trkpt>
<trkpt lat="48.123066" lon="11.025737">
<ele>619.859</ele>
<time>2022-05-25T13:53:39Z</time>
</trkpt>
<trkpt lat="48.123028" lon="11.025713">
<ele>619.678</ele>
<time>2022-05-25T13:53:40Z</time>
</trkpt>
<trkpt lat="48.122993" lon="11.025694">
<ele>619.536</ele>
<time>2022-05-25T13:53:41Z</time>
</trkpt>
<trkpt lat="48.122967" lon="11.02568">
<ele>619.426</ele>
<time>2022-05-25T13:53:42Z</time>
</trkpt>
<trkpt lat="48.122948" lon="11.025671">
<ele>619.352</ele>
<time>2022-05-25T13:53:43Z</time>
</trkpt>
<trkpt lat="48.122932" lon="11.025663">
<ele>619.305</ele>
<time>2022-05-25T13:53:44Z</time>
</trkpt>
<trkpt lat="48.122906" lon="11.025661">
<ele>619.28</ele>
<time>2022-05-25T13:53:45Z</time>
</trkpt>
<trkpt lat="48.122887" lon="11.025663">
<ele>619.28</ele>
<time>2022-05-25T13:53:46Z</time>
</trkpt>
<trkpt lat="48.122871" lon="11.025677">
<ele>619.28</ele>
<time>2022-05-25T13:53:47Z</time>
</trkpt>
<trkpt lat="48.122852" lon="11.025701">
<ele>619.28</ele>
<time>2022-05-25T13:53:48Z</time>
</trkpt>
<trkpt lat="48.122833" lon="11.025725">
<ele>619.28</ele>
<time>2022-05-25T13:53:49Z</time>
</trkpt>
<trkpt lat="48.122814" lon="11.025748">
<ele>619.536</ele>
<time>2022-05-25T13:53:50Z</time>
</trkpt>
<trkpt lat="48.122799" lon="11.025774">
<ele>619.74</ele>
<time>2022-05-25T13:53:51Z</time>
</trkpt>
<trkpt lat="48.122772" lon="11.025804">
<ele>619.897</ele>
<time>2022-05-25T13:53:52Z</time>
</trkpt>
<trkpt lat="48.122753" lon="11.025828">
<ele>619.993</ele>
<time>2022-05-25T13:53:53Z</time>
</trkpt>
<trkpt lat="48.12273" lon="11.025855">
<ele>620.07</ele>
<time>2022-05-25T13:53:54Z</time>
</trkpt>
<trkpt lat="48.122707" lon="11.025887">
<ele>620.113</ele>
<time>2022-05-25T13:53:55Z</time>
</trkpt>
<trkpt lat="48.122681" lon="11.025916">
<ele>620.14</ele>
<time>2022-05-25T13:53:56Z</time>
</trkpt>
<trkpt lat="48.122658" lon="11.025948">
<ele>620.158</ele>
<time>2022-05-25T13:53:57Z</time>
</trkpt>
<trkpt lat="48.122635" lon="11.025977">
<ele>620.406</ele>
<time>2022-05-25T13:53:58Z</time>
</trkpt>
<trkpt lat="48.122608" lon="11.026002">
<ele>620.607</ele>
<time>2022-05-25T13:53:59Z</time>
</trkpt>
<trkpt lat="48.122578" lon="11.026029">
<ele>620.763</ele>
<time>2022-05-25T13:54:00Z</time>
</trkpt>
<trkpt lat="48.122543" lon="11.026052">
<ele>620.894</ele>
<time>2022-05-25T13:54:01Z</time>
</trkpt>
<trkpt lat="48.122513" lon="11.026078">
<ele>620.989</ele>
<time>2022-05-25T13:54:02Z</time>
</trkpt>
<trkpt lat="48.122478" lon="11.026102">
<ele>621.057</ele>
<time>2022-05-25T13:54:03Z</time>
</trkpt>
<trkpt lat="48.122444" lon="11.026125">
<ele>621.096</ele>
<time>2022-05-25T13:54:04Z</time>
</trkpt>
<trkpt lat="48.122414" lon="11.026152">
<ele>621.366</ele>
<time>2022-05-25T13:54:05Z</time>
</trkpt>
<trkpt lat="48.122383" lon="11.026183">
<ele>621.564</ele>
<time>2022-05-25T13:54:06Z</time>
</trkpt>
<trkpt lat="48.122356" lon="11.026216">
<ele>621.692</ele>
<time>2022-05-25T13:54:07Z</time>
</trkpt>
<trkpt lat="48.122334" lon="11.026247">
<ele>621.828</ele>
<time>2022-05-25T13:54:08Z</time>
</trkpt>
<trkpt lat="48.122307" lon="11.02628">
<ele>621.934</ele>
<time>2022-05-25T13:54:09Z</time>
</trkpt>
<trkpt lat="48.12228" lon="11.026312">
<ele>622.012</ele>
<time>2022-05-25T13:54:10Z</time>
</trkpt>
<trkpt lat="48.122253" lon="11.026348">
<ele>622.063</ele>
<time>2022-05-25T13:54:11Z</time>
</trkpt>
<trkpt lat="48.122227" lon="11.026381">
<ele>622.088</ele>
<time>2022-05-25T13:54:12Z</time>
</trkpt>
<trkpt lat="48.1222" lon="11.026415">
<ele>622.321</ele>
<time>2022-05-25T13:54:13Z</time>
</trkpt>
<trkpt lat="48.122177" lon="11.026446">
<ele>622.501</ele>
<time>2022-05-25T13:54:14Z</time>
</trkpt>
<trkpt lat="48.12215" lon="11.026478">
<ele>622.641</ele>
<time>2022-05-25T13:54:15Z</time>
</trkpt>
<trkpt lat="48.12212" lon="11.026508">
<ele>622.748</ele>
<time>2022-05-25T13:54:16Z</time>
</trkpt>
<trkpt lat="48.122101" lon="11.02654">
<ele>622.819</ele>
<time>2022-05-25T13:54:17Z</time>
</trkpt>
<trkpt lat="48.122082" lon="11.026576">
<ele>623.124</ele>
<time>2022-05-25T13:54:18Z</time>
</trkpt>
<trkpt lat="48.122059" lon="11.026613">
<ele>623.365</ele>
<time>2022-05-25T13:54:19Z</time>
</trkpt>
<trkpt lat="48.12204" lon="11.026655">
<ele>623.554</ele>
<time>2022-05-25T13:54:20Z</time>
</trkpt>
<trkpt lat="48.122021" lon="11.026698">
<ele>623.684</ele>
<time>2022-05-25T13:54:21Z</time>
</trkpt>
<trkpt lat="48.121998" lon="11.02674">
<ele>623.787</ele>
<time>2022-05-25T13:54:22Z</time>
</trkpt>
<trkpt lat="48.121983" lon="11.026785">
<ele>623.862</ele>
<time>2022-05-25T13:54:23Z</time>
</trkpt>
<trkpt lat="48.12196" lon="11.026836">
<ele>623.905</ele>
<time>2022-05-25T13:54:24Z</time>
</trkpt>
<trkpt lat="48.121944" lon="11.026884">
<ele>624.221</ele>
<time>2022-05-25T13:54:25Z</time>
</trkpt>
<trkpt lat="48.121925" lon="11.026932">
<ele>624.455</ele>
<time>2022-05-25T13:54:26Z</time>
</trkpt>
<trkpt lat="48.12191" lon="11.026977">
<ele>624.61</ele>
<time>2022-05-25T13:54:27Z</time>
</trkpt>
<trkpt lat="48.121891" lon="11.02702">
<ele>624.771</ele>
<time>2022-05-25T13:54:28Z</time>
</trkpt>
<trkpt lat="48.121876" lon="11.027062">
<ele>624.896</ele>
<time>2022-05-25T13:54:29Z</time>
</trkpt>
<trkpt lat="48.121861" lon="11.027103">
<ele>624.987</ele>
<time>2022-05-25T13:54:30Z</time>
</trkpt>
<trkpt lat="48.121841" lon="11.027146">
<ele>625.041</ele>
<time>2022-05-25T13:54:31Z</time>
</trkpt>
<trkpt lat="48.121822" lon="11.02718">
<ele>625.299</ele>
<time>2022-05-25T13:54:32Z</time>
</trkpt>
<trkpt lat="48.121803" lon="11.027217">
<ele>625.528</ele>
<time>2022-05-25T13:54:33Z</time>
</trkpt>
<trkpt lat="48.12178" lon="11.027253">
<ele>625.685</ele>
<time>2022-05-25T13:54:34Z</time>
</trkpt>
<trkpt lat="48.121761" lon="11.027295">
<ele>625.805</ele>
<time>2022-05-25T13:54:35Z</time>
</trkpt>
<trkpt lat="48.121731" lon="11.027341">
<ele>625.896</ele>
<time>2022-05-25T13:54:36Z</time>
</trkpt>
<trkpt lat="48.121712" lon="11.027383">
<ele>625.96</ele>
<time>2022-05-25T13:54:37Z</time>
</trkpt>
<trkpt lat="48.121693" lon="11.027425">
<ele>626.013</ele>
<time>2022-05-25T13:54:38Z</time>
</trkpt>
<trkpt lat="48.12167" lon="11.027465">
<ele>626.279</ele>
<time>2022-05-25T13:54:39Z</time>
</trkpt>
<trkpt lat="48.121647" lon="11.027507">
<ele>626.564</ele>
<time>2022-05-25T13:54:40Z</time>
</trkpt>
<trkpt lat="48.121628" lon="11.027555">
<ele>626.725</ele>
<time>2022-05-25T13:54:41Z</time>
</trkpt>
<trkpt lat="48.121613" lon="11.027593">
<ele>626.839</ele>
<time>2022-05-25T13:54:42Z</time>
</trkpt>
<trkpt lat="48.121597" lon="11.027642">
<ele>626.919</ele>
<time>2022-05-25T13:54:43Z</time>
</trkpt>
<trkpt lat="48.121578" lon="11.027695">
<ele>626.977</ele>
<time>2022-05-25T13:54:44Z</time>
</trkpt>
<trkpt lat="48.121567" lon="11.027756">
<ele>627.004</ele>
<time>2022-05-25T13:54:45Z</time>
</trkpt>
<trkpt lat="48.121552" lon="11.027815">
<ele>627.004</ele>
<time>2022-05-25T13:54:46Z</time>
</trkpt>
<trkpt lat="48.12154" lon="11.027875">
<ele>627.004</ele>
<time>2022-05-25T13:54:47Z</time>
</trkpt>
<trkpt lat="48.121532" lon="11.027932">
<ele>627.004</ele>
<time>2022-05-25T13:54:48Z</time>
</trkpt>
<trkpt lat="48.121521" lon="11.027988">
<ele>627.004</ele>
<time>2022-05-25T13:54:49Z</time>
</trkpt>
<trkpt lat="48.12151" lon="11.028043">
<ele>627.004</ele>
<time>2022-05-25T13:54:50Z</time>
</trkpt>
<trkpt lat="48.121502" lon="11.028095">
<ele>627.004</ele>
<time>2022-05-25T13:54:51Z</time>
</trkpt>
<trkpt lat="48.121498" lon="11.028148">
<ele>627.004</ele>
<time>2022-05-25T13:54:52Z</time>
</trkpt>
<trkpt lat="48.121483" lon="11.0282">
<ele>627.004</ele>
<time>2022-05-25T13:54:53Z</time>
</trkpt>
<trkpt lat="48.121468" lon="11.028255">
<ele>627.225</ele>
<time>2022-05-25T13:54:54Z</time>
</trkpt>
<trkpt lat="48.12146" lon="11.028311">
<ele>627.4</ele>
<time>2022-05-25T13:54:55Z</time>
</trkpt>
<trkpt lat="48.121445" lon="11.028357">
<ele>627.541</ele>
<time>2022-05-25T13:54:56Z</time>
</trkpt>
<trkpt lat="48.121433" lon="11.028399">
<ele>627.637</ele>
<time>2022-05-25T13:54:57Z</time>
</trkpt>
<trkpt lat="48.12141" lon="11.028432">
<ele>627.739</ele>
<time>2022-05-25T13:54:58Z</time>
</trkpt>
<trkpt lat="48.12138" lon="11.028461">
<ele>627.81</ele>
<time>2022-05-25T13:54:59Z</time>
</trkpt>
<trkpt lat="48.121346" lon="11.028489">
<ele>628.09</ele>
<time>2022-05-25T13:55:00Z</time>
</trkpt>
<trkpt lat="48.121307" lon="11.028506">
<ele>628.31</ele>
<time>2022-05-25T13:55:01Z</time>
</trkpt>
<trkpt lat="48.121273" lon="11.028522">
<ele>628.536</ele>
<time>2022-05-25T13:55:02Z</time>
</trkpt>
<trkpt lat="48.121235" lon="11.028535">
<ele>628.663</ele>
<time>2022-05-25T13:55:03Z</time>
</trkpt>
<trkpt lat="48.121193" lon="11.028543">
<ele>628.757</ele>
<time>2022-05-25T13:55:04Z</time>
</trkpt>
<trkpt lat="48.121155" lon="11.028552">
<ele>628.807</ele>
<time>2022-05-25T13:55:05Z</time>
</trkpt>
<trkpt lat="48.121124" lon="11.02856">
<ele>628.829</ele>
<time>2022-05-25T13:55:06Z</time>
</trkpt>
<trkpt lat="48.12109" lon="11.02857">
<ele>628.848</ele>
<time>2022-05-25T13:55:07Z</time>
</trkpt>
<trkpt lat="48.121063" lon="11.028584">
<ele>628.848</ele>
<time>2022-05-25T13:55:08Z</time>
</trkpt>
<trkpt lat="48.121029" lon="11.028598">
<ele>628.848</ele>
<time>2022-05-25T13:55:09Z</time>
</trkpt>
<trkpt lat="48.120998" lon="11.028612">
<ele>628.848</ele>
<time>2022-05-25T13:55:10Z</time>
</trkpt>
<trkpt lat="48.120964" lon="11.028624">
<ele>628.848</ele>
<time>2022-05-25T13:55:11Z</time>
</trkpt>
<trkpt lat="48.120934" lon="11.028636">
<ele>628.571</ele>
<time>2022-05-25T13:55:12Z</time>
</trkpt>
<trkpt lat="48.120903" lon="11.028652">
<ele>628.342</ele>
<time>2022-05-25T13:55:13Z</time>
</trkpt>
<trkpt lat="48.120872" lon="11.028677">
<ele>628.161</ele>
<time>2022-05-25T13:55:14Z</time>
</trkpt>
<trkpt lat="48.120846" lon="11.028698">
<ele>628.034</ele>
<time>2022-05-25T13:55:15Z</time>
</trkpt>
<trkpt lat="48.120815" lon="11.028718">
<ele>627.946</ele>
<time>2022-05-25T13:55:16Z</time>
</trkpt>
<trkpt lat="48.120785" lon="11.028736">
<ele>627.882</ele>
<time>2022-05-25T13:55:17Z</time>
</trkpt>
<trkpt lat="48.120754" lon="11.028759">
<ele>627.823</ele>
<time>2022-05-25T13:55:18Z</time>
</trkpt>
<trkpt lat="48.120724" lon="11.028785">
<ele>627.795</ele>
<time>2022-05-25T13:55:19Z</time>
</trkpt>
<trkpt lat="48.120693" lon="11.028811">
<ele>627.795</ele>
<time>2022-05-25T13:55:20Z</time>
</trkpt>
<trkpt lat="48.120659" lon="11.028833">
<ele>627.795</ele>
<time>2022-05-25T13:55:21Z</time>
</trkpt>
<trkpt lat="48.120628" lon="11.028856">
<ele>627.795</ele>
<time>2022-05-25T13:55:22Z</time>
</trkpt>
<trkpt lat="48.120598" lon="11.02888">
<ele>627.795</ele>
<time>2022-05-25T13:55:23Z</time>
</trkpt>
<trkpt lat="48.120567" lon="11.028897">
<ele>627.795</ele>
<time>2022-05-25T13:55:24Z</time>
</trkpt>
<trkpt lat="48.120537" lon="11.028914">
<ele>627.576</ele>
<time>2022-05-25T13:55:25Z</time>
</trkpt>
<trkpt lat="48.120506" lon="11.028938">
<ele>627.403</ele>
<time>2022-05-25T13:55:26Z</time>
</trkpt>
<trkpt lat="48.120468" lon="11.028967">
<ele>627.286</ele>
<time>2022-05-25T13:55:27Z</time>
</trkpt>
<trkpt lat="48.120434" lon="11.028988">
<ele>627.156</ele>
<time>2022-05-25T13:55:28Z</time>
</trkpt>
<trkpt lat="48.120392" lon="11.029011">
<ele>627.054</ele>
<time>2022-05-25T13:55:29Z</time>
</trkpt>
<trkpt lat="48.120358" lon="11.02903">
<ele>626.982</ele>
<time>2022-05-25T13:55:30Z</time>
</trkpt>
<trkpt lat="48.120316" lon="11.029053">
<ele>626.937</ele>
<time>2022-05-25T13:55:31Z</time>
</trkpt>
<trkpt lat="48.12027" lon="11.029077">
<ele>626.916</ele>
<time>2022-05-25T13:55:32Z</time>
</trkpt>
<trkpt lat="48.120232" lon="11.029101">
<ele>626.916</ele>
<time>2022-05-25T13:55:33Z</time>
</trkpt>
<trkpt lat="48.120182" lon="11.029123">
<ele>626.916</ele>
<time>2022-05-25T13:55:34Z</time>
</trkpt>
<trkpt lat="48.120136" lon="11.029147">
<ele>626.916</ele>
<time>2022-05-25T13:55:35Z</time>
</trkpt>
<trkpt lat="48.120094" lon="11.02917">
<ele>626.916</ele>
<time>2022-05-25T13:55:36Z</time>
</trkpt>
<trkpt lat="48.120045" lon="11.029191">
<ele>626.696</ele>
<time>2022-05-25T13:55:37Z</time>
</trkpt>
<trkpt lat="48.120003" lon="11.029212">
<ele>626.49</ele>
<time>2022-05-25T13:55:38Z</time>
</trkpt>
<trkpt lat="48.119953" lon="11.029237">
<ele>626.327</ele>
<time>2022-05-25T13:55:39Z</time>
</trkpt>
<trkpt lat="48.119904" lon="11.029264">
<ele>626.195</ele>
<time>2022-05-25T13:55:40Z</time>
</trkpt>
<trkpt lat="48.119858" lon="11.029291">
<ele>626.093</ele>
<time>2022-05-25T13:55:41Z</time>
</trkpt>
<trkpt lat="48.119812" lon="11.029315">
<ele>626.021</ele>
<time>2022-05-25T13:55:42Z</time>
</trkpt>
<trkpt lat="48.119766" lon="11.029338">
<ele>625.973</ele>
<time>2022-05-25T13:55:43Z</time>
</trkpt>
<trkpt lat="48.119717" lon="11.029365">
<ele>625.95</ele>
<time>2022-05-25T13:55:44Z</time>
</trkpt>
<trkpt lat="48.119667" lon="11.029388">
<ele>625.951</ele>
<time>2022-05-25T13:55:45Z</time>
</trkpt>
<trkpt lat="48.119614" lon="11.02941">
<ele>625.951</ele>
<time>2022-05-25T13:55:46Z</time>
</trkpt>
<trkpt lat="48.11956" lon="11.029436">
<ele>625.951</ele>
<time>2022-05-25T13:55:47Z</time>
</trkpt>
<trkpt lat="48.119514" lon="11.029465">
<ele>625.951</ele>
<time>2022-05-25T13:55:48Z</time>
</trkpt>
<trkpt lat="48.119461" lon="11.02949">
<ele>625.951</ele>
<time>2022-05-25T13:55:49Z</time>
</trkpt>
<trkpt lat="48.119411" lon="11.029515">
<ele>625.95</ele>
<time>2022-05-25T13:55:50Z</time>
</trkpt>
<trkpt lat="48.119362" lon="11.029543">
<ele>625.951</ele>
<time>2022-05-25T13:55:51Z</time>
</trkpt>
<trkpt lat="48.119316" lon="11.029568">
<ele>625.95</ele>
<time>2022-05-25T13:55:52Z</time>
</trkpt>
<trkpt lat="48.119267" lon="11.029595">
<ele>625.951</ele>
<time>2022-05-25T13:55:53Z</time>
</trkpt>
<trkpt lat="48.119217" lon="11.029622">
<ele>625.951</ele>
<time>2022-05-25T13:55:54Z</time>
</trkpt>
<trkpt lat="48.119167" lon="11.029648">
<ele>625.951</ele>
<time>2022-05-25T13:55:55Z</time>
</trkpt>
<trkpt lat="48.119122" lon="11.029673">
<ele>625.95</ele>
<time>2022-05-25T13:55:56Z</time>
</trkpt>
<trkpt lat="48.119072" lon="11.029696">
<ele>625.951</ele>
<time>2022-05-25T13:55:57Z</time>
</trkpt>
<trkpt lat="48.119022" lon="11.02972">
<ele>625.951</ele>
<time>2022-05-25T13:55:58Z</time>
</trkpt>
<trkpt lat="48.118977" lon="11.029745">
<ele>625.951</ele>
<time>2022-05-25T13:55:59Z</time>
</trkpt>
<trkpt lat="48.118927" lon="11.029767">
<ele>625.951</ele>
<time>2022-05-25T13:56:00Z</time>
</trkpt>
<trkpt lat="48.118885" lon="11.029788">
<ele>625.951</ele>
<time>2022-05-25T13:56:01Z</time>
</trkpt>
<trkpt lat="48.118835" lon="11.029813">
<ele>625.951</ele>
<time>2022-05-25T13:56:02Z</time>
</trkpt>
<trkpt lat="48.118793" lon="11.02984">
<ele>625.95</ele>
<time>2022-05-25T13:56:03Z</time>
</trkpt>
<trkpt lat="48.118748" lon="11.029867">
<ele>625.95</ele>
<time>2022-05-25T13:56:04Z</time>
</trkpt>
<trkpt lat="48.118698" lon="11.029888">
<ele>625.951</ele>
<time>2022-05-25T13:56:05Z</time>
</trkpt>
<trkpt lat="48.118656" lon="11.029914">
<ele>625.95</ele>
<time>2022-05-25T13:56:06Z</time>
</trkpt>
<trkpt lat="48.118607" lon="11.029937">
<ele>625.951</ele>
<time>2022-05-25T13:56:07Z</time>
</trkpt>
<trkpt lat="48.118561" lon="11.029958">
<ele>625.951</ele>
<time>2022-05-25T13:56:08Z</time>
</trkpt>
<trkpt lat="48.118511" lon="11.029981">
<ele>625.951</ele>
<time>2022-05-25T13:56:09Z</time>
</trkpt>
<trkpt lat="48.118469" lon="11.030002">
<ele>625.951</ele>
<time>2022-05-25T13:56:10Z</time>
</trkpt>
<trkpt lat="48.118423" lon="11.030023">
<ele>625.951</ele>
<time>2022-05-25T13:56:11Z</time>
</trkpt>
<trkpt lat="48.118374" lon="11.030046">
<ele>625.951</ele>
<time>2022-05-25T13:56:12Z</time>
</trkpt>
<trkpt lat="48.118332" lon="11.030066">
<ele>625.951</ele>
<time>2022-05-25T13:56:13Z</time>
</trkpt>
<trkpt lat="48.118279" lon="11.030088">
<ele>625.951</ele>
<time>2022-05-25T13:56:14Z</time>
</trkpt>
<trkpt lat="48.118229" lon="11.030111">
<ele>625.951</ele>
<time>2022-05-25T13:56:15Z</time>
</trkpt>
<trkpt lat="48.118176" lon="11.030135">
<ele>625.951</ele>
<time>2022-05-25T13:56:16Z</time>
</trkpt>
<trkpt lat="48.118122" lon="11.030163">
<ele>625.95</ele>
<time>2022-05-25T13:56:17Z</time>
</trkpt>
<trkpt lat="48.118073" lon="11.030192">
<ele>625.951</ele>
<time>2022-05-25T13:56:18Z</time>
</trkpt>
<trkpt lat="48.118011" lon="11.030227">
<ele>625.618</ele>
<time>2022-05-25T13:56:19Z</time>
</trkpt>
<trkpt lat="48.117954" lon="11.030264">
<ele>625.409</ele>
<time>2022-05-25T13:56:20Z</time>
</trkpt>
<trkpt lat="48.117901" lon="11.030295">
<ele>624.934</ele>
<time>2022-05-25T13:56:21Z</time>
</trkpt>
<trkpt lat="48.117851" lon="11.030318">
<ele>624.59</ele>
<time>2022-05-25T13:56:22Z</time>
</trkpt>
<trkpt lat="48.117802" lon="11.030347">
<ele>624.375</ele>
<time>2022-05-25T13:56:23Z</time>
</trkpt>
<trkpt lat="48.117748" lon="11.030381">
<ele>623.938</ele>
<time>2022-05-25T13:56:24Z</time>
</trkpt>
<trkpt lat="48.117687" lon="11.030415">
<ele>623.669</ele>
<time>2022-05-25T13:56:25Z</time>
</trkpt>
<trkpt lat="48.117622" lon="11.030452">
<ele>623.178</ele>
<time>2022-05-25T13:56:26Z</time>
</trkpt>
<trkpt lat="48.117558" lon="11.030495">
<ele>622.826</ele>
<time>2022-05-25T13:56:27Z</time>
</trkpt>
<trkpt lat="48.117493" lon="11.030548">
<ele>622.254</ele>
<time>2022-05-25T13:56:28Z</time>
</trkpt>
<trkpt lat="48.11742" lon="11.030609">
<ele>621.881</ele>
<time>2022-05-25T13:56:29Z</time>
</trkpt>
<trkpt lat="48.117344" lon="11.030674">
<ele>621.299</ele>
<time>2022-05-25T13:56:30Z</time>
</trkpt>
<trkpt lat="48.117271" lon="11.030748">
<ele>620.579</ele>
<time>2022-05-25T13:56:31Z</time>
</trkpt>
<trkpt lat="48.117199" lon="11.030831">
<ele>620.126</ele>
<time>2022-05-25T13:56:32Z</time>
</trkpt>
<trkpt lat="48.117126" lon="11.030917">
<ele>619.477</ele>
<time>2022-05-25T13:56:33Z</time>
</trkpt>
<trkpt lat="48.117046" lon="11.031001">
<ele>619.065</ele>
<time>2022-05-25T13:56:34Z</time>
</trkpt>
<trkpt lat="48.116974" lon="11.031083">
<ele>618.452</ele>
<time>2022-05-25T13:56:35Z</time>
</trkpt>
<trkpt lat="48.116901" lon="11.031171">
<ele>618.006</ele>
<time>2022-05-25T13:56:36Z</time>
</trkpt>
<trkpt lat="48.116833" lon="11.031259">
<ele>617.731</ele>
<time>2022-05-25T13:56:37Z</time>
</trkpt>
<trkpt lat="48.11676" lon="11.031343">
<ele>617.237</ele>
<time>2022-05-25T13:56:38Z</time>
</trkpt>
<trkpt lat="48.116688" lon="11.031433">
<ele>616.873</ele>
<time>2022-05-25T13:56:39Z</time>
</trkpt>
<trkpt lat="48.116615" lon="11.031527">
<ele>616.602</ele>
<time>2022-05-25T13:56:40Z</time>
</trkpt>
<trkpt lat="48.116547" lon="11.031617">
<ele>616.411</ele>
<time>2022-05-25T13:56:41Z</time>
</trkpt>
<trkpt lat="48.116482" lon="11.031707">
<ele>616.278</ele>
<time>2022-05-25T13:56:42Z</time>
</trkpt>
<trkpt lat="48.116417" lon="11.031796">
<ele>616.197</ele>
<time>2022-05-25T13:56:43Z</time>
</trkpt>
<trkpt lat="48.11636" lon="11.031885">
<ele>616.147</ele>
<time>2022-05-25T13:56:44Z</time>
</trkpt>
<trkpt lat="48.116306" lon="11.031975">
<ele>616.122</ele>
<time>2022-05-25T13:56:45Z</time>
</trkpt>
<trkpt lat="48.116253" lon="11.032063">
<ele>616.122</ele>
<time>2022-05-25T13:56:46Z</time>
</trkpt>
<trkpt lat="48.116199" lon="11.032146">
<ele>616.122</ele>
<time>2022-05-25T13:56:47Z</time>
</trkpt>
<trkpt lat="48.11615" lon="11.032223">
<ele>616.122</ele>
<time>2022-05-25T13:56:48Z</time>
</trkpt>
<trkpt lat="48.116104" lon="11.032295">
<ele>616.122</ele>
<time>2022-05-25T13:56:49Z</time>
</trkpt>
<trkpt lat="48.116058" lon="11.032377">
<ele>616.122</ele>
<time>2022-05-25T13:56:50Z</time>
</trkpt>
<trkpt lat="48.116016" lon="11.032449">
<ele>616.122</ele>
<time>2022-05-25T13:56:51Z</time>
</trkpt>
<trkpt lat="48.115974" lon="11.03252">
<ele>616.122</ele>
<time>2022-05-25T13:56:52Z</time>
</trkpt>
<trkpt lat="48.115929" lon="11.032581">
<ele>616.122</ele>
<time>2022-05-25T13:56:53Z</time>
</trkpt>
<trkpt lat="48.115887" lon="11.032641">
<ele>616.122</ele>
<time>2022-05-25T13:56:54Z</time>
</trkpt>
<trkpt lat="48.115845" lon="11.032694">
<ele>616.122</ele>
<time>2022-05-25T13:56:55Z</time>
</trkpt>
<trkpt lat="48.115803" lon="11.03274">
<ele>616.122</ele>
<time>2022-05-25T13:56:56Z</time>
</trkpt>
<trkpt lat="48.115765" lon="11.032784">
<ele>616.122</ele>
<time>2022-05-25T13:56:57Z</time>
</trkpt>
<trkpt lat="48.115723" lon="11.032828">
<ele>616.342</ele>
<time>2022-05-25T13:56:58Z</time>
</trkpt>
<trkpt lat="48.115685" lon="11.032866">
<ele>616.534</ele>
<time>2022-05-25T13:56:59Z</time>
</trkpt>
<trkpt lat="48.115643" lon="11.032904">
<ele>616.695</ele>
<time>2022-05-25T13:57:00Z</time>
</trkpt>
<trkpt lat="48.115597" lon="11.03294">
<ele>616.829</ele>
<time>2022-05-25T13:57:01Z</time>
</trkpt>
<trkpt lat="48.115559" lon="11.03298">
<ele>616.934</ele>
<time>2022-05-25T13:57:02Z</time>
</trkpt>
<trkpt lat="48.115517" lon="11.033023">
<ele>617.014</ele>
<time>2022-05-25T13:57:03Z</time>
</trkpt>
<trkpt lat="48.115479" lon="11.033077">
<ele>617.065</ele>
<time>2022-05-25T13:57:04Z</time>
</trkpt>
<trkpt lat="48.11544" lon="11.033125">
<ele>617.087</ele>
<time>2022-05-25T13:57:05Z</time>
</trkpt>
<trkpt lat="48.115406" lon="11.03317">
<ele>617.087</ele>
<time>2022-05-25T13:57:06Z</time>
</trkpt>
<trkpt lat="48.115372" lon="11.033218">
<ele>617.087</ele>
<time>2022-05-25T13:57:07Z</time>
</trkpt>
<trkpt lat="48.115337" lon="11.033266">
<ele>617.087</ele>
<time>2022-05-25T13:57:08Z</time>
</trkpt>
<trkpt lat="48.115299" lon="11.033319">
<ele>617.087</ele>
<time>2022-05-25T13:57:09Z</time>
</trkpt>
<trkpt lat="48.115269" lon="11.033366">
<ele>617.087</ele>
<time>2022-05-25T13:57:10Z</time>
</trkpt>
<trkpt lat="48.115242" lon="11.03341">
<ele>616.824</ele>
<time>2022-05-25T13:57:11Z</time>
</trkpt>
<trkpt lat="48.115211" lon="11.033457">
<ele>616.617</ele>
<time>2022-05-25T13:57:12Z</time>
</trkpt>
<trkpt lat="48.115177" lon="11.033499">
<ele>616.453</ele>
<time>2022-05-25T13:57:13Z</time>
</trkpt>
<trkpt lat="48.11515" lon="11.033542">
<ele>616.337</ele>
<time>2022-05-25T13:57:14Z</time>
</trkpt>
<trkpt lat="48.115112" lon="11.033588">
<ele>616.256</ele>
<time>2022-05-25T13:57:15Z</time>
</trkpt>
<trkpt lat="48.115078" lon="11.03363">
<ele>616.199</ele>
<time>2022-05-25T13:57:16Z</time>
</trkpt>
<trkpt lat="48.11504" lon="11.033673">
<ele>616.153</ele>
<time>2022-05-25T13:57:17Z</time>
</trkpt>
<trkpt lat="48.114998" lon="11.033727">
<ele>616.122</ele>
<time>2022-05-25T13:57:18Z</time>
</trkpt>
<trkpt lat="48.114956" lon="11.033779">
<ele>616.122</ele>
<time>2022-05-25T13:57:19Z</time>
</trkpt>
<trkpt lat="48.114922" lon="11.033816">
<ele>616.122</ele>
<time>2022-05-25T13:57:20Z</time>
</trkpt>
<trkpt lat="48.11488" lon="11.033875">
<ele>616.122</ele>
<time>2022-05-25T13:57:21Z</time>
</trkpt>
<trkpt lat="48.114822" lon="11.03394">
<ele>616.122</ele>
<time>2022-05-25T13:57:22Z</time>
</trkpt>
<trkpt lat="48.114773" lon="11.03401">
<ele>616.122</ele>
<time>2022-05-25T13:57:23Z</time>
</trkpt>
<trkpt lat="48.114727" lon="11.034066">
<ele>616.122</ele>
<time>2022-05-25T13:57:24Z</time>
</trkpt>
<trkpt lat="48.114677" lon="11.034115">
<ele>616.122</ele>
<time>2022-05-25T13:57:25Z</time>
</trkpt>
<trkpt lat="48.114624" lon="11.034179">
<ele>616.346</ele>
<time>2022-05-25T13:57:26Z</time>
</trkpt>
<trkpt lat="48.114574" lon="11.034228">
<ele>616.5</ele>
<time>2022-05-25T13:57:27Z</time>
</trkpt>
<trkpt lat="48.114525" lon="11.034273">
<ele>616.656</ele>
<time>2022-05-25T13:57:28Z</time>
</trkpt>
<trkpt lat="48.114471" lon="11.03432">
<ele>616.766</ele>
<time>2022-05-25T13:57:29Z</time>
</trkpt>
<trkpt lat="48.114426" lon="11.034364">
<ele>616.847</ele>
<time>2022-05-25T13:57:30Z</time>
</trkpt>
<trkpt lat="48.114388" lon="11.03441">
<ele>617.15</ele>
<time>2022-05-25T13:57:31Z</time>
</trkpt>
<trkpt lat="48.114342" lon="11.03446">
<ele>617.399</ele>
<time>2022-05-25T13:57:32Z</time>
</trkpt>
<trkpt lat="48.114296" lon="11.034512">
<ele>617.582</ele>
<time>2022-05-25T13:57:33Z</time>
</trkpt>
<trkpt lat="48.114254" lon="11.034565">
<ele>617.747</ele>
<time>2022-05-25T13:57:34Z</time>
</trkpt>
<trkpt lat="48.114212" lon="11.034614">
<ele>617.835</ele>
<time>2022-05-25T13:57:35Z</time>
</trkpt>
<trkpt lat="48.114178" lon="11.034668">
<ele>617.893</ele>
<time>2022-05-25T13:57:36Z</time>
</trkpt>
<trkpt lat="48.114136" lon="11.034739">
<ele>617.935</ele>
<time>2022-05-25T13:57:37Z</time>
</trkpt>
<trkpt lat="48.114105" lon="11.034808">
<ele>617.964</ele>
<time>2022-05-25T13:57:38Z</time>
</trkpt>
<trkpt lat="48.114075" lon="11.034866">
<ele>617.965</ele>
<time>2022-05-25T13:57:39Z</time>
</trkpt>
<trkpt lat="48.114044" lon="11.034929">
<ele>617.965</ele>
<time>2022-05-25T13:57:40Z</time>
</trkpt>
<trkpt lat="48.114014" lon="11.034998">
<ele>617.965</ele>
<time>2022-05-25T13:57:41Z</time>
</trkpt>
<trkpt lat="48.113976" lon="11.035064">
<ele>617.964</ele>
<time>2022-05-25T13:57:42Z</time>
</trkpt>
<trkpt lat="48.113941" lon="11.035132">
<ele>617.965</ele>
<time>2022-05-25T13:57:43Z</time>
</trkpt>
<trkpt lat="48.113907" lon="11.035202">
<ele>617.737</ele>
<time>2022-05-25T13:57:44Z</time>
</trkpt>
<trkpt lat="48.113873" lon="11.035274">
<ele>617.588</ele>
<time>2022-05-25T13:57:45Z</time>
</trkpt>
<trkpt lat="48.113838" lon="11.03535">
<ele>617.172</ele>
<time>2022-05-25T13:57:46Z</time>
</trkpt>
<trkpt lat="48.113792" lon="11.035423">
<ele>616.869</ele>
<time>2022-05-25T13:57:47Z</time>
</trkpt>
<trkpt lat="48.113743" lon="11.035497">
<ele>616.601</ele>
<time>2022-05-25T13:57:48Z</time>
</trkpt>
<trkpt lat="48.113689" lon="11.035556">
<ele>616.134</ele>
<time>2022-05-25T13:57:49Z</time>
</trkpt>
<trkpt lat="48.113628" lon="11.035606">
<ele>615.812</ele>
<time>2022-05-25T13:57:50Z</time>
</trkpt>
<trkpt lat="48.11356" lon="11.035655">
<ele>615.276</ele>
<time>2022-05-25T13:57:51Z</time>
</trkpt>
<trkpt lat="48.113487" lon="11.035694">
<ele>614.937</ele>
<time>2022-05-25T13:57:52Z</time>
</trkpt>
<trkpt lat="48.113415" lon="11.035715">
<ele>614.382</ele>
<time>2022-05-25T13:57:53Z</time>
</trkpt>
<trkpt lat="48.113331" lon="11.035731">
<ele>613.864</ele>
<time>2022-05-25T13:57:54Z</time>
</trkpt>
<trkpt lat="48.113243" lon="11.03574">
<ele>613.599</ele>
<time>2022-05-25T13:57:55Z</time>
</trkpt>
<trkpt lat="48.113155" lon="11.035744">
<ele>613.434</ele>
<time>2022-05-25T13:57:56Z</time>
</trkpt>
<trkpt lat="48.113071" lon="11.035745">
<ele>613.314</ele>
<time>2022-05-25T13:57:57Z</time>
</trkpt>
<trkpt lat="48.112991" lon="11.035745">
<ele>613.213</ele>
<time>2022-05-25T13:57:58Z</time>
</trkpt>
<trkpt lat="48.112911" lon="11.035751">
<ele>613.165</ele>
<time>2022-05-25T13:57:59Z</time>
</trkpt>
<trkpt lat="48.112831" lon="11.035759">
<ele>613.141</ele>
<time>2022-05-25T13:58:00Z</time>
</trkpt>
<trkpt lat="48.112755" lon="11.035768">
<ele>613.141</ele>
<time>2022-05-25T13:58:01Z</time>
</trkpt>
<trkpt lat="48.112679" lon="11.035773">
<ele>613.141</ele>
<time>2022-05-25T13:58:02Z</time>
</trkpt>
<trkpt lat="48.11261" lon="11.035773">
<ele>613.141</ele>
<time>2022-05-25T13:58:03Z</time>
</trkpt>
<trkpt lat="48.112541" lon="11.035775">
<ele>613.141</ele>
<time>2022-05-25T13:58:04Z</time>
</trkpt>
<trkpt lat="48.112473" lon="11.035778">
<ele>613.141</ele>
<time>2022-05-25T13:58:05Z</time>
</trkpt>
<trkpt lat="48.112411" lon="11.035785">
<ele>613.141</ele>
<time>2022-05-25T13:58:06Z</time>
</trkpt>
<trkpt lat="48.112354" lon="11.035793">
<ele>613.141</ele>
<time>2022-05-25T13:58:07Z</time>
</trkpt>
<trkpt lat="48.112297" lon="11.035803">
<ele>613.141</ele>
<time>2022-05-25T13:58:08Z</time>
</trkpt>
<trkpt lat="48.11224" lon="11.035811">
<ele>613.141</ele>
<time>2022-05-25T13:58:09Z</time>
</trkpt>
<trkpt lat="48.112186" lon="11.035818">
<ele>613.141</ele>
<time>2022-05-25T13:58:10Z</time>
</trkpt>
<trkpt lat="48.112141" lon="11.035829">
<ele>613.141</ele>
<time>2022-05-25T13:58:11Z</time>
</trkpt>
<trkpt lat="48.112087" lon="11.03584">
<ele>613.389</ele>
<time>2022-05-25T13:58:12Z</time>
</trkpt>
<trkpt lat="48.112041" lon="11.035853">
<ele>613.588</ele>
<time>2022-05-25T13:58:13Z</time>
</trkpt>
<trkpt lat="48.111996" lon="11.035866">
<ele>613.719</ele>
<time>2022-05-25T13:58:14Z</time>
</trkpt>
<trkpt lat="48.11195" lon="11.035874">
<ele>614.078</ele>
<time>2022-05-25T13:58:15Z</time>
</trkpt>
<trkpt lat="48.1119" lon="11.035883">
<ele>614.359</ele>
<time>2022-05-25T13:58:16Z</time>
</trkpt>
<trkpt lat="48.111855" lon="11.035892">
<ele>614.572</ele>
<time>2022-05-25T13:58:17Z</time>
</trkpt>
<trkpt lat="48.111813" lon="11.035903">
<ele>614.774</ele>
<time>2022-05-25T13:58:18Z</time>
</trkpt>
<trkpt lat="48.111767" lon="11.035916">
<ele>614.912</ele>
<time>2022-05-25T13:58:19Z</time>
</trkpt>
<trkpt lat="48.111721" lon="11.035929">
<ele>614.992</ele>
<time>2022-05-25T13:58:20Z</time>
</trkpt>
<trkpt lat="48.111679" lon="11.035941">
<ele>615.045</ele>
<time>2022-05-25T13:58:21Z</time>
</trkpt>
<trkpt lat="48.111629" lon="11.035956">
<ele>615.07</ele>
<time>2022-05-25T13:58:22Z</time>
</trkpt>
<trkpt lat="48.111588" lon="11.035975">
<ele>615.07</ele>
<time>2022-05-25T13:58:23Z</time>
</trkpt>
<trkpt lat="48.111542" lon="11.03599">
<ele>615.07</ele>
<time>2022-05-25T13:58:24Z</time>
</trkpt>
<trkpt lat="48.111496" lon="11.03601">
<ele>615.311</ele>
<time>2022-05-25T13:58:25Z</time>
</trkpt>
<trkpt lat="48.111454" lon="11.03603">
<ele>615.503</ele>
<time>2022-05-25T13:58:26Z</time>
</trkpt>
<trkpt lat="48.111401" lon="11.036048">
<ele>615.634</ele>
<time>2022-05-25T13:58:27Z</time>
</trkpt>
<trkpt lat="48.111359" lon="11.036065">
<ele>615.775</ele>
<time>2022-05-25T13:58:28Z</time>
</trkpt>
<trkpt lat="48.111313" lon="11.036077">
<ele>615.883</ele>
<time>2022-05-25T13:58:29Z</time>
</trkpt>
<trkpt lat="48.111267" lon="11.036092">
<ele>615.961</ele>
<time>2022-05-25T13:58:30Z</time>
</trkpt>
<trkpt lat="48.111225" lon="11.03611">
<ele>616.01</ele>
<time>2022-05-25T13:58:31Z</time>
</trkpt>
<trkpt lat="48.111179" lon="11.036126">
<ele>616.034</ele>
<time>2022-05-25T13:58:32Z</time>
</trkpt>
<trkpt lat="48.111134" lon="11.036151">
<ele>616.034</ele>
<time>2022-05-25T13:58:33Z</time>
</trkpt>
<trkpt lat="48.111092" lon="11.036174">
<ele>616.034</ele>
<time>2022-05-25T13:58:34Z</time>
</trkpt>
<trkpt lat="48.111046" lon="11.036197">
<ele>616.035</ele>
<time>2022-05-25T13:58:35Z</time>
</trkpt>
<trkpt lat="48.111004" lon="11.036216">
<ele>616.248</ele>
<time>2022-05-25T13:58:36Z</time>
</trkpt>
<trkpt lat="48.110958" lon="11.036239">
<ele>616.401</ele>
<time>2022-05-25T13:58:37Z</time>
</trkpt>
<trkpt lat="48.110912" lon="11.036265">
<ele>616.557</ele>
<time>2022-05-25T13:58:38Z</time>
</trkpt>
<trkpt lat="48.110874" lon="11.036289">
<ele>616.682</ele>
<time>2022-05-25T13:58:39Z</time>
</trkpt>
<trkpt lat="48.110832" lon="11.036315">
<ele>616.775</ele>
<time>2022-05-25T13:58:40Z</time>
</trkpt>
<trkpt lat="48.110783" lon="11.036328">
<ele>616.838</ele>
<time>2022-05-25T13:58:41Z</time>
</trkpt>
<trkpt lat="48.110741" lon="11.036339">
<ele>617.124</ele>
<time>2022-05-25T13:58:42Z</time>
</trkpt>
<trkpt lat="48.110699" lon="11.036348">
<ele>617.34</ele>
<time>2022-05-25T13:58:43Z</time>
</trkpt>
<trkpt lat="48.110653" lon="11.036366">
<ele>617.534</ele>
<time>2022-05-25T13:58:44Z</time>
</trkpt>
<trkpt lat="48.110611" lon="11.036388">
<ele>617.62</ele>
<time>2022-05-25T13:58:45Z</time>
</trkpt>
<trkpt lat="48.110565" lon="11.03641">
<ele>617.953</ele>
<time>2022-05-25T13:58:46Z</time>
</trkpt>
<trkpt lat="48.110516" lon="11.036429">
<ele>618.202</ele>
<time>2022-05-25T13:58:47Z</time>
</trkpt>
<trkpt lat="48.110474" lon="11.036452">
<ele>618.429</ele>
<time>2022-05-25T13:58:48Z</time>
</trkpt>
<trkpt lat="48.110424" lon="11.036471">
<ele>618.592</ele>
<time>2022-05-25T13:58:49Z</time>
</trkpt>
<trkpt lat="48.110382" lon="11.03649">
<ele>618.698</ele>
<time>2022-05-25T13:58:50Z</time>
</trkpt>
<trkpt lat="48.110336" lon="11.036509">
<ele>618.774</ele>
<time>2022-05-25T13:58:51Z</time>
</trkpt>
<trkpt lat="48.110291" lon="11.03653">
<ele>618.819</ele>
<time>2022-05-25T13:58:52Z</time>
</trkpt>
<trkpt lat="48.110249" lon="11.036551">
<ele>618.842</ele>
<time>2022-05-25T13:58:53Z</time>
</trkpt>
<trkpt lat="48.110203" lon="11.036573">
<ele>619.065</ele>
<time>2022-05-25T13:58:54Z</time>
</trkpt>
<trkpt lat="48.110157" lon="11.036595">
<ele>619.244</ele>
<time>2022-05-25T13:58:55Z</time>
</trkpt>
<trkpt lat="48.110111" lon="11.036615">
<ele>619.38</ele>
<time>2022-05-25T13:58:56Z</time>
</trkpt>
<trkpt lat="48.110065" lon="11.036634">
<ele>619.475</ele>
<time>2022-05-25T13:58:57Z</time>
</trkpt>
<trkpt lat="48.110023" lon="11.036655">
<ele>619.576</ele>
<time>2022-05-25T13:58:58Z</time>
</trkpt>
<trkpt lat="48.109978" lon="11.036673">
<ele>619.651</ele>
<time>2022-05-25T13:58:59Z</time>
</trkpt>
<trkpt lat="48.109932" lon="11.036689">
<ele>619.697</ele>
<time>2022-05-25T13:59:00Z</time>
</trkpt>
<trkpt lat="48.109894" lon="11.036698">
<ele>619.719</ele>
<time>2022-05-25T13:59:01Z</time>
</trkpt>
<trkpt lat="48.109852" lon="11.036714">
<ele>619.719</ele>
<time>2022-05-25T13:59:02Z</time>
</trkpt>
<trkpt lat="48.10981" lon="11.036736">
<ele>619.719</ele>
<time>2022-05-25T13:59:03Z</time>
</trkpt>
<trkpt lat="48.109764" lon="11.03676">
<ele>619.719</ele>
<time>2022-05-25T13:59:04Z</time>
</trkpt>
<trkpt lat="48.109726" lon="11.036778">
<ele>619.719</ele>
<time>2022-05-25T13:59:05Z</time>
</trkpt>
<trkpt lat="48.109684" lon="11.03679">
<ele>619.951</ele>
<time>2022-05-25T13:59:06Z</time>
</trkpt>
<trkpt lat="48.109646" lon="11.036802">
<ele>620.119</ele>
<time>2022-05-25T13:59:07Z</time>
</trkpt>
<trkpt lat="48.109604" lon="11.036817">
<ele>620.29</ele>
<time>2022-05-25T13:59:08Z</time>
</trkpt>
<trkpt lat="48.109566" lon="11.03683">
<ele>620.43</ele>
<time>2022-05-25T13:59:09Z</time>
</trkpt>
<trkpt lat="48.10952" lon="11.036843">
<ele>620.534</ele>
<time>2022-05-25T13:59:10Z</time>
</trkpt>
<trkpt lat="48.109474" lon="11.03686">
<ele>620.611</ele>
<time>2022-05-25T13:59:11Z</time>
</trkpt>
<trkpt lat="48.109428" lon="11.03688">
<ele>620.659</ele>
<time>2022-05-25T13:59:12Z</time>
</trkpt>
<trkpt lat="48.109379" lon="11.036897">
<ele>620.684</ele>
<time>2022-05-25T13:59:13Z</time>
</trkpt>
<trkpt lat="48.109333" lon="11.036912">
<ele>620.684</ele>
<time>2022-05-25T13:59:14Z</time>
</trkpt>
<trkpt lat="48.109283" lon="11.036928">
<ele>620.684</ele>
<time>2022-05-25T13:59:15Z</time>
</trkpt>
<trkpt lat="48.109241" lon="11.036943">
<ele>620.685</ele>
<time>2022-05-25T13:59:16Z</time>
</trkpt>
<trkpt lat="48.109188" lon="11.036965">
<ele>620.684</ele>
<time>2022-05-25T13:59:17Z</time>
</trkpt>
<trkpt lat="48.109138" lon="11.036986">
<ele>620.684</ele>
<time>2022-05-25T13:59:18Z</time>
</trkpt>
<trkpt lat="48.109089" lon="11.037004">
<ele>620.684</ele>
<time>2022-05-25T13:59:19Z</time>
</trkpt>
<trkpt lat="48.109039" lon="11.037015">
<ele>620.684</ele>
<time>2022-05-25T13:59:20Z</time>
</trkpt>
<trkpt lat="48.10899" lon="11.037022">
<ele>620.684</ele>
<time>2022-05-25T13:59:21Z</time>
</trkpt>
<trkpt lat="48.10894" lon="11.037026">
<ele>620.684</ele>
<time>2022-05-25T13:59:22Z</time>
</trkpt>
<trkpt lat="48.108891" lon="11.037037">
<ele>620.684</ele>
<time>2022-05-25T13:59:23Z</time>
</trkpt>
<trkpt lat="48.108849" lon="11.037045">
<ele>620.684</ele>
<time>2022-05-25T13:59:24Z</time>
</trkpt>
<trkpt lat="48.108795" lon="11.037058">
<ele>620.684</ele>
<time>2022-05-25T13:59:25Z</time>
</trkpt>
<trkpt lat="48.108753" lon="11.037079">
<ele>620.453</ele>
<time>2022-05-25T13:59:26Z</time>
</trkpt>
<trkpt lat="48.1087" lon="11.037089">
<ele>620.284</ele>
<time>2022-05-25T13:59:27Z</time>
</trkpt>
<trkpt lat="48.108658" lon="11.037107">
<ele>620.114</ele>
<time>2022-05-25T13:59:28Z</time>
</trkpt>
<trkpt lat="48.108608" lon="11.037125">
<ele>620.058</ele>
<time>2022-05-25T13:59:29Z</time>
</trkpt>
<trkpt lat="48.108559" lon="11.037144">
<ele>620.212</ele>
<time>2022-05-25T13:59:30Z</time>
</trkpt>
<trkpt lat="48.108517" lon="11.037165">
<ele>620.349</ele>
<time>2022-05-25T13:59:31Z</time>
</trkpt>
<trkpt lat="48.108475" lon="11.037189">
<ele>620.469</ele>
<time>2022-05-25T13:59:32Z</time>
</trkpt>
<trkpt lat="48.108429" lon="11.03721">
<ele>620.57</ele>
<time>2022-05-25T13:59:33Z</time>
</trkpt>
<trkpt lat="48.108391" lon="11.037235">
<ele>620.663</ele>
<time>2022-05-25T13:59:34Z</time>
</trkpt>
<trkpt lat="48.108341" lon="11.037259">
<ele>620.72</ele>
<time>2022-05-25T13:59:35Z</time>
</trkpt>
<trkpt lat="48.108299" lon="11.037275">
<ele>620.747</ele>
<time>2022-05-25T13:59:36Z</time>
</trkpt>
<trkpt lat="48.108253" lon="11.037287">
<ele>620.772</ele>
<time>2022-05-25T13:59:37Z</time>
</trkpt>
<trkpt lat="48.1082" lon="11.037285">
<ele>621.008</ele>
<time>2022-05-25T13:59:38Z</time>
</trkpt>
<trkpt lat="48.108154" lon="11.037278">
<ele>621.207</ele>
<time>2022-05-25T13:59:39Z</time>
</trkpt>
<trkpt lat="48.108101" lon="11.037267">
<ele>621.372</ele>
<time>2022-05-25T13:59:40Z</time>
</trkpt>
<trkpt lat="48.108055" lon="11.037251">
<ele>621.5</ele>
<time>2022-05-25T13:59:41Z</time>
</trkpt>
<trkpt lat="48.108006" lon="11.037236">
<ele>621.599</ele>
<time>2022-05-25T13:59:42Z</time>
</trkpt>
<trkpt lat="48.10796" lon="11.037226">
<ele>621.669</ele>
<time>2022-05-25T13:59:43Z</time>
</trkpt>
<trkpt lat="48.10791" lon="11.037211">
<ele>621.715</ele>
<time>2022-05-25T13:59:44Z</time>
</trkpt>
<trkpt lat="48.107861" lon="11.0372">
<ele>621.737</ele>
<time>2022-05-25T13:59:45Z</time>
</trkpt>
<trkpt lat="48.107807" lon="11.037187">
<ele>621.737</ele>
<time>2022-05-25T13:59:46Z</time>
</trkpt>
<trkpt lat="48.107761" lon="11.037171">
<ele>621.737</ele>
<time>2022-05-25T13:59:47Z</time>
</trkpt>
<trkpt lat="48.107712" lon="11.037158">
<ele>621.737</ele>
<time>2022-05-25T13:59:48Z</time>
</trkpt>
<trkpt lat="48.107658" lon="11.037147">
<ele>621.737</ele>
<time>2022-05-25T13:59:49Z</time>
</trkpt>
<trkpt lat="48.107609" lon="11.037133">
<ele>621.737</ele>
<time>2022-05-25T13:59:50Z</time>
</trkpt>
<trkpt lat="48.107555" lon="11.037121">
<ele>621.737</ele>
<time>2022-05-25T13:59:51Z</time>
</trkpt>
<trkpt lat="48.107502" lon="11.037108">
<ele>621.737</ele>
<time>2022-05-25T13:59:52Z</time>
</trkpt>
<trkpt lat="48.107445" lon="11.037089">
<ele>621.737</ele>
<time>2022-05-25T13:59:53Z</time>
</trkpt>
<trkpt lat="48.107388" lon="11.03707">
<ele>621.737</ele>
<time>2022-05-25T13:59:54Z</time>
</trkpt>
<trkpt lat="48.10733" lon="11.037052">
<ele>621.466</ele>
<time>2022-05-25T13:59:55Z</time>
</trkpt>
<trkpt lat="48.107273" lon="11.037035">
<ele>621.255</ele>
<time>2022-05-25T13:59:56Z</time>
</trkpt>
<trkpt lat="48.107212" lon="11.03702">
<ele>621.114</ele>
<time>2022-05-25T13:59:57Z</time>
</trkpt>
<trkpt lat="48.107155" lon="11.037005">
<ele>620.697</ele>
<time>2022-05-25T13:59:58Z</time>
</trkpt>
<trkpt lat="48.10709" lon="11.03699">
<ele>620.36</ele>
<time>2022-05-25T13:59:59Z</time>
</trkpt>
<trkpt lat="48.107025" lon="11.036974">
<ele>620.147</ele>
<time>2022-05-25T14:00:00Z</time>
</trkpt>
<trkpt lat="48.106964" lon="11.036957">
<ele>619.652</ele>
<time>2022-05-25T14:00:01Z</time>
</trkpt>
<trkpt lat="48.106907" lon="11.036941">
<ele>619.321</ele>
<time>2022-05-25T14:00:02Z</time>
</trkpt>
<trkpt lat="48.10685" lon="11.036926">
<ele>618.8</ele>
<time>2022-05-25T14:00:03Z</time>
</trkpt>
<trkpt lat="48.106796" lon="11.036915">
<ele>618.389</ele>
<time>2022-05-25T14:00:04Z</time>
</trkpt>
<trkpt lat="48.106743" lon="11.036901">
<ele>618.12</ele>
<time>2022-05-25T14:00:05Z</time>
</trkpt>
<trkpt lat="48.106697" lon="11.036892">
<ele>617.682</ele>
<time>2022-05-25T14:00:06Z</time>
</trkpt>
<trkpt lat="48.106647" lon="11.036886">
<ele>617.372</ele>
<time>2022-05-25T14:00:07Z</time>
</trkpt>
<trkpt lat="48.106598" lon="11.036897">
<ele>617.114</ele>
<time>2022-05-25T14:00:08Z</time>
</trkpt>
<trkpt lat="48.106556" lon="11.036925">
<ele>616.708</ele>
<time>2022-05-25T14:00:09Z</time>
</trkpt>
<trkpt lat="48.106514" lon="11.036962">
<ele>616.383</ele>
<time>2022-05-25T14:00:10Z</time>
</trkpt>
<trkpt lat="48.10648" lon="11.037004">
<ele>616.146</ele>
<time>2022-05-25T14:00:11Z</time>
</trkpt>
<trkpt lat="48.106453" lon="11.037045">
<ele>615.961</ele>
<time>2022-05-25T14:00:12Z</time>
</trkpt>
<trkpt lat="48.10643" lon="11.037089">
<ele>615.831</ele>
<time>2022-05-25T14:00:13Z</time>
</trkpt>
<trkpt lat="48.106407" lon="11.037135">
<ele>615.709</ele>
<time>2022-05-25T14:00:14Z</time>
</trkpt>
<trkpt lat="48.106392" lon="11.03719">
<ele>615.684</ele>
<time>2022-05-25T14:00:15Z</time>
</trkpt>
<trkpt lat="48.106384" lon="11.037247">
<ele>615.684</ele>
<time>2022-05-25T14:00:16Z</time>
</trkpt>
<trkpt lat="48.10638" lon="11.037303">
<ele>615.684</ele>
<time>2022-05-25T14:00:17Z</time>
</trkpt>
<trkpt lat="48.10638" lon="11.037355">
<ele>615.684</ele>
<time>2022-05-25T14:00:18Z</time>
</trkpt>
<trkpt lat="48.106377" lon="11.037415">
<ele>615.684</ele>
<time>2022-05-25T14:00:19Z</time>
</trkpt>
<trkpt lat="48.106377" lon="11.037471">
<ele>615.684</ele>
<time>2022-05-25T14:00:20Z</time>
</trkpt>
<trkpt lat="48.106377" lon="11.037527">
<ele>615.684</ele>
<time>2022-05-25T14:00:21Z</time>
</trkpt>
<trkpt lat="48.106377" lon="11.037585">
<ele>615.684</ele>
<time>2022-05-25T14:00:22Z</time>
</trkpt>
<trkpt lat="48.106373" lon="11.037646">
<ele>615.684</ele>
<time>2022-05-25T14:00:23Z</time>
</trkpt>
<trkpt lat="48.106373" lon="11.0377">
<ele>615.684</ele>
<time>2022-05-25T14:00:24Z</time>
</trkpt>
<trkpt lat="48.106365" lon="11.037751">
<ele>615.684</ele>
<time>2022-05-25T14:00:25Z</time>
</trkpt>
<trkpt lat="48.106358" lon="11.037807">
<ele>615.684</ele>
<time>2022-05-25T14:00:26Z</time>
</trkpt>
<trkpt lat="48.106342" lon="11.037863">
<ele>615.684</ele>
<time>2022-05-25T14:00:27Z</time>
</trkpt>
<trkpt lat="48.106335" lon="11.037923">
<ele>615.684</ele>
<time>2022-05-25T14:00:28Z</time>
</trkpt>
<trkpt lat="48.106331" lon="11.03798">
<ele>615.684</ele>
<time>2022-05-25T14:00:29Z</time>
</trkpt>
<trkpt lat="48.106319" lon="11.038043">
<ele>615.684</ele>
<time>2022-05-25T14:00:30Z</time>
</trkpt>
<trkpt lat="48.106316" lon="11.038108">
<ele>615.684</ele>
<time>2022-05-25T14:00:31Z</time>
</trkpt>
<trkpt lat="48.106312" lon="11.038173">
<ele>615.684</ele>
<time>2022-05-25T14:00:32Z</time>
</trkpt>
<trkpt lat="48.106308" lon="11.038239">
<ele>615.684</ele>
<time>2022-05-25T14:00:33Z</time>
</trkpt>
<trkpt lat="48.1063" lon="11.038308">
<ele>615.684</ele>
<time>2022-05-25T14:00:34Z</time>
</trkpt>
<trkpt lat="48.106297" lon="11.038374">
<ele>615.684</ele>
<time>2022-05-25T14:00:35Z</time>
</trkpt>
<trkpt lat="48.106297" lon="11.038441">
<ele>615.684</ele>
<time>2022-05-25T14:00:36Z</time>
</trkpt>
<trkpt lat="48.106297" lon="11.038506">
<ele>615.684</ele>
<time>2022-05-25T14:00:37Z</time>
</trkpt>
<trkpt lat="48.106297" lon="11.038567">
<ele>615.684</ele>
<time>2022-05-25T14:00:38Z</time>
</trkpt>
<trkpt lat="48.1063" lon="11.038629">
<ele>615.684</ele>
<time>2022-05-25T14:00:39Z</time>
</trkpt>
<trkpt lat="48.1063" lon="11.03869">
<ele>615.684</ele>
<time>2022-05-25T14:00:40Z</time>
</trkpt>
<trkpt lat="48.1063" lon="11.038755">
<ele>615.684</ele>
<time>2022-05-25T14:00:41Z</time>
</trkpt>
<trkpt lat="48.1063" lon="11.038818">
<ele>615.684</ele>
<time>2022-05-25T14:00:42Z</time>
</trkpt>
<trkpt lat="48.106297" lon="11.038878">
<ele>615.684</ele>
<time>2022-05-25T14:00:43Z</time>
</trkpt>
<trkpt lat="48.1063" lon="11.038939">
<ele>615.684</ele>
<time>2022-05-25T14:00:44Z</time>
</trkpt>
<trkpt lat="48.106297" lon="11.038994">
<ele>615.684</ele>
<time>2022-05-25T14:00:45Z</time>
</trkpt>
<trkpt lat="48.106293" lon="11.039042">
<ele>615.684</ele>
<time>2022-05-25T14:00:46Z</time>
</trkpt>
<trkpt lat="48.106293" lon="11.039093">
<ele>615.684</ele>
<time>2022-05-25T14:00:47Z</time>
</trkpt>
<trkpt lat="48.106297" lon="11.039141">
<ele>615.684</ele>
<time>2022-05-25T14:00:48Z</time>
</trkpt>
<trkpt lat="48.106297" lon="11.039185">
<ele>615.684</ele>
<time>2022-05-25T14:00:49Z</time>
</trkpt>
<trkpt lat="48.106293" lon="11.039228">
<ele>615.684</ele>
<time>2022-05-25T14:00:50Z</time>
</trkpt>
<trkpt lat="48.106281" lon="11.039272">
<ele>615.684</ele>
<time>2022-05-25T14:00:51Z</time>
</trkpt>
<trkpt lat="48.106277" lon="11.03932">
<ele>615.934</ele>
<time>2022-05-25T14:00:52Z</time>
</trkpt>
<trkpt lat="48.106274" lon="11.039371">
<ele>616.145</ele>
<time>2022-05-25T14:00:53Z</time>
</trkpt>
<trkpt lat="48.106266" lon="11.039433">
<ele>616.306</ele>
<time>2022-05-25T14:00:54Z</time>
</trkpt>
<trkpt lat="48.10627" lon="11.039489">
<ele>616.43</ele>
<time>2022-05-25T14:00:55Z</time>
</trkpt>
<trkpt lat="48.106262" lon="11.03954">
<ele>616.515</ele>
<time>2022-05-25T14:00:56Z</time>
</trkpt>
<trkpt lat="48.106255" lon="11.039598">
<ele>616.574</ele>
<time>2022-05-25T14:00:57Z</time>
</trkpt>
<trkpt lat="48.106243" lon="11.039659">
<ele>616.626</ele>
<time>2022-05-25T14:00:58Z</time>
</trkpt>
<trkpt lat="48.106243" lon="11.039715">
<ele>616.649</ele>
<time>2022-05-25T14:00:59Z</time>
</trkpt>
<trkpt lat="48.106236" lon="11.039771">
<ele>616.648</ele>
<time>2022-05-25T14:01:00Z</time>
</trkpt>
<trkpt lat="48.106224" lon="11.039832">
<ele>616.648</ele>
<time>2022-05-25T14:01:01Z</time>
</trkpt>
<trkpt lat="48.106213" lon="11.03988">
<ele>616.649</ele>
<time>2022-05-25T14:01:02Z</time>
</trkpt>
<trkpt lat="48.106197" lon="11.039935">
<ele>616.882</ele>
<time>2022-05-25T14:01:03Z</time>
</trkpt>
<trkpt lat="48.106186" lon="11.039997">
<ele>617.062</ele>
<time>2022-05-25T14:01:04Z</time>
</trkpt>
<trkpt lat="48.106174" lon="11.040053">
<ele>617.198</ele>
<time>2022-05-25T14:01:05Z</time>
</trkpt>
<trkpt lat="48.106159" lon="11.040105">
<ele>617.305</ele>
<time>2022-05-25T14:01:06Z</time>
</trkpt>
<trkpt lat="48.106144" lon="11.040158">
<ele>617.38</ele>
<time>2022-05-25T14:01:07Z</time>
</trkpt>
<trkpt lat="48.106125" lon="11.040217">
<ele>617.455</ele>
<time>2022-05-25T14:01:08Z</time>
</trkpt>
<trkpt lat="48.106113" lon="11.040275">
<ele>617.501</ele>
<time>2022-05-25T14:01:09Z</time>
</trkpt>
<trkpt lat="48.106102" lon="11.040337">
<ele>617.766</ele>
<time>2022-05-25T14:01:10Z</time>
</trkpt>
<trkpt lat="48.106087" lon="11.0404">
<ele>618.026</ele>
<time>2022-05-25T14:01:11Z</time>
</trkpt>
<trkpt lat="48.106071" lon="11.040466">
<ele>618.188</ele>
<time>2022-05-25T14:01:12Z</time>
</trkpt>
<trkpt lat="48.106056" lon="11.040538">
<ele>618.316</ele>
<time>2022-05-25T14:01:13Z</time>
</trkpt>
<trkpt lat="48.106049" lon="11.040611">
<ele>618.399</ele>
<time>2022-05-25T14:01:14Z</time>
</trkpt>
<trkpt lat="48.106033" lon="11.040676">
<ele>618.447</ele>
<time>2022-05-25T14:01:15Z</time>
</trkpt>
<trkpt lat="48.106022" lon="11.04074">
<ele>618.47</ele>
<time>2022-05-25T14:01:16Z</time>
</trkpt>
<trkpt lat="48.10601" lon="11.040807">
<ele>618.491</ele>
<time>2022-05-25T14:01:17Z</time>
</trkpt>
<trkpt lat="48.105995" lon="11.04087">
<ele>618.491</ele>
<time>2022-05-25T14:01:18Z</time>
</trkpt>
<trkpt lat="48.105984" lon="11.040936">
<ele>618.491</ele>
<time>2022-05-25T14:01:19Z</time>
</trkpt>
<trkpt lat="48.10598" lon="11.040998">
<ele>618.765</ele>
<time>2022-05-25T14:01:20Z</time>
</trkpt>
<trkpt lat="48.105972" lon="11.041065">
<ele>618.975</ele>
<time>2022-05-25T14:01:21Z</time>
</trkpt>
<trkpt lat="48.105965" lon="11.041124">
<ele>619.141</ele>
<time>2022-05-25T14:01:22Z</time>
</trkpt>
<trkpt lat="48.105953" lon="11.041185">
<ele>619.267</ele>
<time>2022-05-25T14:01:23Z</time>
</trkpt>
<trkpt lat="48.105946" lon="11.04125">
<ele>619.351</ele>
<time>2022-05-25T14:01:24Z</time>
</trkpt>
<trkpt lat="48.105934" lon="11.041313">
<ele>619.403</ele>
<time>2022-05-25T14:01:25Z</time>
</trkpt>
<trkpt lat="48.105923" lon="11.041376">
<ele>619.433</ele>
<time>2022-05-25T14:01:26Z</time>
</trkpt>
<trkpt lat="48.105919" lon="11.041449">
<ele>619.456</ele>
<time>2022-05-25T14:01:27Z</time>
</trkpt>
<trkpt lat="48.105904" lon="11.041523">
<ele>619.456</ele>
<time>2022-05-25T14:01:28Z</time>
</trkpt>
<trkpt lat="48.105892" lon="11.0416">
<ele>619.156</ele>
<time>2022-05-25T14:01:29Z</time>
</trkpt>
<trkpt lat="48.105885" lon="11.041678">
<ele>618.925</ele>
<time>2022-05-25T14:01:30Z</time>
</trkpt>
<trkpt lat="48.105873" lon="11.041757">
<ele>618.759</ele>
<time>2022-05-25T14:01:31Z</time>
</trkpt>
<trkpt lat="48.105865" lon="11.041828">
<ele>618.639</ele>
<time>2022-05-25T14:01:32Z</time>
</trkpt>
<trkpt lat="48.105854" lon="11.041897">
<ele>618.563</ele>
<time>2022-05-25T14:01:33Z</time>
</trkpt>
<trkpt lat="48.10585" lon="11.041968">
<ele>618.516</ele>
<time>2022-05-25T14:01:34Z</time>
</trkpt>
<trkpt lat="48.105846" lon="11.042035">
<ele>618.255</ele>
<time>2022-05-25T14:01:35Z</time>
</trkpt>
<trkpt lat="48.105839" lon="11.042107">
<ele>618.069</ele>
<time>2022-05-25T14:01:36Z</time>
</trkpt>
<trkpt lat="48.105831" lon="11.042185">
<ele>617.938</ele>
<time>2022-05-25T14:01:37Z</time>
</trkpt>
<trkpt lat="48.105824" lon="11.042264">
<ele>617.795</ele>
<time>2022-05-25T14:01:38Z</time>
</trkpt>
<trkpt lat="48.105816" lon="11.042348">
<ele>617.682</ele>
<time>2022-05-25T14:01:39Z</time>
</trkpt>
<trkpt lat="48.105801" lon="11.042435">
<ele>617.599</ele>
<time>2022-05-25T14:01:40Z</time>
</trkpt>
<trkpt lat="48.105789" lon="11.042526">
<ele>617.549</ele>
<time>2022-05-25T14:01:41Z</time>
</trkpt>
<trkpt lat="48.105774" lon="11.042617">
<ele>617.526</ele>
<time>2022-05-25T14:01:42Z</time>
</trkpt>
<trkpt lat="48.105762" lon="11.042706">
<ele>617.526</ele>
<time>2022-05-25T14:01:43Z</time>
</trkpt>
<trkpt lat="48.105755" lon="11.042796">
<ele>617.526</ele>
<time>2022-05-25T14:01:44Z</time>
</trkpt>
<trkpt lat="48.105755" lon="11.042887">
<ele>617.526</ele>
<time>2022-05-25T14:01:45Z</time>
</trkpt>
<trkpt lat="48.105747" lon="11.042972">
<ele>617.526</ele>
<time>2022-05-25T14:01:46Z</time>
</trkpt>
<trkpt lat="48.105747" lon="11.043062">
<ele>617.526</ele>
<time>2022-05-25T14:01:47Z</time>
</trkpt>
<trkpt lat="48.105747" lon="11.043153">
<ele>617.292</ele>
<time>2022-05-25T14:01:48Z</time>
</trkpt>
<trkpt lat="48.105747" lon="11.043253">
<ele>617.096</ele>
<time>2022-05-25T14:01:49Z</time>
</trkpt>
<trkpt lat="48.105747" lon="11.043348">
<ele>616.931</ele>
<time>2022-05-25T14:01:50Z</time>
</trkpt>
<trkpt lat="48.105747" lon="11.043447">
<ele>616.8</ele>
<time>2022-05-25T14:01:51Z</time>
</trkpt>
<trkpt lat="48.105743" lon="11.043547">
<ele>616.699</ele>
<time>2022-05-25T14:01:52Z</time>
</trkpt>
<trkpt lat="48.10574" lon="11.043645">
<ele>616.627</ele>
<time>2022-05-25T14:01:53Z</time>
</trkpt>
<trkpt lat="48.105736" lon="11.043745">
<ele>616.581</ele>
<time>2022-05-25T14:01:54Z</time>
</trkpt>
<trkpt lat="48.105736" lon="11.043845">
<ele>616.561</ele>
<time>2022-05-25T14:01:55Z</time>
</trkpt>
<trkpt lat="48.105732" lon="11.043943">
<ele>616.324</ele>
<time>2022-05-25T14:01:56Z</time>
</trkpt>
<trkpt lat="48.105728" lon="11.044041">
<ele>616.158</ele>
<time>2022-05-25T14:01:57Z</time>
</trkpt>
<trkpt lat="48.105724" lon="11.044135">
<ele>615.986</ele>
<time>2022-05-25T14:01:58Z</time>
</trkpt>
<trkpt lat="48.105724" lon="11.044228">
<ele>615.851</ele>
<time>2022-05-25T14:01:59Z</time>
</trkpt>
<trkpt lat="48.105724" lon="11.044322">
<ele>615.758</ele>
<time>2022-05-25T14:02:00Z</time>
</trkpt>
<trkpt lat="48.105721" lon="11.044414">
<ele>615.444</ele>
<time>2022-05-25T14:02:01Z</time>
</trkpt>
<trkpt lat="48.105717" lon="11.0445">
<ele>615.198</ele>
<time>2022-05-25T14:02:02Z</time>
</trkpt>
<trkpt lat="48.105701" lon="11.044581">
<ele>615.011</ele>
<time>2022-05-25T14:02:03Z</time>
</trkpt>
<trkpt lat="48.105686" lon="11.044657">
<ele>614.866</ele>
<time>2022-05-25T14:02:04Z</time>
</trkpt>
<trkpt lat="48.105656" lon="11.04472">
<ele>614.542</ele>
<time>2022-05-25T14:02:05Z</time>
</trkpt>
<trkpt lat="48.105618" lon="11.044772">
<ele>614.294</ele>
<time>2022-05-25T14:02:06Z</time>
</trkpt>
<trkpt lat="48.105568" lon="11.044806">
<ele>614.11</ele>
<time>2022-05-25T14:02:07Z</time>
</trkpt>
<trkpt lat="48.105526" lon="11.044822">
<ele>613.947</ele>
<time>2022-05-25T14:02:08Z</time>
</trkpt>
<trkpt lat="48.105484" lon="11.044825">
<ele>613.613</ele>
<time>2022-05-25T14:02:09Z</time>
</trkpt>
<trkpt lat="48.10545" lon="11.044822">
<ele>613.364</ele>
<time>2022-05-25T14:02:10Z</time>
</trkpt>
<trkpt lat="48.105412" lon="11.044818">
<ele>612.924</ele>
<time>2022-05-25T14:02:11Z</time>
</trkpt>
<trkpt lat="48.105373" lon="11.044846">
<ele>612.569</ele>
<time>2022-05-25T14:02:12Z</time>
</trkpt>
<trkpt lat="48.105347" lon="11.044895">
<ele>612.172</ele>
<time>2022-05-25T14:02:13Z</time>
</trkpt>
<trkpt lat="48.105324" lon="11.044935">
<ele>611.991</ele>
<time>2022-05-25T14:02:14Z</time>
</trkpt>
<trkpt lat="48.105309" lon="11.044984">
<ele>611.872</ele>
<time>2022-05-25T14:02:15Z</time>
</trkpt>
<trkpt lat="48.105301" lon="11.045027">
<ele>611.814</ele>
<time>2022-05-25T14:02:16Z</time>
</trkpt>
<trkpt lat="48.105293" lon="11.045057">
<ele>611.765</ele>
<time>2022-05-25T14:02:17Z</time>
</trkpt>
<trkpt lat="48.105278" lon="11.045094">
<ele>611.738</ele>
<time>2022-05-25T14:02:18Z</time>
</trkpt>
<trkpt lat="48.10527" lon="11.045136">
<ele>611.738</ele>
<time>2022-05-25T14:02:19Z</time>
</trkpt>
<trkpt lat="48.105263" lon="11.045175">
<ele>611.738</ele>
<time>2022-05-25T14:02:20Z</time>
</trkpt>
<trkpt lat="48.105255" lon="11.045199">
<ele>611.738</ele>
<time>2022-05-25T14:02:21Z</time>
</trkpt>
<trkpt lat="48.105255" lon="11.045218">
<ele>611.738</ele>
<time>2022-05-25T14:02:22Z</time>
</trkpt>
<trkpt lat="48.105259" lon="11.045217">
<ele>611.738</ele>
<time>2022-05-25T14:02:23Z</time>
</trkpt>
<trkpt lat="48.105263" lon="11.045212">
<ele>611.738</ele>
<time>2022-05-25T14:02:24Z</time>
</trkpt>
<trkpt lat="48.105267" lon="11.045197">
<ele>611.738</ele>
<time>2022-05-25T14:02:25Z</time>
</trkpt>
<trkpt lat="48.105267" lon="11.04518">
<ele>611.738</ele>
<time>2022-05-25T14:02:26Z</time>
</trkpt>
<trkpt lat="48.105267" lon="11.045157">
<ele>611.738</ele>
<time>2022-05-25T14:02:27Z</time>
</trkpt>
<trkpt lat="48.105267" lon="11.045128">
<ele>611.738</ele>
<time>2022-05-25T14:02:28Z</time>
</trkpt>
<trkpt lat="48.10527" lon="11.045092">
<ele>611.738</ele>
<time>2022-05-25T14:02:29Z</time>
</trkpt>
<trkpt lat="48.105274" lon="11.045049">
<ele>611.738</ele>
<time>2022-05-25T14:02:30Z</time>
</trkpt>
<trkpt lat="48.105278" lon="11.044998">
<ele>611.738</ele>
<time>2022-05-25T14:02:31Z</time>
</trkpt>
<trkpt lat="48.105293" lon="11.044954">
<ele>611.738</ele>
<time>2022-05-25T14:02:32Z</time>
</trkpt>
<trkpt lat="48.105309" lon="11.044925">
<ele>611.738</ele>
<time>2022-05-25T14:02:33Z</time>
</trkpt>
<trkpt lat="48.105316" lon="11.044898">
<ele>611.738</ele>
<time>2022-05-25T14:02:34Z</time>
</trkpt>
<trkpt lat="48.105305" lon="11.044864">
<ele>611.738</ele>
<time>2022-05-25T14:02:35Z</time>
</trkpt>
<trkpt lat="48.105293" lon="11.044839">
<ele>611.738</ele>
<time>2022-05-25T14:02:36Z</time>
</trkpt>
<trkpt lat="48.105267" lon="11.044822">
<ele>611.738</ele>
<time>2022-05-25T14:02:37Z</time>
</trkpt>
<trkpt lat="48.105221" lon="11.044793">
<ele>611.738</ele>
<time>2022-05-25T14:02:38Z</time>
</trkpt>
<trkpt lat="48.105175" lon="11.044779">
<ele>611.738</ele>
<time>2022-05-25T14:02:39Z</time>
</trkpt>
<trkpt lat="48.105137" lon="11.044777">
<ele>611.737</ele>
<time>2022-05-25T14:02:40Z</time>
</trkpt>
<trkpt lat="48.105095" lon="11.044777">
<ele>611.738</ele>
<time>2022-05-25T14:02:41Z</time>
</trkpt>
<trkpt lat="48.105049" lon="11.044775">
<ele>611.738</ele>
<time>2022-05-25T14:02:42Z</time>
</trkpt>
<trkpt lat="48.105003" lon="11.044779">
<ele>611.738</ele>
<time>2022-05-25T14:02:43Z</time>
</trkpt>
<trkpt lat="48.104969" lon="11.044782">
<ele>611.478</ele>
<time>2022-05-25T14:02:44Z</time>
</trkpt>
<trkpt lat="48.104931" lon="11.04478">
<ele>611.297</ele>
<time>2022-05-25T14:02:45Z</time>
</trkpt>
<trkpt lat="48.104897" lon="11.044775">
<ele>611.16</ele>
<time>2022-05-25T14:02:46Z</time>
</trkpt>
<trkpt lat="48.104855" lon="11.044772">
<ele>611.048</ele>
<time>2022-05-25T14:02:47Z</time>
</trkpt>
<trkpt lat="48.10482" lon="11.044766">
<ele>610.933</ele>
<time>2022-05-25T14:02:48Z</time>
</trkpt>
<trkpt lat="48.104786" lon="11.044764">
<ele>610.855</ele>
<time>2022-05-25T14:02:49Z</time>
</trkpt>
<trkpt lat="48.104755" lon="11.044764">
<ele>610.801</ele>
<time>2022-05-25T14:02:50Z</time>
</trkpt>
<trkpt lat="48.104717" lon="11.044768">
<ele>610.773</ele>
<time>2022-05-25T14:02:51Z</time>
</trkpt>
<trkpt lat="48.104679" lon="11.04477">
<ele>610.773</ele>
<time>2022-05-25T14:02:52Z</time>
</trkpt>
<trkpt lat="48.10463" lon="11.044768">
<ele>610.773</ele>
<time>2022-05-25T14:02:53Z</time>
</trkpt>
<trkpt lat="48.10458" lon="11.044765">
<ele>610.773</ele>
<time>2022-05-25T14:02:54Z</time>
</trkpt>
<trkpt lat="48.104527" lon="11.04476">
<ele>610.773</ele>
<time>2022-05-25T14:02:55Z</time>
</trkpt>
<trkpt lat="48.104485" lon="11.044755">
<ele>610.773</ele>
<time>2022-05-25T14:02:56Z</time>
</trkpt>
<trkpt lat="48.104439" lon="11.044751">
<ele>610.773</ele>
<time>2022-05-25T14:02:57Z</time>
</trkpt>
<trkpt lat="48.104389" lon="11.044748">
<ele>610.773</ele>
<time>2022-05-25T14:02:58Z</time>
</trkpt>
<trkpt lat="48.104347" lon="11.044744">
<ele>610.773</ele>
<time>2022-05-25T14:02:59Z</time>
</trkpt>
<trkpt lat="48.104301" lon="11.044744">
<ele>610.773</ele>
<time>2022-05-25T14:03:00Z</time>
</trkpt>
<trkpt lat="48.104259" lon="11.044746">
<ele>610.773</ele>
<time>2022-05-25T14:03:01Z</time>
</trkpt>
<trkpt lat="48.104218" lon="11.044746">
<ele>610.518</ele>
<time>2022-05-25T14:03:02Z</time>
</trkpt>
<trkpt lat="48.104172" lon="11.044744">
<ele>610.318</ele>
<time>2022-05-25T14:03:03Z</time>
</trkpt>
<trkpt lat="48.104134" lon="11.044744">
<ele>610.156</ele>
<time>2022-05-25T14:03:04Z</time>
</trkpt>
<trkpt lat="48.104092" lon="11.044742">
<ele>610.043</ele>
<time>2022-05-25T14:03:05Z</time>
</trkpt>
<trkpt lat="48.10405" lon="11.044742">
<ele>609.958</ele>
<time>2022-05-25T14:03:06Z</time>
</trkpt>
<trkpt lat="48.103996" lon="11.044741">
<ele>609.893</ele>
<time>2022-05-25T14:03:07Z</time>
</trkpt>
<trkpt lat="48.103954" lon="11.044741">
<ele>609.835</ele>
<time>2022-05-25T14:03:08Z</time>
</trkpt>
<trkpt lat="48.103909" lon="11.044735">
<ele>609.809</ele>
<time>2022-05-25T14:03:09Z</time>
</trkpt>
<trkpt lat="48.10387" lon="11.044737">
<ele>609.809</ele>
<time>2022-05-25T14:03:10Z</time>
</trkpt>
<trkpt lat="48.103817" lon="11.044737">
<ele>609.809</ele>
<time>2022-05-25T14:03:11Z</time>
</trkpt>
<trkpt lat="48.103767" lon="11.044737">
<ele>609.809</ele>
<time>2022-05-25T14:03:12Z</time>
</trkpt>
<trkpt lat="48.103722" lon="11.044737">
<ele>609.809</ele>
<time>2022-05-25T14:03:13Z</time>
</trkpt>
<trkpt lat="48.103668" lon="11.044739">
<ele>609.809</ele>
<time>2022-05-25T14:03:14Z</time>
</trkpt>
<trkpt lat="48.103615" lon="11.044739">
<ele>609.809</ele>
<time>2022-05-25T14:03:15Z</time>
</trkpt>
<trkpt lat="48.103558" lon="11.044742">
<ele>609.809</ele>
<time>2022-05-25T14:03:16Z</time>
</trkpt>
<trkpt lat="48.103497" lon="11.044742">
<ele>609.809</ele>
<time>2022-05-25T14:03:17Z</time>
</trkpt>
<trkpt lat="48.103439" lon="11.044744">
<ele>609.809</ele>
<time>2022-05-25T14:03:18Z</time>
</trkpt>
<trkpt lat="48.103382" lon="11.044735">
<ele>609.809</ele>
<time>2022-05-25T14:03:19Z</time>
</trkpt>
<trkpt lat="48.103329" lon="11.044726">
<ele>609.809</ele>
<time>2022-05-25T14:03:20Z</time>
</trkpt>
<trkpt lat="48.103279" lon="11.044722">
<ele>609.809</ele>
<time>2022-05-25T14:03:21Z</time>
</trkpt>
<trkpt lat="48.10321" lon="11.044725">
<ele>609.809</ele>
<time>2022-05-25T14:03:22Z</time>
</trkpt>
<trkpt lat="48.103146" lon="11.044735">
<ele>609.574</ele>
<time>2022-05-25T14:03:23Z</time>
</trkpt>
<trkpt lat="48.103081" lon="11.044739">
<ele>609.389</ele>
<time>2022-05-25T14:03:24Z</time>
</trkpt>
<trkpt lat="48.103008" lon="11.044737">
<ele>609.248</ele>
<time>2022-05-25T14:03:25Z</time>
</trkpt>
<trkpt lat="48.102936" lon="11.044733">
<ele>609.138</ele>
<time>2022-05-25T14:03:26Z</time>
</trkpt>
<trkpt lat="48.102867" lon="11.044732">
<ele>609.066</ele>
<time>2022-05-25T14:03:27Z</time>
</trkpt>
<trkpt lat="48.102802" lon="11.044733">
<ele>609.02</ele>
<time>2022-05-25T14:03:28Z</time>
</trkpt>
<trkpt lat="48.102745" lon="11.044733">
<ele>609.226</ele>
<time>2022-05-25T14:03:29Z</time>
</trkpt>
<trkpt lat="48.102684" lon="11.044733">
<ele>609.398</ele>
<time>2022-05-25T14:03:30Z</time>
</trkpt>
<trkpt lat="48.102623" lon="11.044739">
<ele>609.544</ele>
<time>2022-05-25T14:03:31Z</time>
</trkpt>
<trkpt lat="48.102558" lon="11.044739">
<ele>609.653</ele>
<time>2022-05-25T14:03:32Z</time>
</trkpt>
<trkpt lat="48.102501" lon="11.044735">
<ele>609.73</ele>
<time>2022-05-25T14:03:33Z</time>
</trkpt>
<trkpt lat="48.102448" lon="11.044728">
<ele>609.782</ele>
<time>2022-05-25T14:03:34Z</time>
</trkpt>
<trkpt lat="48.102394" lon="11.04473">
<ele>609.806</ele>
<time>2022-05-25T14:03:35Z</time>
</trkpt>
<trkpt lat="48.102337" lon="11.044732">
<ele>609.809</ele>
<time>2022-05-25T14:03:36Z</time>
</trkpt>
<trkpt lat="48.10228" lon="11.044728">
<ele>609.809</ele>
<time>2022-05-25T14:03:37Z</time>
</trkpt>
<trkpt lat="48.102234" lon="11.044722">
<ele>609.809</ele>
<time>2022-05-25T14:03:38Z</time>
</trkpt>
<trkpt lat="48.102184" lon="11.044715">
<ele>609.809</ele>
<time>2022-05-25T14:03:39Z</time>
</trkpt>
<trkpt lat="48.102135" lon="11.044713">
<ele>609.809</ele>
<time>2022-05-25T14:03:40Z</time>
</trkpt>
<trkpt lat="48.102089" lon="11.044707">
<ele>609.809</ele>
<time>2022-05-25T14:03:41Z</time>
</trkpt>
<trkpt lat="48.102043" lon="11.044705">
<ele>609.809</ele>
<time>2022-05-25T14:03:42Z</time>
</trkpt>
<trkpt lat="48.102001" lon="11.044697">
<ele>609.809</ele>
<time>2022-05-25T14:03:43Z</time>
</trkpt>
<trkpt lat="48.101963" lon="11.04469">
<ele>609.809</ele>
<time>2022-05-25T14:03:44Z</time>
</trkpt>
<trkpt lat="48.101925" lon="11.044686">
<ele>609.809</ele>
<time>2022-05-25T14:03:45Z</time>
</trkpt>
<trkpt lat="48.101887" lon="11.044683">
<ele>609.809</ele>
<time>2022-05-25T14:03:46Z</time>
</trkpt>
<trkpt lat="48.101856" lon="11.044682">
<ele>609.809</ele>
<time>2022-05-25T14:03:47Z</time>
</trkpt>
<trkpt lat="48.101814" lon="11.044682">
<ele>609.809</ele>
<time>2022-05-25T14:03:48Z</time>
</trkpt>
<trkpt lat="48.101768" lon="11.044684">
<ele>609.809</ele>
<time>2022-05-25T14:03:49Z</time>
</trkpt>
<trkpt lat="48.101723" lon="11.044684">
<ele>609.809</ele>
<time>2022-05-25T14:03:50Z</time>
</trkpt>
<trkpt lat="48.101681" lon="11.044682">
<ele>609.809</ele>
<time>2022-05-25T14:03:51Z</time>
</trkpt>
<trkpt lat="48.101643" lon="11.044684">
<ele>610.153</ele>
<time>2022-05-25T14:03:52Z</time>
</trkpt>
<trkpt lat="48.101601" lon="11.044683">
<ele>610.417</ele>
<time>2022-05-25T14:03:53Z</time>
</trkpt>
<trkpt lat="48.101562" lon="11.044682">
<ele>610.611</ele>
<time>2022-05-25T14:03:54Z</time>
</trkpt>
<trkpt lat="48.101521" lon="11.044676">
<ele>610.759</ele>
<time>2022-05-25T14:03:55Z</time>
</trkpt>
<trkpt lat="48.101479" lon="11.044674">
<ele>610.851</ele>
<time>2022-05-25T14:03:56Z</time>
</trkpt>
<trkpt lat="48.101429" lon="11.044675">
<ele>610.924</ele>
<time>2022-05-25T14:03:57Z</time>
</trkpt>
<trkpt lat="48.101376" lon="11.04468">
<ele>611.001</ele>
<time>2022-05-25T14:03:58Z</time>
</trkpt>
<trkpt lat="48.10133" lon="11.04468">
<ele>611.036</ele>
<time>2022-05-25T14:03:59Z</time>
</trkpt>
<trkpt lat="48.101288" lon="11.044686">
<ele>611.328</ele>
<time>2022-05-25T14:04:00Z</time>
</trkpt>
<trkpt lat="48.101238" lon="11.044688">
<ele>611.55</ele>
<time>2022-05-25T14:04:01Z</time>
</trkpt>
<trkpt lat="48.101196" lon="11.044692">
<ele>611.705</ele>
<time>2022-05-25T14:04:02Z</time>
</trkpt>
<trkpt lat="48.101158" lon="11.044693">
<ele>611.692</ele>
<time>2022-05-25T14:04:03Z</time>
</trkpt>
<trkpt lat="48.101124" lon="11.044695">
<ele>611.788</ele>
<time>2022-05-25T14:04:04Z</time>
</trkpt>
<trkpt lat="48.101086" lon="11.044701">
<ele>612.026</ele>
<time>2022-05-25T14:04:05Z</time>
</trkpt>
<trkpt lat="48.101044" lon="11.044702">
<ele>612.321</ele>
<time>2022-05-25T14:04:06Z</time>
</trkpt>
<trkpt lat="48.101006" lon="11.044702">
<ele>612.513</ele>
<time>2022-05-25T14:04:07Z</time>
</trkpt>
<trkpt lat="48.100967" lon="11.044702">
<ele>612.467</ele>
<time>2022-05-25T14:04:08Z</time>
</trkpt>
<trkpt lat="48.100929" lon="11.044702">
<ele>612.692</ele>
<time>2022-05-25T14:04:09Z</time>
</trkpt>
<trkpt lat="48.100891" lon="11.044701">
<ele>612.951</ele>
<time>2022-05-25T14:04:10Z</time>
</trkpt>
<trkpt lat="48.100853" lon="11.044699">
<ele>613.14</ele>
<time>2022-05-25T14:04:11Z</time>
</trkpt>
<trkpt lat="48.100815" lon="11.044697">
<ele>613.239</ele>
<time>2022-05-25T14:04:12Z</time>
</trkpt>
<trkpt lat="48.100777" lon="11.044697">
<ele>613.474</ele>
<time>2022-05-25T14:04:13Z</time>
</trkpt>
<trkpt lat="48.100742" lon="11.044697">
<ele>613.505</ele>
<time>2022-05-25T14:04:14Z</time>
</trkpt>
<trkpt lat="48.100708" lon="11.044695">
<ele>613.518</ele>
<time>2022-05-25T14:04:15Z</time>
</trkpt>
<trkpt lat="48.100674" lon="11.044692">
<ele>613.512</ele>
<time>2022-05-25T14:04:16Z</time>
</trkpt>
<trkpt lat="48.100636" lon="11.044692">
<ele>613.505</ele>
<time>2022-05-25T14:04:17Z</time>
</trkpt>
<trkpt lat="48.100597" lon="11.044693">
<ele>613.889</ele>
<time>2022-05-25T14:04:18Z</time>
</trkpt>
<trkpt lat="48.100559" lon="11.044699">
<ele>613.955</ele>
<time>2022-05-25T14:04:19Z</time>
</trkpt>
<trkpt lat="48.100521" lon="11.044702">
<ele>614.002</ele>
<time>2022-05-25T14:04:20Z</time>
</trkpt>
<trkpt lat="48.100483" lon="11.044705">
<ele>614.034</ele>
<time>2022-05-25T14:04:21Z</time>
</trkpt>
<trkpt lat="48.100441" lon="11.044702">
<ele>613.934</ele>
<time>2022-05-25T14:04:22Z</time>
</trkpt>
<trkpt lat="48.100403" lon="11.044699">
<ele>613.979</ele>
<time>2022-05-25T14:04:23Z</time>
</trkpt>
<trkpt lat="48.100365" lon="11.044701">
<ele>614.005</ele>
<time>2022-05-25T14:04:24Z</time>
</trkpt>
<trkpt lat="48.100327" lon="11.044699">
<ele>614.017</ele>
<time>2022-05-25T14:04:25Z</time>
</trkpt>
<trkpt lat="48.100285" lon="11.044697">
<ele>614.215</ele>
<time>2022-05-25T14:04:26Z</time>
</trkpt>
<trkpt lat="48.100246" lon="11.044693">
<ele>614.239</ele>
<time>2022-05-25T14:04:28Z</time>
</trkpt>
<trkpt lat="48.10017" lon="11.04469">
<ele>614.6</ele>
<time>2022-05-25T14:04:29Z</time>
</trkpt>
<trkpt lat="48.100124" lon="11.044692">
<ele>614.733</ele>
<time>2022-05-25T14:04:30Z</time>
</trkpt>
<trkpt lat="48.100086" lon="11.044692">
<ele>614.836</ele>
<time>2022-05-25T14:04:31Z</time>
</trkpt>
<trkpt lat="48.100048" lon="11.044693">
<ele>614.911</ele>
<time>2022-05-25T14:04:32Z</time>
</trkpt>
<trkpt lat="48.100014" lon="11.044693">
<ele>614.956</ele>
<time>2022-05-25T14:04:33Z</time>
</trkpt>
<trkpt lat="48.099976" lon="11.044693">
<ele>615.215</ele>
<time>2022-05-25T14:04:34Z</time>
</trkpt>
<trkpt lat="48.099937" lon="11.044697">
<ele>615.421</ele>
<time>2022-05-25T14:04:35Z</time>
</trkpt>
<trkpt lat="48.099899" lon="11.044702">
<ele>615.569</ele>
<time>2022-05-25T14:04:36Z</time>
</trkpt>
<trkpt lat="48.099861" lon="11.044709">
<ele>615.673</ele>
<time>2022-05-25T14:04:37Z</time>
</trkpt>
<trkpt lat="48.099823" lon="11.044711">
<ele>615.785</ele>
<time>2022-05-25T14:04:38Z</time>
</trkpt>
<trkpt lat="48.099789" lon="11.044713">
<ele>615.865</ele>
<time>2022-05-25T14:04:39Z</time>
</trkpt>
<trkpt lat="48.099751" lon="11.044713">
<ele>616.134</ele>
<time>2022-05-25T14:04:40Z</time>
</trkpt>
<trkpt lat="48.099709" lon="11.044713">
<ele>616.341</ele>
<time>2022-05-25T14:04:41Z</time>
</trkpt>
<trkpt lat="48.099667" lon="11.044715">
<ele>616.545</ele>
<time>2022-05-25T14:04:42Z</time>
</trkpt>
<trkpt lat="48.099632" lon="11.044715">
<ele>616.655</ele>
<time>2022-05-25T14:04:43Z</time>
</trkpt>
<trkpt lat="48.099594" lon="11.044711">
<ele>616.731</ele>
<time>2022-05-25T14:04:44Z</time>
</trkpt>
<trkpt lat="48.099556" lon="11.044707">
<ele>616.777</ele>
<time>2022-05-25T14:04:45Z</time>
</trkpt>
<trkpt lat="48.099514" lon="11.044702">
<ele>616.801</ele>
<time>2022-05-25T14:04:46Z</time>
</trkpt>
<trkpt lat="48.099476" lon="11.044701">
<ele>617.077</ele>
<time>2022-05-25T14:04:47Z</time>
</trkpt>
<trkpt lat="48.09943" lon="11.044697">
<ele>617.318</ele>
<time>2022-05-25T14:04:48Z</time>
</trkpt>
<trkpt lat="48.099396" lon="11.044693">
<ele>617.515</ele>
<time>2022-05-25T14:04:49Z</time>
</trkpt>
<trkpt lat="48.099358" lon="11.044688">
<ele>617.674</ele>
<time>2022-05-25T14:04:50Z</time>
</trkpt>
<trkpt lat="48.099323" lon="11.044688">
<ele>617.796</ele>
<time>2022-05-25T14:04:51Z</time>
</trkpt>
<trkpt lat="48.099293" lon="11.044686">
<ele>617.88</ele>
<time>2022-05-25T14:04:52Z</time>
</trkpt>
<trkpt lat="48.099262" lon="11.044684">
<ele>617.937</ele>
<time>2022-05-25T14:04:53Z</time>
</trkpt>
<trkpt lat="48.099224" lon="11.044688">
<ele>617.965</ele>
<time>2022-05-25T14:04:54Z</time>
</trkpt>
<trkpt lat="48.099186" lon="11.04469">
<ele>617.965</ele>
<time>2022-05-25T14:04:55Z</time>
</trkpt>
<trkpt lat="48.099152" lon="11.044693">
<ele>617.965</ele>
<time>2022-05-25T14:04:56Z</time>
</trkpt>
<trkpt lat="48.099117" lon="11.044693">
<ele>617.964</ele>
<time>2022-05-25T14:04:57Z</time>
</trkpt>
<trkpt lat="48.099075" lon="11.044697">
<ele>617.964</ele>
<time>2022-05-25T14:04:58Z</time>
</trkpt>
<trkpt lat="48.099041" lon="11.044699">
<ele>618.264</ele>
<time>2022-05-25T14:04:59Z</time>
</trkpt>
<trkpt lat="48.099007" lon="11.044699">
<ele>618.49</ele>
<time>2022-05-25T14:05:00Z</time>
</trkpt>
<trkpt lat="48.098969" lon="11.044699">
<ele>618.649</ele>
<time>2022-05-25T14:05:01Z</time>
</trkpt>
<trkpt lat="48.098934" lon="11.044697">
<ele>618.764</ele>
<time>2022-05-25T14:05:02Z</time>
</trkpt>
<trkpt lat="48.098896" lon="11.044693">
<ele>618.846</ele>
<time>2022-05-25T14:05:03Z</time>
</trkpt>
<trkpt lat="48.098862" lon="11.04469">
<ele>618.906</ele>
<time>2022-05-25T14:05:04Z</time>
</trkpt>
<trkpt lat="48.098824" lon="11.044688">
<ele>618.924</ele>
<time>2022-05-25T14:05:05Z</time>
</trkpt>
<trkpt lat="48.098789" lon="11.044688">
<ele>618.929</ele>
<time>2022-05-25T14:05:06Z</time>
</trkpt>
<trkpt lat="48.098751" lon="11.044693">
<ele>618.929</ele>
<time>2022-05-25T14:05:07Z</time>
</trkpt>
<trkpt lat="48.098713" lon="11.044699">
<ele>618.93</ele>
<time>2022-05-25T14:05:08Z</time>
</trkpt>
<trkpt lat="48.098675" lon="11.044701">
<ele>618.929</ele>
<time>2022-05-25T14:05:09Z</time>
</trkpt>
<trkpt lat="48.09864" lon="11.044702">
<ele>618.929</ele>
<time>2022-05-25T14:05:10Z</time>
</trkpt>
<trkpt lat="48.098598" lon="11.044703">
<ele>618.929</ele>
<time>2022-05-25T14:05:11Z</time>
</trkpt>
<trkpt lat="48.098564" lon="11.044702">
<ele>618.929</ele>
<time>2022-05-25T14:05:12Z</time>
</trkpt>
<trkpt lat="48.098526" lon="11.044702">
<ele>618.929</ele>
<time>2022-05-25T14:05:13Z</time>
</trkpt>
<trkpt lat="48.098492" lon="11.044699">
<ele>618.929</ele>
<time>2022-05-25T14:05:14Z</time>
</trkpt>
<trkpt lat="48.098454" lon="11.044697">
<ele>618.929</ele>
<time>2022-05-25T14:05:15Z</time>
</trkpt>
<trkpt lat="48.098419" lon="11.044697">
<ele>618.929</ele>
<time>2022-05-25T14:05:16Z</time>
</trkpt>
<trkpt lat="48.098377" lon="11.044692">
<ele>618.929</ele>
<time>2022-05-25T14:05:17Z</time>
</trkpt>
<trkpt lat="48.098331" lon="11.044686">
<ele>618.929</ele>
<time>2022-05-25T14:05:18Z</time>
</trkpt>
<trkpt lat="48.098289" lon="11.044684">
<ele>618.929</ele>
<time>2022-05-25T14:05:19Z</time>
</trkpt>
<trkpt lat="48.098244" lon="11.044682">
<ele>618.929</ele>
<time>2022-05-25T14:05:20Z</time>
</trkpt>
<trkpt lat="48.098202" lon="11.044676">
<ele>618.929</ele>
<time>2022-05-25T14:05:21Z</time>
</trkpt>
<trkpt lat="48.09816" lon="11.04467">
<ele>618.929</ele>
<time>2022-05-25T14:05:22Z</time>
</trkpt>
<trkpt lat="48.098118" lon="11.044668">
<ele>618.669</ele>
<time>2022-05-25T14:05:23Z</time>
</trkpt>
<trkpt lat="48.098072" lon="11.044668">
<ele>618.472</ele>
<time>2022-05-25T14:05:24Z</time>
</trkpt>
<trkpt lat="48.09803" lon="11.044668">
<ele>618.325</ele>
<time>2022-05-25T14:05:25Z</time>
</trkpt>
<trkpt lat="48.097996" lon="11.044668">
<ele>618.209</ele>
<time>2022-05-25T14:05:26Z</time>
</trkpt>
<trkpt lat="48.097961" lon="11.044668">
<ele>618.128</ele>
<time>2022-05-25T14:05:27Z</time>
</trkpt>
<trkpt lat="48.097923" lon="11.044665">
<ele>618.044</ele>
<time>2022-05-25T14:05:28Z</time>
</trkpt>
<trkpt lat="48.097881" lon="11.044663">
<ele>617.99</ele>
<time>2022-05-25T14:05:29Z</time>
</trkpt>
<trkpt lat="48.097839" lon="11.044659">
<ele>617.965</ele>
<time>2022-05-25T14:05:30Z</time>
</trkpt>
<trkpt lat="48.097801" lon="11.044653">
<ele>617.722</ele>
<time>2022-05-25T14:05:31Z</time>
</trkpt>
<trkpt lat="48.097763" lon="11.04465">
<ele>617.531</ele>
<time>2022-05-25T14:05:32Z</time>
</trkpt>
<trkpt lat="48.097725" lon="11.044644">
<ele>617.382</ele>
<time>2022-05-25T14:05:33Z</time>
</trkpt>
<trkpt lat="48.097683" lon="11.044639">
<ele>617.27</ele>
<time>2022-05-25T14:05:34Z</time>
</trkpt>
<trkpt lat="48.097641" lon="11.044636">
<ele>617.196</ele>
<time>2022-05-25T14:05:35Z</time>
</trkpt>
<trkpt lat="48.097603" lon="11.044628">
<ele>617.147</ele>
<time>2022-05-25T14:05:36Z</time>
</trkpt>
<trkpt lat="48.097565" lon="11.044627">
<ele>617.111</ele>
<time>2022-05-25T14:05:37Z</time>
</trkpt>
<trkpt lat="48.09753" lon="11.044625">
<ele>617.087</ele>
<time>2022-05-25T14:05:38Z</time>
</trkpt>
<trkpt lat="48.097492" lon="11.044625">
<ele>617.087</ele>
<time>2022-05-25T14:05:39Z</time>
</trkpt>
<trkpt lat="48.097454" lon="11.044628">
<ele>617.087</ele>
<time>2022-05-25T14:05:40Z</time>
</trkpt>
<trkpt lat="48.09742" lon="11.044625">
<ele>617.087</ele>
<time>2022-05-25T14:05:41Z</time>
</trkpt>
<trkpt lat="48.097389" lon="11.04462">
<ele>617.087</ele>
<time>2022-05-25T14:05:42Z</time>
</trkpt>
<trkpt lat="48.097359" lon="11.044611">
<ele>617.087</ele>
<time>2022-05-25T14:05:43Z</time>
</trkpt>
<trkpt lat="48.097332" lon="11.044606">
<ele>617.087</ele>
<time>2022-05-25T14:05:44Z</time>
</trkpt>
<trkpt lat="48.097301" lon="11.044605">
<ele>617.087</ele>
<time>2022-05-25T14:05:45Z</time>
</trkpt>
<trkpt lat="48.097267" lon="11.0446">
<ele>617.087</ele>
<time>2022-05-25T14:05:46Z</time>
</trkpt>
<trkpt lat="48.09724" lon="11.044599">
<ele>617.087</ele>
<time>2022-05-25T14:05:47Z</time>
</trkpt>
<trkpt lat="48.097214" lon="11.044602">
<ele>617.087</ele>
<time>2022-05-25T14:05:48Z</time>
</trkpt>
<trkpt lat="48.097187" lon="11.044605">
<ele>617.087</ele>
<time>2022-05-25T14:05:49Z</time>
</trkpt>
<trkpt lat="48.097157" lon="11.044606">
<ele>617.087</ele>
<time>2022-05-25T14:05:50Z</time>
</trkpt>
<trkpt lat="48.09713" lon="11.044608">
<ele>617.087</ele>
<time>2022-05-25T14:05:51Z</time>
</trkpt>
<trkpt lat="48.097099" lon="11.044603">
<ele>617.087</ele>
<time>2022-05-25T14:05:52Z</time>
</trkpt>
<trkpt lat="48.097065" lon="11.044603">
<ele>617.087</ele>
<time>2022-05-25T14:05:53Z</time>
</trkpt>
<trkpt lat="48.097023" lon="11.0446">
<ele>617.087</ele>
<time>2022-05-25T14:05:54Z</time>
</trkpt>
<trkpt lat="48.096981" lon="11.044594">
<ele>616.799</ele>
<time>2022-05-25T14:05:55Z</time>
</trkpt>
<trkpt lat="48.096935" lon="11.044585">
<ele>616.572</ele>
<time>2022-05-25T14:05:56Z</time>
</trkpt>
<trkpt lat="48.096893" lon="11.044585">
<ele>616.438</ele>
<time>2022-05-25T14:05:57Z</time>
</trkpt>
<trkpt lat="48.096855" lon="11.044581">
<ele>616.284</ele>
<time>2022-05-25T14:05:58Z</time>
</trkpt>
<trkpt lat="48.096817" lon="11.04458">
<ele>616.172</ele>
<time>2022-05-25T14:05:59Z</time>
</trkpt>
<trkpt lat="48.096779" lon="11.044577">
<ele>616.1</ele>
<time>2022-05-25T14:06:00Z</time>
</trkpt>
<trkpt lat="48.096745" lon="11.044573">
<ele>616.06</ele>
<time>2022-05-25T14:06:01Z</time>
</trkpt>
<trkpt lat="48.096714" lon="11.044569">
<ele>615.813</ele>
<time>2022-05-25T14:06:02Z</time>
</trkpt>
<trkpt lat="48.096687" lon="11.04457">
<ele>615.592</ele>
<time>2022-05-25T14:06:03Z</time>
</trkpt>
<trkpt lat="48.096653" lon="11.044562">
<ele>615.434</ele>
<time>2022-05-25T14:06:04Z</time>
</trkpt>
<trkpt lat="48.096619" lon="11.044557">
<ele>615.318</ele>
<time>2022-05-25T14:06:05Z</time>
</trkpt>
<trkpt lat="48.096581" lon="11.044555">
<ele>615.226</ele>
<time>2022-05-25T14:06:06Z</time>
</trkpt>
<trkpt lat="48.096542" lon="11.044557">
<ele>615.159</ele>
<time>2022-05-25T14:06:07Z</time>
</trkpt>
<trkpt lat="48.096504" lon="11.04456">
<ele>615.099</ele>
<time>2022-05-25T14:06:08Z</time>
</trkpt>
<trkpt lat="48.096474" lon="11.04456">
<ele>615.07</ele>
<time>2022-05-25T14:06:09Z</time>
</trkpt>
<trkpt lat="48.096447" lon="11.044555">
<ele>615.07</ele>
<time>2022-05-25T14:06:10Z</time>
</trkpt>
<trkpt lat="48.096428" lon="11.044541">
<ele>615.07</ele>
<time>2022-05-25T14:06:11Z</time>
</trkpt>
<trkpt lat="48.096413" lon="11.044525">
<ele>615.07</ele>
<time>2022-05-25T14:06:12Z</time>
</trkpt>
<trkpt lat="48.096397" lon="11.044503">
<ele>615.07</ele>
<time>2022-05-25T14:06:13Z</time>
</trkpt>
<trkpt lat="48.096394" lon="11.044468">
<ele>615.07</ele>
<time>2022-05-25T14:06:14Z</time>
</trkpt>
<trkpt lat="48.096386" lon="11.044436">
<ele>615.07</ele>
<time>2022-05-25T14:06:15Z</time>
</trkpt>
<trkpt lat="48.096378" lon="11.044403">
<ele>615.07</ele>
<time>2022-05-25T14:06:16Z</time>
</trkpt>
<trkpt lat="48.096367" lon="11.044365">
<ele>615.07</ele>
<time>2022-05-25T14:06:17Z</time>
</trkpt>
<trkpt lat="48.096352" lon="11.044326">
<ele>615.07</ele>
<time>2022-05-25T14:06:18Z</time>
</trkpt>
<trkpt lat="48.096336" lon="11.044282">
<ele>615.07</ele>
<time>2022-05-25T14:06:19Z</time>
</trkpt>
<trkpt lat="48.096333" lon="11.044238">
<ele>615.07</ele>
<time>2022-05-25T14:06:20Z</time>
</trkpt>
<trkpt lat="48.096329" lon="11.044191">
<ele>615.07</ele>
<time>2022-05-25T14:06:21Z</time>
</trkpt>
<trkpt lat="48.096329" lon="11.044144">
<ele>615.07</ele>
<time>2022-05-25T14:06:22Z</time>
</trkpt>
<trkpt lat="48.096325" lon="11.0441">
<ele>615.07</ele>
<time>2022-05-25T14:06:23Z</time>
</trkpt>
<trkpt lat="48.096321" lon="11.044057">
<ele>615.07</ele>
<time>2022-05-25T14:06:24Z</time>
</trkpt>
<trkpt lat="48.096317" lon="11.044013">
<ele>615.07</ele>
<time>2022-05-25T14:06:25Z</time>
</trkpt>
<trkpt lat="48.096317" lon="11.04397">
<ele>615.07</ele>
<time>2022-05-25T14:06:26Z</time>
</trkpt>
<trkpt lat="48.096313" lon="11.043926">
<ele>615.281</ele>
<time>2022-05-25T14:06:27Z</time>
</trkpt>
<trkpt lat="48.09631" lon="11.043883">
<ele>615.482</ele>
<time>2022-05-25T14:06:28Z</time>
</trkpt>
<trkpt lat="48.096302" lon="11.043839">
<ele>615.647</ele>
<time>2022-05-25T14:06:29Z</time>
</trkpt>
<trkpt lat="48.096302" lon="11.043797">
<ele>615.782</ele>
<time>2022-05-25T14:06:30Z</time>
</trkpt>
<trkpt lat="48.096298" lon="11.043748">
<ele>615.891</ele>
<time>2022-05-25T14:06:31Z</time>
</trkpt>
<trkpt lat="48.096294" lon="11.043701">
<ele>615.964</ele>
<time>2022-05-25T14:06:32Z</time>
</trkpt>
<trkpt lat="48.096291" lon="11.043647">
<ele>616.012</ele>
<time>2022-05-25T14:06:33Z</time>
</trkpt>
<trkpt lat="48.096283" lon="11.043598">
<ele>616.034</ele>
<time>2022-05-25T14:06:34Z</time>
</trkpt>
<trkpt lat="48.096279" lon="11.043559">
<ele>616.034</ele>
<time>2022-05-25T14:06:35Z</time>
</trkpt>
<trkpt lat="48.096275" lon="11.043526">
<ele>616.034</ele>
<time>2022-05-25T14:06:36Z</time>
</trkpt>
<trkpt lat="48.096268" lon="11.043491">
<ele>616.034</ele>
<time>2022-05-25T14:06:37Z</time>
</trkpt>
<trkpt lat="48.096256" lon="11.043453">
<ele>616.034</ele>
<time>2022-05-25T14:06:38Z</time>
</trkpt>
<trkpt lat="48.096241" lon="11.043423">
<ele>616.035</ele>
<time>2022-05-25T14:06:39Z</time>
</trkpt>
<trkpt lat="48.096233" lon="11.043397">
<ele>616.034</ele>
<time>2022-05-25T14:06:40Z</time>
</trkpt>
<trkpt lat="48.096222" lon="11.043377">
<ele>616.034</ele>
<time>2022-05-25T14:06:41Z</time>
</trkpt>
<trkpt lat="48.09623" lon="11.043355">
<ele>616.034</ele>
<time>2022-05-25T14:06:42Z</time>
</trkpt>
<trkpt lat="48.09621" lon="11.043339">
<ele>616.034</ele>
<time>2022-05-25T14:06:43Z</time>
</trkpt>
<trkpt lat="48.096191" lon="11.043333">
<ele>616.034</ele>
<time>2022-05-25T14:06:44Z</time>
</trkpt>
<trkpt lat="48.096165" lon="11.043331">
<ele>616.034</ele>
<time>2022-05-25T14:06:45Z</time>
</trkpt>
<trkpt lat="48.096138" lon="11.043339">
<ele>616.034</ele>
<time>2022-05-25T14:06:46Z</time>
</trkpt>
<trkpt lat="48.096119" lon="11.043344">
<ele>616.034</ele>
<time>2022-05-25T14:06:47Z</time>
</trkpt>
<trkpt lat="48.096092" lon="11.043347">
<ele>616.034</ele>
<time>2022-05-25T14:06:48Z</time>
</trkpt>
<trkpt lat="48.096069" lon="11.04335">
<ele>616.035</ele>
<time>2022-05-25T14:06:49Z</time>
</trkpt>
<trkpt lat="48.096046" lon="11.043355">
<ele>616.034</ele>
<time>2022-05-25T14:06:50Z</time>
</trkpt>
<trkpt lat="48.096027" lon="11.043362">
<ele>616.034</ele>
<time>2022-05-25T14:06:51Z</time>
</trkpt>
<trkpt lat="48.096008" lon="11.043366">
<ele>616.034</ele>
<time>2022-05-25T14:06:52Z</time>
</trkpt>
<trkpt lat="48.095993" lon="11.043368">
<ele>616.035</ele>
<time>2022-05-25T14:06:53Z</time>
</trkpt>
<trkpt lat="48.095974" lon="11.04336">
<ele>616.034</ele>
<time>2022-05-25T14:06:54Z</time>
</trkpt>
<trkpt lat="48.095959" lon="11.043352">
<ele>616.034</ele>
<time>2022-05-25T14:06:55Z</time>
</trkpt>
<trkpt lat="48.09594" lon="11.043333">
<ele>616.034</ele>
<time>2022-05-25T14:06:56Z</time>
</trkpt>
<trkpt lat="48.095917" lon="11.043314">
<ele>616.034</ele>
<time>2022-05-25T14:06:57Z</time>
</trkpt>
<trkpt lat="48.095886" lon="11.043286">
<ele>615.78</ele>
<time>2022-05-25T14:06:58Z</time>
</trkpt>
<trkpt lat="48.095863" lon="11.043277">
<ele>615.563</ele>
<time>2022-05-25T14:06:59Z</time>
</trkpt>
<trkpt lat="48.095837" lon="11.043272">
<ele>615.39</ele>
<time>2022-05-25T14:07:00Z</time>
</trkpt>
<trkpt lat="48.095818" lon="11.043262">
<ele>615.265</ele>
<time>2022-05-25T14:07:01Z</time>
</trkpt>
<trkpt lat="48.095806" lon="11.04326">
<ele>615.186</ele>
<time>2022-05-25T14:07:02Z</time>
</trkpt>
<trkpt lat="48.095795" lon="11.043257">
<ele>615.125</ele>
<time>2022-05-25T14:07:03Z</time>
</trkpt>
<trkpt lat="48.095783" lon="11.043253">
<ele>615.093</ele>
<time>2022-05-25T14:07:04Z</time>
</trkpt>
<trkpt lat="48.095776" lon="11.043241">
<ele>615.07</ele>
<time>2022-05-25T14:07:05Z</time>
</trkpt>
<trkpt lat="48.095764" lon="11.043223">
<ele>615.07</ele>
<time>2022-05-25T14:07:06Z</time>
</trkpt>
<trkpt lat="48.095745" lon="11.043195">
<ele>615.07</ele>
<time>2022-05-25T14:07:07Z</time>
</trkpt>
<trkpt lat="48.095718" lon="11.043165">
<ele>615.07</ele>
<time>2022-05-25T14:07:08Z</time>
</trkpt>
<trkpt lat="48.095684" lon="11.043134">
<ele>615.07</ele>
<time>2022-05-25T14:07:09Z</time>
</trkpt>
<trkpt lat="48.095654" lon="11.043118">
<ele>615.07</ele>
<time>2022-05-25T14:07:10Z</time>
</trkpt>
<trkpt lat="48.095631" lon="11.043115">
<ele>615.07</ele>
<time>2022-05-25T14:07:11Z</time>
</trkpt>
<trkpt lat="48.095604" lon="11.043113">
<ele>615.07</ele>
<time>2022-05-25T14:07:12Z</time>
</trkpt>
<trkpt lat="48.095577" lon="11.043111">
<ele>615.07</ele>
<time>2022-05-25T14:07:13Z</time>
</trkpt>
<trkpt lat="48.095551" lon="11.04311">
<ele>615.07</ele>
<time>2022-05-25T14:07:14Z</time>
</trkpt>
<trkpt lat="48.095528" lon="11.043115">
<ele>615.07</ele>
<time>2022-05-25T14:07:15Z</time>
</trkpt>
<trkpt lat="48.095505" lon="11.043117">
<ele>615.07</ele>
<time>2022-05-25T14:07:16Z</time>
</trkpt>
<trkpt lat="48.095474" lon="11.043118">
<ele>615.07</ele>
<time>2022-05-25T14:07:17Z</time>
</trkpt>
<trkpt lat="48.095444" lon="11.043121">
<ele>615.07</ele>
<time>2022-05-25T14:07:18Z</time>
</trkpt>
<trkpt lat="48.095421" lon="11.043127">
<ele>615.07</ele>
<time>2022-05-25T14:07:19Z</time>
</trkpt>
<trkpt lat="48.095387" lon="11.043136">
<ele>615.07</ele>
<time>2022-05-25T14:07:20Z</time>
</trkpt>
<trkpt lat="48.095367" lon="11.043146">
<ele>615.07</ele>
<time>2022-05-25T14:07:21Z</time>
</trkpt>
<trkpt lat="48.095341" lon="11.043148">
<ele>614.805</ele>
<time>2022-05-25T14:07:22Z</time>
</trkpt>
<trkpt lat="48.095322" lon="11.043153">
<ele>614.607</ele>
<time>2022-05-25T14:07:23Z</time>
</trkpt>
<trkpt lat="48.095295" lon="11.043163">
<ele>614.459</ele>
<time>2022-05-25T14:07:24Z</time>
</trkpt>
<trkpt lat="48.095276" lon="11.043172">
<ele>614.349</ele>
<time>2022-05-25T14:07:25Z</time>
</trkpt>
<trkpt lat="48.095257" lon="11.043174">
<ele>614.259</ele>
<time>2022-05-25T14:07:26Z</time>
</trkpt>
<trkpt lat="48.095238" lon="11.043176">
<ele>614.19</ele>
<time>2022-05-25T14:07:27Z</time>
</trkpt>
<trkpt lat="48.095222" lon="11.043177">
<ele>614.136</ele>
<time>2022-05-25T14:07:28Z</time>
</trkpt>
<trkpt lat="48.095203" lon="11.043177">
<ele>614.105</ele>
<time>2022-05-25T14:07:29Z</time>
</trkpt>
<trkpt lat="48.095188" lon="11.04318">
<ele>614.105</ele>
<time>2022-05-25T14:07:30Z</time>
</trkpt>
<trkpt lat="48.095173" lon="11.043184">
<ele>614.105</ele>
<time>2022-05-25T14:07:31Z</time>
</trkpt>
<trkpt lat="48.095158" lon="11.043181">
<ele>614.105</ele>
<time>2022-05-25T14:07:32Z</time>
</trkpt>
<trkpt lat="48.095135" lon="11.043183">
<ele>614.105</ele>
<time>2022-05-25T14:07:33Z</time>
</trkpt>
<trkpt lat="48.095119" lon="11.043183">
<ele>614.105</ele>
<time>2022-05-25T14:07:34Z</time>
</trkpt>
<trkpt lat="48.095108" lon="11.043188">
<ele>614.105</ele>
<time>2022-05-25T14:07:35Z</time>
</trkpt>
<trkpt lat="48.0951" lon="11.043195">
<ele>614.105</ele>
<time>2022-05-25T14:07:36Z</time>
</trkpt>
<trkpt lat="48.095093" lon="11.043199">
<ele>614.105</ele>
<time>2022-05-25T14:07:37Z</time>
</trkpt>
<trkpt lat="48.095062" lon="11.04319">
<ele>614.105</ele>
<time>2022-05-25T14:18:06Z</time>
</trkpt>
<trkpt lat="48.095062" lon="11.043186">
<ele>614.105</ele>
<time>2022-05-25T14:18:07Z</time>
</trkpt>
<trkpt lat="48.095062" lon="11.043183">
<ele>614.105</ele>
<time>2022-05-25T14:18:09Z</time>
</trkpt>
<trkpt lat="48.095085" lon="11.043209">
<ele>614.105</ele>
<time>2022-05-25T14:19:14Z</time>
</trkpt>
<trkpt lat="48.095089" lon="11.043215">
<ele>614.105</ele>
<time>2022-05-25T14:19:15Z</time>
</trkpt>
<trkpt lat="48.095093" lon="11.043215">
<ele>614.105</ele>
<time>2022-05-25T14:19:16Z</time>
</trkpt>
<trkpt lat="48.095097" lon="11.043215">
<ele>614.105</ele>
<time>2022-05-25T14:19:17Z</time>
</trkpt>
<trkpt lat="48.095108" lon="11.043212">
<ele>614.105</ele>
<time>2022-05-25T14:19:18Z</time>
</trkpt>
<trkpt lat="48.095123" lon="11.043207">
<ele>614.105</ele>
<time>2022-05-25T14:19:19Z</time>
</trkpt>
<trkpt lat="48.095139" lon="11.0432">
<ele>614.105</ele>
<time>2022-05-25T14:19:20Z</time>
</trkpt>
<trkpt lat="48.095154" lon="11.043193">
<ele>614.105</ele>
<time>2022-05-25T14:19:21Z</time>
</trkpt>
<trkpt lat="48.095161" lon="11.043183">
<ele>614.105</ele>
<time>2022-05-25T14:19:22Z</time>
</trkpt>
<trkpt lat="48.095173" lon="11.043174">
<ele>614.105</ele>
<time>2022-05-25T14:19:23Z</time>
</trkpt>
<trkpt lat="48.095184" lon="11.043161">
<ele>614.105</ele>
<time>2022-05-25T14:19:24Z</time>
</trkpt>
<trkpt lat="48.095192" lon="11.043152">
<ele>614.105</ele>
<time>2022-05-25T14:19:25Z</time>
</trkpt>
<trkpt lat="48.095211" lon="11.043144">
<ele>614.105</ele>
<time>2022-05-25T14:19:26Z</time>
</trkpt>
<trkpt lat="48.095226" lon="11.043139">
<ele>614.105</ele>
<time>2022-05-25T14:19:27Z</time>
</trkpt>
<trkpt lat="48.095245" lon="11.043132">
<ele>614.105</ele>
<time>2022-05-25T14:19:28Z</time>
</trkpt>
<trkpt lat="48.095261" lon="11.043123">
<ele>614.105</ele>
<time>2022-05-25T14:19:29Z</time>
</trkpt>
<trkpt lat="48.095276" lon="11.043119">
<ele>614.105</ele>
<time>2022-05-25T14:19:30Z</time>
</trkpt>
<trkpt lat="48.095291" lon="11.043117">
<ele>614.105</ele>
<time>2022-05-25T14:19:31Z</time>
</trkpt>
<trkpt lat="48.095322" lon="11.04311">
<ele>614.105</ele>
<time>2022-05-25T14:19:32Z</time>
</trkpt>
<trkpt lat="48.095341" lon="11.043103">
<ele>614.105</ele>
<time>2022-05-25T14:19:33Z</time>
</trkpt>
<trkpt lat="48.095364" lon="11.043095">
<ele>614.105</ele>
<time>2022-05-25T14:19:34Z</time>
</trkpt>
<trkpt lat="48.095387" lon="11.043092">
<ele>614.105</ele>
<time>2022-05-25T14:19:35Z</time>
</trkpt>
<trkpt lat="48.095417" lon="11.043083">
<ele>614.105</ele>
<time>2022-05-25T14:19:36Z</time>
</trkpt>
<trkpt lat="48.095432" lon="11.043071">
<ele>614.105</ele>
<time>2022-05-25T14:19:37Z</time>
</trkpt>
<trkpt lat="48.095455" lon="11.043054">
<ele>614.105</ele>
<time>2022-05-25T14:19:38Z</time>
</trkpt>
<trkpt lat="48.095467" lon="11.043034">
<ele>614.105</ele>
<time>2022-05-25T14:19:39Z</time>
</trkpt>
<trkpt lat="48.095482" lon="11.043008">
<ele>614.105</ele>
<time>2022-05-25T14:19:40Z</time>
</trkpt>
<trkpt lat="48.095486" lon="11.042981">
<ele>614.105</ele>
<time>2022-05-25T14:19:41Z</time>
</trkpt>
<trkpt lat="48.095486" lon="11.042953">
<ele>614.105</ele>
<time>2022-05-25T14:19:42Z</time>
</trkpt>
<trkpt lat="48.095486" lon="11.042925">
<ele>614.105</ele>
<time>2022-05-25T14:19:43Z</time>
</trkpt>
<trkpt lat="48.09549" lon="11.042893">
<ele>614.105</ele>
<time>2022-05-25T14:19:44Z</time>
</trkpt>
<trkpt lat="48.095493" lon="11.042859">
<ele>614.105</ele>
<time>2022-05-25T14:19:45Z</time>
</trkpt>
<trkpt lat="48.095505" lon="11.04282">
<ele>614.105</ele>
<time>2022-05-25T14:19:46Z</time>
</trkpt>
<trkpt lat="48.09552" lon="11.042786">
<ele>614.105</ele>
<time>2022-05-25T14:19:47Z</time>
</trkpt>
<trkpt lat="48.095543" lon="11.042759">
<ele>614.105</ele>
<time>2022-05-25T14:19:48Z</time>
</trkpt>
<trkpt lat="48.095573" lon="11.042745">
<ele>614.105</ele>
<time>2022-05-25T14:19:49Z</time>
</trkpt>
<trkpt lat="48.095596" lon="11.042736">
<ele>614.105</ele>
<time>2022-05-25T14:19:50Z</time>
</trkpt>
<trkpt lat="48.095623" lon="11.042729">
<ele>614.105</ele>
<time>2022-05-25T14:19:51Z</time>
</trkpt>
<trkpt lat="48.09565" lon="11.042722">
<ele>614.105</ele>
<time>2022-05-25T14:19:52Z</time>
</trkpt>
<trkpt lat="48.095684" lon="11.042713">
<ele>614.105</ele>
<time>2022-05-25T14:19:53Z</time>
</trkpt>
<trkpt lat="48.095715" lon="11.042702">
<ele>614.105</ele>
<time>2022-05-25T14:19:54Z</time>
</trkpt>
<trkpt lat="48.095737" lon="11.04269">
<ele>614.105</ele>
<time>2022-05-25T14:19:55Z</time>
</trkpt>
<trkpt lat="48.095772" lon="11.042679">
<ele>614.105</ele>
<time>2022-05-25T14:19:56Z</time>
</trkpt>
<trkpt lat="48.095802" lon="11.04267">
<ele>614.105</ele>
<time>2022-05-25T14:19:57Z</time>
</trkpt>
<trkpt lat="48.095833" lon="11.042663">
<ele>614.105</ele>
<time>2022-05-25T14:19:58Z</time>
</trkpt>
<trkpt lat="48.09586" lon="11.042654">
<ele>614.105</ele>
<time>2022-05-25T14:19:59Z</time>
</trkpt>
<trkpt lat="48.095886" lon="11.042645">
<ele>614.105</ele>
<time>2022-05-25T14:20:00Z</time>
</trkpt>
<trkpt lat="48.095928" lon="11.042626">
<ele>614.105</ele>
<time>2022-05-25T14:20:01Z</time>
</trkpt>
<trkpt lat="48.095959" lon="11.042621">
<ele>614.105</ele>
<time>2022-05-25T14:20:02Z</time>
</trkpt>
<trkpt lat="48.095993" lon="11.042612">
<ele>614.105</ele>
<time>2022-05-25T14:20:03Z</time>
</trkpt>
<trkpt lat="48.09602" lon="11.042603">
<ele>614.105</ele>
<time>2022-05-25T14:20:04Z</time>
</trkpt>
<trkpt lat="48.09605" lon="11.042595">
<ele>614.105</ele>
<time>2022-05-25T14:20:05Z</time>
</trkpt>
<trkpt lat="48.096085" lon="11.042583">
<ele>614.105</ele>
<time>2022-05-25T14:20:06Z</time>
</trkpt>
<trkpt lat="48.096111" lon="11.042573">
<ele>614.105</ele>
<time>2022-05-25T14:20:07Z</time>
</trkpt>
<trkpt lat="48.096142" lon="11.04256">
<ele>614.105</ele>
<time>2022-05-25T14:20:08Z</time>
</trkpt>
<trkpt lat="48.096169" lon="11.042557">
<ele>614.105</ele>
<time>2022-05-25T14:20:09Z</time>
</trkpt>
<trkpt lat="48.096203" lon="11.042553">
<ele>614.105</ele>
<time>2022-05-25T14:20:10Z</time>
</trkpt>
<trkpt lat="48.096233" lon="11.042547">
<ele>614.105</ele>
<time>2022-05-25T14:20:11Z</time>
</trkpt>
<trkpt lat="48.096264" lon="11.042539">
<ele>614.105</ele>
<time>2022-05-25T14:20:12Z</time>
</trkpt>
<trkpt lat="48.096298" lon="11.04253">
<ele>614.105</ele>
<time>2022-05-25T14:20:13Z</time>
</trkpt>
<trkpt lat="48.096325" lon="11.042523">
<ele>614.105</ele>
<time>2022-05-25T14:20:14Z</time>
</trkpt>
<trkpt lat="48.096348" lon="11.04252">
<ele>614.105</ele>
<time>2022-05-25T14:20:15Z</time>
</trkpt>
<trkpt lat="48.096371" lon="11.042516">
<ele>614.105</ele>
<time>2022-05-25T14:20:16Z</time>
</trkpt>
<trkpt lat="48.096397" lon="11.042514">
<ele>614.105</ele>
<time>2022-05-25T14:20:17Z</time>
</trkpt>
<trkpt lat="48.096428" lon="11.042507">
<ele>614.105</ele>
<time>2022-05-25T14:20:18Z</time>
</trkpt>
<trkpt lat="48.096455" lon="11.042492">
<ele>614.105</ele>
<time>2022-05-25T14:20:19Z</time>
</trkpt>
<trkpt lat="48.096481" lon="11.04247">
<ele>614.105</ele>
<time>2022-05-25T14:20:20Z</time>
</trkpt>
<trkpt lat="48.096508" lon="11.042459">
<ele>614.105</ele>
<time>2022-05-25T14:20:21Z</time>
</trkpt>
<trkpt lat="48.096531" lon="11.042453">
<ele>614.105</ele>
<time>2022-05-25T14:20:22Z</time>
</trkpt>
<trkpt lat="48.096561" lon="11.042448">
<ele>614.105</ele>
<time>2022-05-25T14:20:23Z</time>
</trkpt>
<trkpt lat="48.096588" lon="11.042445">
<ele>614.105</ele>
<time>2022-05-25T14:20:24Z</time>
</trkpt>
<trkpt lat="48.096615" lon="11.042437">
<ele>614.105</ele>
<time>2022-05-25T14:20:25Z</time>
</trkpt>
<trkpt lat="48.096645" lon="11.042428">
<ele>614.105</ele>
<time>2022-05-25T14:20:26Z</time>
</trkpt>
<trkpt lat="48.09668" lon="11.042419">
<ele>614.105</ele>
<time>2022-05-25T14:20:27Z</time>
</trkpt>
<trkpt lat="48.09671" lon="11.042417">
<ele>614.105</ele>
<time>2022-05-25T14:20:28Z</time>
</trkpt>
<trkpt lat="48.096737" lon="11.042413">
<ele>614.105</ele>
<time>2022-05-25T14:20:29Z</time>
</trkpt>
<trkpt lat="48.09676" lon="11.042403">
<ele>614.105</ele>
<time>2022-05-25T14:20:30Z</time>
</trkpt>
<trkpt lat="48.09679" lon="11.042394">
<ele>614.105</ele>
<time>2022-05-25T14:20:31Z</time>
</trkpt>
<trkpt lat="48.096806" lon="11.042377">
<ele>614.105</ele>
<time>2022-05-25T14:20:32Z</time>
</trkpt>
<trkpt lat="48.096817" lon="11.042365">
<ele>614.105</ele>
<time>2022-05-25T14:20:33Z</time>
</trkpt>
<trkpt lat="48.096821" lon="11.042346">
<ele>614.105</ele>
<time>2022-05-25T14:20:34Z</time>
</trkpt>
<trkpt lat="48.096821" lon="11.042325">
<ele>614.105</ele>
<time>2022-05-25T14:20:35Z</time>
</trkpt>
<trkpt lat="48.096821" lon="11.042305">
<ele>614.105</ele>
<time>2022-05-25T14:20:36Z</time>
</trkpt>
<trkpt lat="48.096821" lon="11.042281">
<ele>614.105</ele>
<time>2022-05-25T14:20:37Z</time>
</trkpt>
<trkpt lat="48.096809" lon="11.042252">
<ele>614.105</ele>
<time>2022-05-25T14:20:38Z</time>
</trkpt>
<trkpt lat="48.096802" lon="11.042222">
<ele>614.105</ele>
<time>2022-05-25T14:20:39Z</time>
</trkpt>
<trkpt lat="48.096798" lon="11.0422">
<ele>614.105</ele>
<time>2022-05-25T14:20:40Z</time>
</trkpt>
<trkpt lat="48.096798" lon="11.042176">
<ele>614.105</ele>
<time>2022-05-25T14:20:41Z</time>
</trkpt>
<trkpt lat="48.096798" lon="11.04216">
<ele>614.105</ele>
<time>2022-05-25T14:20:42Z</time>
</trkpt>
<trkpt lat="48.096798" lon="11.042143">
<ele>614.105</ele>
<time>2022-05-25T14:20:43Z</time>
</trkpt>
<trkpt lat="48.096798" lon="11.042133">
<ele>614.105</ele>
<time>2022-05-25T14:20:44Z</time>
</trkpt>
<trkpt lat="48.096794" lon="11.042129">
<ele>614.105</ele>
<time>2022-05-25T14:20:45Z</time>
</trkpt>
<trkpt lat="48.09679" lon="11.042127">
<ele>614.105</ele>
<time>2022-05-25T14:20:46Z</time>
</trkpt>
<trkpt lat="48.096786" lon="11.04208">
<ele>614.105</ele>
<time>2022-05-25T14:23:14Z</time>
</trkpt>
<trkpt lat="48.09679" lon="11.042085">
<ele>614.085</ele>
<time>2022-05-25T14:23:15Z</time>
</trkpt>
<trkpt lat="48.096783" lon="11.042084">
<ele>614.082</ele>
<time>2022-05-25T14:23:16Z</time>
</trkpt>
<trkpt lat="48.096783" lon="11.042089">
<ele>614.134</ele>
<time>2022-05-25T14:23:17Z</time>
</trkpt>
<trkpt lat="48.096779" lon="11.042095">
<ele>614.177</ele>
<time>2022-05-25T14:23:18Z</time>
</trkpt>
<trkpt lat="48.096775" lon="11.042099">
<ele>614.216</ele>
<time>2022-05-25T14:23:19Z</time>
</trkpt>
<trkpt lat="48.096775" lon="11.042115">
<ele>614.251</ele>
<time>2022-05-25T14:23:20Z</time>
</trkpt>
<trkpt lat="48.096771" lon="11.042129">
<ele>613.987</ele>
<time>2022-05-25T14:23:21Z</time>
</trkpt>
<trkpt lat="48.096767" lon="11.042141">
<ele>614.332</ele>
<time>2022-05-25T14:23:22Z</time>
</trkpt>
<trkpt lat="48.096764" lon="11.042132">
<ele>614.879</ele>
<time>2022-05-25T14:23:23Z</time>
</trkpt>
<trkpt lat="48.096764" lon="11.04212">
<ele>614.261</ele>
<time>2022-05-25T14:23:24Z</time>
</trkpt>
<trkpt lat="48.096756" lon="11.042127">
<ele>614.689</ele>
<time>2022-05-25T14:23:25Z</time>
</trkpt>
<trkpt lat="48.096756" lon="11.04212">
<ele>614.509</ele>
<time>2022-05-25T14:23:26Z</time>
</trkpt>
<trkpt lat="48.096752" lon="11.042107">
<ele>614.37</ele>
<time>2022-05-25T14:23:27Z</time>
</trkpt>
<trkpt lat="48.096752" lon="11.042105">
<ele>614.491</ele>
<time>2022-05-25T14:23:28Z</time>
</trkpt>
<trkpt lat="48.096748" lon="11.042111">
<ele>614.346</ele>
<time>2022-05-25T14:23:29Z</time>
</trkpt>
<trkpt lat="48.096745" lon="11.042109">
<ele>614.013</ele>
<time>2022-05-25T14:23:30Z</time>
</trkpt>
<trkpt lat="48.096775" lon="11.042176">
<ele>614.204</ele>
<time>2022-05-25T14:23:51Z</time>
</trkpt>
<trkpt lat="48.096775" lon="11.042187">
<ele>614.306</ele>
<time>2022-05-25T14:23:52Z</time>
</trkpt>
<trkpt lat="48.096775" lon="11.042197">
<ele>614.375</ele>
<time>2022-05-25T14:23:53Z</time>
</trkpt>
<trkpt lat="48.096771" lon="11.042208">
<ele>614.294</ele>
<time>2022-05-25T14:23:54Z</time>
</trkpt>
<trkpt lat="48.096771" lon="11.04221">
<ele>614.33</ele>
<time>2022-05-25T14:23:55Z</time>
</trkpt>
<trkpt lat="48.096752" lon="11.042183">
<ele>614.085</ele>
<time>2022-05-25T14:24:17Z</time>
</trkpt>
<trkpt lat="48.096752" lon="11.042195">
<ele>614.128</ele>
<time>2022-05-25T14:24:18Z</time>
</trkpt>
<trkpt lat="48.096756" lon="11.042185">
<ele>614.262</ele>
<time>2022-05-25T14:24:19Z</time>
</trkpt>
<trkpt lat="48.096752" lon="11.042191">
<ele>614.365</ele>
<time>2022-05-25T14:24:20Z</time>
</trkpt>
<trkpt lat="48.096748" lon="11.042193">
<ele>614.312</ele>
<time>2022-05-25T14:24:21Z</time>
</trkpt>
<trkpt lat="48.096748" lon="11.042191">
<ele>614.093</ele>
<time>2022-05-25T14:24:22Z</time>
</trkpt>
<trkpt lat="48.096752" lon="11.042185">
<ele>614.303</ele>
<time>2022-05-25T14:24:23Z</time>
</trkpt>
<trkpt lat="48.096748" lon="11.042191">
<ele>614.248</ele>
<time>2022-05-25T14:24:24Z</time>
</trkpt>
<trkpt lat="48.096745" lon="11.042183">
<ele>614.069</ele>
<time>2022-05-25T14:24:25Z</time>
</trkpt>
<trkpt lat="48.096748" lon="11.042176">
<ele>614.258</ele>
<time>2022-05-25T14:24:26Z</time>
</trkpt>
<trkpt lat="48.096748" lon="11.042167">
<ele>614.013</ele>
<time>2022-05-25T14:24:27Z</time>
</trkpt>
<trkpt lat="48.096752" lon="11.04216">
<ele>613.889</ele>
<time>2022-05-25T14:24:28Z</time>
</trkpt>
<trkpt lat="48.096748" lon="11.04215">
<ele>614.194</ele>
<time>2022-05-25T14:24:29Z</time>
</trkpt>
<trkpt lat="48.096745" lon="11.042141">
<ele>614.445</ele>
<time>2022-05-25T14:24:30Z</time>
</trkpt>
<trkpt lat="48.096741" lon="11.042138">
<ele>614.369</ele>
<time>2022-05-25T14:24:31Z</time>
</trkpt>
<trkpt lat="48.096714" lon="11.042117">
<ele>614.44</ele>
<time>2022-05-25T14:24:36Z</time>
</trkpt>
<trkpt lat="48.096714" lon="11.042115">
<ele>614.424</ele>
<time>2022-05-25T14:24:37Z</time>
</trkpt>
<trkpt lat="48.09671" lon="11.042117">
<ele>614.504</ele>
<time>2022-05-25T14:24:39Z</time>
</trkpt>
<trkpt lat="48.096684" lon="11.04204">
<ele>614.534</ele>
<time>2022-05-25T14:25:15Z</time>
</trkpt>
<trkpt lat="48.096684" lon="11.042042">
<ele>614.549</ele>
<time>2022-05-25T14:25:17Z</time>
</trkpt>
<trkpt lat="48.096684" lon="11.042038">
<ele>614.544</ele>
<time>2022-05-25T14:25:18Z</time>
</trkpt>
<trkpt lat="48.096722" lon="11.042129">
<ele>614.544</ele>
<time>2022-05-25T14:25:35Z</time>
</trkpt>
<trkpt lat="48.096718" lon="11.04212">
<ele>614.544</ele>
<time>2022-05-25T14:25:36Z</time>
</trkpt>
<trkpt lat="48.096706" lon="11.042118">
<ele>614.544</ele>
<time>2022-05-25T14:25:37Z</time>
</trkpt>
<trkpt lat="48.096691" lon="11.042122">
<ele>614.544</ele>
<time>2022-05-25T14:25:38Z</time>
</trkpt>
<trkpt lat="48.096691" lon="11.042132">
<ele>614.544</ele>
<time>2022-05-25T14:25:40Z</time>
</trkpt>
<trkpt lat="48.096691" lon="11.042133">
<ele>614.544</ele>
<time>2022-05-25T14:25:44Z</time>
</trkpt>
<trkpt lat="48.096691" lon="11.042127">
<ele>614.544</ele>
<time>2022-05-25T14:25:45Z</time>
</trkpt>
<trkpt lat="48.096687" lon="11.042124">
<ele>614.544</ele>
<time>2022-05-25T14:25:46Z</time>
</trkpt>
<trkpt lat="48.096691" lon="11.04212">
<ele>614.544</ele>
<time>2022-05-25T14:25:47Z</time>
</trkpt>
<trkpt lat="48.096691" lon="11.042118">
<ele>614.544</ele>
<time>2022-05-25T14:25:48Z</time>
</trkpt>
<trkpt lat="48.096691" lon="11.042122">
<ele>614.544</ele>
<time>2022-05-25T14:25:50Z</time>
</trkpt>
<trkpt lat="48.096657" lon="11.042097">
<ele>614.544</ele>
<time>2022-05-25T14:26:04Z</time>
</trkpt>
<trkpt lat="48.096653" lon="11.042103">
<ele>614.544</ele>
<time>2022-05-25T14:26:05Z</time>
</trkpt>
<trkpt lat="48.096645" lon="11.042105">
<ele>614.544</ele>
<time>2022-05-25T14:26:06Z</time>
</trkpt>
<trkpt lat="48.096649" lon="11.042109">
<ele>614.544</ele>
<time>2022-05-25T14:26:07Z</time>
</trkpt>
<trkpt lat="48.096649" lon="11.042117">
<ele>614.544</ele>
<time>2022-05-25T14:26:08Z</time>
</trkpt>
<trkpt lat="48.096642" lon="11.042118">
<ele>614.544</ele>
<time>2022-05-25T14:26:09Z</time>
</trkpt>
<trkpt lat="48.096642" lon="11.042127">
<ele>614.544</ele>
<time>2022-05-25T14:26:10Z</time>
</trkpt>
<trkpt lat="48.096634" lon="11.04213">
<ele>614.544</ele>
<time>2022-05-25T14:26:11Z</time>
</trkpt>
<trkpt lat="48.09663" lon="11.042134">
<ele>614.544</ele>
<time>2022-05-25T14:26:12Z</time>
</trkpt>
<trkpt lat="48.096626" lon="11.042132">
<ele>614.544</ele>
<time>2022-05-25T14:26:13Z</time>
</trkpt>
<trkpt lat="48.096626" lon="11.042129">
<ele>614.544</ele>
<time>2022-05-25T14:26:14Z</time>
</trkpt>
<trkpt lat="48.096622" lon="11.042118">
<ele>614.544</ele>
<time>2022-05-25T14:26:15Z</time>
</trkpt>
<trkpt lat="48.096622" lon="11.042115">
<ele>614.544</ele>
<time>2022-05-25T14:26:16Z</time>
</trkpt>
<trkpt lat="48.096622" lon="11.042113">
<ele>614.544</ele>
<time>2022-05-25T14:26:17Z</time>
</trkpt>
<trkpt lat="48.096626" lon="11.042115">
<ele>614.544</ele>
<time>2022-05-25T14:26:18Z</time>
</trkpt>
<trkpt lat="48.096626" lon="11.042118">
<ele>614.544</ele>
<time>2022-05-25T14:26:19Z</time>
</trkpt>
<trkpt lat="48.09663" lon="11.042118">
<ele>614.544</ele>
<time>2022-05-25T14:26:20Z</time>
</trkpt>
<trkpt lat="48.096649" lon="11.042085">
<ele>614.544</ele>
<time>2022-05-25T14:26:34Z</time>
</trkpt>
<trkpt lat="48.096642" lon="11.042092">
<ele>614.544</ele>
<time>2022-05-25T14:26:35Z</time>
</trkpt>
<trkpt lat="48.096638" lon="11.042095">
<ele>614.544</ele>
<time>2022-05-25T14:26:36Z</time>
</trkpt>
<trkpt lat="48.09663" lon="11.042099">
<ele>614.544</ele>
<time>2022-05-25T14:26:37Z</time>
</trkpt>
<trkpt lat="48.09663" lon="11.0421">
<ele>614.544</ele>
<time>2022-05-25T14:26:38Z</time>
</trkpt>
<trkpt lat="48.096649" lon="11.042125">
<ele>614.544</ele>
<time>2022-05-25T14:26:47Z</time>
</trkpt>
<trkpt lat="48.096653" lon="11.042133">
<ele>614.544</ele>
<time>2022-05-25T14:26:48Z</time>
</trkpt>
<trkpt lat="48.096653" lon="11.042141">
<ele>614.544</ele>
<time>2022-05-25T14:26:49Z</time>
</trkpt>
<trkpt lat="48.096657" lon="11.042149">
<ele>614.544</ele>
<time>2022-05-25T14:26:50Z</time>
</trkpt>
<trkpt lat="48.096657" lon="11.042155">
<ele>614.544</ele>
<time>2022-05-25T14:26:51Z</time>
</trkpt>
<trkpt lat="48.096649" lon="11.042162">
<ele>614.544</ele>
<time>2022-05-25T14:26:52Z</time>
</trkpt>
<trkpt lat="48.096645" lon="11.042171">
<ele>614.544</ele>
<time>2022-05-25T14:26:53Z</time>
</trkpt>
<trkpt lat="48.096649" lon="11.042176">
<ele>614.544</ele>
<time>2022-05-25T14:26:54Z</time>
</trkpt>
<trkpt lat="48.096649" lon="11.042193">
<ele>614.544</ele>
<time>2022-05-25T14:26:55Z</time>
</trkpt>
<trkpt lat="48.096661" lon="11.042214">
<ele>614.544</ele>
<time>2022-05-25T14:26:56Z</time>
</trkpt>
<trkpt lat="48.096664" lon="11.042225">
<ele>614.544</ele>
<time>2022-05-25T14:26:57Z</time>
</trkpt>
<trkpt lat="48.096668" lon="11.042233">
<ele>614.544</ele>
<time>2022-05-25T14:26:58Z</time>
</trkpt>
<trkpt lat="48.096664" lon="11.042238">
<ele>614.544</ele>
<time>2022-05-25T14:26:59Z</time>
</trkpt>
<trkpt lat="48.096661" lon="11.042235">
<ele>614.544</ele>
<time>2022-05-25T14:27:00Z</time>
</trkpt>
<trkpt lat="48.096661" lon="11.042232">
<ele>614.544</ele>
<time>2022-05-25T14:27:01Z</time>
</trkpt>
<trkpt lat="48.096657" lon="11.042235">
<ele>614.544</ele>
<time>2022-05-25T14:27:02Z</time>
</trkpt>
<trkpt lat="48.096653" lon="11.042245">
<ele>614.544</ele>
<time>2022-05-25T14:27:03Z</time>
</trkpt>
<trkpt lat="48.096664" lon="11.042253">
<ele>614.544</ele>
<time>2022-05-25T14:27:04Z</time>
</trkpt>
<trkpt lat="48.096664" lon="11.042245">
<ele>614.544</ele>
<time>2022-05-25T14:27:05Z</time>
</trkpt>
<trkpt lat="48.096684" lon="11.042253">
<ele>614.544</ele>
<time>2022-05-25T14:27:08Z</time>
</trkpt>
<trkpt lat="48.09668" lon="11.04225">
<ele>614.544</ele>
<time>2022-05-25T14:27:09Z</time>
</trkpt>
<trkpt lat="48.096676" lon="11.04225">
<ele>614.544</ele>
<time>2022-05-25T14:27:10Z</time>
</trkpt>
<trkpt lat="48.096668" lon="11.042252">
<ele>614.544</ele>
<time>2022-05-25T14:27:11Z</time>
</trkpt>
<trkpt lat="48.096725" lon="11.04235">
<ele>614.544</ele>
<time>2022-05-25T14:27:27Z</time>
</trkpt>
<trkpt lat="48.096718" lon="11.042346">
<ele>614.544</ele>
<time>2022-05-25T14:27:28Z</time>
</trkpt>
<trkpt lat="48.096718" lon="11.042345">
<ele>614.544</ele>
<time>2022-05-25T14:27:29Z</time>
</trkpt>
<trkpt lat="48.096714" lon="11.042342">
<ele>614.544</ele>
<time>2022-05-25T14:27:30Z</time>
</trkpt>
<trkpt lat="48.096645" lon="11.04225">
<ele>614.544</ele>
<time>2022-05-25T14:27:46Z</time>
</trkpt>
<trkpt lat="48.096642" lon="11.04225">
<ele>614.544</ele>
<time>2022-05-25T14:27:47Z</time>
</trkpt>
<trkpt lat="48.096638" lon="11.042248">
<ele>614.544</ele>
<time>2022-05-25T14:27:48Z</time>
</trkpt>
<trkpt lat="48.096634" lon="11.042247">
<ele>614.544</ele>
<time>2022-05-25T14:27:49Z</time>
</trkpt>
<trkpt lat="48.096611" lon="11.042253">
<ele>614.544</ele>
<time>2022-05-25T14:28:01Z</time>
</trkpt>
<trkpt lat="48.096607" lon="11.042252">
<ele>614.544</ele>
<time>2022-05-25T14:28:02Z</time>
</trkpt>
<trkpt lat="48.096611" lon="11.042252">
<ele>614.544</ele>
<time>2022-05-25T14:28:03Z</time>
</trkpt>
<trkpt lat="48.096611" lon="11.042247">
<ele>614.544</ele>
<time>2022-05-25T14:28:04Z</time>
</trkpt>
<trkpt lat="48.096569" lon="11.04228">
<ele>614.544</ele>
<time>2022-05-25T14:28:16Z</time>
</trkpt>
<trkpt lat="48.096561" lon="11.042278">
<ele>614.544</ele>
<time>2022-05-25T14:28:17Z</time>
</trkpt>
<trkpt lat="48.096561" lon="11.042283">
<ele>614.544</ele>
<time>2022-05-25T14:28:18Z</time>
</trkpt>
<trkpt lat="48.096561" lon="11.042287">
<ele>614.544</ele>
<time>2022-05-25T14:28:19Z</time>
</trkpt>
<trkpt lat="48.096561" lon="11.042292">
<ele>614.544</ele>
<time>2022-05-25T14:28:20Z</time>
</trkpt>
<trkpt lat="48.096569" lon="11.042292">
<ele>614.544</ele>
<time>2022-05-25T14:28:21Z</time>
</trkpt>
<trkpt lat="48.096573" lon="11.042288">
<ele>614.544</ele>
<time>2022-05-25T14:28:22Z</time>
</trkpt>
<trkpt lat="48.096569" lon="11.042332">
<ele>614.544</ele>
<time>2022-05-25T14:28:32Z</time>
</trkpt>
<trkpt lat="48.096569" lon="11.042336">
<ele>614.544</ele>
<time>2022-05-25T14:28:33Z</time>
</trkpt>
<trkpt lat="48.096577" lon="11.04235">
<ele>614.544</ele>
<time>2022-05-25T14:28:34Z</time>
</trkpt>
<trkpt lat="48.096577" lon="11.04236">
<ele>614.544</ele>
<time>2022-05-25T14:28:35Z</time>
</trkpt>
<trkpt lat="48.096577" lon="11.042367">
<ele>614.544</ele>
<time>2022-05-25T14:28:36Z</time>
</trkpt>
<trkpt lat="48.096664" lon="11.04232">
<ele>614.544</ele>
<time>2022-05-25T14:29:44Z</time>
</trkpt>
<trkpt lat="48.096668" lon="11.042312">
<ele>614.544</ele>
<time>2022-05-25T14:29:45Z</time>
</trkpt>
<trkpt lat="48.096672" lon="11.042305">
<ele>614.544</ele>
<time>2022-05-25T14:29:46Z</time>
</trkpt>
<trkpt lat="48.096703" lon="11.042323">
<ele>614.544</ele>
<time>2022-05-25T14:30:09Z</time>
</trkpt>
<trkpt lat="48.096699" lon="11.042329">
<ele>614.544</ele>
<time>2022-05-25T14:30:10Z</time>
</trkpt>
<trkpt lat="48.096699" lon="11.04233">
<ele>614.544</ele>
<time>2022-05-25T14:30:11Z</time>
</trkpt>
<trkpt lat="48.096699" lon="11.042337">
<ele>614.544</ele>
<time>2022-05-25T14:30:12Z</time>
</trkpt>
<trkpt lat="48.096657" lon="11.042327">
<ele>614.544</ele>
<time>2022-05-25T14:30:49Z</time>
</trkpt>
<trkpt lat="48.096649" lon="11.04233">
<ele>614.544</ele>
<time>2022-05-25T14:30:50Z</time>
</trkpt>
<trkpt lat="48.096645" lon="11.042327">
<ele>614.544</ele>
<time>2022-05-25T14:30:51Z</time>
</trkpt>
<trkpt lat="48.096642" lon="11.042325">
<ele>614.544</ele>
<time>2022-05-25T14:30:52Z</time>
</trkpt>
<trkpt lat="48.096645" lon="11.04232">
<ele>614.544</ele>
<time>2022-05-25T14:30:53Z</time>
</trkpt>
<trkpt lat="48.096649" lon="11.042315">
<ele>614.544</ele>
<time>2022-05-25T14:30:54Z</time>
</trkpt>
<trkpt lat="48.096653" lon="11.042305">
<ele>614.544</ele>
<time>2022-05-25T14:30:55Z</time>
</trkpt>
<trkpt lat="48.096657" lon="11.042302">
<ele>614.544</ele>
<time>2022-05-25T14:30:56Z</time>
</trkpt>
<trkpt lat="48.096661" lon="11.042304">
<ele>614.544</ele>
<time>2022-05-25T14:30:57Z</time>
</trkpt>
<trkpt lat="48.096661" lon="11.042307">
<ele>614.544</ele>
<time>2022-05-25T14:30:58Z</time>
</trkpt>
<trkpt lat="48.096661" lon="11.042305">
<ele>614.544</ele>
<time>2022-05-25T14:30:59Z</time>
</trkpt>
<trkpt lat="48.096653" lon="11.04232">
<ele>614.544</ele>
<time>2022-05-25T14:31:05Z</time>
</trkpt>
<trkpt lat="48.096649" lon="11.042318">
<ele>614.544</ele>
<time>2022-05-25T14:31:06Z</time>
</trkpt>
<trkpt lat="48.096649" lon="11.042321">
<ele>614.544</ele>
<time>2022-05-25T14:31:07Z</time>
</trkpt>
<trkpt lat="48.096649" lon="11.04233">
<ele>614.544</ele>
<time>2022-05-25T14:31:09Z</time>
</trkpt>
<trkpt lat="48.096626" lon="11.042332">
<ele>614.544</ele>
<time>2022-05-25T14:31:17Z</time>
</trkpt>
<trkpt lat="48.096626" lon="11.042323">
<ele>614.544</ele>
<time>2022-05-25T14:31:18Z</time>
</trkpt>
<trkpt lat="48.096626" lon="11.042329">
<ele>614.544</ele>
<time>2022-05-25T14:31:19Z</time>
</trkpt>
<trkpt lat="48.096626" lon="11.042327">
<ele>614.544</ele>
<time>2022-05-25T14:31:20Z</time>
</trkpt>
<trkpt lat="48.096657" lon="11.042432">
<ele>614.544</ele>
<time>2022-05-25T14:31:38Z</time>
</trkpt>
<trkpt lat="48.096661" lon="11.042439">
<ele>614.544</ele>
<time>2022-05-25T14:31:39Z</time>
</trkpt>
<trkpt lat="48.096661" lon="11.042442">
<ele>614.544</ele>
<time>2022-05-25T14:31:40Z</time>
</trkpt>
<trkpt lat="48.096661" lon="11.042448">
<ele>614.544</ele>
<time>2022-05-25T14:31:41Z</time>
</trkpt>
<trkpt lat="48.096661" lon="11.042445">
<ele>614.544</ele>
<time>2022-05-25T14:31:42Z</time>
</trkpt>
<trkpt lat="48.096661" lon="11.04244">
<ele>614.544</ele>
<time>2022-05-25T14:31:43Z</time>
</trkpt>
<trkpt lat="48.096657" lon="11.042442">
<ele>614.544</ele>
<time>2022-05-25T14:31:44Z</time>
</trkpt>
<trkpt lat="48.096661" lon="11.042405">
<ele>614.544</ele>
<time>2022-05-25T14:31:53Z</time>
</trkpt>
<trkpt lat="48.096661" lon="11.042403">
<ele>614.544</ele>
<time>2022-05-25T14:31:54Z</time>
</trkpt>
<trkpt lat="48.096664" lon="11.042409">
<ele>614.544</ele>
<time>2022-05-25T14:31:55Z</time>
</trkpt>
<trkpt lat="48.096664" lon="11.042407">
<ele>614.544</ele>
<time>2022-05-25T14:31:56Z</time>
</trkpt>
<trkpt lat="48.096668" lon="11.042381">
<ele>614.544</ele>
<time>2022-05-25T14:32:03Z</time>
</trkpt>
<trkpt lat="48.096672" lon="11.042377">
<ele>614.544</ele>
<time>2022-05-25T14:32:04Z</time>
</trkpt>
<trkpt lat="48.096676" lon="11.042376">
<ele>614.544</ele>
<time>2022-05-25T14:32:06Z</time>
</trkpt>
<trkpt lat="48.096661" lon="11.042377">
<ele>614.544</ele>
<time>2022-05-25T14:32:11Z</time>
</trkpt>
<trkpt lat="48.096661" lon="11.042383">
<ele>614.544</ele>
<time>2022-05-25T14:32:12Z</time>
</trkpt>
<trkpt lat="48.096661" lon="11.042379">
<ele>614.544</ele>
<time>2022-05-25T14:32:13Z</time>
</trkpt>
<trkpt lat="48.096661" lon="11.042385">
<ele>614.544</ele>
<time>2022-05-25T14:32:14Z</time>
</trkpt>
<trkpt lat="48.096664" lon="11.042392">
<ele>614.544</ele>
<time>2022-05-25T14:32:15Z</time>
</trkpt>
<trkpt lat="48.096664" lon="11.042397">
<ele>614.544</ele>
<time>2022-05-25T14:32:16Z</time>
</trkpt>
<trkpt lat="48.096664" lon="11.042405">
<ele>614.544</ele>
<time>2022-05-25T14:32:17Z</time>
</trkpt>
<trkpt lat="48.096664" lon="11.042415">
<ele>614.544</ele>
<time>2022-05-25T14:32:18Z</time>
</trkpt>
<trkpt lat="48.096661" lon="11.042418">
<ele>614.544</ele>
<time>2022-05-25T14:32:19Z</time>
</trkpt>
<trkpt lat="48.096661" lon="11.042421">
<ele>614.544</ele>
<time>2022-05-25T14:32:20Z</time>
</trkpt>
<trkpt lat="48.096661" lon="11.042427">
<ele>614.544</ele>
<time>2022-05-25T14:32:21Z</time>
</trkpt>
<trkpt lat="48.096657" lon="11.04243">
<ele>614.544</ele>
<time>2022-05-25T14:32:22Z</time>
</trkpt>
<trkpt lat="48.096642" lon="11.0423">
<ele>614.544</ele>
<time>2022-05-25T14:33:29Z</time>
</trkpt>
<trkpt lat="48.096642" lon="11.042296">
<ele>614.544</ele>
<time>2022-05-25T14:33:30Z</time>
</trkpt>
<trkpt lat="48.096638" lon="11.0423">
<ele>614.544</ele>
<time>2022-05-25T14:33:31Z</time>
</trkpt>
<trkpt lat="48.096642" lon="11.042295">
<ele>614.544</ele>
<time>2022-05-25T14:33:32Z</time>
</trkpt>
<trkpt lat="48.096642" lon="11.04229">
<ele>614.544</ele>
<time>2022-05-25T14:33:34Z</time>
</trkpt>
<trkpt lat="48.096642" lon="11.042294">
<ele>614.544</ele>
<time>2022-05-25T14:33:35Z</time>
</trkpt>
<trkpt lat="48.096642" lon="11.042292">
<ele>614.544</ele>
<time>2022-05-25T14:33:36Z</time>
</trkpt>
<trkpt lat="48.096642" lon="11.04229">
<ele>614.544</ele>
<time>2022-05-25T14:33:37Z</time>
</trkpt>
<trkpt lat="48.096661" lon="11.042248">
<ele>614.544</ele>
<time>2022-05-25T14:33:48Z</time>
</trkpt>
<trkpt lat="48.096664" lon="11.042241">
<ele>614.544</ele>
<time>2022-05-25T14:33:49Z</time>
</trkpt>
<trkpt lat="48.096672" lon="11.042235">
<ele>614.544</ele>
<time>2022-05-25T14:33:50Z</time>
</trkpt>
<trkpt lat="48.09668" lon="11.042232">
<ele>614.544</ele>
<time>2022-05-25T14:33:51Z</time>
</trkpt>
<trkpt lat="48.096687" lon="11.042231">
<ele>614.544</ele>
<time>2022-05-25T14:33:52Z</time>
</trkpt>
<trkpt lat="48.096695" lon="11.042229">
<ele>614.544</ele>
<time>2022-05-25T14:33:53Z</time>
</trkpt>
<trkpt lat="48.096703" lon="11.042222">
<ele>614.544</ele>
<time>2022-05-25T14:33:54Z</time>
</trkpt>
<trkpt lat="48.096706" lon="11.042214">
<ele>614.544</ele>
<time>2022-05-25T14:33:55Z</time>
</trkpt>
<trkpt lat="48.096706" lon="11.042205">
<ele>614.544</ele>
<time>2022-05-25T14:33:56Z</time>
</trkpt>
<trkpt lat="48.096706" lon="11.042189">
<ele>614.544</ele>
<time>2022-05-25T14:34:01Z</time>
</trkpt>
<trkpt lat="48.096703" lon="11.042182">
<ele>614.544</ele>
<time>2022-05-25T14:34:02Z</time>
</trkpt>
<trkpt lat="48.096699" lon="11.042176">
<ele>614.544</ele>
<time>2022-05-25T14:34:03Z</time>
</trkpt>
<trkpt lat="48.096703" lon="11.042171">
<ele>614.544</ele>
<time>2022-05-25T14:34:04Z</time>
</trkpt>
<trkpt lat="48.096699" lon="11.042171">
<ele>614.544</ele>
<time>2022-05-25T14:34:05Z</time>
</trkpt>
<trkpt lat="48.096706" lon="11.042143">
<ele>614.544</ele>
<time>2022-05-25T14:34:15Z</time>
</trkpt>
<trkpt lat="48.096813" lon="11.041986">
<ele>614.544</ele>
<time>2022-05-25T14:36:23Z</time>
</trkpt>
<trkpt lat="48.096794" lon="11.041938">
<ele>614.544</ele>
<time>2022-05-25T14:36:24Z</time>
</trkpt>
<trkpt lat="48.096802" lon="11.042031">
<ele>614.544</ele>
<time>2022-05-25T14:36:25Z</time>
</trkpt>
<trkpt lat="48.096809" lon="11.042047">
<ele>614.544</ele>
<time>2022-05-25T14:36:26Z</time>
</trkpt>
<trkpt lat="48.096806" lon="11.042042">
<ele>614.544</ele>
<time>2022-05-25T14:36:27Z</time>
</trkpt>
<trkpt lat="48.096809" lon="11.04205">
<ele>614.544</ele>
<time>2022-05-25T14:36:28Z</time>
</trkpt>
<trkpt lat="48.096767" lon="11.0421">
<ele>614.544</ele>
<time>2022-05-25T14:36:45Z</time>
</trkpt>
<trkpt lat="48.09676" lon="11.042105">
<ele>614.544</ele>
<time>2022-05-25T14:36:46Z</time>
</trkpt>
<trkpt lat="48.09676" lon="11.042103">
<ele>614.544</ele>
<time>2022-05-25T14:36:47Z</time>
</trkpt>
<trkpt lat="48.096756" lon="11.042107">
<ele>614.544</ele>
<time>2022-05-25T14:36:48Z</time>
</trkpt>
<trkpt lat="48.09671" lon="11.042109">
<ele>614.544</ele>
<time>2022-05-25T14:37:11Z</time>
</trkpt>
<trkpt lat="48.096714" lon="11.042109">
<ele>614.544</ele>
<time>2022-05-25T14:37:12Z</time>
</trkpt>
<trkpt lat="48.096718" lon="11.042107">
<ele>614.544</ele>
<time>2022-05-25T14:37:13Z</time>
</trkpt>
<trkpt lat="48.096718" lon="11.042109">
<ele>614.544</ele>
<time>2022-05-25T14:37:14Z</time>
</trkpt>
<trkpt lat="48.09671" lon="11.042245">
<ele>614.544</ele>
<time>2022-05-25T14:37:44Z</time>
</trkpt>
<trkpt lat="48.096703" lon="11.042248">
<ele>614.544</ele>
<time>2022-05-25T14:37:45Z</time>
</trkpt>
<trkpt lat="48.096703" lon="11.042255">
<ele>614.544</ele>
<time>2022-05-25T14:37:46Z</time>
</trkpt>
<trkpt lat="48.096695" lon="11.042265">
<ele>614.544</ele>
<time>2022-05-25T14:37:47Z</time>
</trkpt>
<trkpt lat="48.096691" lon="11.042273">
<ele>614.544</ele>
<time>2022-05-25T14:37:48Z</time>
</trkpt>
<trkpt lat="48.096687" lon="11.042283">
<ele>614.544</ele>
<time>2022-05-25T14:37:49Z</time>
</trkpt>
<trkpt lat="48.096687" lon="11.042298">
<ele>614.544</ele>
<time>2022-05-25T14:37:50Z</time>
</trkpt>
<trkpt lat="48.096687" lon="11.04231">
<ele>614.544</ele>
<time>2022-05-25T14:37:51Z</time>
</trkpt>
<trkpt lat="48.096684" lon="11.042315">
<ele>614.544</ele>
<time>2022-05-25T14:37:52Z</time>
</trkpt>
<trkpt lat="48.096684" lon="11.042321">
<ele>614.544</ele>
<time>2022-05-25T14:37:53Z</time>
</trkpt>
<trkpt lat="48.096684" lon="11.042327">
<ele>614.544</ele>
<time>2022-05-25T14:37:54Z</time>
</trkpt>
<trkpt lat="48.096664" lon="11.04233">
<ele>614.544</ele>
<time>2022-05-25T14:38:11Z</time>
</trkpt>
<trkpt lat="48.096668" lon="11.04233">
<ele>614.544</ele>
<time>2022-05-25T14:38:12Z</time>
</trkpt>
<trkpt lat="48.09668" lon="11.042332">
<ele>614.544</ele>
<time>2022-05-25T14:38:13Z</time>
</trkpt>
<trkpt lat="48.096687" lon="11.042332">
<ele>614.544</ele>
<time>2022-05-25T14:38:14Z</time>
</trkpt>
<trkpt lat="48.096695" lon="11.042337">
<ele>614.544</ele>
<time>2022-05-25T14:38:15Z</time>
</trkpt>
<trkpt lat="48.096703" lon="11.042338">
<ele>614.544</ele>
<time>2022-05-25T14:38:16Z</time>
</trkpt>
<trkpt lat="48.096714" lon="11.042346">
<ele>614.544</ele>
<time>2022-05-25T14:38:17Z</time>
</trkpt>
<trkpt lat="48.096722" lon="11.042354">
<ele>614.544</ele>
<time>2022-05-25T14:38:18Z</time>
</trkpt>
<trkpt lat="48.096722" lon="11.042355">
<ele>614.544</ele>
<time>2022-05-25T14:38:19Z</time>
</trkpt>
<trkpt lat="48.096725" lon="11.042361">
<ele>614.544</ele>
<time>2022-05-25T14:38:20Z</time>
</trkpt>
<trkpt lat="48.096725" lon="11.042365">
<ele>614.544</ele>
<time>2022-05-25T14:38:21Z</time>
</trkpt>
<trkpt lat="48.09668" lon="11.042295">
<ele>614.544</ele>
<time>2022-05-25T14:38:35Z</time>
</trkpt>
<trkpt lat="48.096672" lon="11.042285">
<ele>614.544</ele>
<time>2022-05-25T14:38:36Z</time>
</trkpt>
<trkpt lat="48.096664" lon="11.042285">
<ele>614.544</ele>
<time>2022-05-25T14:38:37Z</time>
</trkpt>
<trkpt lat="48.096661" lon="11.042283">
<ele>614.544</ele>
<time>2022-05-25T14:38:38Z</time>
</trkpt>
<trkpt lat="48.096664" lon="11.042285">
<ele>614.544</ele>
<time>2022-05-25T14:38:39Z</time>
</trkpt>
<trkpt lat="48.096661" lon="11.042274">
<ele>614.544</ele>
<time>2022-05-25T14:38:40Z</time>
</trkpt>
<trkpt lat="48.096661" lon="11.042258">
<ele>614.544</ele>
<time>2022-05-25T14:38:41Z</time>
</trkpt>
<trkpt lat="48.096661" lon="11.042255">
<ele>614.544</ele>
<time>2022-05-25T14:38:47Z</time>
</trkpt>
<trkpt lat="48.096668" lon="11.042258">
<ele>614.544</ele>
<time>2022-05-25T14:38:48Z</time>
</trkpt>
<trkpt lat="48.096661" lon="11.042252">
<ele>614.544</ele>
<time>2022-05-25T14:38:49Z</time>
</trkpt>
<trkpt lat="48.096661" lon="11.042253">
<ele>614.544</ele>
<time>2022-05-25T14:38:50Z</time>
</trkpt>
<trkpt lat="48.096661" lon="11.042255">
<ele>614.544</ele>
<time>2022-05-25T14:38:51Z</time>
</trkpt>
<trkpt lat="48.096691" lon="11.042288">
<ele>614.544</ele>
<time>2022-05-25T14:39:30Z</time>
</trkpt>
<trkpt lat="48.096691" lon="11.042292">
<ele>614.544</ele>
<time>2022-05-25T14:39:31Z</time>
</trkpt>
<trkpt lat="48.096691" lon="11.04229">
<ele>614.544</ele>
<time>2022-05-25T14:39:33Z</time>
</trkpt>
<trkpt lat="48.096611" lon="11.042352">
<ele>614.544</ele>
<time>2022-05-25T14:40:29Z</time>
</trkpt>
<trkpt lat="48.096603" lon="11.042358">
<ele>614.544</ele>
<time>2022-05-25T14:40:30Z</time>
</trkpt>
<trkpt lat="48.0966" lon="11.042367">
<ele>614.544</ele>
<time>2022-05-25T14:40:31Z</time>
</trkpt>
<trkpt lat="48.096596" lon="11.04237">
<ele>614.544</ele>
<time>2022-05-25T14:40:32Z</time>
</trkpt>
<trkpt lat="48.096592" lon="11.04237">
<ele>614.544</ele>
<time>2022-05-25T14:40:33Z</time>
</trkpt>
<trkpt lat="48.096588" lon="11.042374">
<ele>614.544</ele>
<time>2022-05-25T14:40:34Z</time>
</trkpt>
<trkpt lat="48.096581" lon="11.04237">
<ele>614.544</ele>
<time>2022-05-25T14:40:35Z</time>
</trkpt>
<trkpt lat="48.096581" lon="11.042369">
<ele>614.544</ele>
<time>2022-05-25T14:40:36Z</time>
</trkpt>
<trkpt lat="48.096565" lon="11.042413">
<ele>614.544</ele>
<time>2022-05-25T14:40:47Z</time>
</trkpt>
<trkpt lat="48.096561" lon="11.042415">
<ele>614.544</ele>
<time>2022-05-25T14:40:48Z</time>
</trkpt>
<trkpt lat="48.096558" lon="11.042418">
<ele>614.544</ele>
<time>2022-05-25T14:40:49Z</time>
</trkpt>
<trkpt lat="48.096558" lon="11.042419">
<ele>614.544</ele>
<time>2022-05-25T14:40:50Z</time>
</trkpt>
<trkpt lat="48.096558" lon="11.042413">
<ele>614.544</ele>
<time>2022-05-25T14:40:51Z</time>
</trkpt>
<trkpt lat="48.096558" lon="11.042412">
<ele>614.544</ele>
<time>2022-05-25T14:40:52Z</time>
</trkpt>
<trkpt lat="48.096558" lon="11.042403">
<ele>614.544</ele>
<time>2022-05-25T14:40:53Z</time>
</trkpt>
<trkpt lat="48.096558" lon="11.042377">
<ele>614.544</ele>
<time>2022-05-25T14:40:55Z</time>
</trkpt>
<trkpt lat="48.096561" lon="11.042363">
<ele>614.544</ele>
<time>2022-05-25T14:40:56Z</time>
</trkpt>
<trkpt lat="48.096558" lon="11.042352">
<ele>614.544</ele>
<time>2022-05-25T14:40:57Z</time>
</trkpt>
<trkpt lat="48.096558" lon="11.042342">
<ele>614.544</ele>
<time>2022-05-25T14:40:58Z</time>
</trkpt>
<trkpt lat="48.096554" lon="11.042343">
<ele>614.544</ele>
<time>2022-05-25T14:40:59Z</time>
</trkpt>
<trkpt lat="48.096554" lon="11.042332">
<ele>614.544</ele>
<time>2022-05-25T14:41:00Z</time>
</trkpt>
<trkpt lat="48.096626" lon="11.042358">
<ele>614.544</ele>
<time>2022-05-25T14:41:19Z</time>
</trkpt>
<trkpt lat="48.096626" lon="11.042361">
<ele>614.544</ele>
<time>2022-05-25T14:41:20Z</time>
</trkpt>
<trkpt lat="48.096626" lon="11.042369">
<ele>614.544</ele>
<time>2022-05-25T14:41:21Z</time>
</trkpt>
<trkpt lat="48.096622" lon="11.042374">
<ele>614.544</ele>
<time>2022-05-25T14:41:22Z</time>
</trkpt>
<trkpt lat="48.096619" lon="11.042381">
<ele>614.544</ele>
<time>2022-05-25T14:41:27Z</time>
</trkpt>
<trkpt lat="48.096626" lon="11.042381">
<ele>614.544</ele>
<time>2022-05-25T14:41:28Z</time>
</trkpt>
<trkpt lat="48.096626" lon="11.042376">
<ele>614.544</ele>
<time>2022-05-25T14:41:29Z</time>
</trkpt>
<trkpt lat="48.096634" lon="11.042367">
<ele>614.544</ele>
<time>2022-05-25T14:41:30Z</time>
</trkpt>
<trkpt lat="48.096642" lon="11.042367">
<ele>614.544</ele>
<time>2022-05-25T14:41:31Z</time>
</trkpt>
<trkpt lat="48.096642" lon="11.04236">
<ele>614.544</ele>
<time>2022-05-25T14:41:32Z</time>
</trkpt>
<trkpt lat="48.096649" lon="11.042361">
<ele>614.544</ele>
<time>2022-05-25T14:41:33Z</time>
</trkpt>
<trkpt lat="48.096649" lon="11.042358">
<ele>614.544</ele>
<time>2022-05-25T14:41:34Z</time>
</trkpt>
<trkpt lat="48.096645" lon="11.042352">
<ele>614.544</ele>
<time>2022-05-25T14:41:35Z</time>
</trkpt>
<trkpt lat="48.096642" lon="11.042348">
<ele>614.544</ele>
<time>2022-05-25T14:41:36Z</time>
</trkpt>
<trkpt lat="48.096645" lon="11.042346">
<ele>614.544</ele>
<time>2022-05-25T14:41:37Z</time>
</trkpt>
<trkpt lat="48.096642" lon="11.042338">
<ele>614.544</ele>
<time>2022-05-25T14:41:38Z</time>
</trkpt>
<trkpt lat="48.09663" lon="11.042338">
<ele>614.544</ele>
<time>2022-05-25T14:41:39Z</time>
</trkpt>
<trkpt lat="48.096626" lon="11.042334">
<ele>614.544</ele>
<time>2022-05-25T14:41:40Z</time>
</trkpt>
<trkpt lat="48.096622" lon="11.04233">
<ele>614.544</ele>
<time>2022-05-25T14:41:41Z</time>
</trkpt>
<trkpt lat="48.096619" lon="11.042329">
<ele>614.544</ele>
<time>2022-05-25T14:41:42Z</time>
</trkpt>
<trkpt lat="48.096615" lon="11.042323">
<ele>614.544</ele>
<time>2022-05-25T14:41:43Z</time>
</trkpt>
<trkpt lat="48.096596" lon="11.042312">
<ele>614.544</ele>
<time>2022-05-25T14:41:55Z</time>
</trkpt>
<trkpt lat="48.096596" lon="11.042308">
<ele>614.544</ele>
<time>2022-05-25T14:41:56Z</time>
</trkpt>
<trkpt lat="48.0966" lon="11.042302">
<ele>614.544</ele>
<time>2022-05-25T14:41:57Z</time>
</trkpt>
<trkpt lat="48.096603" lon="11.042298">
<ele>614.544</ele>
<time>2022-05-25T14:41:58Z</time>
</trkpt>
<trkpt lat="48.096626" lon="11.042295">
<ele>614.544</ele>
<time>2022-05-25T14:42:11Z</time>
</trkpt>
<trkpt lat="48.096626" lon="11.04229">
<ele>614.544</ele>
<time>2022-05-25T14:42:12Z</time>
</trkpt>
<trkpt lat="48.096626" lon="11.042285">
<ele>614.544</ele>
<time>2022-05-25T14:42:13Z</time>
</trkpt>
<trkpt lat="48.096622" lon="11.042281">
<ele>614.544</ele>
<time>2022-05-25T14:42:14Z</time>
</trkpt>
<trkpt lat="48.096622" lon="11.042278">
<ele>614.544</ele>
<time>2022-05-25T14:42:15Z</time>
</trkpt>
<trkpt lat="48.096661" lon="11.042213">
<ele>614.544</ele>
<time>2022-05-25T14:42:45Z</time>
</trkpt>
<trkpt lat="48.096664" lon="11.042203">
<ele>614.544</ele>
<time>2022-05-25T14:42:46Z</time>
</trkpt>
<trkpt lat="48.096668" lon="11.042193">
<ele>614.544</ele>
<time>2022-05-25T14:42:47Z</time>
</trkpt>
<trkpt lat="48.096672" lon="11.042192">
<ele>614.544</ele>
<time>2022-05-25T14:42:48Z</time>
</trkpt>
<trkpt lat="48.096672" lon="11.042193">
<ele>614.544</ele>
<time>2022-05-25T14:42:49Z</time>
</trkpt>
<trkpt lat="48.096672" lon="11.042195">
<ele>614.544</ele>
<time>2022-05-25T14:42:50Z</time>
</trkpt>
<trkpt lat="48.096672" lon="11.042198">
<ele>614.544</ele>
<time>2022-05-25T14:42:51Z</time>
</trkpt>
<trkpt lat="48.096672" lon="11.042227">
<ele>614.544</ele>
<time>2022-05-25T14:43:00Z</time>
</trkpt>
<trkpt lat="48.096672" lon="11.042225">
<ele>614.544</ele>
<time>2022-05-25T14:43:01Z</time>
</trkpt>
<trkpt lat="48.096672" lon="11.042231">
<ele>614.544</ele>
<time>2022-05-25T14:43:02Z</time>
</trkpt>
<trkpt lat="48.096676" lon="11.042237">
<ele>614.544</ele>
<time>2022-05-25T14:43:03Z</time>
</trkpt>
<trkpt lat="48.096687" lon="11.042243">
<ele>614.544</ele>
<time>2022-05-25T14:43:27Z</time>
</trkpt>
<trkpt lat="48.096691" lon="11.042247">
<ele>614.544</ele>
<time>2022-05-25T14:43:28Z</time>
</trkpt>
<trkpt lat="48.096687" lon="11.042248">
<ele>614.544</ele>
<time>2022-05-25T14:43:29Z</time>
</trkpt>
<trkpt lat="48.096687" lon="11.042252">
<ele>614.544</ele>
<time>2022-05-25T14:43:30Z</time>
</trkpt>
<trkpt lat="48.096684" lon="11.042258">
<ele>614.544</ele>
<time>2022-05-25T14:43:31Z</time>
</trkpt>
<trkpt lat="48.096684" lon="11.042264">
<ele>614.544</ele>
<time>2022-05-25T14:43:32Z</time>
</trkpt>
<trkpt lat="48.096691" lon="11.042262">
<ele>614.544</ele>
<time>2022-05-25T14:43:33Z</time>
</trkpt>
<trkpt lat="48.096691" lon="11.042258">
<ele>614.544</ele>
<time>2022-05-25T14:43:34Z</time>
</trkpt>
<trkpt lat="48.096691" lon="11.042256">
<ele>614.544</ele>
<time>2022-05-25T14:43:35Z</time>
</trkpt>
<trkpt lat="48.096638" lon="11.042245">
<ele>614.544</ele>
<time>2022-05-25T14:43:55Z</time>
</trkpt>
<trkpt lat="48.096634" lon="11.04225">
<ele>614.544</ele>
<time>2022-05-25T14:43:56Z</time>
</trkpt>
<trkpt lat="48.09663" lon="11.042248">
<ele>614.544</ele>
<time>2022-05-25T14:43:57Z</time>
</trkpt>
<trkpt lat="48.096626" lon="11.04225">
<ele>614.544</ele>
<time>2022-05-25T14:43:58Z</time>
</trkpt>
<trkpt lat="48.096626" lon="11.042253">
<ele>614.544</ele>
<time>2022-05-25T14:44:00Z</time>
</trkpt>
<trkpt lat="48.096626" lon="11.04225">
<ele>614.544</ele>
<time>2022-05-25T14:44:01Z</time>
</trkpt>
<trkpt lat="48.096657" lon="11.042132">
<ele>614.544</ele>
<time>2022-05-25T14:44:35Z</time>
</trkpt>
<trkpt lat="48.096649" lon="11.04213">
<ele>614.544</ele>
<time>2022-05-25T14:44:36Z</time>
</trkpt>
<trkpt lat="48.096645" lon="11.042129">
<ele>614.544</ele>
<time>2022-05-25T14:44:37Z</time>
</trkpt>
<trkpt lat="48.096642" lon="11.042127">
<ele>614.544</ele>
<time>2022-05-25T14:44:38Z</time>
</trkpt>
<trkpt lat="48.096638" lon="11.042124">
<ele>614.544</ele>
<time>2022-05-25T14:44:53Z</time>
</trkpt>
<trkpt lat="48.096642" lon="11.042125">
<ele>614.544</ele>
<time>2022-05-25T14:44:54Z</time>
</trkpt>
<trkpt lat="48.096642" lon="11.042122">
<ele>614.544</ele>
<time>2022-05-25T14:44:55Z</time>
</trkpt>
<trkpt lat="48.096645" lon="11.04212">
<ele>614.544</ele>
<time>2022-05-25T14:44:56Z</time>
</trkpt>
<trkpt lat="48.096645" lon="11.042113">
<ele>614.544</ele>
<time>2022-05-25T14:44:57Z</time>
</trkpt>
<trkpt lat="48.096657" lon="11.04217">
<ele>614.544</ele>
<time>2022-05-25T14:45:00Z</time>
</trkpt>
<trkpt lat="48.096653" lon="11.042173">
<ele>614.544</ele>
<time>2022-05-25T14:45:01Z</time>
</trkpt>
<trkpt lat="48.096657" lon="11.042176">
<ele>614.544</ele>
<time>2022-05-25T14:45:02Z</time>
</trkpt>
<trkpt lat="48.096653" lon="11.042173">
<ele>614.544</ele>
<time>2022-05-25T14:45:03Z</time>
</trkpt>
<trkpt lat="48.096657" lon="11.04218">
<ele>614.544</ele>
<time>2022-05-25T14:45:04Z</time>
</trkpt>
<trkpt lat="48.096649" lon="11.042182">
<ele>614.544</ele>
<time>2022-05-25T14:45:05Z</time>
</trkpt>
<trkpt lat="48.096649" lon="11.042178">
<ele>614.544</ele>
<time>2022-05-25T14:45:06Z</time>
</trkpt>
<trkpt lat="48.096649" lon="11.042174">
<ele>614.544</ele>
<time>2022-05-25T14:45:07Z</time>
</trkpt>
<trkpt lat="48.096653" lon="11.042166">
<ele>614.544</ele>
<time>2022-05-25T14:45:08Z</time>
</trkpt>
<trkpt lat="48.096653" lon="11.042157">
<ele>614.544</ele>
<time>2022-05-25T14:45:09Z</time>
</trkpt>
<trkpt lat="48.096657" lon="11.042147">
<ele>614.544</ele>
<time>2022-05-25T14:45:10Z</time>
</trkpt>
<trkpt lat="48.096653" lon="11.04214">
<ele>614.544</ele>
<time>2022-05-25T14:45:11Z</time>
</trkpt>
<trkpt lat="48.096653" lon="11.042136">
<ele>614.544</ele>
<time>2022-05-25T14:45:12Z</time>
</trkpt>
<trkpt lat="48.096661" lon="11.042109">
<ele>614.544</ele>
<time>2022-05-25T15:00:53Z</time>
</trkpt>
<trkpt lat="48.096657" lon="11.042105">
<ele>614.544</ele>
<time>2022-05-25T15:00:54Z</time>
</trkpt>
<trkpt lat="48.096657" lon="11.042101">
<ele>614.544</ele>
<time>2022-05-25T15:00:55Z</time>
</trkpt>
<trkpt lat="48.096661" lon="11.042101">
<ele>614.544</ele>
<time>2022-05-25T15:00:56Z</time>
</trkpt>
<trkpt lat="48.096661" lon="11.042099">
<ele>614.544</ele>
<time>2022-05-25T15:00:57Z</time>
</trkpt>
<trkpt lat="48.096664" lon="11.042095">
<ele>614.544</ele>
<time>2022-05-25T15:00:58Z</time>
</trkpt>
<trkpt lat="48.096668" lon="11.042093">
<ele>614.544</ele>
<time>2022-05-25T15:00:59Z</time>
</trkpt>
<trkpt lat="48.096672" lon="11.042097">
<ele>614.544</ele>
<time>2022-05-25T15:01:00Z</time>
</trkpt>
<trkpt lat="48.096672" lon="11.042095">
<ele>614.544</ele>
<time>2022-05-25T15:01:01Z</time>
</trkpt>
<trkpt lat="48.096676" lon="11.042095">
<ele>614.544</ele>
<time>2022-05-25T15:01:02Z</time>
</trkpt>
<trkpt lat="48.096664" lon="11.042109">
<ele>614.544</ele>
<time>2022-05-25T15:01:06Z</time>
</trkpt>
<trkpt lat="48.096664" lon="11.042117">
<ele>614.544</ele>
<time>2022-05-25T15:01:07Z</time>
</trkpt>
<trkpt lat="48.096664" lon="11.042125">
<ele>614.544</ele>
<time>2022-05-25T15:01:08Z</time>
</trkpt>
<trkpt lat="48.096668" lon="11.04213">
<ele>614.544</ele>
<time>2022-05-25T15:01:09Z</time>
</trkpt>
<trkpt lat="48.096668" lon="11.042134">
<ele>614.544</ele>
<time>2022-05-25T15:01:10Z</time>
</trkpt>
<trkpt lat="48.096664" lon="11.042141">
<ele>614.544</ele>
<time>2022-05-25T15:01:11Z</time>
</trkpt>
<trkpt lat="48.096668" lon="11.042138">
<ele>614.544</ele>
<time>2022-05-25T15:01:12Z</time>
</trkpt>
<trkpt lat="48.096661" lon="11.042203">
<ele>614.544</ele>
<time>2022-05-25T15:02:05Z</time>
</trkpt>
<trkpt lat="48.096661" lon="11.042207">
<ele>614.544</ele>
<time>2022-05-25T15:02:06Z</time>
</trkpt>
<trkpt lat="48.096661" lon="11.042205">
<ele>614.544</ele>
<time>2022-05-25T15:02:07Z</time>
</trkpt>
<trkpt lat="48.096657" lon="11.042205">
<ele>614.544</ele>
<time>2022-05-25T15:02:08Z</time>
</trkpt>
<trkpt lat="48.096661" lon="11.042208">
<ele>614.544</ele>
<time>2022-05-25T15:02:15Z</time>
</trkpt>
<trkpt lat="48.096661" lon="11.042214">
<ele>614.544</ele>
<time>2022-05-25T15:02:16Z</time>
</trkpt>
<trkpt lat="48.096661" lon="11.042216">
<ele>614.544</ele>
<time>2022-05-25T15:02:17Z</time>
</trkpt>
<trkpt lat="48.096657" lon="11.042216">
<ele>614.544</ele>
<time>2022-05-25T15:02:18Z</time>
</trkpt>
<trkpt lat="48.096653" lon="11.042208">
<ele>614.544</ele>
<time>2022-05-25T15:02:35Z</time>
</trkpt>
<trkpt lat="48.096653" lon="11.042213">
<ele>614.544</ele>
<time>2022-05-25T15:02:36Z</time>
</trkpt>
<trkpt lat="48.096653" lon="11.04222">
<ele>614.544</ele>
<time>2022-05-25T15:02:37Z</time>
</trkpt>
<trkpt lat="48.096657" lon="11.042222">
<ele>614.544</ele>
<time>2022-05-25T15:02:38Z</time>
</trkpt>
<trkpt lat="48.096661" lon="11.042231">
<ele>614.544</ele>
<time>2022-05-25T15:02:40Z</time>
</trkpt>
<trkpt lat="48.096661" lon="11.042237">
<ele>614.544</ele>
<time>2022-05-25T15:02:41Z</time>
</trkpt>
<trkpt lat="48.096664" lon="11.042235">
<ele>614.544</ele>
<time>2022-05-25T15:02:42Z</time>
</trkpt>
<trkpt lat="48.096668" lon="11.042231">
<ele>614.544</ele>
<time>2022-05-25T15:02:43Z</time>
</trkpt>
<trkpt lat="48.09668" lon="11.042225">
<ele>614.544</ele>
<time>2022-05-25T15:02:44Z</time>
</trkpt>
<trkpt lat="48.096691" lon="11.042218">
<ele>614.544</ele>
<time>2022-05-25T15:02:45Z</time>
</trkpt>
<trkpt lat="48.096699" lon="11.042208">
<ele>614.544</ele>
<time>2022-05-25T15:02:46Z</time>
</trkpt>
<trkpt lat="48.09671" lon="11.042202">
<ele>614.544</ele>
<time>2022-05-25T15:02:47Z</time>
</trkpt>
<trkpt lat="48.096718" lon="11.042191">
<ele>614.544</ele>
<time>2022-05-25T15:02:48Z</time>
</trkpt>
<trkpt lat="48.096725" lon="11.042174">
<ele>614.544</ele>
<time>2022-05-25T15:02:49Z</time>
</trkpt>
<trkpt lat="48.096733" lon="11.042155">
<ele>614.544</ele>
<time>2022-05-25T15:02:50Z</time>
</trkpt>
<trkpt lat="48.096752" lon="11.042143">
<ele>614.544</ele>
<time>2022-05-25T15:02:51Z</time>
</trkpt>
<trkpt lat="48.096764" lon="11.042127">
<ele>614.544</ele>
<time>2022-05-25T15:02:52Z</time>
</trkpt>
<trkpt lat="48.096779" lon="11.04212">
<ele>614.544</ele>
<time>2022-05-25T15:02:53Z</time>
</trkpt>
<trkpt lat="48.096783" lon="11.042113">
<ele>614.544</ele>
<time>2022-05-25T15:02:54Z</time>
</trkpt>
<trkpt lat="48.096786" lon="11.042105">
<ele>614.544</ele>
<time>2022-05-25T15:02:55Z</time>
</trkpt>
<trkpt lat="48.09679" lon="11.042109">
<ele>614.544</ele>
<time>2022-05-25T15:02:56Z</time>
</trkpt>
<trkpt lat="48.09679" lon="11.042101">
<ele>614.544</ele>
<time>2022-05-25T15:02:57Z</time>
</trkpt>
<trkpt lat="48.09679" lon="11.0421">
<ele>614.544</ele>
<time>2022-05-25T15:02:59Z</time>
</trkpt>
<trkpt lat="48.096794" lon="11.042109">
<ele>614.544</ele>
<time>2022-05-25T15:03:05Z</time>
</trkpt>
<trkpt lat="48.09679" lon="11.04212">
<ele>614.544</ele>
<time>2022-05-25T15:03:06Z</time>
</trkpt>
<trkpt lat="48.096794" lon="11.042117">
<ele>614.544</ele>
<time>2022-05-25T15:03:07Z</time>
</trkpt>
<trkpt lat="48.09679" lon="11.042127">
<ele>614.544</ele>
<time>2022-05-25T15:03:08Z</time>
</trkpt>
<trkpt lat="48.096794" lon="11.042132">
<ele>614.544</ele>
<time>2022-05-25T15:03:09Z</time>
</trkpt>
<trkpt lat="48.096794" lon="11.042143">
<ele>614.544</ele>
<time>2022-05-25T15:03:10Z</time>
</trkpt>
<trkpt lat="48.096798" lon="11.042155">
<ele>614.544</ele>
<time>2022-05-25T15:03:11Z</time>
</trkpt>
<trkpt lat="48.096794" lon="11.042171">
<ele>614.544</ele>
<time>2022-05-25T15:03:12Z</time>
</trkpt>
<trkpt lat="48.096794" lon="11.042182">
<ele>614.544</ele>
<time>2022-05-25T15:03:13Z</time>
</trkpt>
<trkpt lat="48.096802" lon="11.042191">
<ele>614.544</ele>
<time>2022-05-25T15:03:14Z</time>
</trkpt>
<trkpt lat="48.096809" lon="11.0422">
<ele>614.544</ele>
<time>2022-05-25T15:03:15Z</time>
</trkpt>
<trkpt lat="48.096817" lon="11.04221">
<ele>614.544</ele>
<time>2022-05-25T15:03:16Z</time>
</trkpt>
<trkpt lat="48.096821" lon="11.042223">
<ele>614.544</ele>
<time>2022-05-25T15:03:17Z</time>
</trkpt>
<trkpt lat="48.096821" lon="11.042231">
<ele>614.544</ele>
<time>2022-05-25T15:03:18Z</time>
</trkpt>
<trkpt lat="48.096821" lon="11.042237">
<ele>614.544</ele>
<time>2022-05-25T15:03:19Z</time>
</trkpt>
<trkpt lat="48.096821" lon="11.042245">
<ele>614.544</ele>
<time>2022-05-25T15:03:20Z</time>
</trkpt>
<trkpt lat="48.096821" lon="11.04225">
<ele>614.544</ele>
<time>2022-05-25T15:03:21Z</time>
</trkpt>
<trkpt lat="48.096817" lon="11.04225">
<ele>614.544</ele>
<time>2022-05-25T15:03:22Z</time>
</trkpt>
<trkpt lat="48.096813" lon="11.04225">
<ele>614.544</ele>
<time>2022-05-25T15:03:23Z</time>
</trkpt>
<trkpt lat="48.096806" lon="11.042253">
<ele>614.544</ele>
<time>2022-05-25T15:03:24Z</time>
</trkpt>
<trkpt lat="48.096802" lon="11.042252">
<ele>614.544</ele>
<time>2022-05-25T15:03:25Z</time>
</trkpt>
<trkpt lat="48.096794" lon="11.042258">
<ele>614.544</ele>
<time>2022-05-25T15:03:26Z</time>
</trkpt>
<trkpt lat="48.096794" lon="11.042262">
<ele>614.544</ele>
<time>2022-05-25T15:03:27Z</time>
</trkpt>
<trkpt lat="48.096798" lon="11.042283">
<ele>614.544</ele>
<time>2022-05-25T15:03:32Z</time>
</trkpt>
<trkpt lat="48.096798" lon="11.042294">
<ele>614.544</ele>
<time>2022-05-25T15:03:33Z</time>
</trkpt>
<trkpt lat="48.096798" lon="11.042302">
<ele>614.544</ele>
<time>2022-05-25T15:03:34Z</time>
</trkpt>
<trkpt lat="48.096794" lon="11.042318">
<ele>614.544</ele>
<time>2022-05-25T15:03:35Z</time>
</trkpt>
<trkpt lat="48.096798" lon="11.04232">
<ele>614.544</ele>
<time>2022-05-25T15:03:36Z</time>
</trkpt>
<trkpt lat="48.096794" lon="11.042329">
<ele>614.544</ele>
<time>2022-05-25T15:03:38Z</time>
</trkpt>
<trkpt lat="48.09679" lon="11.042336">
<ele>614.544</ele>
<time>2022-05-25T15:03:39Z</time>
</trkpt>
<trkpt lat="48.09684" lon="11.04234">
<ele>614.544</ele>
<time>2022-05-25T15:03:44Z</time>
</trkpt>
<trkpt lat="48.096863" lon="11.04233">
<ele>614.544</ele>
<time>2022-05-25T15:03:45Z</time>
</trkpt>
<trkpt lat="48.096886" lon="11.042327">
<ele>614.544</ele>
<time>2022-05-25T15:03:46Z</time>
</trkpt>
<trkpt lat="48.096916" lon="11.042334">
<ele>614.544</ele>
<time>2022-05-25T15:03:47Z</time>
</trkpt>
<trkpt lat="48.096939" lon="11.042348">
<ele>614.544</ele>
<time>2022-05-25T15:03:48Z</time>
</trkpt>
<trkpt lat="48.096966" lon="11.042369">
<ele>614.544</ele>
<time>2022-05-25T15:03:49Z</time>
</trkpt>
<trkpt lat="48.096985" lon="11.042394">
<ele>614.544</ele>
<time>2022-05-25T15:03:50Z</time>
</trkpt>
<trkpt lat="48.097004" lon="11.042425">
<ele>614.544</ele>
<time>2022-05-25T15:03:51Z</time>
</trkpt>
<trkpt lat="48.097019" lon="11.042457">
<ele>614.544</ele>
<time>2022-05-25T15:03:52Z</time>
</trkpt>
<trkpt lat="48.097027" lon="11.042492">
<ele>614.544</ele>
<time>2022-05-25T15:03:53Z</time>
</trkpt>
<trkpt lat="48.097034" lon="11.042533">
<ele>614.544</ele>
<time>2022-05-25T15:03:55Z</time>
</trkpt>
<trkpt lat="48.097042" lon="11.042633">
<ele>614.544</ele>
<time>2022-05-25T15:03:56Z</time>
</trkpt>
<trkpt lat="48.097054" lon="11.042687">
<ele>614.544</ele>
<time>2022-05-25T15:03:57Z</time>
</trkpt>
<trkpt lat="48.097057" lon="11.042748">
<ele>614.544</ele>
<time>2022-05-25T15:03:58Z</time>
</trkpt>
<trkpt lat="48.097061" lon="11.042813">
<ele>614.544</ele>
<time>2022-05-25T15:03:59Z</time>
</trkpt>
<trkpt lat="48.097069" lon="11.04288">
<ele>614.544</ele>
<time>2022-05-25T15:04:00Z</time>
</trkpt>
<trkpt lat="48.097073" lon="11.04295">
<ele>614.544</ele>
<time>2022-05-25T15:04:01Z</time>
</trkpt>
<trkpt lat="48.09708" lon="11.043018">
<ele>614.544</ele>
<time>2022-05-25T15:04:02Z</time>
</trkpt>
<trkpt lat="48.097084" lon="11.043088">
<ele>614.544</ele>
<time>2022-05-25T15:04:03Z</time>
</trkpt>
<trkpt lat="48.097092" lon="11.043163">
<ele>614.544</ele>
<time>2022-05-25T15:04:05Z</time>
</trkpt>
<trkpt lat="48.097095" lon="11.043308">
<ele>614.544</ele>
<time>2022-05-25T15:04:06Z</time>
</trkpt>
<trkpt lat="48.097099" lon="11.043384">
<ele>614.544</ele>
<time>2022-05-25T15:04:07Z</time>
</trkpt>
<trkpt lat="48.097111" lon="11.043458">
<ele>614.544</ele>
<time>2022-05-25T15:04:08Z</time>
</trkpt>
<trkpt lat="48.097118" lon="11.043538">
<ele>614.762</ele>
<time>2022-05-25T15:04:09Z</time>
</trkpt>
<trkpt lat="48.09713" lon="11.04362">
<ele>614.945</ele>
<time>2022-05-25T15:04:10Z</time>
</trkpt>
<trkpt lat="48.097137" lon="11.043701">
<ele>615.092</ele>
<time>2022-05-25T15:04:11Z</time>
</trkpt>
<trkpt lat="48.097149" lon="11.043777">
<ele>615.208</ele>
<time>2022-05-25T15:04:12Z</time>
</trkpt>
<trkpt lat="48.097157" lon="11.043846">
<ele>615.281</ele>
<time>2022-05-25T15:04:13Z</time>
</trkpt>
<trkpt lat="48.097164" lon="11.043911">
<ele>615.583</ele>
<time>2022-05-25T15:04:14Z</time>
</trkpt>
<trkpt lat="48.097168" lon="11.043972">
<ele>615.821</ele>
<time>2022-05-25T15:04:15Z</time>
</trkpt>
<trkpt lat="48.097168" lon="11.044024">
<ele>615.998</ele>
<time>2022-05-25T15:04:16Z</time>
</trkpt>
<trkpt lat="48.097176" lon="11.044075">
<ele>616.123</ele>
<time>2022-05-25T15:04:17Z</time>
</trkpt>
<trkpt lat="48.097179" lon="11.044125">
<ele>616.207</ele>
<time>2022-05-25T15:04:18Z</time>
</trkpt>
<trkpt lat="48.097187" lon="11.044175">
<ele>616.292</ele>
<time>2022-05-25T15:04:19Z</time>
</trkpt>
<trkpt lat="48.097198" lon="11.044227">
<ele>616.571</ele>
<time>2022-05-25T15:04:20Z</time>
</trkpt>
<trkpt lat="48.097206" lon="11.044278">
<ele>616.795</ele>
<time>2022-05-25T15:04:21Z</time>
</trkpt>
<trkpt lat="48.09721" lon="11.044326">
<ele>617.042</ele>
<time>2022-05-25T15:04:22Z</time>
</trkpt>
<trkpt lat="48.09721" lon="11.044382">
<ele>617.181</ele>
<time>2022-05-25T15:04:23Z</time>
</trkpt>
<trkpt lat="48.097206" lon="11.044433">
<ele>617.273</ele>
<time>2022-05-25T15:04:24Z</time>
</trkpt>
<trkpt lat="48.097206" lon="11.04446">
<ele>617.326</ele>
<time>2022-05-25T15:04:25Z</time>
</trkpt>
<trkpt lat="48.097198" lon="11.044478">
<ele>617.344</ele>
<time>2022-05-25T15:04:26Z</time>
</trkpt>
<trkpt lat="48.097187" lon="11.0445">
<ele>617.35</ele>
<time>2022-05-25T15:04:27Z</time>
</trkpt>
<trkpt lat="48.097176" lon="11.044525">
<ele>617.35</ele>
<time>2022-05-25T15:04:28Z</time>
</trkpt>
<trkpt lat="48.097168" lon="11.044554">
<ele>617.35</ele>
<time>2022-05-25T15:04:29Z</time>
</trkpt>
<trkpt lat="48.097164" lon="11.044585">
<ele>617.35</ele>
<time>2022-05-25T15:04:30Z</time>
</trkpt>
<trkpt lat="48.097168" lon="11.04462">
<ele>617.35</ele>
<time>2022-05-25T15:04:31Z</time>
</trkpt>
<trkpt lat="48.097172" lon="11.044659">
<ele>617.35</ele>
<time>2022-05-25T15:04:32Z</time>
</trkpt>
<trkpt lat="48.097176" lon="11.044699">
<ele>617.35</ele>
<time>2022-05-25T15:04:33Z</time>
</trkpt>
<trkpt lat="48.097179" lon="11.044748">
<ele>617.35</ele>
<time>2022-05-25T15:04:34Z</time>
</trkpt>
<trkpt lat="48.097187" lon="11.044799">
<ele>617.35</ele>
<time>2022-05-25T15:04:35Z</time>
</trkpt>
<trkpt lat="48.097195" lon="11.044853">
<ele>617.35</ele>
<time>2022-05-25T15:04:36Z</time>
</trkpt>
<trkpt lat="48.097198" lon="11.044918">
<ele>617.35</ele>
<time>2022-05-25T15:04:37Z</time>
</trkpt>
<trkpt lat="48.097195" lon="11.04499">
<ele>617.35</ele>
<time>2022-05-25T15:04:38Z</time>
</trkpt>
<trkpt lat="48.097191" lon="11.045063">
<ele>617.35</ele>
<time>2022-05-25T15:04:39Z</time>
</trkpt>
<trkpt lat="48.097191" lon="11.04514">
<ele>617.35</ele>
<time>2022-05-25T15:04:40Z</time>
</trkpt>
<trkpt lat="48.097187" lon="11.045218">
<ele>617.005</ele>
<time>2022-05-25T15:04:41Z</time>
</trkpt>
<trkpt lat="48.097187" lon="11.045297">
<ele>616.766</ele>
<time>2022-05-25T15:04:42Z</time>
</trkpt>
<trkpt lat="48.097179" lon="11.045392">
<ele>616.593</ele>
<time>2022-05-25T15:04:43Z</time>
</trkpt>
<trkpt lat="48.097168" lon="11.045485">
<ele>616.474</ele>
<time>2022-05-25T15:04:44Z</time>
</trkpt>
<trkpt lat="48.097164" lon="11.045556">
<ele>616.395</ele>
<time>2022-05-25T15:04:45Z</time>
</trkpt>
<trkpt lat="48.097164" lon="11.04563">
<ele>616.345</ele>
<time>2022-05-25T15:04:46Z</time>
</trkpt>
<trkpt lat="48.097164" lon="11.045702">
<ele>616.32</ele>
<time>2022-05-25T15:04:47Z</time>
</trkpt>
<trkpt lat="48.097164" lon="11.045776">
<ele>616.298</ele>
<time>2022-05-25T15:04:48Z</time>
</trkpt>
<trkpt lat="48.09716" lon="11.045841">
<ele>616.298</ele>
<time>2022-05-25T15:04:49Z</time>
</trkpt>
<trkpt lat="48.097157" lon="11.045908">
<ele>616.297</ele>
<time>2022-05-25T15:04:50Z</time>
</trkpt>
<trkpt lat="48.097153" lon="11.045977">
<ele>616.298</ele>
<time>2022-05-25T15:04:51Z</time>
</trkpt>
<trkpt lat="48.097145" lon="11.04604">
<ele>616.297</ele>
<time>2022-05-25T15:04:52Z</time>
</trkpt>
<trkpt lat="48.097134" lon="11.046101">
<ele>616.298</ele>
<time>2022-05-25T15:04:53Z</time>
</trkpt>
<trkpt lat="48.097126" lon="11.04616">
<ele>616.297</ele>
<time>2022-05-25T15:04:54Z</time>
</trkpt>
<trkpt lat="48.097115" lon="11.046213">
<ele>616.298</ele>
<time>2022-05-25T15:04:55Z</time>
</trkpt>
<trkpt lat="48.097103" lon="11.046258">
<ele>616.297</ele>
<time>2022-05-25T15:04:56Z</time>
</trkpt>
<trkpt lat="48.097088" lon="11.046306">
<ele>616.298</ele>
<time>2022-05-25T15:04:57Z</time>
</trkpt>
<trkpt lat="48.09708" lon="11.046355">
<ele>616.297</ele>
<time>2022-05-25T15:04:58Z</time>
</trkpt>
<trkpt lat="48.097065" lon="11.046407">
<ele>616.539</ele>
<time>2022-05-25T15:04:59Z</time>
</trkpt>
<trkpt lat="48.09705" lon="11.046456">
<ele>616.752</ele>
<time>2022-05-25T15:05:00Z</time>
</trkpt>
<trkpt lat="48.097034" lon="11.046507">
<ele>616.932</ele>
<time>2022-05-25T15:05:01Z</time>
</trkpt>
<trkpt lat="48.097019" lon="11.046559">
<ele>617.08</ele>
<time>2022-05-25T15:05:02Z</time>
</trkpt>
<trkpt lat="48.097004" lon="11.046607">
<ele>617.198</ele>
<time>2022-05-25T15:05:03Z</time>
</trkpt>
<trkpt lat="48.096977" lon="11.046656">
<ele>617.281</ele>
<time>2022-05-25T15:05:04Z</time>
</trkpt>
<trkpt lat="48.096943" lon="11.046697">
<ele>617.328</ele>
<time>2022-05-25T15:05:05Z</time>
</trkpt>
<trkpt lat="48.096912" lon="11.046731">
<ele>617.35</ele>
<time>2022-05-25T15:05:06Z</time>
</trkpt>
<trkpt lat="48.096886" lon="11.046761">
<ele>617.35</ele>
<time>2022-05-25T15:05:07Z</time>
</trkpt>
<trkpt lat="48.096855" lon="11.046792">
<ele>617.35</ele>
<time>2022-05-25T15:05:08Z</time>
</trkpt>
<trkpt lat="48.096821" lon="11.04683">
<ele>617.35</ele>
<time>2022-05-25T15:05:09Z</time>
</trkpt>
<trkpt lat="48.09679" lon="11.046868">
<ele>617.35</ele>
<time>2022-05-25T15:05:10Z</time>
</trkpt>
<trkpt lat="48.09676" lon="11.046906">
<ele>617.35</ele>
<time>2022-05-25T15:05:11Z</time>
</trkpt>
<trkpt lat="48.096725" lon="11.04694">
<ele>617.35</ele>
<time>2022-05-25T15:05:12Z</time>
</trkpt>
<trkpt lat="48.096691" lon="11.046968">
<ele>617.35</ele>
<time>2022-05-25T15:05:13Z</time>
</trkpt>
<trkpt lat="48.096661" lon="11.047">
<ele>617.35</ele>
<time>2022-05-25T15:05:14Z</time>
</trkpt>
<trkpt lat="48.096619" lon="11.047024">
<ele>617.35</ele>
<time>2022-05-25T15:05:15Z</time>
</trkpt>
<trkpt lat="48.096573" lon="11.047058">
<ele>617.35</ele>
<time>2022-05-25T15:05:16Z</time>
</trkpt>
<trkpt lat="48.096546" lon="11.047087">
<ele>617.35</ele>
<time>2022-05-25T15:05:17Z</time>
</trkpt>
<trkpt lat="48.096508" lon="11.047116">
<ele>617.35</ele>
<time>2022-05-25T15:05:18Z</time>
</trkpt>
<trkpt lat="48.096478" lon="11.047146">
<ele>617.35</ele>
<time>2022-05-25T15:05:19Z</time>
</trkpt>
<trkpt lat="48.096443" lon="11.04718">
<ele>617.609</ele>
<time>2022-05-25T15:05:20Z</time>
</trkpt>
<trkpt lat="48.096409" lon="11.047214">
<ele>617.808</ele>
<time>2022-05-25T15:05:21Z</time>
</trkpt>
<trkpt lat="48.096375" lon="11.047251">
<ele>617.959</ele>
<time>2022-05-25T15:05:22Z</time>
</trkpt>
<trkpt lat="48.096344" lon="11.047286">
<ele>618.068</ele>
<time>2022-05-25T15:05:23Z</time>
</trkpt>
<trkpt lat="48.096317" lon="11.047333">
<ele>618.148</ele>
<time>2022-05-25T15:05:24Z</time>
</trkpt>
<trkpt lat="48.096294" lon="11.047383">
<ele>618.203</ele>
<time>2022-05-25T15:05:25Z</time>
</trkpt>
<trkpt lat="48.096279" lon="11.047435">
<ele>618.227</ele>
<time>2022-05-25T15:05:26Z</time>
</trkpt>
<trkpt lat="48.096268" lon="11.047487">
<ele>618.227</ele>
<time>2022-05-25T15:05:27Z</time>
</trkpt>
<trkpt lat="48.096256" lon="11.04754">
<ele>618.227</ele>
<time>2022-05-25T15:05:28Z</time>
</trkpt>
<trkpt lat="48.096249" lon="11.047602">
<ele>618.227</ele>
<time>2022-05-25T15:05:29Z</time>
</trkpt>
<trkpt lat="48.096237" lon="11.047664">
<ele>618.227</ele>
<time>2022-05-25T15:05:30Z</time>
</trkpt>
<trkpt lat="48.096237" lon="11.047724">
<ele>618.227</ele>
<time>2022-05-25T15:05:31Z</time>
</trkpt>
<trkpt lat="48.096237" lon="11.047785">
<ele>618.227</ele>
<time>2022-05-25T15:05:32Z</time>
</trkpt>
<trkpt lat="48.096237" lon="11.047845">
<ele>618.491</ele>
<time>2022-05-25T15:05:33Z</time>
</trkpt>
<trkpt lat="48.096237" lon="11.047904">
<ele>618.702</ele>
<time>2022-05-25T15:05:34Z</time>
</trkpt>
<trkpt lat="48.096241" lon="11.047963">
<ele>618.854</ele>
<time>2022-05-25T15:05:35Z</time>
</trkpt>
<trkpt lat="48.096237" lon="11.048026">
<ele>618.97</ele>
<time>2022-05-25T15:05:36Z</time>
</trkpt>
<trkpt lat="48.096226" lon="11.048085">
<ele>619.048</ele>
<time>2022-05-25T15:05:37Z</time>
</trkpt>
<trkpt lat="48.096203" lon="11.048145">
<ele>619.11</ele>
<time>2022-05-25T15:05:38Z</time>
</trkpt>
<trkpt lat="48.096184" lon="11.0482">
<ele>619.166</ele>
<time>2022-05-25T15:05:39Z</time>
</trkpt>
<trkpt lat="48.096157" lon="11.048259">
<ele>619.192</ele>
<time>2022-05-25T15:05:40Z</time>
</trkpt>
<trkpt lat="48.096138" lon="11.048315">
<ele>619.192</ele>
<time>2022-05-25T15:05:41Z</time>
</trkpt>
<trkpt lat="48.096111" lon="11.048371">
<ele>619.192</ele>
<time>2022-05-25T15:05:42Z</time>
</trkpt>
<trkpt lat="48.0961" lon="11.04842">
<ele>619.192</ele>
<time>2022-05-25T15:05:43Z</time>
</trkpt>
<trkpt lat="48.096085" lon="11.04847">
<ele>619.192</ele>
<time>2022-05-25T15:05:44Z</time>
</trkpt>
<trkpt lat="48.096054" lon="11.048522">
<ele>619.192</ele>
<time>2022-05-25T15:05:45Z</time>
</trkpt>
<trkpt lat="48.096016" lon="11.04856">
<ele>619.431</ele>
<time>2022-05-25T15:05:46Z</time>
</trkpt>
<trkpt lat="48.095978" lon="11.048587">
<ele>619.621</ele>
<time>2022-05-25T15:05:47Z</time>
</trkpt>
<trkpt lat="48.095943" lon="11.048608">
<ele>619.75</ele>
<time>2022-05-25T15:05:48Z</time>
</trkpt>
<trkpt lat="48.095901" lon="11.048625">
<ele>619.896</ele>
<time>2022-05-25T15:05:49Z</time>
</trkpt>
<trkpt lat="48.095863" lon="11.04864">
<ele>620.008</ele>
<time>2022-05-25T15:05:50Z</time>
</trkpt>
<trkpt lat="48.095818" lon="11.04866">
<ele>620.092</ele>
<time>2022-05-25T15:05:51Z</time>
</trkpt>
<trkpt lat="48.095772" lon="11.048681">
<ele>620.136</ele>
<time>2022-05-25T15:05:52Z</time>
</trkpt>
<trkpt lat="48.095741" lon="11.048672">
<ele>620.157</ele>
<time>2022-05-25T15:05:53Z</time>
</trkpt>
<trkpt lat="48.095703" lon="11.048679">
<ele>620.157</ele>
<time>2022-05-25T15:05:54Z</time>
</trkpt>
<trkpt lat="48.09565" lon="11.048711">
<ele>620.157</ele>
<time>2022-05-25T15:05:55Z</time>
</trkpt>
<trkpt lat="48.095592" lon="11.048734">
<ele>620.157</ele>
<time>2022-05-25T15:05:56Z</time>
</trkpt>
<trkpt lat="48.095547" lon="11.048757">
<ele>620.157</ele>
<time>2022-05-25T15:05:57Z</time>
</trkpt>
<trkpt lat="48.095501" lon="11.048782">
<ele>620.157</ele>
<time>2022-05-25T15:05:58Z</time>
</trkpt>
<trkpt lat="48.095455" lon="11.048805">
<ele>620.157</ele>
<time>2022-05-25T15:05:59Z</time>
</trkpt>
<trkpt lat="48.095413" lon="11.048833">
<ele>620.157</ele>
<time>2022-05-25T15:06:00Z</time>
</trkpt>
<trkpt lat="48.095364" lon="11.048857">
<ele>620.476</ele>
<time>2022-05-25T15:06:01Z</time>
</trkpt>
<trkpt lat="48.095318" lon="11.048882">
<ele>620.698</ele>
<time>2022-05-25T15:06:02Z</time>
</trkpt>
<trkpt lat="48.095272" lon="11.048902">
<ele>620.861</ele>
<time>2022-05-25T15:06:03Z</time>
</trkpt>
<trkpt lat="48.095226" lon="11.048912">
<ele>621</ele>
<time>2022-05-25T15:06:04Z</time>
</trkpt>
<trkpt lat="48.095181" lon="11.048919">
<ele>621.104</ele>
<time>2022-05-25T15:06:05Z</time>
</trkpt>
<trkpt lat="48.095135" lon="11.04893">
<ele>621.16</ele>
<time>2022-05-25T15:06:06Z</time>
</trkpt>
<trkpt lat="48.095089" lon="11.048935">
<ele>621.186</ele>
<time>2022-05-25T15:06:07Z</time>
</trkpt>
<trkpt lat="48.095036" lon="11.048942">
<ele>621.21</ele>
<time>2022-05-25T15:06:08Z</time>
</trkpt>
<trkpt lat="48.094986" lon="11.048948">
<ele>621.21</ele>
<time>2022-05-25T15:06:09Z</time>
</trkpt>
<trkpt lat="48.094936" lon="11.048952">
<ele>621.21</ele>
<time>2022-05-25T15:06:10Z</time>
</trkpt>
<trkpt lat="48.094891" lon="11.048956">
<ele>621.21</ele>
<time>2022-05-25T15:06:11Z</time>
</trkpt>
<trkpt lat="48.094837" lon="11.048962">
<ele>621.21</ele>
<time>2022-05-25T15:06:12Z</time>
</trkpt>
<trkpt lat="48.094791" lon="11.048966">
<ele>621.21</ele>
<time>2022-05-25T15:06:13Z</time>
</trkpt>
<trkpt lat="48.094746" lon="11.048979">
<ele>621.21</ele>
<time>2022-05-25T15:06:14Z</time>
</trkpt>
<trkpt lat="48.0947" lon="11.049002">
<ele>621.21</ele>
<time>2022-05-25T15:06:15Z</time>
</trkpt>
<trkpt lat="48.094646" lon="11.049022">
<ele>621.21</ele>
<time>2022-05-25T15:06:16Z</time>
</trkpt>
<trkpt lat="48.094601" lon="11.049033">
<ele>621.21</ele>
<time>2022-05-25T15:06:17Z</time>
</trkpt>
<trkpt lat="48.094555" lon="11.04905">
<ele>621.21</ele>
<time>2022-05-25T15:06:18Z</time>
</trkpt>
<trkpt lat="48.094509" lon="11.049063">
<ele>621.21</ele>
<time>2022-05-25T15:06:19Z</time>
</trkpt>
<trkpt lat="48.094463" lon="11.049084">
<ele>621.21</ele>
<time>2022-05-25T15:06:20Z</time>
</trkpt>
<trkpt lat="48.09441" lon="11.049111">
<ele>621.21</ele>
<time>2022-05-25T15:06:21Z</time>
</trkpt>
<trkpt lat="48.09436" lon="11.04914">
<ele>621.21</ele>
<time>2022-05-25T15:06:22Z</time>
</trkpt>
<trkpt lat="48.094318" lon="11.049165">
<ele>621.21</ele>
<time>2022-05-25T15:06:23Z</time>
</trkpt>
<trkpt lat="48.09428" lon="11.049193">
<ele>621.21</ele>
<time>2022-05-25T15:06:24Z</time>
</trkpt>
<trkpt lat="48.094231" lon="11.049234">
<ele>621.21</ele>
<time>2022-05-25T15:06:25Z</time>
</trkpt>
<trkpt lat="48.094177" lon="11.049273">
<ele>621.21</ele>
<time>2022-05-25T15:06:26Z</time>
</trkpt>
<trkpt lat="48.094124" lon="11.049314">
<ele>621.21</ele>
<time>2022-05-25T15:06:27Z</time>
</trkpt>
<trkpt lat="48.094074" lon="11.049362">
<ele>621.21</ele>
<time>2022-05-25T15:06:28Z</time>
</trkpt>
<trkpt lat="48.094021" lon="11.049409">
<ele>621.21</ele>
<time>2022-05-25T15:06:29Z</time>
</trkpt>
<trkpt lat="48.093975" lon="11.049469">
<ele>620.875</ele>
<time>2022-05-25T15:06:30Z</time>
</trkpt>
<trkpt lat="48.093922" lon="11.049541">
<ele>620.619</ele>
<time>2022-05-25T15:06:31Z</time>
</trkpt>
<trkpt lat="48.093864" lon="11.04963">
<ele>620.48</ele>
<time>2022-05-25T15:06:32Z</time>
</trkpt>
<trkpt lat="48.093803" lon="11.049726">
<ele>620.059</ele>
<time>2022-05-25T15:06:33Z</time>
</trkpt>
<trkpt lat="48.09375" lon="11.049836">
<ele>619.787</ele>
<time>2022-05-25T15:06:34Z</time>
</trkpt>
<trkpt lat="48.093693" lon="11.049938">
<ele>619.303</ele>
<time>2022-05-25T15:06:35Z</time>
</trkpt>
<trkpt lat="48.093643" lon="11.050047">
<ele>618.969</ele>
<time>2022-05-25T15:06:36Z</time>
</trkpt>
<trkpt lat="48.093594" lon="11.050145">
<ele>618.747</ele>
<time>2022-05-25T15:06:37Z</time>
</trkpt>
<trkpt lat="48.093555" lon="11.050237">
<ele>618.606</ele>
<time>2022-05-25T15:06:38Z</time>
</trkpt>
<trkpt lat="48.09351" lon="11.050324">
<ele>618.471</ele>
<time>2022-05-25T15:06:39Z</time>
</trkpt>
<trkpt lat="48.093464" lon="11.050412">
<ele>618.383</ele>
<time>2022-05-25T15:06:40Z</time>
</trkpt>
<trkpt lat="48.09343" lon="11.0505">
<ele>618.338</ele>
<time>2022-05-25T15:06:41Z</time>
</trkpt>
<trkpt lat="48.093391" lon="11.050587">
<ele>618.315</ele>
<time>2022-05-25T15:06:42Z</time>
</trkpt>
<trkpt lat="48.093353" lon="11.050668">
<ele>618.315</ele>
<time>2022-05-25T15:06:43Z</time>
</trkpt>
<trkpt lat="48.093315" lon="11.050745">
<ele>618.072</ele>
<time>2022-05-25T15:06:44Z</time>
</trkpt>
<trkpt lat="48.093273" lon="11.050836">
<ele>617.871</ele>
<time>2022-05-25T15:06:45Z</time>
</trkpt>
<trkpt lat="48.093235" lon="11.050936">
<ele>617.713</ele>
<time>2022-05-25T15:06:46Z</time>
</trkpt>
<trkpt lat="48.093197" lon="11.051033">
<ele>617.596</ele>
<time>2022-05-25T15:06:47Z</time>
</trkpt>
<trkpt lat="48.093155" lon="11.051128">
<ele>617.514</ele>
<time>2022-05-25T15:06:48Z</time>
</trkpt>
<trkpt lat="48.093105" lon="11.051223">
<ele>617.164</ele>
<time>2022-05-25T15:06:49Z</time>
</trkpt>
<trkpt lat="48.093063" lon="11.051319">
<ele>616.888</ele>
<time>2022-05-25T15:06:50Z</time>
</trkpt>
<trkpt lat="48.093014" lon="11.05141">
<ele>616.686</ele>
<time>2022-05-25T15:06:51Z</time>
</trkpt>
<trkpt lat="48.092964" lon="11.051496">
<ele>616.548</ele>
<time>2022-05-25T15:06:52Z</time>
</trkpt>
<trkpt lat="48.092911" lon="11.051571">
<ele>616.449</ele>
<time>2022-05-25T15:06:53Z</time>
</trkpt>
<trkpt lat="48.092857" lon="11.051628">
<ele>616.373</ele>
<time>2022-05-25T15:06:54Z</time>
</trkpt>
<trkpt lat="48.092804" lon="11.051665">
<ele>616.322</ele>
<time>2022-05-25T15:06:55Z</time>
</trkpt>
<trkpt lat="48.092754" lon="11.051692">
<ele>616.298</ele>
<time>2022-05-25T15:06:56Z</time>
</trkpt>
<trkpt lat="48.092712" lon="11.051728">
<ele>616.298</ele>
<time>2022-05-25T15:06:57Z</time>
</trkpt>
<trkpt lat="48.092667" lon="11.051772">
<ele>616.297</ele>
<time>2022-05-25T15:06:58Z</time>
</trkpt>
<trkpt lat="48.092621" lon="11.051815">
<ele>616.298</ele>
<time>2022-05-25T15:06:59Z</time>
</trkpt>
<trkpt lat="48.092587" lon="11.051857">
<ele>616.558</ele>
<time>2022-05-25T15:07:00Z</time>
</trkpt>
<trkpt lat="48.092552" lon="11.051897">
<ele>616.775</ele>
<time>2022-05-25T15:07:01Z</time>
</trkpt>
<trkpt lat="48.092518" lon="11.05194">
<ele>616.924</ele>
<time>2022-05-25T15:07:02Z</time>
</trkpt>
<trkpt lat="48.092495" lon="11.051973">
<ele>617.291</ele>
<time>2022-05-25T15:07:03Z</time>
</trkpt>
<trkpt lat="48.092476" lon="11.052005">
<ele>617.572</ele>
<time>2022-05-25T15:07:04Z</time>
</trkpt>
<trkpt lat="48.092461" lon="11.052044">
<ele>617.745</ele>
<time>2022-05-25T15:07:05Z</time>
</trkpt>
<trkpt lat="48.092442" lon="11.052085">
<ele>618.143</ele>
<time>2022-05-25T15:07:06Z</time>
</trkpt>
<trkpt lat="48.092411" lon="11.052136">
<ele>618.414</ele>
<time>2022-05-25T15:07:07Z</time>
</trkpt>
<trkpt lat="48.092392" lon="11.052172">
<ele>618.898</ele>
<time>2022-05-25T15:07:08Z</time>
</trkpt>
<trkpt lat="48.092365" lon="11.052214">
<ele>619.333</ele>
<time>2022-05-25T15:07:09Z</time>
</trkpt>
<trkpt lat="48.092339" lon="11.052257">
<ele>619.64</ele>
<time>2022-05-25T15:07:10Z</time>
</trkpt>
<trkpt lat="48.092312" lon="11.052305">
<ele>620.189</ele>
<time>2022-05-25T15:07:11Z</time>
</trkpt>
<trkpt lat="48.092289" lon="11.052365">
<ele>620.532</ele>
<time>2022-05-25T15:07:12Z</time>
</trkpt>
<trkpt lat="48.09227" lon="11.052419">
<ele>621.069</ele>
<time>2022-05-25T15:07:13Z</time>
</trkpt>
<trkpt lat="48.092258" lon="11.052465">
<ele>621.449</ele>
<time>2022-05-25T15:07:14Z</time>
</trkpt>
<trkpt lat="48.092239" lon="11.052522">
<ele>621.695</ele>
<time>2022-05-25T15:07:15Z</time>
</trkpt>
<trkpt lat="48.092232" lon="11.052572">
<ele>622.19</ele>
<time>2022-05-25T15:07:16Z</time>
</trkpt>
<trkpt lat="48.092224" lon="11.052618">
<ele>622.443</ele>
<time>2022-05-25T15:07:17Z</time>
</trkpt>
<trkpt lat="48.092201" lon="11.052677">
<ele>622.892</ele>
<time>2022-05-25T15:07:18Z</time>
</trkpt>
<trkpt lat="48.092182" lon="11.052727">
<ele>623.268</ele>
<time>2022-05-25T15:07:19Z</time>
</trkpt>
<trkpt lat="48.092159" lon="11.052777">
<ele>623.536</ele>
<time>2022-05-25T15:07:20Z</time>
</trkpt>
<trkpt lat="48.092136" lon="11.052812">
<ele>624.005</ele>
<time>2022-05-25T15:07:21Z</time>
</trkpt>
<trkpt lat="48.09211" lon="11.052855">
<ele>624.37</ele>
<time>2022-05-25T15:07:22Z</time>
</trkpt>
<trkpt lat="48.092083" lon="11.052907">
<ele>624.586</ele>
<time>2022-05-25T15:07:23Z</time>
</trkpt>
<trkpt lat="48.092052" lon="11.052958">
<ele>625.042</ele>
<time>2022-05-25T15:07:24Z</time>
</trkpt>
<trkpt lat="48.09203" lon="11.053001">
<ele>625.366</ele>
<time>2022-05-25T15:07:25Z</time>
</trkpt>
<trkpt lat="48.092003" lon="11.053048">
<ele>625.632</ele>
<time>2022-05-25T15:07:26Z</time>
</trkpt>
<trkpt lat="48.091976" lon="11.053094">
<ele>625.749</ele>
<time>2022-05-25T15:07:27Z</time>
</trkpt>
<trkpt lat="48.091957" lon="11.053133">
<ele>626.081</ele>
<time>2022-05-25T15:07:28Z</time>
</trkpt>
<trkpt lat="48.091923" lon="11.053203">
<ele>626.357</ele>
<time>2022-05-25T15:07:29Z</time>
</trkpt>
<trkpt lat="48.091892" lon="11.053259">
<ele>626.543</ele>
<time>2022-05-25T15:07:30Z</time>
</trkpt>
<trkpt lat="48.091873" lon="11.053318">
<ele>626.69</ele>
<time>2022-05-25T15:07:31Z</time>
</trkpt>
<trkpt lat="48.091843" lon="11.053373">
<ele>626.785</ele>
<time>2022-05-25T15:07:32Z</time>
</trkpt>
<trkpt lat="48.091824" lon="11.053421">
<ele>626.856</ele>
<time>2022-05-25T15:07:33Z</time>
</trkpt>
<trkpt lat="48.091793" lon="11.053471">
<ele>626.896</ele>
<time>2022-05-25T15:07:34Z</time>
</trkpt>
<trkpt lat="48.09177" lon="11.053512">
<ele>626.915</ele>
<time>2022-05-25T15:07:35Z</time>
</trkpt>
<trkpt lat="48.091751" lon="11.053567">
<ele>626.915</ele>
<time>2022-05-25T15:07:36Z</time>
</trkpt>
<trkpt lat="48.091732" lon="11.053616">
<ele>626.915</ele>
<time>2022-05-25T15:07:37Z</time>
</trkpt>
<trkpt lat="48.091705" lon="11.053661">
<ele>626.915</ele>
<time>2022-05-25T15:07:38Z</time>
</trkpt>
<trkpt lat="48.091675" lon="11.05371">
<ele>626.915</ele>
<time>2022-05-25T15:07:39Z</time>
</trkpt>
<trkpt lat="48.091637" lon="11.05376">
<ele>626.915</ele>
<time>2022-05-25T15:07:40Z</time>
</trkpt>
<trkpt lat="48.091602" lon="11.053794">
<ele>626.915</ele>
<time>2022-05-25T15:07:41Z</time>
</trkpt>
<trkpt lat="48.091564" lon="11.053831">
<ele>626.915</ele>
<time>2022-05-25T15:07:42Z</time>
</trkpt>
<trkpt lat="48.091537" lon="11.053869">
<ele>626.915</ele>
<time>2022-05-25T15:07:43Z</time>
</trkpt>
<trkpt lat="48.091507" lon="11.053894">
<ele>626.915</ele>
<time>2022-05-25T15:07:44Z</time>
</trkpt>
<trkpt lat="48.091469" lon="11.053938">
<ele>626.915</ele>
<time>2022-05-25T15:07:45Z</time>
</trkpt>
<trkpt lat="48.091419" lon="11.053988">
<ele>626.915</ele>
<time>2022-05-25T15:07:46Z</time>
</trkpt>
<trkpt lat="48.091389" lon="11.05403">
<ele>626.915</ele>
<time>2022-05-25T15:07:47Z</time>
</trkpt>
<trkpt lat="48.09137" lon="11.054078">
<ele>627.13</ele>
<time>2022-05-25T15:07:48Z</time>
</trkpt>
<trkpt lat="48.091354" lon="11.054116">
<ele>627.335</ele>
<time>2022-05-25T15:07:49Z</time>
</trkpt>
<trkpt lat="48.091339" lon="11.054156">
<ele>627.499</ele>
<time>2022-05-25T15:07:50Z</time>
</trkpt>
<trkpt lat="48.091312" lon="11.054202">
<ele>627.635</ele>
<time>2022-05-25T15:07:51Z</time>
</trkpt>
<trkpt lat="48.091286" lon="11.054248">
<ele>627.731</ele>
<time>2022-05-25T15:07:52Z</time>
</trkpt>
<trkpt lat="48.091259" lon="11.054296">
<ele>627.792</ele>
<time>2022-05-25T15:07:53Z</time>
</trkpt>
<trkpt lat="48.091228" lon="11.054343">
<ele>627.849</ele>
<time>2022-05-25T15:07:54Z</time>
</trkpt>
<trkpt lat="48.091187" lon="11.054393">
<ele>627.88</ele>
<time>2022-05-25T15:07:55Z</time>
</trkpt>
<trkpt lat="48.091141" lon="11.054441">
<ele>627.88</ele>
<time>2022-05-25T15:07:56Z</time>
</trkpt>
<trkpt lat="48.091095" lon="11.054477">
<ele>627.88</ele>
<time>2022-05-25T15:07:57Z</time>
</trkpt>
<trkpt lat="48.091064" lon="11.05451">
<ele>628.113</ele>
<time>2022-05-25T15:07:58Z</time>
</trkpt>
<trkpt lat="48.09103" lon="11.054546">
<ele>628.313</ele>
<time>2022-05-25T15:07:59Z</time>
</trkpt>
<trkpt lat="48.091" lon="11.054579">
<ele>628.474</ele>
<time>2022-05-25T15:08:00Z</time>
</trkpt>
<trkpt lat="48.090958" lon="11.054613">
<ele>628.599</ele>
<time>2022-05-25T15:08:01Z</time>
</trkpt>
<trkpt lat="48.090881" lon="11.054707">
<ele>628.699</ele>
<time>2022-05-25T15:08:02Z</time>
</trkpt>
<trkpt lat="48.090824" lon="11.054758">
<ele>628.769</ele>
<time>2022-05-25T15:08:03Z</time>
</trkpt>
<trkpt lat="48.090771" lon="11.054808">
<ele>628.82</ele>
<time>2022-05-25T15:08:04Z</time>
</trkpt>
<trkpt lat="48.090717" lon="11.054855">
<ele>628.846</ele>
<time>2022-05-25T15:08:05Z</time>
</trkpt>
<trkpt lat="48.09066" lon="11.054905">
<ele>628.846</ele>
<time>2022-05-25T15:08:06Z</time>
</trkpt>
<trkpt lat="48.090611" lon="11.054946">
<ele>628.846</ele>
<time>2022-05-25T15:08:07Z</time>
</trkpt>
<trkpt lat="48.090561" lon="11.054992">
<ele>629.046</ele>
<time>2022-05-25T15:08:08Z</time>
</trkpt>
<trkpt lat="48.090515" lon="11.05504">
<ele>629.216</ele>
<time>2022-05-25T15:08:09Z</time>
</trkpt>
<trkpt lat="48.090469" lon="11.055083">
<ele>629.348</ele>
<time>2022-05-25T15:08:10Z</time>
</trkpt>
<trkpt lat="48.090424" lon="11.055128">
<ele>629.49</ele>
<time>2022-05-25T15:08:11Z</time>
</trkpt>
<trkpt lat="48.090374" lon="11.055175">
<ele>629.584</ele>
<time>2022-05-25T15:08:12Z</time>
</trkpt>
<trkpt lat="48.090336" lon="11.055222">
<ele>629.656</ele>
<time>2022-05-25T15:08:13Z</time>
</trkpt>
<trkpt lat="48.090294" lon="11.055268">
<ele>629.701</ele>
<time>2022-05-25T15:08:14Z</time>
</trkpt>
<trkpt lat="48.090252" lon="11.055322">
<ele>629.72</ele>
<time>2022-05-25T15:08:15Z</time>
</trkpt>
<trkpt lat="48.09021" lon="11.055377">
<ele>629.487</ele>
<time>2022-05-25T15:08:16Z</time>
</trkpt>
<trkpt lat="48.090172" lon="11.055422">
<ele>629.297</ele>
<time>2022-05-25T15:08:17Z</time>
</trkpt>
<trkpt lat="48.090137" lon="11.05547">
<ele>629.165</ele>
<time>2022-05-25T15:08:18Z</time>
</trkpt>
<trkpt lat="48.090103" lon="11.055518">
<ele>629.025</ele>
<time>2022-05-25T15:08:19Z</time>
</trkpt>
<trkpt lat="48.090069" lon="11.055572">
<ele>628.913</ele>
<time>2022-05-25T15:08:20Z</time>
</trkpt>
<trkpt lat="48.090027" lon="11.055623">
<ele>628.833</ele>
<time>2022-05-25T15:08:21Z</time>
</trkpt>
<trkpt lat="48.089989" lon="11.055675">
<ele>628.782</ele>
<time>2022-05-25T15:08:22Z</time>
</trkpt>
<trkpt lat="48.089947" lon="11.05573">
<ele>628.758</ele>
<time>2022-05-25T15:08:23Z</time>
</trkpt>
<trkpt lat="48.089905" lon="11.055786">
<ele>628.758</ele>
<time>2022-05-25T15:08:24Z</time>
</trkpt>
<trkpt lat="48.089863" lon="11.055843">
<ele>628.758</ele>
<time>2022-05-25T15:08:25Z</time>
</trkpt>
<trkpt lat="48.089821" lon="11.0559">
<ele>628.509</ele>
<time>2022-05-25T15:08:26Z</time>
</trkpt>
<trkpt lat="48.089779" lon="11.05596">
<ele>628.316</ele>
<time>2022-05-25T15:08:27Z</time>
</trkpt>
<trkpt lat="48.089737" lon="11.056017">
<ele>628.187</ele>
<time>2022-05-25T15:08:28Z</time>
</trkpt>
<trkpt lat="48.089687" lon="11.056071">
<ele>628.047</ele>
<time>2022-05-25T15:08:29Z</time>
</trkpt>
<trkpt lat="48.089638" lon="11.056122">
<ele>627.949</ele>
<time>2022-05-25T15:08:30Z</time>
</trkpt>
<trkpt lat="48.089588" lon="11.056169">
<ele>627.631</ele>
<time>2022-05-25T15:08:31Z</time>
</trkpt>
<trkpt lat="48.089539" lon="11.056217">
<ele>627.38</ele>
<time>2022-05-25T15:08:32Z</time>
</trkpt>
<trkpt lat="48.089485" lon="11.056264">
<ele>627.223</ele>
<time>2022-05-25T15:08:33Z</time>
</trkpt>
<trkpt lat="48.08942" lon="11.056312">
<ele>626.785</ele>
<time>2022-05-25T15:08:34Z</time>
</trkpt>
<trkpt lat="48.089359" lon="11.056364">
<ele>626.514</ele>
<time>2022-05-25T15:08:35Z</time>
</trkpt>
<trkpt lat="48.089294" lon="11.056417">
<ele>626.317</ele>
<time>2022-05-25T15:08:36Z</time>
</trkpt>
<trkpt lat="48.089237" lon="11.056474">
<ele>626.21</ele>
<time>2022-05-25T15:08:37Z</time>
</trkpt>
<trkpt lat="48.08918" lon="11.056534">
<ele>625.865</ele>
<time>2022-05-25T15:08:38Z</time>
</trkpt>
<trkpt lat="48.089119" lon="11.056597">
<ele>625.601</ele>
<time>2022-05-25T15:08:39Z</time>
</trkpt>
<trkpt lat="48.089062" lon="11.056672">
<ele>625.139</ele>
<time>2022-05-25T15:08:40Z</time>
</trkpt>
<trkpt lat="48.089005" lon="11.056753">
<ele>624.833</ele>
<time>2022-05-25T15:08:41Z</time>
</trkpt>
<trkpt lat="48.088951" lon="11.056842">
<ele>624.293</ele>
<time>2022-05-25T15:08:42Z</time>
</trkpt>
<trkpt lat="48.088894" lon="11.056933">
<ele>623.86</ele>
<time>2022-05-25T15:08:43Z</time>
</trkpt>
<trkpt lat="48.088837" lon="11.057025">
<ele>623.576</ele>
<time>2022-05-25T15:08:44Z</time>
</trkpt>
<trkpt lat="48.088779" lon="11.057118">
<ele>623.067</ele>
<time>2022-05-25T15:08:45Z</time>
</trkpt>
<trkpt lat="48.088726" lon="11.057215">
<ele>622.653</ele>
<time>2022-05-25T15:08:46Z</time>
</trkpt>
<trkpt lat="48.088669" lon="11.057309">
<ele>622.476</ele>
<time>2022-05-25T15:08:47Z</time>
</trkpt>
<trkpt lat="48.088608" lon="11.057397">
<ele>622.091</ele>
<time>2022-05-25T15:08:48Z</time>
</trkpt>
<trkpt lat="48.088551" lon="11.057482">
<ele>621.769</ele>
<time>2022-05-25T15:08:49Z</time>
</trkpt>
<trkpt lat="48.08849" lon="11.057565">
<ele>621.542</ele>
<time>2022-05-25T15:08:50Z</time>
</trkpt>
<trkpt lat="48.088436" lon="11.057649">
<ele>621.373</ele>
<time>2022-05-25T15:08:51Z</time>
</trkpt>
<trkpt lat="48.088379" lon="11.057728">
<ele>621.254</ele>
<time>2022-05-25T15:08:52Z</time>
</trkpt>
<trkpt lat="48.088326" lon="11.057801">
<ele>621.187</ele>
<time>2022-05-25T15:08:53Z</time>
</trkpt>
<trkpt lat="48.088272" lon="11.05787">
<ele>621.143</ele>
<time>2022-05-25T15:08:55Z</time>
</trkpt>
<trkpt lat="48.088184" lon="11.057999">
<ele>621.122</ele>
<time>2022-05-25T15:08:56Z</time>
</trkpt>
<trkpt lat="48.088142" lon="11.058051">
<ele>621.122</ele>
<time>2022-05-25T15:08:57Z</time>
</trkpt>
<trkpt lat="48.088093" lon="11.058097">
<ele>621.122</ele>
<time>2022-05-25T15:08:58Z</time>
</trkpt>
<trkpt lat="48.088051" lon="11.058146">
<ele>621.122</ele>
<time>2022-05-25T15:08:59Z</time>
</trkpt>
<trkpt lat="48.088001" lon="11.058189">
<ele>621.122</ele>
<time>2022-05-25T15:09:00Z</time>
</trkpt>
<trkpt lat="48.087952" lon="11.058237">
<ele>621.122</ele>
<time>2022-05-25T15:09:01Z</time>
</trkpt>
<trkpt lat="48.087906" lon="11.058273">
<ele>621.359</ele>
<time>2022-05-25T15:09:02Z</time>
</trkpt>
<trkpt lat="48.08786" lon="11.058307">
<ele>621.551</ele>
<time>2022-05-25T15:09:03Z</time>
</trkpt>
<trkpt lat="48.087818" lon="11.058338">
<ele>621.698</ele>
<time>2022-05-25T15:09:04Z</time>
</trkpt>
<trkpt lat="48.087772" lon="11.058363">
<ele>621.807</ele>
<time>2022-05-25T15:09:05Z</time>
</trkpt>
<trkpt lat="48.087723" lon="11.058394">
<ele>621.886</ele>
<time>2022-05-25T15:09:06Z</time>
</trkpt>
<trkpt lat="48.087681" lon="11.058418">
<ele>621.933</ele>
<time>2022-05-25T15:09:07Z</time>
</trkpt>
<trkpt lat="48.087635" lon="11.058445">
<ele>621.974</ele>
<time>2022-05-25T15:09:08Z</time>
</trkpt>
<trkpt lat="48.087593" lon="11.058478">
<ele>622.248</ele>
<time>2022-05-25T15:09:09Z</time>
</trkpt>
<trkpt lat="48.087555" lon="11.058507">
<ele>622.464</ele>
<time>2022-05-25T15:09:10Z</time>
</trkpt>
<trkpt lat="48.087517" lon="11.058537">
<ele>622.64</ele>
<time>2022-05-25T15:09:11Z</time>
</trkpt>
<trkpt lat="48.087475" lon="11.058566">
<ele>622.782</ele>
<time>2022-05-25T15:09:12Z</time>
</trkpt>
<trkpt lat="48.087437" lon="11.058594">
<ele>622.89</ele>
<time>2022-05-25T15:09:13Z</time>
</trkpt>
<trkpt lat="48.087391" lon="11.058625">
<ele>622.971</ele>
<time>2022-05-25T15:09:15Z</time>
</trkpt>
<trkpt lat="48.087303" lon="11.058675">
<ele>623.053</ele>
<time>2022-05-25T15:09:16Z</time>
</trkpt>
<trkpt lat="48.087254" lon="11.058695">
<ele>623.053</ele>
<time>2022-05-25T15:09:17Z</time>
</trkpt>
<trkpt lat="48.087208" lon="11.058708">
<ele>623.053</ele>
<time>2022-05-25T15:09:18Z</time>
</trkpt>
<trkpt lat="48.08717" lon="11.058711">
<ele>623.289</ele>
<time>2022-05-25T15:09:19Z</time>
</trkpt>
<trkpt lat="48.087124" lon="11.058717">
<ele>623.482</ele>
<time>2022-05-25T15:09:20Z</time>
</trkpt>
<trkpt lat="48.087078" lon="11.05872">
<ele>623.643</ele>
<time>2022-05-25T15:09:21Z</time>
</trkpt>
<trkpt lat="48.087036" lon="11.058727">
<ele>623.767</ele>
<time>2022-05-25T15:09:22Z</time>
</trkpt>
<trkpt lat="48.08699" lon="11.058743">
<ele>623.87</ele>
<time>2022-05-25T15:09:23Z</time>
</trkpt>
<trkpt lat="48.086945" lon="11.058768">
<ele>623.946</ele>
<time>2022-05-25T15:09:24Z</time>
</trkpt>
<trkpt lat="48.086895" lon="11.058792">
<ele>623.995</ele>
<time>2022-05-25T15:09:25Z</time>
</trkpt>
<trkpt lat="48.086845" lon="11.058813">
<ele>624.018</ele>
<time>2022-05-25T15:09:26Z</time>
</trkpt>
<trkpt lat="48.0868" lon="11.058833">
<ele>624.018</ele>
<time>2022-05-25T15:09:27Z</time>
</trkpt>
<trkpt lat="48.08675" lon="11.058857">
<ele>624.018</ele>
<time>2022-05-25T15:09:28Z</time>
</trkpt>
<trkpt lat="48.086693" lon="11.05888">
<ele>624.018</ele>
<time>2022-05-25T15:09:29Z</time>
</trkpt>
<trkpt lat="48.086643" lon="11.058897">
<ele>624.018</ele>
<time>2022-05-25T15:09:30Z</time>
</trkpt>
<trkpt lat="48.086594" lon="11.058923">
<ele>624.018</ele>
<time>2022-05-25T15:09:31Z</time>
</trkpt>
<trkpt lat="48.086544" lon="11.058955">
<ele>624.018</ele>
<time>2022-05-25T15:09:32Z</time>
</trkpt>
<trkpt lat="48.086483" lon="11.058981">
<ele>623.751</ele>
<time>2022-05-25T15:09:33Z</time>
</trkpt>
<trkpt lat="48.086422" lon="11.059015">
<ele>623.541</ele>
<time>2022-05-25T15:09:34Z</time>
</trkpt>
<trkpt lat="48.086369" lon="11.059054">
<ele>623.383</ele>
<time>2022-05-25T15:09:35Z</time>
</trkpt>
<trkpt lat="48.086311" lon="11.059086">
<ele>623.269</ele>
<time>2022-05-25T15:09:36Z</time>
</trkpt>
<trkpt lat="48.086258" lon="11.059123">
<ele>623.186</ele>
<time>2022-05-25T15:09:37Z</time>
</trkpt>
<trkpt lat="48.086197" lon="11.059161">
<ele>623.127</ele>
<time>2022-05-25T15:09:38Z</time>
</trkpt>
<trkpt lat="48.086147" lon="11.0592">
<ele>623.076</ele>
<time>2022-05-25T15:09:39Z</time>
</trkpt>
<trkpt lat="48.086098" lon="11.059233">
<ele>623.053</ele>
<time>2022-05-25T15:09:40Z</time>
</trkpt>
<trkpt lat="48.086048" lon="11.059261">
<ele>623.053</ele>
<time>2022-05-25T15:09:41Z</time>
</trkpt>
<trkpt lat="48.085999" lon="11.059292">
<ele>623.053</ele>
<time>2022-05-25T15:09:42Z</time>
</trkpt>
<trkpt lat="48.085964" lon="11.059303">
<ele>623.053</ele>
<time>2022-05-25T15:09:43Z</time>
</trkpt>
<trkpt lat="48.085926" lon="11.059325">
<ele>623.053</ele>
<time>2022-05-25T15:09:44Z</time>
</trkpt>
<trkpt lat="48.085876" lon="11.059362">
<ele>623.053</ele>
<time>2022-05-25T15:09:45Z</time>
</trkpt>
<trkpt lat="48.085835" lon="11.059397">
<ele>623.053</ele>
<time>2022-05-25T15:09:46Z</time>
</trkpt>
<trkpt lat="48.085781" lon="11.059442">
<ele>623.053</ele>
<time>2022-05-25T15:09:47Z</time>
</trkpt>
<trkpt lat="48.085739" lon="11.059478">
<ele>623.053</ele>
<time>2022-05-25T15:09:48Z</time>
</trkpt>
<trkpt lat="48.08569" lon="11.059525">
<ele>623.053</ele>
<time>2022-05-25T15:09:49Z</time>
</trkpt>
<trkpt lat="48.085644" lon="11.059576">
<ele>623.053</ele>
<time>2022-05-25T15:09:50Z</time>
</trkpt>
<trkpt lat="48.085602" lon="11.059635">
<ele>623.053</ele>
<time>2022-05-25T15:09:51Z</time>
</trkpt>
<trkpt lat="48.08556" lon="11.059693">
<ele>623.053</ele>
<time>2022-05-25T15:09:52Z</time>
</trkpt>
<trkpt lat="48.085518" lon="11.059748">
<ele>623.053</ele>
<time>2022-05-25T15:09:53Z</time>
</trkpt>
<trkpt lat="48.08548" lon="11.059803">
<ele>623.053</ele>
<time>2022-05-25T15:09:54Z</time>
</trkpt>
<trkpt lat="48.085438" lon="11.059861">
<ele>623.053</ele>
<time>2022-05-25T15:09:55Z</time>
</trkpt>
<trkpt lat="48.0854" lon="11.059917">
<ele>623.292</ele>
<time>2022-05-25T15:09:56Z</time>
</trkpt>
<trkpt lat="48.085361" lon="11.059966">
<ele>623.479</ele>
<time>2022-05-25T15:09:57Z</time>
</trkpt>
<trkpt lat="48.08532" lon="11.060022">
<ele>623.611</ele>
<time>2022-05-25T15:09:58Z</time>
</trkpt>
<trkpt lat="48.085281" lon="11.060073">
<ele>623.752</ele>
<time>2022-05-25T15:09:59Z</time>
</trkpt>
<trkpt lat="48.085243" lon="11.060133">
<ele>623.862</ele>
<time>2022-05-25T15:10:00Z</time>
</trkpt>
<trkpt lat="48.085205" lon="11.06019">
<ele>623.938</ele>
<time>2022-05-25T15:10:01Z</time>
</trkpt>
<trkpt lat="48.085171" lon="11.060246">
<ele>624.225</ele>
<time>2022-05-25T15:10:02Z</time>
</trkpt>
<trkpt lat="48.085136" lon="11.060302">
<ele>624.446</ele>
<time>2022-05-25T15:10:03Z</time>
</trkpt>
<trkpt lat="48.085098" lon="11.060358">
<ele>624.657</ele>
<time>2022-05-25T15:10:04Z</time>
</trkpt>
<trkpt lat="48.085064" lon="11.060418">
<ele>624.776</ele>
<time>2022-05-25T15:10:05Z</time>
</trkpt>
<trkpt lat="48.085022" lon="11.060477">
<ele>624.857</ele>
<time>2022-05-25T15:10:06Z</time>
</trkpt>
<trkpt lat="48.084988" lon="11.060532">
<ele>624.913</ele>
<time>2022-05-25T15:10:07Z</time>
</trkpt>
<trkpt lat="48.084953" lon="11.060582">
<ele>624.955</ele>
<time>2022-05-25T15:10:08Z</time>
</trkpt>
<trkpt lat="48.084923" lon="11.06063">
<ele>624.983</ele>
<time>2022-05-25T15:10:09Z</time>
</trkpt>
<trkpt lat="48.084888" lon="11.06068">
<ele>624.983</ele>
<time>2022-05-25T15:10:10Z</time>
</trkpt>
<trkpt lat="48.084858" lon="11.060728">
<ele>624.983</ele>
<time>2022-05-25T15:10:11Z</time>
</trkpt>
<trkpt lat="48.084824" lon="11.060775">
<ele>625.243</ele>
<time>2022-05-25T15:10:12Z</time>
</trkpt>
<trkpt lat="48.084793" lon="11.060823">
<ele>625.448</ele>
<time>2022-05-25T15:10:13Z</time>
</trkpt>
<trkpt lat="48.084759" lon="11.060871">
<ele>625.613</ele>
<time>2022-05-25T15:10:15Z</time>
</trkpt>
<trkpt lat="48.084698" lon="11.060968">
<ele>625.822</ele>
<time>2022-05-25T15:10:16Z</time>
</trkpt>
<trkpt lat="48.084667" lon="11.061013">
<ele>625.878</ele>
<time>2022-05-25T15:10:17Z</time>
</trkpt>
<trkpt lat="48.084633" lon="11.061062">
<ele>625.921</ele>
<time>2022-05-25T15:10:18Z</time>
</trkpt>
<trkpt lat="48.084602" lon="11.061108">
<ele>626.162</ele>
<time>2022-05-25T15:10:19Z</time>
</trkpt>
<trkpt lat="48.084568" lon="11.061155">
<ele>626.343</ele>
<time>2022-05-25T15:10:20Z</time>
</trkpt>
<trkpt lat="48.084538" lon="11.0612">
<ele>626.488</ele>
<time>2022-05-25T15:10:21Z</time>
</trkpt>
<trkpt lat="48.084511" lon="11.061245">
<ele>626.606</ele>
<time>2022-05-25T15:10:22Z</time>
</trkpt>
<trkpt lat="48.08448" lon="11.06129">
<ele>626.697</ele>
<time>2022-05-25T15:10:23Z</time>
</trkpt>
<trkpt lat="48.08445" lon="11.061336">
<ele>626.764</ele>
<time>2022-05-25T15:10:25Z</time>
</trkpt>
<trkpt lat="48.084393" lon="11.061421">
<ele>626.827</ele>
<time>2022-05-25T15:10:26Z</time>
</trkpt>
<trkpt lat="48.084362" lon="11.061466">
<ele>626.827</ele>
<time>2022-05-25T15:10:27Z</time>
</trkpt>
<trkpt lat="48.084332" lon="11.06151">
<ele>626.827</ele>
<time>2022-05-25T15:10:28Z</time>
</trkpt>
<trkpt lat="48.084297" lon="11.061556">
<ele>626.827</ele>
<time>2022-05-25T15:10:29Z</time>
</trkpt>
<trkpt lat="48.084263" lon="11.061604">
<ele>626.827</ele>
<time>2022-05-25T15:10:30Z</time>
</trkpt>
<trkpt lat="48.084225" lon="11.061657">
<ele>626.827</ele>
<time>2022-05-25T15:10:31Z</time>
</trkpt>
<trkpt lat="48.084187" lon="11.06171">
<ele>626.827</ele>
<time>2022-05-25T15:10:32Z</time>
</trkpt>
<trkpt lat="48.084148" lon="11.061766">
<ele>626.827</ele>
<time>2022-05-25T15:10:33Z</time>
</trkpt>
<trkpt lat="48.08411" lon="11.061822">
<ele>626.827</ele>
<time>2022-05-25T15:10:34Z</time>
</trkpt>
<trkpt lat="48.084072" lon="11.061881">
<ele>626.827</ele>
<time>2022-05-25T15:10:35Z</time>
</trkpt>
<trkpt lat="48.084034" lon="11.061943">
<ele>626.827</ele>
<time>2022-05-25T15:10:36Z</time>
</trkpt>
<trkpt lat="48.083988" lon="11.062007">
<ele>626.827</ele>
<time>2022-05-25T15:10:37Z</time>
</trkpt>
<trkpt lat="48.083946" lon="11.06207">
<ele>626.827</ele>
<time>2022-05-25T15:10:38Z</time>
</trkpt>
<trkpt lat="48.0839" lon="11.062132">
<ele>626.827</ele>
<time>2022-05-25T15:10:39Z</time>
</trkpt>
<trkpt lat="48.083855" lon="11.062195">
<ele>626.827</ele>
<time>2022-05-25T15:10:40Z</time>
</trkpt>
<trkpt lat="48.083809" lon="11.062258">
<ele>626.827</ele>
<time>2022-05-25T15:10:41Z</time>
</trkpt>
<trkpt lat="48.083759" lon="11.062322">
<ele>626.827</ele>
<time>2022-05-25T15:10:42Z</time>
</trkpt>
<trkpt lat="48.083714" lon="11.062386">
<ele>626.583</ele>
<time>2022-05-25T15:10:43Z</time>
</trkpt>
<trkpt lat="48.083664" lon="11.062452">
<ele>626.394</ele>
<time>2022-05-25T15:10:44Z</time>
</trkpt>
<trkpt lat="48.083618" lon="11.062517">
<ele>626.255</ele>
<time>2022-05-25T15:10:45Z</time>
</trkpt>
<trkpt lat="48.083565" lon="11.06258">
<ele>626.149</ele>
<time>2022-05-25T15:10:46Z</time>
</trkpt>
<trkpt lat="48.083515" lon="11.062641">
<ele>626.074</ele>
<time>2022-05-25T15:10:47Z</time>
</trkpt>
<trkpt lat="48.083462" lon="11.062704">
<ele>626.02</ele>
<time>2022-05-25T15:10:48Z</time>
</trkpt>
<trkpt lat="48.083408" lon="11.062765">
<ele>625.972</ele>
<time>2022-05-25T15:10:49Z</time>
</trkpt>
<trkpt lat="48.083355" lon="11.062823">
<ele>625.949</ele>
<time>2022-05-25T15:10:50Z</time>
</trkpt>
<trkpt lat="48.083302" lon="11.062879">
<ele>625.641</ele>
<time>2022-05-25T15:10:51Z</time>
</trkpt>
<trkpt lat="48.083248" lon="11.062932">
<ele>625.408</ele>
<time>2022-05-25T15:10:52Z</time>
</trkpt>
<trkpt lat="48.083195" lon="11.062984">
<ele>625.227</ele>
<time>2022-05-25T15:10:53Z</time>
</trkpt>
<trkpt lat="48.083134" lon="11.063033">
<ele>625.095</ele>
<time>2022-05-25T15:10:54Z</time>
</trkpt>
<trkpt lat="48.083076" lon="11.063086">
<ele>625.004</ele>
<time>2022-05-25T15:10:55Z</time>
</trkpt>
<trkpt lat="48.083027" lon="11.063142">
<ele>624.951</ele>
<time>2022-05-25T15:10:56Z</time>
</trkpt>
<trkpt lat="48.082973" lon="11.063202">
<ele>624.925</ele>
<time>2022-05-25T15:10:57Z</time>
</trkpt>
<trkpt lat="48.082924" lon="11.063257">
<ele>624.622</ele>
<time>2022-05-25T15:10:58Z</time>
</trkpt>
<trkpt lat="48.082878" lon="11.063316">
<ele>624.366</ele>
<time>2022-05-25T15:10:59Z</time>
</trkpt>
<trkpt lat="48.08284" lon="11.063385">
<ele>624.157</ele>
<time>2022-05-25T15:11:00Z</time>
</trkpt>
<trkpt lat="48.082802" lon="11.06346">
<ele>623.987</ele>
<time>2022-05-25T15:11:01Z</time>
</trkpt>
<trkpt lat="48.082764" lon="11.063543">
<ele>623.856</ele>
<time>2022-05-25T15:11:02Z</time>
</trkpt>
<trkpt lat="48.082729" lon="11.063635">
<ele>623.76</ele>
<time>2022-05-25T15:11:03Z</time>
</trkpt>
<trkpt lat="48.082706" lon="11.063716">
<ele>623.697</ele>
<time>2022-05-25T15:11:04Z</time>
</trkpt>
<trkpt lat="48.082695" lon="11.0638">
<ele>623.667</ele>
<time>2022-05-25T15:11:05Z</time>
</trkpt>
<trkpt lat="48.082687" lon="11.063896">
<ele>623.667</ele>
<time>2022-05-25T15:11:06Z</time>
</trkpt>
<trkpt lat="48.082684" lon="11.06398">
<ele>623.667</ele>
<time>2022-05-25T15:11:07Z</time>
</trkpt>
<trkpt lat="48.082672" lon="11.06406">
<ele>623.475</ele>
<time>2022-05-25T15:11:08Z</time>
</trkpt>
<trkpt lat="48.082664" lon="11.064139">
<ele>623.297</ele>
<time>2022-05-25T15:11:09Z</time>
</trkpt>
<trkpt lat="48.082664" lon="11.064232">
<ele>623.149</ele>
<time>2022-05-25T15:11:10Z</time>
</trkpt>
<trkpt lat="48.082664" lon="11.064311">
<ele>623.025</ele>
<time>2022-05-25T15:11:11Z</time>
</trkpt>
<trkpt lat="48.082653" lon="11.064399">
<ele>622.924</ele>
<time>2022-05-25T15:11:12Z</time>
</trkpt>
<trkpt lat="48.082645" lon="11.064488">
<ele>622.856</ele>
<time>2022-05-25T15:11:13Z</time>
</trkpt>
<trkpt lat="48.082642" lon="11.064582">
<ele>622.816</ele>
<time>2022-05-25T15:11:14Z</time>
</trkpt>
<trkpt lat="48.082638" lon="11.06466">
<ele>622.552</ele>
<time>2022-05-25T15:11:15Z</time>
</trkpt>
<trkpt lat="48.082623" lon="11.064743">
<ele>622.344</ele>
<time>2022-05-25T15:11:16Z</time>
</trkpt>
<trkpt lat="48.082607" lon="11.064818">
<ele>622.193</ele>
<time>2022-05-25T15:11:17Z</time>
</trkpt>
<trkpt lat="48.082603" lon="11.064889">
<ele>622.093</ele>
<time>2022-05-25T15:11:18Z</time>
</trkpt>
<trkpt lat="48.082596" lon="11.064968">
<ele>621.979</ele>
<time>2022-05-25T15:11:19Z</time>
</trkpt>
<trkpt lat="48.082588" lon="11.065057">
<ele>621.907</ele>
<time>2022-05-25T15:11:20Z</time>
</trkpt>
<trkpt lat="48.082581" lon="11.065145">
<ele>621.62</ele>
<time>2022-05-25T15:11:21Z</time>
</trkpt>
<trkpt lat="48.082581" lon="11.065247">
<ele>621.39</ele>
<time>2022-05-25T15:11:22Z</time>
</trkpt>
<trkpt lat="48.082581" lon="11.065353">
<ele>621.154</ele>
<time>2022-05-25T15:11:23Z</time>
</trkpt>
<trkpt lat="48.082592" lon="11.065459">
<ele>621.034</ele>
<time>2022-05-25T15:11:24Z</time>
</trkpt>
<trkpt lat="48.082611" lon="11.065565">
<ele>620.966</ele>
<time>2022-05-25T15:11:25Z</time>
</trkpt>
<trkpt lat="48.082626" lon="11.06569">
<ele>620.664</ele>
<time>2022-05-25T15:11:26Z</time>
</trkpt>
<trkpt lat="48.082645" lon="11.065786">
<ele>620.464</ele>
<time>2022-05-25T15:11:27Z</time>
</trkpt>
<trkpt lat="48.082661" lon="11.065907">
<ele>620.33</ele>
<time>2022-05-25T15:11:28Z</time>
</trkpt>
<trkpt lat="48.082672" lon="11.066025">
<ele>620.204</ele>
<time>2022-05-25T15:11:29Z</time>
</trkpt>
<trkpt lat="48.082672" lon="11.06614">
<ele>620.121</ele>
<time>2022-05-25T15:11:30Z</time>
</trkpt>
<trkpt lat="48.082672" lon="11.066252">
<ele>619.812</ele>
<time>2022-05-25T15:11:31Z</time>
</trkpt>
<trkpt lat="48.082672" lon="11.066354">
<ele>619.57</ele>
<time>2022-05-25T15:11:32Z</time>
</trkpt>
<trkpt lat="48.082672" lon="11.066446">
<ele>619.391</ele>
<time>2022-05-25T15:11:33Z</time>
</trkpt>
<trkpt lat="48.082672" lon="11.06654">
<ele>619.206</ele>
<time>2022-05-25T15:11:34Z</time>
</trkpt>
<trkpt lat="48.082672" lon="11.066633">
<ele>619.12</ele>
<time>2022-05-25T15:11:35Z</time>
</trkpt>
<trkpt lat="48.08268" lon="11.066707">
<ele>619.069</ele>
<time>2022-05-25T15:11:36Z</time>
</trkpt>
<trkpt lat="48.082672" lon="11.066793">
<ele>619.042</ele>
<time>2022-05-25T15:11:37Z</time>
</trkpt>
<trkpt lat="48.082672" lon="11.066875">
<ele>619.017</ele>
<time>2022-05-25T15:11:38Z</time>
</trkpt>
<trkpt lat="48.082664" lon="11.066943">
<ele>619.017</ele>
<time>2022-05-25T15:11:39Z</time>
</trkpt>
<trkpt lat="48.082649" lon="11.067019">
<ele>619.017</ele>
<time>2022-05-25T15:11:40Z</time>
</trkpt>
<trkpt lat="48.082638" lon="11.067098">
<ele>619.017</ele>
<time>2022-05-25T15:11:41Z</time>
</trkpt>
<trkpt lat="48.082611" lon="11.067179">
<ele>619.281</ele>
<time>2022-05-25T15:11:42Z</time>
</trkpt>
<trkpt lat="48.082584" lon="11.067255">
<ele>619.497</ele>
<time>2022-05-25T15:11:43Z</time>
</trkpt>
<trkpt lat="48.082558" lon="11.067327">
<ele>619.667</ele>
<time>2022-05-25T15:11:44Z</time>
</trkpt>
<trkpt lat="48.082531" lon="11.067407">
<ele>619.782</ele>
<time>2022-05-25T15:11:45Z</time>
</trkpt>
<trkpt lat="48.082512" lon="11.067469">
<ele>619.868</ele>
<time>2022-05-25T15:11:46Z</time>
</trkpt>
<trkpt lat="48.082478" lon="11.067542">
<ele>619.92</ele>
<time>2022-05-25T15:11:47Z</time>
</trkpt>
<trkpt lat="48.082447" lon="11.067611">
<ele>619.956</ele>
<time>2022-05-25T15:11:48Z</time>
</trkpt>
<trkpt lat="48.08242" lon="11.06767">
<ele>619.981</ele>
<time>2022-05-25T15:11:49Z</time>
</trkpt>
<trkpt lat="48.082409" lon="11.06774">
<ele>619.981</ele>
<time>2022-05-25T15:11:50Z</time>
</trkpt>
<trkpt lat="48.082382" lon="11.067807">
<ele>619.981</ele>
<time>2022-05-25T15:11:51Z</time>
</trkpt>
<trkpt lat="48.082355" lon="11.067868">
<ele>619.981</ele>
<time>2022-05-25T15:11:52Z</time>
</trkpt>
<trkpt lat="48.082321" lon="11.067931">
<ele>619.981</ele>
<time>2022-05-25T15:11:53Z</time>
</trkpt>
<trkpt lat="48.082283" lon="11.068007">
<ele>619.981</ele>
<time>2022-05-25T15:11:54Z</time>
</trkpt>
<trkpt lat="48.082237" lon="11.068087">
<ele>619.981</ele>
<time>2022-05-25T15:11:55Z</time>
</trkpt>
<trkpt lat="48.082207" lon="11.068153">
<ele>619.981</ele>
<time>2022-05-25T15:11:56Z</time>
</trkpt>
<trkpt lat="48.082184" lon="11.068214">
<ele>619.981</ele>
<time>2022-05-25T15:11:57Z</time>
</trkpt>
<trkpt lat="48.082153" lon="11.068274">
<ele>619.981</ele>
<time>2022-05-25T15:11:58Z</time>
</trkpt>
<trkpt lat="48.082123" lon="11.068338">
<ele>619.981</ele>
<time>2022-05-25T15:11:59Z</time>
</trkpt>
<trkpt lat="48.082096" lon="11.068405">
<ele>619.981</ele>
<time>2022-05-25T15:12:00Z</time>
</trkpt>
<trkpt lat="48.082069" lon="11.068486">
<ele>619.981</ele>
<time>2022-05-25T15:12:01Z</time>
</trkpt>
<trkpt lat="48.082047" lon="11.068566">
<ele>619.981</ele>
<time>2022-05-25T15:12:02Z</time>
</trkpt>
<trkpt lat="48.082027" lon="11.068648">
<ele>619.981</ele>
<time>2022-05-25T15:12:03Z</time>
</trkpt>
<trkpt lat="48.08202" lon="11.068729">
<ele>619.981</ele>
<time>2022-05-25T15:12:04Z</time>
</trkpt>
<trkpt lat="48.08202" lon="11.068824">
<ele>619.981</ele>
<time>2022-05-25T15:12:05Z</time>
</trkpt>
<trkpt lat="48.08202" lon="11.068916">
<ele>619.981</ele>
<time>2022-05-25T15:12:06Z</time>
</trkpt>
<trkpt lat="48.08202" lon="11.069013">
<ele>619.981</ele>
<time>2022-05-25T15:12:07Z</time>
</trkpt>
<trkpt lat="48.082012" lon="11.069111">
<ele>619.981</ele>
<time>2022-05-25T15:12:08Z</time>
</trkpt>
<trkpt lat="48.08202" lon="11.06921">
<ele>619.981</ele>
<time>2022-05-25T15:12:09Z</time>
</trkpt>
<trkpt lat="48.08202" lon="11.069314">
<ele>619.981</ele>
<time>2022-05-25T15:12:10Z</time>
</trkpt>
<trkpt lat="48.082008" lon="11.069463">
<ele>619.981</ele>
<time>2022-05-25T15:12:11Z</time>
</trkpt>
<trkpt lat="48.082005" lon="11.069584">
<ele>619.686</ele>
<time>2022-05-25T15:12:12Z</time>
</trkpt>
<trkpt lat="48.081997" lon="11.069692">
<ele>619.472</ele>
<time>2022-05-25T15:12:13Z</time>
</trkpt>
<trkpt lat="48.081997" lon="11.069797">
<ele>619.314</ele>
<time>2022-05-25T15:12:14Z</time>
</trkpt>
<trkpt lat="48.081989" lon="11.069911">
<ele>619.227</ele>
<time>2022-05-25T15:12:15Z</time>
</trkpt>
<trkpt lat="48.081989" lon="11.070022">
<ele>618.893</ele>
<time>2022-05-25T15:12:16Z</time>
</trkpt>
<trkpt lat="48.081989" lon="11.070125">
<ele>618.654</ele>
<time>2022-05-25T15:12:17Z</time>
</trkpt>
<trkpt lat="48.081989" lon="11.070227">
<ele>618.486</ele>
<time>2022-05-25T15:12:18Z</time>
</trkpt>
<trkpt lat="48.081989" lon="11.070332">
<ele>618.332</ele>
<time>2022-05-25T15:12:19Z</time>
</trkpt>
<trkpt lat="48.081989" lon="11.070438">
<ele>618.209</ele>
<time>2022-05-25T15:12:20Z</time>
</trkpt>
<trkpt lat="48.081989" lon="11.070545">
<ele>618.126</ele>
<time>2022-05-25T15:12:21Z</time>
</trkpt>
<trkpt lat="48.081978" lon="11.070653">
<ele>618.075</ele>
<time>2022-05-25T15:12:22Z</time>
</trkpt>
<trkpt lat="48.081974" lon="11.070762">
<ele>618.052</ele>
<time>2022-05-25T15:12:23Z</time>
</trkpt>
<trkpt lat="48.081966" lon="11.070868">
<ele>618.052</ele>
<time>2022-05-25T15:12:24Z</time>
</trkpt>
<trkpt lat="48.081955" lon="11.070973">
<ele>618.052</ele>
<time>2022-05-25T15:12:25Z</time>
</trkpt>
<trkpt lat="48.081951" lon="11.071075">
<ele>617.832</ele>
<time>2022-05-25T15:12:26Z</time>
</trkpt>
<trkpt lat="48.081928" lon="11.071175">
<ele>617.66</ele>
<time>2022-05-25T15:12:27Z</time>
</trkpt>
<trkpt lat="48.081909" lon="11.071273">
<ele>617.541</ele>
<time>2022-05-25T15:12:28Z</time>
</trkpt>
<trkpt lat="48.081886" lon="11.071372">
<ele>617.414</ele>
<time>2022-05-25T15:12:29Z</time>
</trkpt>
<trkpt lat="48.081863" lon="11.071468">
<ele>617.316</ele>
<time>2022-05-25T15:12:30Z</time>
</trkpt>
<trkpt lat="48.081841" lon="11.071567">
<ele>617.249</ele>
<time>2022-05-25T15:12:31Z</time>
</trkpt>
<trkpt lat="48.081814" lon="11.071663">
<ele>616.965</ele>
<time>2022-05-25T15:12:32Z</time>
</trkpt>
<trkpt lat="48.081791" lon="11.071761">
<ele>616.743</ele>
<time>2022-05-25T15:12:33Z</time>
</trkpt>
<trkpt lat="48.08176" lon="11.071861">
<ele>616.53</ele>
<time>2022-05-25T15:12:34Z</time>
</trkpt>
<trkpt lat="48.081741" lon="11.071966">
<ele>616.439</ele>
<time>2022-05-25T15:12:35Z</time>
</trkpt>
<trkpt lat="48.081718" lon="11.072078">
<ele>616.097</ele>
<time>2022-05-25T15:12:36Z</time>
</trkpt>
<trkpt lat="48.081699" lon="11.072193">
<ele>615.846</ele>
<time>2022-05-25T15:12:37Z</time>
</trkpt>
<trkpt lat="48.081692" lon="11.072313">
<ele>615.666</ele>
<time>2022-05-25T15:12:38Z</time>
</trkpt>
<trkpt lat="48.081688" lon="11.072442">
<ele>615.506</ele>
<time>2022-05-25T15:12:39Z</time>
</trkpt>
<trkpt lat="48.081688" lon="11.072577">
<ele>615.136</ele>
<time>2022-05-25T15:12:40Z</time>
</trkpt>
<trkpt lat="48.081684" lon="11.072713">
<ele>614.56</ele>
<time>2022-05-25T15:12:41Z</time>
</trkpt>
<trkpt lat="48.081688" lon="11.072859">
<ele>614.171</ele>
<time>2022-05-25T15:12:42Z</time>
</trkpt>
<trkpt lat="48.081684" lon="11.073008">
<ele>613.584</ele>
<time>2022-05-25T15:12:43Z</time>
</trkpt>
<trkpt lat="48.081669" lon="11.073165">
<ele>612.637</ele>
<time>2022-05-25T15:12:44Z</time>
</trkpt>
<trkpt lat="48.081642" lon="11.073321">
<ele>612.17</ele>
<time>2022-05-25T15:12:45Z</time>
</trkpt>
<trkpt lat="48.081608" lon="11.073471">
<ele>611.56</ele>
<time>2022-05-25T15:12:46Z</time>
</trkpt>
<trkpt lat="48.081566" lon="11.073609">
<ele>610.816</ele>
<time>2022-05-25T15:12:47Z</time>
</trkpt>
<trkpt lat="48.081516" lon="11.073745">
<ele>610.28</ele>
<time>2022-05-25T15:12:48Z</time>
</trkpt>
<trkpt lat="48.081467" lon="11.073878">
<ele>609.832</ele>
<time>2022-05-25T15:12:49Z</time>
</trkpt>
<trkpt lat="48.081413" lon="11.07401">
<ele>609.255</ele>
<time>2022-05-25T15:12:50Z</time>
</trkpt>
<trkpt lat="48.081367" lon="11.074142">
<ele>608.838</ele>
<time>2022-05-25T15:12:51Z</time>
</trkpt>
<trkpt lat="48.081318" lon="11.07427">
<ele>608.542</ele>
<time>2022-05-25T15:12:52Z</time>
</trkpt>
<trkpt lat="48.081272" lon="11.0744">
<ele>608.331</ele>
<time>2022-05-25T15:12:53Z</time>
</trkpt>
<trkpt lat="48.081234" lon="11.074531">
<ele>608.201</ele>
<time>2022-05-25T15:12:54Z</time>
</trkpt>
<trkpt lat="48.081196" lon="11.074661">
<ele>608.086</ele>
<time>2022-05-25T15:12:55Z</time>
</trkpt>
<trkpt lat="48.081173" lon="11.074795">
<ele>607.799</ele>
<time>2022-05-25T15:12:56Z</time>
</trkpt>
<trkpt lat="48.081146" lon="11.074933">
<ele>607.594</ele>
<time>2022-05-25T15:12:57Z</time>
</trkpt>
<trkpt lat="48.081131" lon="11.075071">
<ele>607.45</ele>
<time>2022-05-25T15:12:58Z</time>
</trkpt>
<trkpt lat="48.081123" lon="11.075208">
<ele>607.295</ele>
<time>2022-05-25T15:12:59Z</time>
</trkpt>
<trkpt lat="48.081116" lon="11.07534">
<ele>607.175</ele>
<time>2022-05-25T15:13:00Z</time>
</trkpt>
<trkpt lat="48.081116" lon="11.075474">
<ele>607.089</ele>
<time>2022-05-25T15:13:01Z</time>
</trkpt>
<trkpt lat="48.081123" lon="11.075603">
<ele>607.033</ele>
<time>2022-05-25T15:13:02Z</time>
</trkpt>
<trkpt lat="48.081131" lon="11.075733">
<ele>607.006</ele>
<time>2022-05-25T15:13:03Z</time>
</trkpt>
<trkpt lat="48.081142" lon="11.075862">
<ele>606.756</ele>
<time>2022-05-25T15:13:04Z</time>
</trkpt>
<trkpt lat="48.08115" lon="11.07599">
<ele>606.558</ele>
<time>2022-05-25T15:13:05Z</time>
</trkpt>
<trkpt lat="48.081165" lon="11.076118">
<ele>606.404</ele>
<time>2022-05-25T15:13:06Z</time>
</trkpt>
<trkpt lat="48.081173" lon="11.076245">
<ele>606.287</ele>
<time>2022-05-25T15:13:07Z</time>
</trkpt>
<trkpt lat="48.081181" lon="11.076368">
<ele>606.204</ele>
<time>2022-05-25T15:13:08Z</time>
</trkpt>
<trkpt lat="48.081188" lon="11.076493">
<ele>606.122</ele>
<time>2022-05-25T15:13:09Z</time>
</trkpt>
<trkpt lat="48.0812" lon="11.076618">
<ele>606.068</ele>
<time>2022-05-25T15:13:10Z</time>
</trkpt>
<trkpt lat="48.081207" lon="11.076738">
<ele>606.042</ele>
<time>2022-05-25T15:13:11Z</time>
</trkpt>
<trkpt lat="48.081219" lon="11.07686">
<ele>606.042</ele>
<time>2022-05-25T15:13:12Z</time>
</trkpt>
<trkpt lat="48.08123" lon="11.076982">
<ele>606.042</ele>
<time>2022-05-25T15:13:13Z</time>
</trkpt>
<trkpt lat="48.081238" lon="11.0771">
<ele>605.813</ele>
<time>2022-05-25T15:13:14Z</time>
</trkpt>
<trkpt lat="48.081242" lon="11.077219">
<ele>605.633</ele>
<time>2022-05-25T15:13:15Z</time>
</trkpt>
<trkpt lat="48.081249" lon="11.077333">
<ele>605.492</ele>
<time>2022-05-25T15:13:16Z</time>
</trkpt>
<trkpt lat="48.081245" lon="11.077447">
<ele>605.389</ele>
<time>2022-05-25T15:13:17Z</time>
</trkpt>
<trkpt lat="48.081238" lon="11.077559">
<ele>605.314</ele>
<time>2022-05-25T15:13:18Z</time>
</trkpt>
<trkpt lat="48.081226" lon="11.077667">
<ele>605.238</ele>
<time>2022-05-25T15:13:19Z</time>
</trkpt>
<trkpt lat="48.081207" lon="11.077774">
<ele>605.19</ele>
<time>2022-05-25T15:13:20Z</time>
</trkpt>
<trkpt lat="48.081181" lon="11.077875">
<ele>605.166</ele>
<time>2022-05-25T15:13:21Z</time>
</trkpt>
<trkpt lat="48.081158" lon="11.077975">
<ele>605.166</ele>
<time>2022-05-25T15:13:22Z</time>
</trkpt>
<trkpt lat="48.081131" lon="11.07807">
<ele>605.166</ele>
<time>2022-05-25T15:13:23Z</time>
</trkpt>
<trkpt lat="48.081104" lon="11.078166">
<ele>605.166</ele>
<time>2022-05-25T15:13:24Z</time>
</trkpt>
<trkpt lat="48.081074" lon="11.078259">
<ele>605.166</ele>
<time>2022-05-25T15:13:25Z</time>
</trkpt>
<trkpt lat="48.081047" lon="11.078353">
<ele>605.166</ele>
<time>2022-05-25T15:13:26Z</time>
</trkpt>
<trkpt lat="48.081024" lon="11.078444">
<ele>605.166</ele>
<time>2022-05-25T15:13:27Z</time>
</trkpt>
<trkpt lat="48.081005" lon="11.07853">
<ele>605.166</ele>
<time>2022-05-25T15:13:28Z</time>
</trkpt>
<trkpt lat="48.080982" lon="11.078612">
<ele>605.166</ele>
<time>2022-05-25T15:13:29Z</time>
</trkpt>
<trkpt lat="48.080971" lon="11.078691">
<ele>605.166</ele>
<time>2022-05-25T15:13:30Z</time>
</trkpt>
<trkpt lat="48.080952" lon="11.078773">
<ele>605.166</ele>
<time>2022-05-25T15:13:31Z</time>
</trkpt>
<trkpt lat="48.080944" lon="11.078851">
<ele>605.422</ele>
<time>2022-05-25T15:13:32Z</time>
</trkpt>
<trkpt lat="48.080929" lon="11.078926">
<ele>605.628</ele>
<time>2022-05-25T15:13:33Z</time>
</trkpt>
<trkpt lat="48.080921" lon="11.079">
<ele>605.788</ele>
<time>2022-05-25T15:13:34Z</time>
</trkpt>
<trkpt lat="48.080914" lon="11.079071">
<ele>605.914</ele>
<time>2022-05-25T15:13:35Z</time>
</trkpt>
<trkpt lat="48.080902" lon="11.079144">
<ele>606</ele>
<time>2022-05-25T15:13:36Z</time>
</trkpt>
<trkpt lat="48.080891" lon="11.079215">
<ele>606.057</ele>
<time>2022-05-25T15:13:37Z</time>
</trkpt>
<trkpt lat="48.080883" lon="11.079285">
<ele>606.102</ele>
<time>2022-05-25T15:13:38Z</time>
</trkpt>
<trkpt lat="48.080872" lon="11.079356">
<ele>606.13</ele>
<time>2022-05-25T15:13:39Z</time>
</trkpt>
<trkpt lat="48.08086" lon="11.07943">
<ele>606.13</ele>
<time>2022-05-25T15:13:40Z</time>
</trkpt>
<trkpt lat="48.080849" lon="11.079503">
<ele>606.408</ele>
<time>2022-05-25T15:13:41Z</time>
</trkpt>
<trkpt lat="48.080837" lon="11.07958">
<ele>606.627</ele>
<time>2022-05-25T15:13:42Z</time>
</trkpt>
<trkpt lat="48.080822" lon="11.079659">
<ele>606.79</ele>
<time>2022-05-25T15:13:43Z</time>
</trkpt>
<trkpt lat="48.080811" lon="11.079739">
<ele>606.911</ele>
<time>2022-05-25T15:13:44Z</time>
</trkpt>
<trkpt lat="48.080795" lon="11.079821">
<ele>606.999</ele>
<time>2022-05-25T15:13:45Z</time>
</trkpt>
<trkpt lat="48.08078" lon="11.079903">
<ele>607.049</ele>
<time>2022-05-25T15:13:46Z</time>
</trkpt>
<trkpt lat="48.080765" lon="11.079988">
<ele>607.072</ele>
<time>2022-05-25T15:13:47Z</time>
</trkpt>
<trkpt lat="48.080746" lon="11.080076">
<ele>607.093</ele>
<time>2022-05-25T15:13:48Z</time>
</trkpt>
<trkpt lat="48.080727" lon="11.080167">
<ele>607.093</ele>
<time>2022-05-25T15:13:49Z</time>
</trkpt>
<trkpt lat="48.080711" lon="11.080253">
<ele>607.094</ele>
<time>2022-05-25T15:13:50Z</time>
</trkpt>
<trkpt lat="48.080692" lon="11.080342">
<ele>607.093</ele>
<time>2022-05-25T15:13:51Z</time>
</trkpt>
<trkpt lat="48.080673" lon="11.08043">
<ele>606.842</ele>
<time>2022-05-25T15:13:52Z</time>
</trkpt>
<trkpt lat="48.080654" lon="11.080522">
<ele>606.651</ele>
<time>2022-05-25T15:13:53Z</time>
</trkpt>
<trkpt lat="48.080639" lon="11.080613">
<ele>606.507</ele>
<time>2022-05-25T15:13:54Z</time>
</trkpt>
<trkpt lat="48.080624" lon="11.080705">
<ele>606.421</ele>
<time>2022-05-25T15:13:55Z</time>
</trkpt>
<trkpt lat="48.080612" lon="11.0808">
<ele>606.095</ele>
<time>2022-05-25T15:13:56Z</time>
</trkpt>
<trkpt lat="48.080601" lon="11.080892">
<ele>605.852</ele>
<time>2022-05-25T15:13:57Z</time>
</trkpt>
<trkpt lat="48.080593" lon="11.080974">
<ele>605.676</ele>
<time>2022-05-25T15:13:58Z</time>
</trkpt>
<trkpt lat="48.080585" lon="11.081051">
<ele>605.514</ele>
<time>2022-05-25T15:13:59Z</time>
</trkpt>
<trkpt lat="48.080582" lon="11.081126">
<ele>605.408</ele>
<time>2022-05-25T15:14:00Z</time>
</trkpt>
<trkpt lat="48.080582" lon="11.081189">
<ele>605.336</ele>
<time>2022-05-25T15:14:01Z</time>
</trkpt>
<trkpt lat="48.080582" lon="11.081248">
<ele>605.066</ele>
<time>2022-05-25T15:14:02Z</time>
</trkpt>
<trkpt lat="48.080585" lon="11.081302">
<ele>604.855</ele>
<time>2022-05-25T15:14:03Z</time>
</trkpt>
<trkpt lat="48.080589" lon="11.081348">
<ele>604.672</ele>
<time>2022-05-25T15:14:04Z</time>
</trkpt>
<trkpt lat="48.080585" lon="11.081393">
<ele>604.319</ele>
<time>2022-05-25T15:14:05Z</time>
</trkpt>
<trkpt lat="48.080578" lon="11.081431">
<ele>604.041</ele>
<time>2022-05-25T15:14:06Z</time>
</trkpt>
<trkpt lat="48.080559" lon="11.081464">
<ele>603.835</ele>
<time>2022-05-25T15:14:07Z</time>
</trkpt>
<trkpt lat="48.080544" lon="11.081497">
<ele>603.663</ele>
<time>2022-05-25T15:14:08Z</time>
</trkpt>
<trkpt lat="48.080517" lon="11.081531">
<ele>603.505</ele>
<time>2022-05-25T15:14:09Z</time>
</trkpt>
<trkpt lat="48.08049" lon="11.081567">
<ele>603.419</ele>
<time>2022-05-25T15:14:10Z</time>
</trkpt>
<trkpt lat="48.080463" lon="11.081604">
<ele>603.14</ele>
<time>2022-05-25T15:14:11Z</time>
</trkpt>
<trkpt lat="48.080437" lon="11.081635">
<ele>602.92</ele>
<time>2022-05-25T15:14:12Z</time>
</trkpt>
<trkpt lat="48.08041" lon="11.081655">
<ele>602.71</ele>
<time>2022-05-25T15:14:13Z</time>
</trkpt>
<trkpt lat="48.080383" lon="11.081676">
<ele>602.601</ele>
<time>2022-05-25T15:14:14Z</time>
</trkpt>
<trkpt lat="48.080357" lon="11.081698">
<ele>602.538</ele>
<time>2022-05-25T15:14:15Z</time>
</trkpt>
<trkpt lat="48.080334" lon="11.081717">
<ele>602.497</ele>
<time>2022-05-25T15:14:16Z</time>
</trkpt>
<trkpt lat="48.080311" lon="11.081737">
<ele>602.471</ele>
<time>2022-05-25T15:14:17Z</time>
</trkpt>
<trkpt lat="48.080292" lon="11.081758">
<ele>602.451</ele>
<time>2022-05-25T15:14:18Z</time>
</trkpt>
<trkpt lat="48.080261" lon="11.081784">
<ele>602.45</ele>
<time>2022-05-25T15:14:19Z</time>
</trkpt>
<trkpt lat="48.080231" lon="11.081828">
<ele>602.45</ele>
<time>2022-05-25T15:14:20Z</time>
</trkpt>
<trkpt lat="48.080204" lon="11.081875">
<ele>602.155</ele>
<time>2022-05-25T15:14:21Z</time>
</trkpt>
<trkpt lat="48.080177" lon="11.081923">
<ele>601.924</ele>
<time>2022-05-25T15:14:22Z</time>
</trkpt>
<trkpt lat="48.080162" lon="11.081968">
<ele>601.758</ele>
<time>2022-05-25T15:14:23Z</time>
</trkpt>
<trkpt lat="48.080154" lon="11.082025">
<ele>601.646</ele>
<time>2022-05-25T15:14:24Z</time>
</trkpt>
<trkpt lat="48.080139" lon="11.082087">
<ele>601.573</ele>
<time>2022-05-25T15:14:25Z</time>
</trkpt>
<trkpt lat="48.080128" lon="11.082149">
<ele>601.529</ele>
<time>2022-05-25T15:14:26Z</time>
</trkpt>
<trkpt lat="48.080112" lon="11.082211">
<ele>601.506</ele>
<time>2022-05-25T15:14:27Z</time>
</trkpt>
<trkpt lat="48.080101" lon="11.082274">
<ele>601.487</ele>
<time>2022-05-25T15:14:28Z</time>
</trkpt>
<trkpt lat="48.080086" lon="11.082325">
<ele>601.25</ele>
<time>2022-05-25T15:14:29Z</time>
</trkpt>
<trkpt lat="48.080067" lon="11.082369">
<ele>601.051</ele>
<time>2022-05-25T15:14:30Z</time>
</trkpt>
<trkpt lat="48.080044" lon="11.08242">
<ele>600.887</ele>
<time>2022-05-25T15:14:31Z</time>
</trkpt>
<trkpt lat="48.080021" lon="11.082476">
<ele>600.768</ele>
<time>2022-05-25T15:14:32Z</time>
</trkpt>
<trkpt lat="48.07999" lon="11.082546">
<ele>600.67</ele>
<time>2022-05-25T15:14:33Z</time>
</trkpt>
<trkpt lat="48.079952" lon="11.082637">
<ele>600.594</ele>
<time>2022-05-25T15:14:34Z</time>
</trkpt>
<trkpt lat="48.079918" lon="11.08274">
<ele>600.547</ele>
<time>2022-05-25T15:14:35Z</time>
</trkpt>
<trkpt lat="48.079903" lon="11.082844">
<ele>600.524</ele>
<time>2022-05-25T15:14:36Z</time>
</trkpt>
<trkpt lat="48.079876" lon="11.082938">
<ele>600.524</ele>
<time>2022-05-25T15:14:37Z</time>
</trkpt>
<trkpt lat="48.079861" lon="11.083027">
<ele>600.524</ele>
<time>2022-05-25T15:14:38Z</time>
</trkpt>
<trkpt lat="48.07983" lon="11.083121">
<ele>600.524</ele>
<time>2022-05-25T15:14:39Z</time>
</trkpt>
<trkpt lat="48.079803" lon="11.083203">
<ele>600.524</ele>
<time>2022-05-25T15:14:40Z</time>
</trkpt>
<trkpt lat="48.079788" lon="11.08328">
<ele>600.524</ele>
<time>2022-05-25T15:14:41Z</time>
</trkpt>
<trkpt lat="48.079769" lon="11.08336">
<ele>600.524</ele>
<time>2022-05-25T15:14:42Z</time>
</trkpt>
<trkpt lat="48.079742" lon="11.083439">
<ele>600.298</ele>
<time>2022-05-25T15:14:43Z</time>
</trkpt>
<trkpt lat="48.079727" lon="11.083521">
<ele>600.113</ele>
<time>2022-05-25T15:14:44Z</time>
</trkpt>
<trkpt lat="48.079708" lon="11.083613">
<ele>599.967</ele>
<time>2022-05-25T15:14:45Z</time>
</trkpt>
<trkpt lat="48.079685" lon="11.083691">
<ele>599.862</ele>
<time>2022-05-25T15:14:46Z</time>
</trkpt>
<trkpt lat="48.079659" lon="11.083764">
<ele>599.784</ele>
<time>2022-05-25T15:14:47Z</time>
</trkpt>
<trkpt lat="48.079632" lon="11.083841">
<ele>599.722</ele>
<time>2022-05-25T15:14:48Z</time>
</trkpt>
<trkpt lat="48.079601" lon="11.083927">
<ele>599.67</ele>
<time>2022-05-25T15:14:49Z</time>
</trkpt>
<trkpt lat="48.079575" lon="11.084018">
<ele>599.648</ele>
<time>2022-05-25T15:14:50Z</time>
</trkpt>
<trkpt lat="48.079548" lon="11.084097">
<ele>599.648</ele>
<time>2022-05-25T15:14:51Z</time>
</trkpt>
<trkpt lat="48.079525" lon="11.084177">
<ele>599.648</ele>
<time>2022-05-25T15:14:52Z</time>
</trkpt>
<trkpt lat="48.07951" lon="11.084244">
<ele>599.93</ele>
<time>2022-05-25T15:14:53Z</time>
</trkpt>
<trkpt lat="48.079479" lon="11.084315">
<ele>600.154</ele>
<time>2022-05-25T15:14:54Z</time>
</trkpt>
<trkpt lat="48.079456" lon="11.084393">
<ele>600.322</ele>
<time>2022-05-25T15:14:55Z</time>
</trkpt>
<trkpt lat="48.079445" lon="11.084455">
<ele>600.418</ele>
<time>2022-05-25T15:14:56Z</time>
</trkpt>
<trkpt lat="48.079426" lon="11.084505">
<ele>600.73</ele>
<time>2022-05-25T15:14:57Z</time>
</trkpt>
<trkpt lat="48.079414" lon="11.084564">
<ele>600.983</ele>
<time>2022-05-25T15:14:58Z</time>
</trkpt>
<trkpt lat="48.079407" lon="11.08462">
<ele>601.219</ele>
<time>2022-05-25T15:14:59Z</time>
</trkpt>
<trkpt lat="48.079399" lon="11.084683">
<ele>601.387</ele>
<time>2022-05-25T15:15:00Z</time>
</trkpt>
<trkpt lat="48.079388" lon="11.084753">
<ele>601.5</ele>
<time>2022-05-25T15:15:01Z</time>
</trkpt>
<trkpt lat="48.07938" lon="11.084832">
<ele>601.578</ele>
<time>2022-05-25T15:15:02Z</time>
</trkpt>
<trkpt lat="48.079372" lon="11.084906">
<ele>601.632</ele>
<time>2022-05-25T15:15:03Z</time>
</trkpt>
<trkpt lat="48.079353" lon="11.08498">
<ele>601.663</ele>
<time>2022-05-25T15:15:04Z</time>
</trkpt>
<trkpt lat="48.079342" lon="11.08506">
<ele>601.978</ele>
<time>2022-05-25T15:15:05Z</time>
</trkpt>
<trkpt lat="48.07933" lon="11.085138">
<ele>602.213</ele>
<time>2022-05-25T15:15:06Z</time>
</trkpt>
<trkpt lat="48.079315" lon="11.085222">
<ele>602.394</ele>
<time>2022-05-25T15:15:07Z</time>
</trkpt>
<trkpt lat="48.0793" lon="11.085299">
<ele>602.501</ele>
<time>2022-05-25T15:15:08Z</time>
</trkpt>
<trkpt lat="48.079273" lon="11.085397">
<ele>602.625</ele>
<time>2022-05-25T15:15:09Z</time>
</trkpt>
<trkpt lat="48.079262" lon="11.085469">
<ele>602.714</ele>
<time>2022-05-25T15:15:10Z</time>
</trkpt>
<trkpt lat="48.079258" lon="11.085539">
<ele>602.772</ele>
<time>2022-05-25T15:15:11Z</time>
</trkpt>
<trkpt lat="48.079262" lon="11.0856">
<ele>603.05</ele>
<time>2022-05-25T15:15:12Z</time>
</trkpt>
<trkpt lat="48.079266" lon="11.085655">
<ele>603.307</ele>
<time>2022-05-25T15:15:13Z</time>
</trkpt>
<trkpt lat="48.079281" lon="11.085704">
<ele>603.475</ele>
<time>2022-05-25T15:15:14Z</time>
</trkpt>
<trkpt lat="48.079304" lon="11.085765">
<ele>603.601</ele>
<time>2022-05-25T15:15:15Z</time>
</trkpt>
<trkpt lat="48.07933" lon="11.085845">
<ele>603.696</ele>
<time>2022-05-25T15:15:16Z</time>
</trkpt>
<trkpt lat="48.07935" lon="11.08591">
<ele>603.756</ele>
<time>2022-05-25T15:15:17Z</time>
</trkpt>
<trkpt lat="48.07935" lon="11.085965">
<ele>603.819</ele>
<time>2022-05-25T15:15:18Z</time>
</trkpt>
<trkpt lat="48.079357" lon="11.086023">
<ele>603.852</ele>
<time>2022-05-25T15:15:19Z</time>
</trkpt>
<trkpt lat="48.079365" lon="11.086087">
<ele>603.852</ele>
<time>2022-05-25T15:15:20Z</time>
</trkpt>
<trkpt lat="48.079384" lon="11.086138">
<ele>604.131</ele>
<time>2022-05-25T15:15:21Z</time>
</trkpt>
<trkpt lat="48.079384" lon="11.086197">
<ele>604.337</ele>
<time>2022-05-25T15:15:22Z</time>
</trkpt>
<trkpt lat="48.079376" lon="11.086259">
<ele>604.488</ele>
<time>2022-05-25T15:15:23Z</time>
</trkpt>
<trkpt lat="48.079365" lon="11.08632">
<ele>604.608</ele>
<time>2022-05-25T15:15:24Z</time>
</trkpt>
<trkpt lat="48.07935" lon="11.086383">
<ele>604.709</ele>
<time>2022-05-25T15:15:25Z</time>
</trkpt>
<trkpt lat="48.079338" lon="11.086445">
<ele>604.766</ele>
<time>2022-05-25T15:15:26Z</time>
</trkpt>
<trkpt lat="48.079323" lon="11.086493">
<ele>604.79</ele>
<time>2022-05-25T15:15:27Z</time>
</trkpt>
<trkpt lat="48.079327" lon="11.086545">
<ele>605.047</ele>
<time>2022-05-25T15:15:28Z</time>
</trkpt>
<trkpt lat="48.079319" lon="11.086595">
<ele>605.264</ele>
<time>2022-05-25T15:15:29Z</time>
</trkpt>
<trkpt lat="48.079311" lon="11.08665">
<ele>605.44</ele>
<time>2022-05-25T15:15:30Z</time>
</trkpt>
<trkpt lat="48.079315" lon="11.086716">
<ele>605.582</ele>
<time>2022-05-25T15:15:31Z</time>
</trkpt>
<trkpt lat="48.079323" lon="11.086772">
<ele>605.696</ele>
<time>2022-05-25T15:15:32Z</time>
</trkpt>
<trkpt lat="48.079319" lon="11.086829">
<ele>605.781</ele>
<time>2022-05-25T15:15:33Z</time>
</trkpt>
<trkpt lat="48.079315" lon="11.086915">
<ele>605.839</ele>
<time>2022-05-25T15:15:34Z</time>
</trkpt>
<trkpt lat="48.079311" lon="11.087009">
<ele>605.867</ele>
<time>2022-05-25T15:15:35Z</time>
</trkpt>
<trkpt lat="48.079315" lon="11.08707">
<ele>605.867</ele>
<time>2022-05-25T15:15:36Z</time>
</trkpt>
<trkpt lat="48.079311" lon="11.087139">
<ele>605.867</ele>
<time>2022-05-25T15:15:37Z</time>
</trkpt>
<trkpt lat="48.079304" lon="11.08721">
<ele>605.867</ele>
<time>2022-05-25T15:15:38Z</time>
</trkpt>
<trkpt lat="48.079304" lon="11.087283">
<ele>605.867</ele>
<time>2022-05-25T15:15:39Z</time>
</trkpt>
<trkpt lat="48.0793" lon="11.087359">
<ele>605.867</ele>
<time>2022-05-25T15:15:40Z</time>
</trkpt>
<trkpt lat="48.079292" lon="11.08744">
<ele>605.867</ele>
<time>2022-05-25T15:15:41Z</time>
</trkpt>
<trkpt lat="48.079296" lon="11.087533">
<ele>605.867</ele>
<time>2022-05-25T15:15:42Z</time>
</trkpt>
<trkpt lat="48.079292" lon="11.087646">
<ele>605.867</ele>
<time>2022-05-25T15:15:43Z</time>
</trkpt>
<trkpt lat="48.079304" lon="11.087757">
<ele>605.556</ele>
<time>2022-05-25T15:15:44Z</time>
</trkpt>
<trkpt lat="48.079308" lon="11.087874">
<ele>605.326</ele>
<time>2022-05-25T15:15:45Z</time>
</trkpt>
<trkpt lat="48.079308" lon="11.087996">
<ele>605.201</ele>
<time>2022-05-25T15:15:46Z</time>
</trkpt>
<trkpt lat="48.079292" lon="11.08812">
<ele>604.813</ele>
<time>2022-05-25T15:15:47Z</time>
</trkpt>
<trkpt lat="48.079262" lon="11.088306">
<ele>604.259</ele>
<time>2022-05-25T15:15:48Z</time>
</trkpt>
<trkpt lat="48.079247" lon="11.088457">
<ele>603.763</ele>
<time>2022-05-25T15:15:49Z</time>
</trkpt>
<trkpt lat="48.079239" lon="11.088597">
<ele>603.415</ele>
<time>2022-05-25T15:15:50Z</time>
</trkpt>
<trkpt lat="48.079235" lon="11.088737">
<ele>603.203</ele>
<time>2022-05-25T15:15:51Z</time>
</trkpt>
<trkpt lat="48.079235" lon="11.08887">
<ele>602.789</ele>
<time>2022-05-25T15:15:52Z</time>
</trkpt>
<trkpt lat="48.079231" lon="11.088989">
<ele>602.493</ele>
<time>2022-05-25T15:15:53Z</time>
</trkpt>
<trkpt lat="48.079224" lon="11.089105">
<ele>602.285</ele>
<time>2022-05-25T15:15:54Z</time>
</trkpt>
<trkpt lat="48.079224" lon="11.089224">
<ele>602.157</ele>
<time>2022-05-25T15:15:55Z</time>
</trkpt>
<trkpt lat="48.079224" lon="11.089336">
<ele>602.05</ele>
<time>2022-05-25T15:15:56Z</time>
</trkpt>
<trkpt lat="48.079224" lon="11.089439">
<ele>601.995</ele>
<time>2022-05-25T15:15:57Z</time>
</trkpt>
<trkpt lat="48.079224" lon="11.089544">
<ele>601.951</ele>
<time>2022-05-25T15:15:58Z</time>
</trkpt>
<trkpt lat="48.079224" lon="11.089648">
<ele>601.925</ele>
<time>2022-05-25T15:15:59Z</time>
</trkpt>
<trkpt lat="48.079231" lon="11.089748">
<ele>601.925</ele>
<time>2022-05-25T15:16:00Z</time>
</trkpt>
<trkpt lat="48.079231" lon="11.089849">
<ele>601.656</ele>
<time>2022-05-25T15:16:01Z</time>
</trkpt>
<trkpt lat="48.079239" lon="11.089949">
<ele>601.442</ele>
<time>2022-05-25T15:16:02Z</time>
</trkpt>
<trkpt lat="48.079239" lon="11.09005">
<ele>601.276</ele>
<time>2022-05-25T15:16:03Z</time>
</trkpt>
<trkpt lat="48.079243" lon="11.090154">
<ele>601.153</ele>
<time>2022-05-25T15:16:04Z</time>
</trkpt>
<trkpt lat="48.07925" lon="11.090257">
<ele>601.08</ele>
<time>2022-05-25T15:16:05Z</time>
</trkpt>
<trkpt lat="48.07925" lon="11.090359">
<ele>600.776</ele>
<time>2022-05-25T15:16:06Z</time>
</trkpt>
<trkpt lat="48.079243" lon="11.090456">
<ele>600.556</ele>
<time>2022-05-25T15:16:07Z</time>
</trkpt>
<trkpt lat="48.079235" lon="11.090558">
<ele>600.398</ele>
<time>2022-05-25T15:16:08Z</time>
</trkpt>
<trkpt lat="48.079227" lon="11.090658">
<ele>600.258</ele>
<time>2022-05-25T15:16:09Z</time>
</trkpt>
<trkpt lat="48.079216" lon="11.090757">
<ele>600.15</ele>
<time>2022-05-25T15:16:10Z</time>
</trkpt>
<trkpt lat="48.079208" lon="11.090858">
<ele>600.073</ele>
<time>2022-05-25T15:16:11Z</time>
</trkpt>
<trkpt lat="48.079197" lon="11.090961">
<ele>600.026</ele>
<time>2022-05-25T15:16:12Z</time>
</trkpt>
<trkpt lat="48.079197" lon="11.091063">
<ele>599.785</ele>
<time>2022-05-25T15:16:13Z</time>
</trkpt>
<trkpt lat="48.079205" lon="11.091166">
<ele>599.574</ele>
<time>2022-05-25T15:16:14Z</time>
</trkpt>
<trkpt lat="48.07922" lon="11.091283">
<ele>599.456</ele>
<time>2022-05-25T15:16:15Z</time>
</trkpt>
<trkpt lat="48.079243" lon="11.091407">
<ele>599.088</ele>
<time>2022-05-25T15:16:16Z</time>
</trkpt>
<trkpt lat="48.079258" lon="11.091533">
<ele>598.853</ele>
<time>2022-05-25T15:16:17Z</time>
</trkpt>
<trkpt lat="48.079281" lon="11.091666">
<ele>598.391</ele>
<time>2022-05-25T15:16:18Z</time>
</trkpt>
<trkpt lat="48.079308" lon="11.091799">
<ele>597.736</ele>
<time>2022-05-25T15:16:19Z</time>
</trkpt>
<trkpt lat="48.07933" lon="11.091924">
<ele>597.235</ele>
<time>2022-05-25T15:16:20Z</time>
</trkpt>
<trkpt lat="48.079353" lon="11.092047">
<ele>596.929</ele>
<time>2022-05-25T15:16:21Z</time>
</trkpt>
<trkpt lat="48.079376" lon="11.092161">
<ele>596.404</ele>
<time>2022-05-25T15:16:22Z</time>
</trkpt>
<trkpt lat="48.079399" lon="11.092277">
<ele>596.063</ele>
<time>2022-05-25T15:16:23Z</time>
</trkpt>
<trkpt lat="48.079426" lon="11.092406">
<ele>595.534</ele>
<time>2022-05-25T15:16:24Z</time>
</trkpt>
<trkpt lat="48.079449" lon="11.09253">
<ele>595.129</ele>
<time>2022-05-25T15:16:25Z</time>
</trkpt>
<trkpt lat="48.079483" lon="11.092653">
<ele>594.839</ele>
<time>2022-05-25T15:16:26Z</time>
</trkpt>
<trkpt lat="48.07951" lon="11.092772">
<ele>594.628</ele>
<time>2022-05-25T15:16:27Z</time>
</trkpt>
<trkpt lat="48.079559" lon="11.092888">
<ele>594.497</ele>
<time>2022-05-25T15:16:28Z</time>
</trkpt>
<trkpt lat="48.079594" lon="11.093008">
<ele>594.148</ele>
<time>2022-05-25T15:16:29Z</time>
</trkpt>
<trkpt lat="48.079624" lon="11.093125">
<ele>593.896</ele>
<time>2022-05-25T15:16:30Z</time>
</trkpt>
<trkpt lat="48.079643" lon="11.093244">
<ele>593.714</ele>
<time>2022-05-25T15:16:31Z</time>
</trkpt>
<trkpt lat="48.079659" lon="11.093364">
<ele>593.59</ele>
<time>2022-05-25T15:16:32Z</time>
</trkpt>
<trkpt lat="48.079662" lon="11.093481">
<ele>593.507</ele>
<time>2022-05-25T15:16:33Z</time>
</trkpt>
<trkpt lat="48.079662" lon="11.093592">
<ele>593.177</ele>
<time>2022-05-25T15:16:34Z</time>
</trkpt>
<trkpt lat="48.079655" lon="11.093707">
<ele>592.913</ele>
<time>2022-05-25T15:16:35Z</time>
</trkpt>
<trkpt lat="48.079651" lon="11.093821">
<ele>592.715</ele>
<time>2022-05-25T15:16:36Z</time>
</trkpt>
<trkpt lat="48.079643" lon="11.093931">
<ele>592.597</ele>
<time>2022-05-25T15:16:37Z</time>
</trkpt>
<trkpt lat="48.079636" lon="11.094045">
<ele>592.286</ele>
<time>2022-05-25T15:16:38Z</time>
</trkpt>
<trkpt lat="48.079624" lon="11.094162">
<ele>592.011</ele>
<time>2022-05-25T15:16:39Z</time>
</trkpt>
<trkpt lat="48.079617" lon="11.094276">
<ele>591.82</ele>
<time>2022-05-25T15:16:40Z</time>
</trkpt>
<trkpt lat="48.079609" lon="11.094397">
<ele>591.401</ele>
<time>2022-05-25T15:16:41Z</time>
</trkpt>
<trkpt lat="48.079605" lon="11.09452">
<ele>591.082</ele>
<time>2022-05-25T15:16:42Z</time>
</trkpt>
<trkpt lat="48.079597" lon="11.09464">
<ele>590.878</ele>
<time>2022-05-25T15:16:43Z</time>
</trkpt>
<trkpt lat="48.079586" lon="11.094747">
<ele>590.417</ele>
<time>2022-05-25T15:16:44Z</time>
</trkpt>
<trkpt lat="48.079575" lon="11.094847">
<ele>590.065</ele>
<time>2022-05-25T15:16:45Z</time>
</trkpt>
<trkpt lat="48.079563" lon="11.094939">
<ele>589.768</ele>
<time>2022-05-25T15:16:46Z</time>
</trkpt>
<trkpt lat="48.079563" lon="11.095038">
<ele>589.647</ele>
<time>2022-05-25T15:16:47Z</time>
</trkpt>
<trkpt lat="48.079563" lon="11.095132">
<ele>589.278</ele>
<time>2022-05-25T15:16:48Z</time>
</trkpt>
<trkpt lat="48.079559" lon="11.095218">
<ele>588.996</ele>
<time>2022-05-25T15:16:49Z</time>
</trkpt>
<trkpt lat="48.079552" lon="11.0953">
<ele>588.537</ele>
<time>2022-05-25T15:16:50Z</time>
</trkpt>
<trkpt lat="48.079548" lon="11.095389">
<ele>588.16</ele>
<time>2022-05-25T15:16:51Z</time>
</trkpt>
<trkpt lat="48.079544" lon="11.09548">
<ele>587.911</ele>
<time>2022-05-25T15:16:52Z</time>
</trkpt>
<trkpt lat="48.079529" lon="11.095582">
<ele>587.438</ele>
<time>2022-05-25T15:16:53Z</time>
</trkpt>
<trkpt lat="48.079514" lon="11.095683">
<ele>587.108</ele>
<time>2022-05-25T15:16:54Z</time>
</trkpt>
<trkpt lat="48.079502" lon="11.095778">
<ele>586.602</ele>
<time>2022-05-25T15:16:55Z</time>
</trkpt>
<trkpt lat="48.079491" lon="11.09588">
<ele>586.17</ele>
<time>2022-05-25T15:16:56Z</time>
</trkpt>
<trkpt lat="48.079491" lon="11.09599">
<ele>585.932</ele>
<time>2022-05-25T15:16:57Z</time>
</trkpt>
<trkpt lat="48.079491" lon="11.096102">
<ele>585.776</ele>
<time>2022-05-25T15:16:58Z</time>
</trkpt>
<trkpt lat="48.079487" lon="11.096209">
<ele>585.632</ele>
<time>2022-05-25T15:16:59Z</time>
</trkpt>
<trkpt lat="48.079487" lon="11.096303">
<ele>585.539</ele>
<time>2022-05-25T15:17:00Z</time>
</trkpt>
<trkpt lat="48.079479" lon="11.09641">
<ele>585.498</ele>
<time>2022-05-25T15:17:01Z</time>
</trkpt>
<trkpt lat="48.079472" lon="11.096517">
<ele>585.239</ele>
<time>2022-05-25T15:17:02Z</time>
</trkpt>
<trkpt lat="48.079468" lon="11.096613">
<ele>584.993</ele>
<time>2022-05-25T15:17:03Z</time>
</trkpt>
<trkpt lat="48.079475" lon="11.096697">
<ele>584.839</ele>
<time>2022-05-25T15:17:04Z</time>
</trkpt>
<trkpt lat="48.079491" lon="11.096786">
<ele>584.724</ele>
<time>2022-05-25T15:17:05Z</time>
</trkpt>
<trkpt lat="48.079502" lon="11.096888">
<ele>584.64</ele>
<time>2022-05-25T15:17:06Z</time>
</trkpt>
<trkpt lat="48.07951" lon="11.096973">
<ele>584.583</ele>
<time>2022-05-25T15:17:07Z</time>
</trkpt>
<trkpt lat="48.079533" lon="11.097055">
<ele>584.538</ele>
<time>2022-05-25T15:17:08Z</time>
</trkpt>
<trkpt lat="48.079552" lon="11.097138">
<ele>584.512</ele>
<time>2022-05-25T15:17:09Z</time>
</trkpt>
<trkpt lat="48.079578" lon="11.097221">
<ele>584.512</ele>
<time>2022-05-25T15:17:10Z</time>
</trkpt>
<trkpt lat="48.079613" lon="11.097299">
<ele>584.512</ele>
<time>2022-05-25T15:17:11Z</time>
</trkpt>
<trkpt lat="48.079651" lon="11.097378">
<ele>584.512</ele>
<time>2022-05-25T15:17:12Z</time>
</trkpt>
<trkpt lat="48.079685" lon="11.097451">
<ele>584.512</ele>
<time>2022-05-25T15:17:13Z</time>
</trkpt>
<trkpt lat="48.079723" lon="11.097516">
<ele>584.512</ele>
<time>2022-05-25T15:17:14Z</time>
</trkpt>
<trkpt lat="48.079765" lon="11.097577">
<ele>584.512</ele>
<time>2022-05-25T15:17:15Z</time>
</trkpt>
<trkpt lat="48.079803" lon="11.097637">
<ele>584.274</ele>
<time>2022-05-25T15:17:16Z</time>
</trkpt>
<trkpt lat="48.079845" lon="11.097698">
<ele>584.087</ele>
<time>2022-05-25T15:17:17Z</time>
</trkpt>
<trkpt lat="48.079899" lon="11.097749">
<ele>583.958</ele>
<time>2022-05-25T15:17:18Z</time>
</trkpt>
<trkpt lat="48.079945" lon="11.097792">
<ele>583.817</ele>
<time>2022-05-25T15:17:19Z</time>
</trkpt>
<trkpt lat="48.080002" lon="11.097835">
<ele>583.708</ele>
<time>2022-05-25T15:17:20Z</time>
</trkpt>
<trkpt lat="48.080055" lon="11.097875">
<ele>583.626</ele>
<time>2022-05-25T15:17:21Z</time>
</trkpt>
<trkpt lat="48.080109" lon="11.097915">
<ele>583.574</ele>
<time>2022-05-25T15:17:22Z</time>
</trkpt>
<trkpt lat="48.080166" lon="11.097948">
<ele>583.551</ele>
<time>2022-05-25T15:17:23Z</time>
</trkpt>
<trkpt lat="48.080227" lon="11.097985">
<ele>583.551</ele>
<time>2022-05-25T15:17:24Z</time>
</trkpt>
<trkpt lat="48.08028" lon="11.09802">
<ele>583.551</ele>
<time>2022-05-25T15:17:25Z</time>
</trkpt>
<trkpt lat="48.080326" lon="11.098061">
<ele>583.551</ele>
<time>2022-05-25T15:17:26Z</time>
</trkpt>
<trkpt lat="48.08036" lon="11.098102">
<ele>583.551</ele>
<time>2022-05-25T15:17:27Z</time>
</trkpt>
<trkpt lat="48.080399" lon="11.098148">
<ele>583.551</ele>
<time>2022-05-25T15:17:28Z</time>
</trkpt>
<trkpt lat="48.080429" lon="11.0982">
<ele>583.551</ele>
<time>2022-05-25T15:17:29Z</time>
</trkpt>
<trkpt lat="48.080463" lon="11.098253">
<ele>583.551</ele>
<time>2022-05-25T15:17:30Z</time>
</trkpt>
<trkpt lat="48.080494" lon="11.09831">
<ele>583.551</ele>
<time>2022-05-25T15:17:31Z</time>
</trkpt>
<trkpt lat="48.080528" lon="11.098373">
<ele>583.551</ele>
<time>2022-05-25T15:17:32Z</time>
</trkpt>
<trkpt lat="48.080559" lon="11.098447">
<ele>583.551</ele>
<time>2022-05-25T15:17:33Z</time>
</trkpt>
<trkpt lat="48.080585" lon="11.09852">
<ele>583.551</ele>
<time>2022-05-25T15:17:34Z</time>
</trkpt>
<trkpt lat="48.080608" lon="11.098597">
<ele>583.551</ele>
<time>2022-05-25T15:17:35Z</time>
</trkpt>
<trkpt lat="48.080627" lon="11.098677">
<ele>583.551</ele>
<time>2022-05-25T15:17:36Z</time>
</trkpt>
<trkpt lat="48.080647" lon="11.098746">
<ele>583.551</ele>
<time>2022-05-25T15:17:37Z</time>
</trkpt>
<trkpt lat="48.080662" lon="11.098822">
<ele>583.551</ele>
<time>2022-05-25T15:17:38Z</time>
</trkpt>
<trkpt lat="48.080677" lon="11.098897">
<ele>583.551</ele>
<time>2022-05-25T15:17:39Z</time>
</trkpt>
<trkpt lat="48.080688" lon="11.098974">
<ele>583.551</ele>
<time>2022-05-25T15:17:40Z</time>
</trkpt>
<trkpt lat="48.080708" lon="11.099053">
<ele>583.551</ele>
<time>2022-05-25T15:17:41Z</time>
</trkpt>
<trkpt lat="48.080727" lon="11.099129">
<ele>583.551</ele>
<time>2022-05-25T15:17:42Z</time>
</trkpt>
<trkpt lat="48.080757" lon="11.099203">
<ele>583.551</ele>
<time>2022-05-25T15:17:43Z</time>
</trkpt>
<trkpt lat="48.08078" lon="11.099278">
<ele>583.551</ele>
<time>2022-05-25T15:17:44Z</time>
</trkpt>
<trkpt lat="48.080811" lon="11.09935">
<ele>583.551</ele>
<time>2022-05-25T15:17:45Z</time>
</trkpt>
<trkpt lat="48.080849" lon="11.099423">
<ele>583.551</ele>
<time>2022-05-25T15:17:46Z</time>
</trkpt>
<trkpt lat="48.080883" lon="11.099494">
<ele>583.551</ele>
<time>2022-05-25T15:17:47Z</time>
</trkpt>
<trkpt lat="48.080917" lon="11.099562">
<ele>583.551</ele>
<time>2022-05-25T15:17:48Z</time>
</trkpt>
<trkpt lat="48.080948" lon="11.099632">
<ele>583.551</ele>
<time>2022-05-25T15:17:49Z</time>
</trkpt>
<trkpt lat="48.080978" lon="11.099706">
<ele>583.551</ele>
<time>2022-05-25T15:17:50Z</time>
</trkpt>
<trkpt lat="48.081009" lon="11.099776">
<ele>583.551</ele>
<time>2022-05-25T15:17:51Z</time>
</trkpt>
<trkpt lat="48.081039" lon="11.099852">
<ele>583.551</ele>
<time>2022-05-25T15:17:52Z</time>
</trkpt>
<trkpt lat="48.08107" lon="11.099923">
<ele>583.551</ele>
<time>2022-05-25T15:17:53Z</time>
</trkpt>
<trkpt lat="48.0811" lon="11.099993">
<ele>583.551</ele>
<time>2022-05-25T15:17:54Z</time>
</trkpt>
<trkpt lat="48.081131" lon="11.100066">
<ele>583.551</ele>
<time>2022-05-25T15:17:55Z</time>
</trkpt>
<trkpt lat="48.081169" lon="11.10014">
<ele>583.551</ele>
<time>2022-05-25T15:17:56Z</time>
</trkpt>
<trkpt lat="48.081207" lon="11.100213">
<ele>583.551</ele>
<time>2022-05-25T15:17:57Z</time>
</trkpt>
<trkpt lat="48.081238" lon="11.100288">
<ele>583.551</ele>
<time>2022-05-25T15:17:58Z</time>
</trkpt>
<trkpt lat="48.081272" lon="11.100368">
<ele>583.551</ele>
<time>2022-05-25T15:17:59Z</time>
</trkpt>
<trkpt lat="48.081303" lon="11.100449">
<ele>583.285</ele>
<time>2022-05-25T15:18:00Z</time>
</trkpt>
<trkpt lat="48.081329" lon="11.100532">
<ele>583.081</ele>
<time>2022-05-25T15:18:01Z</time>
</trkpt>
<trkpt lat="48.081352" lon="11.10062">
<ele>582.929</ele>
<time>2022-05-25T15:18:02Z</time>
</trkpt>
<trkpt lat="48.081371" lon="11.10071">
<ele>582.841</ele>
<time>2022-05-25T15:18:03Z</time>
</trkpt>
<trkpt lat="48.081398" lon="11.100803">
<ele>582.499</ele>
<time>2022-05-25T15:18:04Z</time>
</trkpt>
<trkpt lat="48.081417" lon="11.100897">
<ele>582.247</ele>
<time>2022-05-25T15:18:05Z</time>
</trkpt>
<trkpt lat="48.081436" lon="11.100995">
<ele>582.068</ele>
<time>2022-05-25T15:18:06Z</time>
</trkpt>
<trkpt lat="48.081459" lon="11.101097">
<ele>581.95</ele>
<time>2022-05-25T15:18:07Z</time>
</trkpt>
<trkpt lat="48.081478" lon="11.101202">
<ele>581.871</ele>
<time>2022-05-25T15:18:08Z</time>
</trkpt>
<trkpt lat="48.081497" lon="11.101308">
<ele>581.548</ele>
<time>2022-05-25T15:18:09Z</time>
</trkpt>
<trkpt lat="48.081516" lon="11.101418">
<ele>581.297</ele>
<time>2022-05-25T15:18:10Z</time>
</trkpt>
<trkpt lat="48.081532" lon="11.101526">
<ele>581.144</ele>
<time>2022-05-25T15:18:11Z</time>
</trkpt>
<trkpt lat="48.081543" lon="11.101637">
<ele>580.72</ele>
<time>2022-05-25T15:18:12Z</time>
</trkpt>
<trkpt lat="48.081554" lon="11.101747">
<ele>580.381</ele>
<time>2022-05-25T15:18:13Z</time>
</trkpt>
<trkpt lat="48.081562" lon="11.101862">
<ele>580.119</ele>
<time>2022-05-25T15:18:14Z</time>
</trkpt>
<trkpt lat="48.08157" lon="11.101974">
<ele>579.955</ele>
<time>2022-05-25T15:18:15Z</time>
</trkpt>
<trkpt lat="48.081581" lon="11.102092">
<ele>579.542</ele>
<time>2022-05-25T15:18:16Z</time>
</trkpt>
<trkpt lat="48.081593" lon="11.102209">
<ele>579.233</ele>
<time>2022-05-25T15:18:17Z</time>
</trkpt>
<trkpt lat="48.0816" lon="11.102324">
<ele>579.035</ele>
<time>2022-05-25T15:18:18Z</time>
</trkpt>
<trkpt lat="48.081604" lon="11.102444">
<ele>578.856</ele>
<time>2022-05-25T15:18:19Z</time>
</trkpt>
<trkpt lat="48.081612" lon="11.102561">
<ele>578.499</ele>
<time>2022-05-25T15:18:20Z</time>
</trkpt>
<trkpt lat="48.081623" lon="11.10268">
<ele>578.216</ele>
<time>2022-05-25T15:18:21Z</time>
</trkpt>
<trkpt lat="48.081631" lon="11.102796">
<ele>578.035</ele>
<time>2022-05-25T15:18:22Z</time>
</trkpt>
<trkpt lat="48.081635" lon="11.10291">
<ele>577.653</ele>
<time>2022-05-25T15:18:23Z</time>
</trkpt>
<trkpt lat="48.081642" lon="11.103024">
<ele>577.271</ele>
<time>2022-05-25T15:18:24Z</time>
</trkpt>
<trkpt lat="48.081654" lon="11.103138">
<ele>577.074</ele>
<time>2022-05-25T15:18:25Z</time>
</trkpt>
<trkpt lat="48.081661" lon="11.103256">
<ele>576.942</ele>
<time>2022-05-25T15:18:26Z</time>
</trkpt>
<trkpt lat="48.081669" lon="11.103374">
<ele>576.864</ele>
<time>2022-05-25T15:18:27Z</time>
</trkpt>
<trkpt lat="48.081676" lon="11.103481">
<ele>576.808</ele>
<time>2022-05-25T15:18:28Z</time>
</trkpt>
<trkpt lat="48.081688" lon="11.103586">
<ele>576.527</ele>
<time>2022-05-25T15:18:29Z</time>
</trkpt>
<trkpt lat="48.081696" lon="11.103693">
<ele>576.309</ele>
<time>2022-05-25T15:18:30Z</time>
</trkpt>
<trkpt lat="48.081699" lon="11.1038">
<ele>576.148</ele>
<time>2022-05-25T15:18:31Z</time>
</trkpt>
<trkpt lat="48.081711" lon="11.103907">
<ele>576.019</ele>
<time>2022-05-25T15:18:32Z</time>
</trkpt>
<trkpt lat="48.081718" lon="11.104012">
<ele>575.92</ele>
<time>2022-05-25T15:18:33Z</time>
</trkpt>
<trkpt lat="48.081726" lon="11.104114">
<ele>575.858</ele>
<time>2022-05-25T15:18:34Z</time>
</trkpt>
<trkpt lat="48.08173" lon="11.104215">
<ele>575.572</ele>
<time>2022-05-25T15:18:35Z</time>
</trkpt>
<trkpt lat="48.08173" lon="11.104321">
<ele>575.347</ele>
<time>2022-05-25T15:18:36Z</time>
</trkpt>
<trkpt lat="48.081734" lon="11.104422">
<ele>575.185</ele>
<time>2022-05-25T15:18:37Z</time>
</trkpt>
<trkpt lat="48.081738" lon="11.104518">
<ele>575.083</ele>
<time>2022-05-25T15:18:38Z</time>
</trkpt>
<trkpt lat="48.081741" lon="11.104614">
<ele>574.972</ele>
<time>2022-05-25T15:18:39Z</time>
</trkpt>
<trkpt lat="48.081745" lon="11.104713">
<ele>574.891</ele>
<time>2022-05-25T15:18:40Z</time>
</trkpt>
<trkpt lat="48.081749" lon="11.104807">
<ele>574.838</ele>
<time>2022-05-25T15:18:41Z</time>
</trkpt>
<trkpt lat="48.081757" lon="11.104901">
<ele>574.812</ele>
<time>2022-05-25T15:18:42Z</time>
</trkpt>
<trkpt lat="48.08176" lon="11.104994">
<ele>574.812</ele>
<time>2022-05-25T15:18:43Z</time>
</trkpt>
<trkpt lat="48.081764" lon="11.105086">
<ele>574.813</ele>
<time>2022-05-25T15:18:44Z</time>
</trkpt>
<trkpt lat="48.081772" lon="11.10518">
<ele>574.812</ele>
<time>2022-05-25T15:18:45Z</time>
</trkpt>
<trkpt lat="48.081779" lon="11.105278">
<ele>574.812</ele>
<time>2022-05-25T15:18:46Z</time>
</trkpt>
<trkpt lat="48.081783" lon="11.105377">
<ele>574.812</ele>
<time>2022-05-25T15:18:47Z</time>
</trkpt>
<trkpt lat="48.081787" lon="11.105474">
<ele>574.812</ele>
<time>2022-05-25T15:18:48Z</time>
</trkpt>
<trkpt lat="48.081791" lon="11.105574">
<ele>574.597</ele>
<time>2022-05-25T15:18:49Z</time>
</trkpt>
<trkpt lat="48.081795" lon="11.105675">
<ele>574.417</ele>
<time>2022-05-25T15:18:50Z</time>
</trkpt>
<trkpt lat="48.081795" lon="11.105777">
<ele>574.269</ele>
<time>2022-05-25T15:18:51Z</time>
</trkpt>
<trkpt lat="48.081795" lon="11.105882">
<ele>574.153</ele>
<time>2022-05-25T15:18:52Z</time>
</trkpt>
<trkpt lat="48.081799" lon="11.105987">
<ele>574.063</ele>
<time>2022-05-25T15:18:53Z</time>
</trkpt>
<trkpt lat="48.081802" lon="11.106093">
<ele>574.011</ele>
<time>2022-05-25T15:18:54Z</time>
</trkpt>
<trkpt lat="48.081802" lon="11.106194">
<ele>573.725</ele>
<time>2022-05-25T15:18:55Z</time>
</trkpt>
<trkpt lat="48.08181" lon="11.106292">
<ele>573.505</ele>
<time>2022-05-25T15:18:56Z</time>
</trkpt>
<trkpt lat="48.081814" lon="11.106385">
<ele>573.347</ele>
<time>2022-05-25T15:18:57Z</time>
</trkpt>
<trkpt lat="48.081814" lon="11.106473">
<ele>573.245</ele>
<time>2022-05-25T15:18:58Z</time>
</trkpt>
<trkpt lat="48.081814" lon="11.106565">
<ele>573.136</ele>
<time>2022-05-25T15:18:59Z</time>
</trkpt>
<trkpt lat="48.081814" lon="11.10666">
<ele>573.057</ele>
<time>2022-05-25T15:19:00Z</time>
</trkpt>
<trkpt lat="48.081814" lon="11.10675">
<ele>573.004</ele>
<time>2022-05-25T15:19:01Z</time>
</trkpt>
<trkpt lat="48.081814" lon="11.106843">
<ele>572.978</ele>
<time>2022-05-25T15:19:02Z</time>
</trkpt>
<trkpt lat="48.08181" lon="11.106938">
<ele>572.978</ele>
<time>2022-05-25T15:19:03Z</time>
</trkpt>
<trkpt lat="48.081806" lon="11.107034">
<ele>572.978</ele>
<time>2022-05-25T15:19:04Z</time>
</trkpt>
<trkpt lat="48.081799" lon="11.107132">
<ele>572.978</ele>
<time>2022-05-25T15:19:05Z</time>
</trkpt>
<trkpt lat="48.081795" lon="11.107228">
<ele>572.978</ele>
<time>2022-05-25T15:19:06Z</time>
</trkpt>
<trkpt lat="48.081795" lon="11.107319">
<ele>572.978</ele>
<time>2022-05-25T15:19:07Z</time>
</trkpt>
<trkpt lat="48.081791" lon="11.107407">
<ele>572.978</ele>
<time>2022-05-25T15:19:08Z</time>
</trkpt>
<trkpt lat="48.081787" lon="11.107491">
<ele>572.978</ele>
<time>2022-05-25T15:19:09Z</time>
</trkpt>
<trkpt lat="48.081783" lon="11.107573">
<ele>572.978</ele>
<time>2022-05-25T15:19:10Z</time>
</trkpt>
<trkpt lat="48.081779" lon="11.10765">
<ele>572.978</ele>
<time>2022-05-25T15:19:11Z</time>
</trkpt>
<trkpt lat="48.081776" lon="11.107728">
<ele>572.978</ele>
<time>2022-05-25T15:19:12Z</time>
</trkpt>
<trkpt lat="48.081772" lon="11.107805">
<ele>572.978</ele>
<time>2022-05-25T15:19:13Z</time>
</trkpt>
<trkpt lat="48.081768" lon="11.107881">
<ele>572.978</ele>
<time>2022-05-25T15:19:14Z</time>
</trkpt>
<trkpt lat="48.08176" lon="11.107955">
<ele>572.978</ele>
<time>2022-05-25T15:19:15Z</time>
</trkpt>
<trkpt lat="48.08176" lon="11.108035">
<ele>572.978</ele>
<time>2022-05-25T15:19:16Z</time>
</trkpt>
<trkpt lat="48.08176" lon="11.108115">
<ele>572.978</ele>
<time>2022-05-25T15:19:17Z</time>
</trkpt>
<trkpt lat="48.081757" lon="11.108193">
<ele>572.978</ele>
<time>2022-05-25T15:19:18Z</time>
</trkpt>
<trkpt lat="48.081749" lon="11.108272">
<ele>572.978</ele>
<time>2022-05-25T15:19:19Z</time>
</trkpt>
<trkpt lat="48.081749" lon="11.10835">
<ele>572.978</ele>
<time>2022-05-25T15:19:20Z</time>
</trkpt>
<trkpt lat="48.081745" lon="11.108427">
<ele>572.978</ele>
<time>2022-05-25T15:19:21Z</time>
</trkpt>
<trkpt lat="48.081741" lon="11.108505">
<ele>572.978</ele>
<time>2022-05-25T15:19:22Z</time>
</trkpt>
<trkpt lat="48.081738" lon="11.108584">
<ele>572.978</ele>
<time>2022-05-25T15:19:23Z</time>
</trkpt>
<trkpt lat="48.081734" lon="11.108664">
<ele>573.231</ele>
<time>2022-05-25T15:19:24Z</time>
</trkpt>
<trkpt lat="48.08173" lon="11.108735">
<ele>573.428</ele>
<time>2022-05-25T15:19:25Z</time>
</trkpt>
<trkpt lat="48.08173" lon="11.108805">
<ele>573.58</ele>
<time>2022-05-25T15:19:26Z</time>
</trkpt>
<trkpt lat="48.08173" lon="11.10887">
<ele>573.695</ele>
<time>2022-05-25T15:19:27Z</time>
</trkpt>
<trkpt lat="48.081726" lon="11.108933">
<ele>573.777</ele>
<time>2022-05-25T15:19:28Z</time>
</trkpt>
<trkpt lat="48.08173" lon="11.108997">
<ele>573.859</ele>
<time>2022-05-25T15:19:29Z</time>
</trkpt>
<trkpt lat="48.08173" lon="11.109056">
<ele>573.911</ele>
<time>2022-05-25T15:19:30Z</time>
</trkpt>
<trkpt lat="48.08173" lon="11.109117">
<ele>574.139</ele>
<time>2022-05-25T15:19:31Z</time>
</trkpt>
<trkpt lat="48.08173" lon="11.109178">
<ele>574.372</ele>
<time>2022-05-25T15:19:32Z</time>
</trkpt>
<trkpt lat="48.08173" lon="11.109243">
<ele>574.523</ele>
<time>2022-05-25T15:19:33Z</time>
</trkpt>
<trkpt lat="48.08173" lon="11.109312">
<ele>574.637</ele>
<time>2022-05-25T15:19:34Z</time>
</trkpt>
<trkpt lat="48.08173" lon="11.109373">
<ele>574.721</ele>
<time>2022-05-25T15:19:35Z</time>
</trkpt>
<trkpt lat="48.081726" lon="11.109433">
<ele>574.765</ele>
<time>2022-05-25T15:19:36Z</time>
</trkpt>
<trkpt lat="48.081726" lon="11.109495">
<ele>574.792</ele>
<time>2022-05-25T15:19:37Z</time>
</trkpt>
<trkpt lat="48.081726" lon="11.109553">
<ele>574.813</ele>
<time>2022-05-25T15:19:38Z</time>
</trkpt>
<trkpt lat="48.081726" lon="11.10961">
<ele>574.813</ele>
<time>2022-05-25T15:19:39Z</time>
</trkpt>
<trkpt lat="48.08173" lon="11.109667">
<ele>574.812</ele>
<time>2022-05-25T15:19:40Z</time>
</trkpt>
<trkpt lat="48.08173" lon="11.109725">
<ele>574.812</ele>
<time>2022-05-25T15:19:41Z</time>
</trkpt>
<trkpt lat="48.081738" lon="11.109787">
<ele>574.812</ele>
<time>2022-05-25T15:19:42Z</time>
</trkpt>
<trkpt lat="48.081745" lon="11.109857">
<ele>574.812</ele>
<time>2022-05-25T15:19:43Z</time>
</trkpt>
<trkpt lat="48.081745" lon="11.109934">
<ele>574.812</ele>
<time>2022-05-25T15:19:44Z</time>
</trkpt>
<trkpt lat="48.081749" lon="11.110018">
<ele>574.812</ele>
<time>2022-05-25T15:19:45Z</time>
</trkpt>
<trkpt lat="48.081757" lon="11.110113">
<ele>574.57</ele>
<time>2022-05-25T15:19:46Z</time>
</trkpt>
<trkpt lat="48.081753" lon="11.110212">
<ele>574.42</ele>
<time>2022-05-25T15:19:47Z</time>
</trkpt>
<trkpt lat="48.081749" lon="11.110313">
<ele>573.988</ele>
<time>2022-05-25T15:19:48Z</time>
</trkpt>
<trkpt lat="48.081749" lon="11.110418">
<ele>573.604</ele>
<time>2022-05-25T15:19:49Z</time>
</trkpt>
<trkpt lat="48.081753" lon="11.110522">
<ele>573.36</ele>
<time>2022-05-25T15:19:50Z</time>
</trkpt>
<trkpt lat="48.08176" lon="11.11063">
<ele>572.943</ele>
<time>2022-05-25T15:19:51Z</time>
</trkpt>
<trkpt lat="48.081768" lon="11.110737">
<ele>572.345</ele>
<time>2022-05-25T15:19:52Z</time>
</trkpt>
<trkpt lat="48.081768" lon="11.110847">
<ele>571.956</ele>
<time>2022-05-25T15:19:53Z</time>
</trkpt>
<trkpt lat="48.081768" lon="11.110951">
<ele>571.326</ele>
<time>2022-05-25T15:19:54Z</time>
</trkpt>
<trkpt lat="48.081783" lon="11.111038">
<ele>570.893</ele>
<time>2022-05-25T15:19:55Z</time>
</trkpt>
<trkpt lat="48.081799" lon="11.11112">
<ele>570.232</ele>
<time>2022-05-25T15:19:56Z</time>
</trkpt>
<trkpt lat="48.081821" lon="11.111193">
<ele>569.822</ele>
<time>2022-05-25T15:19:57Z</time>
</trkpt>
<trkpt lat="48.081829" lon="11.111266">
<ele>569.508</ele>
<time>2022-05-25T15:19:58Z</time>
</trkpt>
<trkpt lat="48.081848" lon="11.111343">
<ele>569.26</ele>
<time>2022-05-25T15:19:59Z</time>
</trkpt>
<trkpt lat="48.081863" lon="11.111419">
<ele>568.845</ele>
<time>2022-05-25T15:20:00Z</time>
</trkpt>
<trkpt lat="48.081875" lon="11.111497">
<ele>568.521</ele>
<time>2022-05-25T15:20:01Z</time>
</trkpt>
<trkpt lat="48.081879" lon="11.111578">
<ele>568.281</ele>
<time>2022-05-25T15:20:02Z</time>
</trkpt>
<trkpt lat="48.081882" lon="11.111656">
<ele>568.098</ele>
<time>2022-05-25T15:20:03Z</time>
</trkpt>
<trkpt lat="48.081886" lon="11.111729">
<ele>567.918</ele>
<time>2022-05-25T15:20:04Z</time>
</trkpt>
<trkpt lat="48.08189" lon="11.111803">
<ele>567.859</ele>
<time>2022-05-25T15:20:05Z</time>
</trkpt>
<trkpt lat="48.08189" lon="11.111884">
<ele>567.832</ele>
<time>2022-05-25T15:20:06Z</time>
</trkpt>
<trkpt lat="48.081886" lon="11.111966">
<ele>567.827</ele>
<time>2022-05-25T15:20:07Z</time>
</trkpt>
<trkpt lat="48.08189" lon="11.112054">
<ele>567.827</ele>
<time>2022-05-25T15:20:08Z</time>
</trkpt>
<trkpt lat="48.08189" lon="11.112142">
<ele>567.827</ele>
<time>2022-05-25T15:20:09Z</time>
</trkpt>
<trkpt lat="48.08189" lon="11.112226">
<ele>567.827</ele>
<time>2022-05-25T15:20:10Z</time>
</trkpt>
<trkpt lat="48.081898" lon="11.112315">
<ele>567.827</ele>
<time>2022-05-25T15:20:11Z</time>
</trkpt>
<trkpt lat="48.081905" lon="11.112402">
<ele>567.827</ele>
<time>2022-05-25T15:20:12Z</time>
</trkpt>
<trkpt lat="48.081917" lon="11.112485">
<ele>567.586</ele>
<time>2022-05-25T15:20:13Z</time>
</trkpt>
<trkpt lat="48.081917" lon="11.112565">
<ele>567.403</ele>
<time>2022-05-25T15:20:14Z</time>
</trkpt>
<trkpt lat="48.081924" lon="11.11264">
<ele>567.265</ele>
<time>2022-05-25T15:20:15Z</time>
</trkpt>
<trkpt lat="48.081924" lon="11.112715">
<ele>567.162</ele>
<time>2022-05-25T15:20:16Z</time>
</trkpt>
<trkpt lat="48.081921" lon="11.112782">
<ele>567.086</ele>
<time>2022-05-25T15:20:17Z</time>
</trkpt>
<trkpt lat="48.081909" lon="11.112846">
<ele>567.029</ele>
<time>2022-05-25T15:20:18Z</time>
</trkpt>
<trkpt lat="48.081882" lon="11.112892">
<ele>566.98</ele>
<time>2022-05-25T15:20:19Z</time>
</trkpt>
<trkpt lat="48.081856" lon="11.11292">
<ele>566.954</ele>
<time>2022-05-25T15:20:20Z</time>
</trkpt>
<trkpt lat="48.081814" lon="11.112933">
<ele>566.696</ele>
<time>2022-05-25T15:20:21Z</time>
</trkpt>
<trkpt lat="48.081772" lon="11.112945">
<ele>566.485</ele>
<time>2022-05-25T15:20:22Z</time>
</trkpt>
<trkpt lat="48.081726" lon="11.112962">
<ele>566.316</ele>
<time>2022-05-25T15:20:23Z</time>
</trkpt>
<trkpt lat="48.08168" lon="11.112992">
<ele>566.188</ele>
<time>2022-05-25T15:20:24Z</time>
</trkpt>
<trkpt lat="48.081631" lon="11.11303">
<ele>566.112</ele>
<time>2022-05-25T15:20:25Z</time>
</trkpt>
<trkpt lat="48.081593" lon="11.113051">
<ele>565.78</ele>
<time>2022-05-25T15:20:26Z</time>
</trkpt>
<trkpt lat="48.081547" lon="11.113064">
<ele>565.526</ele>
<time>2022-05-25T15:20:27Z</time>
</trkpt>
<trkpt lat="48.081501" lon="11.11308">
<ele>565.358</ele>
<time>2022-05-25T15:20:28Z</time>
</trkpt>
<trkpt lat="48.081459" lon="11.113093">
<ele>564.98</ele>
<time>2022-05-25T15:20:29Z</time>
</trkpt>
<trkpt lat="48.081406" lon="11.113113">
<ele>564.716</ele>
<time>2022-05-25T15:20:30Z</time>
</trkpt>
<trkpt lat="48.08136" lon="11.113135">
<ele>564.252</ele>
<time>2022-05-25T15:20:31Z</time>
</trkpt>
<trkpt lat="48.081303" lon="11.11316">
<ele>563.88</ele>
<time>2022-05-25T15:20:32Z</time>
</trkpt>
<trkpt lat="48.081238" lon="11.113185">
<ele>563.589</ele>
<time>2022-05-25T15:20:33Z</time>
</trkpt>
<trkpt lat="48.081188" lon="11.113209">
<ele>563.418</ele>
<time>2022-05-25T15:20:34Z</time>
</trkpt>
<trkpt lat="48.081139" lon="11.113235">
<ele>562.996</ele>
<time>2022-05-25T15:20:35Z</time>
</trkpt>
<trkpt lat="48.0811" lon="11.113253">
<ele>562.698</ele>
<time>2022-05-25T15:20:36Z</time>
</trkpt>
<trkpt lat="48.081055" lon="11.113277">
<ele>562.518</ele>
<time>2022-05-25T15:20:37Z</time>
</trkpt>
<trkpt lat="48.081005" lon="11.113295">
<ele>562.152</ele>
<time>2022-05-25T15:20:38Z</time>
</trkpt>
<trkpt lat="48.080952" lon="11.113332">
<ele>561.863</ele>
<time>2022-05-25T15:20:39Z</time>
</trkpt>
<trkpt lat="48.08091" lon="11.113358">
<ele>561.386</ele>
<time>2022-05-25T15:20:40Z</time>
</trkpt>
<trkpt lat="48.080868" lon="11.11339">
<ele>560.988</ele>
<time>2022-05-25T15:20:41Z</time>
</trkpt>
<trkpt lat="48.080837" lon="11.113426">
<ele>560.71</ele>
<time>2022-05-25T15:20:42Z</time>
</trkpt>
<trkpt lat="48.080814" lon="11.113466">
<ele>560.284</ele>
<time>2022-05-25T15:20:43Z</time>
</trkpt>
<trkpt lat="48.080795" lon="11.113521">
<ele>559.965</ele>
<time>2022-05-25T15:20:44Z</time>
</trkpt>
<trkpt lat="48.080791" lon="11.113594">
<ele>559.462</ele>
<time>2022-05-25T15:20:45Z</time>
</trkpt>
<trkpt lat="48.080788" lon="11.113669">
<ele>559.018</ele>
<time>2022-05-25T15:20:46Z</time>
</trkpt>
<trkpt lat="48.080788" lon="11.11374">
<ele>558.747</ele>
<time>2022-05-25T15:20:47Z</time>
</trkpt>
<trkpt lat="48.080795" lon="11.113807">
<ele>558.538</ele>
<time>2022-05-25T15:20:48Z</time>
</trkpt>
<trkpt lat="48.080807" lon="11.113873">
<ele>558.346</ele>
<time>2022-05-25T15:20:49Z</time>
</trkpt>
<trkpt lat="48.080814" lon="11.113938">
<ele>558.223</ele>
<time>2022-05-25T15:20:50Z</time>
</trkpt>
<trkpt lat="48.080822" lon="11.114005">
<ele>558.166</ele>
<time>2022-05-25T15:20:51Z</time>
</trkpt>
<trkpt lat="48.08083" lon="11.114072">
<ele>558.143</ele>
<time>2022-05-25T15:20:52Z</time>
</trkpt>
<trkpt lat="48.080845" lon="11.114132">
<ele>558.143</ele>
<time>2022-05-25T15:20:53Z</time>
</trkpt>
<trkpt lat="48.080853" lon="11.114188">
<ele>557.874</ele>
<time>2022-05-25T15:20:54Z</time>
</trkpt>
<trkpt lat="48.08086" lon="11.114244">
<ele>557.658</ele>
<time>2022-05-25T15:20:55Z</time>
</trkpt>
<trkpt lat="48.080868" lon="11.114305">
<ele>557.496</ele>
<time>2022-05-25T15:20:56Z</time>
</trkpt>
<trkpt lat="48.080868" lon="11.114357">
<ele>557.369</ele>
<time>2022-05-25T15:20:57Z</time>
</trkpt>
<trkpt lat="48.080856" lon="11.114394">
<ele>557.278</ele>
<time>2022-05-25T15:20:58Z</time>
</trkpt>
<trkpt lat="48.080845" lon="11.114429">
<ele>557.189</ele>
<time>2022-05-25T15:20:59Z</time>
</trkpt>
<trkpt lat="48.080826" lon="11.114453">
<ele>557.128</ele>
<time>2022-05-25T15:21:00Z</time>
</trkpt>
<trkpt lat="48.080791" lon="11.114465">
<ele>557.096</ele>
<time>2022-05-25T15:21:01Z</time>
</trkpt>
<trkpt lat="48.080753" lon="11.114471">
<ele>557.096</ele>
<time>2022-05-25T15:21:02Z</time>
</trkpt>
<trkpt lat="48.080719" lon="11.114464">
<ele>557.096</ele>
<time>2022-05-25T15:21:03Z</time>
</trkpt>
<trkpt lat="48.080673" lon="11.114455">
<ele>557.096</ele>
<time>2022-05-25T15:21:04Z</time>
</trkpt>
<trkpt lat="48.08062" lon="11.11445">
<ele>557.096</ele>
<time>2022-05-25T15:21:05Z</time>
</trkpt>
<trkpt lat="48.08057" lon="11.11445">
<ele>557.096</ele>
<time>2022-05-25T15:21:06Z</time>
</trkpt>
<trkpt lat="48.080521" lon="11.114449">
<ele>557.096</ele>
<time>2022-05-25T15:21:07Z</time>
</trkpt>
<trkpt lat="48.080471" lon="11.114449">
<ele>557.096</ele>
<time>2022-05-25T15:21:08Z</time>
</trkpt>
<trkpt lat="48.080425" lon="11.114459">
<ele>557.096</ele>
<time>2022-05-25T15:21:09Z</time>
</trkpt>
<trkpt lat="48.080379" lon="11.114473">
<ele>557.096</ele>
<time>2022-05-25T15:21:10Z</time>
</trkpt>
<trkpt lat="48.080338" lon="11.114476">
<ele>557.096</ele>
<time>2022-05-25T15:21:11Z</time>
</trkpt>
<trkpt lat="48.080296" lon="11.114471">
<ele>557.096</ele>
<time>2022-05-25T15:21:12Z</time>
</trkpt>
<trkpt lat="48.080254" lon="11.11447">
<ele>557.096</ele>
<time>2022-05-25T15:21:13Z</time>
</trkpt>
<trkpt lat="48.080212" lon="11.114465">
<ele>557.096</ele>
<time>2022-05-25T15:21:14Z</time>
</trkpt>
<trkpt lat="48.080162" lon="11.114467">
<ele>557.096</ele>
<time>2022-05-25T15:21:15Z</time>
</trkpt>
<trkpt lat="48.080112" lon="11.114471">
<ele>557.096</ele>
<time>2022-05-25T15:21:16Z</time>
</trkpt>
<trkpt lat="48.080063" lon="11.114476">
<ele>557.096</ele>
<time>2022-05-25T15:21:17Z</time>
</trkpt>
<trkpt lat="48.080006" lon="11.114475">
<ele>557.096</ele>
<time>2022-05-25T15:21:18Z</time>
</trkpt>
<trkpt lat="48.079956" lon="11.114475">
<ele>557.096</ele>
<time>2022-05-25T15:21:19Z</time>
</trkpt>
<trkpt lat="48.079906" lon="11.114475">
<ele>557.096</ele>
<time>2022-05-25T15:21:20Z</time>
</trkpt>
<trkpt lat="48.079865" lon="11.114471">
<ele>557.096</ele>
<time>2022-05-25T15:21:21Z</time>
</trkpt>
<trkpt lat="48.079815" lon="11.11447">
<ele>557.096</ele>
<time>2022-05-25T15:21:22Z</time>
</trkpt>
<trkpt lat="48.079765" lon="11.114471">
<ele>557.096</ele>
<time>2022-05-25T15:21:23Z</time>
</trkpt>
<trkpt lat="48.079712" lon="11.114467">
<ele>557.096</ele>
<time>2022-05-25T15:21:24Z</time>
</trkpt>
<trkpt lat="48.079666" lon="11.11447">
<ele>557.096</ele>
<time>2022-05-25T15:21:26Z</time>
</trkpt>
<trkpt lat="48.079571" lon="11.114484">
<ele>557.096</ele>
<time>2022-05-25T15:21:27Z</time>
</trkpt>
<trkpt lat="48.079521" lon="11.114484">
<ele>557.096</ele>
<time>2022-05-25T15:21:28Z</time>
</trkpt>
<trkpt lat="48.079479" lon="11.114476">
<ele>557.096</ele>
<time>2022-05-25T15:21:29Z</time>
</trkpt>
<trkpt lat="48.079441" lon="11.114465">
<ele>557.096</ele>
<time>2022-05-25T15:21:30Z</time>
</trkpt>
<trkpt lat="48.079395" lon="11.114459">
<ele>557.096</ele>
<time>2022-05-25T15:21:31Z</time>
</trkpt>
<trkpt lat="48.07935" lon="11.114462">
<ele>557.096</ele>
<time>2022-05-25T15:21:32Z</time>
</trkpt>
<trkpt lat="48.079304" lon="11.114457">
<ele>557.096</ele>
<time>2022-05-25T15:21:33Z</time>
</trkpt>
<trkpt lat="48.079258" lon="11.114447">
<ele>557.096</ele>
<time>2022-05-25T15:21:34Z</time>
</trkpt>
<trkpt lat="48.079216" lon="11.114447">
<ele>557.096</ele>
<time>2022-05-25T15:21:36Z</time>
</trkpt>
<trkpt lat="48.079128" lon="11.114478">
<ele>557.096</ele>
<time>2022-05-25T15:21:37Z</time>
</trkpt>
<trkpt lat="48.079098" lon="11.114478">
<ele>557.096</ele>
<time>2022-05-25T15:21:38Z</time>
</trkpt>
<trkpt lat="48.07906" lon="11.114478">
<ele>557.096</ele>
<time>2022-05-25T15:21:39Z</time>
</trkpt>
<trkpt lat="48.079025" lon="11.114478">
<ele>557.096</ele>
<time>2022-05-25T15:21:40Z</time>
</trkpt>
<trkpt lat="48.078991" lon="11.11447">
<ele>557.096</ele>
<time>2022-05-25T15:21:41Z</time>
</trkpt>
<trkpt lat="48.078957" lon="11.114459">
<ele>557.096</ele>
<time>2022-05-25T15:21:42Z</time>
</trkpt>
<trkpt lat="48.078922" lon="11.114445">
<ele>557.096</ele>
<time>2022-05-25T15:21:43Z</time>
</trkpt>
<trkpt lat="48.078899" lon="11.114431">
<ele>557.096</ele>
<time>2022-05-25T15:21:44Z</time>
</trkpt>
<trkpt lat="48.078869" lon="11.114427">
<ele>557.096</ele>
<time>2022-05-25T15:21:46Z</time>
</trkpt>
<trkpt lat="48.078808" lon="11.11441">
<ele>557.096</ele>
<time>2022-05-25T15:21:47Z</time>
</trkpt>
<trkpt lat="48.078766" lon="11.114398">
<ele>557.096</ele>
<time>2022-05-25T15:21:48Z</time>
</trkpt>
<trkpt lat="48.07872" lon="11.114392">
<ele>557.096</ele>
<time>2022-05-25T15:21:49Z</time>
</trkpt>
<trkpt lat="48.078678" lon="11.11439">
<ele>557.096</ele>
<time>2022-05-25T15:21:50Z</time>
</trkpt>
<trkpt lat="48.07864" lon="11.114398">
<ele>557.096</ele>
<time>2022-05-25T15:21:51Z</time>
</trkpt>
<trkpt lat="48.078609" lon="11.114405">
<ele>557.096</ele>
<time>2022-05-25T15:21:52Z</time>
</trkpt>
<trkpt lat="48.078583" lon="11.114408">
<ele>557.096</ele>
<time>2022-05-25T15:21:53Z</time>
</trkpt>
<trkpt lat="48.078548" lon="11.114405">
<ele>557.096</ele>
<time>2022-05-25T15:21:54Z</time>
</trkpt>
<trkpt lat="48.07851" lon="11.114417">
<ele>557.096</ele>
<time>2022-05-25T15:21:56Z</time>
</trkpt>
<trkpt lat="48.07843" lon="11.114442">
<ele>557.096</ele>
<time>2022-05-25T15:21:57Z</time>
</trkpt>
<trkpt lat="48.078392" lon="11.114443">
<ele>557.096</ele>
<time>2022-05-25T15:21:58Z</time>
</trkpt>
<trkpt lat="48.078339" lon="11.114451">
<ele>557.096</ele>
<time>2022-05-25T15:21:59Z</time>
</trkpt>
<trkpt lat="48.078289" lon="11.114459">
<ele>557.096</ele>
<time>2022-05-25T15:22:00Z</time>
</trkpt>
<trkpt lat="48.078239" lon="11.11447">
<ele>557.096</ele>
<time>2022-05-25T15:22:01Z</time>
</trkpt>
<trkpt lat="48.078197" lon="11.114484">
<ele>557.096</ele>
<time>2022-05-25T15:22:02Z</time>
</trkpt>
<trkpt lat="48.078159" lon="11.114493">
<ele>557.096</ele>
<time>2022-05-25T15:22:03Z</time>
</trkpt>
<trkpt lat="48.078121" lon="11.114505">
<ele>557.096</ele>
<time>2022-05-25T15:22:04Z</time>
</trkpt>
<trkpt lat="48.078079" lon="11.114525">
<ele>557.096</ele>
<time>2022-05-25T15:22:05Z</time>
</trkpt>
<trkpt lat="48.078045" lon="11.114547">
<ele>557.096</ele>
<time>2022-05-25T15:22:06Z</time>
</trkpt>
<trkpt lat="48.078011" lon="11.114567">
<ele>557.096</ele>
<time>2022-05-25T15:22:07Z</time>
</trkpt>
<trkpt lat="48.077972" lon="11.114592">
<ele>557.096</ele>
<time>2022-05-25T15:22:08Z</time>
</trkpt>
<trkpt lat="48.077934" lon="11.114614">
<ele>557.096</ele>
<time>2022-05-25T15:22:09Z</time>
</trkpt>
<trkpt lat="48.0779" lon="11.114637">
<ele>557.096</ele>
<time>2022-05-25T15:22:10Z</time>
</trkpt>
<trkpt lat="48.077862" lon="11.11466">
<ele>557.096</ele>
<time>2022-05-25T15:22:11Z</time>
</trkpt>
<trkpt lat="48.077827" lon="11.114681">
<ele>557.096</ele>
<time>2022-05-25T15:22:12Z</time>
</trkpt>
<trkpt lat="48.077793" lon="11.1147">
<ele>557.096</ele>
<time>2022-05-25T15:22:13Z</time>
</trkpt>
<trkpt lat="48.077763" lon="11.114707">
<ele>557.096</ele>
<time>2022-05-25T15:22:14Z</time>
</trkpt>
<trkpt lat="48.07774" lon="11.114713">
<ele>557.309</ele>
<time>2022-05-25T15:22:15Z</time>
</trkpt>
<trkpt lat="48.077713" lon="11.114723">
<ele>557.475</ele>
<time>2022-05-25T15:22:16Z</time>
</trkpt>
<trkpt lat="48.077682" lon="11.114736">
<ele>557.607</ele>
<time>2022-05-25T15:22:17Z</time>
</trkpt>
<trkpt lat="48.077652" lon="11.114746">
<ele>557.704</ele>
<time>2022-05-25T15:22:18Z</time>
</trkpt>
<trkpt lat="48.077621" lon="11.114758">
<ele>557.809</ele>
<time>2022-05-25T15:22:19Z</time>
</trkpt>
<trkpt lat="48.077599" lon="11.11476">
<ele>557.887</ele>
<time>2022-05-25T15:22:20Z</time>
</trkpt>
<trkpt lat="48.077576" lon="11.114757">
<ele>557.942</ele>
<time>2022-05-25T15:22:21Z</time>
</trkpt>
<trkpt lat="48.077553" lon="11.114753">
<ele>557.969</ele>
<time>2022-05-25T15:22:22Z</time>
</trkpt>
<trkpt lat="48.07753" lon="11.114744">
<ele>557.969</ele>
<time>2022-05-25T15:22:23Z</time>
</trkpt>
<trkpt lat="48.077518" lon="11.114723">
<ele>557.969</ele>
<time>2022-05-25T15:22:24Z</time>
</trkpt>
<trkpt lat="48.077503" lon="11.114704">
<ele>557.969</ele>
<time>2022-05-25T15:22:25Z</time>
</trkpt>
<trkpt lat="48.077484" lon="11.114704">
<ele>557.969</ele>
<time>2022-05-25T15:22:26Z</time>
</trkpt>
<trkpt lat="48.077469" lon="11.114708">
<ele>557.969</ele>
<time>2022-05-25T15:22:27Z</time>
</trkpt>
<trkpt lat="48.077454" lon="11.114712">
<ele>557.969</ele>
<time>2022-05-25T15:22:28Z</time>
</trkpt>
<trkpt lat="48.077438" lon="11.114713">
<ele>557.969</ele>
<time>2022-05-25T15:22:29Z</time>
</trkpt>
<trkpt lat="48.077423" lon="11.114713">
<ele>557.969</ele>
<time>2022-05-25T15:22:30Z</time>
</trkpt>
<trkpt lat="48.077412" lon="11.114715">
<ele>557.969</ele>
<time>2022-05-25T15:22:31Z</time>
</trkpt>
<trkpt lat="48.077396" lon="11.114715">
<ele>557.969</ele>
<time>2022-05-25T15:22:32Z</time>
</trkpt>
<trkpt lat="48.077393" lon="11.114715">
<ele>557.969</ele>
<time>2022-05-25T15:22:33Z</time>
</trkpt>
<trkpt lat="48.077377" lon="11.114717">
<ele>557.969</ele>
<time>2022-05-25T15:22:34Z</time>
</trkpt>
<trkpt lat="48.077358" lon="11.114727">
<ele>557.969</ele>
<time>2022-05-25T15:22:35Z</time>
</trkpt>
<trkpt lat="48.077339" lon="11.114737">
<ele>557.969</ele>
<time>2022-05-25T15:22:36Z</time>
</trkpt>
<trkpt lat="48.077316" lon="11.114748">
<ele>557.969</ele>
<time>2022-05-25T15:22:37Z</time>
</trkpt>
<trkpt lat="48.07729" lon="11.114758">
<ele>557.969</ele>
<time>2022-05-25T15:22:38Z</time>
</trkpt>
<trkpt lat="48.077263" lon="11.114769">
<ele>557.969</ele>
<time>2022-05-25T15:22:39Z</time>
</trkpt>
<trkpt lat="48.077244" lon="11.114777">
<ele>557.969</ele>
<time>2022-05-25T15:22:40Z</time>
</trkpt>
<trkpt lat="48.077229" lon="11.114786">
<ele>557.969</ele>
<time>2022-05-25T15:22:41Z</time>
</trkpt>
<trkpt lat="48.077213" lon="11.114799">
<ele>557.969</ele>
<time>2022-05-25T15:22:42Z</time>
</trkpt>
<trkpt lat="48.077198" lon="11.114807">
<ele>557.969</ele>
<time>2022-05-25T15:22:43Z</time>
</trkpt>
<trkpt lat="48.077168" lon="11.11481">
<ele>557.969</ele>
<time>2022-05-25T15:22:44Z</time>
</trkpt>
<trkpt lat="48.077148" lon="11.114812">
<ele>557.969</ele>
<time>2022-05-25T15:22:45Z</time>
</trkpt>
<trkpt lat="48.077126" lon="11.114818">
<ele>557.969</ele>
<time>2022-05-25T15:22:46Z</time>
</trkpt>
<trkpt lat="48.077106" lon="11.11482">
<ele>557.969</ele>
<time>2022-05-25T15:22:47Z</time>
</trkpt>
<trkpt lat="48.077084" lon="11.114818">
<ele>557.969</ele>
<time>2022-05-25T15:22:48Z</time>
</trkpt>
<trkpt lat="48.077065" lon="11.114817">
<ele>557.969</ele>
<time>2022-05-25T15:22:49Z</time>
</trkpt>
<trkpt lat="48.077038" lon="11.114817">
<ele>557.969</ele>
<time>2022-05-25T15:22:50Z</time>
</trkpt>
<trkpt lat="48.077015" lon="11.114825">
<ele>557.969</ele>
<time>2022-05-25T15:22:51Z</time>
</trkpt>
<trkpt lat="48.076992" lon="11.114839">
<ele>557.969</ele>
<time>2022-05-25T15:22:52Z</time>
</trkpt>
<trkpt lat="48.076962" lon="11.114851">
<ele>557.716</ele>
<time>2022-05-25T15:22:53Z</time>
</trkpt>
<trkpt lat="48.076931" lon="11.114855">
<ele>557.519</ele>
<time>2022-05-25T15:22:54Z</time>
</trkpt>
<trkpt lat="48.076897" lon="11.114843">
<ele>557.371</ele>
<time>2022-05-25T15:22:55Z</time>
</trkpt>
<trkpt lat="48.076874" lon="11.114832">
<ele>557.276</ele>
<time>2022-05-25T15:22:56Z</time>
</trkpt>
<trkpt lat="48.076862" lon="11.114815">
<ele>557.209</ele>
<time>2022-05-25T15:22:57Z</time>
</trkpt>
<trkpt lat="48.076839" lon="11.114801">
<ele>557.158</ele>
<time>2022-05-25T15:22:58Z</time>
</trkpt>
<trkpt lat="48.07682" lon="11.114788">
<ele>557.117</ele>
<time>2022-05-25T15:22:59Z</time>
</trkpt>
<trkpt lat="48.076801" lon="11.11477">
<ele>557.096</ele>
<time>2022-05-25T15:23:00Z</time>
</trkpt>
<trkpt lat="48.076775" lon="11.114743">
<ele>557.096</ele>
<time>2022-05-25T15:23:01Z</time>
</trkpt>
<trkpt lat="48.076752" lon="11.114707">
<ele>557.096</ele>
<time>2022-05-25T15:23:02Z</time>
</trkpt>
<trkpt lat="48.076729" lon="11.114669">
<ele>557.096</ele>
<time>2022-05-25T15:23:03Z</time>
</trkpt>
<trkpt lat="48.076694" lon="11.114631">
<ele>557.096</ele>
<time>2022-05-25T15:23:04Z</time>
</trkpt>
<trkpt lat="48.07666" lon="11.114595">
<ele>557.096</ele>
<time>2022-05-25T15:23:05Z</time>
</trkpt>
<trkpt lat="48.076626" lon="11.114567">
<ele>557.096</ele>
<time>2022-05-25T15:23:06Z</time>
</trkpt>
<trkpt lat="48.076588" lon="11.114534">
<ele>557.096</ele>
<time>2022-05-25T15:23:07Z</time>
</trkpt>
<trkpt lat="48.076546" lon="11.114501">
<ele>557.096</ele>
<time>2022-05-25T15:23:08Z</time>
</trkpt>
<trkpt lat="48.076511" lon="11.114464">
<ele>557.096</ele>
<time>2022-05-25T15:23:09Z</time>
</trkpt>
<trkpt lat="48.076466" lon="11.114427">
<ele>557.096</ele>
<time>2022-05-25T15:23:10Z</time>
</trkpt>
<trkpt lat="48.076427" lon="11.114387">
<ele>557.096</ele>
<time>2022-05-25T15:23:11Z</time>
</trkpt>
<trkpt lat="48.076385" lon="11.11435">
<ele>557.096</ele>
<time>2022-05-25T15:23:12Z</time>
</trkpt>
<trkpt lat="48.076347" lon="11.114317">
<ele>557.096</ele>
<time>2022-05-25T15:23:13Z</time>
</trkpt>
<trkpt lat="48.076302" lon="11.114293">
<ele>557.096</ele>
<time>2022-05-25T15:23:14Z</time>
</trkpt>
<trkpt lat="48.07626" lon="11.114266">
<ele>557.096</ele>
<time>2022-05-25T15:23:15Z</time>
</trkpt>
<trkpt lat="48.076221" lon="11.114242">
<ele>557.096</ele>
<time>2022-05-25T15:23:16Z</time>
</trkpt>
<trkpt lat="48.076183" lon="11.114217">
<ele>557.096</ele>
<time>2022-05-25T15:23:17Z</time>
</trkpt>
<trkpt lat="48.076145" lon="11.114188">
<ele>557.096</ele>
<time>2022-05-25T15:23:18Z</time>
</trkpt>
<trkpt lat="48.076103" lon="11.11416">
<ele>557.096</ele>
<time>2022-05-25T15:23:19Z</time>
</trkpt>
<trkpt lat="48.076057" lon="11.114132">
<ele>557.096</ele>
<time>2022-05-25T15:23:20Z</time>
</trkpt>
<trkpt lat="48.076015" lon="11.114101">
<ele>557.096</ele>
<time>2022-05-25T15:23:21Z</time>
</trkpt>
<trkpt lat="48.07597" lon="11.11407">
<ele>557.096</ele>
<time>2022-05-25T15:23:22Z</time>
</trkpt>
<trkpt lat="48.07592" lon="11.114038">
<ele>557.096</ele>
<time>2022-05-25T15:23:23Z</time>
</trkpt>
<trkpt lat="48.075871" lon="11.113997">
<ele>557.096</ele>
<time>2022-05-25T15:23:24Z</time>
</trkpt>
<trkpt lat="48.075821" lon="11.113963">
<ele>557.096</ele>
<time>2022-05-25T15:23:25Z</time>
</trkpt>
<trkpt lat="48.075764" lon="11.11394">
<ele>557.096</ele>
<time>2022-05-25T15:23:26Z</time>
</trkpt>
<trkpt lat="48.07571" lon="11.113916">
<ele>557.096</ele>
<time>2022-05-25T15:23:27Z</time>
</trkpt>
<trkpt lat="48.075665" lon="11.113892">
<ele>557.097</ele>
<time>2022-05-25T15:23:28Z</time>
</trkpt>
<trkpt lat="48.075626" lon="11.113867">
<ele>557.096</ele>
<time>2022-05-25T15:23:29Z</time>
</trkpt>
<trkpt lat="48.075584" lon="11.113845">
<ele>557.402</ele>
<time>2022-05-25T15:23:30Z</time>
</trkpt>
<trkpt lat="48.075539" lon="11.113824">
<ele>557.634</ele>
<time>2022-05-25T15:23:31Z</time>
</trkpt>
<trkpt lat="48.0755" lon="11.113799">
<ele>557.81</ele>
<time>2022-05-25T15:23:32Z</time>
</trkpt>
<trkpt lat="48.075459" lon="11.113771">
<ele>557.95</ele>
<time>2022-05-25T15:23:33Z</time>
</trkpt>
<trkpt lat="48.075413" lon="11.113738">
<ele>558.044</ele>
<time>2022-05-25T15:23:34Z</time>
</trkpt>
<trkpt lat="48.075371" lon="11.113713">
<ele>558.107</ele>
<time>2022-05-25T15:23:35Z</time>
</trkpt>
<trkpt lat="48.075325" lon="11.11369">
<ele>558.143</ele>
<time>2022-05-25T15:23:36Z</time>
</trkpt>
<trkpt lat="48.075283" lon="11.113667">
<ele>558.143</ele>
<time>2022-05-25T15:23:37Z</time>
</trkpt>
<trkpt lat="48.075241" lon="11.113648">
<ele>558.143</ele>
<time>2022-05-25T15:23:38Z</time>
</trkpt>
<trkpt lat="48.075199" lon="11.113626">
<ele>558.143</ele>
<time>2022-05-25T15:23:39Z</time>
</trkpt>
<trkpt lat="48.075153" lon="11.113604">
<ele>558.143</ele>
<time>2022-05-25T15:23:40Z</time>
</trkpt>
<trkpt lat="48.075111" lon="11.11358">
<ele>558.143</ele>
<time>2022-05-25T15:23:41Z</time>
</trkpt>
<trkpt lat="48.075066" lon="11.113557">
<ele>558.143</ele>
<time>2022-05-25T15:23:42Z</time>
</trkpt>
<trkpt lat="48.075024" lon="11.113533">
<ele>558.143</ele>
<time>2022-05-25T15:23:43Z</time>
</trkpt>
<trkpt lat="48.074978" lon="11.113505">
<ele>558.143</ele>
<time>2022-05-25T15:23:44Z</time>
</trkpt>
<trkpt lat="48.07494" lon="11.113475">
<ele>558.143</ele>
<time>2022-05-25T15:23:45Z</time>
</trkpt>
<trkpt lat="48.074902" lon="11.113455">
<ele>558.143</ele>
<time>2022-05-25T15:23:46Z</time>
</trkpt>
<trkpt lat="48.074856" lon="11.113439">
<ele>558.143</ele>
<time>2022-05-25T15:23:47Z</time>
</trkpt>
<trkpt lat="48.074814" lon="11.113412">
<ele>558.143</ele>
<time>2022-05-25T15:23:48Z</time>
</trkpt>
<trkpt lat="48.074768" lon="11.113383">
<ele>558.143</ele>
<time>2022-05-25T15:23:49Z</time>
</trkpt>
<trkpt lat="48.074722" lon="11.113359">
<ele>558.143</ele>
<time>2022-05-25T15:23:50Z</time>
</trkpt>
<trkpt lat="48.07468" lon="11.113334">
<ele>558.143</ele>
<time>2022-05-25T15:23:51Z</time>
</trkpt>
<trkpt lat="48.074638" lon="11.113307">
<ele>558.143</ele>
<time>2022-05-25T15:23:52Z</time>
</trkpt>
<trkpt lat="48.074593" lon="11.113276">
<ele>558.143</ele>
<time>2022-05-25T15:23:53Z</time>
</trkpt>
<trkpt lat="48.074554" lon="11.113242">
<ele>558.143</ele>
<time>2022-05-25T15:23:54Z</time>
</trkpt>
<trkpt lat="48.074505" lon="11.113211">
<ele>558.143</ele>
<time>2022-05-25T15:23:55Z</time>
</trkpt>
<trkpt lat="48.074459" lon="11.113179">
<ele>558.143</ele>
<time>2022-05-25T15:23:56Z</time>
</trkpt>
<trkpt lat="48.074409" lon="11.11315">
<ele>558.143</ele>
<time>2022-05-25T15:23:57Z</time>
</trkpt>
<trkpt lat="48.07436" lon="11.11312">
<ele>558.143</ele>
<time>2022-05-25T15:23:58Z</time>
</trkpt>
<trkpt lat="48.07431" lon="11.113091">
<ele>558.143</ele>
<time>2022-05-25T15:23:59Z</time>
</trkpt>
<trkpt lat="48.074265" lon="11.11306">
<ele>558.143</ele>
<time>2022-05-25T15:24:00Z</time>
</trkpt>
<trkpt lat="48.074219" lon="11.113022">
<ele>558.143</ele>
<time>2022-05-25T15:24:01Z</time>
</trkpt>
<trkpt lat="48.074165" lon="11.11299">
<ele>558.143</ele>
<time>2022-05-25T15:24:02Z</time>
</trkpt>
<trkpt lat="48.074116" lon="11.112957">
<ele>558.143</ele>
<time>2022-05-25T15:24:03Z</time>
</trkpt>
<trkpt lat="48.074066" lon="11.112924">
<ele>558.143</ele>
<time>2022-05-25T15:24:04Z</time>
</trkpt>
<trkpt lat="48.074017" lon="11.11289">
<ele>558.143</ele>
<time>2022-05-25T15:24:05Z</time>
</trkpt>
<trkpt lat="48.073971" lon="11.112855">
<ele>558.143</ele>
<time>2022-05-25T15:24:06Z</time>
</trkpt>
<trkpt lat="48.073929" lon="11.112819">
<ele>558.143</ele>
<time>2022-05-25T15:24:07Z</time>
</trkpt>
<trkpt lat="48.073883" lon="11.112782">
<ele>558.143</ele>
<time>2022-05-25T15:24:08Z</time>
</trkpt>
<trkpt lat="48.073837" lon="11.112743">
<ele>558.143</ele>
<time>2022-05-25T15:24:09Z</time>
</trkpt>
<trkpt lat="48.073788" lon="11.112705">
<ele>558.143</ele>
<time>2022-05-25T15:24:10Z</time>
</trkpt>
<trkpt lat="48.073742" lon="11.112666">
<ele>558.143</ele>
<time>2022-05-25T15:24:11Z</time>
</trkpt>
<trkpt lat="48.073692" lon="11.112626">
<ele>558.143</ele>
<time>2022-05-25T15:24:12Z</time>
</trkpt>
<trkpt lat="48.073647" lon="11.112588">
<ele>557.88</ele>
<time>2022-05-25T15:24:13Z</time>
</trkpt>
<trkpt lat="48.073605" lon="11.112549">
<ele>557.674</ele>
<time>2022-05-25T15:24:14Z</time>
</trkpt>
<trkpt lat="48.073559" lon="11.112511">
<ele>557.522</ele>
<time>2022-05-25T15:24:15Z</time>
</trkpt>
<trkpt lat="48.073509" lon="11.112473">
<ele>557.409</ele>
<time>2022-05-25T15:24:16Z</time>
</trkpt>
<trkpt lat="48.073463" lon="11.112429">
<ele>557.326</ele>
<time>2022-05-25T15:24:17Z</time>
</trkpt>
<trkpt lat="48.073418" lon="11.112389">
<ele>557.264</ele>
<time>2022-05-25T15:24:18Z</time>
</trkpt>
<trkpt lat="48.073376" lon="11.112347">
<ele>557.21</ele>
<time>2022-05-25T15:24:19Z</time>
</trkpt>
<trkpt lat="48.073326" lon="11.112302">
<ele>557.184</ele>
<time>2022-05-25T15:24:20Z</time>
</trkpt>
<trkpt lat="48.073284" lon="11.112257">
<ele>557.184</ele>
<time>2022-05-25T15:24:21Z</time>
</trkpt>
<trkpt lat="48.073235" lon="11.112215">
<ele>557.184</ele>
<time>2022-05-25T15:24:22Z</time>
</trkpt>
<trkpt lat="48.073185" lon="11.112173">
<ele>557.184</ele>
<time>2022-05-25T15:24:23Z</time>
</trkpt>
<trkpt lat="48.073135" lon="11.11213">
<ele>557.184</ele>
<time>2022-05-25T15:24:24Z</time>
</trkpt>
<trkpt lat="48.07309" lon="11.112085">
<ele>557.184</ele>
<time>2022-05-25T15:24:25Z</time>
</trkpt>
<trkpt lat="48.073044" lon="11.112046">
<ele>556.922</ele>
<time>2022-05-25T15:24:26Z</time>
</trkpt>
<trkpt lat="48.072998" lon="11.112015">
<ele>556.717</ele>
<time>2022-05-25T15:24:27Z</time>
</trkpt>
<trkpt lat="48.072952" lon="11.11198">
<ele>556.575</ele>
<time>2022-05-25T15:24:28Z</time>
</trkpt>
<trkpt lat="48.072903" lon="11.111956">
<ele>556.424</ele>
<time>2022-05-25T15:24:29Z</time>
</trkpt>
<trkpt lat="48.072861" lon="11.11193">
<ele>556.308</ele>
<time>2022-05-25T15:24:30Z</time>
</trkpt>
<trkpt lat="48.072815" lon="11.111901">
<ele>556.222</ele>
<time>2022-05-25T15:24:31Z</time>
</trkpt>
<trkpt lat="48.072765" lon="11.111876">
<ele>556.166</ele>
<time>2022-05-25T15:24:32Z</time>
</trkpt>
<trkpt lat="48.072723" lon="11.111845">
<ele>556.137</ele>
<time>2022-05-25T15:24:33Z</time>
</trkpt>
<trkpt lat="48.072678" lon="11.11184">
<ele>556.138</ele>
<time>2022-05-25T15:24:34Z</time>
</trkpt>
<trkpt lat="48.072632" lon="11.111823">
<ele>556.138</ele>
<time>2022-05-25T15:24:35Z</time>
</trkpt>
<trkpt lat="48.072594" lon="11.111809">
<ele>556.137</ele>
<time>2022-05-25T15:24:36Z</time>
</trkpt>
<trkpt lat="48.07254" lon="11.111773">
<ele>556.137</ele>
<time>2022-05-25T15:24:37Z</time>
</trkpt>
<trkpt lat="48.072487" lon="11.111727">
<ele>556.138</ele>
<time>2022-05-25T15:24:38Z</time>
</trkpt>
<trkpt lat="48.072437" lon="11.111683">
<ele>556.137</ele>
<time>2022-05-25T15:24:39Z</time>
</trkpt>
<trkpt lat="48.07238" lon="11.111642">
<ele>556.137</ele>
<time>2022-05-25T15:24:40Z</time>
</trkpt>
<trkpt lat="48.072327" lon="11.111597">
<ele>556.137</ele>
<time>2022-05-25T15:24:41Z</time>
</trkpt>
<trkpt lat="48.072277" lon="11.111547">
<ele>555.822</ele>
<time>2022-05-25T15:24:42Z</time>
</trkpt>
<trkpt lat="48.072227" lon="11.111497">
<ele>555.593</ele>
<time>2022-05-25T15:24:43Z</time>
</trkpt>
<trkpt lat="48.072178" lon="11.111446">
<ele>555.427</ele>
<time>2022-05-25T15:24:44Z</time>
</trkpt>
<trkpt lat="48.072124" lon="11.111404">
<ele>555.313</ele>
<time>2022-05-25T15:24:45Z</time>
</trkpt>
<trkpt lat="48.072067" lon="11.111363">
<ele>555.225</ele>
<time>2022-05-25T15:24:46Z</time>
</trkpt>
<trkpt lat="48.072018" lon="11.11132">
<ele>555.165</ele>
<time>2022-05-25T15:24:47Z</time>
</trkpt>
<trkpt lat="48.071968" lon="11.111273">
<ele>555.12</ele>
<time>2022-05-25T15:24:48Z</time>
</trkpt>
<trkpt lat="48.071915" lon="11.111228">
<ele>555.091</ele>
<time>2022-05-25T15:24:49Z</time>
</trkpt>
<trkpt lat="48.071861" lon="11.111182">
<ele>555.091</ele>
<time>2022-05-25T15:24:50Z</time>
</trkpt>
<trkpt lat="48.071815" lon="11.111134">
<ele>555.091</ele>
<time>2022-05-25T15:24:51Z</time>
</trkpt>
<trkpt lat="48.07177" lon="11.111088">
<ele>555.091</ele>
<time>2022-05-25T15:24:52Z</time>
</trkpt>
<trkpt lat="48.07172" lon="11.111042">
<ele>555.091</ele>
<time>2022-05-25T15:24:53Z</time>
</trkpt>
<trkpt lat="48.071682" lon="11.110995">
<ele>555.091</ele>
<time>2022-05-25T15:24:54Z</time>
</trkpt>
<trkpt lat="48.07164" lon="11.110954">
<ele>555.091</ele>
<time>2022-05-25T15:24:55Z</time>
</trkpt>
<trkpt lat="48.07159" lon="11.110918">
<ele>555.091</ele>
<time>2022-05-25T15:24:56Z</time>
</trkpt>
<trkpt lat="48.071548" lon="11.110879">
<ele>555.091</ele>
<time>2022-05-25T15:24:57Z</time>
</trkpt>
<trkpt lat="48.071503" lon="11.110837">
<ele>555.091</ele>
<time>2022-05-25T15:24:58Z</time>
</trkpt>
<trkpt lat="48.071457" lon="11.110797">
<ele>555.091</ele>
<time>2022-05-25T15:24:59Z</time>
</trkpt>
<trkpt lat="48.071411" lon="11.11076">
<ele>555.091</ele>
<time>2022-05-25T15:25:00Z</time>
</trkpt>
<trkpt lat="48.071365" lon="11.11072">
<ele>555.091</ele>
<time>2022-05-25T15:25:01Z</time>
</trkpt>
<trkpt lat="48.07132" lon="11.110682">
<ele>555.091</ele>
<time>2022-05-25T15:25:02Z</time>
</trkpt>
<trkpt lat="48.071266" lon="11.110648">
<ele>555.091</ele>
<time>2022-05-25T15:25:03Z</time>
</trkpt>
<trkpt lat="48.071217" lon="11.110617">
<ele>555.091</ele>
<time>2022-05-25T15:25:04Z</time>
</trkpt>
<trkpt lat="48.071163" lon="11.110587">
<ele>555.091</ele>
<time>2022-05-25T15:25:05Z</time>
</trkpt>
<trkpt lat="48.071121" lon="11.110554">
<ele>555.091</ele>
<time>2022-05-25T15:25:06Z</time>
</trkpt>
<trkpt lat="48.071079" lon="11.110522">
<ele>555.091</ele>
<time>2022-05-25T15:25:07Z</time>
</trkpt>
<trkpt lat="48.071037" lon="11.110492">
<ele>555.091</ele>
<time>2022-05-25T15:25:08Z</time>
</trkpt>
<trkpt lat="48.070992" lon="11.110466">
<ele>555.091</ele>
<time>2022-05-25T15:25:09Z</time>
</trkpt>
<trkpt lat="48.070946" lon="11.110436">
<ele>555.091</ele>
<time>2022-05-25T15:25:10Z</time>
</trkpt>
<trkpt lat="48.070896" lon="11.110398">
<ele>555.091</ele>
<time>2022-05-25T15:25:11Z</time>
</trkpt>
<trkpt lat="48.070854" lon="11.11034">
<ele>555.091</ele>
<time>2022-05-25T15:25:12Z</time>
</trkpt>
<trkpt lat="48.070808" lon="11.110296">
<ele>555.091</ele>
<time>2022-05-25T15:25:13Z</time>
</trkpt>
<trkpt lat="48.070763" lon="11.110256">
<ele>555.091</ele>
<time>2022-05-25T15:25:14Z</time>
</trkpt>
<trkpt lat="48.070713" lon="11.110229">
<ele>555.091</ele>
<time>2022-05-25T15:25:15Z</time>
</trkpt>
<trkpt lat="48.070667" lon="11.110204">
<ele>555.091</ele>
<time>2022-05-25T15:25:16Z</time>
</trkpt>
<trkpt lat="48.070614" lon="11.110172">
<ele>555.091</ele>
<time>2022-05-25T15:25:17Z</time>
</trkpt>
<trkpt lat="48.070572" lon="11.110142">
<ele>555.091</ele>
<time>2022-05-25T15:25:18Z</time>
</trkpt>
<trkpt lat="48.070522" lon="11.110113">
<ele>555.091</ele>
<time>2022-05-25T15:25:19Z</time>
</trkpt>
<trkpt lat="48.07048" lon="11.110078">
<ele>555.091</ele>
<time>2022-05-25T15:25:20Z</time>
</trkpt>
<trkpt lat="48.070442" lon="11.110046">
<ele>555.091</ele>
<time>2022-05-25T15:25:21Z</time>
</trkpt>
<trkpt lat="48.070393" lon="11.110013">
<ele>555.091</ele>
<time>2022-05-25T15:25:22Z</time>
</trkpt>
<trkpt lat="48.070339" lon="11.109978">
<ele>555.091</ele>
<time>2022-05-25T15:25:23Z</time>
</trkpt>
<trkpt lat="48.070286" lon="11.109944">
<ele>555.091</ele>
<time>2022-05-25T15:25:24Z</time>
</trkpt>
<trkpt lat="48.070232" lon="11.109902">
<ele>555.091</ele>
<time>2022-05-25T15:25:25Z</time>
</trkpt>
<trkpt lat="48.070187" lon="11.10986">
<ele>555.091</ele>
<time>2022-05-25T15:25:26Z</time>
</trkpt>
<trkpt lat="48.070137" lon="11.109825">
<ele>555.091</ele>
<time>2022-05-25T15:25:27Z</time>
</trkpt>
<trkpt lat="48.070091" lon="11.109787">
<ele>555.091</ele>
<time>2022-05-25T15:25:28Z</time>
</trkpt>
<trkpt lat="48.070049" lon="11.109752">
<ele>555.091</ele>
<time>2022-05-25T15:25:29Z</time>
</trkpt>
<trkpt lat="48.070004" lon="11.109714">
<ele>555.091</ele>
<time>2022-05-25T15:25:30Z</time>
</trkpt>
<trkpt lat="48.069958" lon="11.109678">
<ele>555.091</ele>
<time>2022-05-25T15:25:31Z</time>
</trkpt>
<trkpt lat="48.069912" lon="11.109643">
<ele>555.091</ele>
<time>2022-05-25T15:25:32Z</time>
</trkpt>
<trkpt lat="48.069862" lon="11.109609">
<ele>555.091</ele>
<time>2022-05-25T15:25:33Z</time>
</trkpt>
<trkpt lat="48.069824" lon="11.109571">
<ele>555.091</ele>
<time>2022-05-25T15:25:34Z</time>
</trkpt>
<trkpt lat="48.069771" lon="11.109529">
<ele>555.091</ele>
<time>2022-05-25T15:25:35Z</time>
</trkpt>
<trkpt lat="48.069721" lon="11.109498">
<ele>555.091</ele>
<time>2022-05-25T15:25:36Z</time>
</trkpt>
<trkpt lat="48.069672" lon="11.109467">
<ele>555.091</ele>
<time>2022-05-25T15:25:37Z</time>
</trkpt>
<trkpt lat="48.069626" lon="11.109433">
<ele>555.091</ele>
<time>2022-05-25T15:25:38Z</time>
</trkpt>
<trkpt lat="48.069576" lon="11.1094">
<ele>555.091</ele>
<time>2022-05-25T15:25:39Z</time>
</trkpt>
<trkpt lat="48.069534" lon="11.109372">
<ele>555.091</ele>
<time>2022-05-25T15:25:40Z</time>
</trkpt>
<trkpt lat="48.069492" lon="11.109344">
<ele>555.091</ele>
<time>2022-05-25T15:25:41Z</time>
</trkpt>
<trkpt lat="48.069454" lon="11.109318">
<ele>555.091</ele>
<time>2022-05-25T15:25:42Z</time>
</trkpt>
<trkpt lat="48.069408" lon="11.109293">
<ele>555.091</ele>
<time>2022-05-25T15:25:43Z</time>
</trkpt>
<trkpt lat="48.069363" lon="11.10927">
<ele>555.091</ele>
<time>2022-05-25T15:25:44Z</time>
</trkpt>
<trkpt lat="48.069317" lon="11.109239">
<ele>555.091</ele>
<time>2022-05-25T15:25:45Z</time>
</trkpt>
<trkpt lat="48.069279" lon="11.109208">
<ele>555.091</ele>
<time>2022-05-25T15:25:46Z</time>
</trkpt>
<trkpt lat="48.069233" lon="11.109173">
<ele>555.091</ele>
<time>2022-05-25T15:25:47Z</time>
</trkpt>
<trkpt lat="48.069187" lon="11.109138">
<ele>555.091</ele>
<time>2022-05-25T15:25:48Z</time>
</trkpt>
<trkpt lat="48.069145" lon="11.109096">
<ele>555.091</ele>
<time>2022-05-25T15:25:49Z</time>
</trkpt>
<trkpt lat="48.069099" lon="11.10906">
<ele>555.091</ele>
<time>2022-05-25T15:25:50Z</time>
</trkpt>
<trkpt lat="48.06905" lon="11.109022">
<ele>555.091</ele>
<time>2022-05-25T15:25:51Z</time>
</trkpt>
<trkpt lat="48.069012" lon="11.108989">
<ele>555.091</ele>
<time>2022-05-25T15:25:52Z</time>
</trkpt>
<trkpt lat="48.068974" lon="11.108952">
<ele>555.091</ele>
<time>2022-05-25T15:25:53Z</time>
</trkpt>
<trkpt lat="48.068939" lon="11.108896">
<ele>555.091</ele>
<time>2022-05-25T15:25:54Z</time>
</trkpt>
<trkpt lat="48.068901" lon="11.108861">
<ele>555.091</ele>
<time>2022-05-25T15:25:55Z</time>
</trkpt>
<trkpt lat="48.068863" lon="11.108831">
<ele>555.091</ele>
<time>2022-05-25T15:25:56Z</time>
</trkpt>
<trkpt lat="48.068832" lon="11.108807">
<ele>555.312</ele>
<time>2022-05-25T15:25:57Z</time>
</trkpt>
<trkpt lat="48.068806" lon="11.108775">
<ele>555.478</ele>
<time>2022-05-25T15:25:58Z</time>
</trkpt>
<trkpt lat="48.068775" lon="11.108752">
<ele>555.641</ele>
<time>2022-05-25T15:25:59Z</time>
</trkpt>
<trkpt lat="48.068741" lon="11.108723">
<ele>555.781</ele>
<time>2022-05-25T15:26:00Z</time>
</trkpt>
<trkpt lat="48.06871" lon="11.108697">
<ele>555.889</ele>
<time>2022-05-25T15:26:01Z</time>
</trkpt>
<trkpt lat="48.068684" lon="11.10867">
<ele>555.966</ele>
<time>2022-05-25T15:26:02Z</time>
</trkpt>
<trkpt lat="48.068649" lon="11.10864">
<ele>556.024</ele>
<time>2022-05-25T15:26:03Z</time>
</trkpt>
<trkpt lat="48.068611" lon="11.108615">
<ele>556.05</ele>
<time>2022-05-25T15:26:04Z</time>
</trkpt>
<trkpt lat="48.068584" lon="11.108591">
<ele>556.05</ele>
<time>2022-05-25T15:26:05Z</time>
</trkpt>
<trkpt lat="48.068546" lon="11.108565">
<ele>556.292</ele>
<time>2022-05-25T15:26:06Z</time>
</trkpt>
<trkpt lat="48.068523" lon="11.10855">
<ele>556.479</ele>
<time>2022-05-25T15:26:07Z</time>
</trkpt>
<trkpt lat="48.068504" lon="11.108537">
<ele>556.606</ele>
<time>2022-05-25T15:26:08Z</time>
</trkpt>
<trkpt lat="48.068489" lon="11.108523">
<ele>556.744</ele>
<time>2022-05-25T15:26:09Z</time>
</trkpt>
<trkpt lat="48.068474" lon="11.108495">
<ele>556.847</ele>
<time>2022-05-25T15:26:10Z</time>
</trkpt>
<trkpt lat="48.068451" lon="11.10847">
<ele>556.917</ele>
<time>2022-05-25T15:26:11Z</time>
</trkpt>
<trkpt lat="48.06842" lon="11.108443">
<ele>557.194</ele>
<time>2022-05-25T15:26:12Z</time>
</trkpt>
<trkpt lat="48.068394" lon="11.108425">
<ele>557.426</ele>
<time>2022-05-25T15:26:13Z</time>
</trkpt>
<trkpt lat="48.068375" lon="11.108385">
<ele>557.641</ele>
<time>2022-05-25T15:26:14Z</time>
</trkpt>
<trkpt lat="48.068336" lon="11.108352">
<ele>557.787</ele>
<time>2022-05-25T15:26:15Z</time>
</trkpt>
<trkpt lat="48.068306" lon="11.108315">
<ele>557.87</ele>
<time>2022-05-25T15:26:16Z</time>
</trkpt>
<trkpt lat="48.068272" lon="11.108283">
<ele>557.92</ele>
<time>2022-05-25T15:26:17Z</time>
</trkpt>
<trkpt lat="48.068253" lon="11.108247">
<ele>557.948</ele>
<time>2022-05-25T15:26:18Z</time>
</trkpt>
<trkpt lat="48.068237" lon="11.108207">
<ele>557.969</ele>
<time>2022-05-25T15:26:19Z</time>
</trkpt>
<trkpt lat="48.068203" lon="11.108168">
<ele>558.289</ele>
<time>2022-05-25T15:26:20Z</time>
</trkpt>
<trkpt lat="48.068172" lon="11.108133">
<ele>558.529</ele>
<time>2022-05-25T15:26:21Z</time>
</trkpt>
<trkpt lat="48.068142" lon="11.108094">
<ele>558.702</ele>
<time>2022-05-25T15:26:22Z</time>
</trkpt>
<trkpt lat="48.0681" lon="11.108053">
<ele>558.823</ele>
<time>2022-05-25T15:26:23Z</time>
</trkpt>
<trkpt lat="48.068069" lon="11.108017">
<ele>558.922</ele>
<time>2022-05-25T15:26:24Z</time>
</trkpt>
<trkpt lat="48.068035" lon="11.107982">
<ele>558.989</ele>
<time>2022-05-25T15:26:25Z</time>
</trkpt>
<trkpt lat="48.068001" lon="11.107945">
<ele>559.008</ele>
<time>2022-05-25T15:26:26Z</time>
</trkpt>
<trkpt lat="48.06797" lon="11.107908">
<ele>559.279</ele>
<time>2022-05-25T15:26:27Z</time>
</trkpt>
<trkpt lat="48.067936" lon="11.107858">
<ele>559.454</ele>
<time>2022-05-25T15:26:28Z</time>
</trkpt>
<trkpt lat="48.067917" lon="11.107816">
<ele>559.639</ele>
<time>2022-05-25T15:26:29Z</time>
</trkpt>
<trkpt lat="48.067894" lon="11.10778">
<ele>559.779</ele>
<time>2022-05-25T15:26:30Z</time>
</trkpt>
<trkpt lat="48.067867" lon="11.107759">
<ele>559.892</ele>
<time>2022-05-25T15:26:31Z</time>
</trkpt>
<trkpt lat="48.067841" lon="11.107727">
<ele>559.981</ele>
<time>2022-05-25T15:26:32Z</time>
</trkpt>
<trkpt lat="48.067814" lon="11.107697">
<ele>560.034</ele>
<time>2022-05-25T15:26:33Z</time>
</trkpt>
<trkpt lat="48.067776" lon="11.107654">
<ele>560.062</ele>
<time>2022-05-25T15:26:34Z</time>
</trkpt>
<trkpt lat="48.067741" lon="11.10762">
<ele>560.062</ele>
<time>2022-05-25T15:26:35Z</time>
</trkpt>
<trkpt lat="48.067707" lon="11.107594">
<ele>560.308</ele>
<time>2022-05-25T15:26:36Z</time>
</trkpt>
<trkpt lat="48.067673" lon="11.107569">
<ele>560.509</ele>
<time>2022-05-25T15:26:37Z</time>
</trkpt>
<trkpt lat="48.067638" lon="11.107531">
<ele>560.645</ele>
<time>2022-05-25T15:26:38Z</time>
</trkpt>
<trkpt lat="48.067577" lon="11.107487">
<ele>560.789</ele>
<time>2022-05-25T15:26:39Z</time>
</trkpt>
<trkpt lat="48.067543" lon="11.107453">
<ele>560.886</ele>
<time>2022-05-25T15:26:40Z</time>
</trkpt>
<trkpt lat="48.067486" lon="11.107405">
<ele>560.958</ele>
<time>2022-05-25T15:26:41Z</time>
</trkpt>
<trkpt lat="48.067451" lon="11.107371">
<ele>560.997</ele>
<time>2022-05-25T15:26:42Z</time>
</trkpt>
<trkpt lat="48.067429" lon="11.107347">
<ele>561.021</ele>
<time>2022-05-25T15:26:43Z</time>
</trkpt>
<trkpt lat="48.067402" lon="11.107313">
<ele>561.021</ele>
<time>2022-05-25T15:26:44Z</time>
</trkpt>
<trkpt lat="48.067356" lon="11.107286">
<ele>561.021</ele>
<time>2022-05-25T15:26:45Z</time>
</trkpt>
<trkpt lat="48.067329" lon="11.107262">
<ele>561.021</ele>
<time>2022-05-25T15:26:46Z</time>
</trkpt>
<trkpt lat="48.067299" lon="11.10724">
<ele>561.211</ele>
<time>2022-05-25T15:26:47Z</time>
</trkpt>
<trkpt lat="48.067265" lon="11.107208">
<ele>561.367</ele>
<time>2022-05-25T15:26:48Z</time>
</trkpt>
<trkpt lat="48.067223" lon="11.107164">
<ele>561.519</ele>
<time>2022-05-25T15:26:49Z</time>
</trkpt>
<trkpt lat="48.067154" lon="11.107119">
<ele>561.675</ele>
<time>2022-05-25T15:26:50Z</time>
</trkpt>
<trkpt lat="48.067123" lon="11.107088">
<ele>561.775</ele>
<time>2022-05-25T15:26:51Z</time>
</trkpt>
<trkpt lat="48.067089" lon="11.107059">
<ele>561.833</ele>
<time>2022-05-25T15:26:52Z</time>
</trkpt>
<trkpt lat="48.067051" lon="11.107026">
<ele>561.872</ele>
<time>2022-05-25T15:26:53Z</time>
</trkpt>
<trkpt lat="48.067013" lon="11.106994">
<ele>561.894</ele>
<time>2022-05-25T15:26:54Z</time>
</trkpt>
<trkpt lat="48.066978" lon="11.106961">
<ele>562.159</ele>
<time>2022-05-25T15:26:55Z</time>
</trkpt>
<trkpt lat="48.066936" lon="11.106946">
<ele>562.356</ele>
<time>2022-05-25T15:26:56Z</time>
</trkpt>
<trkpt lat="48.066902" lon="11.106923">
<ele>562.507</ele>
<time>2022-05-25T15:26:57Z</time>
</trkpt>
<trkpt lat="48.066868" lon="11.10689">
<ele>562.616</ele>
<time>2022-05-25T15:26:58Z</time>
</trkpt>
<trkpt lat="48.066833" lon="11.106858">
<ele>562.774</ele>
<time>2022-05-25T15:26:59Z</time>
</trkpt>
<trkpt lat="48.066803" lon="11.106838">
<ele>562.857</ele>
<time>2022-05-25T15:27:00Z</time>
</trkpt>
<trkpt lat="48.066761" lon="11.10681">
<ele>562.912</ele>
<time>2022-05-25T15:27:01Z</time>
</trkpt>
<trkpt lat="48.066719" lon="11.106791">
<ele>562.941</ele>
<time>2022-05-25T15:27:02Z</time>
</trkpt>
<trkpt lat="48.066673" lon="11.106765">
<ele>563.233</ele>
<time>2022-05-25T15:27:03Z</time>
</trkpt>
<trkpt lat="48.066639" lon="11.106745">
<ele>563.459</ele>
<time>2022-05-25T15:27:04Z</time>
</trkpt>
<trkpt lat="48.066601" lon="11.106725">
<ele>563.631</ele>
<time>2022-05-25T15:27:05Z</time>
</trkpt>
<trkpt lat="48.066574" lon="11.106702">
<ele>563.753</ele>
<time>2022-05-25T15:27:06Z</time>
</trkpt>
<trkpt lat="48.066551" lon="11.10668">
<ele>563.837</ele>
<time>2022-05-25T15:27:07Z</time>
</trkpt>
<trkpt lat="48.066521" lon="11.106648">
<ele>563.904</ele>
<time>2022-05-25T15:27:08Z</time>
</trkpt>
<trkpt lat="48.066486" lon="11.106613">
<ele>563.953</ele>
<time>2022-05-25T15:27:09Z</time>
</trkpt>
<trkpt lat="48.066448" lon="11.10658">
<ele>563.987</ele>
<time>2022-05-25T15:27:10Z</time>
</trkpt>
<trkpt lat="48.06641" lon="11.10655">
<ele>563.987</ele>
<time>2022-05-25T15:27:11Z</time>
</trkpt>
<trkpt lat="48.066376" lon="11.106527">
<ele>563.987</ele>
<time>2022-05-25T15:27:12Z</time>
</trkpt>
<trkpt lat="48.066334" lon="11.1065">
<ele>563.987</ele>
<time>2022-05-25T15:27:13Z</time>
</trkpt>
<trkpt lat="48.06628" lon="11.106473">
<ele>563.987</ele>
<time>2022-05-25T15:27:14Z</time>
</trkpt>
<trkpt lat="48.066242" lon="11.106462">
<ele>563.987</ele>
<time>2022-05-25T15:27:15Z</time>
</trkpt>
<trkpt lat="48.066212" lon="11.10644">
<ele>563.987</ele>
<time>2022-05-25T15:27:16Z</time>
</trkpt>
<trkpt lat="48.066177" lon="11.106412">
<ele>563.987</ele>
<time>2022-05-25T15:27:17Z</time>
</trkpt>
<trkpt lat="48.066143" lon="11.106391">
<ele>563.987</ele>
<time>2022-05-25T15:27:18Z</time>
</trkpt>
<trkpt lat="48.066116" lon="11.106366">
<ele>563.987</ele>
<time>2022-05-25T15:27:19Z</time>
</trkpt>
<trkpt lat="48.066074" lon="11.106341">
<ele>563.987</ele>
<time>2022-05-25T15:27:20Z</time>
</trkpt>
<trkpt lat="48.066013" lon="11.106321">
<ele>563.987</ele>
<time>2022-05-25T15:27:21Z</time>
</trkpt>
<trkpt lat="48.065971" lon="11.106305">
<ele>563.988</ele>
<time>2022-05-25T15:27:22Z</time>
</trkpt>
<trkpt lat="48.065933" lon="11.10629">
<ele>563.987</ele>
<time>2022-05-25T15:27:23Z</time>
</trkpt>
<trkpt lat="48.065899" lon="11.106276">
<ele>563.987</ele>
<time>2022-05-25T15:27:24Z</time>
</trkpt>
<trkpt lat="48.065876" lon="11.10625">
<ele>563.988</ele>
<time>2022-05-25T15:27:25Z</time>
</trkpt>
<trkpt lat="48.065861" lon="11.106228">
<ele>563.987</ele>
<time>2022-05-25T15:27:26Z</time>
</trkpt>
<trkpt lat="48.06583" lon="11.106214">
<ele>563.988</ele>
<time>2022-05-25T15:27:27Z</time>
</trkpt>
<trkpt lat="48.065796" lon="11.106194">
<ele>564.193</ele>
<time>2022-05-25T15:27:28Z</time>
</trkpt>
<trkpt lat="48.06575" lon="11.106174">
<ele>564.402</ele>
<time>2022-05-25T15:27:29Z</time>
</trkpt>
<trkpt lat="48.065701" lon="11.10615">
<ele>564.605</ele>
<time>2022-05-25T15:27:30Z</time>
</trkpt>
<trkpt lat="48.065655" lon="11.106123">
<ele>564.772</ele>
<time>2022-05-25T15:27:31Z</time>
</trkpt>
<trkpt lat="48.065605" lon="11.106104">
<ele>564.899</ele>
<time>2022-05-25T15:27:32Z</time>
</trkpt>
<trkpt lat="48.065571" lon="11.106081">
<ele>564.98</ele>
<time>2022-05-25T15:27:33Z</time>
</trkpt>
<trkpt lat="48.065536" lon="11.106058">
<ele>565.02</ele>
<time>2022-05-25T15:27:34Z</time>
</trkpt>
<trkpt lat="48.06551" lon="11.10604">
<ele>565.035</ele>
<time>2022-05-25T15:27:35Z</time>
</trkpt>
<trkpt lat="48.065483" lon="11.10602">
<ele>565.035</ele>
<time>2022-05-25T15:27:36Z</time>
</trkpt>
<trkpt lat="48.065449" lon="11.106008">
<ele>565.035</ele>
<time>2022-05-25T15:27:37Z</time>
</trkpt>
<trkpt lat="48.065422" lon="11.105991">
<ele>565.035</ele>
<time>2022-05-25T15:27:38Z</time>
</trkpt>
<trkpt lat="48.06538" lon="11.105955">
<ele>565.034</ele>
<time>2022-05-25T15:27:39Z</time>
</trkpt>
<trkpt lat="48.065323" lon="11.10592">
<ele>565.035</ele>
<time>2022-05-25T15:27:40Z</time>
</trkpt>
<trkpt lat="48.065277" lon="11.105886">
<ele>565.035</ele>
<time>2022-05-25T15:27:41Z</time>
</trkpt>
<trkpt lat="48.065235" lon="11.105855">
<ele>565.035</ele>
<time>2022-05-25T15:27:42Z</time>
</trkpt>
<trkpt lat="48.065189" lon="11.105825">
<ele>565.035</ele>
<time>2022-05-25T15:27:43Z</time>
</trkpt>
<trkpt lat="48.065136" lon="11.105788">
<ele>565.035</ele>
<time>2022-05-25T15:27:44Z</time>
</trkpt>
<trkpt lat="48.06509" lon="11.105745">
<ele>565.035</ele>
<time>2022-05-25T15:27:45Z</time>
</trkpt>
<trkpt lat="48.065041" lon="11.105715">
<ele>565.035</ele>
<time>2022-05-25T15:27:46Z</time>
</trkpt>
<trkpt lat="48.065002" lon="11.105692">
<ele>565.035</ele>
<time>2022-05-25T15:27:47Z</time>
</trkpt>
<trkpt lat="48.064964" lon="11.105666">
<ele>565.035</ele>
<time>2022-05-25T15:27:48Z</time>
</trkpt>
<trkpt lat="48.064926" lon="11.105645">
<ele>565.035</ele>
<time>2022-05-25T15:27:49Z</time>
</trkpt>
<trkpt lat="48.064888" lon="11.105617">
<ele>565.034</ele>
<time>2022-05-25T15:27:50Z</time>
</trkpt>
<trkpt lat="48.06485" lon="11.105593">
<ele>565.035</ele>
<time>2022-05-25T15:27:51Z</time>
</trkpt>
<trkpt lat="48.064827" lon="11.105572">
<ele>564.789</ele>
<time>2022-05-25T15:27:52Z</time>
</trkpt>
<trkpt lat="48.064796" lon="11.105551">
<ele>564.587</ele>
<time>2022-05-25T15:27:53Z</time>
</trkpt>
<trkpt lat="48.064758" lon="11.105536">
<ele>564.421</ele>
<time>2022-05-25T15:27:54Z</time>
</trkpt>
<trkpt lat="48.064728" lon="11.105521">
<ele>564.29</ele>
<time>2022-05-25T15:27:55Z</time>
</trkpt>
<trkpt lat="48.064701" lon="11.105502">
<ele>564.211</ele>
<time>2022-05-25T15:27:56Z</time>
</trkpt>
<trkpt lat="48.064671" lon="11.105472">
<ele>564.15</ele>
<time>2022-05-25T15:27:57Z</time>
</trkpt>
<trkpt lat="48.064632" lon="11.10544">
<ele>564.105</ele>
<time>2022-05-25T15:27:58Z</time>
</trkpt>
<trkpt lat="48.064587" lon="11.105409">
<ele>564.075</ele>
<time>2022-05-25T15:27:59Z</time>
</trkpt>
<trkpt lat="48.064548" lon="11.105379">
<ele>564.075</ele>
<time>2022-05-25T15:28:00Z</time>
</trkpt>
<trkpt lat="48.064514" lon="11.105342">
<ele>564.075</ele>
<time>2022-05-25T15:28:01Z</time>
</trkpt>
<trkpt lat="48.064468" lon="11.1053">
<ele>563.784</ele>
<time>2022-05-25T15:28:02Z</time>
</trkpt>
<trkpt lat="48.064419" lon="11.105258">
<ele>563.559</ele>
<time>2022-05-25T15:28:03Z</time>
</trkpt>
<trkpt lat="48.064384" lon="11.10522">
<ele>563.407</ele>
<time>2022-05-25T15:28:04Z</time>
</trkpt>
<trkpt lat="48.064346" lon="11.105202">
<ele>563.306</ele>
<time>2022-05-25T15:28:05Z</time>
</trkpt>
<trkpt lat="48.064312" lon="11.105184">
<ele>563.231</ele>
<time>2022-05-25T15:28:06Z</time>
</trkpt>
<trkpt lat="48.064285" lon="11.105175">
<ele>563.184</ele>
<time>2022-05-25T15:28:07Z</time>
</trkpt>
<trkpt lat="48.064259" lon="11.105167">
<ele>563.14</ele>
<time>2022-05-25T15:28:08Z</time>
</trkpt>
<trkpt lat="48.064213" lon="11.10515">
<ele>563.115</ele>
<time>2022-05-25T15:28:09Z</time>
</trkpt>
<trkpt lat="48.064178" lon="11.105127">
<ele>563.115</ele>
<time>2022-05-25T15:28:10Z</time>
</trkpt>
<trkpt lat="48.064148" lon="11.105111">
<ele>563.42</ele>
<time>2022-05-25T15:28:11Z</time>
</trkpt>
<trkpt lat="48.064121" lon="11.105088">
<ele>563.675</ele>
<time>2022-05-25T15:28:12Z</time>
</trkpt>
<trkpt lat="48.064102" lon="11.105071">
<ele>563.875</ele>
<time>2022-05-25T15:28:13Z</time>
</trkpt>
<trkpt lat="48.064083" lon="11.105045">
<ele>564.033</ele>
<time>2022-05-25T15:28:14Z</time>
</trkpt>
<trkpt lat="48.064053" lon="11.105027">
<ele>564.128</ele>
<time>2022-05-25T15:28:15Z</time>
</trkpt>
<trkpt lat="48.064018" lon="11.10501">
<ele>564.178</ele>
<time>2022-05-25T15:28:16Z</time>
</trkpt>
<trkpt lat="48.063988" lon="11.10498">
<ele>564.212</ele>
<time>2022-05-25T15:28:17Z</time>
</trkpt>
<trkpt lat="48.063965" lon="11.104952">
<ele>564.249</ele>
<time>2022-05-25T15:28:18Z</time>
</trkpt>
<trkpt lat="48.063938" lon="11.104928">
<ele>564.249</ele>
<time>2022-05-25T15:28:19Z</time>
</trkpt>
<trkpt lat="48.063923" lon="11.10491">
<ele>564.249</ele>
<time>2022-05-25T15:28:20Z</time>
</trkpt>
<trkpt lat="48.0639" lon="11.104889">
<ele>564.249</ele>
<time>2022-05-25T15:28:21Z</time>
</trkpt>
<trkpt lat="48.063881" lon="11.10487">
<ele>564.249</ele>
<time>2022-05-25T15:28:22Z</time>
</trkpt>
<trkpt lat="48.063862" lon="11.104845">
<ele>564.249</ele>
<time>2022-05-25T15:28:23Z</time>
</trkpt>
<trkpt lat="48.063839" lon="11.104826">
<ele>564.249</ele>
<time>2022-05-25T15:28:24Z</time>
</trkpt>
<trkpt lat="48.063812" lon="11.104798">
<ele>564.249</ele>
<time>2022-05-25T15:28:25Z</time>
</trkpt>
<trkpt lat="48.063793" lon="11.104776">
<ele>564.249</ele>
<time>2022-05-25T15:28:26Z</time>
</trkpt>
<trkpt lat="48.063774" lon="11.104749">
<ele>564.249</ele>
<time>2022-05-25T15:28:27Z</time>
</trkpt>
<trkpt lat="48.063759" lon="11.104721">
<ele>564.249</ele>
<time>2022-05-25T15:28:28Z</time>
</trkpt>
<trkpt lat="48.06374" lon="11.104695">
<ele>564.249</ele>
<time>2022-05-25T15:28:29Z</time>
</trkpt>
<trkpt lat="48.063732" lon="11.104679">
<ele>564.249</ele>
<time>2022-05-25T15:28:30Z</time>
</trkpt>
<trkpt lat="48.063717" lon="11.104654">
<ele>564.249</ele>
<time>2022-05-25T15:28:31Z</time>
</trkpt>
<trkpt lat="48.063698" lon="11.10463">
<ele>564.249</ele>
<time>2022-05-25T15:28:32Z</time>
</trkpt>
<trkpt lat="48.063683" lon="11.104606">
<ele>564.249</ele>
<time>2022-05-25T15:28:33Z</time>
</trkpt>
<trkpt lat="48.063667" lon="11.104602">
<ele>564.249</ele>
<time>2022-05-25T15:28:34Z</time>
</trkpt>
<trkpt lat="48.063656" lon="11.104593">
<ele>564.249</ele>
<time>2022-05-25T15:28:35Z</time>
</trkpt>
<trkpt lat="48.063637" lon="11.104589">
<ele>564.249</ele>
<time>2022-05-25T15:28:36Z</time>
</trkpt>
<trkpt lat="48.063599" lon="11.10457">
<ele>564.249</ele>
<time>2022-05-25T15:28:37Z</time>
</trkpt>
<trkpt lat="48.063564" lon="11.104555">
<ele>564.249</ele>
<time>2022-05-25T15:28:38Z</time>
</trkpt>
<trkpt lat="48.063522" lon="11.104533">
<ele>563.925</ele>
<time>2022-05-25T15:28:39Z</time>
</trkpt>
<trkpt lat="48.063496" lon="11.104528">
<ele>563.67</ele>
<time>2022-05-25T15:28:40Z</time>
</trkpt>
<trkpt lat="48.063461" lon="11.104524">
<ele>563.466</ele>
<time>2022-05-25T15:28:41Z</time>
</trkpt>
<trkpt lat="48.063435" lon="11.104515">
<ele>563.336</ele>
<time>2022-05-25T15:28:42Z</time>
</trkpt>
<trkpt lat="48.063389" lon="11.104516">
<ele>562.99</ele>
<time>2022-05-25T15:28:43Z</time>
</trkpt>
<trkpt lat="48.063347" lon="11.104508">
<ele>562.781</ele>
<time>2022-05-25T15:28:44Z</time>
</trkpt>
<trkpt lat="48.063309" lon="11.104504">
<ele>562.351</ele>
<time>2022-05-25T15:28:45Z</time>
</trkpt>
<trkpt lat="48.063274" lon="11.104516">
<ele>561.975</ele>
<time>2022-05-25T15:28:46Z</time>
</trkpt>
<trkpt lat="48.063244" lon="11.104528">
<ele>561.744</ele>
<time>2022-05-25T15:28:47Z</time>
</trkpt>
<trkpt lat="48.063221" lon="11.104542">
<ele>561.293</ele>
<time>2022-05-25T15:28:48Z</time>
</trkpt>
<trkpt lat="48.063198" lon="11.104555">
<ele>560.962</ele>
<time>2022-05-25T15:28:49Z</time>
</trkpt>
<trkpt lat="48.063175" lon="11.104564">
<ele>560.708</ele>
<time>2022-05-25T15:28:50Z</time>
</trkpt>
<trkpt lat="48.063145" lon="11.104589">
<ele>560.544</ele>
<time>2022-05-25T15:28:51Z</time>
</trkpt>
<trkpt lat="48.063118" lon="11.104602">
<ele>560.422</ele>
<time>2022-05-25T15:28:52Z</time>
</trkpt>
<trkpt lat="48.063087" lon="11.104616">
<ele>560.125</ele>
<time>2022-05-25T15:28:53Z</time>
</trkpt>
<trkpt lat="48.063061" lon="11.104627">
<ele>559.876</ele>
<time>2022-05-25T15:28:54Z</time>
</trkpt>
<trkpt lat="48.063026" lon="11.104654">
<ele>559.693</ele>
<time>2022-05-25T15:28:55Z</time>
</trkpt>
<trkpt lat="48.062996" lon="11.104683">
<ele>559.574</ele>
<time>2022-05-25T15:28:56Z</time>
</trkpt>
<trkpt lat="48.062962" lon="11.1047">
<ele>559.242</ele>
<time>2022-05-25T15:28:57Z</time>
</trkpt>
<trkpt lat="48.062935" lon="11.104712">
<ele>559.007</ele>
<time>2022-05-25T15:28:58Z</time>
</trkpt>
<trkpt lat="48.062897" lon="11.104703">
<ele>558.802</ele>
<time>2022-05-25T15:28:59Z</time>
</trkpt>
<trkpt lat="48.062866" lon="11.104692">
<ele>558.642</ele>
<time>2022-05-25T15:29:00Z</time>
</trkpt>
<trkpt lat="48.062847" lon="11.10468">
<ele>558.547</ele>
<time>2022-05-25T15:29:01Z</time>
</trkpt>
<trkpt lat="48.062817" lon="11.10466">
<ele>558.473</ele>
<time>2022-05-25T15:29:02Z</time>
</trkpt>
<trkpt lat="48.062798" lon="11.104635">
<ele>558.43</ele>
<time>2022-05-25T15:29:03Z</time>
</trkpt>
<trkpt lat="48.062759" lon="11.104595">
<ele>558.405</ele>
<time>2022-05-25T15:29:04Z</time>
</trkpt>
<trkpt lat="48.062729" lon="11.104575">
<ele>558.405</ele>
<time>2022-05-25T15:29:05Z</time>
</trkpt>
<trkpt lat="48.06271" lon="11.104558">
<ele>558.405</ele>
<time>2022-05-25T15:29:06Z</time>
</trkpt>
<trkpt lat="48.062691" lon="11.104545">
<ele>558.405</ele>
<time>2022-05-25T15:29:07Z</time>
</trkpt>
<trkpt lat="48.062668" lon="11.10452">
<ele>558.405</ele>
<time>2022-05-25T15:29:08Z</time>
</trkpt>
<trkpt lat="48.062637" lon="11.104495">
<ele>558.404</ele>
<time>2022-05-25T15:29:09Z</time>
</trkpt>
<trkpt lat="48.062611" lon="11.104475">
<ele>558.405</ele>
<time>2022-05-25T15:29:10Z</time>
</trkpt>
<trkpt lat="48.062584" lon="11.104445">
<ele>558.405</ele>
<time>2022-05-25T15:29:11Z</time>
</trkpt>
<trkpt lat="48.062557" lon="11.104425">
<ele>558.405</ele>
<time>2022-05-25T15:29:12Z</time>
</trkpt>
<trkpt lat="48.062527" lon="11.104404">
<ele>558.405</ele>
<time>2022-05-25T15:29:13Z</time>
</trkpt>
<trkpt lat="48.062511" lon="11.104377">
<ele>558.405</ele>
<time>2022-05-25T15:29:14Z</time>
</trkpt>
<trkpt lat="48.062489" lon="11.104355">
<ele>558.405</ele>
<time>2022-05-25T15:29:15Z</time>
</trkpt>
<trkpt lat="48.062439" lon="11.104321">
<ele>558.405</ele>
<time>2022-05-25T15:29:16Z</time>
</trkpt>
<trkpt lat="48.062397" lon="11.104283">
<ele>558.405</ele>
<time>2022-05-25T15:29:17Z</time>
</trkpt>
<trkpt lat="48.062363" lon="11.104255">
<ele>558.405</ele>
<time>2022-05-25T15:29:18Z</time>
</trkpt>
<trkpt lat="48.06234" lon="11.104235">
<ele>558.405</ele>
<time>2022-05-25T15:29:19Z</time>
</trkpt>
<trkpt lat="48.062321" lon="11.10422">
<ele>558.405</ele>
<time>2022-05-25T15:29:20Z</time>
</trkpt>
<trkpt lat="48.062298" lon="11.104199">
<ele>558.405</ele>
<time>2022-05-25T15:29:21Z</time>
</trkpt>
<trkpt lat="48.062271" lon="11.104175">
<ele>558.663</ele>
<time>2022-05-25T15:29:22Z</time>
</trkpt>
<trkpt lat="48.062252" lon="11.104149">
<ele>558.85</ele>
<time>2022-05-25T15:29:23Z</time>
</trkpt>
<trkpt lat="48.062229" lon="11.10411">
<ele>558.998</ele>
<time>2022-05-25T15:29:24Z</time>
</trkpt>
<trkpt lat="48.062199" lon="11.104084">
<ele>559.134</ele>
<time>2022-05-25T15:29:25Z</time>
</trkpt>
<trkpt lat="48.062172" lon="11.104059">
<ele>559.234</ele>
<time>2022-05-25T15:29:26Z</time>
</trkpt>
<trkpt lat="48.062145" lon="11.104042">
<ele>559.3</ele>
<time>2022-05-25T15:29:27Z</time>
</trkpt>
<trkpt lat="48.062126" lon="11.104027">
<ele>559.34</ele>
<time>2022-05-25T15:29:28Z</time>
</trkpt>
<trkpt lat="48.062107" lon="11.104007">
<ele>559.364</ele>
<time>2022-05-25T15:29:29Z</time>
</trkpt>
<trkpt lat="48.062069" lon="11.103986">
<ele>559.364</ele>
<time>2022-05-25T15:29:30Z</time>
</trkpt>
<trkpt lat="48.062046" lon="11.103971">
<ele>559.364</ele>
<time>2022-05-25T15:29:31Z</time>
</trkpt>
<trkpt lat="48.062019" lon="11.10394">
<ele>559.364</ele>
<time>2022-05-25T15:29:32Z</time>
</trkpt>
<trkpt lat="48.062" lon="11.103917">
<ele>559.364</ele>
<time>2022-05-25T15:29:33Z</time>
</trkpt>
<trkpt lat="48.061974" lon="11.103895">
<ele>559.364</ele>
<time>2022-05-25T15:29:34Z</time>
</trkpt>
<trkpt lat="48.061947" lon="11.103865">
<ele>559.364</ele>
<time>2022-05-25T15:29:35Z</time>
</trkpt>
<trkpt lat="48.061924" lon="11.103844">
<ele>559.364</ele>
<time>2022-05-25T15:29:36Z</time>
</trkpt>
<trkpt lat="48.06189" lon="11.103822">
<ele>559.364</ele>
<time>2022-05-25T15:29:37Z</time>
</trkpt>
<trkpt lat="48.061871" lon="11.103806">
<ele>559.364</ele>
<time>2022-05-25T15:29:38Z</time>
</trkpt>
<trkpt lat="48.061832" lon="11.103772">
<ele>559.364</ele>
<time>2022-05-25T15:29:39Z</time>
</trkpt>
<trkpt lat="48.061802" lon="11.103749">
<ele>559.364</ele>
<time>2022-05-25T15:29:40Z</time>
</trkpt>
<trkpt lat="48.061768" lon="11.103725">
<ele>559.364</ele>
<time>2022-05-25T15:29:41Z</time>
</trkpt>
<trkpt lat="48.061745" lon="11.103702">
<ele>559.364</ele>
<time>2022-05-25T15:29:42Z</time>
</trkpt>
<trkpt lat="48.061718" lon="11.103674">
<ele>559.364</ele>
<time>2022-05-25T15:29:43Z</time>
</trkpt>
<trkpt lat="48.061691" lon="11.103646">
<ele>559.364</ele>
<time>2022-05-25T15:29:44Z</time>
</trkpt>
<trkpt lat="48.061661" lon="11.10362">
<ele>559.364</ele>
<time>2022-05-25T15:29:45Z</time>
</trkpt>
<trkpt lat="48.06163" lon="11.103597">
<ele>559.364</ele>
<time>2022-05-25T15:29:46Z</time>
</trkpt>
<trkpt lat="48.061592" lon="11.103569">
<ele>559.132</ele>
<time>2022-05-25T15:29:47Z</time>
</trkpt>
<trkpt lat="48.061554" lon="11.103545">
<ele>558.959</ele>
<time>2022-05-25T15:29:48Z</time>
</trkpt>
<trkpt lat="48.061523" lon="11.103514">
<ele>558.782</ele>
<time>2022-05-25T15:29:49Z</time>
</trkpt>
<trkpt lat="48.061489" lon="11.103494">
<ele>558.639</ele>
<time>2022-05-25T15:29:50Z</time>
</trkpt>
<trkpt lat="48.06147" lon="11.103473">
<ele>558.543</ele>
<time>2022-05-25T15:29:51Z</time>
</trkpt>
<trkpt lat="48.061451" lon="11.103458">
<ele>558.474</ele>
<time>2022-05-25T15:29:52Z</time>
</trkpt>
<trkpt lat="48.061405" lon="11.103422">
<ele>558.427</ele>
<time>2022-05-25T15:29:53Z</time>
</trkpt>
<trkpt lat="48.061375" lon="11.103389">
<ele>558.405</ele>
<time>2022-05-25T15:29:54Z</time>
</trkpt>
<trkpt lat="48.061348" lon="11.103355">
<ele>558.405</ele>
<time>2022-05-25T15:29:55Z</time>
</trkpt>
<trkpt lat="48.061317" lon="11.103333">
<ele>558.405</ele>
<time>2022-05-25T15:29:56Z</time>
</trkpt>
<trkpt lat="48.061275" lon="11.103303">
<ele>558.405</ele>
<time>2022-05-25T15:29:57Z</time>
</trkpt>
<trkpt lat="48.061234" lon="11.103256">
<ele>558.405</ele>
<time>2022-05-25T15:29:58Z</time>
</trkpt>
<trkpt lat="48.061192" lon="11.10321">
<ele>558.405</ele>
<time>2022-05-25T15:29:59Z</time>
</trkpt>
<trkpt lat="48.061153" lon="11.103168">
<ele>558.405</ele>
<time>2022-05-25T15:30:00Z</time>
</trkpt>
<trkpt lat="48.061115" lon="11.103122">
<ele>558.405</ele>
<time>2022-05-25T15:30:01Z</time>
</trkpt>
<trkpt lat="48.061081" lon="11.103082">
<ele>558.094</ele>
<time>2022-05-25T15:30:02Z</time>
</trkpt>
<trkpt lat="48.061047" lon="11.103053">
<ele>557.861</ele>
<time>2022-05-25T15:30:03Z</time>
</trkpt>
<trkpt lat="48.061005" lon="11.103016">
<ele>557.938</ele>
<time>2022-05-25T15:30:04Z</time>
</trkpt>
<trkpt lat="48.060974" lon="11.102974">
<ele>558.007</ele>
<time>2022-05-25T15:30:05Z</time>
</trkpt>
<trkpt lat="48.060944" lon="11.102935">
<ele>558.062</ele>
<time>2022-05-25T15:30:06Z</time>
</trkpt>
<trkpt lat="48.060921" lon="11.10291">
<ele>558.113</ele>
<time>2022-05-25T15:30:07Z</time>
</trkpt>
<trkpt lat="48.060905" lon="11.102881">
<ele>558.155</ele>
<time>2022-05-25T15:30:08Z</time>
</trkpt>
<trkpt lat="48.06089" lon="11.102859">
<ele>558.199</ele>
<time>2022-05-25T15:30:09Z</time>
</trkpt>
<trkpt lat="48.06086" lon="11.102818">
<ele>558.237</ele>
<time>2022-05-25T15:30:10Z</time>
</trkpt>
<trkpt lat="48.060837" lon="11.10279">
<ele>558.291</ele>
<time>2022-05-25T15:30:11Z</time>
</trkpt>
<trkpt lat="48.060806" lon="11.102762">
<ele>558.317</ele>
<time>2022-05-25T15:30:12Z</time>
</trkpt>
<trkpt lat="48.060787" lon="11.102736">
<ele>558.317</ele>
<time>2022-05-25T15:30:13Z</time>
</trkpt>
<trkpt lat="48.060764" lon="11.102715">
<ele>558.317</ele>
<time>2022-05-25T15:30:14Z</time>
</trkpt>
<trkpt lat="48.06073" lon="11.102689">
<ele>558.317</ele>
<time>2022-05-25T15:30:15Z</time>
</trkpt>
<trkpt lat="48.060696" lon="11.102665">
<ele>558.317</ele>
<time>2022-05-25T15:30:16Z</time>
</trkpt>
<trkpt lat="48.060638" lon="11.10261">
<ele>558.317</ele>
<time>2022-05-25T15:30:17Z</time>
</trkpt>
<trkpt lat="48.060593" lon="11.102578">
<ele>558.317</ele>
<time>2022-05-25T15:30:18Z</time>
</trkpt>
<trkpt lat="48.060535" lon="11.102531">
<ele>558.317</ele>
<time>2022-05-25T15:30:19Z</time>
</trkpt>
<trkpt lat="48.060482" lon="11.102487">
<ele>558.317</ele>
<time>2022-05-25T15:30:20Z</time>
</trkpt>
<trkpt lat="48.06044" lon="11.102447">
<ele>557.902</ele>
<time>2022-05-25T15:30:21Z</time>
</trkpt>
<trkpt lat="48.060398" lon="11.10241">
<ele>557.627</ele>
<time>2022-05-25T15:30:22Z</time>
</trkpt>
<trkpt lat="48.060371" lon="11.102381">
<ele>557.457</ele>
<time>2022-05-25T15:30:23Z</time>
</trkpt>
<trkpt lat="48.060337" lon="11.10234">
<ele>557.568</ele>
<time>2022-05-25T15:30:24Z</time>
</trkpt>
<trkpt lat="48.060314" lon="11.102295">
<ele>557.669</ele>
<time>2022-05-25T15:30:25Z</time>
</trkpt>
<trkpt lat="48.06028" lon="11.10226">
<ele>557.747</ele>
<time>2022-05-25T15:30:26Z</time>
</trkpt>
<trkpt lat="48.060234" lon="11.102232">
<ele>557.829</ele>
<time>2022-05-25T15:30:27Z</time>
</trkpt>
<trkpt lat="48.060192" lon="11.102205">
<ele>557.85</ele>
<time>2022-05-25T15:30:28Z</time>
</trkpt>
<trkpt lat="48.060143" lon="11.102163">
<ele>558.223</ele>
<time>2022-05-25T15:30:29Z</time>
</trkpt>
<trkpt lat="48.060093" lon="11.102121">
<ele>558.553</ele>
<time>2022-05-25T15:30:30Z</time>
</trkpt>
<trkpt lat="48.060062" lon="11.102083">
<ele>558.797</ele>
<time>2022-05-25T15:30:31Z</time>
</trkpt>
<trkpt lat="48.060032" lon="11.102054">
<ele>558.921</ele>
<time>2022-05-25T15:30:32Z</time>
</trkpt>
<trkpt lat="48.060009" lon="11.102016">
<ele>559.266</ele>
<time>2022-05-25T15:30:33Z</time>
</trkpt>
<trkpt lat="48.059986" lon="11.10199">
<ele>559.52</ele>
<time>2022-05-25T15:30:34Z</time>
</trkpt>
<trkpt lat="48.059975" lon="11.10197">
<ele>559.713</ele>
<time>2022-05-25T15:30:35Z</time>
</trkpt>
<trkpt lat="48.059959" lon="11.10196">
<ele>559.868</ele>
<time>2022-05-25T15:30:36Z</time>
</trkpt>
<trkpt lat="48.059948" lon="11.101958">
<ele>559.961</ele>
<time>2022-05-25T15:30:37Z</time>
</trkpt>
<trkpt lat="48.059925" lon="11.101958">
<ele>560.042</ele>
<time>2022-05-25T15:30:38Z</time>
</trkpt>
<trkpt lat="48.059895" lon="11.101945">
<ele>560.114</ele>
<time>2022-05-25T15:30:39Z</time>
</trkpt>
<trkpt lat="48.05986" lon="11.101929">
<ele>560.149</ele>
<time>2022-05-25T15:30:40Z</time>
</trkpt>
<trkpt lat="48.059818" lon="11.101897">
<ele>560.149</ele>
<time>2022-05-25T15:30:41Z</time>
</trkpt>
<trkpt lat="48.05978" lon="11.101873">
<ele>560.149</ele>
<time>2022-05-25T15:30:42Z</time>
</trkpt>
<trkpt lat="48.059738" lon="11.101843">
<ele>559.821</ele>
<time>2022-05-25T15:30:43Z</time>
</trkpt>
<trkpt lat="48.059689" lon="11.101807">
<ele>559.639</ele>
<time>2022-05-25T15:30:44Z</time>
</trkpt>
<trkpt lat="48.059635" lon="11.101765">
<ele>559.199</ele>
<time>2022-05-25T15:30:45Z</time>
</trkpt>
<trkpt lat="48.059582" lon="11.101731">
<ele>558.927</ele>
<time>2022-05-25T15:30:46Z</time>
</trkpt>
<trkpt lat="48.059521" lon="11.101702">
<ele>558.733</ele>
<time>2022-05-25T15:30:47Z</time>
</trkpt>
<trkpt lat="48.059467" lon="11.101671">
<ele>558.605</ele>
<time>2022-05-25T15:30:48Z</time>
</trkpt>
<trkpt lat="48.059425" lon="11.101652">
<ele>558.476</ele>
<time>2022-05-25T15:30:49Z</time>
</trkpt>
<trkpt lat="48.059383" lon="11.101624">
<ele>558.14</ele>
<time>2022-05-25T15:30:50Z</time>
</trkpt>
<trkpt lat="48.059349" lon="11.101593">
<ele>557.916</ele>
<time>2022-05-25T15:30:51Z</time>
</trkpt>
<trkpt lat="48.059315" lon="11.101551">
<ele>557.748</ele>
<time>2022-05-25T15:30:52Z</time>
</trkpt>
<trkpt lat="48.059288" lon="11.101516">
<ele>557.539</ele>
<time>2022-05-25T15:30:53Z</time>
</trkpt>
<trkpt lat="48.059246" lon="11.10147">
<ele>557.464</ele>
<time>2022-05-25T15:30:54Z</time>
</trkpt>
<trkpt lat="48.059208" lon="11.10144">
<ele>557.159</ele>
<time>2022-05-25T15:30:55Z</time>
</trkpt>
<trkpt lat="48.05917" lon="11.101407">
<ele>557.154</ele>
<time>2022-05-25T15:30:56Z</time>
</trkpt>
<trkpt lat="48.059135" lon="11.101377">
<ele>557.186</ele>
<time>2022-05-25T15:30:57Z</time>
</trkpt>
<trkpt lat="48.05912" lon="11.10135">
<ele>557.172</ele>
<time>2022-05-25T15:30:58Z</time>
</trkpt>
<trkpt lat="48.059097" lon="11.10133">
<ele>557.208</ele>
<time>2022-05-25T15:30:59Z</time>
</trkpt>
<trkpt lat="48.059074" lon="11.101302">
<ele>557.241</ele>
<time>2022-05-25T15:31:00Z</time>
</trkpt>
<trkpt lat="48.059055" lon="11.101267">
<ele>557.272</ele>
<time>2022-05-25T15:31:01Z</time>
</trkpt>
<trkpt lat="48.059032" lon="11.101239">
<ele>557.299</ele>
<time>2022-05-25T15:31:02Z</time>
</trkpt>
<trkpt lat="48.05901" lon="11.10121">
<ele>557.329</ele>
<time>2022-05-25T15:31:03Z</time>
</trkpt>
<trkpt lat="48.058983" lon="11.101176">
<ele>557.358</ele>
<time>2022-05-25T15:31:04Z</time>
</trkpt>
<trkpt lat="48.058971" lon="11.101162">
<ele>557.358</ele>
<time>2022-05-25T15:31:05Z</time>
</trkpt>
<trkpt lat="48.05896" lon="11.101138">
<ele>557.358</ele>
<time>2022-05-25T15:31:06Z</time>
</trkpt>
<trkpt lat="48.058945" lon="11.101115">
<ele>557.358</ele>
<time>2022-05-25T15:31:07Z</time>
</trkpt>
<trkpt lat="48.058941" lon="11.101089">
<ele>557.358</ele>
<time>2022-05-25T15:31:08Z</time>
</trkpt>
<trkpt lat="48.058926" lon="11.101063">
<ele>557.358</ele>
<time>2022-05-25T15:31:09Z</time>
</trkpt>
<trkpt lat="48.058914" lon="11.101036">
<ele>557.358</ele>
<time>2022-05-25T15:31:10Z</time>
</trkpt>
<trkpt lat="48.058907" lon="11.101017">
<ele>557.612</ele>
<time>2022-05-25T15:31:11Z</time>
</trkpt>
<trkpt lat="48.058887" lon="11.100986">
<ele>557.825</ele>
<time>2022-05-25T15:31:12Z</time>
</trkpt>
<trkpt lat="48.058884" lon="11.100973">
<ele>558.014</ele>
<time>2022-05-25T15:31:13Z</time>
</trkpt>
<trkpt lat="48.058876" lon="11.100957">
<ele>558.122</ele>
<time>2022-05-25T15:31:14Z</time>
</trkpt>
<trkpt lat="48.058872" lon="11.100945">
<ele>558.204</ele>
<time>2022-05-25T15:31:15Z</time>
</trkpt>
<trkpt lat="48.058846" lon="11.100924">
<ele>558.257</ele>
<time>2022-05-25T15:31:16Z</time>
</trkpt>
<trkpt lat="48.058819" lon="11.100889">
<ele>558.292</ele>
<time>2022-05-25T15:31:17Z</time>
</trkpt>
<trkpt lat="48.058792" lon="11.10084">
<ele>558.317</ele>
<time>2022-05-25T15:31:18Z</time>
</trkpt>
<trkpt lat="48.058708" lon="11.100774">
<ele>558.317</ele>
<time>2022-05-25T15:31:19Z</time>
</trkpt>
<trkpt lat="48.058678" lon="11.100726">
<ele>558.317</ele>
<time>2022-05-25T15:31:20Z</time>
</trkpt>
<trkpt lat="48.058666" lon="11.100701">
<ele>558.317</ele>
<time>2022-05-25T15:31:21Z</time>
</trkpt>
<trkpt lat="48.058647" lon="11.100683">
<ele>558.317</ele>
<time>2022-05-25T15:31:22Z</time>
</trkpt>
<trkpt lat="48.058628" lon="11.100661">
<ele>558.317</ele>
<time>2022-05-25T15:31:23Z</time>
</trkpt>
<trkpt lat="48.058586" lon="11.100604">
<ele>558.317</ele>
<time>2022-05-25T15:31:24Z</time>
</trkpt>
<trkpt lat="48.058548" lon="11.10056">
<ele>558.317</ele>
<time>2022-05-25T15:31:25Z</time>
</trkpt>
<trkpt lat="48.058517" lon="11.100563">
<ele>558.317</ele>
<time>2022-05-25T15:31:26Z</time>
</trkpt>
<trkpt lat="48.058491" lon="11.100554">
<ele>558.317</ele>
<time>2022-05-25T15:31:27Z</time>
</trkpt>
<trkpt lat="48.058468" lon="11.100543">
<ele>558.317</ele>
<time>2022-05-25T15:31:28Z</time>
</trkpt>
<trkpt lat="48.058411" lon="11.100527">
<ele>558.317</ele>
<time>2022-05-25T15:31:29Z</time>
</trkpt>
<trkpt lat="48.058361" lon="11.100492">
<ele>558.317</ele>
<time>2022-05-25T15:31:30Z</time>
</trkpt>
<trkpt lat="48.058319" lon="11.100469">
<ele>558.317</ele>
<time>2022-05-25T15:31:31Z</time>
</trkpt>
<trkpt lat="48.058296" lon="11.100464">
<ele>558.317</ele>
<time>2022-05-25T15:31:32Z</time>
</trkpt>
<trkpt lat="48.058285" lon="11.100462">
<ele>558.317</ele>
<time>2022-05-25T15:31:33Z</time>
</trkpt>
<trkpt lat="48.058266" lon="11.100462">
<ele>558.317</ele>
<time>2022-05-25T15:31:34Z</time>
</trkpt>
<trkpt lat="48.058231" lon="11.100445">
<ele>558.317</ele>
<time>2022-05-25T15:31:35Z</time>
</trkpt>
<trkpt lat="48.058205" lon="11.100425">
<ele>558.317</ele>
<time>2022-05-25T15:31:36Z</time>
</trkpt>
<trkpt lat="48.058128" lon="11.100411">
<ele>558.317</ele>
<time>2022-05-25T15:31:37Z</time>
</trkpt>
<trkpt lat="48.058064" lon="11.100378">
<ele>558.317</ele>
<time>2022-05-25T15:31:38Z</time>
</trkpt>
<trkpt lat="48.058022" lon="11.100355">
<ele>558.317</ele>
<time>2022-05-25T15:31:39Z</time>
</trkpt>
<trkpt lat="48.057991" lon="11.100345">
<ele>558.317</ele>
<time>2022-05-25T15:31:40Z</time>
</trkpt>
<trkpt lat="48.057957" lon="11.100342">
<ele>558.317</ele>
<time>2022-05-25T15:31:41Z</time>
</trkpt>
<trkpt lat="48.05793" lon="11.100347">
<ele>558.317</ele>
<time>2022-05-25T15:31:42Z</time>
</trkpt>
<trkpt lat="48.057896" lon="11.100342">
<ele>558.317</ele>
<time>2022-05-25T15:31:43Z</time>
</trkpt>
<trkpt lat="48.057865" lon="11.100332">
<ele>558.317</ele>
<time>2022-05-25T15:31:44Z</time>
</trkpt>
<trkpt lat="48.057835" lon="11.100322">
<ele>558.317</ele>
<time>2022-05-25T15:31:45Z</time>
</trkpt>
<trkpt lat="48.057793" lon="11.100317">
<ele>558.317</ele>
<time>2022-05-25T15:31:46Z</time>
</trkpt>
<trkpt lat="48.057739" lon="11.10031">
<ele>558.317</ele>
<time>2022-05-25T15:31:47Z</time>
</trkpt>
<trkpt lat="48.057693" lon="11.100302">
<ele>558.317</ele>
<time>2022-05-25T15:31:48Z</time>
</trkpt>
<trkpt lat="48.057636" lon="11.100302">
<ele>558.317</ele>
<time>2022-05-25T15:31:49Z</time>
</trkpt>
<trkpt lat="48.057587" lon="11.100297">
<ele>558.317</ele>
<time>2022-05-25T15:31:50Z</time>
</trkpt>
<trkpt lat="48.057556" lon="11.100298">
<ele>558.317</ele>
<time>2022-05-25T15:31:51Z</time>
</trkpt>
<trkpt lat="48.05751" lon="11.100295">
<ele>558.317</ele>
<time>2022-05-25T15:31:52Z</time>
</trkpt>
<trkpt lat="48.057434" lon="11.100302">
<ele>558.317</ele>
<time>2022-05-25T15:31:53Z</time>
</trkpt>
<trkpt lat="48.057381" lon="11.100302">
<ele>558.317</ele>
<time>2022-05-25T15:31:54Z</time>
</trkpt>
<trkpt lat="48.05732" lon="11.10031">
<ele>558.317</ele>
<time>2022-05-25T15:31:55Z</time>
</trkpt>
<trkpt lat="48.057262" lon="11.100313">
<ele>558.317</ele>
<time>2022-05-25T15:31:56Z</time>
</trkpt>
<trkpt lat="48.05722" lon="11.100318">
<ele>558.317</ele>
<time>2022-05-25T15:31:57Z</time>
</trkpt>
<trkpt lat="48.057178" lon="11.100315">
<ele>558.317</ele>
<time>2022-05-25T15:31:58Z</time>
</trkpt>
<trkpt lat="48.057144" lon="11.100317">
<ele>558.317</ele>
<time>2022-05-25T15:31:59Z</time>
</trkpt>
<trkpt lat="48.057098" lon="11.100328">
<ele>558.317</ele>
<time>2022-05-25T15:32:00Z</time>
</trkpt>
<trkpt lat="48.057053" lon="11.10033">
<ele>558.317</ele>
<time>2022-05-25T15:32:01Z</time>
</trkpt>
<trkpt lat="48.057014" lon="11.100338">
<ele>558.317</ele>
<time>2022-05-25T15:32:02Z</time>
</trkpt>
<trkpt lat="48.056973" lon="11.100355">
<ele>558.317</ele>
<time>2022-05-25T15:32:03Z</time>
</trkpt>
<trkpt lat="48.056942" lon="11.10036">
<ele>558.317</ele>
<time>2022-05-25T15:32:04Z</time>
</trkpt>
<trkpt lat="48.056908" lon="11.100366">
<ele>558.317</ele>
<time>2022-05-25T15:32:05Z</time>
</trkpt>
<trkpt lat="48.05687" lon="11.100366">
<ele>558.086</ele>
<time>2022-05-25T15:32:06Z</time>
</trkpt>
<trkpt lat="48.056824" lon="11.100375">
<ele>557.896</ele>
<time>2022-05-25T15:32:07Z</time>
</trkpt>
<trkpt lat="48.056786" lon="11.10038">
<ele>557.774</ele>
<time>2022-05-25T15:32:08Z</time>
</trkpt>
<trkpt lat="48.056728" lon="11.100405">
<ele>557.627</ele>
<time>2022-05-25T15:32:09Z</time>
</trkpt>
<trkpt lat="48.056683" lon="11.10042">
<ele>557.51</ele>
<time>2022-05-25T15:32:10Z</time>
</trkpt>
<trkpt lat="48.056648" lon="11.100441">
<ele>557.428</ele>
<time>2022-05-25T15:32:11Z</time>
</trkpt>
<trkpt lat="48.056595" lon="11.10045">
<ele>557.376</ele>
<time>2022-05-25T15:32:12Z</time>
</trkpt>
<trkpt lat="48.056568" lon="11.100451">
<ele>557.358</ele>
<time>2022-05-25T15:32:13Z</time>
</trkpt>
<trkpt lat="48.056545" lon="11.100462">
<ele>557.358</ele>
<time>2022-05-25T15:32:14Z</time>
</trkpt>
<trkpt lat="48.056522" lon="11.100474">
<ele>557.358</ele>
<time>2022-05-25T15:32:15Z</time>
</trkpt>
<trkpt lat="48.056484" lon="11.100483">
<ele>557.358</ele>
<time>2022-05-25T15:32:16Z</time>
</trkpt>
<trkpt lat="48.05645" lon="11.10049">
<ele>557.358</ele>
<time>2022-05-25T15:32:17Z</time>
</trkpt>
<trkpt lat="48.056419" lon="11.100497">
<ele>557.358</ele>
<time>2022-05-25T15:32:18Z</time>
</trkpt>
<trkpt lat="48.056385" lon="11.100493">
<ele>557.358</ele>
<time>2022-05-25T15:32:19Z</time>
</trkpt>
<trkpt lat="48.056347" lon="11.10049">
<ele>557.358</ele>
<time>2022-05-25T15:32:20Z</time>
</trkpt>
<trkpt lat="48.056297" lon="11.100492">
<ele>557.358</ele>
<time>2022-05-25T15:32:21Z</time>
</trkpt>
<trkpt lat="48.056244" lon="11.100487">
<ele>557.358</ele>
<time>2022-05-25T15:32:22Z</time>
</trkpt>
<trkpt lat="48.056194" lon="11.100476">
<ele>557.358</ele>
<time>2022-05-25T15:32:23Z</time>
</trkpt>
<trkpt lat="48.056149" lon="11.100458">
<ele>557.358</ele>
<time>2022-05-25T15:32:24Z</time>
</trkpt>
<trkpt lat="48.056103" lon="11.100471">
<ele>557.358</ele>
<time>2022-05-25T15:32:25Z</time>
</trkpt>
<trkpt lat="48.056057" lon="11.100481">
<ele>557.358</ele>
<time>2022-05-25T15:32:26Z</time>
</trkpt>
<trkpt lat="48.056004" lon="11.100485">
<ele>557.358</ele>
<time>2022-05-25T15:32:27Z</time>
</trkpt>
<trkpt lat="48.055965" lon="11.100476">
<ele>557.358</ele>
<time>2022-05-25T15:32:28Z</time>
</trkpt>
<trkpt lat="48.055923" lon="11.100471">
<ele>557.358</ele>
<time>2022-05-25T15:32:29Z</time>
</trkpt>
<trkpt lat="48.055889" lon="11.100469">
<ele>557.358</ele>
<time>2022-05-25T15:32:30Z</time>
</trkpt>
<trkpt lat="48.055847" lon="11.100465">
<ele>557.358</ele>
<time>2022-05-25T15:32:31Z</time>
</trkpt>
<trkpt lat="48.055809" lon="11.100462">
<ele>557.358</ele>
<time>2022-05-25T15:32:32Z</time>
</trkpt>
<trkpt lat="48.055775" lon="11.100458">
<ele>557.358</ele>
<time>2022-05-25T15:32:33Z</time>
</trkpt>
<trkpt lat="48.055737" lon="11.100451">
<ele>557.358</ele>
<time>2022-05-25T15:32:34Z</time>
</trkpt>
<trkpt lat="48.055698" lon="11.100449">
<ele>557.358</ele>
<time>2022-05-25T15:32:35Z</time>
</trkpt>
<trkpt lat="48.055656" lon="11.100449">
<ele>557.358</ele>
<time>2022-05-25T15:32:36Z</time>
</trkpt>
<trkpt lat="48.055622" lon="11.100436">
<ele>557.592</ele>
<time>2022-05-25T15:32:37Z</time>
</trkpt>
<trkpt lat="48.055584" lon="11.10042">
<ele>557.759</ele>
<time>2022-05-25T15:32:38Z</time>
</trkpt>
<trkpt lat="48.05555" lon="11.10041">
<ele>557.926</ele>
<time>2022-05-25T15:32:39Z</time>
</trkpt>
<trkpt lat="48.055511" lon="11.100408">
<ele>558.062</ele>
<time>2022-05-25T15:32:40Z</time>
</trkpt>
<trkpt lat="48.055473" lon="11.100408">
<ele>558.17</ele>
<time>2022-05-25T15:32:41Z</time>
</trkpt>
<trkpt lat="48.055435" lon="11.100401">
<ele>558.244</ele>
<time>2022-05-25T15:32:42Z</time>
</trkpt>
<trkpt lat="48.055397" lon="11.100391">
<ele>558.294</ele>
<time>2022-05-25T15:32:43Z</time>
</trkpt>
<trkpt lat="48.055359" lon="11.100368">
<ele>558.317</ele>
<time>2022-05-25T15:32:44Z</time>
</trkpt>
<trkpt lat="48.055328" lon="11.100351">
<ele>558.317</ele>
<time>2022-05-25T15:32:45Z</time>
</trkpt>
<trkpt lat="48.055305" lon="11.10034">
<ele>558.317</ele>
<time>2022-05-25T15:32:46Z</time>
</trkpt>
<trkpt lat="48.055279" lon="11.100335">
<ele>558.317</ele>
<time>2022-05-25T15:32:47Z</time>
</trkpt>
<trkpt lat="48.055248" lon="11.100333">
<ele>558.317</ele>
<time>2022-05-25T15:32:48Z</time>
</trkpt>
<trkpt lat="48.055222" lon="11.100333">
<ele>558.513</ele>
<time>2022-05-25T15:32:49Z</time>
</trkpt>
<trkpt lat="48.055195" lon="11.100327">
<ele>558.682</ele>
<time>2022-05-25T15:32:50Z</time>
</trkpt>
<trkpt lat="48.055168" lon="11.100324">
<ele>558.826</ele>
<time>2022-05-25T15:32:51Z</time>
</trkpt>
<trkpt lat="48.055141" lon="11.100315">
<ele>558.948</ele>
<time>2022-05-25T15:32:52Z</time>
</trkpt>
<trkpt lat="48.055107" lon="11.100311">
<ele>559.057</ele>
<time>2022-05-25T15:32:53Z</time>
</trkpt>
<trkpt lat="48.055073" lon="11.10031">
<ele>559.129</ele>
<time>2022-05-25T15:32:54Z</time>
</trkpt>
<trkpt lat="48.055042" lon="11.100317">
<ele>559.169</ele>
<time>2022-05-25T15:32:55Z</time>
</trkpt>
<trkpt lat="48.055027" lon="11.100322">
<ele>559.19</ele>
<time>2022-05-25T15:32:56Z</time>
</trkpt>
<trkpt lat="48.055008" lon="11.100328">
<ele>559.19</ele>
<time>2022-05-25T15:32:57Z</time>
</trkpt>
<trkpt lat="48.054981" lon="11.100324">
<ele>559.19</ele>
<time>2022-05-25T15:32:58Z</time>
</trkpt>
<trkpt lat="48.054955" lon="11.100311">
<ele>559.19</ele>
<time>2022-05-25T15:32:59Z</time>
</trkpt>
<trkpt lat="48.054928" lon="11.100298">
<ele>559.19</ele>
<time>2022-05-25T15:33:00Z</time>
</trkpt>
<trkpt lat="48.054905" lon="11.100295">
<ele>559.19</ele>
<time>2022-05-25T15:33:01Z</time>
</trkpt>
<trkpt lat="48.054886" lon="11.1003">
<ele>559.19</ele>
<time>2022-05-25T15:33:02Z</time>
</trkpt>
<trkpt lat="48.054863" lon="11.100295">
<ele>559.19</ele>
<time>2022-05-25T15:33:03Z</time>
</trkpt>
<trkpt lat="48.054836" lon="11.100278">
<ele>559.19</ele>
<time>2022-05-25T15:33:04Z</time>
</trkpt>
<trkpt lat="48.054813" lon="11.100259">
<ele>559.19</ele>
<time>2022-05-25T15:33:05Z</time>
</trkpt>
<trkpt lat="48.054794" lon="11.100238">
<ele>559.19</ele>
<time>2022-05-25T15:33:06Z</time>
</trkpt>
<trkpt lat="48.054771" lon="11.100212">
<ele>559.19</ele>
<time>2022-05-25T15:33:07Z</time>
</trkpt>
<trkpt lat="48.054768" lon="11.100185">
<ele>559.19</ele>
<time>2022-05-25T15:33:08Z</time>
</trkpt>
<trkpt lat="48.05476" lon="11.100156">
<ele>559.19</ele>
<time>2022-05-25T15:33:09Z</time>
</trkpt>
<trkpt lat="48.054749" lon="11.100124">
<ele>559.19</ele>
<time>2022-05-25T15:33:10Z</time>
</trkpt>
<trkpt lat="48.054737" lon="11.100091">
<ele>559.19</ele>
<time>2022-05-25T15:33:11Z</time>
</trkpt>
<trkpt lat="48.054733" lon="11.100055">
<ele>559.19</ele>
<time>2022-05-25T15:33:12Z</time>
</trkpt>
<trkpt lat="48.054726" lon="11.100017">
<ele>559.19</ele>
<time>2022-05-25T15:33:13Z</time>
</trkpt>
<trkpt lat="48.054722" lon="11.099959">
<ele>559.19</ele>
<time>2022-05-25T15:33:14Z</time>
</trkpt>
<trkpt lat="48.054707" lon="11.099907">
<ele>559.19</ele>
<time>2022-05-25T15:33:16Z</time>
</trkpt>
<trkpt lat="48.054699" lon="11.099807">
<ele>559.19</ele>
<time>2022-05-25T15:33:17Z</time>
</trkpt>
<trkpt lat="48.054688" lon="11.099765">
<ele>559.19</ele>
<time>2022-05-25T15:33:18Z</time>
</trkpt>
<trkpt lat="48.054665" lon="11.09973">
<ele>559.19</ele>
<time>2022-05-25T15:33:19Z</time>
</trkpt>
<trkpt lat="48.054642" lon="11.099691">
<ele>559.19</ele>
<time>2022-05-25T15:33:20Z</time>
</trkpt>
<trkpt lat="48.054615" lon="11.099651">
<ele>559.19</ele>
<time>2022-05-25T15:33:21Z</time>
</trkpt>
<trkpt lat="48.054581" lon="11.099611">
<ele>559.19</ele>
<time>2022-05-25T15:33:22Z</time>
</trkpt>
<trkpt lat="48.054543" lon="11.099573">
<ele>559.19</ele>
<time>2022-05-25T15:33:23Z</time>
</trkpt>
<trkpt lat="48.054504" lon="11.099536">
<ele>559.19</ele>
<time>2022-05-25T15:33:24Z</time>
</trkpt>
<trkpt lat="48.054474" lon="11.099504">
<ele>559.19</ele>
<time>2022-05-25T15:33:26Z</time>
</trkpt>
<trkpt lat="48.054405" lon="11.099457">
<ele>559.19</ele>
<time>2022-05-25T15:33:27Z</time>
</trkpt>
<trkpt lat="48.054375" lon="11.09943">
<ele>559.19</ele>
<time>2022-05-25T15:33:28Z</time>
</trkpt>
<trkpt lat="48.054352" lon="11.099405">
<ele>559.19</ele>
<time>2022-05-25T15:33:29Z</time>
</trkpt>
<trkpt lat="48.054325" lon="11.099379">
<ele>559.19</ele>
<time>2022-05-25T15:33:30Z</time>
</trkpt>
<trkpt lat="48.054302" lon="11.099354">
<ele>559.19</ele>
<time>2022-05-25T15:33:31Z</time>
</trkpt>
<trkpt lat="48.054272" lon="11.099332">
<ele>559.19</ele>
<time>2022-05-25T15:33:32Z</time>
</trkpt>
<trkpt lat="48.054241" lon="11.099319">
<ele>559.19</ele>
<time>2022-05-25T15:33:33Z</time>
</trkpt>
<trkpt lat="48.054214" lon="11.099303">
<ele>559.19</ele>
<time>2022-05-25T15:33:34Z</time>
</trkpt>
<trkpt lat="48.054184" lon="11.099287">
<ele>559.19</ele>
<time>2022-05-25T15:33:35Z</time>
</trkpt>
<trkpt lat="48.054146" lon="11.099288">
<ele>559.19</ele>
<time>2022-05-25T15:33:36Z</time>
</trkpt>
<trkpt lat="48.054111" lon="11.099301">
<ele>559.19</ele>
<time>2022-05-25T15:33:37Z</time>
</trkpt>
<trkpt lat="48.054073" lon="11.099317">
<ele>559.19</ele>
<time>2022-05-25T15:33:38Z</time>
</trkpt>
<trkpt lat="48.054028" lon="11.099335">
<ele>559.19</ele>
<time>2022-05-25T15:33:39Z</time>
</trkpt>
<trkpt lat="48.053986" lon="11.099352">
<ele>559.19</ele>
<time>2022-05-25T15:33:40Z</time>
</trkpt>
<trkpt lat="48.053947" lon="11.099368">
<ele>559.19</ele>
<time>2022-05-25T15:33:41Z</time>
</trkpt>
<trkpt lat="48.053898" lon="11.0994">
<ele>558.919</ele>
<time>2022-05-25T15:33:42Z</time>
</trkpt>
<trkpt lat="48.053852" lon="11.099423">
<ele>558.731</ele>
<time>2022-05-25T15:33:43Z</time>
</trkpt>
<trkpt lat="48.05381" lon="11.099431">
<ele>558.595</ele>
<time>2022-05-25T15:33:44Z</time>
</trkpt>
<trkpt lat="48.053772" lon="11.099433">
<ele>558.495</ele>
<time>2022-05-25T15:33:46Z</time>
</trkpt>
<trkpt lat="48.053699" lon="11.09944">
<ele>558.379</ele>
<time>2022-05-25T15:33:47Z</time>
</trkpt>
<trkpt lat="48.053665" lon="11.09943">
<ele>558.34</ele>
<time>2022-05-25T15:33:48Z</time>
</trkpt>
<trkpt lat="48.053658" lon="11.099406">
<ele>558.317</ele>
<time>2022-05-25T15:33:49Z</time>
</trkpt>
<trkpt lat="48.053661" lon="11.099373">
<ele>558.317</ele>
<time>2022-05-25T15:33:50Z</time>
</trkpt>
<trkpt lat="48.05365" lon="11.099337">
<ele>558.317</ele>
<time>2022-05-25T15:33:51Z</time>
</trkpt>
<trkpt lat="48.053635" lon="11.099293">
<ele>558.317</ele>
<time>2022-05-25T15:33:52Z</time>
</trkpt>
<trkpt lat="48.053627" lon="11.099243">
<ele>558.317</ele>
<time>2022-05-25T15:33:53Z</time>
</trkpt>
<trkpt lat="48.053619" lon="11.099194">
<ele>558.317</ele>
<time>2022-05-25T15:33:54Z</time>
</trkpt>
<trkpt lat="48.053612" lon="11.09914">
<ele>558.317</ele>
<time>2022-05-25T15:33:55Z</time>
</trkpt>
<trkpt lat="48.0536" lon="11.0991">
<ele>558.317</ele>
<time>2022-05-25T15:33:56Z</time>
</trkpt>
<trkpt lat="48.053593" lon="11.09906">
<ele>558.317</ele>
<time>2022-05-25T15:33:57Z</time>
</trkpt>
<trkpt lat="48.053596" lon="11.099018">
<ele>558.317</ele>
<time>2022-05-25T15:33:58Z</time>
</trkpt>
<trkpt lat="48.053596" lon="11.098969">
<ele>558.317</ele>
<time>2022-05-25T15:33:59Z</time>
</trkpt>
<trkpt lat="48.053593" lon="11.098918">
<ele>558.317</ele>
<time>2022-05-25T15:34:00Z</time>
</trkpt>
<trkpt lat="48.053593" lon="11.098868">
<ele>558.563</ele>
<time>2022-05-25T15:34:01Z</time>
</trkpt>
<trkpt lat="48.053593" lon="11.09882">
<ele>558.76</ele>
<time>2022-05-25T15:34:02Z</time>
</trkpt>
<trkpt lat="48.053593" lon="11.09878">
<ele>558.91</ele>
<time>2022-05-25T15:34:03Z</time>
</trkpt>
<trkpt lat="48.053596" lon="11.09874">
<ele>559.032</ele>
<time>2022-05-25T15:34:04Z</time>
</trkpt>
<trkpt lat="48.053593" lon="11.098704">
<ele>559.098</ele>
<time>2022-05-25T15:34:05Z</time>
</trkpt>
<trkpt lat="48.053581" lon="11.098668">
<ele>559.134</ele>
<time>2022-05-25T15:34:06Z</time>
</trkpt>
<trkpt lat="48.053562" lon="11.098643">
<ele>559.381</ele>
<time>2022-05-25T15:34:07Z</time>
</trkpt>
<trkpt lat="48.053539" lon="11.098631">
<ele>559.569</ele>
<time>2022-05-25T15:34:08Z</time>
</trkpt>
<trkpt lat="48.053509" lon="11.09863">
<ele>559.74</ele>
<time>2022-05-25T15:34:09Z</time>
</trkpt>
<trkpt lat="48.053482" lon="11.098645">
<ele>559.885</ele>
<time>2022-05-25T15:34:10Z</time>
</trkpt>
<trkpt lat="48.053455" lon="11.098661">
<ele>560.001</ele>
<time>2022-05-25T15:34:11Z</time>
</trkpt>
<trkpt lat="48.053425" lon="11.098677">
<ele>560.079</ele>
<time>2022-05-25T15:34:12Z</time>
</trkpt>
<trkpt lat="48.053394" lon="11.09869">
<ele>560.128</ele>
<time>2022-05-25T15:34:13Z</time>
</trkpt>
<trkpt lat="48.05336" lon="11.098703">
<ele>560.149</ele>
<time>2022-05-25T15:34:14Z</time>
</trkpt>
<trkpt lat="48.053329" lon="11.09873">
<ele>560.149</ele>
<time>2022-05-25T15:34:15Z</time>
</trkpt>
<trkpt lat="48.053303" lon="11.098755">
<ele>560.149</ele>
<time>2022-05-25T15:34:16Z</time>
</trkpt>
<trkpt lat="48.05328" lon="11.098773">
<ele>560.149</ele>
<time>2022-05-25T15:34:17Z</time>
</trkpt>
<trkpt lat="48.053246" lon="11.098785">
<ele>560.149</ele>
<time>2022-05-25T15:34:18Z</time>
</trkpt>
<trkpt lat="48.053207" lon="11.098804">
<ele>560.149</ele>
<time>2022-05-25T15:34:19Z</time>
</trkpt>
<trkpt lat="48.053169" lon="11.09883">
<ele>560.149</ele>
<time>2022-05-25T15:34:20Z</time>
</trkpt>
<trkpt lat="48.053135" lon="11.098862">
<ele>560.149</ele>
<time>2022-05-25T15:34:21Z</time>
</trkpt>
<trkpt lat="48.053097" lon="11.098899">
<ele>560.149</ele>
<time>2022-05-25T15:34:22Z</time>
</trkpt>
<trkpt lat="48.053055" lon="11.098932">
<ele>559.89</ele>
<time>2022-05-25T15:34:23Z</time>
</trkpt>
<trkpt lat="48.053017" lon="11.09896">
<ele>559.698</ele>
<time>2022-05-25T15:34:24Z</time>
</trkpt>
<trkpt lat="48.052982" lon="11.098995">
<ele>559.559</ele>
<time>2022-05-25T15:34:25Z</time>
</trkpt>
<trkpt lat="48.05294" lon="11.09904">
<ele>559.465</ele>
<time>2022-05-25T15:34:26Z</time>
</trkpt>
<trkpt lat="48.052902" lon="11.099095">
<ele>559.395</ele>
<time>2022-05-25T15:34:27Z</time>
</trkpt>
<trkpt lat="48.052868" lon="11.09915">
<ele>559.346</ele>
<time>2022-05-25T15:34:28Z</time>
</trkpt>
<trkpt lat="48.052837" lon="11.099202">
<ele>559.299</ele>
<time>2022-05-25T15:34:29Z</time>
</trkpt>
<trkpt lat="48.052807" lon="11.099257">
<ele>559.277</ele>
<time>2022-05-25T15:34:30Z</time>
</trkpt>
<trkpt lat="48.052784" lon="11.099316">
<ele>558.943</ele>
<time>2022-05-25T15:34:31Z</time>
</trkpt>
<trkpt lat="48.052773" lon="11.09938">
<ele>558.69</ele>
<time>2022-05-25T15:34:32Z</time>
</trkpt>
<trkpt lat="48.052757" lon="11.099437">
<ele>558.503</ele>
<time>2022-05-25T15:34:33Z</time>
</trkpt>
<trkpt lat="48.052742" lon="11.099477">
<ele>558.399</ele>
<time>2022-05-25T15:34:34Z</time>
</trkpt>
<trkpt lat="48.052715" lon="11.099535">
<ele>558.013</ele>
<time>2022-05-25T15:34:35Z</time>
</trkpt>
<trkpt lat="48.0527" lon="11.099605">
<ele>557.71</ele>
<time>2022-05-25T15:34:36Z</time>
</trkpt>
<trkpt lat="48.0527" lon="11.099662">
<ele>557.489</ele>
<time>2022-05-25T15:34:37Z</time>
</trkpt>
<trkpt lat="48.052681" lon="11.099716">
<ele>557.339</ele>
<time>2022-05-25T15:34:38Z</time>
</trkpt>
<trkpt lat="48.052662" lon="11.09979">
<ele>557.207</ele>
<time>2022-05-25T15:34:39Z</time>
</trkpt>
<trkpt lat="48.052647" lon="11.099848">
<ele>556.89</ele>
<time>2022-05-25T15:34:40Z</time>
</trkpt>
<trkpt lat="48.052635" lon="11.099903">
<ele>556.638</ele>
<time>2022-05-25T15:34:41Z</time>
</trkpt>
<trkpt lat="48.05262" lon="11.099953">
<ele>556.463</ele>
<time>2022-05-25T15:34:42Z</time>
</trkpt>
<trkpt lat="48.052608" lon="11.100009">
<ele>556.289</ele>
<time>2022-05-25T15:34:43Z</time>
</trkpt>
<trkpt lat="48.052597" lon="11.10006">
<ele>556.222</ele>
<time>2022-05-25T15:34:44Z</time>
</trkpt>
<trkpt lat="48.052582" lon="11.100112">
<ele>555.929</ele>
<time>2022-05-25T15:34:45Z</time>
</trkpt>
<trkpt lat="48.052574" lon="11.10014">
<ele>555.719</ele>
<time>2022-05-25T15:34:46Z</time>
</trkpt>
<trkpt lat="48.052551" lon="11.100156">
<ele>555.58</ele>
<time>2022-05-25T15:34:47Z</time>
</trkpt>
<trkpt lat="48.052521" lon="11.100162">
<ele>555.461</ele>
<time>2022-05-25T15:34:48Z</time>
</trkpt>
<trkpt lat="48.052498" lon="11.100162">
<ele>555.348</ele>
<time>2022-05-25T15:34:49Z</time>
</trkpt>
<trkpt lat="48.052467" lon="11.10015">
<ele>555.263</ele>
<time>2022-05-25T15:34:50Z</time>
</trkpt>
<trkpt lat="48.052437" lon="11.100133">
<ele>555.208</ele>
<time>2022-05-25T15:34:51Z</time>
</trkpt>
<trkpt lat="48.052418" lon="11.10011">
<ele>555.179</ele>
<time>2022-05-25T15:34:52Z</time>
</trkpt>
<trkpt lat="48.052391" lon="11.100089">
<ele>555.178</ele>
<time>2022-05-25T15:34:53Z</time>
</trkpt>
<trkpt lat="48.052361" lon="11.100065">
<ele>555.178</ele>
<time>2022-05-25T15:34:54Z</time>
</trkpt>
<trkpt lat="48.052326" lon="11.100035">
<ele>555.179</ele>
<time>2022-05-25T15:34:55Z</time>
</trkpt>
<trkpt lat="48.052299" lon="11.100009">
<ele>555.179</ele>
<time>2022-05-25T15:34:56Z</time>
</trkpt>
<trkpt lat="48.052273" lon="11.09998">
<ele>554.935</ele>
<time>2022-05-25T15:34:57Z</time>
</trkpt>
<trkpt lat="48.052254" lon="11.099952">
<ele>554.769</ele>
<time>2022-05-25T15:34:58Z</time>
</trkpt>
<trkpt lat="48.052227" lon="11.099925">
<ele>554.598</ele>
<time>2022-05-25T15:34:59Z</time>
</trkpt>
<trkpt lat="48.052208" lon="11.099898">
<ele>554.464</ele>
<time>2022-05-25T15:35:00Z</time>
</trkpt>
<trkpt lat="48.052185" lon="11.099875">
<ele>554.367</ele>
<time>2022-05-25T15:35:01Z</time>
</trkpt>
<trkpt lat="48.052158" lon="11.099852">
<ele>554.3</ele>
<time>2022-05-25T15:35:02Z</time>
</trkpt>
<trkpt lat="48.052135" lon="11.099821">
<ele>554.248</ele>
<time>2022-05-25T15:35:03Z</time>
</trkpt>
<trkpt lat="48.052113" lon="11.099792">
<ele>554.22</ele>
<time>2022-05-25T15:35:04Z</time>
</trkpt>
<trkpt lat="48.05209" lon="11.099756">
<ele>554.22</ele>
<time>2022-05-25T15:35:05Z</time>
</trkpt>
<trkpt lat="48.052059" lon="11.099718">
<ele>554.22</ele>
<time>2022-05-25T15:35:06Z</time>
</trkpt>
<trkpt lat="48.052025" lon="11.099685">
<ele>554.22</ele>
<time>2022-05-25T15:35:07Z</time>
</trkpt>
<trkpt lat="48.051983" lon="11.099648">
<ele>554.22</ele>
<time>2022-05-25T15:35:08Z</time>
</trkpt>
<trkpt lat="48.051949" lon="11.099608">
<ele>554.22</ele>
<time>2022-05-25T15:35:09Z</time>
</trkpt>
<trkpt lat="48.05191" lon="11.099569">
<ele>554.22</ele>
<time>2022-05-25T15:35:10Z</time>
</trkpt>
<trkpt lat="48.05188" lon="11.099535">
<ele>554.22</ele>
<time>2022-05-25T15:35:11Z</time>
</trkpt>
<trkpt lat="48.051853" lon="11.099504">
<ele>554.22</ele>
<time>2022-05-25T15:35:12Z</time>
</trkpt>
<trkpt lat="48.051826" lon="11.099471">
<ele>554.22</ele>
<time>2022-05-25T15:35:13Z</time>
</trkpt>
<trkpt lat="48.0518" lon="11.099443">
<ele>554.22</ele>
<time>2022-05-25T15:35:14Z</time>
</trkpt>
<trkpt lat="48.051773" lon="11.099412">
<ele>554.22</ele>
<time>2022-05-25T15:35:15Z</time>
</trkpt>
<trkpt lat="48.05175" lon="11.099379">
<ele>554.22</ele>
<time>2022-05-25T15:35:16Z</time>
</trkpt>
<trkpt lat="48.051727" lon="11.099341">
<ele>554.22</ele>
<time>2022-05-25T15:35:17Z</time>
</trkpt>
<trkpt lat="48.051697" lon="11.099308">
<ele>554.22</ele>
<time>2022-05-25T15:35:18Z</time>
</trkpt>
<trkpt lat="48.05167" lon="11.09927">
<ele>554.22</ele>
<time>2022-05-25T15:35:19Z</time>
</trkpt>
<trkpt lat="48.051628" lon="11.099232">
<ele>554.22</ele>
<time>2022-05-25T15:35:20Z</time>
</trkpt>
<trkpt lat="48.051601" lon="11.099195">
<ele>554.22</ele>
<time>2022-05-25T15:35:21Z</time>
</trkpt>
<trkpt lat="48.051567" lon="11.099156">
<ele>554.22</ele>
<time>2022-05-25T15:35:22Z</time>
</trkpt>
<trkpt lat="48.051533" lon="11.099118">
<ele>554.493</ele>
<time>2022-05-25T15:35:23Z</time>
</trkpt>
<trkpt lat="48.051502" lon="11.099081">
<ele>554.701</ele>
<time>2022-05-25T15:35:24Z</time>
</trkpt>
<trkpt lat="48.051476" lon="11.099051">
<ele>554.847</ele>
<time>2022-05-25T15:35:26Z</time>
</trkpt>
<trkpt lat="48.051395" lon="11.098991">
<ele>555.036</ele>
<time>2022-05-25T15:35:27Z</time>
</trkpt>
<trkpt lat="48.051357" lon="11.098949">
<ele>555.093</ele>
<time>2022-05-25T15:35:28Z</time>
</trkpt>
<trkpt lat="48.051323" lon="11.098909">
<ele>555.396</ele>
<time>2022-05-25T15:35:29Z</time>
</trkpt>
<trkpt lat="48.051289" lon="11.09887">
<ele>555.619</ele>
<time>2022-05-25T15:35:30Z</time>
</trkpt>
<trkpt lat="48.05125" lon="11.098842">
<ele>555.782</ele>
<time>2022-05-25T15:35:31Z</time>
</trkpt>
<trkpt lat="48.051212" lon="11.098813">
<ele>555.915</ele>
<time>2022-05-25T15:35:32Z</time>
</trkpt>
<trkpt lat="48.05117" lon="11.098786">
<ele>555.995</ele>
<time>2022-05-25T15:35:33Z</time>
</trkpt>
<trkpt lat="48.05114" lon="11.098752">
<ele>556.295</ele>
<time>2022-05-25T15:35:34Z</time>
</trkpt>
<trkpt lat="48.051102" lon="11.098712">
<ele>556.529</ele>
<time>2022-05-25T15:35:35Z</time>
</trkpt>
<trkpt lat="48.051064" lon="11.098677">
<ele>556.724</ele>
<time>2022-05-25T15:35:36Z</time>
</trkpt>
<trkpt lat="48.051025" lon="11.098639">
<ele>556.858</ele>
<time>2022-05-25T15:35:37Z</time>
</trkpt>
<trkpt lat="48.050987" lon="11.09861">
<ele>556.939</ele>
<time>2022-05-25T15:35:38Z</time>
</trkpt>
<trkpt lat="48.050953" lon="11.098595">
<ele>557.022</ele>
<time>2022-05-25T15:35:39Z</time>
</trkpt>
<trkpt lat="48.050915" lon="11.098582">
<ele>557.072</ele>
<time>2022-05-25T15:35:40Z</time>
</trkpt>
<trkpt lat="48.050877" lon="11.098566">
<ele>557.096</ele>
<time>2022-05-25T15:35:41Z</time>
</trkpt>
<trkpt lat="48.050838" lon="11.098565">
<ele>557.334</ele>
<time>2022-05-25T15:35:42Z</time>
</trkpt>
<trkpt lat="48.050808" lon="11.098561">
<ele>557.518</ele>
<time>2022-05-25T15:35:43Z</time>
</trkpt>
<trkpt lat="48.050766" lon="11.098547">
<ele>557.664</ele>
<time>2022-05-25T15:35:44Z</time>
</trkpt>
<trkpt lat="48.050732" lon="11.098534">
<ele>557.775</ele>
<time>2022-05-25T15:35:45Z</time>
</trkpt>
<trkpt lat="48.050694" lon="11.098526">
<ele>557.852</ele>
<time>2022-05-25T15:35:46Z</time>
</trkpt>
<trkpt lat="48.050659" lon="11.09851">
<ele>557.906</ele>
<time>2022-05-25T15:35:47Z</time>
</trkpt>
<trkpt lat="48.050625" lon="11.09848">
<ele>557.944</ele>
<time>2022-05-25T15:35:48Z</time>
</trkpt>
<trkpt lat="48.050598" lon="11.098451">
<ele>557.969</ele>
<time>2022-05-25T15:35:49Z</time>
</trkpt>
<trkpt lat="48.05056" lon="11.098428">
<ele>557.969</ele>
<time>2022-05-25T15:35:50Z</time>
</trkpt>
<trkpt lat="48.050526" lon="11.098412">
<ele>557.969</ele>
<time>2022-05-25T15:35:51Z</time>
</trkpt>
<trkpt lat="48.050491" lon="11.098392">
<ele>557.969</ele>
<time>2022-05-25T15:35:52Z</time>
</trkpt>
<trkpt lat="48.050449" lon="11.098378">
<ele>558.234</ele>
<time>2022-05-25T15:35:53Z</time>
</trkpt>
<trkpt lat="48.050407" lon="11.098362">
<ele>558.439</ele>
<time>2022-05-25T15:35:54Z</time>
</trkpt>
<trkpt lat="48.050373" lon="11.09835">
<ele>558.596</ele>
<time>2022-05-25T15:35:55Z</time>
</trkpt>
<trkpt lat="48.050335" lon="11.098333">
<ele>558.706</ele>
<time>2022-05-25T15:35:56Z</time>
</trkpt>
<trkpt lat="48.050293" lon="11.098313">
<ele>558.792</ele>
<time>2022-05-25T15:35:57Z</time>
</trkpt>
<trkpt lat="48.050255" lon="11.098277">
<ele>558.849</ele>
<time>2022-05-25T15:35:58Z</time>
</trkpt>
<trkpt lat="48.050217" lon="11.098244">
<ele>558.902</ele>
<time>2022-05-25T15:35:59Z</time>
</trkpt>
<trkpt lat="48.050182" lon="11.098206">
<ele>559.167</ele>
<time>2022-05-25T15:36:00Z</time>
</trkpt>
<trkpt lat="48.050144" lon="11.098175">
<ele>559.441</ele>
<time>2022-05-25T15:36:01Z</time>
</trkpt>
<trkpt lat="48.050106" lon="11.098155">
<ele>559.608</ele>
<time>2022-05-25T15:36:02Z</time>
</trkpt>
<trkpt lat="48.050072" lon="11.098134">
<ele>559.737</ele>
<time>2022-05-25T15:36:03Z</time>
</trkpt>
<trkpt lat="48.050041" lon="11.098109">
<ele>559.807</ele>
<time>2022-05-25T15:36:04Z</time>
</trkpt>
<trkpt lat="48.050007" lon="11.098085">
<ele>559.856</ele>
<time>2022-05-25T15:36:05Z</time>
</trkpt>
<trkpt lat="48.049976" lon="11.098055">
<ele>559.882</ele>
<time>2022-05-25T15:36:06Z</time>
</trkpt>
<trkpt lat="48.049946" lon="11.098028">
<ele>559.887</ele>
<time>2022-05-25T15:36:07Z</time>
</trkpt>
<trkpt lat="48.049911" lon="11.098001">
<ele>560.075</ele>
<time>2022-05-25T15:36:08Z</time>
</trkpt>
<trkpt lat="48.049877" lon="11.097971">
<ele>560.258</ele>
<time>2022-05-25T15:36:09Z</time>
</trkpt>
<trkpt lat="48.049835" lon="11.097952">
<ele>560.414</ele>
<time>2022-05-25T15:36:10Z</time>
</trkpt>
<trkpt lat="48.049797" lon="11.097929">
<ele>560.54</ele>
<time>2022-05-25T15:36:11Z</time>
</trkpt>
<trkpt lat="48.049759" lon="11.097908">
<ele>560.618</ele>
<time>2022-05-25T15:36:12Z</time>
</trkpt>
<trkpt lat="48.049725" lon="11.097889">
<ele>560.953</ele>
<time>2022-05-25T15:36:13Z</time>
</trkpt>
<trkpt lat="48.04969" lon="11.097872">
<ele>561.212</ele>
<time>2022-05-25T15:36:14Z</time>
</trkpt>
<trkpt lat="48.049644" lon="11.097883">
<ele>561.408</ele>
<time>2022-05-25T15:36:15Z</time>
</trkpt>
<trkpt lat="48.049606" lon="11.097872">
<ele>561.535</ele>
<time>2022-05-25T15:36:16Z</time>
</trkpt>
<trkpt lat="48.049568" lon="11.097857">
<ele>561.885</ele>
<time>2022-05-25T15:36:17Z</time>
</trkpt>
<trkpt lat="48.049526" lon="11.097838">
<ele>562.146</ele>
<time>2022-05-25T15:36:18Z</time>
</trkpt>
<trkpt lat="48.049488" lon="11.097818">
<ele>562.402</ele>
<time>2022-05-25T15:36:19Z</time>
</trkpt>
<trkpt lat="48.049454" lon="11.097798">
<ele>562.568</ele>
<time>2022-05-25T15:36:20Z</time>
</trkpt>
<trkpt lat="48.049419" lon="11.097775">
<ele>562.964</ele>
<time>2022-05-25T15:36:21Z</time>
</trkpt>
<trkpt lat="48.049385" lon="11.097759">
<ele>563.269</ele>
<time>2022-05-25T15:36:22Z</time>
</trkpt>
<trkpt lat="48.049351" lon="11.097749">
<ele>563.506</ele>
<time>2022-05-25T15:36:23Z</time>
</trkpt>
<trkpt lat="48.04932" lon="11.097736">
<ele>563.67</ele>
<time>2022-05-25T15:36:24Z</time>
</trkpt>
<trkpt lat="48.04929" lon="11.097733">
<ele>564.078</ele>
<time>2022-05-25T15:36:25Z</time>
</trkpt>
<trkpt lat="48.049255" lon="11.097734">
<ele>564.346</ele>
<time>2022-05-25T15:36:26Z</time>
</trkpt>
<trkpt lat="48.049225" lon="11.09774">
<ele>564.528</ele>
<time>2022-05-25T15:36:27Z</time>
</trkpt>
<trkpt lat="48.049191" lon="11.097736">
<ele>564.668</ele>
<time>2022-05-25T15:36:28Z</time>
</trkpt>
<trkpt lat="48.049156" lon="11.097738">
<ele>564.781</ele>
<time>2022-05-25T15:36:29Z</time>
</trkpt>
<trkpt lat="48.049114" lon="11.097738">
<ele>564.866</ele>
<time>2022-05-25T15:36:30Z</time>
</trkpt>
<trkpt lat="48.04908" lon="11.09774">
<ele>564.92</ele>
<time>2022-05-25T15:36:31Z</time>
</trkpt>
<trkpt lat="48.049042" lon="11.09774">
<ele>564.947</ele>
<time>2022-05-25T15:36:32Z</time>
</trkpt>
<trkpt lat="48.049004" lon="11.097734">
<ele>564.947</ele>
<time>2022-05-25T15:36:33Z</time>
</trkpt>
<trkpt lat="48.048962" lon="11.097734">
<ele>564.947</ele>
<time>2022-05-25T15:36:34Z</time>
</trkpt>
<trkpt lat="48.048912" lon="11.097732">
<ele>564.947</ele>
<time>2022-05-25T15:36:35Z</time>
</trkpt>
<trkpt lat="48.048866" lon="11.097728">
<ele>564.947</ele>
<time>2022-05-25T15:36:36Z</time>
</trkpt>
<trkpt lat="48.04882" lon="11.097723">
<ele>564.947</ele>
<time>2022-05-25T15:36:37Z</time>
</trkpt>
<trkpt lat="48.048775" lon="11.097702">
<ele>564.947</ele>
<time>2022-05-25T15:36:38Z</time>
</trkpt>
<trkpt lat="48.048729" lon="11.097696">
<ele>564.7</ele>
<time>2022-05-25T15:36:39Z</time>
</trkpt>
<trkpt lat="48.048676" lon="11.097684">
<ele>564.5</ele>
<time>2022-05-25T15:36:40Z</time>
</trkpt>
<trkpt lat="48.048626" lon="11.097677">
<ele>564.345</ele>
<time>2022-05-25T15:36:41Z</time>
</trkpt>
<trkpt lat="48.048573" lon="11.097661">
<ele>564.22</ele>
<time>2022-05-25T15:36:42Z</time>
</trkpt>
<trkpt lat="48.048515" lon="11.097652">
<ele>564.124</ele>
<time>2022-05-25T15:36:43Z</time>
</trkpt>
<trkpt lat="48.048458" lon="11.097656">
<ele>564.064</ele>
<time>2022-05-25T15:36:44Z</time>
</trkpt>
<trkpt lat="48.048401" lon="11.097667">
<ele>563.788</ele>
<time>2022-05-25T15:36:45Z</time>
</trkpt>
<trkpt lat="48.048351" lon="11.097649">
<ele>563.585</ele>
<time>2022-05-25T15:36:46Z</time>
</trkpt>
<trkpt lat="48.048302" lon="11.097638">
<ele>563.441</ele>
<time>2022-05-25T15:36:47Z</time>
</trkpt>
<trkpt lat="48.048248" lon="11.097635">
<ele>563.351</ele>
<time>2022-05-25T15:36:48Z</time>
</trkpt>
<trkpt lat="48.048203" lon="11.097633">
<ele>563.256</ele>
<time>2022-05-25T15:36:49Z</time>
</trkpt>
<trkpt lat="48.048157" lon="11.097627">
<ele>563.185</ele>
<time>2022-05-25T15:36:50Z</time>
</trkpt>
<trkpt lat="48.048115" lon="11.097623">
<ele>563.138</ele>
<time>2022-05-25T15:36:51Z</time>
</trkpt>
<trkpt lat="48.048069" lon="11.09762">
<ele>563.115</ele>
<time>2022-05-25T15:36:52Z</time>
</trkpt>
<trkpt lat="48.048023" lon="11.097618">
<ele>563.115</ele>
<time>2022-05-25T15:36:53Z</time>
</trkpt>
<trkpt lat="48.047993" lon="11.097605">
<ele>563.115</ele>
<time>2022-05-25T15:36:54Z</time>
</trkpt>
<trkpt lat="48.047962" lon="11.097598">
<ele>563.115</ele>
<time>2022-05-25T15:36:55Z</time>
</trkpt>
<trkpt lat="48.04792" lon="11.097598">
<ele>563.115</ele>
<time>2022-05-25T15:36:56Z</time>
</trkpt>
<trkpt lat="48.047878" lon="11.097605">
<ele>563.115</ele>
<time>2022-05-25T15:36:57Z</time>
</trkpt>
<trkpt lat="48.04784" lon="11.097609">
<ele>563.115</ele>
<time>2022-05-25T15:36:58Z</time>
</trkpt>
<trkpt lat="48.047798" lon="11.097607">
<ele>563.115</ele>
<time>2022-05-25T15:36:59Z</time>
</trkpt>
<trkpt lat="48.04776" lon="11.097609">
<ele>563.115</ele>
<time>2022-05-25T15:37:00Z</time>
</trkpt>
<trkpt lat="48.047722" lon="11.097625">
<ele>563.115</ele>
<time>2022-05-25T15:37:01Z</time>
</trkpt>
<trkpt lat="48.047691" lon="11.097649">
<ele>563.115</ele>
<time>2022-05-25T15:37:02Z</time>
</trkpt>
<trkpt lat="48.047661" lon="11.097678">
<ele>563.115</ele>
<time>2022-05-25T15:37:03Z</time>
</trkpt>
<trkpt lat="48.047626" lon="11.097717">
<ele>563.115</ele>
<time>2022-05-25T15:37:04Z</time>
</trkpt>
<trkpt lat="48.047592" lon="11.097761">
<ele>562.844</ele>
<time>2022-05-25T15:37:05Z</time>
</trkpt>
<trkpt lat="48.047554" lon="11.097816">
<ele>562.663</ele>
<time>2022-05-25T15:37:06Z</time>
</trkpt>
<trkpt lat="48.047512" lon="11.097854">
<ele>562.277</ele>
<time>2022-05-25T15:37:07Z</time>
</trkpt>
<trkpt lat="48.047455" lon="11.097865">
<ele>561.663</ele>
<time>2022-05-25T15:37:08Z</time>
</trkpt>
<trkpt lat="48.047394" lon="11.097868">
<ele>561.091</ele>
<time>2022-05-25T15:37:09Z</time>
</trkpt>
<trkpt lat="48.047333" lon="11.097868">
<ele>560.659</ele>
<time>2022-05-25T15:37:10Z</time>
</trkpt>
<trkpt lat="48.047279" lon="11.097863">
<ele>560.413</ele>
<time>2022-05-25T15:37:11Z</time>
</trkpt>
<trkpt lat="48.047211" lon="11.097872">
<ele>559.843</ele>
<time>2022-05-25T15:37:12Z</time>
</trkpt>
<trkpt lat="48.047142" lon="11.09788">
<ele>559.421</ele>
<time>2022-05-25T15:37:13Z</time>
</trkpt>
<trkpt lat="48.047073" lon="11.097889">
<ele>559.179</ele>
<time>2022-05-25T15:37:14Z</time>
</trkpt>
<trkpt lat="48.047009" lon="11.097892">
<ele>559.02</ele>
<time>2022-05-25T15:37:15Z</time>
</trkpt>
<trkpt lat="48.046944" lon="11.097898">
<ele>558.907</ele>
<time>2022-05-25T15:37:16Z</time>
</trkpt>
<trkpt lat="48.046879" lon="11.097906">
<ele>558.863</ele>
<time>2022-05-25T15:37:17Z</time>
</trkpt>
<trkpt lat="48.046814" lon="11.097919">
<ele>558.823</ele>
<time>2022-05-25T15:37:18Z</time>
</trkpt>
<trkpt lat="48.046757" lon="11.097929">
<ele>558.812</ele>
<time>2022-05-25T15:37:19Z</time>
</trkpt>
<trkpt lat="48.046707" lon="11.097927">
<ele>558.819</ele>
<time>2022-05-25T15:37:20Z</time>
</trkpt>
<trkpt lat="48.046654" lon="11.097925">
<ele>559.035</ele>
<time>2022-05-25T15:37:21Z</time>
</trkpt>
<trkpt lat="48.0466" lon="11.097925">
<ele>559.212</ele>
<time>2022-05-25T15:37:22Z</time>
</trkpt>
<trkpt lat="48.046555" lon="11.097929">
<ele>559.42</ele>
<time>2022-05-25T15:37:23Z</time>
</trkpt>
<trkpt lat="48.046516" lon="11.09793">
<ele>559.531</ele>
<time>2022-05-25T15:37:24Z</time>
</trkpt>
<trkpt lat="48.046471" lon="11.097933">
<ele>559.609</ele>
<time>2022-05-25T15:37:26Z</time>
</trkpt>
<trkpt lat="48.046383" lon="11.097933">
<ele>559.69</ele>
<time>2022-05-25T15:37:27Z</time>
</trkpt>
<trkpt lat="48.046333" lon="11.097925">
<ele>559.713</ele>
<time>2022-05-25T15:37:28Z</time>
</trkpt>
<trkpt lat="48.046288" lon="11.097915">
<ele>559.713</ele>
<time>2022-05-25T15:37:29Z</time>
</trkpt>
<trkpt lat="48.046234" lon="11.097914">
<ele>559.713</ele>
<time>2022-05-25T15:37:30Z</time>
</trkpt>
<trkpt lat="48.046181" lon="11.097906">
<ele>560.003</ele>
<time>2022-05-25T15:37:31Z</time>
</trkpt>
<trkpt lat="48.046131" lon="11.097897">
<ele>560.226</ele>
<time>2022-05-25T15:37:32Z</time>
</trkpt>
<trkpt lat="48.046085" lon="11.097889">
<ele>560.382</ele>
<time>2022-05-25T15:37:33Z</time>
</trkpt>
<trkpt lat="48.046036" lon="11.097874">
<ele>560.499</ele>
<time>2022-05-25T15:37:34Z</time>
</trkpt>
<trkpt lat="48.04599" lon="11.097858">
<ele>560.577</ele>
<time>2022-05-25T15:37:36Z</time>
</trkpt>
<trkpt lat="48.045887" lon="11.097833">
<ele>560.65</ele>
<time>2022-05-25T15:37:37Z</time>
</trkpt>
<trkpt lat="48.045845" lon="11.097816">
<ele>560.672</ele>
<time>2022-05-25T15:37:38Z</time>
</trkpt>
<trkpt lat="48.045803" lon="11.097798">
<ele>560.672</ele>
<time>2022-05-25T15:37:39Z</time>
</trkpt>
<trkpt lat="48.045761" lon="11.09778">
<ele>560.672</ele>
<time>2022-05-25T15:37:40Z</time>
</trkpt>
<trkpt lat="48.045715" lon="11.097759">
<ele>560.672</ele>
<time>2022-05-25T15:37:41Z</time>
</trkpt>
<trkpt lat="48.045673" lon="11.09774">
<ele>560.672</ele>
<time>2022-05-25T15:37:42Z</time>
</trkpt>
<trkpt lat="48.045631" lon="11.097723">
<ele>560.672</ele>
<time>2022-05-25T15:37:43Z</time>
</trkpt>
<trkpt lat="48.045586" lon="11.097712">
<ele>560.672</ele>
<time>2022-05-25T15:37:44Z</time>
</trkpt>
<trkpt lat="48.045536" lon="11.097698">
<ele>560.672</ele>
<time>2022-05-25T15:37:45Z</time>
</trkpt>
<trkpt lat="48.045486" lon="11.097693">
<ele>560.672</ele>
<time>2022-05-25T15:37:46Z</time>
</trkpt>
<trkpt lat="48.045444" lon="11.097696">
<ele>560.672</ele>
<time>2022-05-25T15:37:47Z</time>
</trkpt>
<trkpt lat="48.045406" lon="11.097703">
<ele>560.672</ele>
<time>2022-05-25T15:37:48Z</time>
</trkpt>
<trkpt lat="48.045372" lon="11.097713">
<ele>560.672</ele>
<time>2022-05-25T15:37:49Z</time>
</trkpt>
<trkpt lat="48.045334" lon="11.097727">
<ele>560.672</ele>
<time>2022-05-25T15:37:50Z</time>
</trkpt>
<trkpt lat="48.045292" lon="11.097747">
<ele>560.672</ele>
<time>2022-05-25T15:37:51Z</time>
</trkpt>
<trkpt lat="48.045254" lon="11.097761">
<ele>560.44</ele>
<time>2022-05-25T15:37:52Z</time>
</trkpt>
<trkpt lat="48.045216" lon="11.097775">
<ele>560.253</ele>
<time>2022-05-25T15:37:53Z</time>
</trkpt>
<trkpt lat="48.045174" lon="11.097787">
<ele>560.1</ele>
<time>2022-05-25T15:37:54Z</time>
</trkpt>
<trkpt lat="48.045128" lon="11.097795">
<ele>559.985</ele>
<time>2022-05-25T15:37:56Z</time>
</trkpt>
<trkpt lat="48.045044" lon="11.09784">
<ele>559.622</ele>
<time>2022-05-25T15:37:57Z</time>
</trkpt>
<trkpt lat="48.045002" lon="11.097849">
<ele>559.415</ele>
<time>2022-05-25T15:37:58Z</time>
</trkpt>
<trkpt lat="48.04496" lon="11.097856">
<ele>559.222</ele>
<time>2022-05-25T15:37:59Z</time>
</trkpt>
<trkpt lat="48.044914" lon="11.097874">
<ele>559.086</ele>
<time>2022-05-25T15:38:00Z</time>
</trkpt>
<trkpt lat="48.044861" lon="11.097896">
<ele>558.984</ele>
<time>2022-05-25T15:38:01Z</time>
</trkpt>
<trkpt lat="48.044807" lon="11.097908">
<ele>558.91</ele>
<time>2022-05-25T15:38:02Z</time>
</trkpt>
<trkpt lat="48.04475" lon="11.097906">
<ele>558.866</ele>
<time>2022-05-25T15:38:03Z</time>
</trkpt>
<trkpt lat="48.044693" lon="11.097901">
<ele>558.546</ele>
<time>2022-05-25T15:38:04Z</time>
</trkpt>
<trkpt lat="48.044636" lon="11.097894">
<ele>558.279</ele>
<time>2022-05-25T15:38:05Z</time>
</trkpt>
<trkpt lat="48.044579" lon="11.097883">
<ele>558.098</ele>
<time>2022-05-25T15:38:06Z</time>
</trkpt>
<trkpt lat="48.044521" lon="11.097877">
<ele>557.969</ele>
<time>2022-05-25T15:38:07Z</time>
</trkpt>
<trkpt lat="48.04446" lon="11.097877">
<ele>557.886</ele>
<time>2022-05-25T15:38:08Z</time>
</trkpt>
<trkpt lat="48.044395" lon="11.097868">
<ele>557.798</ele>
<time>2022-05-25T15:38:09Z</time>
</trkpt>
<trkpt lat="48.044334" lon="11.097866">
<ele>557.496</ele>
<time>2022-05-25T15:38:10Z</time>
</trkpt>
<trkpt lat="48.04427" lon="11.097861">
<ele>557.268</ele>
<time>2022-05-25T15:38:11Z</time>
</trkpt>
<trkpt lat="48.044205" lon="11.097856">
<ele>557.02</ele>
<time>2022-05-25T15:38:12Z</time>
</trkpt>
<trkpt lat="48.04414" lon="11.097847">
<ele>556.9</ele>
<time>2022-05-25T15:38:13Z</time>
</trkpt>
<trkpt lat="48.044086" lon="11.097836">
<ele>556.818</ele>
<time>2022-05-25T15:38:14Z</time>
</trkpt>
<trkpt lat="48.044033" lon="11.097824">
<ele>556.774</ele>
<time>2022-05-25T15:38:16Z</time>
</trkpt>
<trkpt lat="48.043911" lon="11.097808">
<ele>556.326</ele>
<time>2022-05-25T15:38:17Z</time>
</trkpt>
<trkpt lat="48.043854" lon="11.097808">
<ele>556.195</ele>
<time>2022-05-25T15:38:18Z</time>
</trkpt>
<trkpt lat="48.0438" lon="11.097814">
<ele>556.055</ele>
<time>2022-05-25T15:38:19Z</time>
</trkpt>
<trkpt lat="48.043755" lon="11.097816">
<ele>555.946</ele>
<time>2022-05-25T15:38:20Z</time>
</trkpt>
<trkpt lat="48.043705" lon="11.097816">
<ele>555.867</ele>
<time>2022-05-25T15:38:21Z</time>
</trkpt>
<trkpt lat="48.043655" lon="11.097808">
<ele>555.812</ele>
<time>2022-05-25T15:38:22Z</time>
</trkpt>
<trkpt lat="48.04361" lon="11.097807">
<ele>555.789</ele>
<time>2022-05-25T15:38:23Z</time>
</trkpt>
<trkpt lat="48.04356" lon="11.097803">
<ele>555.789</ele>
<time>2022-05-25T15:38:24Z</time>
</trkpt>
<trkpt lat="48.043522" lon="11.097793">
<ele>555.789</ele>
<time>2022-05-25T15:38:25Z</time>
</trkpt>
<trkpt lat="48.043488" lon="11.09778">
<ele>555.789</ele>
<time>2022-05-25T15:38:26Z</time>
</trkpt>
<trkpt lat="48.043442" lon="11.097772">
<ele>555.789</ele>
<time>2022-05-25T15:38:27Z</time>
</trkpt>
<trkpt lat="48.043396" lon="11.097759">
<ele>555.789</ele>
<time>2022-05-25T15:38:28Z</time>
</trkpt>
<trkpt lat="48.04335" lon="11.097734">
<ele>555.789</ele>
<time>2022-05-25T15:38:29Z</time>
</trkpt>
<trkpt lat="48.043297" lon="11.097713">
<ele>555.789</ele>
<time>2022-05-25T15:38:30Z</time>
</trkpt>
<trkpt lat="48.043251" lon="11.097696">
<ele>556.073</ele>
<time>2022-05-25T15:38:31Z</time>
</trkpt>
<trkpt lat="48.043209" lon="11.097684">
<ele>556.295</ele>
<time>2022-05-25T15:38:32Z</time>
</trkpt>
<trkpt lat="48.043167" lon="11.097677">
<ele>556.467</ele>
<time>2022-05-25T15:38:33Z</time>
</trkpt>
<trkpt lat="48.043125" lon="11.097682">
<ele>556.577</ele>
<time>2022-05-25T15:38:34Z</time>
</trkpt>
<trkpt lat="48.043079" lon="11.09769">
<ele>556.635</ele>
<time>2022-05-25T15:38:35Z</time>
</trkpt>
<trkpt lat="48.043037" lon="11.0977">
<ele>556.926</ele>
<time>2022-05-25T15:38:36Z</time>
</trkpt>
<trkpt lat="48.043011" lon="11.097707">
<ele>557.132</ele>
<time>2022-05-25T15:38:37Z</time>
</trkpt>
<trkpt lat="48.042965" lon="11.097707">
<ele>557.29</ele>
<time>2022-05-25T15:38:38Z</time>
</trkpt>
<trkpt lat="48.042931" lon="11.097696">
<ele>557.638</ele>
<time>2022-05-25T15:38:39Z</time>
</trkpt>
<trkpt lat="48.0429" lon="11.097693">
<ele>557.925</ele>
<time>2022-05-25T15:38:40Z</time>
</trkpt>
<trkpt lat="48.042866" lon="11.097696">
<ele>558.147</ele>
<time>2022-05-25T15:38:41Z</time>
</trkpt>
<trkpt lat="48.042835" lon="11.097692">
<ele>558.319</ele>
<time>2022-05-25T15:38:42Z</time>
</trkpt>
<trkpt lat="48.042801" lon="11.097686">
<ele>558.441</ele>
<time>2022-05-25T15:38:43Z</time>
</trkpt>
<trkpt lat="48.042763" lon="11.097686">
<ele>558.515</ele>
<time>2022-05-25T15:38:44Z</time>
</trkpt>
<trkpt lat="48.042706" lon="11.09767">
<ele>558.562</ele>
<time>2022-05-25T15:38:45Z</time>
</trkpt>
<trkpt lat="48.042675" lon="11.097656">
<ele>558.579</ele>
<time>2022-05-25T15:38:46Z</time>
</trkpt>
<trkpt lat="48.042637" lon="11.097652">
<ele>558.579</ele>
<time>2022-05-25T15:38:47Z</time>
</trkpt>
<trkpt lat="48.042606" lon="11.097642">
<ele>558.579</ele>
<time>2022-05-25T15:38:48Z</time>
</trkpt>
<trkpt lat="48.042572" lon="11.097631">
<ele>558.579</ele>
<time>2022-05-25T15:38:49Z</time>
</trkpt>
<trkpt lat="48.042534" lon="11.097618">
<ele>558.579</ele>
<time>2022-05-25T15:38:50Z</time>
</trkpt>
<trkpt lat="48.0425" lon="11.097596">
<ele>558.579</ele>
<time>2022-05-25T15:38:51Z</time>
</trkpt>
<trkpt lat="48.042473" lon="11.097565">
<ele>558.579</ele>
<time>2022-05-25T15:38:52Z</time>
</trkpt>
<trkpt lat="48.04245" lon="11.097535">
<ele>558.579</ele>
<time>2022-05-25T15:38:53Z</time>
</trkpt>
<trkpt lat="48.042419" lon="11.097507">
<ele>558.579</ele>
<time>2022-05-25T15:38:54Z</time>
</trkpt>
<trkpt lat="48.042377" lon="11.097486">
<ele>558.579</ele>
<time>2022-05-25T15:38:55Z</time>
</trkpt>
<trkpt lat="48.042339" lon="11.097466">
<ele>558.579</ele>
<time>2022-05-25T15:38:56Z</time>
</trkpt>
<trkpt lat="48.042305" lon="11.097439">
<ele>558.579</ele>
<time>2022-05-25T15:38:57Z</time>
</trkpt>
<trkpt lat="48.042274" lon="11.097417">
<ele>558.579</ele>
<time>2022-05-25T15:38:58Z</time>
</trkpt>
<trkpt lat="48.042252" lon="11.097395">
<ele>558.579</ele>
<time>2022-05-25T15:38:59Z</time>
</trkpt>
<trkpt lat="48.042221" lon="11.097383">
<ele>558.579</ele>
<time>2022-05-25T15:39:00Z</time>
</trkpt>
<trkpt lat="48.042198" lon="11.097367">
<ele>558.579</ele>
<time>2022-05-25T15:39:01Z</time>
</trkpt>
<trkpt lat="48.042164" lon="11.097362">
<ele>558.579</ele>
<time>2022-05-25T15:39:02Z</time>
</trkpt>
<trkpt lat="48.042133" lon="11.097353">
<ele>558.579</ele>
<time>2022-05-25T15:39:03Z</time>
</trkpt>
<trkpt lat="48.042103" lon="11.097346">
<ele>558.579</ele>
<time>2022-05-25T15:39:04Z</time>
</trkpt>
<trkpt lat="48.04208" lon="11.097343">
<ele>558.341</ele>
<time>2022-05-25T15:39:05Z</time>
</trkpt>
<trkpt lat="48.042049" lon="11.097344">
<ele>558.143</ele>
<time>2022-05-25T15:39:06Z</time>
</trkpt>
<trkpt lat="48.042015" lon="11.09734">
<ele>557.986</ele>
<time>2022-05-25T15:39:07Z</time>
</trkpt>
<trkpt lat="48.041992" lon="11.09734">
<ele>557.887</ele>
<time>2022-05-25T15:39:08Z</time>
</trkpt>
<trkpt lat="48.041973" lon="11.097336">
<ele>557.777</ele>
<time>2022-05-25T15:39:09Z</time>
</trkpt>
<trkpt lat="48.041946" lon="11.09734">
<ele>557.702</ele>
<time>2022-05-25T15:39:10Z</time>
</trkpt>
<trkpt lat="48.041924" lon="11.097339">
<ele>557.648</ele>
<time>2022-05-25T15:39:11Z</time>
</trkpt>
<trkpt lat="48.041912" lon="11.097344">
<ele>557.62</ele>
<time>2022-05-25T15:39:12Z</time>
</trkpt>
<trkpt lat="48.041893" lon="11.097363">
<ele>557.378</ele>
<time>2022-05-25T15:39:13Z</time>
</trkpt>
<trkpt lat="48.041889" lon="11.097382">
<ele>557.191</ele>
<time>2022-05-25T15:39:14Z</time>
</trkpt>
<trkpt lat="48.041889" lon="11.097397">
<ele>557.035</ele>
<time>2022-05-25T15:39:15Z</time>
</trkpt>
<trkpt lat="48.041893" lon="11.097397">
<ele>556.917</ele>
<time>2022-05-25T15:39:16Z</time>
</trkpt>
<trkpt lat="48.041904" lon="11.09739">
<ele>556.829</ele>
<time>2022-05-25T15:39:17Z</time>
</trkpt>
<trkpt lat="48.041912" lon="11.097388">
<ele>556.695</ele>
<time>2022-05-25T15:39:19Z</time>
</trkpt>
<trkpt lat="48.041912" lon="11.097386">
<ele>556.661</ele>
<time>2022-05-25T15:39:20Z</time>
</trkpt>
<trkpt lat="48.041866" lon="11.097292">
<ele>556.661</ele>
<time>2022-05-25T15:46:58Z</time>
</trkpt>
<trkpt lat="48.04187" lon="11.097286">
<ele>556.66</ele>
<time>2022-05-25T15:46:59Z</time>
</trkpt>
<trkpt lat="48.041874" lon="11.09728">
<ele>556.661</ele>
<time>2022-05-25T15:47:00Z</time>
</trkpt>
<trkpt lat="48.041874" lon="11.097279">
<ele>556.661</ele>
<time>2022-05-25T15:47:02Z</time>
</trkpt>
<trkpt lat="48.041855" lon="11.097303">
<ele>556.661</ele>
<time>2022-05-25T15:47:22Z</time>
</trkpt>
<trkpt lat="48.041855" lon="11.09731">
<ele>556.661</ele>
<time>2022-05-25T15:47:23Z</time>
</trkpt>
<trkpt lat="48.041851" lon="11.097317">
<ele>556.661</ele>
<time>2022-05-25T15:47:24Z</time>
</trkpt>
<trkpt lat="48.041851" lon="11.097315">
<ele>556.66</ele>
<time>2022-05-25T15:47:25Z</time>
</trkpt>
<trkpt lat="48.041851" lon="11.09731">
<ele>556.661</ele>
<time>2022-05-25T15:47:26Z</time>
</trkpt>
<trkpt lat="48.041855" lon="11.097355">
<ele>556.661</ele>
<time>2022-05-25T15:48:08Z</time>
</trkpt>
<trkpt lat="48.041855" lon="11.09736">
<ele>556.661</ele>
<time>2022-05-25T15:48:11Z</time>
</trkpt>
<trkpt lat="48.041882" lon="11.097339">
<ele>556.661</ele>
<time>2022-05-25T15:50:34Z</time>
</trkpt>
<trkpt lat="48.041882" lon="11.097334">
<ele>556.661</ele>
<time>2022-05-25T15:50:35Z</time>
</trkpt>
<trkpt lat="48.041878" lon="11.097332">
<ele>556.66</ele>
<time>2022-05-25T15:50:36Z</time>
</trkpt>
<trkpt lat="48.041878" lon="11.097327">
<ele>556.661</ele>
<time>2022-05-25T15:50:37Z</time>
</trkpt>
<trkpt lat="48.041878" lon="11.097325">
<ele>556.661</ele>
<time>2022-05-25T15:50:38Z</time>
</trkpt>
<trkpt lat="48.041882" lon="11.09732">
<ele>556.661</ele>
<time>2022-05-25T15:50:39Z</time>
</trkpt>
<trkpt lat="48.041866" lon="11.097308">
<ele>556.661</ele>
<time>2022-05-25T15:50:41Z</time>
</trkpt>
<trkpt lat="48.041855" lon="11.097302">
<ele>556.661</ele>
<time>2022-05-25T15:50:42Z</time>
</trkpt>
<trkpt lat="48.041851" lon="11.097295">
<ele>556.66</ele>
<time>2022-05-25T15:50:43Z</time>
</trkpt>
<trkpt lat="48.041828" lon="11.097295">
<ele>556.661</ele>
<time>2022-05-25T15:50:44Z</time>
</trkpt>
<trkpt lat="48.041801" lon="11.097299">
<ele>556.661</ele>
<time>2022-05-25T15:50:45Z</time>
</trkpt>
<trkpt lat="48.041779" lon="11.097303">
<ele>556.661</ele>
<time>2022-05-25T15:50:46Z</time>
</trkpt>
<trkpt lat="48.041752" lon="11.097304">
<ele>556.661</ele>
<time>2022-05-25T15:50:47Z</time>
</trkpt>
<trkpt lat="48.041721" lon="11.097301">
<ele>556.66</ele>
<time>2022-05-25T15:50:48Z</time>
</trkpt>
<trkpt lat="48.041691" lon="11.09729">
<ele>556.661</ele>
<time>2022-05-25T15:50:49Z</time>
</trkpt>
<trkpt lat="48.041653" lon="11.097285">
<ele>556.661</ele>
<time>2022-05-25T15:50:50Z</time>
</trkpt>
<trkpt lat="48.041607" lon="11.097275">
<ele>556.661</ele>
<time>2022-05-25T15:50:51Z</time>
</trkpt>
<trkpt lat="48.041565" lon="11.097275">
<ele>556.66</ele>
<time>2022-05-25T15:50:52Z</time>
</trkpt>
<trkpt lat="48.041515" lon="11.097269">
<ele>556.661</ele>
<time>2022-05-25T15:50:53Z</time>
</trkpt>
<trkpt lat="48.041466" lon="11.097252">
<ele>556.66</ele>
<time>2022-05-25T15:50:54Z</time>
</trkpt>
<trkpt lat="48.041401" lon="11.097234">
<ele>556.661</ele>
<time>2022-05-25T15:50:55Z</time>
</trkpt>
<trkpt lat="48.041332" lon="11.097212">
<ele>556.661</ele>
<time>2022-05-25T15:50:56Z</time>
</trkpt>
<trkpt lat="48.041271" lon="11.097185">
<ele>556.661</ele>
<time>2022-05-25T15:50:57Z</time>
</trkpt>
<trkpt lat="48.04121" lon="11.097164">
<ele>556.661</ele>
<time>2022-05-25T15:50:58Z</time>
</trkpt>
<trkpt lat="48.041153" lon="11.097145">
<ele>556.66</ele>
<time>2022-05-25T15:50:59Z</time>
</trkpt>
<trkpt lat="48.041103" lon="11.097129">
<ele>556.66</ele>
<time>2022-05-25T15:51:00Z</time>
</trkpt>
<trkpt lat="48.041046" lon="11.09712">
<ele>556.661</ele>
<time>2022-05-25T15:51:01Z</time>
</trkpt>
<trkpt lat="48.040997" lon="11.097108">
<ele>556.66</ele>
<time>2022-05-25T15:51:02Z</time>
</trkpt>
<trkpt lat="48.040943" lon="11.097092">
<ele>556.661</ele>
<time>2022-05-25T15:51:03Z</time>
</trkpt>
<trkpt lat="48.040894" lon="11.097074">
<ele>556.66</ele>
<time>2022-05-25T15:51:04Z</time>
</trkpt>
<trkpt lat="48.040844" lon="11.09706">
<ele>556.661</ele>
<time>2022-05-25T15:51:05Z</time>
</trkpt>
<trkpt lat="48.040787" lon="11.097049">
<ele>556.661</ele>
<time>2022-05-25T15:51:06Z</time>
</trkpt>
<trkpt lat="48.040733" lon="11.097034">
<ele>556.661</ele>
<time>2022-05-25T15:51:07Z</time>
</trkpt>
<trkpt lat="48.040672" lon="11.097026">
<ele>556.661</ele>
<time>2022-05-25T15:51:08Z</time>
</trkpt>
<trkpt lat="48.040619" lon="11.097017">
<ele>556.661</ele>
<time>2022-05-25T15:51:09Z</time>
</trkpt>
<trkpt lat="48.040565" lon="11.097007">
<ele>556.661</ele>
<time>2022-05-25T15:51:10Z</time>
</trkpt>
<trkpt lat="48.040512" lon="11.096994">
<ele>556.66</ele>
<time>2022-05-25T15:51:11Z</time>
</trkpt>
<trkpt lat="48.040455" lon="11.096989">
<ele>556.661</ele>
<time>2022-05-25T15:51:12Z</time>
</trkpt>
<trkpt lat="48.040398" lon="11.096982">
<ele>556.661</ele>
<time>2022-05-25T15:51:13Z</time>
</trkpt>
<trkpt lat="48.040344" lon="11.096976">
<ele>556.66</ele>
<time>2022-05-25T15:51:14Z</time>
</trkpt>
<trkpt lat="48.040279" lon="11.096972">
<ele>556.661</ele>
<time>2022-05-25T15:51:15Z</time>
</trkpt>
<trkpt lat="48.040222" lon="11.096961">
<ele>556.661</ele>
<time>2022-05-25T15:51:16Z</time>
</trkpt>
<trkpt lat="48.040169" lon="11.096951">
<ele>556.661</ele>
<time>2022-05-25T15:51:17Z</time>
</trkpt>
<trkpt lat="48.040115" lon="11.096942">
<ele>556.661</ele>
<time>2022-05-25T15:51:18Z</time>
</trkpt>
<trkpt lat="48.040062" lon="11.096933">
<ele>556.661</ele>
<time>2022-05-25T15:51:19Z</time>
</trkpt>
<trkpt lat="48.040012" lon="11.096923">
<ele>556.66</ele>
<time>2022-05-25T15:51:20Z</time>
</trkpt>
<trkpt lat="48.039967" lon="11.096915">
<ele>556.66</ele>
<time>2022-05-25T15:51:21Z</time>
</trkpt>
<trkpt lat="48.039917" lon="11.096911">
<ele>556.66</ele>
<time>2022-05-25T15:51:22Z</time>
</trkpt>
<trkpt lat="48.039867" lon="11.096911">
<ele>556.661</ele>
<time>2022-05-25T15:51:23Z</time>
</trkpt>
<trkpt lat="48.039822" lon="11.096909">
<ele>556.661</ele>
<time>2022-05-25T15:51:24Z</time>
</trkpt>
<trkpt lat="48.039768" lon="11.09691">
<ele>556.661</ele>
<time>2022-05-25T15:51:25Z</time>
</trkpt>
<trkpt lat="48.039719" lon="11.096911">
<ele>556.661</ele>
<time>2022-05-25T15:51:26Z</time>
</trkpt>
<trkpt lat="48.039673" lon="11.096905">
<ele>556.66</ele>
<time>2022-05-25T15:51:27Z</time>
</trkpt>
<trkpt lat="48.039623" lon="11.096902">
<ele>556.661</ele>
<time>2022-05-25T15:51:28Z</time>
</trkpt>
<trkpt lat="48.039574" lon="11.096905">
<ele>556.66</ele>
<time>2022-05-25T15:51:29Z</time>
</trkpt>
<trkpt lat="48.039528" lon="11.096909">
<ele>556.66</ele>
<time>2022-05-25T15:51:30Z</time>
</trkpt>
<trkpt lat="48.039478" lon="11.096911">
<ele>556.661</ele>
<time>2022-05-25T15:51:31Z</time>
</trkpt>
<trkpt lat="48.039425" lon="11.096911">
<ele>556.66</ele>
<time>2022-05-25T15:51:32Z</time>
</trkpt>
<trkpt lat="48.039379" lon="11.096911">
<ele>556.661</ele>
<time>2022-05-25T15:51:33Z</time>
</trkpt>
<trkpt lat="48.039333" lon="11.096919">
<ele>556.661</ele>
<time>2022-05-25T15:51:34Z</time>
</trkpt>
<trkpt lat="48.039291" lon="11.096928">
<ele>556.661</ele>
<time>2022-05-25T15:51:35Z</time>
</trkpt>
<trkpt lat="48.039249" lon="11.096936">
<ele>556.661</ele>
<time>2022-05-25T15:51:36Z</time>
</trkpt>
<trkpt lat="48.039223" lon="11.096942">
<ele>556.429</ele>
<time>2022-05-25T15:51:37Z</time>
</trkpt>
<trkpt lat="48.039188" lon="11.096949">
<ele>556.247</ele>
<time>2022-05-25T15:51:38Z</time>
</trkpt>
<trkpt lat="48.039162" lon="11.096951">
<ele>556.105</ele>
<time>2022-05-25T15:51:39Z</time>
</trkpt>
<trkpt lat="48.039139" lon="11.096953">
<ele>555.997</ele>
<time>2022-05-25T15:51:40Z</time>
</trkpt>
<trkpt lat="48.039101" lon="11.096963">
<ele>555.881</ele>
<time>2022-05-25T15:51:41Z</time>
</trkpt>
<trkpt lat="48.039066" lon="11.096973">
<ele>555.79</ele>
<time>2022-05-25T15:51:42Z</time>
</trkpt>
<trkpt lat="48.039024" lon="11.096984">
<ele>555.729</ele>
<time>2022-05-25T15:51:43Z</time>
</trkpt>
<trkpt lat="48.038986" lon="11.096991">
<ele>555.702</ele>
<time>2022-05-25T15:51:44Z</time>
</trkpt>
<trkpt lat="48.038937" lon="11.096994">
<ele>555.701</ele>
<time>2022-05-25T15:51:45Z</time>
</trkpt>
<trkpt lat="48.038891" lon="11.096989">
<ele>555.702</ele>
<time>2022-05-25T15:51:46Z</time>
</trkpt>
<trkpt lat="48.038853" lon="11.09698">
<ele>555.702</ele>
<time>2022-05-25T15:51:47Z</time>
</trkpt>
<trkpt lat="48.038815" lon="11.096975">
<ele>555.702</ele>
<time>2022-05-25T15:51:48Z</time>
</trkpt>
<trkpt lat="48.03878" lon="11.096961">
<ele>555.702</ele>
<time>2022-05-25T15:51:49Z</time>
</trkpt>
<trkpt lat="48.038738" lon="11.096951">
<ele>555.702</ele>
<time>2022-05-25T15:51:50Z</time>
</trkpt>
<trkpt lat="48.038692" lon="11.096944">
<ele>555.701</ele>
<time>2022-05-25T15:51:51Z</time>
</trkpt>
<trkpt lat="48.038631" lon="11.096944">
<ele>555.701</ele>
<time>2022-05-25T15:51:52Z</time>
</trkpt>
<trkpt lat="48.038582" lon="11.096942">
<ele>555.702</ele>
<time>2022-05-25T15:51:53Z</time>
</trkpt>
<trkpt lat="48.038521" lon="11.096942">
<ele>555.701</ele>
<time>2022-05-25T15:51:54Z</time>
</trkpt>
<trkpt lat="48.038464" lon="11.09694">
<ele>555.702</ele>
<time>2022-05-25T15:51:55Z</time>
</trkpt>
<trkpt lat="48.038406" lon="11.096933">
<ele>555.701</ele>
<time>2022-05-25T15:51:56Z</time>
</trkpt>
<trkpt lat="48.038357" lon="11.096927">
<ele>555.702</ele>
<time>2022-05-25T15:51:57Z</time>
</trkpt>
<trkpt lat="48.038303" lon="11.09692">
<ele>555.702</ele>
<time>2022-05-25T15:51:58Z</time>
</trkpt>
<trkpt lat="48.038258" lon="11.096915">
<ele>555.701</ele>
<time>2022-05-25T15:51:59Z</time>
</trkpt>
<trkpt lat="48.038208" lon="11.09691">
<ele>555.475</ele>
<time>2022-05-25T15:52:00Z</time>
</trkpt>
<trkpt lat="48.038166" lon="11.09691">
<ele>555.262</ele>
<time>2022-05-25T15:52:01Z</time>
</trkpt>
<trkpt lat="48.038124" lon="11.096913">
<ele>555.091</ele>
<time>2022-05-25T15:52:02Z</time>
</trkpt>
<trkpt lat="48.038082" lon="11.096919">
<ele>554.944</ele>
<time>2022-05-25T15:52:03Z</time>
</trkpt>
<trkpt lat="48.03804" lon="11.096921">
<ele>554.827</ele>
<time>2022-05-25T15:52:04Z</time>
</trkpt>
<trkpt lat="48.037998" lon="11.096923">
<ele>554.738</ele>
<time>2022-05-25T15:52:05Z</time>
</trkpt>
<trkpt lat="48.037952" lon="11.096925">
<ele>554.682</ele>
<time>2022-05-25T15:52:06Z</time>
</trkpt>
<trkpt lat="48.03791" lon="11.096923">
<ele>554.655</ele>
<time>2022-05-25T15:52:07Z</time>
</trkpt>
<trkpt lat="48.037865" lon="11.096915">
<ele>554.655</ele>
<time>2022-05-25T15:52:08Z</time>
</trkpt>
<trkpt lat="48.037819" lon="11.096917">
<ele>554.655</ele>
<time>2022-05-25T15:52:09Z</time>
</trkpt>
<trkpt lat="48.037777" lon="11.096913">
<ele>554.655</ele>
<time>2022-05-25T15:52:10Z</time>
</trkpt>
<trkpt lat="48.037731" lon="11.09692">
<ele>554.655</ele>
<time>2022-05-25T15:52:11Z</time>
</trkpt>
<trkpt lat="48.037685" lon="11.096923">
<ele>554.655</ele>
<time>2022-05-25T15:52:12Z</time>
</trkpt>
<trkpt lat="48.037643" lon="11.096927">
<ele>554.655</ele>
<time>2022-05-25T15:52:13Z</time>
</trkpt>
<trkpt lat="48.037598" lon="11.096927">
<ele>554.655</ele>
<time>2022-05-25T15:52:14Z</time>
</trkpt>
<trkpt lat="48.037552" lon="11.09693">
<ele>554.655</ele>
<time>2022-05-25T15:52:15Z</time>
</trkpt>
<trkpt lat="48.037502" lon="11.096931">
<ele>554.655</ele>
<time>2022-05-25T15:52:16Z</time>
</trkpt>
<trkpt lat="48.037457" lon="11.096936">
<ele>554.655</ele>
<time>2022-05-25T15:52:17Z</time>
</trkpt>
<trkpt lat="48.037407" lon="11.096942">
<ele>554.655</ele>
<time>2022-05-25T15:52:18Z</time>
</trkpt>
<trkpt lat="48.037361" lon="11.096947">
<ele>554.655</ele>
<time>2022-05-25T15:52:19Z</time>
</trkpt>
<trkpt lat="48.037319" lon="11.096953">
<ele>554.655</ele>
<time>2022-05-25T15:52:20Z</time>
</trkpt>
<trkpt lat="48.03727" lon="11.096958">
<ele>554.655</ele>
<time>2022-05-25T15:52:21Z</time>
</trkpt>
<trkpt lat="48.037228" lon="11.096967">
<ele>554.656</ele>
<time>2022-05-25T15:52:22Z</time>
</trkpt>
<trkpt lat="48.037189" lon="11.096972">
<ele>554.655</ele>
<time>2022-05-25T15:52:23Z</time>
</trkpt>
<trkpt lat="48.037148" lon="11.096973">
<ele>554.655</ele>
<time>2022-05-25T15:52:24Z</time>
</trkpt>
<trkpt lat="48.037102" lon="11.096978">
<ele>554.655</ele>
<time>2022-05-25T15:52:25Z</time>
</trkpt>
<trkpt lat="48.03706" lon="11.096987">
<ele>554.655</ele>
<time>2022-05-25T15:52:26Z</time>
</trkpt>
<trkpt lat="48.037014" lon="11.096991">
<ele>554.655</ele>
<time>2022-05-25T15:52:27Z</time>
</trkpt>
<trkpt lat="48.036964" lon="11.096991">
<ele>554.655</ele>
<time>2022-05-25T15:52:28Z</time>
</trkpt>
<trkpt lat="48.036919" lon="11.096991">
<ele>554.655</ele>
<time>2022-05-25T15:52:29Z</time>
</trkpt>
<trkpt lat="48.036865" lon="11.096996">
<ele>554.655</ele>
<time>2022-05-25T15:52:30Z</time>
</trkpt>
<trkpt lat="48.036816" lon="11.097001">
<ele>554.655</ele>
<time>2022-05-25T15:52:31Z</time>
</trkpt>
<trkpt lat="48.03677" lon="11.097012">
<ele>554.655</ele>
<time>2022-05-25T15:52:32Z</time>
</trkpt>
<trkpt lat="48.036716" lon="11.097018">
<ele>554.655</ele>
<time>2022-05-25T15:52:33Z</time>
</trkpt>
<trkpt lat="48.036674" lon="11.097026">
<ele>554.655</ele>
<time>2022-05-25T15:52:34Z</time>
</trkpt>
<trkpt lat="48.036633" lon="11.097036">
<ele>554.655</ele>
<time>2022-05-25T15:52:35Z</time>
</trkpt>
<trkpt lat="48.036583" lon="11.097047">
<ele>554.655</ele>
<time>2022-05-25T15:52:36Z</time>
</trkpt>
<trkpt lat="48.036533" lon="11.09706">
<ele>554.655</ele>
<time>2022-05-25T15:52:37Z</time>
</trkpt>
<trkpt lat="48.036488" lon="11.097072">
<ele>554.656</ele>
<time>2022-05-25T15:52:38Z</time>
</trkpt>
<trkpt lat="48.036438" lon="11.097087">
<ele>554.655</ele>
<time>2022-05-25T15:52:39Z</time>
</trkpt>
<trkpt lat="48.036392" lon="11.097103">
<ele>554.655</ele>
<time>2022-05-25T15:52:40Z</time>
</trkpt>
<trkpt lat="48.036346" lon="11.097118">
<ele>554.655</ele>
<time>2022-05-25T15:52:41Z</time>
</trkpt>
<trkpt lat="48.036301" lon="11.09713">
<ele>554.655</ele>
<time>2022-05-25T15:52:42Z</time>
</trkpt>
<trkpt lat="48.036255" lon="11.097141">
<ele>554.655</ele>
<time>2022-05-25T15:52:43Z</time>
</trkpt>
<trkpt lat="48.036217" lon="11.097156">
<ele>554.655</ele>
<time>2022-05-25T15:52:44Z</time>
</trkpt>
<trkpt lat="48.036171" lon="11.09717">
<ele>554.655</ele>
<time>2022-05-25T15:52:45Z</time>
</trkpt>
<trkpt lat="48.036129" lon="11.097183">
<ele>554.655</ele>
<time>2022-05-25T15:52:46Z</time>
</trkpt>
<trkpt lat="48.036087" lon="11.097197">
<ele>554.655</ele>
<time>2022-05-25T15:52:47Z</time>
</trkpt>
<trkpt lat="48.036057" lon="11.097208">
<ele>554.655</ele>
<time>2022-05-25T15:52:48Z</time>
</trkpt>
<trkpt lat="48.036022" lon="11.097219">
<ele>554.655</ele>
<time>2022-05-25T15:52:49Z</time>
</trkpt>
<trkpt lat="48.035988" lon="11.097232">
<ele>554.655</ele>
<time>2022-05-25T15:52:50Z</time>
</trkpt>
<trkpt lat="48.03595" lon="11.097246">
<ele>554.655</ele>
<time>2022-05-25T15:52:51Z</time>
</trkpt>
<trkpt lat="48.035912" lon="11.097263">
<ele>554.655</ele>
<time>2022-05-25T15:52:52Z</time>
</trkpt>
<trkpt lat="48.035873" lon="11.09728">
<ele>554.656</ele>
<time>2022-05-25T15:52:53Z</time>
</trkpt>
<trkpt lat="48.035835" lon="11.097295">
<ele>554.656</ele>
<time>2022-05-25T15:52:54Z</time>
</trkpt>
<trkpt lat="48.035801" lon="11.097304">
<ele>554.655</ele>
<time>2022-05-25T15:52:55Z</time>
</trkpt>
<trkpt lat="48.035774" lon="11.097308">
<ele>554.655</ele>
<time>2022-05-25T15:52:56Z</time>
</trkpt>
<trkpt lat="48.035744" lon="11.097319">
<ele>554.655</ele>
<time>2022-05-25T15:52:57Z</time>
</trkpt>
<trkpt lat="48.035717" lon="11.097336">
<ele>554.655</ele>
<time>2022-05-25T15:52:58Z</time>
</trkpt>
<trkpt lat="48.035683" lon="11.097352">
<ele>554.655</ele>
<time>2022-05-25T15:52:59Z</time>
</trkpt>
<trkpt lat="48.035645" lon="11.097367">
<ele>554.655</ele>
<time>2022-05-25T15:53:00Z</time>
</trkpt>
<trkpt lat="48.035599" lon="11.097386">
<ele>554.655</ele>
<time>2022-05-25T15:53:01Z</time>
</trkpt>
<trkpt lat="48.035549" lon="11.097408">
<ele>554.655</ele>
<time>2022-05-25T15:53:02Z</time>
</trkpt>
<trkpt lat="48.035503" lon="11.097424">
<ele>554.655</ele>
<time>2022-05-25T15:53:03Z</time>
</trkpt>
<trkpt lat="48.035465" lon="11.097422">
<ele>554.655</ele>
<time>2022-05-25T15:53:04Z</time>
</trkpt>
<trkpt lat="48.035423" lon="11.09742">
<ele>554.655</ele>
<time>2022-05-25T15:53:05Z</time>
</trkpt>
<trkpt lat="48.035381" lon="11.097424">
<ele>554.655</ele>
<time>2022-05-25T15:53:06Z</time>
</trkpt>
<trkpt lat="48.035332" lon="11.097432">
<ele>554.655</ele>
<time>2022-05-25T15:53:07Z</time>
</trkpt>
<trkpt lat="48.035282" lon="11.097432">
<ele>554.655</ele>
<time>2022-05-25T15:53:08Z</time>
</trkpt>
<trkpt lat="48.035229" lon="11.097451">
<ele>554.655</ele>
<time>2022-05-25T15:53:09Z</time>
</trkpt>
<trkpt lat="48.035172" lon="11.097464">
<ele>554.655</ele>
<time>2022-05-25T15:53:10Z</time>
</trkpt>
<trkpt lat="48.035114" lon="11.097466">
<ele>554.655</ele>
<time>2022-05-25T15:53:11Z</time>
</trkpt>
<trkpt lat="48.035069" lon="11.097466">
<ele>554.655</ele>
<time>2022-05-25T15:53:12Z</time>
</trkpt>
<trkpt lat="48.035019" lon="11.097462">
<ele>554.655</ele>
<time>2022-05-25T15:53:13Z</time>
</trkpt>
<trkpt lat="48.034973" lon="11.09746">
<ele>554.655</ele>
<time>2022-05-25T15:53:14Z</time>
</trkpt>
<trkpt lat="48.034931" lon="11.097457">
<ele>554.655</ele>
<time>2022-05-25T15:53:15Z</time>
</trkpt>
<trkpt lat="48.034893" lon="11.097448">
<ele>554.655</ele>
<time>2022-05-25T15:53:16Z</time>
</trkpt>
<trkpt lat="48.034851" lon="11.097439">
<ele>554.655</ele>
<time>2022-05-25T15:53:17Z</time>
</trkpt>
<trkpt lat="48.034813" lon="11.097435">
<ele>554.655</ele>
<time>2022-05-25T15:53:18Z</time>
</trkpt>
<trkpt lat="48.034779" lon="11.097433">
<ele>554.655</ele>
<time>2022-05-25T15:53:19Z</time>
</trkpt>
<trkpt lat="48.03474" lon="11.097432">
<ele>554.655</ele>
<time>2022-05-25T15:53:20Z</time>
</trkpt>
<trkpt lat="48.034698" lon="11.097428">
<ele>554.655</ele>
<time>2022-05-25T15:53:21Z</time>
</trkpt>
<trkpt lat="48.034657" lon="11.097424">
<ele>554.655</ele>
<time>2022-05-25T15:53:22Z</time>
</trkpt>
<trkpt lat="48.034618" lon="11.097418">
<ele>554.655</ele>
<time>2022-05-25T15:53:23Z</time>
</trkpt>
<trkpt lat="48.034588" lon="11.097411">
<ele>554.655</ele>
<time>2022-05-25T15:53:24Z</time>
</trkpt>
<trkpt lat="48.03455" lon="11.097407">
<ele>554.911</ele>
<time>2022-05-25T15:53:25Z</time>
</trkpt>
<trkpt lat="48.034515" lon="11.097404">
<ele>555.112</ele>
<time>2022-05-25T15:53:26Z</time>
</trkpt>
<trkpt lat="48.034473" lon="11.097401">
<ele>555.274</ele>
<time>2022-05-25T15:53:27Z</time>
</trkpt>
<trkpt lat="48.034428" lon="11.097397">
<ele>555.385</ele>
<time>2022-05-25T15:53:28Z</time>
</trkpt>
<trkpt lat="48.034389" lon="11.097386">
<ele>555.469</ele>
<time>2022-05-25T15:53:29Z</time>
</trkpt>
<trkpt lat="48.034344" lon="11.097376">
<ele>555.53</ele>
<time>2022-05-25T15:53:30Z</time>
</trkpt>
<trkpt lat="48.034298" lon="11.097362">
<ele>555.588</ele>
<time>2022-05-25T15:53:31Z</time>
</trkpt>
<trkpt lat="48.034252" lon="11.097343">
<ele>555.614</ele>
<time>2022-05-25T15:53:32Z</time>
</trkpt>
<trkpt lat="48.034199" lon="11.09732">
<ele>555.614</ele>
<time>2022-05-25T15:53:33Z</time>
</trkpt>
<trkpt lat="48.034157" lon="11.097295">
<ele>555.614</ele>
<time>2022-05-25T15:53:34Z</time>
</trkpt>
<trkpt lat="48.034115" lon="11.097265">
<ele>555.614</ele>
<time>2022-05-25T15:53:35Z</time>
</trkpt>
<trkpt lat="48.034069" lon="11.097235">
<ele>555.614</ele>
<time>2022-05-25T15:53:36Z</time>
</trkpt>
<trkpt lat="48.034031" lon="11.097203">
<ele>555.614</ele>
<time>2022-05-25T15:53:37Z</time>
</trkpt>
<trkpt lat="48.033985" lon="11.09717">
<ele>555.614</ele>
<time>2022-05-25T15:53:38Z</time>
</trkpt>
<trkpt lat="48.033939" lon="11.09713">
<ele>555.614</ele>
<time>2022-05-25T15:53:39Z</time>
</trkpt>
<trkpt lat="48.033901" lon="11.097089">
<ele>555.614</ele>
<time>2022-05-25T15:53:40Z</time>
</trkpt>
<trkpt lat="48.033863" lon="11.097049">
<ele>555.614</ele>
<time>2022-05-25T15:53:41Z</time>
</trkpt>
<trkpt lat="48.033817" lon="11.097007">
<ele>555.614</ele>
<time>2022-05-25T15:53:42Z</time>
</trkpt>
<trkpt lat="48.033772" lon="11.096967">
<ele>555.614</ele>
<time>2022-05-25T15:53:43Z</time>
</trkpt>
<trkpt lat="48.03373" lon="11.096927">
<ele>555.614</ele>
<time>2022-05-25T15:53:44Z</time>
</trkpt>
<trkpt lat="48.033688" lon="11.096889">
<ele>555.35</ele>
<time>2022-05-25T15:53:45Z</time>
</trkpt>
<trkpt lat="48.033642" lon="11.096854">
<ele>555.148</ele>
<time>2022-05-25T15:53:46Z</time>
</trkpt>
<trkpt lat="48.033596" lon="11.096827">
<ele>554.991</ele>
<time>2022-05-25T15:53:47Z</time>
</trkpt>
<trkpt lat="48.03355" lon="11.0968">
<ele>554.875</ele>
<time>2022-05-25T15:53:48Z</time>
</trkpt>
<trkpt lat="48.033508" lon="11.096777">
<ele>554.795</ele>
<time>2022-05-25T15:53:49Z</time>
</trkpt>
<trkpt lat="48.033455" lon="11.096753">
<ele>554.738</ele>
<time>2022-05-25T15:53:50Z</time>
</trkpt>
<trkpt lat="48.033405" lon="11.096726">
<ele>554.682</ele>
<time>2022-05-25T15:53:51Z</time>
</trkpt>
<trkpt lat="48.033356" lon="11.096691">
<ele>554.655</ele>
<time>2022-05-25T15:53:52Z</time>
</trkpt>
<trkpt lat="48.03331" lon="11.096657">
<ele>554.655</ele>
<time>2022-05-25T15:53:53Z</time>
</trkpt>
<trkpt lat="48.033257" lon="11.096622">
<ele>554.655</ele>
<time>2022-05-25T15:53:54Z</time>
</trkpt>
<trkpt lat="48.033203" lon="11.096585">
<ele>554.656</ele>
<time>2022-05-25T15:53:55Z</time>
</trkpt>
<trkpt lat="48.033146" lon="11.096552">
<ele>554.655</ele>
<time>2022-05-25T15:53:56Z</time>
</trkpt>
<trkpt lat="48.033085" lon="11.09652">
<ele>554.655</ele>
<time>2022-05-25T15:53:57Z</time>
</trkpt>
<trkpt lat="48.033024" lon="11.09649">
<ele>554.655</ele>
<time>2022-05-25T15:53:58Z</time>
</trkpt>
<trkpt lat="48.032963" lon="11.096463">
<ele>554.655</ele>
<time>2022-05-25T15:53:59Z</time>
</trkpt>
<trkpt lat="48.032902" lon="11.096439">
<ele>554.655</ele>
<time>2022-05-25T15:54:00Z</time>
</trkpt>
<trkpt lat="48.032829" lon="11.096422">
<ele>554.655</ele>
<time>2022-05-25T15:54:01Z</time>
</trkpt>
<trkpt lat="48.032761" lon="11.096401">
<ele>554.655</ele>
<time>2022-05-25T15:54:02Z</time>
</trkpt>
<trkpt lat="48.0327" lon="11.096383">
<ele>554.655</ele>
<time>2022-05-25T15:54:03Z</time>
</trkpt>
<trkpt lat="48.032635" lon="11.096362">
<ele>554.655</ele>
<time>2022-05-25T15:54:04Z</time>
</trkpt>
<trkpt lat="48.032574" lon="11.096343">
<ele>554.655</ele>
<time>2022-05-25T15:54:05Z</time>
</trkpt>
<trkpt lat="48.032505" lon="11.096325">
<ele>554.655</ele>
<time>2022-05-25T15:54:06Z</time>
</trkpt>
<trkpt lat="48.032436" lon="11.096313">
<ele>554.655</ele>
<time>2022-05-25T15:54:07Z</time>
</trkpt>
<trkpt lat="48.032372" lon="11.096305">
<ele>554.655</ele>
<time>2022-05-25T15:54:08Z</time>
</trkpt>
<trkpt lat="48.032314" lon="11.0963">
<ele>554.655</ele>
<time>2022-05-25T15:54:09Z</time>
</trkpt>
<trkpt lat="48.032272" lon="11.096292">
<ele>554.655</ele>
<time>2022-05-25T15:54:10Z</time>
</trkpt>
<trkpt lat="48.03223" lon="11.096285">
<ele>554.655</ele>
<time>2022-05-25T15:54:11Z</time>
</trkpt>
<trkpt lat="48.032192" lon="11.09628">
<ele>554.655</ele>
<time>2022-05-25T15:54:12Z</time>
</trkpt>
<trkpt lat="48.032158" lon="11.096278">
<ele>554.655</ele>
<time>2022-05-25T15:54:13Z</time>
</trkpt>
<trkpt lat="48.032124" lon="11.096278">
<ele>554.655</ele>
<time>2022-05-25T15:54:14Z</time>
</trkpt>
<trkpt lat="48.032093" lon="11.096278">
<ele>554.655</ele>
<time>2022-05-25T15:54:15Z</time>
</trkpt>
<trkpt lat="48.032063" lon="11.096272">
<ele>554.655</ele>
<time>2022-05-25T15:54:16Z</time>
</trkpt>
<trkpt lat="48.032036" lon="11.096272">
<ele>554.655</ele>
<time>2022-05-25T15:54:17Z</time>
</trkpt>
<trkpt lat="48.032005" lon="11.096276">
<ele>554.655</ele>
<time>2022-05-25T15:54:18Z</time>
</trkpt>
<trkpt lat="48.031979" lon="11.096285">
<ele>554.655</ele>
<time>2022-05-25T15:54:19Z</time>
</trkpt>
<trkpt lat="48.031956" lon="11.096293">
<ele>554.655</ele>
<time>2022-05-25T15:54:20Z</time>
</trkpt>
<trkpt lat="48.031929" lon="11.096303">
<ele>554.655</ele>
<time>2022-05-25T15:54:21Z</time>
</trkpt>
<trkpt lat="48.031906" lon="11.096313">
<ele>554.656</ele>
<time>2022-05-25T15:54:22Z</time>
</trkpt>
<trkpt lat="48.031879" lon="11.096318">
<ele>554.655</ele>
<time>2022-05-25T15:54:23Z</time>
</trkpt>
<trkpt lat="48.031849" lon="11.09633">
<ele>554.655</ele>
<time>2022-05-25T15:54:24Z</time>
</trkpt>
<trkpt lat="48.031822" lon="11.096343">
<ele>554.655</ele>
<time>2022-05-25T15:54:25Z</time>
</trkpt>
<trkpt lat="48.031796" lon="11.09635">
<ele>554.655</ele>
<time>2022-05-25T15:54:26Z</time>
</trkpt>
<trkpt lat="48.031761" lon="11.096358">
<ele>554.655</ele>
<time>2022-05-25T15:54:27Z</time>
</trkpt>
<trkpt lat="48.031731" lon="11.096366">
<ele>554.655</ele>
<time>2022-05-25T15:54:28Z</time>
</trkpt>
<trkpt lat="48.0317" lon="11.096374">
<ele>554.655</ele>
<time>2022-05-25T15:54:29Z</time>
</trkpt>
<trkpt lat="48.03167" lon="11.09638">
<ele>554.655</ele>
<time>2022-05-25T15:54:30Z</time>
</trkpt>
<trkpt lat="48.031624" lon="11.096387">
<ele>554.655</ele>
<time>2022-05-25T15:54:31Z</time>
</trkpt>
<trkpt lat="48.031586" lon="11.096405">
<ele>554.655</ele>
<time>2022-05-25T15:54:32Z</time>
</trkpt>
<trkpt lat="48.031551" lon="11.096416">
<ele>554.655</ele>
<time>2022-05-25T15:54:33Z</time>
</trkpt>
<trkpt lat="48.031509" lon="11.096427">
<ele>554.655</ele>
<time>2022-05-25T15:54:34Z</time>
</trkpt>
<trkpt lat="48.031475" lon="11.096437">
<ele>554.655</ele>
<time>2022-05-25T15:54:35Z</time>
</trkpt>
<trkpt lat="48.031433" lon="11.096439">
<ele>554.655</ele>
<time>2022-05-25T15:54:36Z</time>
</trkpt>
<trkpt lat="48.031403" lon="11.096452">
<ele>554.655</ele>
<time>2022-05-25T15:54:37Z</time>
</trkpt>
<trkpt lat="48.031364" lon="11.096465">
<ele>554.655</ele>
<time>2022-05-25T15:54:38Z</time>
</trkpt>
<trkpt lat="48.031326" lon="11.096478">
<ele>554.655</ele>
<time>2022-05-25T15:54:39Z</time>
</trkpt>
<trkpt lat="48.031288" lon="11.09649">
<ele>554.655</ele>
<time>2022-05-25T15:54:40Z</time>
</trkpt>
<trkpt lat="48.031246" lon="11.096506">
<ele>554.655</ele>
<time>2022-05-25T15:54:41Z</time>
</trkpt>
<trkpt lat="48.0312" lon="11.09653">
<ele>554.655</ele>
<time>2022-05-25T15:54:42Z</time>
</trkpt>
<trkpt lat="48.031162" lon="11.096541">
<ele>554.655</ele>
<time>2022-05-25T15:54:43Z</time>
</trkpt>
<trkpt lat="48.031132" lon="11.096557">
<ele>554.655</ele>
<time>2022-05-25T15:54:44Z</time>
</trkpt>
<trkpt lat="48.03109" lon="11.096569">
<ele>554.655</ele>
<time>2022-05-25T15:54:45Z</time>
</trkpt>
<trkpt lat="48.031021" lon="11.096573">
<ele>554.655</ele>
<time>2022-05-25T15:54:46Z</time>
</trkpt>
<trkpt lat="48.030964" lon="11.09658">
<ele>554.655</ele>
<time>2022-05-25T15:54:47Z</time>
</trkpt>
<trkpt lat="48.030903" lon="11.096601">
<ele>554.655</ele>
<time>2022-05-25T15:54:48Z</time>
</trkpt>
<trkpt lat="48.030846" lon="11.096623">
<ele>554.655</ele>
<time>2022-05-25T15:54:49Z</time>
</trkpt>
<trkpt lat="48.030792" lon="11.096642">
<ele>554.655</ele>
<time>2022-05-25T15:54:50Z</time>
</trkpt>
<trkpt lat="48.030739" lon="11.096665">
<ele>554.655</ele>
<time>2022-05-25T15:54:51Z</time>
</trkpt>
<trkpt lat="48.030697" lon="11.096684">
<ele>554.655</ele>
<time>2022-05-25T15:54:52Z</time>
</trkpt>
<trkpt lat="48.030651" lon="11.096702">
<ele>554.655</ele>
<time>2022-05-25T15:54:53Z</time>
</trkpt>
<trkpt lat="48.030617" lon="11.09672">
<ele>554.655</ele>
<time>2022-05-25T15:54:54Z</time>
</trkpt>
<trkpt lat="48.030582" lon="11.096737">
<ele>554.655</ele>
<time>2022-05-25T15:54:55Z</time>
</trkpt>
<trkpt lat="48.030552" lon="11.096749">
<ele>554.655</ele>
<time>2022-05-25T15:54:56Z</time>
</trkpt>
<trkpt lat="48.030525" lon="11.096765">
<ele>554.655</ele>
<time>2022-05-25T15:54:57Z</time>
</trkpt>
<trkpt lat="48.030499" lon="11.096781">
<ele>554.655</ele>
<time>2022-05-25T15:54:58Z</time>
</trkpt>
<trkpt lat="48.030476" lon="11.096795">
<ele>554.655</ele>
<time>2022-05-25T15:54:59Z</time>
</trkpt>
<trkpt lat="48.030445" lon="11.09681">
<ele>554.655</ele>
<time>2022-05-25T15:55:00Z</time>
</trkpt>
<trkpt lat="48.030415" lon="11.096827">
<ele>554.655</ele>
<time>2022-05-25T15:55:01Z</time>
</trkpt>
<trkpt lat="48.03038" lon="11.096844">
<ele>554.655</ele>
<time>2022-05-25T15:55:02Z</time>
</trkpt>
<trkpt lat="48.03035" lon="11.096858">
<ele>554.655</ele>
<time>2022-05-25T15:55:03Z</time>
</trkpt>
<trkpt lat="48.030315" lon="11.096877">
<ele>554.655</ele>
<time>2022-05-25T15:55:04Z</time>
</trkpt>
<trkpt lat="48.030281" lon="11.096898">
<ele>554.655</ele>
<time>2022-05-25T15:55:05Z</time>
</trkpt>
<trkpt lat="48.030239" lon="11.096921">
<ele>554.655</ele>
<time>2022-05-25T15:55:06Z</time>
</trkpt>
<trkpt lat="48.030201" lon="11.096947">
<ele>554.655</ele>
<time>2022-05-25T15:55:07Z</time>
</trkpt>
<trkpt lat="48.030159" lon="11.096969">
<ele>554.655</ele>
<time>2022-05-25T15:55:08Z</time>
</trkpt>
<trkpt lat="48.030121" lon="11.096994">
<ele>554.655</ele>
<time>2022-05-25T15:55:09Z</time>
</trkpt>
<trkpt lat="48.030079" lon="11.097017">
<ele>554.655</ele>
<time>2022-05-25T15:55:10Z</time>
</trkpt>
<trkpt lat="48.030033" lon="11.097038">
<ele>554.655</ele>
<time>2022-05-25T15:55:11Z</time>
</trkpt>
<trkpt lat="48.029991" lon="11.097061">
<ele>554.655</ele>
<time>2022-05-25T15:55:12Z</time>
</trkpt>
<trkpt lat="48.029949" lon="11.09708">
<ele>554.655</ele>
<time>2022-05-25T15:55:13Z</time>
</trkpt>
<trkpt lat="48.029903" lon="11.097095">
<ele>554.655</ele>
<time>2022-05-25T15:55:14Z</time>
</trkpt>
<trkpt lat="48.029861" lon="11.097114">
<ele>554.655</ele>
<time>2022-05-25T15:55:15Z</time>
</trkpt>
<trkpt lat="48.029827" lon="11.097136">
<ele>554.655</ele>
<time>2022-05-25T15:55:16Z</time>
</trkpt>
<trkpt lat="48.029789" lon="11.09716">
<ele>554.655</ele>
<time>2022-05-25T15:55:17Z</time>
</trkpt>
<trkpt lat="48.029751" lon="11.09718">
<ele>554.655</ele>
<time>2022-05-25T15:55:18Z</time>
</trkpt>
<trkpt lat="48.029716" lon="11.097205">
<ele>554.655</ele>
<time>2022-05-25T15:55:19Z</time>
</trkpt>
<trkpt lat="48.029678" lon="11.097229">
<ele>554.655</ele>
<time>2022-05-25T15:55:20Z</time>
</trkpt>
<trkpt lat="48.02964" lon="11.097257">
<ele>554.655</ele>
<time>2022-05-25T15:55:21Z</time>
</trkpt>
<trkpt lat="48.029602" lon="11.097285">
<ele>554.655</ele>
<time>2022-05-25T15:55:22Z</time>
</trkpt>
<trkpt lat="48.029564" lon="11.097317">
<ele>554.655</ele>
<time>2022-05-25T15:55:23Z</time>
</trkpt>
<trkpt lat="48.02953" lon="11.097346">
<ele>554.655</ele>
<time>2022-05-25T15:55:24Z</time>
</trkpt>
<trkpt lat="48.029488" lon="11.09737">
<ele>554.655</ele>
<time>2022-05-25T15:55:25Z</time>
</trkpt>
<trkpt lat="48.029449" lon="11.097397">
<ele>554.655</ele>
<time>2022-05-25T15:55:26Z</time>
</trkpt>
<trkpt lat="48.029415" lon="11.09742">
<ele>554.655</ele>
<time>2022-05-25T15:55:27Z</time>
</trkpt>
<trkpt lat="48.029385" lon="11.097445">
<ele>554.655</ele>
<time>2022-05-25T15:55:28Z</time>
</trkpt>
<trkpt lat="48.029354" lon="11.097466">
<ele>554.655</ele>
<time>2022-05-25T15:55:29Z</time>
</trkpt>
<trkpt lat="48.029324" lon="11.09748">
<ele>554.655</ele>
<time>2022-05-25T15:55:30Z</time>
</trkpt>
<trkpt lat="48.029293" lon="11.097497">
<ele>554.655</ele>
<time>2022-05-25T15:55:31Z</time>
</trkpt>
<trkpt lat="48.029263" lon="11.097516">
<ele>554.655</ele>
<time>2022-05-25T15:55:32Z</time>
</trkpt>
<trkpt lat="48.029232" lon="11.097535">
<ele>554.655</ele>
<time>2022-05-25T15:55:33Z</time>
</trkpt>
<trkpt lat="48.029205" lon="11.097551">
<ele>554.656</ele>
<time>2022-05-25T15:55:34Z</time>
</trkpt>
<trkpt lat="48.029175" lon="11.09757">
<ele>554.655</ele>
<time>2022-05-25T15:55:35Z</time>
</trkpt>
<trkpt lat="48.029148" lon="11.097587">
<ele>554.655</ele>
<time>2022-05-25T15:55:36Z</time>
</trkpt>
<trkpt lat="48.029118" lon="11.097604">
<ele>554.655</ele>
<time>2022-05-25T15:55:37Z</time>
</trkpt>
<trkpt lat="48.029095" lon="11.09761">
<ele>554.655</ele>
<time>2022-05-25T15:55:38Z</time>
</trkpt>
<trkpt lat="48.029068" lon="11.097615">
<ele>554.655</ele>
<time>2022-05-25T15:55:39Z</time>
</trkpt>
<trkpt lat="48.029037" lon="11.09762">
<ele>554.655</ele>
<time>2022-05-25T15:55:40Z</time>
</trkpt>
<trkpt lat="48.029007" lon="11.097635">
<ele>554.655</ele>
<time>2022-05-25T15:55:41Z</time>
</trkpt>
<trkpt lat="48.028976" lon="11.097654">
<ele>554.655</ele>
<time>2022-05-25T15:55:42Z</time>
</trkpt>
<trkpt lat="48.028946" lon="11.09768">
<ele>554.655</ele>
<time>2022-05-25T15:55:43Z</time>
</trkpt>
<trkpt lat="48.028915" lon="11.097703">
<ele>554.655</ele>
<time>2022-05-25T15:55:44Z</time>
</trkpt>
<trkpt lat="48.028893" lon="11.097725">
<ele>554.655</ele>
<time>2022-05-25T15:55:45Z</time>
</trkpt>
<trkpt lat="48.028862" lon="11.097749">
<ele>554.655</ele>
<time>2022-05-25T15:55:46Z</time>
</trkpt>
<trkpt lat="48.028831" lon="11.097768">
<ele>554.655</ele>
<time>2022-05-25T15:55:47Z</time>
</trkpt>
<trkpt lat="48.028801" lon="11.097782">
<ele>554.655</ele>
<time>2022-05-25T15:55:48Z</time>
</trkpt>
<trkpt lat="48.02877" lon="11.097801">
<ele>554.655</ele>
<time>2022-05-25T15:55:49Z</time>
</trkpt>
<trkpt lat="48.028732" lon="11.097822">
<ele>554.655</ele>
<time>2022-05-25T15:55:50Z</time>
</trkpt>
<trkpt lat="48.028694" lon="11.097843">
<ele>554.655</ele>
<time>2022-05-25T15:55:51Z</time>
</trkpt>
<trkpt lat="48.028652" lon="11.097868">
<ele>554.655</ele>
<time>2022-05-25T15:55:52Z</time>
</trkpt>
<trkpt lat="48.02861" lon="11.097889">
<ele>554.655</ele>
<time>2022-05-25T15:55:53Z</time>
</trkpt>
<trkpt lat="48.028564" lon="11.097906">
<ele>554.655</ele>
<time>2022-05-25T15:55:54Z</time>
</trkpt>
<trkpt lat="48.028522" lon="11.097923">
<ele>554.655</ele>
<time>2022-05-25T15:55:55Z</time>
</trkpt>
<trkpt lat="48.028488" lon="11.09793">
<ele>554.655</ele>
<time>2022-05-25T15:55:56Z</time>
</trkpt>
<trkpt lat="48.028446" lon="11.097939">
<ele>554.655</ele>
<time>2022-05-25T15:55:57Z</time>
</trkpt>
<trkpt lat="48.028404" lon="11.097943">
<ele>554.655</ele>
<time>2022-05-25T15:55:58Z</time>
</trkpt>
<trkpt lat="48.028362" lon="11.097943">
<ele>554.655</ele>
<time>2022-05-25T15:55:59Z</time>
</trkpt>
<trkpt lat="48.028328" lon="11.097943">
<ele>554.655</ele>
<time>2022-05-25T15:56:00Z</time>
</trkpt>
<trkpt lat="48.028294" lon="11.097937">
<ele>554.656</ele>
<time>2022-05-25T15:56:01Z</time>
</trkpt>
<trkpt lat="48.028259" lon="11.097933">
<ele>554.655</ele>
<time>2022-05-25T15:56:02Z</time>
</trkpt>
<trkpt lat="48.028221" lon="11.097929">
<ele>554.655</ele>
<time>2022-05-25T15:56:03Z</time>
</trkpt>
<trkpt lat="48.028187" lon="11.097927">
<ele>554.655</ele>
<time>2022-05-25T15:56:04Z</time>
</trkpt>
<trkpt lat="48.028152" lon="11.097922">
<ele>554.655</ele>
<time>2022-05-25T15:56:05Z</time>
</trkpt>
<trkpt lat="48.028118" lon="11.097912">
<ele>554.655</ele>
<time>2022-05-25T15:56:06Z</time>
</trkpt>
<trkpt lat="48.028076" lon="11.097905">
<ele>554.655</ele>
<time>2022-05-25T15:56:07Z</time>
</trkpt>
<trkpt lat="48.028034" lon="11.097894">
<ele>554.655</ele>
<time>2022-05-25T15:56:08Z</time>
</trkpt>
<trkpt lat="48.027985" lon="11.09788">
<ele>554.655</ele>
<time>2022-05-25T15:56:09Z</time>
</trkpt>
<trkpt lat="48.027931" lon="11.097863">
<ele>554.655</ele>
<time>2022-05-25T15:56:10Z</time>
</trkpt>
<trkpt lat="48.027878" lon="11.097849">
<ele>554.655</ele>
<time>2022-05-25T15:56:11Z</time>
</trkpt>
<trkpt lat="48.027832" lon="11.097836">
<ele>554.655</ele>
<time>2022-05-25T15:56:12Z</time>
</trkpt>
<trkpt lat="48.027779" lon="11.097825">
<ele>554.655</ele>
<time>2022-05-25T15:56:13Z</time>
</trkpt>
<trkpt lat="48.027733" lon="11.097814">
<ele>554.655</ele>
<time>2022-05-25T15:56:14Z</time>
</trkpt>
<trkpt lat="48.027683" lon="11.097801">
<ele>554.655</ele>
<time>2022-05-25T15:56:15Z</time>
</trkpt>
<trkpt lat="48.027641" lon="11.097787">
<ele>554.655</ele>
<time>2022-05-25T15:56:16Z</time>
</trkpt>
<trkpt lat="48.027596" lon="11.097775">
<ele>554.655</ele>
<time>2022-05-25T15:56:17Z</time>
</trkpt>
<trkpt lat="48.02755" lon="11.097763">
<ele>554.655</ele>
<time>2022-05-25T15:56:18Z</time>
</trkpt>
<trkpt lat="48.027512" lon="11.097754">
<ele>554.655</ele>
<time>2022-05-25T15:56:19Z</time>
</trkpt>
<trkpt lat="48.027466" lon="11.097743">
<ele>554.655</ele>
<time>2022-05-25T15:56:20Z</time>
</trkpt>
<trkpt lat="48.027424" lon="11.09773">
<ele>554.655</ele>
<time>2022-05-25T15:56:21Z</time>
</trkpt>
<trkpt lat="48.027386" lon="11.09772">
<ele>554.655</ele>
<time>2022-05-25T15:56:22Z</time>
</trkpt>
<trkpt lat="48.027344" lon="11.097707">
<ele>554.655</ele>
<time>2022-05-25T15:56:23Z</time>
</trkpt>
<trkpt lat="48.027298" lon="11.097694">
<ele>554.655</ele>
<time>2022-05-25T15:56:24Z</time>
</trkpt>
<trkpt lat="48.027256" lon="11.097686">
<ele>554.655</ele>
<time>2022-05-25T15:56:25Z</time>
</trkpt>
<trkpt lat="48.02721" lon="11.097672">
<ele>554.655</ele>
<time>2022-05-25T15:56:26Z</time>
</trkpt>
<trkpt lat="48.027157" lon="11.097656">
<ele>554.655</ele>
<time>2022-05-25T15:56:27Z</time>
</trkpt>
<trkpt lat="48.027111" lon="11.097645">
<ele>554.655</ele>
<time>2022-05-25T15:56:28Z</time>
</trkpt>
<trkpt lat="48.027058" lon="11.097635">
<ele>554.901</ele>
<time>2022-05-25T15:56:29Z</time>
</trkpt>
<trkpt lat="48.027012" lon="11.097618">
<ele>555.069</ele>
<time>2022-05-25T15:56:30Z</time>
</trkpt>
<trkpt lat="48.026958" lon="11.097602">
<ele>555.238</ele>
<time>2022-05-25T15:56:31Z</time>
</trkpt>
<trkpt lat="48.026909" lon="11.097583">
<ele>555.373</ele>
<time>2022-05-25T15:56:32Z</time>
</trkpt>
<trkpt lat="48.026859" lon="11.09757">
<ele>555.475</ele>
<time>2022-05-25T15:56:33Z</time>
</trkpt>
<trkpt lat="48.02681" lon="11.097565">
<ele>555.544</ele>
<time>2022-05-25T15:56:34Z</time>
</trkpt>
<trkpt lat="48.026756" lon="11.097555">
<ele>555.59</ele>
<time>2022-05-25T15:56:35Z</time>
</trkpt>
<trkpt lat="48.026707" lon="11.097544">
<ele>555.614</ele>
<time>2022-05-25T15:56:36Z</time>
</trkpt>
<trkpt lat="48.026661" lon="11.097537">
<ele>555.614</ele>
<time>2022-05-25T15:56:37Z</time>
</trkpt>
<trkpt lat="48.026619" lon="11.097525">
<ele>555.614</ele>
<time>2022-05-25T15:56:38Z</time>
</trkpt>
<trkpt lat="48.026585" lon="11.097513">
<ele>555.614</ele>
<time>2022-05-25T15:56:39Z</time>
</trkpt>
<trkpt lat="48.026546" lon="11.097497">
<ele>555.614</ele>
<time>2022-05-25T15:56:40Z</time>
</trkpt>
<trkpt lat="48.026501" lon="11.097488">
<ele>555.614</ele>
<time>2022-05-25T15:56:41Z</time>
</trkpt>
<trkpt lat="48.026451" lon="11.097475">
<ele>555.614</ele>
<time>2022-05-25T15:56:42Z</time>
</trkpt>
<trkpt lat="48.026405" lon="11.097462">
<ele>555.614</ele>
<time>2022-05-25T15:56:43Z</time>
</trkpt>
<trkpt lat="48.026356" lon="11.097443">
<ele>555.614</ele>
<time>2022-05-25T15:56:44Z</time>
</trkpt>
<trkpt lat="48.026306" lon="11.097426">
<ele>555.614</ele>
<time>2022-05-25T15:56:45Z</time>
</trkpt>
<trkpt lat="48.026268" lon="11.097415">
<ele>555.614</ele>
<time>2022-05-25T15:56:46Z</time>
</trkpt>
<trkpt lat="48.026215" lon="11.097402">
<ele>555.614</ele>
<time>2022-05-25T15:56:47Z</time>
</trkpt>
<trkpt lat="48.026176" lon="11.097392">
<ele>555.614</ele>
<time>2022-05-25T15:56:48Z</time>
</trkpt>
<trkpt lat="48.026127" lon="11.097386">
<ele>555.614</ele>
<time>2022-05-25T15:56:49Z</time>
</trkpt>
<trkpt lat="48.026085" lon="11.097384">
<ele>555.614</ele>
<time>2022-05-25T15:56:50Z</time>
</trkpt>
<trkpt lat="48.026047" lon="11.097375">
<ele>555.614</ele>
<time>2022-05-25T15:56:51Z</time>
</trkpt>
<trkpt lat="48.026009" lon="11.097362">
<ele>555.614</ele>
<time>2022-05-25T15:56:52Z</time>
</trkpt>
<trkpt lat="48.025978" lon="11.09735">
<ele>555.614</ele>
<time>2022-05-25T15:56:53Z</time>
</trkpt>
<trkpt lat="48.025948" lon="11.097343">
<ele>555.614</ele>
<time>2022-05-25T15:56:54Z</time>
</trkpt>
<trkpt lat="48.025913" lon="11.09734">
<ele>555.614</ele>
<time>2022-05-25T15:56:55Z</time>
</trkpt>
<trkpt lat="48.025894" lon="11.097332">
<ele>555.614</ele>
<time>2022-05-25T15:56:56Z</time>
</trkpt>
<trkpt lat="48.025867" lon="11.097327">
<ele>555.614</ele>
<time>2022-05-25T15:56:57Z</time>
</trkpt>
<trkpt lat="48.025845" lon="11.097327">
<ele>555.614</ele>
<time>2022-05-25T15:56:58Z</time>
</trkpt>
<trkpt lat="48.025818" lon="11.097323">
<ele>555.614</ele>
<time>2022-05-25T15:56:59Z</time>
</trkpt>
<trkpt lat="48.025795" lon="11.097325">
<ele>555.614</ele>
<time>2022-05-25T15:57:00Z</time>
</trkpt>
<trkpt lat="48.025772" lon="11.097323">
<ele>555.614</ele>
<time>2022-05-25T15:57:01Z</time>
</trkpt>
<trkpt lat="48.025753" lon="11.097323">
<ele>555.614</ele>
<time>2022-05-25T15:57:02Z</time>
</trkpt>
<trkpt lat="48.025726" lon="11.097313">
<ele>555.614</ele>
<time>2022-05-25T15:57:03Z</time>
</trkpt>
<trkpt lat="48.025703" lon="11.097303">
<ele>555.614</ele>
<time>2022-05-25T15:57:04Z</time>
</trkpt>
<trkpt lat="48.025669" lon="11.097285">
<ele>555.614</ele>
<time>2022-05-25T15:57:05Z</time>
</trkpt>
<trkpt lat="48.025631" lon="11.097262">
<ele>555.614</ele>
<time>2022-05-25T15:57:06Z</time>
</trkpt>
<trkpt lat="48.025589" lon="11.097245">
<ele>555.614</ele>
<time>2022-05-25T15:57:07Z</time>
</trkpt>
<trkpt lat="48.025551" lon="11.09723">
<ele>555.614</ele>
<time>2022-05-25T15:57:08Z</time>
</trkpt>
<trkpt lat="48.025509" lon="11.097213">
<ele>555.614</ele>
<time>2022-05-25T15:57:09Z</time>
</trkpt>
<trkpt lat="48.025463" lon="11.097205">
<ele>555.614</ele>
<time>2022-05-25T15:57:10Z</time>
</trkpt>
<trkpt lat="48.025421" lon="11.097197">
<ele>555.614</ele>
<time>2022-05-25T15:57:11Z</time>
</trkpt>
<trkpt lat="48.025372" lon="11.097187">
<ele>555.614</ele>
<time>2022-05-25T15:57:12Z</time>
</trkpt>
<trkpt lat="48.02533" lon="11.097175">
<ele>555.614</ele>
<time>2022-05-25T15:57:13Z</time>
</trkpt>
<trkpt lat="48.025284" lon="11.09716">
<ele>555.614</ele>
<time>2022-05-25T15:57:14Z</time>
</trkpt>
<trkpt lat="48.02523" lon="11.097139">
<ele>555.614</ele>
<time>2022-05-25T15:57:15Z</time>
</trkpt>
<trkpt lat="48.025188" lon="11.097122">
<ele>555.614</ele>
<time>2022-05-25T15:57:16Z</time>
</trkpt>
<trkpt lat="48.025135" lon="11.097105">
<ele>555.614</ele>
<time>2022-05-25T15:57:17Z</time>
</trkpt>
<trkpt lat="48.025089" lon="11.097091">
<ele>555.614</ele>
<time>2022-05-25T15:57:18Z</time>
</trkpt>
<trkpt lat="48.025047" lon="11.097075">
<ele>555.614</ele>
<time>2022-05-25T15:57:19Z</time>
</trkpt>
<trkpt lat="48.025002" lon="11.097066">
<ele>555.614</ele>
<time>2022-05-25T15:57:20Z</time>
</trkpt>
<trkpt lat="48.024963" lon="11.097052">
<ele>555.614</ele>
<time>2022-05-25T15:57:21Z</time>
</trkpt>
<trkpt lat="48.024914" lon="11.09704">
<ele>555.614</ele>
<time>2022-05-25T15:57:22Z</time>
</trkpt>
<trkpt lat="48.024857" lon="11.097028">
<ele>555.614</ele>
<time>2022-05-25T15:57:23Z</time>
</trkpt>
<trkpt lat="48.024803" lon="11.097013">
<ele>555.614</ele>
<time>2022-05-25T15:57:24Z</time>
</trkpt>
<trkpt lat="48.024754" lon="11.096991">
<ele>555.614</ele>
<time>2022-05-25T15:57:25Z</time>
</trkpt>
<trkpt lat="48.024708" lon="11.09696">
<ele>555.614</ele>
<time>2022-05-25T15:57:26Z</time>
</trkpt>
<trkpt lat="48.024658" lon="11.09693">
<ele>555.614</ele>
<time>2022-05-25T15:57:27Z</time>
</trkpt>
<trkpt lat="48.024609" lon="11.096909">
<ele>555.614</ele>
<time>2022-05-25T15:57:28Z</time>
</trkpt>
<trkpt lat="48.024559" lon="11.096889">
<ele>555.614</ele>
<time>2022-05-25T15:57:29Z</time>
</trkpt>
<trkpt lat="48.024513" lon="11.096879">
<ele>555.614</ele>
<time>2022-05-25T15:57:30Z</time>
</trkpt>
<trkpt lat="48.024467" lon="11.096873">
<ele>555.614</ele>
<time>2022-05-25T15:57:31Z</time>
</trkpt>
<trkpt lat="48.024422" lon="11.09687">
<ele>555.614</ele>
<time>2022-05-25T15:57:32Z</time>
</trkpt>
<trkpt lat="48.024376" lon="11.09686">
<ele>555.614</ele>
<time>2022-05-25T15:57:33Z</time>
</trkpt>
<trkpt lat="48.024323" lon="11.096853">
<ele>555.35</ele>
<time>2022-05-25T15:57:34Z</time>
</trkpt>
<trkpt lat="48.024273" lon="11.09685">
<ele>555.138</ele>
<time>2022-05-25T15:57:35Z</time>
</trkpt>
<trkpt lat="48.02422" lon="11.096848">
<ele>554.979</ele>
<time>2022-05-25T15:57:36Z</time>
</trkpt>
<trkpt lat="48.02417" lon="11.09685">
<ele>554.859</ele>
<time>2022-05-25T15:57:37Z</time>
</trkpt>
<trkpt lat="48.02412" lon="11.096853">
<ele>554.77</ele>
<time>2022-05-25T15:57:38Z</time>
</trkpt>
<trkpt lat="48.024071" lon="11.096856">
<ele>554.72</ele>
<time>2022-05-25T15:57:39Z</time>
</trkpt>
<trkpt lat="48.024025" lon="11.096869">
<ele>554.681</ele>
<time>2022-05-25T15:57:40Z</time>
</trkpt>
<trkpt lat="48.023991" lon="11.096882">
<ele>554.655</ele>
<time>2022-05-25T15:57:41Z</time>
</trkpt>
<trkpt lat="48.023952" lon="11.096893">
<ele>554.655</ele>
<time>2022-05-25T15:57:42Z</time>
</trkpt>
<trkpt lat="48.023918" lon="11.096909">
<ele>554.655</ele>
<time>2022-05-25T15:57:43Z</time>
</trkpt>
<trkpt lat="48.023888" lon="11.096919">
<ele>554.655</ele>
<time>2022-05-25T15:57:44Z</time>
</trkpt>
<trkpt lat="48.023861" lon="11.096921">
<ele>554.655</ele>
<time>2022-05-25T15:57:45Z</time>
</trkpt>
<trkpt lat="48.023834" lon="11.096915">
<ele>554.655</ele>
<time>2022-05-25T15:57:46Z</time>
</trkpt>
<trkpt lat="48.023811" lon="11.096907">
<ele>554.655</ele>
<time>2022-05-25T15:57:47Z</time>
</trkpt>
<trkpt lat="48.023788" lon="11.096896">
<ele>554.655</ele>
<time>2022-05-25T15:57:48Z</time>
</trkpt>
<trkpt lat="48.023762" lon="11.096884">
<ele>554.655</ele>
<time>2022-05-25T15:57:49Z</time>
</trkpt>
<trkpt lat="48.023746" lon="11.096869">
<ele>554.655</ele>
<time>2022-05-25T15:57:50Z</time>
</trkpt>
<trkpt lat="48.023731" lon="11.096856">
<ele>554.655</ele>
<time>2022-05-25T15:57:51Z</time>
</trkpt>
<trkpt lat="48.023708" lon="11.096851">
<ele>554.655</ele>
<time>2022-05-25T15:57:52Z</time>
</trkpt>
<trkpt lat="48.023693" lon="11.096847">
<ele>554.655</ele>
<time>2022-05-25T15:57:53Z</time>
</trkpt>
<trkpt lat="48.023674" lon="11.096846">
<ele>554.655</ele>
<time>2022-05-25T15:57:54Z</time>
</trkpt>
<trkpt lat="48.023655" lon="11.096838">
<ele>554.655</ele>
<time>2022-05-25T15:57:55Z</time>
</trkpt>
<trkpt lat="48.023632" lon="11.09684">
<ele>554.655</ele>
<time>2022-05-25T15:57:56Z</time>
</trkpt>
<trkpt lat="48.023605" lon="11.096847">
<ele>554.655</ele>
<time>2022-05-25T15:57:57Z</time>
</trkpt>
<trkpt lat="48.023579" lon="11.09686">
<ele>554.655</ele>
<time>2022-05-25T15:57:58Z</time>
</trkpt>
<trkpt lat="48.023552" lon="11.096882">
<ele>554.655</ele>
<time>2022-05-25T15:57:59Z</time>
</trkpt>
<trkpt lat="48.023525" lon="11.096909">
<ele>554.655</ele>
<time>2022-05-25T15:58:00Z</time>
</trkpt>
<trkpt lat="48.023502" lon="11.096936">
<ele>554.655</ele>
<time>2022-05-25T15:58:01Z</time>
</trkpt>
<trkpt lat="48.023476" lon="11.096961">
<ele>554.655</ele>
<time>2022-05-25T15:58:02Z</time>
</trkpt>
<trkpt lat="48.023438" lon="11.096987">
<ele>554.655</ele>
<time>2022-05-25T15:58:03Z</time>
</trkpt>
<trkpt lat="48.023403" lon="11.096996">
<ele>554.655</ele>
<time>2022-05-25T15:58:04Z</time>
</trkpt>
<trkpt lat="48.023354" lon="11.097001">
<ele>554.655</ele>
<time>2022-05-25T15:58:05Z</time>
</trkpt>
<trkpt lat="48.023308" lon="11.096996">
<ele>554.655</ele>
<time>2022-05-25T15:58:06Z</time>
</trkpt>
<trkpt lat="48.023262" lon="11.096985">
<ele>554.655</ele>
<time>2022-05-25T15:58:07Z</time>
</trkpt>
<trkpt lat="48.02322" lon="11.096963">
<ele>554.655</ele>
<time>2022-05-25T15:58:08Z</time>
</trkpt>
<trkpt lat="48.023193" lon="11.09693">
<ele>554.431</ele>
<time>2022-05-25T15:58:09Z</time>
</trkpt>
<trkpt lat="48.023174" lon="11.096893">
<ele>554.279</ele>
<time>2022-05-25T15:58:10Z</time>
</trkpt>
<trkpt lat="48.023167" lon="11.096851">
<ele>554.141</ele>
<time>2022-05-25T15:58:11Z</time>
</trkpt>
<trkpt lat="48.023167" lon="11.096807">
<ele>554.026</ele>
<time>2022-05-25T15:58:12Z</time>
</trkpt>
<trkpt lat="48.023174" lon="11.096765">
<ele>553.936</ele>
<time>2022-05-25T15:58:13Z</time>
</trkpt>
<trkpt lat="48.023193" lon="11.096724">
<ele>553.862</ele>
<time>2022-05-25T15:58:14Z</time>
</trkpt>
<trkpt lat="48.023205" lon="11.09668">
<ele>553.811</ele>
<time>2022-05-25T15:58:15Z</time>
</trkpt>
<trkpt lat="48.023216" lon="11.096632">
<ele>553.783</ele>
<time>2022-05-25T15:58:16Z</time>
</trkpt>
<trkpt lat="48.023232" lon="11.09658">
<ele>553.783</ele>
<time>2022-05-25T15:58:17Z</time>
</trkpt>
<trkpt lat="48.023243" lon="11.09653">
<ele>553.783</ele>
<time>2022-05-25T15:58:18Z</time>
</trkpt>
<trkpt lat="48.023251" lon="11.096478">
<ele>553.783</ele>
<time>2022-05-25T15:58:19Z</time>
</trkpt>
<trkpt lat="48.023262" lon="11.096431">
<ele>553.783</ele>
<time>2022-05-25T15:58:20Z</time>
</trkpt>
<trkpt lat="48.023266" lon="11.09638">
<ele>553.783</ele>
<time>2022-05-25T15:58:21Z</time>
</trkpt>
<trkpt lat="48.02327" lon="11.096318">
<ele>553.783</ele>
<time>2022-05-25T15:58:22Z</time>
</trkpt>
<trkpt lat="48.023273" lon="11.096245">
<ele>553.783</ele>
<time>2022-05-25T15:58:23Z</time>
</trkpt>
<trkpt lat="48.023289" lon="11.096169">
<ele>553.783</ele>
<time>2022-05-25T15:58:24Z</time>
</trkpt>
<trkpt lat="48.023293" lon="11.096084">
<ele>553.783</ele>
<time>2022-05-25T15:58:25Z</time>
</trkpt>
<trkpt lat="48.023293" lon="11.095982">
<ele>553.783</ele>
<time>2022-05-25T15:58:26Z</time>
</trkpt>
<trkpt lat="48.023285" lon="11.095888">
<ele>554.066</ele>
<time>2022-05-25T15:58:27Z</time>
</trkpt>
<trkpt lat="48.023262" lon="11.09581">
<ele>554.238</ele>
<time>2022-05-25T15:58:28Z</time>
</trkpt>
<trkpt lat="48.023224" lon="11.095737">
<ele>554.656</ele>
<time>2022-05-25T15:58:29Z</time>
</trkpt>
<trkpt lat="48.023193" lon="11.095665">
<ele>554.924</ele>
<time>2022-05-25T15:58:30Z</time>
</trkpt>
<trkpt lat="48.023159" lon="11.095615">
<ele>555.48</ele>
<time>2022-05-25T15:58:31Z</time>
</trkpt>
<trkpt lat="48.023132" lon="11.095565">
<ele>555.916</ele>
<time>2022-05-25T15:58:32Z</time>
</trkpt>
<trkpt lat="48.023106" lon="11.095517">
<ele>556.251</ele>
<time>2022-05-25T15:58:33Z</time>
</trkpt>
<trkpt lat="48.023079" lon="11.095475">
<ele>556.469</ele>
<time>2022-05-25T15:58:34Z</time>
</trkpt>
<trkpt lat="48.023052" lon="11.095431">
<ele>556.886</ele>
<time>2022-05-25T15:58:35Z</time>
</trkpt>
<trkpt lat="48.023026" lon="11.095391">
<ele>557.21</ele>
<time>2022-05-25T15:58:36Z</time>
</trkpt>
<trkpt lat="48.022999" lon="11.095345">
<ele>557.438</ele>
<time>2022-05-25T15:58:37Z</time>
</trkpt>
<trkpt lat="48.022972" lon="11.095298">
<ele>557.615</ele>
<time>2022-05-25T15:58:38Z</time>
</trkpt>
<trkpt lat="48.022949" lon="11.09525">
<ele>557.732</ele>
<time>2022-05-25T15:58:39Z</time>
</trkpt>
<trkpt lat="48.022926" lon="11.095199">
<ele>557.797</ele>
<time>2022-05-25T15:58:40Z</time>
</trkpt>
<trkpt lat="48.022903" lon="11.095146">
<ele>558.11</ele>
<time>2022-05-25T15:58:42Z</time>
</trkpt>
<trkpt lat="48.022858" lon="11.095061">
<ele>558.526</ele>
<time>2022-05-25T15:58:43Z</time>
</trkpt>
<trkpt lat="48.022842" lon="11.095025">
<ele>558.665</ele>
<time>2022-05-25T15:58:44Z</time>
</trkpt>
<trkpt lat="48.02282" lon="11.094988">
<ele>558.769</ele>
<time>2022-05-25T15:58:45Z</time>
</trkpt>
<trkpt lat="48.0228" lon="11.09495">
<ele>558.849</ele>
<time>2022-05-25T15:58:46Z</time>
</trkpt>
<trkpt lat="48.022785" lon="11.094914">
<ele>558.902</ele>
<time>2022-05-25T15:58:47Z</time>
</trkpt>
<trkpt lat="48.022766" lon="11.094876">
<ele>558.928</ele>
<time>2022-05-25T15:58:48Z</time>
</trkpt>
<trkpt lat="48.022751" lon="11.094838">
<ele>559.148</ele>
<time>2022-05-25T15:58:49Z</time>
</trkpt>
<trkpt lat="48.022736" lon="11.094795">
<ele>559.318</ele>
<time>2022-05-25T15:58:50Z</time>
</trkpt>
<trkpt lat="48.022728" lon="11.09475">
<ele>559.481</ele>
<time>2022-05-25T15:58:51Z</time>
</trkpt>
<trkpt lat="48.02272" lon="11.094705">
<ele>559.86</ele>
<time>2022-05-25T15:58:52Z</time>
</trkpt>
<trkpt lat="48.02272" lon="11.094657">
<ele>560.167</ele>
<time>2022-05-25T15:58:53Z</time>
</trkpt>
<trkpt lat="48.02272" lon="11.094612">
<ele>560.405</ele>
<time>2022-05-25T15:58:54Z</time>
</trkpt>
<trkpt lat="48.02272" lon="11.09457">
<ele>560.588</ele>
<time>2022-05-25T15:58:55Z</time>
</trkpt>
<trkpt lat="48.022724" lon="11.094528">
<ele>560.706</ele>
<time>2022-05-25T15:58:56Z</time>
</trkpt>
<trkpt lat="48.022728" lon="11.094483">
<ele>560.823</ele>
<time>2022-05-25T15:58:57Z</time>
</trkpt>
<trkpt lat="48.022732" lon="11.094447">
<ele>560.847</ele>
<time>2022-05-25T15:58:58Z</time>
</trkpt>
<trkpt lat="48.022732" lon="11.094405">
<ele>560.847</ele>
<time>2022-05-25T15:58:59Z</time>
</trkpt>
<trkpt lat="48.022732" lon="11.094361">
<ele>560.847</ele>
<time>2022-05-25T15:59:00Z</time>
</trkpt>
<trkpt lat="48.022743" lon="11.094321">
<ele>561.075</ele>
<time>2022-05-25T15:59:01Z</time>
</trkpt>
<trkpt lat="48.022751" lon="11.094281">
<ele>561.273</ele>
<time>2022-05-25T15:59:02Z</time>
</trkpt>
<trkpt lat="48.022747" lon="11.094248">
<ele>561.435</ele>
<time>2022-05-25T15:59:03Z</time>
</trkpt>
<trkpt lat="48.022736" lon="11.094223">
<ele>561.562</ele>
<time>2022-05-25T15:59:04Z</time>
</trkpt>
<trkpt lat="48.022713" lon="11.094202">
<ele>561.661</ele>
<time>2022-05-25T15:59:05Z</time>
</trkpt>
<trkpt lat="48.022686" lon="11.094189">
<ele>561.739</ele>
<time>2022-05-25T15:59:06Z</time>
</trkpt>
<trkpt lat="48.022652" lon="11.094189">
<ele>561.783</ele>
<time>2022-05-25T15:59:07Z</time>
</trkpt>
<trkpt lat="48.022617" lon="11.094195">
<ele>561.807</ele>
<time>2022-05-25T15:59:08Z</time>
</trkpt>
<trkpt lat="48.022579" lon="11.094208">
<ele>562.061</ele>
<time>2022-05-25T15:59:09Z</time>
</trkpt>
<trkpt lat="48.022545" lon="11.094222">
<ele>562.238</ele>
<time>2022-05-25T15:59:10Z</time>
</trkpt>
<trkpt lat="48.022507" lon="11.094238">
<ele>562.425</ele>
<time>2022-05-25T15:59:11Z</time>
</trkpt>
<trkpt lat="48.022465" lon="11.094254">
<ele>562.557</ele>
<time>2022-05-25T15:59:12Z</time>
</trkpt>
<trkpt lat="48.022423" lon="11.094272">
<ele>562.642</ele>
<time>2022-05-25T15:59:13Z</time>
</trkpt>
<trkpt lat="48.022373" lon="11.094292">
<ele>562.707</ele>
<time>2022-05-25T15:59:14Z</time>
</trkpt>
<trkpt lat="48.022327" lon="11.094318">
<ele>562.744</ele>
<time>2022-05-25T15:59:15Z</time>
</trkpt>
<trkpt lat="48.022278" lon="11.094345">
<ele>562.766</ele>
<time>2022-05-25T15:59:16Z</time>
</trkpt>
<trkpt lat="48.022232" lon="11.094369">
<ele>562.766</ele>
<time>2022-05-25T15:59:17Z</time>
</trkpt>
<trkpt lat="48.022182" lon="11.094392">
<ele>562.766</ele>
<time>2022-05-25T15:59:18Z</time>
</trkpt>
<trkpt lat="48.022133" lon="11.094418">
<ele>562.766</ele>
<time>2022-05-25T15:59:19Z</time>
</trkpt>
<trkpt lat="48.022087" lon="11.094443">
<ele>562.766</ele>
<time>2022-05-25T15:59:20Z</time>
</trkpt>
<trkpt lat="48.022034" lon="11.09447">
<ele>562.766</ele>
<time>2022-05-25T15:59:21Z</time>
</trkpt>
<trkpt lat="48.021988" lon="11.094495">
<ele>562.477</ele>
<time>2022-05-25T15:59:22Z</time>
</trkpt>
<trkpt lat="48.021935" lon="11.094514">
<ele>562.255</ele>
<time>2022-05-25T15:59:23Z</time>
</trkpt>
<trkpt lat="48.021877" lon="11.09453">
<ele>562.117</ele>
<time>2022-05-25T15:59:24Z</time>
</trkpt>
<trkpt lat="48.021824" lon="11.094547">
<ele>561.688</ele>
<time>2022-05-25T15:59:25Z</time>
</trkpt>
<trkpt lat="48.02177" lon="11.094562">
<ele>561.378</ele>
<time>2022-05-25T15:59:26Z</time>
</trkpt>
<trkpt lat="48.021713" lon="11.094572">
<ele>561.153</ele>
<time>2022-05-25T15:59:27Z</time>
</trkpt>
<trkpt lat="48.021664" lon="11.094575">
<ele>561.004</ele>
<time>2022-05-25T15:59:28Z</time>
</trkpt>
<trkpt lat="48.02161" lon="11.094577">
<ele>560.91</ele>
<time>2022-05-25T15:59:29Z</time>
</trkpt>
<trkpt lat="48.021561" lon="11.094579">
<ele>560.845</ele>
<time>2022-05-25T15:59:30Z</time>
</trkpt>
<trkpt lat="48.021515" lon="11.094577">
<ele>560.788</ele>
<time>2022-05-25T15:59:31Z</time>
</trkpt>
<trkpt lat="48.021465" lon="11.094577">
<ele>560.76</ele>
<time>2022-05-25T15:59:32Z</time>
</trkpt>
<trkpt lat="48.021416" lon="11.094577">
<ele>560.76</ele>
<time>2022-05-25T15:59:33Z</time>
</trkpt>
<trkpt lat="48.02137" lon="11.094584">
<ele>560.76</ele>
<time>2022-05-25T15:59:34Z</time>
</trkpt>
<trkpt lat="48.021317" lon="11.094589">
<ele>560.76</ele>
<time>2022-05-25T15:59:35Z</time>
</trkpt>
<trkpt lat="48.021271" lon="11.094597">
<ele>560.76</ele>
<time>2022-05-25T15:59:36Z</time>
</trkpt>
<trkpt lat="48.021221" lon="11.094605">
<ele>560.76</ele>
<time>2022-05-25T15:59:37Z</time>
</trkpt>
<trkpt lat="48.021175" lon="11.094622">
<ele>560.76</ele>
<time>2022-05-25T15:59:38Z</time>
</trkpt>
<trkpt lat="48.02113" lon="11.094646">
<ele>560.76</ele>
<time>2022-05-25T15:59:39Z</time>
</trkpt>
<trkpt lat="48.021076" lon="11.094675">
<ele>560.566</ele>
<time>2022-05-25T15:59:40Z</time>
</trkpt>
<trkpt lat="48.021023" lon="11.094708">
<ele>560.378</ele>
<time>2022-05-25T15:59:41Z</time>
</trkpt>
<trkpt lat="48.020962" lon="11.094747">
<ele>560.223</ele>
<time>2022-05-25T15:59:42Z</time>
</trkpt>
<trkpt lat="48.020901" lon="11.094785">
<ele>560.123</ele>
<time>2022-05-25T15:59:43Z</time>
</trkpt>
<trkpt lat="48.02084" lon="11.094827">
<ele>559.766</ele>
<time>2022-05-25T15:59:44Z</time>
</trkpt>
<trkpt lat="48.020782" lon="11.094868">
<ele>559.495</ele>
<time>2022-05-25T15:59:45Z</time>
</trkpt>
<trkpt lat="48.020725" lon="11.094902">
<ele>559.29</ele>
<time>2022-05-25T15:59:46Z</time>
</trkpt>
<trkpt lat="48.02066" lon="11.094932">
<ele>559.147</ele>
<time>2022-05-25T15:59:47Z</time>
</trkpt>
<trkpt lat="48.020588" lon="11.094962">
<ele>559.044</ele>
<time>2022-05-25T15:59:48Z</time>
</trkpt>
<trkpt lat="48.020512" lon="11.09499">
<ele>558.993</ele>
<time>2022-05-25T15:59:49Z</time>
</trkpt>
<trkpt lat="48.020443" lon="11.095013">
<ele>558.954</ele>
<time>2022-05-25T15:59:50Z</time>
</trkpt>
<trkpt lat="48.020374" lon="11.095034">
<ele>558.928</ele>
<time>2022-05-25T15:59:51Z</time>
</trkpt>
<trkpt lat="48.020309" lon="11.095057">
<ele>558.928</ele>
<time>2022-05-25T15:59:52Z</time>
</trkpt>
<trkpt lat="48.020241" lon="11.095081">
<ele>558.646</ele>
<time>2022-05-25T15:59:53Z</time>
</trkpt>
<trkpt lat="48.020176" lon="11.095105">
<ele>558.432</ele>
<time>2022-05-25T15:59:54Z</time>
</trkpt>
<trkpt lat="48.020111" lon="11.095134">
<ele>558.275</ele>
<time>2022-05-25T15:59:55Z</time>
</trkpt>
<trkpt lat="48.020046" lon="11.095159">
<ele>558.178</ele>
<time>2022-05-25T15:59:56Z</time>
</trkpt>
<trkpt lat="48.019981" lon="11.095188">
<ele>557.865</ele>
<time>2022-05-25T15:59:57Z</time>
</trkpt>
<trkpt lat="48.019917" lon="11.09522">
<ele>557.627</ele>
<time>2022-05-25T15:59:58Z</time>
</trkpt>
<trkpt lat="48.019852" lon="11.095247">
<ele>557.459</ele>
<time>2022-05-25T15:59:59Z</time>
</trkpt>
<trkpt lat="48.019787" lon="11.095275">
<ele>557.34</ele>
<time>2022-05-25T16:00:00Z</time>
</trkpt>
<trkpt lat="48.01973" lon="11.095306">
<ele>557.24</ele>
<time>2022-05-25T16:00:01Z</time>
</trkpt>
<trkpt lat="48.019676" lon="11.095335">
<ele>557.166</ele>
<time>2022-05-25T16:00:02Z</time>
</trkpt>
<trkpt lat="48.019619" lon="11.095366">
<ele>557.119</ele>
<time>2022-05-25T16:00:03Z</time>
</trkpt>
<trkpt lat="48.019558" lon="11.095393">
<ele>557.096</ele>
<time>2022-05-25T16:00:04Z</time>
</trkpt>
<trkpt lat="48.019501" lon="11.095419">
<ele>557.096</ele>
<time>2022-05-25T16:00:05Z</time>
</trkpt>
<trkpt lat="48.019432" lon="11.095435">
<ele>557.096</ele>
<time>2022-05-25T16:00:06Z</time>
</trkpt>
<trkpt lat="48.019367" lon="11.095445">
<ele>557.096</ele>
<time>2022-05-25T16:00:07Z</time>
</trkpt>
<trkpt lat="48.01931" lon="11.095452">
<ele>557.096</ele>
<time>2022-05-25T16:00:08Z</time>
</trkpt>
<trkpt lat="48.019257" lon="11.095459">
<ele>557.096</ele>
<time>2022-05-25T16:00:09Z</time>
</trkpt>
<trkpt lat="48.019199" lon="11.095465">
<ele>557.096</ele>
<time>2022-05-25T16:00:10Z</time>
</trkpt>
<trkpt lat="48.019138" lon="11.095465">
<ele>557.096</ele>
<time>2022-05-25T16:00:11Z</time>
</trkpt>
<trkpt lat="48.019077" lon="11.095465">
<ele>557.096</ele>
<time>2022-05-25T16:00:12Z</time>
</trkpt>
<trkpt lat="48.01902" lon="11.095469">
<ele>557.096</ele>
<time>2022-05-25T16:00:13Z</time>
</trkpt>
<trkpt lat="48.018963" lon="11.095467">
<ele>556.832</ele>
<time>2022-05-25T16:00:14Z</time>
</trkpt>
<trkpt lat="48.018906" lon="11.095467">
<ele>556.623</ele>
<time>2022-05-25T16:00:15Z</time>
</trkpt>
<trkpt lat="48.018856" lon="11.095469">
<ele>556.458</ele>
<time>2022-05-25T16:00:16Z</time>
</trkpt>
<trkpt lat="48.018795" lon="11.095475">
<ele>556.341</ele>
<time>2022-05-25T16:00:17Z</time>
</trkpt>
<trkpt lat="48.018742" lon="11.095475">
<ele>556.259</ele>
<time>2022-05-25T16:00:18Z</time>
</trkpt>
<trkpt lat="48.018684" lon="11.095475">
<ele>556.209</ele>
<time>2022-05-25T16:00:19Z</time>
</trkpt>
<trkpt lat="48.018635" lon="11.095478">
<ele>556.166</ele>
<time>2022-05-25T16:00:20Z</time>
</trkpt>
<trkpt lat="48.018581" lon="11.095484">
<ele>556.137</ele>
<time>2022-05-25T16:00:21Z</time>
</trkpt>
<trkpt lat="48.018532" lon="11.095487">
<ele>556.137</ele>
<time>2022-05-25T16:00:22Z</time>
</trkpt>
<trkpt lat="48.018478" lon="11.095489">
<ele>556.138</ele>
<time>2022-05-25T16:00:23Z</time>
</trkpt>
<trkpt lat="48.018425" lon="11.095489">
<ele>556.137</ele>
<time>2022-05-25T16:00:24Z</time>
</trkpt>
<trkpt lat="48.018375" lon="11.095486">
<ele>556.137</ele>
<time>2022-05-25T16:00:25Z</time>
</trkpt>
<trkpt lat="48.018322" lon="11.095484">
<ele>556.137</ele>
<time>2022-05-25T16:00:26Z</time>
</trkpt>
<trkpt lat="48.018276" lon="11.09548">
<ele>556.137</ele>
<time>2022-05-25T16:00:27Z</time>
</trkpt>
<trkpt lat="48.018234" lon="11.09548">
<ele>556.137</ele>
<time>2022-05-25T16:00:28Z</time>
</trkpt>
<trkpt lat="48.018192" lon="11.095482">
<ele>556.137</ele>
<time>2022-05-25T16:00:29Z</time>
</trkpt>
<trkpt lat="48.018162" lon="11.095486">
<ele>556.137</ele>
<time>2022-05-25T16:00:30Z</time>
</trkpt>
<trkpt lat="48.018131" lon="11.09549">
<ele>556.137</ele>
<time>2022-05-25T16:00:31Z</time>
</trkpt>
<trkpt lat="48.018097" lon="11.095492">
<ele>556.137</ele>
<time>2022-05-25T16:00:32Z</time>
</trkpt>
<trkpt lat="48.018066" lon="11.095493">
<ele>556.137</ele>
<time>2022-05-25T16:00:33Z</time>
</trkpt>
<trkpt lat="48.018032" lon="11.09549">
<ele>556.137</ele>
<time>2022-05-25T16:00:34Z</time>
</trkpt>
<trkpt lat="48.017994" lon="11.09549">
<ele>556.137</ele>
<time>2022-05-25T16:00:35Z</time>
</trkpt>
<trkpt lat="48.01796" lon="11.095482">
<ele>556.137</ele>
<time>2022-05-25T16:00:36Z</time>
</trkpt>
<trkpt lat="48.017921" lon="11.095469">
<ele>556.137</ele>
<time>2022-05-25T16:00:37Z</time>
</trkpt>
<trkpt lat="48.017876" lon="11.095461">
<ele>556.137</ele>
<time>2022-05-25T16:00:38Z</time>
</trkpt>
<trkpt lat="48.01783" lon="11.095461">
<ele>556.137</ele>
<time>2022-05-25T16:00:39Z</time>
</trkpt>
<trkpt lat="48.017784" lon="11.095461">
<ele>556.137</ele>
<time>2022-05-25T16:00:40Z</time>
</trkpt>
<trkpt lat="48.017735" lon="11.095461">
<ele>556.137</ele>
<time>2022-05-25T16:00:41Z</time>
</trkpt>
<trkpt lat="48.017685" lon="11.095457">
<ele>556.137</ele>
<time>2022-05-25T16:00:42Z</time>
</trkpt>
<trkpt lat="48.017616" lon="11.095444">
<ele>556.137</ele>
<time>2022-05-25T16:00:43Z</time>
</trkpt>
<trkpt lat="48.017555" lon="11.095429">
<ele>556.137</ele>
<time>2022-05-25T16:00:44Z</time>
</trkpt>
<trkpt lat="48.017502" lon="11.095424">
<ele>556.137</ele>
<time>2022-05-25T16:00:45Z</time>
</trkpt>
<trkpt lat="48.017448" lon="11.095407">
<ele>556.137</ele>
<time>2022-05-25T16:00:46Z</time>
</trkpt>
<trkpt lat="48.017399" lon="11.095398">
<ele>556.137</ele>
<time>2022-05-25T16:00:47Z</time>
</trkpt>
<trkpt lat="48.017345" lon="11.095396">
<ele>556.137</ele>
<time>2022-05-25T16:00:48Z</time>
</trkpt>
<trkpt lat="48.017292" lon="11.095387">
<ele>556.137</ele>
<time>2022-05-25T16:00:49Z</time>
</trkpt>
<trkpt lat="48.017242" lon="11.09537">
<ele>556.137</ele>
<time>2022-05-25T16:00:50Z</time>
</trkpt>
<trkpt lat="48.017189" lon="11.095354">
<ele>556.137</ele>
<time>2022-05-25T16:00:51Z</time>
</trkpt>
<trkpt lat="48.017143" lon="11.095339">
<ele>556.137</ele>
<time>2022-05-25T16:00:52Z</time>
</trkpt>
<trkpt lat="48.017094" lon="11.095319">
<ele>556.137</ele>
<time>2022-05-25T16:00:53Z</time>
</trkpt>
<trkpt lat="48.017048" lon="11.095295">
<ele>556.137</ele>
<time>2022-05-25T16:00:54Z</time>
</trkpt>
<trkpt lat="48.017002" lon="11.095272">
<ele>556.137</ele>
<time>2022-05-25T16:00:55Z</time>
</trkpt>
<trkpt lat="48.016956" lon="11.095247">
<ele>556.137</ele>
<time>2022-05-25T16:00:56Z</time>
</trkpt>
<trkpt lat="48.016914" lon="11.095222">
<ele>556.137</ele>
<time>2022-05-25T16:00:57Z</time>
</trkpt>
<trkpt lat="48.016869" lon="11.095193">
<ele>556.137</ele>
<time>2022-05-25T16:00:58Z</time>
</trkpt>
<trkpt lat="48.016827" lon="11.095163">
<ele>556.137</ele>
<time>2022-05-25T16:00:59Z</time>
</trkpt>
<trkpt lat="48.016788" lon="11.09513">
<ele>556.137</ele>
<time>2022-05-25T16:01:00Z</time>
</trkpt>
<trkpt lat="48.01675" lon="11.095098">
<ele>556.137</ele>
<time>2022-05-25T16:01:01Z</time>
</trkpt>
<trkpt lat="48.016712" lon="11.09507">
<ele>556.391</ele>
<time>2022-05-25T16:01:02Z</time>
</trkpt>
<trkpt lat="48.016663" lon="11.095046">
<ele>556.593</ele>
<time>2022-05-25T16:01:03Z</time>
</trkpt>
<trkpt lat="48.016621" lon="11.095016">
<ele>556.746</ele>
<time>2022-05-25T16:01:04Z</time>
</trkpt>
<trkpt lat="48.016582" lon="11.09499">
<ele>556.856</ele>
<time>2022-05-25T16:01:05Z</time>
</trkpt>
<trkpt lat="48.016544" lon="11.094958">
<ele>556.934</ele>
<time>2022-05-25T16:01:06Z</time>
</trkpt>
<trkpt lat="48.016502" lon="11.094935">
<ele>556.983</ele>
<time>2022-05-25T16:01:07Z</time>
</trkpt>
<trkpt lat="48.016457" lon="11.094912">
<ele>557.005</ele>
<time>2022-05-25T16:01:08Z</time>
</trkpt>
<trkpt lat="48.016403" lon="11.094887">
<ele>557.01</ele>
<time>2022-05-25T16:01:09Z</time>
</trkpt>
<trkpt lat="48.016354" lon="11.09486">
<ele>557.01</ele>
<time>2022-05-25T16:01:10Z</time>
</trkpt>
<trkpt lat="48.016304" lon="11.094829">
<ele>557.01</ele>
<time>2022-05-25T16:01:11Z</time>
</trkpt>
<trkpt lat="48.016262" lon="11.094795">
<ele>557.338</ele>
<time>2022-05-25T16:01:12Z</time>
</trkpt>
<trkpt lat="48.016224" lon="11.094762">
<ele>557.587</ele>
<time>2022-05-25T16:01:13Z</time>
</trkpt>
<trkpt lat="48.016178" lon="11.094731">
<ele>557.763</ele>
<time>2022-05-25T16:01:14Z</time>
</trkpt>
<trkpt lat="48.016144" lon="11.094707">
<ele>557.886</ele>
<time>2022-05-25T16:01:15Z</time>
</trkpt>
<trkpt lat="48.016102" lon="11.09468">
<ele>557.972</ele>
<time>2022-05-25T16:01:16Z</time>
</trkpt>
<trkpt lat="48.016068" lon="11.094652">
<ele>558.018</ele>
<time>2022-05-25T16:01:17Z</time>
</trkpt>
<trkpt lat="48.016041" lon="11.094622">
<ele>558.293</ele>
<time>2022-05-25T16:01:18Z</time>
</trkpt>
<trkpt lat="48.016006" lon="11.094597">
<ele>558.499</ele>
<time>2022-05-25T16:01:19Z</time>
</trkpt>
<trkpt lat="48.015972" lon="11.094572">
<ele>558.648</ele>
<time>2022-05-25T16:01:20Z</time>
</trkpt>
<trkpt lat="48.01593" lon="11.094548">
<ele>558.808</ele>
<time>2022-05-25T16:01:21Z</time>
</trkpt>
<trkpt lat="48.015881" lon="11.094532">
<ele>558.93</ele>
<time>2022-05-25T16:01:22Z</time>
</trkpt>
<trkpt lat="48.015842" lon="11.094517">
<ele>559.022</ele>
<time>2022-05-25T16:01:23Z</time>
</trkpt>
<trkpt lat="48.015797" lon="11.094491">
<ele>559.075</ele>
<time>2022-05-25T16:01:24Z</time>
</trkpt>
<trkpt lat="48.015755" lon="11.094466">
<ele>559.103</ele>
<time>2022-05-25T16:01:25Z</time>
</trkpt>
<trkpt lat="48.015728" lon="11.094432">
<ele>559.362</ele>
<time>2022-05-25T16:01:26Z</time>
</trkpt>
<trkpt lat="48.015709" lon="11.094395">
<ele>559.553</ele>
<time>2022-05-25T16:01:27Z</time>
</trkpt>
<trkpt lat="48.015682" lon="11.094358">
<ele>559.696</ele>
<time>2022-05-25T16:01:28Z</time>
</trkpt>
<trkpt lat="48.015659" lon="11.094327">
<ele>559.802</ele>
<time>2022-05-25T16:01:29Z</time>
</trkpt>
<trkpt lat="48.015625" lon="11.094298">
<ele>559.887</ele>
<time>2022-05-25T16:01:30Z</time>
</trkpt>
<trkpt lat="48.015598" lon="11.094269">
<ele>559.975</ele>
<time>2022-05-25T16:01:31Z</time>
</trkpt>
<trkpt lat="48.015564" lon="11.094232">
<ele>560.031</ele>
<time>2022-05-25T16:01:32Z</time>
</trkpt>
<trkpt lat="48.015514" lon="11.094206">
<ele>560.062</ele>
<time>2022-05-25T16:01:33Z</time>
</trkpt>
<trkpt lat="48.015469" lon="11.094185">
<ele>560.062</ele>
<time>2022-05-25T16:01:34Z</time>
</trkpt>
<trkpt lat="48.015411" lon="11.094162">
<ele>560.062</ele>
<time>2022-05-25T16:01:35Z</time>
</trkpt>
<trkpt lat="48.01535" lon="11.09415">
<ele>560.062</ele>
<time>2022-05-25T16:01:36Z</time>
</trkpt>
<trkpt lat="48.015305" lon="11.094133">
<ele>560.062</ele>
<time>2022-05-25T16:01:37Z</time>
</trkpt>
<trkpt lat="48.015255" lon="11.094111">
<ele>560.062</ele>
<time>2022-05-25T16:01:38Z</time>
</trkpt>
<trkpt lat="48.015202" lon="11.094097">
<ele>560.062</ele>
<time>2022-05-25T16:01:39Z</time>
</trkpt>
<trkpt lat="48.015152" lon="11.094084">
<ele>560.062</ele>
<time>2022-05-25T16:01:40Z</time>
</trkpt>
<trkpt lat="48.015091" lon="11.094073">
<ele>560.062</ele>
<time>2022-05-25T16:01:41Z</time>
</trkpt>
<trkpt lat="48.015053" lon="11.094059">
<ele>560.062</ele>
<time>2022-05-25T16:01:42Z</time>
</trkpt>
<trkpt lat="48.015011" lon="11.094047">
<ele>560.062</ele>
<time>2022-05-25T16:01:43Z</time>
</trkpt>
<trkpt lat="48.014969" lon="11.09404">
<ele>560.062</ele>
<time>2022-05-25T16:01:44Z</time>
</trkpt>
<trkpt lat="48.014931" lon="11.094033">
<ele>560.062</ele>
<time>2022-05-25T16:01:45Z</time>
</trkpt>
<trkpt lat="48.014896" lon="11.09403">
<ele>560.062</ele>
<time>2022-05-25T16:01:46Z</time>
</trkpt>
<trkpt lat="48.014843" lon="11.094028">
<ele>560.062</ele>
<time>2022-05-25T16:01:47Z</time>
</trkpt>
<trkpt lat="48.014786" lon="11.094027">
<ele>560.062</ele>
<time>2022-05-25T16:01:48Z</time>
</trkpt>
<trkpt lat="48.014732" lon="11.094033">
<ele>560.062</ele>
<time>2022-05-25T16:01:49Z</time>
</trkpt>
<trkpt lat="48.014679" lon="11.094047">
<ele>560.288</ele>
<time>2022-05-25T16:01:50Z</time>
</trkpt>
<trkpt lat="48.014629" lon="11.094062">
<ele>560.5</ele>
<time>2022-05-25T16:01:51Z</time>
</trkpt>
<trkpt lat="48.014572" lon="11.094075">
<ele>560.672</ele>
<time>2022-05-25T16:01:52Z</time>
</trkpt>
<trkpt lat="48.014534" lon="11.094091">
<ele>560.799</ele>
<time>2022-05-25T16:01:53Z</time>
</trkpt>
<trkpt lat="48.014492" lon="11.094115">
<ele>560.889</ele>
<time>2022-05-25T16:01:54Z</time>
</trkpt>
<trkpt lat="48.01445" lon="11.094141">
<ele>560.95</ele>
<time>2022-05-25T16:01:55Z</time>
</trkpt>
<trkpt lat="48.0144" lon="11.094173">
<ele>560.996</ele>
<time>2022-05-25T16:01:56Z</time>
</trkpt>
<trkpt lat="48.014339" lon="11.094213">
<ele>561.021</ele>
<time>2022-05-25T16:01:57Z</time>
</trkpt>
<trkpt lat="48.014294" lon="11.09425">
<ele>561.021</ele>
<time>2022-05-25T16:01:58Z</time>
</trkpt>
<trkpt lat="48.014252" lon="11.094278">
<ele>561.021</ele>
<time>2022-05-25T16:01:59Z</time>
</trkpt>
<trkpt lat="48.014206" lon="11.09429">
<ele>561.021</ele>
<time>2022-05-25T16:02:00Z</time>
</trkpt>
<trkpt lat="48.014153" lon="11.094305">
<ele>561.021</ele>
<time>2022-05-25T16:02:01Z</time>
</trkpt>
<trkpt lat="48.014095" lon="11.094313">
<ele>561.021</ele>
<time>2022-05-25T16:02:02Z</time>
</trkpt>
<trkpt lat="48.014046" lon="11.094327">
<ele>561.021</ele>
<time>2022-05-25T16:02:03Z</time>
</trkpt>
<trkpt lat="48.013996" lon="11.094344">
<ele>561.021</ele>
<time>2022-05-25T16:02:04Z</time>
</trkpt>
<trkpt lat="48.013954" lon="11.094346">
<ele>561.021</ele>
<time>2022-05-25T16:02:05Z</time>
</trkpt>
<trkpt lat="48.013916" lon="11.094346">
<ele>561.021</ele>
<time>2022-05-25T16:02:06Z</time>
</trkpt>
<trkpt lat="48.01387" lon="11.094355">
<ele>561.021</ele>
<time>2022-05-25T16:02:07Z</time>
</trkpt>
<trkpt lat="48.013821" lon="11.094357">
<ele>561.271</ele>
<time>2022-05-25T16:02:08Z</time>
</trkpt>
<trkpt lat="48.013775" lon="11.094355">
<ele>561.472</ele>
<time>2022-05-25T16:02:09Z</time>
</trkpt>
<trkpt lat="48.013725" lon="11.094353">
<ele>561.614</ele>
<time>2022-05-25T16:02:10Z</time>
</trkpt>
<trkpt lat="48.013672" lon="11.094353">
<ele>561.78</ele>
<time>2022-05-25T16:02:11Z</time>
</trkpt>
<trkpt lat="48.013622" lon="11.094353">
<ele>561.905</ele>
<time>2022-05-25T16:02:12Z</time>
</trkpt>
<trkpt lat="48.013569" lon="11.09435">
<ele>561.996</ele>
<time>2022-05-25T16:02:13Z</time>
</trkpt>
<trkpt lat="48.013523" lon="11.094344">
<ele>562.045</ele>
<time>2022-05-25T16:02:14Z</time>
</trkpt>
<trkpt lat="48.013474" lon="11.094332">
<ele>562.068</ele>
<time>2022-05-25T16:02:15Z</time>
</trkpt>
<trkpt lat="48.013432" lon="11.094316">
<ele>562.068</ele>
<time>2022-05-25T16:02:16Z</time>
</trkpt>
<trkpt lat="48.01339" lon="11.0943">
<ele>562.068</ele>
<time>2022-05-25T16:02:17Z</time>
</trkpt>
<trkpt lat="48.013344" lon="11.094287">
<ele>562.068</ele>
<time>2022-05-25T16:02:18Z</time>
</trkpt>
<trkpt lat="48.013302" lon="11.094274">
<ele>562.068</ele>
<time>2022-05-25T16:02:19Z</time>
</trkpt>
<trkpt lat="48.013256" lon="11.094258">
<ele>562.068</ele>
<time>2022-05-25T16:02:20Z</time>
</trkpt>
<trkpt lat="48.013206" lon="11.094246">
<ele>562.068</ele>
<time>2022-05-25T16:02:21Z</time>
</trkpt>
<trkpt lat="48.013168" lon="11.094232">
<ele>562.068</ele>
<time>2022-05-25T16:02:22Z</time>
</trkpt>
<trkpt lat="48.013126" lon="11.094214">
<ele>562.068</ele>
<time>2022-05-25T16:02:23Z</time>
</trkpt>
<trkpt lat="48.013088" lon="11.0942">
<ele>562.309</ele>
<time>2022-05-25T16:02:24Z</time>
</trkpt>
<trkpt lat="48.013058" lon="11.094189">
<ele>562.493</ele>
<time>2022-05-25T16:02:25Z</time>
</trkpt>
<trkpt lat="48.013027" lon="11.094178">
<ele>562.638</ele>
<time>2022-05-25T16:02:26Z</time>
</trkpt>
<trkpt lat="48.013" lon="11.094171">
<ele>562.744</ele>
<time>2022-05-25T16:02:27Z</time>
</trkpt>
<trkpt lat="48.01297" lon="11.094162">
<ele>562.813</ele>
<time>2022-05-25T16:02:28Z</time>
</trkpt>
<trkpt lat="48.012939" lon="11.094153">
<ele>562.866</ele>
<time>2022-05-25T16:02:29Z</time>
</trkpt>
<trkpt lat="48.012905" lon="11.094147">
<ele>562.913</ele>
<time>2022-05-25T16:02:30Z</time>
</trkpt>
<trkpt lat="48.012875" lon="11.094149">
<ele>562.941</ele>
<time>2022-05-25T16:02:31Z</time>
</trkpt>
<trkpt lat="48.012844" lon="11.094158">
<ele>562.941</ele>
<time>2022-05-25T16:02:32Z</time>
</trkpt>
<trkpt lat="48.012825" lon="11.094176">
<ele>562.941</ele>
<time>2022-05-25T16:02:33Z</time>
</trkpt>
<trkpt lat="48.01281" lon="11.0942">
<ele>562.941</ele>
<time>2022-05-25T16:02:34Z</time>
</trkpt>
<trkpt lat="48.012791" lon="11.094225">
<ele>562.941</ele>
<time>2022-05-25T16:02:35Z</time>
</trkpt>
<trkpt lat="48.012775" lon="11.094254">
<ele>562.941</ele>
<time>2022-05-25T16:02:36Z</time>
</trkpt>
<trkpt lat="48.012756" lon="11.094296">
<ele>562.941</ele>
<time>2022-05-25T16:02:37Z</time>
</trkpt>
<trkpt lat="48.012737" lon="11.094353">
<ele>562.941</ele>
<time>2022-05-25T16:02:38Z</time>
</trkpt>
<trkpt lat="48.012711" lon="11.094409">
<ele>562.941</ele>
<time>2022-05-25T16:02:39Z</time>
</trkpt>
<trkpt lat="48.012684" lon="11.094472">
<ele>562.941</ele>
<time>2022-05-25T16:02:40Z</time>
</trkpt>
<trkpt lat="48.012661" lon="11.09454">
<ele>562.941</ele>
<time>2022-05-25T16:02:41Z</time>
</trkpt>
<trkpt lat="48.012634" lon="11.09461">
<ele>562.941</ele>
<time>2022-05-25T16:02:42Z</time>
</trkpt>
<trkpt lat="48.012611" lon="11.094688">
<ele>562.64</ele>
<time>2022-05-25T16:02:43Z</time>
</trkpt>
<trkpt lat="48.012585" lon="11.094763">
<ele>562.446</ele>
<time>2022-05-25T16:02:44Z</time>
</trkpt>
<trkpt lat="48.012554" lon="11.094838">
<ele>562.315</ele>
<time>2022-05-25T16:02:45Z</time>
</trkpt>
<trkpt lat="48.012516" lon="11.094905">
<ele>562.244</ele>
<time>2022-05-25T16:02:46Z</time>
</trkpt>
<trkpt lat="48.012486" lon="11.094973">
<ele>561.908</ele>
<time>2022-05-25T16:02:47Z</time>
</trkpt>
<trkpt lat="48.012463" lon="11.095036">
<ele>561.67</ele>
<time>2022-05-25T16:02:48Z</time>
</trkpt>
<trkpt lat="48.01244" lon="11.095095">
<ele>561.496</ele>
<time>2022-05-25T16:02:49Z</time>
</trkpt>
<trkpt lat="48.012417" lon="11.095159">
<ele>561.375</ele>
<time>2022-05-25T16:02:50Z</time>
</trkpt>
<trkpt lat="48.012398" lon="11.09521">
<ele>561.27</ele>
<time>2022-05-25T16:02:51Z</time>
</trkpt>
<trkpt lat="48.012379" lon="11.095266">
<ele>561.189</ele>
<time>2022-05-25T16:02:52Z</time>
</trkpt>
<trkpt lat="48.01236" lon="11.095323">
<ele>561.136</ele>
<time>2022-05-25T16:02:53Z</time>
</trkpt>
<trkpt lat="48.012341" lon="11.095382">
<ele>561.109</ele>
<time>2022-05-25T16:02:54Z</time>
</trkpt>
<trkpt lat="48.012318" lon="11.095453">
<ele>560.853</ele>
<time>2022-05-25T16:02:55Z</time>
</trkpt>
<trkpt lat="48.012287" lon="11.095515">
<ele>560.642</ele>
<time>2022-05-25T16:02:56Z</time>
</trkpt>
<trkpt lat="48.012264" lon="11.09557">
<ele>560.48</ele>
<time>2022-05-25T16:02:57Z</time>
</trkpt>
<trkpt lat="48.012241" lon="11.095631">
<ele>560.362</ele>
<time>2022-05-25T16:02:58Z</time>
</trkpt>
<trkpt lat="48.012222" lon="11.095685">
<ele>560.279</ele>
<time>2022-05-25T16:02:59Z</time>
</trkpt>
<trkpt lat="48.012192" lon="11.09575">
<ele>560.224</ele>
<time>2022-05-25T16:03:00Z</time>
</trkpt>
<trkpt lat="48.012177" lon="11.0958">
<ele>560.172</ele>
<time>2022-05-25T16:03:01Z</time>
</trkpt>
<trkpt lat="48.012161" lon="11.095852">
<ele>560.149</ele>
<time>2022-05-25T16:03:02Z</time>
</trkpt>
<trkpt lat="48.012142" lon="11.095901">
<ele>560.149</ele>
<time>2022-05-25T16:03:03Z</time>
</trkpt>
<trkpt lat="48.012123" lon="11.095957">
<ele>560.149</ele>
<time>2022-05-25T16:03:04Z</time>
</trkpt>
<trkpt lat="48.012096" lon="11.096006">
<ele>560.149</ele>
<time>2022-05-25T16:03:05Z</time>
</trkpt>
<trkpt lat="48.01207" lon="11.09605">
<ele>560.149</ele>
<time>2022-05-25T16:03:06Z</time>
</trkpt>
<trkpt lat="48.012035" lon="11.096095">
<ele>560.149</ele>
<time>2022-05-25T16:03:07Z</time>
</trkpt>
<trkpt lat="48.011997" lon="11.096133">
<ele>560.149</ele>
<time>2022-05-25T16:03:08Z</time>
</trkpt>
<trkpt lat="48.011963" lon="11.096173">
<ele>559.928</ele>
<time>2022-05-25T16:03:09Z</time>
</trkpt>
<trkpt lat="48.011921" lon="11.096238">
<ele>559.776</ele>
<time>2022-05-25T16:03:10Z</time>
</trkpt>
<trkpt lat="48.011871" lon="11.096296">
<ele>559.614</ele>
<time>2022-05-25T16:03:11Z</time>
</trkpt>
<trkpt lat="48.011826" lon="11.096341">
<ele>559.49</ele>
<time>2022-05-25T16:03:12Z</time>
</trkpt>
<trkpt lat="48.011776" lon="11.09639">
<ele>559.394</ele>
<time>2022-05-25T16:03:13Z</time>
</trkpt>
<trkpt lat="48.011734" lon="11.096418">
<ele>559.331</ele>
<time>2022-05-25T16:03:14Z</time>
</trkpt>
<trkpt lat="48.011673" lon="11.096473">
<ele>559.296</ele>
<time>2022-05-25T16:03:15Z</time>
</trkpt>
<trkpt lat="48.011627" lon="11.096508">
<ele>559.277</ele>
<time>2022-05-25T16:03:16Z</time>
</trkpt>
<trkpt lat="48.011574" lon="11.096543">
<ele>559.277</ele>
<time>2022-05-25T16:03:17Z</time>
</trkpt>
<trkpt lat="48.01152" lon="11.096575">
<ele>559.277</ele>
<time>2022-05-25T16:03:18Z</time>
</trkpt>
<trkpt lat="48.011471" lon="11.096585">
<ele>559.277</ele>
<time>2022-05-25T16:03:19Z</time>
</trkpt>
<trkpt lat="48.011421" lon="11.096605">
<ele>559.277</ele>
<time>2022-05-25T16:03:20Z</time>
</trkpt>
<trkpt lat="48.011372" lon="11.096613">
<ele>559.277</ele>
<time>2022-05-25T16:03:21Z</time>
</trkpt>
<trkpt lat="48.011314" lon="11.096618">
<ele>559.277</ele>
<time>2022-05-25T16:03:22Z</time>
</trkpt>
<trkpt lat="48.011253" lon="11.096617">
<ele>559.277</ele>
<time>2022-05-25T16:03:23Z</time>
</trkpt>
<trkpt lat="48.011208" lon="11.096618">
<ele>559.277</ele>
<time>2022-05-25T16:03:24Z</time>
</trkpt>
<trkpt lat="48.01115" lon="11.096623">
<ele>559.277</ele>
<time>2022-05-25T16:03:25Z</time>
</trkpt>
<trkpt lat="48.011097" lon="11.096625">
<ele>559.277</ele>
<time>2022-05-25T16:03:26Z</time>
</trkpt>
<trkpt lat="48.011047" lon="11.096635">
<ele>559.277</ele>
<time>2022-05-25T16:03:27Z</time>
</trkpt>
<trkpt lat="48.011005" lon="11.096635">
<ele>559.277</ele>
<time>2022-05-25T16:03:28Z</time>
</trkpt>
<trkpt lat="48.010956" lon="11.09663">
<ele>559.277</ele>
<time>2022-05-25T16:03:29Z</time>
</trkpt>
<trkpt lat="48.01091" lon="11.096628">
<ele>559.277</ele>
<time>2022-05-25T16:03:30Z</time>
</trkpt>
<trkpt lat="48.010864" lon="11.096622">
<ele>559.277</ele>
<time>2022-05-25T16:03:31Z</time>
</trkpt>
<trkpt lat="48.010811" lon="11.09662">
<ele>559.277</ele>
<time>2022-05-25T16:03:32Z</time>
</trkpt>
<trkpt lat="48.010754" lon="11.096611">
<ele>559.277</ele>
<time>2022-05-25T16:03:33Z</time>
</trkpt>
<trkpt lat="48.010712" lon="11.096594">
<ele>559.547</ele>
<time>2022-05-25T16:03:34Z</time>
</trkpt>
<trkpt lat="48.010662" lon="11.09657">
<ele>559.765</ele>
<time>2022-05-25T16:03:35Z</time>
</trkpt>
<trkpt lat="48.010612" lon="11.096548">
<ele>559.926</ele>
<time>2022-05-25T16:03:36Z</time>
</trkpt>
<trkpt lat="48.010578" lon="11.096521">
<ele>560.039</ele>
<time>2022-05-25T16:03:37Z</time>
</trkpt>
<trkpt lat="48.010532" lon="11.096492">
<ele>560.12</ele>
<time>2022-05-25T16:03:38Z</time>
</trkpt>
<trkpt lat="48.010494" lon="11.09646">
<ele>560.17</ele>
<time>2022-05-25T16:03:39Z</time>
</trkpt>
<trkpt lat="48.010452" lon="11.096423">
<ele>560.207</ele>
<time>2022-05-25T16:03:40Z</time>
</trkpt>
<trkpt lat="48.010414" lon="11.096385">
<ele>560.236</ele>
<time>2022-05-25T16:03:41Z</time>
</trkpt>
<trkpt lat="48.01038" lon="11.096354">
<ele>560.236</ele>
<time>2022-05-25T16:03:42Z</time>
</trkpt>
<trkpt lat="48.010338" lon="11.096329">
<ele>560.236</ele>
<time>2022-05-25T16:03:43Z</time>
</trkpt>
<trkpt lat="48.010292" lon="11.096298">
<ele>560.236</ele>
<time>2022-05-25T16:03:44Z</time>
</trkpt>
<trkpt lat="48.010246" lon="11.096268">
<ele>560.236</ele>
<time>2022-05-25T16:03:45Z</time>
</trkpt>
<trkpt lat="48.010201" lon="11.09624">
<ele>560.236</ele>
<time>2022-05-25T16:03:46Z</time>
</trkpt>
<trkpt lat="48.010166" lon="11.096213">
<ele>560.236</ele>
<time>2022-05-25T16:03:47Z</time>
</trkpt>
<trkpt lat="48.010132" lon="11.096198">
<ele>560.236</ele>
<time>2022-05-25T16:03:48Z</time>
</trkpt>
<trkpt lat="48.01009" lon="11.096184">
<ele>560.236</ele>
<time>2022-05-25T16:03:49Z</time>
</trkpt>
<trkpt lat="48.01004" lon="11.096169">
<ele>560.445</ele>
<time>2022-05-25T16:03:50Z</time>
</trkpt>
<trkpt lat="48.009983" lon="11.096152">
<ele>560.647</ele>
<time>2022-05-25T16:03:51Z</time>
</trkpt>
<trkpt lat="48.009926" lon="11.096138">
<ele>560.812</ele>
<time>2022-05-25T16:03:52Z</time>
</trkpt>
<trkpt lat="48.009876" lon="11.096129">
<ele>560.952</ele>
<time>2022-05-25T16:03:53Z</time>
</trkpt>
<trkpt lat="48.009823" lon="11.096113">
<ele>561.061</ele>
<time>2022-05-25T16:03:54Z</time>
</trkpt>
<trkpt lat="48.009769" lon="11.096093">
<ele>561.135</ele>
<time>2022-05-25T16:03:55Z</time>
</trkpt>
<trkpt lat="48.009712" lon="11.096072">
<ele>561.179</ele>
<time>2022-05-25T16:03:56Z</time>
</trkpt>
<trkpt lat="48.009659" lon="11.096055">
<ele>561.196</ele>
<time>2022-05-25T16:03:57Z</time>
</trkpt>
<trkpt lat="48.009613" lon="11.096037">
<ele>561.196</ele>
<time>2022-05-25T16:03:58Z</time>
</trkpt>
<trkpt lat="48.00956" lon="11.096008">
<ele>561.196</ele>
<time>2022-05-25T16:03:59Z</time>
</trkpt>
<trkpt lat="48.009506" lon="11.095977">
<ele>561.196</ele>
<time>2022-05-25T16:04:00Z</time>
</trkpt>
<trkpt lat="48.009449" lon="11.095942">
<ele>561.196</ele>
<time>2022-05-25T16:04:01Z</time>
</trkpt>
<trkpt lat="48.009388" lon="11.095905">
<ele>561.196</ele>
<time>2022-05-25T16:04:02Z</time>
</trkpt>
<trkpt lat="48.009338" lon="11.095874">
<ele>561.478</ele>
<time>2022-05-25T16:04:03Z</time>
</trkpt>
<trkpt lat="48.009289" lon="11.095846">
<ele>561.694</ele>
<time>2022-05-25T16:04:04Z</time>
</trkpt>
<trkpt lat="48.009232" lon="11.095821">
<ele>561.861</ele>
<time>2022-05-25T16:04:05Z</time>
</trkpt>
<trkpt lat="48.009178" lon="11.0958">
<ele>561.977</ele>
<time>2022-05-25T16:04:06Z</time>
</trkpt>
<trkpt lat="48.009125" lon="11.095787">
<ele>562.055</ele>
<time>2022-05-25T16:04:07Z</time>
</trkpt>
<trkpt lat="48.00906" lon="11.095778">
<ele>562.106</ele>
<time>2022-05-25T16:04:08Z</time>
</trkpt>
<trkpt lat="48.008999" lon="11.095772">
<ele>562.131</ele>
<time>2022-05-25T16:04:09Z</time>
</trkpt>
<trkpt lat="48.008942" lon="11.095763">
<ele>562.155</ele>
<time>2022-05-25T16:04:10Z</time>
</trkpt>
<trkpt lat="48.008884" lon="11.095758">
<ele>562.155</ele>
<time>2022-05-25T16:04:11Z</time>
</trkpt>
<trkpt lat="48.008831" lon="11.095754">
<ele>562.155</ele>
<time>2022-05-25T16:04:12Z</time>
</trkpt>
<trkpt lat="48.008774" lon="11.09575">
<ele>562.155</ele>
<time>2022-05-25T16:04:13Z</time>
</trkpt>
<trkpt lat="48.008717" lon="11.095748">
<ele>562.155</ele>
<time>2022-05-25T16:04:14Z</time>
</trkpt>
<trkpt lat="48.008659" lon="11.095746">
<ele>562.155</ele>
<time>2022-05-25T16:04:15Z</time>
</trkpt>
<trkpt lat="48.00861" lon="11.095748">
<ele>562.155</ele>
<time>2022-05-25T16:04:16Z</time>
</trkpt>
<trkpt lat="48.00856" lon="11.09575">
<ele>562.155</ele>
<time>2022-05-25T16:04:17Z</time>
</trkpt>
<trkpt lat="48.008507" lon="11.095758">
<ele>562.155</ele>
<time>2022-05-25T16:04:18Z</time>
</trkpt>
<trkpt lat="48.008461" lon="11.095769">
<ele>562.155</ele>
<time>2022-05-25T16:04:19Z</time>
</trkpt>
<trkpt lat="48.008411" lon="11.095779">
<ele>562.155</ele>
<time>2022-05-25T16:04:20Z</time>
</trkpt>
<trkpt lat="48.008369" lon="11.095792">
<ele>562.155</ele>
<time>2022-05-25T16:04:21Z</time>
</trkpt>
<trkpt lat="48.008327" lon="11.095802">
<ele>562.155</ele>
<time>2022-05-25T16:04:22Z</time>
</trkpt>
<trkpt lat="48.008282" lon="11.095811">
<ele>562.155</ele>
<time>2022-05-25T16:04:23Z</time>
</trkpt>
<trkpt lat="48.008244" lon="11.095819">
<ele>562.155</ele>
<time>2022-05-25T16:04:24Z</time>
</trkpt>
<trkpt lat="48.008202" lon="11.09583">
<ele>562.155</ele>
<time>2022-05-25T16:04:25Z</time>
</trkpt>
<trkpt lat="48.008163" lon="11.09584">
<ele>562.155</ele>
<time>2022-05-25T16:04:26Z</time>
</trkpt>
<trkpt lat="48.008129" lon="11.095846">
<ele>562.155</ele>
<time>2022-05-25T16:04:27Z</time>
</trkpt>
<trkpt lat="48.008091" lon="11.095848">
<ele>562.155</ele>
<time>2022-05-25T16:04:28Z</time>
</trkpt>
<trkpt lat="48.008057" lon="11.095842">
<ele>562.358</ele>
<time>2022-05-25T16:04:29Z</time>
</trkpt>
<trkpt lat="48.008018" lon="11.095834">
<ele>562.508</ele>
<time>2022-05-25T16:04:30Z</time>
</trkpt>
<trkpt lat="48.00798" lon="11.095825">
<ele>562.663</ele>
<time>2022-05-25T16:04:31Z</time>
</trkpt>
<trkpt lat="48.007938" lon="11.095815">
<ele>562.792</ele>
<time>2022-05-25T16:04:32Z</time>
</trkpt>
<trkpt lat="48.007893" lon="11.095805">
<ele>562.893</ele>
<time>2022-05-25T16:04:33Z</time>
</trkpt>
<trkpt lat="48.007851" lon="11.095797">
<ele>562.965</ele>
<time>2022-05-25T16:04:34Z</time>
</trkpt>
<trkpt lat="48.007805" lon="11.09579">
<ele>563.009</ele>
<time>2022-05-25T16:04:35Z</time>
</trkpt>
<trkpt lat="48.007755" lon="11.095781">
<ele>563.028</ele>
<time>2022-05-25T16:04:36Z</time>
</trkpt>
<trkpt lat="48.007713" lon="11.095779">
<ele>563.028</ele>
<time>2022-05-25T16:04:37Z</time>
</trkpt>
<trkpt lat="48.007664" lon="11.095781">
<ele>563.028</ele>
<time>2022-05-25T16:04:38Z</time>
</trkpt>
<trkpt lat="48.007618" lon="11.095783">
<ele>563.028</ele>
<time>2022-05-25T16:04:39Z</time>
</trkpt>
<trkpt lat="48.007561" lon="11.095787">
<ele>563.028</ele>
<time>2022-05-25T16:04:40Z</time>
</trkpt>
<trkpt lat="48.007511" lon="11.095785">
<ele>563.028</ele>
<time>2022-05-25T16:04:41Z</time>
</trkpt>
<trkpt lat="48.007458" lon="11.095785">
<ele>563.028</ele>
<time>2022-05-25T16:04:42Z</time>
</trkpt>
<trkpt lat="48.007404" lon="11.095792">
<ele>562.764</ele>
<time>2022-05-25T16:04:43Z</time>
</trkpt>
<trkpt lat="48.007355" lon="11.095798">
<ele>562.565</ele>
<time>2022-05-25T16:04:44Z</time>
</trkpt>
<trkpt lat="48.007301" lon="11.095802">
<ele>562.419</ele>
<time>2022-05-25T16:04:45Z</time>
</trkpt>
<trkpt lat="48.007256" lon="11.095807">
<ele>562.316</ele>
<time>2022-05-25T16:04:46Z</time>
</trkpt>
<trkpt lat="48.007198" lon="11.095813">
<ele>562.243</ele>
<time>2022-05-25T16:04:47Z</time>
</trkpt>
<trkpt lat="48.007141" lon="11.095819">
<ele>562.198</ele>
<time>2022-05-25T16:04:48Z</time>
</trkpt>
<trkpt lat="48.007088" lon="11.09583">
<ele>562.175</ele>
<time>2022-05-25T16:04:49Z</time>
</trkpt>
<trkpt lat="48.007038" lon="11.095839">
<ele>562.155</ele>
<time>2022-05-25T16:04:50Z</time>
</trkpt>
<trkpt lat="48.006985" lon="11.095844">
<ele>562.155</ele>
<time>2022-05-25T16:04:51Z</time>
</trkpt>
<trkpt lat="48.006935" lon="11.095846">
<ele>562.155</ele>
<time>2022-05-25T16:04:52Z</time>
</trkpt>
<trkpt lat="48.006882" lon="11.095853">
<ele>561.85</ele>
<time>2022-05-25T16:04:53Z</time>
</trkpt>
<trkpt lat="48.00684" lon="11.095861">
<ele>561.619</ele>
<time>2022-05-25T16:04:54Z</time>
</trkpt>
<trkpt lat="48.006794" lon="11.095861">
<ele>561.45</ele>
<time>2022-05-25T16:04:55Z</time>
</trkpt>
<trkpt lat="48.006744" lon="11.095868">
<ele>561.316</ele>
<time>2022-05-25T16:04:56Z</time>
</trkpt>
<trkpt lat="48.006699" lon="11.095877">
<ele>561.222</ele>
<time>2022-05-25T16:04:57Z</time>
</trkpt>
<trkpt lat="48.006649" lon="11.095876">
<ele>561.162</ele>
<time>2022-05-25T16:04:58Z</time>
</trkpt>
<trkpt lat="48.006599" lon="11.095878">
<ele>561.135</ele>
<time>2022-05-25T16:04:59Z</time>
</trkpt>
<trkpt lat="48.006554" lon="11.095884">
<ele>561.109</ele>
<time>2022-05-25T16:05:00Z</time>
</trkpt>
<trkpt lat="48.006508" lon="11.095886">
<ele>561.109</ele>
<time>2022-05-25T16:05:01Z</time>
</trkpt>
<trkpt lat="48.006454" lon="11.095886">
<ele>561.109</ele>
<time>2022-05-25T16:05:02Z</time>
</trkpt>
<trkpt lat="48.006409" lon="11.095874">
<ele>561.109</ele>
<time>2022-05-25T16:05:03Z</time>
</trkpt>
<trkpt lat="48.006355" lon="11.095874">
<ele>561.109</ele>
<time>2022-05-25T16:05:04Z</time>
</trkpt>
<trkpt lat="48.006302" lon="11.095874">
<ele>561.375</ele>
<time>2022-05-25T16:05:05Z</time>
</trkpt>
<trkpt lat="48.006252" lon="11.095877">
<ele>561.579</ele>
<time>2022-05-25T16:05:06Z</time>
</trkpt>
<trkpt lat="48.006203" lon="11.095883">
<ele>561.737</ele>
<time>2022-05-25T16:05:07Z</time>
</trkpt>
<trkpt lat="48.006153" lon="11.095888">
<ele>561.853</ele>
<time>2022-05-25T16:05:08Z</time>
</trkpt>
<trkpt lat="48.006107" lon="11.095895">
<ele>561.932</ele>
<time>2022-05-25T16:05:09Z</time>
</trkpt>
<trkpt lat="48.006062" lon="11.095903">
<ele>561.989</ele>
<time>2022-05-25T16:05:10Z</time>
</trkpt>
<trkpt lat="48.00602" lon="11.095909">
<ele>562.043</ele>
<time>2022-05-25T16:05:11Z</time>
</trkpt>
<trkpt lat="48.005978" lon="11.095915">
<ele>562.068</ele>
<time>2022-05-25T16:05:12Z</time>
</trkpt>
<trkpt lat="48.005936" lon="11.095917">
<ele>562.068</ele>
<time>2022-05-25T16:05:13Z</time>
</trkpt>
<trkpt lat="48.005898" lon="11.095915">
<ele>562.068</ele>
<time>2022-05-25T16:05:14Z</time>
</trkpt>
<trkpt lat="48.005859" lon="11.09591">
<ele>562.068</ele>
<time>2022-05-25T16:05:15Z</time>
</trkpt>
<trkpt lat="48.005821" lon="11.095905">
<ele>562.068</ele>
<time>2022-05-25T16:05:16Z</time>
</trkpt>
<trkpt lat="48.005779" lon="11.095907">
<ele>562.068</ele>
<time>2022-05-25T16:05:17Z</time>
</trkpt>
<trkpt lat="48.005737" lon="11.095905">
<ele>562.068</ele>
<time>2022-05-25T16:05:18Z</time>
</trkpt>
<trkpt lat="48.005692" lon="11.095901">
<ele>562.068</ele>
<time>2022-05-25T16:05:19Z</time>
</trkpt>
<trkpt lat="48.005642" lon="11.095901">
<ele>562.068</ele>
<time>2022-05-25T16:05:20Z</time>
</trkpt>
<trkpt lat="48.0056" lon="11.095901">
<ele>562.068</ele>
<time>2022-05-25T16:05:21Z</time>
</trkpt>
<trkpt lat="48.005554" lon="11.095905">
<ele>562.068</ele>
<time>2022-05-25T16:05:22Z</time>
</trkpt>
<trkpt lat="48.005497" lon="11.095911">
<ele>562.068</ele>
<time>2022-05-25T16:05:23Z</time>
</trkpt>
<trkpt lat="48.00544" lon="11.095911">
<ele>562.068</ele>
<time>2022-05-25T16:05:24Z</time>
</trkpt>
<trkpt lat="48.005386" lon="11.095911">
<ele>562.068</ele>
<time>2022-05-25T16:05:25Z</time>
</trkpt>
<trkpt lat="48.005329" lon="11.095911">
<ele>562.068</ele>
<time>2022-05-25T16:05:26Z</time>
</trkpt>
<trkpt lat="48.005272" lon="11.095913">
<ele>562.068</ele>
<time>2022-05-25T16:05:27Z</time>
</trkpt>
<trkpt lat="48.005211" lon="11.095918">
<ele>562.068</ele>
<time>2022-05-25T16:05:28Z</time>
</trkpt>
<trkpt lat="48.00515" lon="11.095923">
<ele>562.068</ele>
<time>2022-05-25T16:05:29Z</time>
</trkpt>
<trkpt lat="48.005093" lon="11.095923">
<ele>562.068</ele>
<time>2022-05-25T16:05:30Z</time>
</trkpt>
<trkpt lat="48.005035" lon="11.095926">
<ele>562.068</ele>
<time>2022-05-25T16:05:31Z</time>
</trkpt>
<trkpt lat="48.004978" lon="11.095928">
<ele>562.068</ele>
<time>2022-05-25T16:05:32Z</time>
</trkpt>
<trkpt lat="48.004921" lon="11.095926">
<ele>562.068</ele>
<time>2022-05-25T16:05:33Z</time>
</trkpt>
<trkpt lat="48.00486" lon="11.095928">
<ele>562.068</ele>
<time>2022-05-25T16:05:34Z</time>
</trkpt>
<trkpt lat="48.004803" lon="11.095928">
<ele>562.068</ele>
<time>2022-05-25T16:05:35Z</time>
</trkpt>
<trkpt lat="48.004745" lon="11.095928">
<ele>562.068</ele>
<time>2022-05-25T16:05:36Z</time>
</trkpt>
<trkpt lat="48.004681" lon="11.095932">
<ele>562.068</ele>
<time>2022-05-25T16:05:37Z</time>
</trkpt>
<trkpt lat="48.004623" lon="11.095939">
<ele>562.068</ele>
<time>2022-05-25T16:05:38Z</time>
</trkpt>
<trkpt lat="48.004562" lon="11.095945">
<ele>562.068</ele>
<time>2022-05-25T16:05:39Z</time>
</trkpt>
<trkpt lat="48.004505" lon="11.095948">
<ele>562.068</ele>
<time>2022-05-25T16:05:40Z</time>
</trkpt>
<trkpt lat="48.004448" lon="11.09595">
<ele>562.068</ele>
<time>2022-05-25T16:05:41Z</time>
</trkpt>
<trkpt lat="48.004379" lon="11.095955">
<ele>562.068</ele>
<time>2022-05-25T16:05:42Z</time>
</trkpt>
<trkpt lat="48.004318" lon="11.095958">
<ele>561.786</ele>
<time>2022-05-25T16:05:43Z</time>
</trkpt>
<trkpt lat="48.004265" lon="11.095965">
<ele>561.572</ele>
<time>2022-05-25T16:05:44Z</time>
</trkpt>
<trkpt lat="48.004204" lon="11.095968">
<ele>561.409</ele>
<time>2022-05-25T16:05:45Z</time>
</trkpt>
<trkpt lat="48.004147" lon="11.095972">
<ele>561.286</ele>
<time>2022-05-25T16:05:46Z</time>
</trkpt>
<trkpt lat="48.004089" lon="11.095974">
<ele>561.205</ele>
<time>2022-05-25T16:05:47Z</time>
</trkpt>
<trkpt lat="48.00404" lon="11.09597">
<ele>561.155</ele>
<time>2022-05-25T16:05:48Z</time>
</trkpt>
<trkpt lat="48.003979" lon="11.09597">
<ele>561.131</ele>
<time>2022-05-25T16:05:49Z</time>
</trkpt>
<trkpt lat="48.003922" lon="11.095972">
<ele>561.109</ele>
<time>2022-05-25T16:05:50Z</time>
</trkpt>
<trkpt lat="48.003864" lon="11.095972">
<ele>561.109</ele>
<time>2022-05-25T16:05:51Z</time>
</trkpt>
<trkpt lat="48.003811" lon="11.095972">
<ele>561.109</ele>
<time>2022-05-25T16:05:52Z</time>
</trkpt>
<trkpt lat="48.003754" lon="11.095975">
<ele>561.109</ele>
<time>2022-05-25T16:05:53Z</time>
</trkpt>
<trkpt lat="48.0037" lon="11.095984">
<ele>561.109</ele>
<time>2022-05-25T16:05:54Z</time>
</trkpt>
<trkpt lat="48.003647" lon="11.095988">
<ele>561.109</ele>
<time>2022-05-25T16:05:55Z</time>
</trkpt>
<trkpt lat="48.003593" lon="11.09599">
<ele>561.109</ele>
<time>2022-05-25T16:05:56Z</time>
</trkpt>
<trkpt lat="48.00354" lon="11.095997">
<ele>561.109</ele>
<time>2022-05-25T16:05:57Z</time>
</trkpt>
<trkpt lat="48.003487" lon="11.096002">
<ele>561.109</ele>
<time>2022-05-25T16:05:58Z</time>
</trkpt>
<trkpt lat="48.003433" lon="11.096008">
<ele>561.109</ele>
<time>2022-05-25T16:05:59Z</time>
</trkpt>
<trkpt lat="48.00338" lon="11.096014">
<ele>561.109</ele>
<time>2022-05-25T16:06:00Z</time>
</trkpt>
<trkpt lat="48.00333" lon="11.09602">
<ele>561.109</ele>
<time>2022-05-25T16:06:01Z</time>
</trkpt>
<trkpt lat="48.003288" lon="11.096025">
<ele>561.109</ele>
<time>2022-05-25T16:06:02Z</time>
</trkpt>
<trkpt lat="48.003242" lon="11.09603">
<ele>561.109</ele>
<time>2022-05-25T16:06:03Z</time>
</trkpt>
<trkpt lat="48.003197" lon="11.096031">
<ele>561.109</ele>
<time>2022-05-25T16:06:04Z</time>
</trkpt>
<trkpt lat="48.003159" lon="11.096033">
<ele>561.109</ele>
<time>2022-05-25T16:06:05Z</time>
</trkpt>
<trkpt lat="48.003117" lon="11.096037">
<ele>561.109</ele>
<time>2022-05-25T16:06:06Z</time>
</trkpt>
<trkpt lat="48.003075" lon="11.09604">
<ele>561.109</ele>
<time>2022-05-25T16:06:07Z</time>
</trkpt>
<trkpt lat="48.003025" lon="11.096045">
<ele>561.109</ele>
<time>2022-05-25T16:06:08Z</time>
</trkpt>
<trkpt lat="48.002972" lon="11.09605">
<ele>561.109</ele>
<time>2022-05-25T16:06:09Z</time>
</trkpt>
<trkpt lat="48.002922" lon="11.096055">
<ele>561.109</ele>
<time>2022-05-25T16:06:10Z</time>
</trkpt>
<trkpt lat="48.002869" lon="11.096062">
<ele>561.109</ele>
<time>2022-05-25T16:06:11Z</time>
</trkpt>
<trkpt lat="48.002815" lon="11.096066">
<ele>561.109</ele>
<time>2022-05-25T16:06:12Z</time>
</trkpt>
<trkpt lat="48.002762" lon="11.096072">
<ele>561.109</ele>
<time>2022-05-25T16:06:13Z</time>
</trkpt>
<trkpt lat="48.002708" lon="11.09607">
<ele>561.109</ele>
<time>2022-05-25T16:06:14Z</time>
</trkpt>
<trkpt lat="48.002659" lon="11.096073">
<ele>561.109</ele>
<time>2022-05-25T16:06:15Z</time>
</trkpt>
<trkpt lat="48.002609" lon="11.096077">
<ele>561.109</ele>
<time>2022-05-25T16:06:16Z</time>
</trkpt>
<trkpt lat="48.00256" lon="11.096084">
<ele>561.109</ele>
<time>2022-05-25T16:06:17Z</time>
</trkpt>
<trkpt lat="48.002506" lon="11.096091">
<ele>561.109</ele>
<time>2022-05-25T16:06:18Z</time>
</trkpt>
<trkpt lat="48.002449" lon="11.096102">
<ele>561.108</ele>
<time>2022-05-25T16:06:19Z</time>
</trkpt>
<trkpt lat="48.002392" lon="11.09611">
<ele>561.109</ele>
<time>2022-05-25T16:06:20Z</time>
</trkpt>
<trkpt lat="48.002335" lon="11.096108">
<ele>561.109</ele>
<time>2022-05-25T16:06:21Z</time>
</trkpt>
<trkpt lat="48.002277" lon="11.096105">
<ele>561.109</ele>
<time>2022-05-25T16:06:22Z</time>
</trkpt>
<trkpt lat="48.00222" lon="11.096105">
<ele>561.109</ele>
<time>2022-05-25T16:06:23Z</time>
</trkpt>
<trkpt lat="48.002163" lon="11.09611">
<ele>561.109</ele>
<time>2022-05-25T16:06:24Z</time>
</trkpt>
<trkpt lat="48.00211" lon="11.096113">
<ele>561.109</ele>
<time>2022-05-25T16:06:25Z</time>
</trkpt>
<trkpt lat="48.002052" lon="11.096117">
<ele>561.109</ele>
<time>2022-05-25T16:06:26Z</time>
</trkpt>
<trkpt lat="48.001991" lon="11.096119">
<ele>561.109</ele>
<time>2022-05-25T16:06:27Z</time>
</trkpt>
<trkpt lat="48.00193" lon="11.096121">
<ele>560.868</ele>
<time>2022-05-25T16:06:28Z</time>
</trkpt>
<trkpt lat="48.001873" lon="11.096127">
<ele>560.676</ele>
<time>2022-05-25T16:06:29Z</time>
</trkpt>
<trkpt lat="48.001816" lon="11.096133">
<ele>560.545</ele>
<time>2022-05-25T16:06:30Z</time>
</trkpt>
<trkpt lat="48.001759" lon="11.096144">
<ele>560.404</ele>
<time>2022-05-25T16:06:31Z</time>
</trkpt>
<trkpt lat="48.001698" lon="11.096156">
<ele>560.297</ele>
<time>2022-05-25T16:06:32Z</time>
</trkpt>
<trkpt lat="48.001656" lon="11.096173">
<ele>560.225</ele>
<time>2022-05-25T16:06:33Z</time>
</trkpt>
<trkpt lat="48.001617" lon="11.096187">
<ele>559.972</ele>
<time>2022-05-25T16:06:34Z</time>
</trkpt>
<trkpt lat="48.001587" lon="11.096196">
<ele>559.783</ele>
<time>2022-05-25T16:06:35Z</time>
</trkpt>
<trkpt lat="48.001568" lon="11.0962">
<ele>559.599</ele>
<time>2022-05-25T16:06:36Z</time>
</trkpt>
<trkpt lat="48.00156" lon="11.096198">
<ele>559.495</ele>
<time>2022-05-25T16:06:37Z</time>
</trkpt>
<trkpt lat="48.001564" lon="11.096194">
<ele>559.419</ele>
<time>2022-05-25T16:06:38Z</time>
</trkpt>
<trkpt lat="48.001564" lon="11.096191">
<ele>559.371</ele>
<time>2022-05-25T16:06:39Z</time>
</trkpt>
<trkpt lat="48.001564" lon="11.096189">
<ele>559.315</ele>
<time>2022-05-25T16:06:40Z</time>
</trkpt>
<trkpt lat="48.001549" lon="11.096169">
<ele>559.277</ele>
<time>2022-05-25T16:07:18Z</time>
</trkpt>
<trkpt lat="48.001534" lon="11.09616">
<ele>559.277</ele>
<time>2022-05-25T16:07:19Z</time>
</trkpt>
<trkpt lat="48.001522" lon="11.09615">
<ele>559.277</ele>
<time>2022-05-25T16:07:20Z</time>
</trkpt>
<trkpt lat="48.001495" lon="11.096146">
<ele>559.277</ele>
<time>2022-05-25T16:07:21Z</time>
</trkpt>
<trkpt lat="48.001469" lon="11.096142">
<ele>559.277</ele>
<time>2022-05-25T16:07:22Z</time>
</trkpt>
<trkpt lat="48.001438" lon="11.096142">
<ele>559.277</ele>
<time>2022-05-25T16:07:23Z</time>
</trkpt>
<trkpt lat="48.0014" lon="11.096147">
<ele>559.277</ele>
<time>2022-05-25T16:07:24Z</time>
</trkpt>
<trkpt lat="48.001358" lon="11.096152">
<ele>559.277</ele>
<time>2022-05-25T16:07:25Z</time>
</trkpt>
<trkpt lat="48.001312" lon="11.096153">
<ele>559.277</ele>
<time>2022-05-25T16:07:26Z</time>
</trkpt>
<trkpt lat="48.001266" lon="11.096152">
<ele>559.014</ele>
<time>2022-05-25T16:07:27Z</time>
</trkpt>
<trkpt lat="48.001225" lon="11.096153">
<ele>558.815</ele>
<time>2022-05-25T16:07:28Z</time>
</trkpt>
<trkpt lat="48.001179" lon="11.096158">
<ele>558.367</ele>
<time>2022-05-25T16:07:29Z</time>
</trkpt>
<trkpt lat="48.001129" lon="11.096167">
<ele>558.027</ele>
<time>2022-05-25T16:07:30Z</time>
</trkpt>
<trkpt lat="48.001068" lon="11.096184">
<ele>557.823</ele>
<time>2022-05-25T16:07:31Z</time>
</trkpt>
<trkpt lat="48.001007" lon="11.096202">
<ele>557.309</ele>
<time>2022-05-25T16:07:32Z</time>
</trkpt>
<trkpt lat="48.000938" lon="11.09622">
<ele>556.906</ele>
<time>2022-05-25T16:07:33Z</time>
</trkpt>
<trkpt lat="48.00087" lon="11.096228">
<ele>556.827</ele>
<time>2022-05-25T16:07:34Z</time>
</trkpt>
<trkpt lat="48.000816" lon="11.096228">
<ele>556.774</ele>
<time>2022-05-25T16:07:35Z</time>
</trkpt>
<trkpt lat="48.000778" lon="11.096227">
<ele>556.806</ele>
<time>2022-05-25T16:07:36Z</time>
</trkpt>
<trkpt lat="48.00074" lon="11.096235">
<ele>556.836</ele>
<time>2022-05-25T16:07:37Z</time>
</trkpt>
<trkpt lat="48.000698" lon="11.096243">
<ele>556.867</ele>
<time>2022-05-25T16:07:38Z</time>
</trkpt>
<trkpt lat="48.000633" lon="11.096247">
<ele>556.901</ele>
<time>2022-05-25T16:07:39Z</time>
</trkpt>
<trkpt lat="48.00058" lon="11.096251">
<ele>556.933</ele>
<time>2022-05-25T16:07:40Z</time>
</trkpt>
<trkpt lat="48.000519" lon="11.096238">
<ele>556.982</ele>
<time>2022-05-25T16:07:41Z</time>
</trkpt>
<trkpt lat="48.000454" lon="11.096235">
<ele>557.01</ele>
<time>2022-05-25T16:07:42Z</time>
</trkpt>
<trkpt lat="48.000393" lon="11.096228">
<ele>557.283</ele>
<time>2022-05-25T16:07:43Z</time>
</trkpt>
<trkpt lat="48.000324" lon="11.096231">
<ele>557.498</ele>
<time>2022-05-25T16:07:44Z</time>
</trkpt>
<trkpt lat="48.000244" lon="11.09624">
<ele>557.648</ele>
<time>2022-05-25T16:07:45Z</time>
</trkpt>
<trkpt lat="48.00016" lon="11.096243">
<ele>557.54</ele>
<time>2022-05-25T16:07:46Z</time>
</trkpt>
<trkpt lat="48.00008" lon="11.096245">
<ele>557.457</ele>
<time>2022-05-25T16:07:47Z</time>
</trkpt>
<trkpt lat="48.000004" lon="11.096255">
<ele>557.387</ele>
<time>2022-05-25T16:07:48Z</time>
</trkpt>
<trkpt lat="47.999912" lon="11.096259">
<ele>557.32</ele>
<time>2022-05-25T16:07:49Z</time>
</trkpt>
<trkpt lat="47.999825" lon="11.09627">
<ele>557.258</ele>
<time>2022-05-25T16:07:50Z</time>
</trkpt>
<trkpt lat="47.999737" lon="11.096282">
<ele>557.211</ele>
<time>2022-05-25T16:07:51Z</time>
</trkpt>
<trkpt lat="47.999657" lon="11.096294">
<ele>557.155</ele>
<time>2022-05-25T16:07:52Z</time>
</trkpt>
<trkpt lat="47.999573" lon="11.096296">
<ele>557.117</ele>
<time>2022-05-25T16:07:53Z</time>
</trkpt>
<trkpt lat="47.999481" lon="11.09631">
<ele>557.096</ele>
<time>2022-05-25T16:07:54Z</time>
</trkpt>
<trkpt lat="47.999401" lon="11.096318">
<ele>557.096</ele>
<time>2022-05-25T16:07:55Z</time>
</trkpt>
<trkpt lat="47.999317" lon="11.096333">
<ele>557.096</ele>
<time>2022-05-25T16:07:56Z</time>
</trkpt>
<trkpt lat="47.999245" lon="11.096336">
<ele>557.096</ele>
<time>2022-05-25T16:07:57Z</time>
</trkpt>
<trkpt lat="47.999176" lon="11.096334">
<ele>557.096</ele>
<time>2022-05-25T16:07:58Z</time>
</trkpt>
<trkpt lat="47.999096" lon="11.096345">
<ele>557.096</ele>
<time>2022-05-25T16:07:59Z</time>
</trkpt>
<trkpt lat="47.999023" lon="11.096349">
<ele>557.096</ele>
<time>2022-05-25T16:08:00Z</time>
</trkpt>
<trkpt lat="47.998955" lon="11.09635">
<ele>557.096</ele>
<time>2022-05-25T16:08:01Z</time>
</trkpt>
<trkpt lat="47.998871" lon="11.096349">
<ele>557.096</ele>
<time>2022-05-25T16:08:02Z</time>
</trkpt>
<trkpt lat="47.998787" lon="11.096352">
<ele>557.096</ele>
<time>2022-05-25T16:08:03Z</time>
</trkpt>
<trkpt lat="47.998707" lon="11.096358">
<ele>557.096</ele>
<time>2022-05-25T16:08:04Z</time>
</trkpt>
<trkpt lat="47.998627" lon="11.096364">
<ele>557.096</ele>
<time>2022-05-25T16:08:05Z</time>
</trkpt>
<trkpt lat="47.998554" lon="11.096372">
<ele>557.096</ele>
<time>2022-05-25T16:08:06Z</time>
</trkpt>
<trkpt lat="47.998486" lon="11.09638">
<ele>557.096</ele>
<time>2022-05-25T16:08:07Z</time>
</trkpt>
<trkpt lat="47.998413" lon="11.096385">
<ele>557.096</ele>
<time>2022-05-25T16:08:08Z</time>
</trkpt>
<trkpt lat="47.998344" lon="11.096389">
<ele>557.096</ele>
<time>2022-05-25T16:08:09Z</time>
</trkpt>
<trkpt lat="47.998268" lon="11.096392">
<ele>557.096</ele>
<time>2022-05-25T16:08:10Z</time>
</trkpt>
<trkpt lat="47.998196" lon="11.09639">
<ele>557.096</ele>
<time>2022-05-25T16:08:11Z</time>
</trkpt>
<trkpt lat="47.998127" lon="11.09639">
<ele>557.096</ele>
<time>2022-05-25T16:08:12Z</time>
</trkpt>
<trkpt lat="47.998062" lon="11.096395">
<ele>557.096</ele>
<time>2022-05-25T16:08:13Z</time>
</trkpt>
<trkpt lat="47.998001" lon="11.096399">
<ele>557.096</ele>
<time>2022-05-25T16:08:14Z</time>
</trkpt>
<trkpt lat="47.99794" lon="11.096408">
<ele>557.096</ele>
<time>2022-05-25T16:08:15Z</time>
</trkpt>
<trkpt lat="47.997879" lon="11.096416">
<ele>557.096</ele>
<time>2022-05-25T16:08:16Z</time>
</trkpt>
<trkpt lat="47.997822" lon="11.096422">
<ele>557.097</ele>
<time>2022-05-25T16:08:17Z</time>
</trkpt>
<trkpt lat="47.997757" lon="11.096423">
<ele>557.096</ele>
<time>2022-05-25T16:08:18Z</time>
</trkpt>
<trkpt lat="47.9977" lon="11.096425">
<ele>557.097</ele>
<time>2022-05-25T16:08:19Z</time>
</trkpt>
<trkpt lat="47.997627" lon="11.096425">
<ele>557.096</ele>
<time>2022-05-25T16:08:20Z</time>
</trkpt>
<trkpt lat="47.997555" lon="11.096432">
<ele>557.096</ele>
<time>2022-05-25T16:08:21Z</time>
</trkpt>
<trkpt lat="47.99749" lon="11.096438">
<ele>557.096</ele>
<time>2022-05-25T16:08:22Z</time>
</trkpt>
<trkpt lat="47.997429" lon="11.096441">
<ele>557.096</ele>
<time>2022-05-25T16:08:23Z</time>
</trkpt>
<trkpt lat="47.997349" lon="11.096443">
<ele>557.096</ele>
<time>2022-05-25T16:08:24Z</time>
</trkpt>
<trkpt lat="47.997272" lon="11.096447">
<ele>556.847</ele>
<time>2022-05-25T16:08:25Z</time>
</trkpt>
<trkpt lat="47.997208" lon="11.096456">
<ele>556.656</ele>
<time>2022-05-25T16:08:26Z</time>
</trkpt>
<trkpt lat="47.997147" lon="11.096462">
<ele>556.525</ele>
<time>2022-05-25T16:08:27Z</time>
</trkpt>
<trkpt lat="47.997074" lon="11.096469">
<ele>556.478</ele>
<time>2022-05-25T16:08:28Z</time>
</trkpt>
<trkpt lat="47.997017" lon="11.096475">
<ele>556.662</ele>
<time>2022-05-25T16:08:29Z</time>
</trkpt>
<trkpt lat="47.996964" lon="11.096477">
<ele>556.817</ele>
<time>2022-05-25T16:08:30Z</time>
</trkpt>
<trkpt lat="47.996902" lon="11.096481">
<ele>556.949</ele>
<time>2022-05-25T16:08:31Z</time>
</trkpt>
<trkpt lat="47.996838" lon="11.096475">
<ele>557.058</ele>
<time>2022-05-25T16:08:32Z</time>
</trkpt>
<trkpt lat="47.996777" lon="11.096472">
<ele>557.172</ele>
<time>2022-05-25T16:08:33Z</time>
</trkpt>
<trkpt lat="47.996712" lon="11.096483">
<ele>557.242</ele>
<time>2022-05-25T16:08:34Z</time>
</trkpt>
<trkpt lat="47.996651" lon="11.096494">
<ele>557.271</ele>
<time>2022-05-25T16:08:35Z</time>
</trkpt>
<trkpt lat="47.996582" lon="11.096497">
<ele>557.037</ele>
<time>2022-05-25T16:08:36Z</time>
</trkpt>
<trkpt lat="47.996525" lon="11.096498">
<ele>557.012</ele>
<time>2022-05-25T16:08:37Z</time>
</trkpt>
<trkpt lat="47.996464" lon="11.096504">
<ele>556.77</ele>
<time>2022-05-25T16:08:38Z</time>
</trkpt>
<trkpt lat="47.996403" lon="11.096508">
<ele>556.583</ele>
<time>2022-05-25T16:08:39Z</time>
</trkpt>
<trkpt lat="47.996338" lon="11.096504">
<ele>556.429</ele>
<time>2022-05-25T16:08:40Z</time>
</trkpt>
<trkpt lat="47.996281" lon="11.096506">
<ele>556.309</ele>
<time>2022-05-25T16:08:41Z</time>
</trkpt>
<trkpt lat="47.996212" lon="11.096506">
<ele>556.221</ele>
<time>2022-05-25T16:08:42Z</time>
</trkpt>
<trkpt lat="47.996151" lon="11.096504">
<ele>556.165</ele>
<time>2022-05-25T16:08:43Z</time>
</trkpt>
<trkpt lat="47.996086" lon="11.096508">
<ele>556.137</ele>
<time>2022-05-25T16:08:44Z</time>
</trkpt>
<trkpt lat="47.996017" lon="11.096513">
<ele>556.137</ele>
<time>2022-05-25T16:08:45Z</time>
</trkpt>
<trkpt lat="47.995968" lon="11.096525">
<ele>556.137</ele>
<time>2022-05-25T16:08:46Z</time>
</trkpt>
<trkpt lat="47.995922" lon="11.096537">
<ele>556.137</ele>
<time>2022-05-25T16:08:47Z</time>
</trkpt>
<trkpt lat="47.99588" lon="11.096543">
<ele>556.137</ele>
<time>2022-05-25T16:08:48Z</time>
</trkpt>
<trkpt lat="47.995831" lon="11.096543">
<ele>556.137</ele>
<time>2022-05-25T16:08:49Z</time>
</trkpt>
<trkpt lat="47.995777" lon="11.096541">
<ele>556.137</ele>
<time>2022-05-25T16:08:50Z</time>
</trkpt>
<trkpt lat="47.995724" lon="11.096543">
<ele>556.137</ele>
<time>2022-05-25T16:08:51Z</time>
</trkpt>
<trkpt lat="47.995663" lon="11.096539">
<ele>556.137</ele>
<time>2022-05-25T16:08:52Z</time>
</trkpt>
<trkpt lat="47.995602" lon="11.096548">
<ele>556.137</ele>
<time>2022-05-25T16:08:53Z</time>
</trkpt>
<trkpt lat="47.995544" lon="11.096553">
<ele>556.137</ele>
<time>2022-05-25T16:08:54Z</time>
</trkpt>
<trkpt lat="47.995495" lon="11.096557">
<ele>556.137</ele>
<time>2022-05-25T16:08:55Z</time>
</trkpt>
<trkpt lat="47.995441" lon="11.096563">
<ele>556.137</ele>
<time>2022-05-25T16:08:56Z</time>
</trkpt>
<trkpt lat="47.995399" lon="11.09657">
<ele>556.137</ele>
<time>2022-05-25T16:08:57Z</time>
</trkpt>
<trkpt lat="47.995354" lon="11.096567">
<ele>556.137</ele>
<time>2022-05-25T16:08:58Z</time>
</trkpt>
<trkpt lat="47.9953" lon="11.096563">
<ele>556.138</ele>
<time>2022-05-25T16:08:59Z</time>
</trkpt>
<trkpt lat="47.995251" lon="11.096565">
<ele>556.137</ele>
<time>2022-05-25T16:09:00Z</time>
</trkpt>
<trkpt lat="47.995193" lon="11.09657">
<ele>556.137</ele>
<time>2022-05-25T16:09:01Z</time>
</trkpt>
<trkpt lat="47.99514" lon="11.096575">
<ele>556.137</ele>
<time>2022-05-25T16:09:02Z</time>
</trkpt>
<trkpt lat="47.995079" lon="11.096577">
<ele>556.137</ele>
<time>2022-05-25T16:09:03Z</time>
</trkpt>
<trkpt lat="47.995029" lon="11.096585">
<ele>556.137</ele>
<time>2022-05-25T16:09:04Z</time>
</trkpt>
<trkpt lat="47.994972" lon="11.096594">
<ele>556.137</ele>
<time>2022-05-25T16:09:05Z</time>
</trkpt>
<trkpt lat="47.994915" lon="11.096594">
<ele>556.137</ele>
<time>2022-05-25T16:09:06Z</time>
</trkpt>
<trkpt lat="47.994869" lon="11.096592">
<ele>556.137</ele>
<time>2022-05-25T16:09:07Z</time>
</trkpt>
<trkpt lat="47.994831" lon="11.096588">
<ele>556.137</ele>
<time>2022-05-25T16:09:08Z</time>
</trkpt>
<trkpt lat="47.994789" lon="11.096585">
<ele>556.137</ele>
<time>2022-05-25T16:09:09Z</time>
</trkpt>
<trkpt lat="47.994751" lon="11.09658">
<ele>556.137</ele>
<time>2022-05-25T16:09:10Z</time>
</trkpt>
<trkpt lat="47.994713" lon="11.096581">
<ele>556.137</ele>
<time>2022-05-25T16:09:11Z</time>
</trkpt>
<trkpt lat="47.994675" lon="11.096581">
<ele>556.137</ele>
<time>2022-05-25T16:09:12Z</time>
</trkpt>
<trkpt lat="47.994637" lon="11.09658">
<ele>556.137</ele>
<time>2022-05-25T16:09:13Z</time>
</trkpt>
<trkpt lat="47.994598" lon="11.096585">
<ele>556.137</ele>
<time>2022-05-25T16:09:14Z</time>
</trkpt>
<trkpt lat="47.994564" lon="11.096595">
<ele>556.137</ele>
<time>2022-05-25T16:09:15Z</time>
</trkpt>
<trkpt lat="47.99453" lon="11.09661">
<ele>556.137</ele>
<time>2022-05-25T16:09:16Z</time>
</trkpt>
<trkpt lat="47.994503" lon="11.09662">
<ele>556.137</ele>
<time>2022-05-25T16:09:17Z</time>
</trkpt>
<trkpt lat="47.994473" lon="11.09662">
<ele>556.137</ele>
<time>2022-05-25T16:09:18Z</time>
</trkpt>
<trkpt lat="47.994438" lon="11.096613">
<ele>556.137</ele>
<time>2022-05-25T16:09:19Z</time>
</trkpt>
<trkpt lat="47.994404" lon="11.096613">
<ele>556.137</ele>
<time>2022-05-25T16:09:20Z</time>
</trkpt>
<trkpt lat="47.994373" lon="11.096608">
<ele>556.137</ele>
<time>2022-05-25T16:09:21Z</time>
</trkpt>
<trkpt lat="47.99435" lon="11.096607">
<ele>556.137</ele>
<time>2022-05-25T16:09:22Z</time>
</trkpt>
<trkpt lat="47.994324" lon="11.096608">
<ele>556.355</ele>
<time>2022-05-25T16:09:23Z</time>
</trkpt>
<trkpt lat="47.994286" lon="11.096617">
<ele>556.537</ele>
<time>2022-05-25T16:09:24Z</time>
</trkpt>
<trkpt lat="47.994259" lon="11.09662">
<ele>556.676</ele>
<time>2022-05-25T16:09:25Z</time>
</trkpt>
<trkpt lat="47.994232" lon="11.09662">
<ele>556.78</ele>
<time>2022-05-25T16:09:26Z</time>
</trkpt>
<trkpt lat="47.994205" lon="11.096617">
<ele>556.85</ele>
<time>2022-05-25T16:09:27Z</time>
</trkpt>
<trkpt lat="47.994171" lon="11.096615">
<ele>556.93</ele>
<time>2022-05-25T16:09:28Z</time>
</trkpt>
<trkpt lat="47.994129" lon="11.09661">
<ele>557.229</ele>
<time>2022-05-25T16:09:29Z</time>
</trkpt>
<trkpt lat="47.994091" lon="11.096607">
<ele>557.462</ele>
<time>2022-05-25T16:09:30Z</time>
</trkpt>
<trkpt lat="47.994038" lon="11.09661">
<ele>557.706</ele>
<time>2022-05-25T16:09:31Z</time>
</trkpt>
<trkpt lat="47.993999" lon="11.096615">
<ele>557.811</ele>
<time>2022-05-25T16:09:32Z</time>
</trkpt>
<trkpt lat="47.993961" lon="11.096613">
<ele>557.903</ele>
<time>2022-05-25T16:09:33Z</time>
</trkpt>
<trkpt lat="47.993916" lon="11.096615">
<ele>557.945</ele>
<time>2022-05-25T16:09:34Z</time>
</trkpt>
<trkpt lat="47.99387" lon="11.096623">
<ele>557.963</ele>
<time>2022-05-25T16:09:35Z</time>
</trkpt>
<trkpt lat="47.993828" lon="11.096634">
<ele>557.969</ele>
<time>2022-05-25T16:09:36Z</time>
</trkpt>
<trkpt lat="47.99379" lon="11.096641">
<ele>557.969</ele>
<time>2022-05-25T16:09:37Z</time>
</trkpt>
<trkpt lat="47.993752" lon="11.096642">
<ele>557.969</ele>
<time>2022-05-25T16:09:38Z</time>
</trkpt>
<trkpt lat="47.993713" lon="11.096642">
<ele>557.969</ele>
<time>2022-05-25T16:09:39Z</time>
</trkpt>
<trkpt lat="47.993671" lon="11.096644">
<ele>557.969</ele>
<time>2022-05-25T16:09:40Z</time>
</trkpt>
<trkpt lat="47.993622" lon="11.096651">
<ele>557.969</ele>
<time>2022-05-25T16:09:41Z</time>
</trkpt>
<trkpt lat="47.993576" lon="11.096642">
<ele>557.969</ele>
<time>2022-05-25T16:09:42Z</time>
</trkpt>
<trkpt lat="47.993534" lon="11.096639">
<ele>557.969</ele>
<time>2022-05-25T16:09:43Z</time>
</trkpt>
<trkpt lat="47.993496" lon="11.096642">
<ele>557.969</ele>
<time>2022-05-25T16:09:44Z</time>
</trkpt>
<trkpt lat="47.993454" lon="11.096651">
<ele>557.969</ele>
<time>2022-05-25T16:09:45Z</time>
</trkpt>
<trkpt lat="47.993408" lon="11.096662">
<ele>557.969</ele>
<time>2022-05-25T16:09:46Z</time>
</trkpt>
<trkpt lat="47.993359" lon="11.096665">
<ele>557.969</ele>
<time>2022-05-25T16:09:47Z</time>
</trkpt>
<trkpt lat="47.993313" lon="11.096663">
<ele>557.969</ele>
<time>2022-05-25T16:09:48Z</time>
</trkpt>
<trkpt lat="47.993271" lon="11.096663">
<ele>557.969</ele>
<time>2022-05-25T16:09:49Z</time>
</trkpt>
<trkpt lat="47.993233" lon="11.096663">
<ele>557.969</ele>
<time>2022-05-25T16:09:50Z</time>
</trkpt>
<trkpt lat="47.993187" lon="11.096663">
<ele>557.969</ele>
<time>2022-05-25T16:09:51Z</time>
</trkpt>
<trkpt lat="47.993134" lon="11.09667">
<ele>557.969</ele>
<time>2022-05-25T16:09:52Z</time>
</trkpt>
<trkpt lat="47.993092" lon="11.096678">
<ele>557.969</ele>
<time>2022-05-25T16:09:53Z</time>
</trkpt>
<trkpt lat="47.993053" lon="11.096688">
<ele>557.969</ele>
<time>2022-05-25T16:09:54Z</time>
</trkpt>
<trkpt lat="47.992996" lon="11.096699">
<ele>557.969</ele>
<time>2022-05-25T16:09:55Z</time>
</trkpt>
<trkpt lat="47.992935" lon="11.096697">
<ele>557.969</ele>
<time>2022-05-25T16:09:56Z</time>
</trkpt>
<trkpt lat="47.992889" lon="11.0967">
<ele>557.969</ele>
<time>2022-05-25T16:09:57Z</time>
</trkpt>
<trkpt lat="47.992844" lon="11.096707">
<ele>557.969</ele>
<time>2022-05-25T16:09:58Z</time>
</trkpt>
<trkpt lat="47.992798" lon="11.09672">
<ele>557.969</ele>
<time>2022-05-25T16:09:59Z</time>
</trkpt>
<trkpt lat="47.992752" lon="11.09672">
<ele>557.969</ele>
<time>2022-05-25T16:10:00Z</time>
</trkpt>
<trkpt lat="47.992706" lon="11.096724">
<ele>557.699</ele>
<time>2022-05-25T16:10:01Z</time>
</trkpt>
<trkpt lat="47.992661" lon="11.09673">
<ele>557.496</ele>
<time>2022-05-25T16:10:02Z</time>
</trkpt>
<trkpt lat="47.992599" lon="11.09673">
<ele>557.345</ele>
<time>2022-05-25T16:10:03Z</time>
</trkpt>
<trkpt lat="47.992542" lon="11.096735">
<ele>557.223</ele>
<time>2022-05-25T16:10:04Z</time>
</trkpt>
<trkpt lat="47.992493" lon="11.096735">
<ele>557.125</ele>
<time>2022-05-25T16:10:05Z</time>
</trkpt>
<trkpt lat="47.992439" lon="11.096735">
<ele>557.074</ele>
<time>2022-05-25T16:10:06Z</time>
</trkpt>
<trkpt lat="47.992393" lon="11.096745">
<ele>557.034</ele>
<time>2022-05-25T16:10:07Z</time>
</trkpt>
<trkpt lat="47.992336" lon="11.096749">
<ele>557.01</ele>
<time>2022-05-25T16:10:08Z</time>
</trkpt>
<trkpt lat="47.992287" lon="11.096753">
<ele>557.01</ele>
<time>2022-05-25T16:10:09Z</time>
</trkpt>
<trkpt lat="47.992237" lon="11.096757">
<ele>557.01</ele>
<time>2022-05-25T16:10:10Z</time>
</trkpt>
<trkpt lat="47.992176" lon="11.09676">
<ele>557.01</ele>
<time>2022-05-25T16:10:11Z</time>
</trkpt>
<trkpt lat="47.992111" lon="11.096765">
<ele>557.01</ele>
<time>2022-05-25T16:10:12Z</time>
</trkpt>
<trkpt lat="47.992062" lon="11.096777">
<ele>557.01</ele>
<time>2022-05-25T16:10:13Z</time>
</trkpt>
<trkpt lat="47.992004" lon="11.096781">
<ele>557.01</ele>
<time>2022-05-25T16:10:14Z</time>
</trkpt>
<trkpt lat="47.991955" lon="11.096785">
<ele>557.01</ele>
<time>2022-05-25T16:10:15Z</time>
</trkpt>
<trkpt lat="47.991913" lon="11.096793">
<ele>557.01</ele>
<time>2022-05-25T16:10:16Z</time>
</trkpt>
<trkpt lat="47.991859" lon="11.096802">
<ele>557.01</ele>
<time>2022-05-25T16:10:17Z</time>
</trkpt>
<trkpt lat="47.991817" lon="11.096806">
<ele>557.01</ele>
<time>2022-05-25T16:10:18Z</time>
</trkpt>
<trkpt lat="47.991779" lon="11.096816">
<ele>557.01</ele>
<time>2022-05-25T16:10:19Z</time>
</trkpt>
<trkpt lat="47.991745" lon="11.09682">
<ele>557.01</ele>
<time>2022-05-25T16:10:20Z</time>
</trkpt>
<trkpt lat="47.991707" lon="11.096831">
<ele>557.01</ele>
<time>2022-05-25T16:10:21Z</time>
</trkpt>
<trkpt lat="47.991676" lon="11.096835">
<ele>557.01</ele>
<time>2022-05-25T16:10:22Z</time>
</trkpt>
<trkpt lat="47.991638" lon="11.096837">
<ele>557.01</ele>
<time>2022-05-25T16:10:23Z</time>
</trkpt>
<trkpt lat="47.9916" lon="11.096842">
<ele>557.01</ele>
<time>2022-05-25T16:10:24Z</time>
</trkpt>
<trkpt lat="47.991558" lon="11.096847">
<ele>557.01</ele>
<time>2022-05-25T16:10:25Z</time>
</trkpt>
<trkpt lat="47.99152" lon="11.096848">
<ele>557.01</ele>
<time>2022-05-25T16:10:26Z</time>
</trkpt>
<trkpt lat="47.991459" lon="11.096854">
<ele>557.01</ele>
<time>2022-05-25T16:10:27Z</time>
</trkpt>
<trkpt lat="47.991417" lon="11.09686">
<ele>557.01</ele>
<time>2022-05-25T16:10:28Z</time>
</trkpt>
<trkpt lat="47.991367" lon="11.096863">
<ele>557.01</ele>
<time>2022-05-25T16:10:29Z</time>
</trkpt>
<trkpt lat="47.991314" lon="11.096863">
<ele>557.01</ele>
<time>2022-05-25T16:10:30Z</time>
</trkpt>
<trkpt lat="47.991276" lon="11.096863">
<ele>557.01</ele>
<time>2022-05-25T16:10:31Z</time>
</trkpt>
<trkpt lat="47.991238" lon="11.096867">
<ele>557.01</ele>
<time>2022-05-25T16:10:32Z</time>
</trkpt>
<trkpt lat="47.99118" lon="11.096871">
<ele>557.01</ele>
<time>2022-05-25T16:10:33Z</time>
</trkpt>
<trkpt lat="47.991135" lon="11.096875">
<ele>557.01</ele>
<time>2022-05-25T16:10:34Z</time>
</trkpt>
<trkpt lat="47.991085" lon="11.096879">
<ele>557.01</ele>
<time>2022-05-25T16:10:35Z</time>
</trkpt>
<trkpt lat="47.991035" lon="11.096891">
<ele>557.01</ele>
<time>2022-05-25T16:10:36Z</time>
</trkpt>
<trkpt lat="47.990982" lon="11.0969">
<ele>557.01</ele>
<time>2022-05-25T16:10:37Z</time>
</trkpt>
<trkpt lat="47.990932" lon="11.096907">
<ele>557.01</ele>
<time>2022-05-25T16:10:38Z</time>
</trkpt>
<trkpt lat="47.990868" lon="11.096904">
<ele>557.01</ele>
<time>2022-05-25T16:10:39Z</time>
</trkpt>
<trkpt lat="47.990814" lon="11.096893">
<ele>557.01</ele>
<time>2022-05-25T16:10:40Z</time>
</trkpt>
<trkpt lat="47.990765" lon="11.096889">
<ele>557.01</ele>
<time>2022-05-25T16:10:41Z</time>
</trkpt>
<trkpt lat="47.9907" lon="11.096884">
<ele>557.01</ele>
<time>2022-05-25T16:10:42Z</time>
</trkpt>
<trkpt lat="47.99065" lon="11.09688">
<ele>557.01</ele>
<time>2022-05-25T16:10:43Z</time>
</trkpt>
<trkpt lat="47.990608" lon="11.096884">
<ele>557.01</ele>
<time>2022-05-25T16:10:44Z</time>
</trkpt>
<trkpt lat="47.99057" lon="11.096884">
<ele>557.01</ele>
<time>2022-05-25T16:10:45Z</time>
</trkpt>
<trkpt lat="47.990524" lon="11.096888">
<ele>557.01</ele>
<time>2022-05-25T16:10:46Z</time>
</trkpt>
<trkpt lat="47.990486" lon="11.096898">
<ele>557.01</ele>
<time>2022-05-25T16:10:47Z</time>
</trkpt>
<trkpt lat="47.990444" lon="11.096907">
<ele>557.01</ele>
<time>2022-05-25T16:10:48Z</time>
</trkpt>
<trkpt lat="47.990391" lon="11.096902">
<ele>557.01</ele>
<time>2022-05-25T16:10:49Z</time>
</trkpt>
<trkpt lat="47.990349" lon="11.096902">
<ele>557.01</ele>
<time>2022-05-25T16:10:50Z</time>
</trkpt>
<trkpt lat="47.990273" lon="11.096887">
<ele>557.01</ele>
<time>2022-05-25T16:10:51Z</time>
</trkpt>
<trkpt lat="47.990208" lon="11.096889">
<ele>557.01</ele>
<time>2022-05-25T16:10:52Z</time>
</trkpt>
<trkpt lat="47.990154" lon="11.096895">
<ele>557.01</ele>
<time>2022-05-25T16:10:53Z</time>
</trkpt>
<trkpt lat="47.990097" lon="11.096909">
<ele>557.01</ele>
<time>2022-05-25T16:10:54Z</time>
</trkpt>
<trkpt lat="47.99004" lon="11.096911">
<ele>557.01</ele>
<time>2022-05-25T16:10:55Z</time>
</trkpt>
<trkpt lat="47.989986" lon="11.096909">
<ele>557.01</ele>
<time>2022-05-25T16:10:56Z</time>
</trkpt>
<trkpt lat="47.989929" lon="11.09691">
<ele>556.794</ele>
<time>2022-05-25T16:10:57Z</time>
</trkpt>
<trkpt lat="47.989876" lon="11.096915">
<ele>556.598</ele>
<time>2022-05-25T16:10:58Z</time>
</trkpt>
<trkpt lat="47.989826" lon="11.096919">
<ele>556.451</ele>
<time>2022-05-25T16:10:59Z</time>
</trkpt>
<trkpt lat="47.989773" lon="11.096921">
<ele>556.304</ele>
<time>2022-05-25T16:11:00Z</time>
</trkpt>
<trkpt lat="47.989719" lon="11.096925">
<ele>556.196</ele>
<time>2022-05-25T16:11:01Z</time>
</trkpt>
<trkpt lat="47.98967" lon="11.096923">
<ele>556.124</ele>
<time>2022-05-25T16:11:02Z</time>
</trkpt>
<trkpt lat="47.989624" lon="11.096925">
<ele>556.074</ele>
<time>2022-05-25T16:11:03Z</time>
</trkpt>
<trkpt lat="47.989574" lon="11.096925">
<ele>556.05</ele>
<time>2022-05-25T16:11:04Z</time>
</trkpt>
<trkpt lat="47.989532" lon="11.096923">
<ele>556.05</ele>
<time>2022-05-25T16:11:05Z</time>
</trkpt>
<trkpt lat="47.989491" lon="11.096917">
<ele>556.05</ele>
<time>2022-05-25T16:11:06Z</time>
</trkpt>
<trkpt lat="47.989441" lon="11.09691">
<ele>556.05</ele>
<time>2022-05-25T16:11:07Z</time>
</trkpt>
<trkpt lat="47.989403" lon="11.096905">
<ele>556.05</ele>
<time>2022-05-25T16:11:08Z</time>
</trkpt>
<trkpt lat="47.989361" lon="11.096902">
<ele>556.05</ele>
<time>2022-05-25T16:11:09Z</time>
</trkpt>
<trkpt lat="47.989311" lon="11.096907">
<ele>556.05</ele>
<time>2022-05-25T16:11:10Z</time>
</trkpt>
<trkpt lat="47.989254" lon="11.096919">
<ele>556.05</ele>
<time>2022-05-25T16:11:11Z</time>
</trkpt>
<trkpt lat="47.989197" lon="11.09693">
<ele>556.05</ele>
<time>2022-05-25T16:11:12Z</time>
</trkpt>
<trkpt lat="47.989143" lon="11.096938">
<ele>556.05</ele>
<time>2022-05-25T16:11:13Z</time>
</trkpt>
<trkpt lat="47.989086" lon="11.096945">
<ele>556.05</ele>
<time>2022-05-25T16:11:14Z</time>
</trkpt>
<trkpt lat="47.989014" lon="11.096945">
<ele>556.05</ele>
<time>2022-05-25T16:11:15Z</time>
</trkpt>
<trkpt lat="47.988956" lon="11.096947">
<ele>556.05</ele>
<time>2022-05-25T16:11:16Z</time>
</trkpt>
<trkpt lat="47.988903" lon="11.096942">
<ele>556.05</ele>
<time>2022-05-25T16:11:17Z</time>
</trkpt>
<trkpt lat="47.988846" lon="11.096938">
<ele>556.05</ele>
<time>2022-05-25T16:11:18Z</time>
</trkpt>
<trkpt lat="47.988796" lon="11.096935">
<ele>556.05</ele>
<time>2022-05-25T16:11:19Z</time>
</trkpt>
<trkpt lat="47.988747" lon="11.096938">
<ele>556.05</ele>
<time>2022-05-25T16:11:20Z</time>
</trkpt>
<trkpt lat="47.988697" lon="11.096944">
<ele>556.05</ele>
<time>2022-05-25T16:11:21Z</time>
</trkpt>
<trkpt lat="47.988651" lon="11.096951">
<ele>556.05</ele>
<time>2022-05-25T16:11:22Z</time>
</trkpt>
<trkpt lat="47.988605" lon="11.096956">
<ele>556.05</ele>
<time>2022-05-25T16:11:23Z</time>
</trkpt>
<trkpt lat="47.98856" lon="11.096963">
<ele>556.05</ele>
<time>2022-05-25T16:11:24Z</time>
</trkpt>
<trkpt lat="47.988514" lon="11.096967">
<ele>556.05</ele>
<time>2022-05-25T16:11:25Z</time>
</trkpt>
<trkpt lat="47.988461" lon="11.096967">
<ele>556.05</ele>
<time>2022-05-25T16:11:26Z</time>
</trkpt>
<trkpt lat="47.988415" lon="11.096967">
<ele>556.05</ele>
<time>2022-05-25T16:11:27Z</time>
</trkpt>
<trkpt lat="47.988365" lon="11.096969">
<ele>556.05</ele>
<time>2022-05-25T16:11:28Z</time>
</trkpt>
<trkpt lat="47.988316" lon="11.096973">
<ele>556.05</ele>
<time>2022-05-25T16:11:29Z</time>
</trkpt>
<trkpt lat="47.988262" lon="11.096973">
<ele>556.05</ele>
<time>2022-05-25T16:11:30Z</time>
</trkpt>
<trkpt lat="47.98822" lon="11.09697">
<ele>556.05</ele>
<time>2022-05-25T16:11:31Z</time>
</trkpt>
<trkpt lat="47.988178" lon="11.096972">
<ele>556.05</ele>
<time>2022-05-25T16:11:32Z</time>
</trkpt>
<trkpt lat="47.988136" lon="11.096975">
<ele>556.05</ele>
<time>2022-05-25T16:11:33Z</time>
</trkpt>
<trkpt lat="47.988098" lon="11.096972">
<ele>556.05</ele>
<time>2022-05-25T16:11:34Z</time>
</trkpt>
<trkpt lat="47.988056" lon="11.096965">
<ele>556.05</ele>
<time>2022-05-25T16:11:35Z</time>
</trkpt>
<trkpt lat="47.988018" lon="11.096963">
<ele>556.05</ele>
<time>2022-05-25T16:11:36Z</time>
</trkpt>
<trkpt lat="47.987972" lon="11.09697">
<ele>556.05</ele>
<time>2022-05-25T16:11:37Z</time>
</trkpt>
<trkpt lat="47.98793" lon="11.096978">
<ele>556.05</ele>
<time>2022-05-25T16:11:38Z</time>
</trkpt>
<trkpt lat="47.987881" lon="11.096985">
<ele>556.05</ele>
<time>2022-05-25T16:11:39Z</time>
</trkpt>
<trkpt lat="47.987835" lon="11.096985">
<ele>556.05</ele>
<time>2022-05-25T16:11:40Z</time>
</trkpt>
<trkpt lat="47.987801" lon="11.096985">
<ele>556.05</ele>
<time>2022-05-25T16:11:41Z</time>
</trkpt>
<trkpt lat="47.987762" lon="11.096985">
<ele>556.05</ele>
<time>2022-05-25T16:11:42Z</time>
</trkpt>
<trkpt lat="47.98772" lon="11.096984">
<ele>556.05</ele>
<time>2022-05-25T16:11:43Z</time>
</trkpt>
<trkpt lat="47.987656" lon="11.096989">
<ele>556.05</ele>
<time>2022-05-25T16:11:44Z</time>
</trkpt>
<trkpt lat="47.987602" lon="11.096994">
<ele>556.05</ele>
<time>2022-05-25T16:11:45Z</time>
</trkpt>
<trkpt lat="47.987553" lon="11.097003">
<ele>556.05</ele>
<time>2022-05-25T16:11:46Z</time>
</trkpt>
<trkpt lat="47.987507" lon="11.097007">
<ele>556.05</ele>
<time>2022-05-25T16:11:47Z</time>
</trkpt>
<trkpt lat="47.987457" lon="11.097005">
<ele>556.05</ele>
<time>2022-05-25T16:11:48Z</time>
</trkpt>
<trkpt lat="47.987411" lon="11.097001">
<ele>556.05</ele>
<time>2022-05-25T16:11:49Z</time>
</trkpt>
<trkpt lat="47.98737" lon="11.096994">
<ele>556.05</ele>
<time>2022-05-25T16:11:50Z</time>
</trkpt>
<trkpt lat="47.987328" lon="11.096994">
<ele>556.05</ele>
<time>2022-05-25T16:11:51Z</time>
</trkpt>
<trkpt lat="47.987282" lon="11.096996">
<ele>556.05</ele>
<time>2022-05-25T16:11:52Z</time>
</trkpt>
<trkpt lat="47.98724" lon="11.097007">
<ele>556.05</ele>
<time>2022-05-25T16:11:53Z</time>
</trkpt>
<trkpt lat="47.987186" lon="11.097018">
<ele>556.05</ele>
<time>2022-05-25T16:11:54Z</time>
</trkpt>
<trkpt lat="47.987141" lon="11.097032">
<ele>556.05</ele>
<time>2022-05-25T16:11:55Z</time>
</trkpt>
<trkpt lat="47.987095" lon="11.09704">
<ele>556.05</ele>
<time>2022-05-25T16:11:56Z</time>
</trkpt>
<trkpt lat="47.987053" lon="11.097049">
<ele>556.05</ele>
<time>2022-05-25T16:11:57Z</time>
</trkpt>
<trkpt lat="47.987011" lon="11.097054">
<ele>556.05</ele>
<time>2022-05-25T16:11:58Z</time>
</trkpt>
<trkpt lat="47.986969" lon="11.09706">
<ele>556.05</ele>
<time>2022-05-25T16:11:59Z</time>
</trkpt>
<trkpt lat="47.986935" lon="11.097068">
<ele>556.05</ele>
<time>2022-05-25T16:12:00Z</time>
</trkpt>
<trkpt lat="47.986908" lon="11.09707">
<ele>556.279</ele>
<time>2022-05-25T16:12:01Z</time>
</trkpt>
<trkpt lat="47.986885" lon="11.097072">
<ele>556.452</ele>
<time>2022-05-25T16:12:02Z</time>
</trkpt>
<trkpt lat="47.986862" lon="11.097072">
<ele>556.595</ele>
<time>2022-05-25T16:12:03Z</time>
</trkpt>
<trkpt lat="47.986839" lon="11.097072">
<ele>556.708</ele>
<time>2022-05-25T16:12:04Z</time>
</trkpt>
<trkpt lat="47.98682" lon="11.097078">
<ele>556.782</ele>
<time>2022-05-25T16:12:05Z</time>
</trkpt>
<trkpt lat="47.986797" lon="11.097083">
<ele>556.839</ele>
<time>2022-05-25T16:12:06Z</time>
</trkpt>
<trkpt lat="47.986778" lon="11.097085">
<ele>556.888</ele>
<time>2022-05-25T16:12:07Z</time>
</trkpt>
<trkpt lat="47.986752" lon="11.097089">
<ele>556.922</ele>
<time>2022-05-25T16:12:08Z</time>
</trkpt>
<trkpt lat="47.986729" lon="11.097092">
<ele>556.922</ele>
<time>2022-05-25T16:12:09Z</time>
</trkpt>
<trkpt lat="47.986694" lon="11.097096">
<ele>556.922</ele>
<time>2022-05-25T16:12:10Z</time>
</trkpt>
<trkpt lat="47.986664" lon="11.097105">
<ele>556.922</ele>
<time>2022-05-25T16:12:11Z</time>
</trkpt>
<trkpt lat="47.986618" lon="11.09711">
<ele>556.922</ele>
<time>2022-05-25T16:12:12Z</time>
</trkpt>
<trkpt lat="47.986576" lon="11.097107">
<ele>556.922</ele>
<time>2022-05-25T16:12:13Z</time>
</trkpt>
<trkpt lat="47.986526" lon="11.097096">
<ele>556.922</ele>
<time>2022-05-25T16:12:14Z</time>
</trkpt>
<trkpt lat="47.986477" lon="11.097078">
<ele>556.922</ele>
<time>2022-05-25T16:12:15Z</time>
</trkpt>
<trkpt lat="47.986427" lon="11.097065">
<ele>556.922</ele>
<time>2022-05-25T16:12:16Z</time>
</trkpt>
<trkpt lat="47.98637" lon="11.097054">
<ele>556.704</ele>
<time>2022-05-25T16:12:17Z</time>
</trkpt>
<trkpt lat="47.986317" lon="11.097049">
<ele>556.513</ele>
<time>2022-05-25T16:12:18Z</time>
</trkpt>
<trkpt lat="47.986267" lon="11.097047">
<ele>556.369</ele>
<time>2022-05-25T16:12:19Z</time>
</trkpt>
<trkpt lat="47.986217" lon="11.097049">
<ele>556.259</ele>
<time>2022-05-25T16:12:20Z</time>
</trkpt>
<trkpt lat="47.986172" lon="11.09705">
<ele>556.172</ele>
<time>2022-05-25T16:12:21Z</time>
</trkpt>
<trkpt lat="47.98613" lon="11.097055">
<ele>556.112</ele>
<time>2022-05-25T16:12:22Z</time>
</trkpt>
<trkpt lat="47.986084" lon="11.097063">
<ele>556.071</ele>
<time>2022-05-25T16:12:23Z</time>
</trkpt>
<trkpt lat="47.986042" lon="11.097074">
<ele>556.05</ele>
<time>2022-05-25T16:12:24Z</time>
</trkpt>
<trkpt lat="47.986004" lon="11.097078">
<ele>556.05</ele>
<time>2022-05-25T16:12:25Z</time>
</trkpt>
<trkpt lat="47.985958" lon="11.09708">
<ele>556.05</ele>
<time>2022-05-25T16:12:26Z</time>
</trkpt>
<trkpt lat="47.985912" lon="11.097082">
<ele>556.05</ele>
<time>2022-05-25T16:12:27Z</time>
</trkpt>
<trkpt lat="47.985863" lon="11.097082">
<ele>556.05</ele>
<time>2022-05-25T16:12:28Z</time>
</trkpt>
<trkpt lat="47.985821" lon="11.097083">
<ele>556.05</ele>
<time>2022-05-25T16:12:29Z</time>
</trkpt>
<trkpt lat="47.985783" lon="11.097085">
<ele>556.05</ele>
<time>2022-05-25T16:12:30Z</time>
</trkpt>
<trkpt lat="47.985741" lon="11.097089">
<ele>556.05</ele>
<time>2022-05-25T16:12:31Z</time>
</trkpt>
<trkpt lat="47.985695" lon="11.097095">
<ele>556.05</ele>
<time>2022-05-25T16:12:32Z</time>
</trkpt>
<trkpt lat="47.985657" lon="11.097099">
<ele>556.05</ele>
<time>2022-05-25T16:12:33Z</time>
</trkpt>
<trkpt lat="47.985615" lon="11.097099">
<ele>556.05</ele>
<time>2022-05-25T16:12:34Z</time>
</trkpt>
<trkpt lat="47.985577" lon="11.097099">
<ele>556.05</ele>
<time>2022-05-25T16:12:35Z</time>
</trkpt>
<trkpt lat="47.985531" lon="11.097096">
<ele>556.05</ele>
<time>2022-05-25T16:12:36Z</time>
</trkpt>
<trkpt lat="47.98547" lon="11.097095">
<ele>556.05</ele>
<time>2022-05-25T16:12:37Z</time>
</trkpt>
<trkpt lat="47.985416" lon="11.097092">
<ele>556.05</ele>
<time>2022-05-25T16:12:38Z</time>
</trkpt>
<trkpt lat="47.985359" lon="11.097095">
<ele>556.05</ele>
<time>2022-05-25T16:12:39Z</time>
</trkpt>
<trkpt lat="47.985298" lon="11.097098">
<ele>556.05</ele>
<time>2022-05-25T16:12:40Z</time>
</trkpt>
<trkpt lat="47.985249" lon="11.097099">
<ele>556.05</ele>
<time>2022-05-25T16:12:41Z</time>
</trkpt>
<trkpt lat="47.985188" lon="11.097099">
<ele>556.05</ele>
<time>2022-05-25T16:12:42Z</time>
</trkpt>
<trkpt lat="47.985134" lon="11.097101">
<ele>556.05</ele>
<time>2022-05-25T16:12:43Z</time>
</trkpt>
<trkpt lat="47.985085" lon="11.097101">
<ele>556.05</ele>
<time>2022-05-25T16:12:44Z</time>
</trkpt>
<trkpt lat="47.985035" lon="11.097099">
<ele>556.05</ele>
<time>2022-05-25T16:12:45Z</time>
</trkpt>
<trkpt lat="47.984985" lon="11.097099">
<ele>556.05</ele>
<time>2022-05-25T16:12:46Z</time>
</trkpt>
<trkpt lat="47.984936" lon="11.097107">
<ele>556.05</ele>
<time>2022-05-25T16:12:47Z</time>
</trkpt>
<trkpt lat="47.984875" lon="11.097114">
<ele>556.05</ele>
<time>2022-05-25T16:12:48Z</time>
</trkpt>
<trkpt lat="47.984833" lon="11.097118">
<ele>556.05</ele>
<time>2022-05-25T16:12:49Z</time>
</trkpt>
<trkpt lat="47.984787" lon="11.097118">
<ele>556.05</ele>
<time>2022-05-25T16:12:50Z</time>
</trkpt>
<trkpt lat="47.984737" lon="11.097123">
<ele>556.05</ele>
<time>2022-05-25T16:12:51Z</time>
</trkpt>
<trkpt lat="47.984695" lon="11.097129">
<ele>556.05</ele>
<time>2022-05-25T16:12:52Z</time>
</trkpt>
<trkpt lat="47.984642" lon="11.097136">
<ele>556.05</ele>
<time>2022-05-25T16:12:53Z</time>
</trkpt>
<trkpt lat="47.9846" lon="11.097141">
<ele>556.05</ele>
<time>2022-05-25T16:12:54Z</time>
</trkpt>
<trkpt lat="47.984547" lon="11.097143">
<ele>556.05</ele>
<time>2022-05-25T16:12:55Z</time>
</trkpt>
<trkpt lat="47.984493" lon="11.097145">
<ele>556.261</ele>
<time>2022-05-25T16:12:56Z</time>
</trkpt>
<trkpt lat="47.984447" lon="11.097147">
<ele>556.419</ele>
<time>2022-05-25T16:12:57Z</time>
</trkpt>
<trkpt lat="47.984402" lon="11.097148">
<ele>556.576</ele>
<time>2022-05-25T16:12:58Z</time>
</trkpt>
<trkpt lat="47.984348" lon="11.097157">
<ele>556.697</ele>
<time>2022-05-25T16:12:59Z</time>
</trkpt>
<trkpt lat="47.984291" lon="11.097164">
<ele>556.792</ele>
<time>2022-05-25T16:13:00Z</time>
</trkpt>
<trkpt lat="47.984234" lon="11.097168">
<ele>556.859</ele>
<time>2022-05-25T16:13:01Z</time>
</trkpt>
<trkpt lat="47.98418" lon="11.09717">
<ele>556.903</ele>
<time>2022-05-25T16:13:02Z</time>
</trkpt>
<trkpt lat="47.984116" lon="11.097178">
<ele>556.922</ele>
<time>2022-05-25T16:13:03Z</time>
</trkpt>
<trkpt lat="47.984055" lon="11.09718">
<ele>556.922</ele>
<time>2022-05-25T16:13:04Z</time>
</trkpt>
<trkpt lat="47.98399" lon="11.097181">
<ele>556.922</ele>
<time>2022-05-25T16:13:05Z</time>
</trkpt>
<trkpt lat="47.983925" lon="11.097189">
<ele>556.922</ele>
<time>2022-05-25T16:13:06Z</time>
</trkpt>
<trkpt lat="47.98386" lon="11.097194">
<ele>556.922</ele>
<time>2022-05-25T16:13:07Z</time>
</trkpt>
<trkpt lat="47.983795" lon="11.097192">
<ele>556.922</ele>
<time>2022-05-25T16:13:08Z</time>
</trkpt>
<trkpt lat="47.983734" lon="11.097196">
<ele>556.922</ele>
<time>2022-05-25T16:13:09Z</time>
</trkpt>
<trkpt lat="47.983681" lon="11.097199">
<ele>556.922</ele>
<time>2022-05-25T16:13:10Z</time>
</trkpt>
<trkpt lat="47.983631" lon="11.097208">
<ele>556.922</ele>
<time>2022-05-25T16:13:11Z</time>
</trkpt>
<trkpt lat="47.983574" lon="11.097213">
<ele>556.922</ele>
<time>2022-05-25T16:13:12Z</time>
</trkpt>
<trkpt lat="47.983517" lon="11.09722">
<ele>556.922</ele>
<time>2022-05-25T16:13:13Z</time>
</trkpt>
<trkpt lat="47.983459" lon="11.097221">
<ele>556.922</ele>
<time>2022-05-25T16:13:14Z</time>
</trkpt>
<trkpt lat="47.983402" lon="11.097223">
<ele>556.922</ele>
<time>2022-05-25T16:13:15Z</time>
</trkpt>
<trkpt lat="47.983349" lon="11.097227">
<ele>556.922</ele>
<time>2022-05-25T16:13:16Z</time>
</trkpt>
<trkpt lat="47.983295" lon="11.097229">
<ele>556.922</ele>
<time>2022-05-25T16:13:17Z</time>
</trkpt>
<trkpt lat="47.983238" lon="11.097235">
<ele>556.922</ele>
<time>2022-05-25T16:13:18Z</time>
</trkpt>
<trkpt lat="47.983192" lon="11.097241">
<ele>556.922</ele>
<time>2022-05-25T16:13:19Z</time>
</trkpt>
<trkpt lat="47.983143" lon="11.097248">
<ele>556.922</ele>
<time>2022-05-25T16:13:20Z</time>
</trkpt>
<trkpt lat="47.983101" lon="11.097252">
<ele>556.922</ele>
<time>2022-05-25T16:13:21Z</time>
</trkpt>
<trkpt lat="47.983059" lon="11.097255">
<ele>556.922</ele>
<time>2022-05-25T16:13:22Z</time>
</trkpt>
<trkpt lat="47.983021" lon="11.097257">
<ele>556.922</ele>
<time>2022-05-25T16:13:23Z</time>
</trkpt>
<trkpt lat="47.982979" lon="11.097259">
<ele>556.922</ele>
<time>2022-05-25T16:13:24Z</time>
</trkpt>
<trkpt lat="47.982944" lon="11.09726">
<ele>556.922</ele>
<time>2022-05-25T16:13:25Z</time>
</trkpt>
<trkpt lat="47.982906" lon="11.097265">
<ele>556.922</ele>
<time>2022-05-25T16:13:26Z</time>
</trkpt>
<trkpt lat="47.982864" lon="11.097269">
<ele>556.922</ele>
<time>2022-05-25T16:13:27Z</time>
</trkpt>
<trkpt lat="47.982826" lon="11.097265">
<ele>556.922</ele>
<time>2022-05-25T16:13:28Z</time>
</trkpt>
<trkpt lat="47.982788" lon="11.09726">
<ele>556.922</ele>
<time>2022-05-25T16:13:29Z</time>
</trkpt>
<trkpt lat="47.98275" lon="11.097257">
<ele>556.922</ele>
<time>2022-05-25T16:13:30Z</time>
</trkpt>
<trkpt lat="47.982716" lon="11.097262">
<ele>556.922</ele>
<time>2022-05-25T16:13:31Z</time>
</trkpt>
<trkpt lat="47.982681" lon="11.097267">
<ele>556.922</ele>
<time>2022-05-25T16:13:32Z</time>
</trkpt>
<trkpt lat="47.982647" lon="11.09727">
<ele>556.922</ele>
<time>2022-05-25T16:13:33Z</time>
</trkpt>
<trkpt lat="47.982616" lon="11.097275">
<ele>556.922</ele>
<time>2022-05-25T16:13:34Z</time>
</trkpt>
<trkpt lat="47.982586" lon="11.097279">
<ele>556.922</ele>
<time>2022-05-25T16:13:35Z</time>
</trkpt>
<trkpt lat="47.982555" lon="11.097279">
<ele>556.922</ele>
<time>2022-05-25T16:13:36Z</time>
</trkpt>
<trkpt lat="47.982525" lon="11.097285">
<ele>556.922</ele>
<time>2022-05-25T16:13:37Z</time>
</trkpt>
<trkpt lat="47.982498" lon="11.097294">
<ele>556.922</ele>
<time>2022-05-25T16:13:38Z</time>
</trkpt>
<trkpt lat="47.982475" lon="11.097303">
<ele>556.922</ele>
<time>2022-05-25T16:13:39Z</time>
</trkpt>
<trkpt lat="47.982456" lon="11.097308">
<ele>556.922</ele>
<time>2022-05-25T16:13:40Z</time>
</trkpt>
<trkpt lat="47.982426" lon="11.097308">
<ele>556.922</ele>
<time>2022-05-25T16:13:41Z</time>
</trkpt>
<trkpt lat="47.982399" lon="11.097303">
<ele>556.922</ele>
<time>2022-05-25T16:13:42Z</time>
</trkpt>
<trkpt lat="47.982376" lon="11.097301">
<ele>556.922</ele>
<time>2022-05-25T16:13:43Z</time>
</trkpt>
<trkpt lat="47.982353" lon="11.097301">
<ele>556.922</ele>
<time>2022-05-25T16:13:44Z</time>
</trkpt>
<trkpt lat="47.98233" lon="11.097301">
<ele>556.922</ele>
<time>2022-05-25T16:13:45Z</time>
</trkpt>
<trkpt lat="47.982304" lon="11.097301">
<ele>556.922</ele>
<time>2022-05-25T16:13:46Z</time>
</trkpt>
<trkpt lat="47.982277" lon="11.097304">
<ele>556.922</ele>
<time>2022-05-25T16:13:47Z</time>
</trkpt>
<trkpt lat="47.982258" lon="11.097308">
<ele>556.922</ele>
<time>2022-05-25T16:13:48Z</time>
</trkpt>
<trkpt lat="47.982235" lon="11.097315">
<ele>556.922</ele>
<time>2022-05-25T16:13:49Z</time>
</trkpt>
<trkpt lat="47.982216" lon="11.097319">
<ele>556.922</ele>
<time>2022-05-25T16:13:50Z</time>
</trkpt>
<trkpt lat="47.982197" lon="11.097317">
<ele>556.922</ele>
<time>2022-05-25T16:13:51Z</time>
</trkpt>
<trkpt lat="47.98217" lon="11.097313">
<ele>556.922</ele>
<time>2022-05-25T16:13:52Z</time>
</trkpt>
<trkpt lat="47.982147" lon="11.09731">
<ele>556.922</ele>
<time>2022-05-25T16:13:53Z</time>
</trkpt>
<trkpt lat="47.982128" lon="11.097311">
<ele>556.922</ele>
<time>2022-05-25T16:13:54Z</time>
</trkpt>
<trkpt lat="47.982101" lon="11.097315">
<ele>556.922</ele>
<time>2022-05-25T16:13:55Z</time>
</trkpt>
<trkpt lat="47.982075" lon="11.097319">
<ele>556.922</ele>
<time>2022-05-25T16:13:56Z</time>
</trkpt>
<trkpt lat="47.982044" lon="11.097325">
<ele>556.922</ele>
<time>2022-05-25T16:13:57Z</time>
</trkpt>
<trkpt lat="47.982018" lon="11.097337">
<ele>556.922</ele>
<time>2022-05-25T16:13:58Z</time>
</trkpt>
<trkpt lat="47.981987" lon="11.09735">
<ele>556.922</ele>
<time>2022-05-25T16:13:59Z</time>
</trkpt>
<trkpt lat="47.981968" lon="11.097367">
<ele>556.922</ele>
<time>2022-05-25T16:14:00Z</time>
</trkpt>
<trkpt lat="47.981941" lon="11.09739">
<ele>556.922</ele>
<time>2022-05-25T16:14:01Z</time>
</trkpt>
<trkpt lat="47.981911" lon="11.097411">
<ele>556.922</ele>
<time>2022-05-25T16:14:02Z</time>
</trkpt>
<trkpt lat="47.981884" lon="11.097439">
<ele>556.922</ele>
<time>2022-05-25T16:14:03Z</time>
</trkpt>
<trkpt lat="47.981865" lon="11.097458">
<ele>556.922</ele>
<time>2022-05-25T16:14:04Z</time>
</trkpt>
<trkpt lat="47.981838" lon="11.097475">
<ele>556.922</ele>
<time>2022-05-25T16:14:05Z</time>
</trkpt>
<trkpt lat="47.981823" lon="11.09749">
<ele>556.922</ele>
<time>2022-05-25T16:14:06Z</time>
</trkpt>
<trkpt lat="47.981804" lon="11.097513">
<ele>556.922</ele>
<time>2022-05-25T16:14:07Z</time>
</trkpt>
<trkpt lat="47.9818" lon="11.097546">
<ele>556.922</ele>
<time>2022-05-25T16:14:08Z</time>
</trkpt>
<trkpt lat="47.981789" lon="11.097577">
<ele>556.922</ele>
<time>2022-05-25T16:14:09Z</time>
</trkpt>
<trkpt lat="47.981785" lon="11.097607">
<ele>556.922</ele>
<time>2022-05-25T16:14:10Z</time>
</trkpt>
<trkpt lat="47.981777" lon="11.097638">
<ele>556.922</ele>
<time>2022-05-25T16:14:11Z</time>
</trkpt>
<trkpt lat="47.981773" lon="11.097673">
<ele>556.922</ele>
<time>2022-05-25T16:14:12Z</time>
</trkpt>
<trkpt lat="47.981773" lon="11.097707">
<ele>556.922</ele>
<time>2022-05-25T16:14:13Z</time>
</trkpt>
<trkpt lat="47.981773" lon="11.09774">
<ele>556.922</ele>
<time>2022-05-25T16:14:14Z</time>
</trkpt>
<trkpt lat="47.98177" lon="11.09777">
<ele>556.922</ele>
<time>2022-05-25T16:14:15Z</time>
</trkpt>
<trkpt lat="47.981766" lon="11.0978">
<ele>556.922</ele>
<time>2022-05-25T16:14:16Z</time>
</trkpt>
<trkpt lat="47.981766" lon="11.097832">
<ele>556.922</ele>
<time>2022-05-25T16:14:17Z</time>
</trkpt>
<trkpt lat="47.981766" lon="11.097863">
<ele>556.922</ele>
<time>2022-05-25T16:14:18Z</time>
</trkpt>
<trkpt lat="47.98177" lon="11.097887">
<ele>556.922</ele>
<time>2022-05-25T16:14:19Z</time>
</trkpt>
<trkpt lat="47.981766" lon="11.097906">
<ele>556.922</ele>
<time>2022-05-25T16:14:20Z</time>
</trkpt>
<trkpt lat="47.981762" lon="11.09793">
<ele>556.922</ele>
<time>2022-05-25T16:14:21Z</time>
</trkpt>
<trkpt lat="47.981754" lon="11.09796">
<ele>556.696</ele>
<time>2022-05-25T16:14:22Z</time>
</trkpt>
<trkpt lat="47.981747" lon="11.097996">
<ele>556.506</ele>
<time>2022-05-25T16:14:23Z</time>
</trkpt>
<trkpt lat="47.981739" lon="11.098028">
<ele>556.366</ele>
<time>2022-05-25T16:14:24Z</time>
</trkpt>
<trkpt lat="47.981731" lon="11.098063">
<ele>556.249</ele>
<time>2022-05-25T16:14:25Z</time>
</trkpt>
<trkpt lat="47.98172" lon="11.098095">
<ele>556.191</ele>
<time>2022-05-25T16:14:26Z</time>
</trkpt>
<trkpt lat="47.981712" lon="11.098125">
<ele>555.875</ele>
<time>2022-05-25T16:14:27Z</time>
</trkpt>
<trkpt lat="47.981709" lon="11.098155">
<ele>555.624</ele>
<time>2022-05-25T16:14:28Z</time>
</trkpt>
<trkpt lat="47.981709" lon="11.098185">
<ele>555.457</ele>
<time>2022-05-25T16:14:29Z</time>
</trkpt>
<trkpt lat="47.981705" lon="11.098209">
<ele>555.341</ele>
<time>2022-05-25T16:14:30Z</time>
</trkpt>
<trkpt lat="47.981701" lon="11.098237">
<ele>555.245</ele>
<time>2022-05-25T16:14:31Z</time>
</trkpt>
<trkpt lat="47.981697" lon="11.09826">
<ele>555.169</ele>
<time>2022-05-25T16:14:32Z</time>
</trkpt>
<trkpt lat="47.981697" lon="11.098285">
<ele>555.118</ele>
<time>2022-05-25T16:14:33Z</time>
</trkpt>
<trkpt lat="47.981697" lon="11.098312">
<ele>555.091</ele>
<time>2022-05-25T16:14:34Z</time>
</trkpt>
<trkpt lat="47.981693" lon="11.098342">
<ele>555.091</ele>
<time>2022-05-25T16:14:35Z</time>
</trkpt>
<trkpt lat="47.981693" lon="11.098369">
<ele>555.091</ele>
<time>2022-05-25T16:14:36Z</time>
</trkpt>
<trkpt lat="47.981689" lon="11.0984">
<ele>554.859</ele>
<time>2022-05-25T16:14:37Z</time>
</trkpt>
<trkpt lat="47.981689" lon="11.098432">
<ele>554.626</ele>
<time>2022-05-25T16:14:38Z</time>
</trkpt>
<trkpt lat="47.981686" lon="11.098458">
<ele>554.444</ele>
<time>2022-05-25T16:14:39Z</time>
</trkpt>
<trkpt lat="47.981686" lon="11.098482">
<ele>554.299</ele>
<time>2022-05-25T16:14:40Z</time>
</trkpt>
<trkpt lat="47.981682" lon="11.09851">
<ele>554.194</ele>
<time>2022-05-25T16:14:41Z</time>
</trkpt>
<trkpt lat="47.981678" lon="11.098538">
<ele>554.12</ele>
<time>2022-05-25T16:14:42Z</time>
</trkpt>
<trkpt lat="47.981674" lon="11.098566">
<ele>554.071</ele>
<time>2022-05-25T16:14:43Z</time>
</trkpt>
<trkpt lat="47.981674" lon="11.098595">
<ele>554.045</ele>
<time>2022-05-25T16:14:44Z</time>
</trkpt>
<trkpt lat="47.981674" lon="11.098617">
<ele>554.045</ele>
<time>2022-05-25T16:14:45Z</time>
</trkpt>
<trkpt lat="47.981674" lon="11.098639">
<ele>554.045</ele>
<time>2022-05-25T16:14:46Z</time>
</trkpt>
<trkpt lat="47.981674" lon="11.098657">
<ele>554.045</ele>
<time>2022-05-25T16:14:47Z</time>
</trkpt>
<trkpt lat="47.98167" lon="11.098687">
<ele>554.045</ele>
<time>2022-05-25T16:14:48Z</time>
</trkpt>
<trkpt lat="47.98167" lon="11.098703">
<ele>554.045</ele>
<time>2022-05-25T16:14:49Z</time>
</trkpt>
<trkpt lat="47.981667" lon="11.098727">
<ele>554.045</ele>
<time>2022-05-25T16:14:50Z</time>
</trkpt>
<trkpt lat="47.981667" lon="11.098743">
<ele>554.045</ele>
<time>2022-05-25T16:14:51Z</time>
</trkpt>
<trkpt lat="47.98167" lon="11.098759">
<ele>554.045</ele>
<time>2022-05-25T16:14:52Z</time>
</trkpt>
<trkpt lat="47.981674" lon="11.098775">
<ele>554.045</ele>
<time>2022-05-25T16:14:53Z</time>
</trkpt>
<trkpt lat="47.981678" lon="11.098797">
<ele>554.045</ele>
<time>2022-05-25T16:14:54Z</time>
</trkpt>
<trkpt lat="47.981674" lon="11.098822">
<ele>554.045</ele>
<time>2022-05-25T16:14:55Z</time>
</trkpt>
<trkpt lat="47.981678" lon="11.098846">
<ele>554.045</ele>
<time>2022-05-25T16:14:56Z</time>
</trkpt>
<trkpt lat="47.981689" lon="11.098875">
<ele>554.045</ele>
<time>2022-05-25T16:14:57Z</time>
</trkpt>
<trkpt lat="47.981705" lon="11.098895">
<ele>554.045</ele>
<time>2022-05-25T16:14:58Z</time>
</trkpt>
<trkpt lat="47.981712" lon="11.098913">
<ele>554.045</ele>
<time>2022-05-25T16:14:59Z</time>
</trkpt>
<trkpt lat="47.981731" lon="11.098927">
<ele>554.045</ele>
<time>2022-05-25T16:15:00Z</time>
</trkpt>
<trkpt lat="47.981747" lon="11.098941">
<ele>554.045</ele>
<time>2022-05-25T16:15:01Z</time>
</trkpt>
<trkpt lat="47.98177" lon="11.098955">
<ele>554.045</ele>
<time>2022-05-25T16:15:02Z</time>
</trkpt>
<trkpt lat="47.981785" lon="11.098966">
<ele>554.045</ele>
<time>2022-05-25T16:15:03Z</time>
</trkpt>
<trkpt lat="47.981804" lon="11.098974">
<ele>554.045</ele>
<time>2022-05-25T16:15:04Z</time>
</trkpt>
<trkpt lat="47.981823" lon="11.098985">
<ele>554.045</ele>
<time>2022-05-25T16:15:05Z</time>
</trkpt>
<trkpt lat="47.981838" lon="11.098995">
<ele>554.045</ele>
<time>2022-05-25T16:15:06Z</time>
</trkpt>
<trkpt lat="47.981857" lon="11.099004">
<ele>554.045</ele>
<time>2022-05-25T16:15:07Z</time>
</trkpt>
<trkpt lat="47.981876" lon="11.099009">
<ele>554.045</ele>
<time>2022-05-25T16:15:08Z</time>
</trkpt>
<trkpt lat="47.981895" lon="11.09901">
<ele>554.045</ele>
<time>2022-05-25T16:15:09Z</time>
</trkpt>
<trkpt lat="47.981915" lon="11.099011">
<ele>554.045</ele>
<time>2022-05-25T16:15:10Z</time>
</trkpt>
<trkpt lat="47.981934" lon="11.09901">
<ele>554.045</ele>
<time>2022-05-25T16:15:11Z</time>
</trkpt>
<trkpt lat="47.981945" lon="11.099011">
<ele>554.045</ele>
<time>2022-05-25T16:15:12Z</time>
</trkpt>
<trkpt lat="47.98196" lon="11.099016">
<ele>554.045</ele>
<time>2022-05-25T16:15:13Z</time>
</trkpt>
<trkpt lat="47.981968" lon="11.099023">
<ele>554.045</ele>
<time>2022-05-25T16:15:14Z</time>
</trkpt>
<trkpt lat="47.981976" lon="11.099027">
<ele>554.045</ele>
<time>2022-05-25T16:15:15Z</time>
</trkpt>
<trkpt lat="47.981972" lon="11.099025">
<ele>554.045</ele>
<time>2022-05-25T16:15:16Z</time>
</trkpt>
<trkpt lat="47.981983" lon="11.09904">
<ele>554.045</ele>
<time>2022-05-25T16:15:21Z</time>
</trkpt>
<trkpt lat="47.981991" lon="11.099048">
<ele>554.045</ele>
<time>2022-05-25T16:15:22Z</time>
</trkpt>
<trkpt lat="47.981998" lon="11.099053">
<ele>554.045</ele>
<time>2022-05-25T16:15:23Z</time>
</trkpt>
<trkpt lat="47.982002" lon="11.099055">
<ele>554.045</ele>
<time>2022-05-25T16:15:24Z</time>
</trkpt>
<trkpt lat="47.982006" lon="11.099055">
<ele>554.045</ele>
<time>2022-05-25T16:15:25Z</time>
</trkpt>
<trkpt lat="47.98201" lon="11.099056">
<ele>554.045</ele>
<time>2022-05-25T16:15:26Z</time>
</trkpt>
<trkpt lat="47.98201" lon="11.09906">
<ele>554.045</ele>
<time>2022-05-25T16:15:27Z</time>
</trkpt>
<trkpt lat="47.982006" lon="11.099072">
<ele>554.045</ele>
<time>2022-05-25T16:25:51Z</time>
</trkpt>
<trkpt lat="47.982002" lon="11.099063">
<ele>554.045</ele>
<time>2022-05-25T16:25:52Z</time>
</trkpt>
<trkpt lat="47.982002" lon="11.09906">
<ele>554.045</ele>
<time>2022-05-25T16:25:53Z</time>
</trkpt>
<trkpt lat="47.982002" lon="11.099056">
<ele>554.045</ele>
<time>2022-05-25T16:25:54Z</time>
</trkpt>
<trkpt lat="47.982002" lon="11.099042">
<ele>554.045</ele>
<time>2022-05-25T16:26:01Z</time>
</trkpt>
<trkpt lat="47.981998" lon="11.099022">
<ele>554.045</ele>
<time>2022-05-25T16:26:02Z</time>
</trkpt>
<trkpt lat="47.981995" lon="11.099">
<ele>554.045</ele>
<time>2022-05-25T16:26:03Z</time>
</trkpt>
<trkpt lat="47.981991" lon="11.09897">
<ele>554.045</ele>
<time>2022-05-25T16:26:04Z</time>
</trkpt>
<trkpt lat="47.981995" lon="11.09894">
<ele>554.045</ele>
<time>2022-05-25T16:26:05Z</time>
</trkpt>
<trkpt lat="47.981998" lon="11.098904">
<ele>554.045</ele>
<time>2022-05-25T16:26:06Z</time>
</trkpt>
<trkpt lat="47.982002" lon="11.098868">
<ele>554.045</ele>
<time>2022-05-25T16:26:07Z</time>
</trkpt>
<trkpt lat="47.982006" lon="11.098834">
<ele>554.045</ele>
<time>2022-05-25T16:26:08Z</time>
</trkpt>
<trkpt lat="47.982014" lon="11.098803">
<ele>554.045</ele>
<time>2022-05-25T16:26:09Z</time>
</trkpt>
<trkpt lat="47.982025" lon="11.098768">
<ele>554.045</ele>
<time>2022-05-25T16:26:10Z</time>
</trkpt>
<trkpt lat="47.982033" lon="11.098723">
<ele>554.045</ele>
<time>2022-05-25T16:26:11Z</time>
</trkpt>
<trkpt lat="47.98204" lon="11.098679">
<ele>554.045</ele>
<time>2022-05-25T16:26:12Z</time>
</trkpt>
<trkpt lat="47.982056" lon="11.098626">
<ele>554.045</ele>
<time>2022-05-25T16:26:13Z</time>
</trkpt>
<trkpt lat="47.982067" lon="11.098568">
<ele>554.045</ele>
<time>2022-05-25T16:26:14Z</time>
</trkpt>
<trkpt lat="47.982071" lon="11.098512">
<ele>554.045</ele>
<time>2022-05-25T16:26:15Z</time>
</trkpt>
<trkpt lat="47.982075" lon="11.09846">
<ele>554.045</ele>
<time>2022-05-25T16:26:16Z</time>
</trkpt>
<trkpt lat="47.982082" lon="11.098415">
<ele>554.045</ele>
<time>2022-05-25T16:26:17Z</time>
</trkpt>
<trkpt lat="47.982086" lon="11.09838">
<ele>554.045</ele>
<time>2022-05-25T16:26:18Z</time>
</trkpt>
<trkpt lat="47.982086" lon="11.098347">
<ele>554.045</ele>
<time>2022-05-25T16:26:19Z</time>
</trkpt>
<trkpt lat="47.98209" lon="11.098318">
<ele>554.045</ele>
<time>2022-05-25T16:26:20Z</time>
</trkpt>
<trkpt lat="47.982094" lon="11.098285">
<ele>554.045</ele>
<time>2022-05-25T16:26:21Z</time>
</trkpt>
<trkpt lat="47.982098" lon="11.098251">
<ele>554.045</ele>
<time>2022-05-25T16:26:22Z</time>
</trkpt>
<trkpt lat="47.982098" lon="11.098209">
<ele>554.045</ele>
<time>2022-05-25T16:26:23Z</time>
</trkpt>
<trkpt lat="47.982101" lon="11.098176">
<ele>554.045</ele>
<time>2022-05-25T16:26:24Z</time>
</trkpt>
<trkpt lat="47.982105" lon="11.098145">
<ele>554.045</ele>
<time>2022-05-25T16:26:25Z</time>
</trkpt>
<trkpt lat="47.982101" lon="11.098106">
<ele>554.045</ele>
<time>2022-05-25T16:26:26Z</time>
</trkpt>
<trkpt lat="47.982101" lon="11.098065">
<ele>554.045</ele>
<time>2022-05-25T16:26:27Z</time>
</trkpt>
<trkpt lat="47.982109" lon="11.098019">
<ele>554.045</ele>
<time>2022-05-25T16:26:28Z</time>
</trkpt>
<trkpt lat="47.982113" lon="11.097965">
<ele>554.045</ele>
<time>2022-05-25T16:26:29Z</time>
</trkpt>
<trkpt lat="47.982117" lon="11.097919">
<ele>554.045</ele>
<time>2022-05-25T16:26:30Z</time>
</trkpt>
<trkpt lat="47.982121" lon="11.097877">
<ele>554.045</ele>
<time>2022-05-25T16:26:31Z</time>
</trkpt>
<trkpt lat="47.982124" lon="11.09784">
<ele>554.045</ele>
<time>2022-05-25T16:26:32Z</time>
</trkpt>
<trkpt lat="47.982128" lon="11.0978">
<ele>554.045</ele>
<time>2022-05-25T16:26:33Z</time>
</trkpt>
<trkpt lat="47.982136" lon="11.097756">
<ele>554.045</ele>
<time>2022-05-25T16:26:34Z</time>
</trkpt>
<trkpt lat="47.982136" lon="11.097709">
<ele>554.045</ele>
<time>2022-05-25T16:26:35Z</time>
</trkpt>
<trkpt lat="47.98214" lon="11.097658">
<ele>554.045</ele>
<time>2022-05-25T16:26:36Z</time>
</trkpt>
<trkpt lat="47.982143" lon="11.097617">
<ele>554.045</ele>
<time>2022-05-25T16:26:37Z</time>
</trkpt>
<trkpt lat="47.982147" lon="11.097575">
<ele>554.045</ele>
<time>2022-05-25T16:26:38Z</time>
</trkpt>
<trkpt lat="47.982147" lon="11.097548">
<ele>554.045</ele>
<time>2022-05-25T16:26:39Z</time>
</trkpt>
<trkpt lat="47.982147" lon="11.097527">
<ele>554.045</ele>
<time>2022-05-25T16:26:40Z</time>
</trkpt>
<trkpt lat="47.98214" lon="11.097491">
<ele>554.045</ele>
<time>2022-05-25T16:26:41Z</time>
</trkpt>
<trkpt lat="47.982136" lon="11.097442">
<ele>554.045</ele>
<time>2022-05-25T16:26:42Z</time>
</trkpt>
<trkpt lat="47.982128" lon="11.097395">
<ele>554.045</ele>
<time>2022-05-25T16:26:43Z</time>
</trkpt>
<trkpt lat="47.982117" lon="11.097355">
<ele>554.045</ele>
<time>2022-05-25T16:26:44Z</time>
</trkpt>
<trkpt lat="47.982113" lon="11.09731">
<ele>554.045</ele>
<time>2022-05-25T16:26:45Z</time>
</trkpt>
<trkpt lat="47.982117" lon="11.097263">
<ele>554.045</ele>
<time>2022-05-25T16:26:46Z</time>
</trkpt>
<trkpt lat="47.982121" lon="11.09722">
<ele>554.315</ele>
<time>2022-05-25T16:26:47Z</time>
</trkpt>
<trkpt lat="47.982124" lon="11.097173">
<ele>554.509</ele>
<time>2022-05-25T16:26:48Z</time>
</trkpt>
<trkpt lat="47.982132" lon="11.097139">
<ele>554.639</ele>
<time>2022-05-25T16:26:49Z</time>
</trkpt>
<trkpt lat="47.982136" lon="11.097112">
<ele>554.73</ele>
<time>2022-05-25T16:26:50Z</time>
</trkpt>
<trkpt lat="47.982147" lon="11.097082">
<ele>554.843</ele>
<time>2022-05-25T16:26:51Z</time>
</trkpt>
<trkpt lat="47.982162" lon="11.097054">
<ele>554.927</ele>
<time>2022-05-25T16:26:52Z</time>
</trkpt>
<trkpt lat="47.982174" lon="11.097018">
<ele>554.978</ele>
<time>2022-05-25T16:26:53Z</time>
</trkpt>
<trkpt lat="47.982193" lon="11.096973">
<ele>555.004</ele>
<time>2022-05-25T16:26:54Z</time>
</trkpt>
<trkpt lat="47.982204" lon="11.096923">
<ele>555.004</ele>
<time>2022-05-25T16:26:55Z</time>
</trkpt>
<trkpt lat="47.982227" lon="11.096867">
<ele>555.004</ele>
<time>2022-05-25T16:26:56Z</time>
</trkpt>
<trkpt lat="47.982239" lon="11.096808">
<ele>555.004</ele>
<time>2022-05-25T16:26:57Z</time>
</trkpt>
<trkpt lat="47.982262" lon="11.096748">
<ele>555.005</ele>
<time>2022-05-25T16:26:58Z</time>
</trkpt>
<trkpt lat="47.982285" lon="11.09669">
<ele>555.004</ele>
<time>2022-05-25T16:26:59Z</time>
</trkpt>
<trkpt lat="47.9823" lon="11.09663">
<ele>555.22</ele>
<time>2022-05-25T16:27:00Z</time>
</trkpt>
<trkpt lat="47.982311" lon="11.096569">
<ele>555.407</ele>
<time>2022-05-25T16:27:01Z</time>
</trkpt>
<trkpt lat="47.982323" lon="11.096512">
<ele>555.548</ele>
<time>2022-05-25T16:27:02Z</time>
</trkpt>
<trkpt lat="47.982334" lon="11.096456">
<ele>555.661</ele>
<time>2022-05-25T16:27:03Z</time>
</trkpt>
<trkpt lat="47.982353" lon="11.096401">
<ele>555.747</ele>
<time>2022-05-25T16:27:04Z</time>
</trkpt>
<trkpt lat="47.982368" lon="11.096349">
<ele>555.813</ele>
<time>2022-05-25T16:27:05Z</time>
</trkpt>
<trkpt lat="47.982391" lon="11.096296">
<ele>555.855</ele>
<time>2022-05-25T16:27:06Z</time>
</trkpt>
<trkpt lat="47.982403" lon="11.096243">
<ele>555.877</ele>
<time>2022-05-25T16:27:07Z</time>
</trkpt>
<trkpt lat="47.98241" lon="11.096187">
<ele>555.877</ele>
<time>2022-05-25T16:27:08Z</time>
</trkpt>
<trkpt lat="47.982422" lon="11.096131">
<ele>556.107</ele>
<time>2022-05-25T16:27:09Z</time>
</trkpt>
<trkpt lat="47.982437" lon="11.096075">
<ele>556.275</ele>
<time>2022-05-25T16:27:10Z</time>
</trkpt>
<trkpt lat="47.982456" lon="11.096008">
<ele>556.448</ele>
<time>2022-05-25T16:27:11Z</time>
</trkpt>
<trkpt lat="47.982475" lon="11.095943">
<ele>556.587</ele>
<time>2022-05-25T16:27:12Z</time>
</trkpt>
<trkpt lat="47.982494" lon="11.095883">
<ele>556.692</ele>
<time>2022-05-25T16:27:13Z</time>
</trkpt>
<trkpt lat="47.982517" lon="11.095823">
<ele>556.768</ele>
<time>2022-05-25T16:27:14Z</time>
</trkpt>
<trkpt lat="47.98254" lon="11.095765">
<ele>556.814</ele>
<time>2022-05-25T16:27:15Z</time>
</trkpt>
<trkpt lat="47.982559" lon="11.09571">
<ele>556.836</ele>
<time>2022-05-25T16:27:16Z</time>
</trkpt>
<trkpt lat="47.982586" lon="11.09566">
<ele>556.836</ele>
<time>2022-05-25T16:27:17Z</time>
</trkpt>
<trkpt lat="47.982609" lon="11.095607">
<ele>556.836</ele>
<time>2022-05-25T16:27:18Z</time>
</trkpt>
<trkpt lat="47.982628" lon="11.095558">
<ele>556.836</ele>
<time>2022-05-25T16:27:19Z</time>
</trkpt>
<trkpt lat="47.982651" lon="11.0955">
<ele>557.043</ele>
<time>2022-05-25T16:27:20Z</time>
</trkpt>
<trkpt lat="47.98267" lon="11.095438">
<ele>557.246</ele>
<time>2022-05-25T16:27:21Z</time>
</trkpt>
<trkpt lat="47.982685" lon="11.095379">
<ele>557.412</ele>
<time>2022-05-25T16:27:22Z</time>
</trkpt>
<trkpt lat="47.982712" lon="11.09531">
<ele>557.549</ele>
<time>2022-05-25T16:27:23Z</time>
</trkpt>
<trkpt lat="47.982738" lon="11.09525">
<ele>557.654</ele>
<time>2022-05-25T16:27:24Z</time>
</trkpt>
<trkpt lat="47.982761" lon="11.095192">
<ele>557.729</ele>
<time>2022-05-25T16:27:25Z</time>
</trkpt>
<trkpt lat="47.982784" lon="11.095128">
<ele>557.774</ele>
<time>2022-05-25T16:27:26Z</time>
</trkpt>
<trkpt lat="47.982807" lon="11.095067">
<ele>557.796</ele>
<time>2022-05-25T16:27:27Z</time>
</trkpt>
<trkpt lat="47.982826" lon="11.095005">
<ele>557.796</ele>
<time>2022-05-25T16:27:28Z</time>
</trkpt>
<trkpt lat="47.982849" lon="11.094945">
<ele>557.796</ele>
<time>2022-05-25T16:27:29Z</time>
</trkpt>
<trkpt lat="47.982872" lon="11.094887">
<ele>558.009</ele>
<time>2022-05-25T16:27:30Z</time>
</trkpt>
<trkpt lat="47.982887" lon="11.094822">
<ele>558.206</ele>
<time>2022-05-25T16:27:31Z</time>
</trkpt>
<trkpt lat="47.98291" lon="11.094762">
<ele>558.374</ele>
<time>2022-05-25T16:27:32Z</time>
</trkpt>
<trkpt lat="47.982925" lon="11.0947">
<ele>558.508</ele>
<time>2022-05-25T16:27:33Z</time>
</trkpt>
<trkpt lat="47.982944" lon="11.094635">
<ele>558.61</ele>
<time>2022-05-25T16:27:34Z</time>
</trkpt>
<trkpt lat="47.98296" lon="11.094573">
<ele>558.685</ele>
<time>2022-05-25T16:27:35Z</time>
</trkpt>
<trkpt lat="47.982979" lon="11.094501">
<ele>558.733</ele>
<time>2022-05-25T16:27:36Z</time>
</trkpt>
<trkpt lat="47.982998" lon="11.094428">
<ele>558.756</ele>
<time>2022-05-25T16:27:37Z</time>
</trkpt>
<trkpt lat="47.983009" lon="11.094358">
<ele>558.756</ele>
<time>2022-05-25T16:27:38Z</time>
</trkpt>
<trkpt lat="47.983025" lon="11.094292">
<ele>558.756</ele>
<time>2022-05-25T16:27:39Z</time>
</trkpt>
<trkpt lat="47.983036" lon="11.094222">
<ele>558.756</ele>
<time>2022-05-25T16:27:40Z</time>
</trkpt>
<trkpt lat="47.983044" lon="11.09416">
<ele>559.01</ele>
<time>2022-05-25T16:27:41Z</time>
</trkpt>
<trkpt lat="47.983051" lon="11.0941">
<ele>559.219</ele>
<time>2022-05-25T16:27:42Z</time>
</trkpt>
<trkpt lat="47.983067" lon="11.09404">
<ele>559.391</ele>
<time>2022-05-25T16:27:43Z</time>
</trkpt>
<trkpt lat="47.983078" lon="11.093982">
<ele>559.526</ele>
<time>2022-05-25T16:27:44Z</time>
</trkpt>
<trkpt lat="47.983093" lon="11.093919">
<ele>559.638</ele>
<time>2022-05-25T16:27:45Z</time>
</trkpt>
<trkpt lat="47.983109" lon="11.093857">
<ele>559.711</ele>
<time>2022-05-25T16:27:46Z</time>
</trkpt>
<trkpt lat="47.983124" lon="11.09379">
<ele>560.027</ele>
<time>2022-05-25T16:27:47Z</time>
</trkpt>
<trkpt lat="47.983143" lon="11.093726">
<ele>560.273</ele>
<time>2022-05-25T16:27:48Z</time>
</trkpt>
<trkpt lat="47.983166" lon="11.093672">
<ele>560.457</ele>
<time>2022-05-25T16:27:49Z</time>
</trkpt>
<trkpt lat="47.983181" lon="11.093621">
<ele>560.567</ele>
<time>2022-05-25T16:27:50Z</time>
</trkpt>
<trkpt lat="47.9832" lon="11.093577">
<ele>560.685</ele>
<time>2022-05-25T16:27:51Z</time>
</trkpt>
<trkpt lat="47.983227" lon="11.093525">
<ele>560.769</ele>
<time>2022-05-25T16:27:52Z</time>
</trkpt>
<trkpt lat="47.983253" lon="11.093472">
<ele>560.823</ele>
<time>2022-05-25T16:27:53Z</time>
</trkpt>
<trkpt lat="47.983284" lon="11.093423">
<ele>560.85</ele>
<time>2022-05-25T16:27:54Z</time>
</trkpt>
<trkpt lat="47.983311" lon="11.09338">
<ele>560.85</ele>
<time>2022-05-25T16:27:55Z</time>
</trkpt>
<trkpt lat="47.983337" lon="11.093342">
<ele>560.85</ele>
<time>2022-05-25T16:27:56Z</time>
</trkpt>
<trkpt lat="47.983368" lon="11.093301">
<ele>560.85</ele>
<time>2022-05-25T16:27:57Z</time>
</trkpt>
<trkpt lat="47.983395" lon="11.093257">
<ele>560.85</ele>
<time>2022-05-25T16:27:58Z</time>
</trkpt>
<trkpt lat="47.983425" lon="11.093217">
<ele>561.083</ele>
<time>2022-05-25T16:27:59Z</time>
</trkpt>
<trkpt lat="47.983456" lon="11.093177">
<ele>561.242</ele>
<time>2022-05-25T16:28:00Z</time>
</trkpt>
<trkpt lat="47.983486" lon="11.093137">
<ele>561.414</ele>
<time>2022-05-25T16:28:01Z</time>
</trkpt>
<trkpt lat="47.983513" lon="11.093095">
<ele>561.555</ele>
<time>2022-05-25T16:28:02Z</time>
</trkpt>
<trkpt lat="47.983536" lon="11.093043">
<ele>561.666</ele>
<time>2022-05-25T16:28:03Z</time>
</trkpt>
<trkpt lat="47.983555" lon="11.092985">
<ele>561.742</ele>
<time>2022-05-25T16:28:04Z</time>
</trkpt>
<trkpt lat="47.983559" lon="11.092919">
<ele>561.787</ele>
<time>2022-05-25T16:28:05Z</time>
</trkpt>
<trkpt lat="47.983551" lon="11.092861">
<ele>561.81</ele>
<time>2022-05-25T16:28:06Z</time>
</trkpt>
<trkpt lat="47.983532" lon="11.092813">
<ele>561.81</ele>
<time>2022-05-25T16:28:07Z</time>
</trkpt>
<trkpt lat="47.983517" lon="11.092775">
<ele>562.063</ele>
<time>2022-05-25T16:28:08Z</time>
</trkpt>
<trkpt lat="47.983494" lon="11.092737">
<ele>562.266</ele>
<time>2022-05-25T16:28:09Z</time>
</trkpt>
<trkpt lat="47.983467" lon="11.092706">
<ele>562.41</ele>
<time>2022-05-25T16:28:10Z</time>
</trkpt>
<trkpt lat="47.983437" lon="11.09268">
<ele>562.557</ele>
<time>2022-05-25T16:28:11Z</time>
</trkpt>
<trkpt lat="47.983402" lon="11.092653">
<ele>562.676</ele>
<time>2022-05-25T16:28:12Z</time>
</trkpt>
<trkpt lat="47.983368" lon="11.092627">
<ele>562.766</ele>
<time>2022-05-25T16:28:13Z</time>
</trkpt>
<trkpt lat="47.983337" lon="11.092602">
<ele>562.829</ele>
<time>2022-05-25T16:28:14Z</time>
</trkpt>
<trkpt lat="47.983307" lon="11.092578">
<ele>562.857</ele>
<time>2022-05-25T16:28:15Z</time>
</trkpt>
<trkpt lat="47.983284" lon="11.092555">
<ele>562.858</ele>
<time>2022-05-25T16:28:16Z</time>
</trkpt>
<trkpt lat="47.983257" lon="11.092535">
<ele>562.858</ele>
<time>2022-05-25T16:28:17Z</time>
</trkpt>
<trkpt lat="47.983231" lon="11.09251">
<ele>562.858</ele>
<time>2022-05-25T16:28:18Z</time>
</trkpt>
<trkpt lat="47.983204" lon="11.092478">
<ele>562.858</ele>
<time>2022-05-25T16:28:19Z</time>
</trkpt>
<trkpt lat="47.983181" lon="11.09244">
<ele>562.858</ele>
<time>2022-05-25T16:28:20Z</time>
</trkpt>
<trkpt lat="47.98317" lon="11.092403">
<ele>562.858</ele>
<time>2022-05-25T16:28:21Z</time>
</trkpt>
<trkpt lat="47.983166" lon="11.09237">
<ele>562.858</ele>
<time>2022-05-25T16:28:22Z</time>
</trkpt>
<trkpt lat="47.983162" lon="11.092335">
<ele>562.858</ele>
<time>2022-05-25T16:28:23Z</time>
</trkpt>
<trkpt lat="47.98317" lon="11.092305">
<ele>562.858</ele>
<time>2022-05-25T16:28:24Z</time>
</trkpt>
<trkpt lat="47.983173" lon="11.092282">
<ele>562.858</ele>
<time>2022-05-25T16:28:25Z</time>
</trkpt>
<trkpt lat="47.983177" lon="11.092261">
<ele>563.079</ele>
<time>2022-05-25T16:28:26Z</time>
</trkpt>
<trkpt lat="47.983185" lon="11.092241">
<ele>563.26</ele>
<time>2022-05-25T16:28:27Z</time>
</trkpt>
<trkpt lat="47.983189" lon="11.092226">
<ele>563.406</ele>
<time>2022-05-25T16:28:28Z</time>
</trkpt>
<trkpt lat="47.983196" lon="11.092216">
<ele>563.529</ele>
<time>2022-05-25T16:28:29Z</time>
</trkpt>
<trkpt lat="47.9832" lon="11.09221">
<ele>563.628</ele>
<time>2022-05-25T16:28:30Z</time>
</trkpt>
<trkpt lat="47.983208" lon="11.092205">
<ele>563.714</ele>
<time>2022-05-25T16:28:31Z</time>
</trkpt>
<trkpt lat="47.983208" lon="11.092205">
<ele>563.714</ele>
</trkpt>
</trkseg>
</trk>
</gpx>